
Distance (Route):
Temperature : 17.7°C
Humidity : 72.4%
Pressure : 945.6hPa| Receiver | Frames | First received | Last received |
|---|---|---|---|
| DK7TD | 923 | 2026-08-30 22:47:56 | 2026-08-31 01:46:17 |
| DL1NUX | 768 | 2026-08-30 23:19:50 | 2026-08-31 02:06:14 |
| DO3MHA-11 | 595 | 2026-08-30 23:11:08 | 2026-08-31 02:17:54 |
| BIOWL1-15 | 431 | 2026-08-30 23:09:17 | 2026-08-31 01:35:41 |
| HSKMA3-T | 406 | 2026-08-30 23:30:38 | 2026-08-31 01:04:49 |
| DM0DOS-11 | 261 | 2026-08-30 23:10:42 | 2026-08-31 01:36:10 |
| DL1XH-west | 238 | 2026-08-30 23:49:55 | 2026-08-31 00:47:07 |
| NBG1-10 | 231 | 2026-08-30 23:13:47 | 2026-08-31 02:27:14 |
| DB0NH | 223 | 2026-08-30 23:07:35 | 2026-08-31 02:25:01 |
| DO9HM | 150 | 2026-08-30 23:29:00 | 2026-08-31 02:22:45 |
| SO1NDE-10 | 121 | 2026-08-30 23:29:37 | 2026-08-31 02:04:54 |
| DK5PH-5 | 120 | 2026-08-30 23:11:10 | 2026-08-31 01:57:21 |
| DF7PN | 106 | 2026-08-30 22:56:47 | 2026-08-31 01:57:29 |
| DF9NV-10 | 100 | 2026-08-31 00:04:59 | 2026-08-31 02:15:38 |
| DB0UT-7 | 98 | 2026-08-30 23:07:30 | 2026-08-31 01:59:57 |
| DB0ND-19 | 96 | 2026-08-30 23:02:45 | 2026-08-31 02:03:16 |
| DL6DJ-15 | 91 | 2026-08-30 23:16:45 | 2026-08-31 02:04:01 |
| DM7RM-13 | 87 | 2026-08-30 23:11:11 | 2026-08-31 01:55:15 |
| DF3TZ-5 | 84 | 2026-08-30 22:58:45 | 2026-08-31 01:44:22 |
| OE5DXL-15 | 78 | 2026-08-30 23:29:14 | 2026-08-31 01:37:37 |
| DF8AY | 75 | 2026-08-31 00:05:27 | 2026-08-31 00:51:21 |
| DJ8HS-15 | 70 | 2026-08-30 23:17:35 | 2026-08-31 01:17:01 |
| DL1XH1-15 | 70 | 2026-08-31 00:11:11 | 2026-08-31 00:45:23 |
| OE5DRO-10 | 60 | 2026-08-30 23:27:49 | 2026-08-31 01:13:49 |
| SONCRA | 56 | 2026-08-30 23:33:09 | 2026-08-31 01:41:05 |
| DF1GD-15 | 54 | 2026-08-30 23:11:09 | 2026-08-31 01:14:24 |
| DL1ZP-14 | 50 | 2026-08-30 22:57:46 | 2026-08-31 01:06:44 |
| AZAK | 48 | 2026-08-30 23:30:31 | 2026-08-31 01:01:39 |
| IW2NTF | 31 | 2026-08-30 23:53:07 | 2026-08-31 00:42:27 |
| DJTTGO | 29 | 2026-08-30 23:13:27 | 2026-08-31 01:44:19 |
| DL0LBS | 29 | 2026-08-31 02:02:21 | 2026-08-31 02:19:35 |
| PG1ADW-2 | 22 | 2026-08-30 23:29:43 | 2026-08-31 00:54:28 |
| BIOWL9-15 | 21 | 2026-08-30 23:11:05 | 2026-08-31 01:34:57 |
| OE5WHR-10 | 20 | 2026-08-31 00:02:15 | 2026-08-31 00:39:00 |
| DC4HF-4 | 16 | 2026-08-31 00:25:55 | 2026-08-31 01:13:59 |
| HEMX73-11 | 12 | 2026-08-31 00:00:43 | 2026-08-31 00:31:59 |
| DL8DAS-14 | 11 | 2026-08-30 23:50:57 | 2026-08-31 00:20:27 |
| DO9LL-15 | 9 | 2026-08-31 00:11:33 | 2026-08-31 00:31:34 |
| EDDB2-12 | 7 | 2026-08-31 00:54:39 | 2026-08-31 00:57:45 |
| AM1SDL-15 | 7 | 2026-08-31 00:57:33 | 2026-08-31 01:27:19 |
| DN1GJH-1 | 7 | 2026-08-31 01:13:24 | 2026-08-31 01:23:18 |
| OE9MKV-15 | 5 | 2026-08-30 23:59:31 | 2026-08-31 00:39:59 |
| SONDE2-11 | 5 | 2026-08-31 00:54:27 | 2026-08-31 00:57:34 |
| OE3JTB-15 | 4 | 2026-08-31 00:58:38 | 2026-08-31 01:00:44 |
| KANTATE | 3 | 2026-08-30 23:14:23 | 2026-08-30 23:33:04 |
| HEMX73-6 | 3 | 2026-08-31 00:13:32 | 2026-08-31 00:25:11 |
| S52SK | 1 | 2026-08-31 00:18:06 | 2026-08-31 00:18:06 |
| Receiver | Date | Latitude | Longitude | Direction | Speed | Altitude | Climb | Temperature | Humidity | Pressure | Voltage | Killtimer | Uptime | BKT | XDATA |
|---|---|---|---|---|---|---|---|---|---|---|---|---|---|---|---|
| NBG1-10 | 2026-08-31 02:27:14 | 49.69889 | 11.74561 | 307° | 20km/h | 623m | -1.7m/s | 17.7°C | 72.4% | 945.6hPa | 2.7V | 00:00:00 | 03:55:21 | 00:00:00 | |
| NBG1-10 | 2026-08-31 02:27:12 | 49.69883 | 11.74573 | 312° | 22km/h | 627m | -1.8m/s | 17.9°C | 71.2% | 945.5hPa | 2.7V | 00:00:00 | 03:55:19 | 00:00:00 | |
| NBG1-10 | 2026-08-31 02:27:10 | 49.69875 | 11.74587 | 312° | 24km/h | 630m | -1.9m/s | 18.0°C | 70.8% | 944.8hPa | 2.7V | 00:00:00 | 03:55:17 | 00:00:00 | |
| NBG1-10 | 2026-08-31 02:27:08 | 49.69867 | 11.74601 | 317° | 24km/h | 634m | -1.9m/s | 18.2°C | 69.6% | 944.4hPa | 2.7V | 00:00:00 | 03:55:15 | 00:00:00 | |
| NBG1-10 | 2026-08-31 02:27:06 | 49.69857 | 11.74612 | 325° | 26km/h | 638m | -1.8m/s | 18.3°C | 69.1% | 944.0hPa | 2.7V | 00:00:00 | 03:55:13 | 00:00:00 | |
| NBG1-10 | 2026-08-31 02:27:04 | 49.69847 | 11.74623 | 329° | 24km/h | 641m | -1.9m/s | 18.3°C | 68.9% | 943.6hPa | 2.7V | 00:00:00 | 03:55:11 | 00:00:00 | |
| NBG1-10 | 2026-08-31 02:27:02 | 49.69836 | 11.74632 | 337° | 24km/h | 645m | -1.8m/s | 18.4°C | 68.3% | 943.2hPa | 2.7V | 06:31:00 | 03:55:09 | 00:00:00 | |
| NBG1-10 | 2026-08-31 02:27:00 | 49.69825 | 11.74639 | 342° | 22km/h | 648m | -1.9m/s | 18.7°C | 67.0% | 942.8hPa | 2.7V | 00:00:00 | 03:55:07 | 00:00:00 | |
| NBG1-10 | 2026-08-31 02:26:58 | 49.69814 | 11.74644 | 344° | 22km/h | 652m | -1.8m/s | 18.9°C | 65.9% | 942.6hPa | 2.7V | 00:00:00 | 03:55:05 | 00:00:00 | |
| NBG1-10 | 2026-08-31 02:26:56 | 49.69803 | 11.74649 | 346° | 22km/h | 655m | -1.4m/s | 19.3°C | 63.7% | 942.2hPa | 2.7V | 00:00:00 | 03:55:03 | 00:00:00 | |
| NBG1-10 | 2026-08-31 02:26:54 | 49.69793 | 11.74652 | 351° | 18km/h | 659m | -1.9m/s | 19.4°C | 62.7% | 941.8hPa | 2.7V | 00:00:00 | 03:55:01 | 00:00:00 | |
| NBG1-10 | 2026-08-31 02:26:50 | 49.69775 | 11.74657 | 347° | 16km/h | 666m | -1.7m/s | 19.7°C | 60.0% | 940.7hPa | 2.7V | 00:00:00 | 03:54:57 | 00:00:00 | |
| NBG1-10 | 2026-08-31 02:26:48 | 49.69768 | 11.74660 | 346° | 15km/h | 670m | -2.0m/s | 19.7°C | 59.9% | 940.5hPa | 2.7V | 06:31:00 | 03:54:55 | 00:00:00 | |
| NBG1-10 | 2026-08-31 02:26:46 | 49.69761 | 11.74664 | 332° | 13km/h | 674m | -1.7m/s | 19.7°C | 59.5% | 940.0hPa | 2.7V | 00:00:00 | 03:54:53 | 00:00:00 | |
| NBG1-10 | 2026-08-31 02:26:44 | 49.69756 | 11.74669 | 319° | 13km/h | 678m | -1.7m/s | 19.7°C | 59.1% | 939.7hPa | 2.7V | 00:00:00 | 03:54:51 | 00:00:00 | |
| NBG1-10 | 2026-08-31 02:26:42 | 49.69752 | 11.74675 | 309° | 13km/h | 681m | -1.9m/s | 19.7°C | 59.0% | 939.1hPa | 2.7V | 00:00:00 | 03:54:49 | 00:00:00 | |
| NBG1-10 | 2026-08-31 02:26:40 | 49.69747 | 11.74683 | 314° | 15km/h | 685m | -2.2m/s | 19.7°C | 58.8% | 938.8hPa | 2.7V | 00:00:00 | 03:54:47 | 00:00:00 | |
| NBG1-10 | 2026-08-31 02:26:38 | 49.69743 | 11.74692 | 311° | 15km/h | 689m | -2.1m/s | 19.6°C | 58.8% | 938.2hPa | 2.7V | 00:00:00 | 03:54:45 | 00:00:00 | |
| NBG1-10 | 2026-08-31 02:26:36 | 49.69738 | 11.74702 | 307° | 16km/h | 693m | -1.8m/s | 19.6°C | 58.8% | 938.0hPa | 2.7V | 00:00:00 | 03:54:43 | 00:00:00 | |
| NBG1-10 | 2026-08-31 02:26:34 | 49.69734 | 11.74713 | 304° | 18km/h | 697m | -2.0m/s | 19.6°C | 58.7% | 937.4hPa | 2.7V | 06:32:00 | 03:54:41 | 00:00:00 | |
| NBG1-10 | 2026-08-31 02:26:32 | 49.69729 | 11.74725 | 305° | 20km/h | 701m | -1.9m/s | 19.6°C | 58.5% | 937.1hPa | 2.7V | 00:00:00 | 03:54:39 | 00:00:00 | |
| NBG1-10 | 2026-08-31 02:26:28 | 49.69713 | 11.74752 | 316° | 26km/h | 709m | -1.7m/s | 19.5°C | 58.7% | 936.3hPa | 2.7V | 00:00:00 | 03:54:35 | 00:00:00 | |
| NBG1-10 | 2026-08-31 02:26:26 | 49.69704 | 11.74765 | 323° | 26km/h | 713m | -1.8m/s | 19.5°C | 58.7% | 936.1hPa | 2.7V | 00:00:00 | 03:54:33 | 00:00:00 | |
| NBG1-10 | 2026-08-31 02:26:24 | 49.69693 | 11.74777 | 327° | 26km/h | 717m | -2.0m/s | 19.5°C | 58.8% | 935.4hPa | 2.7V | 00:00:00 | 03:54:31 | 00:00:00 | |
| NBG1-10 | 2026-08-31 02:26:22 | 49.69682 | 11.74786 | 335° | 24km/h | 720m | -2.0m/s | 19.4°C | 59.0% | 934.9hPa | 2.7V | 00:00:00 | 03:54:29 | 00:00:00 | |
| NBG1-10 | 2026-08-31 02:26:20 | 49.69671 | 11.74794 | 338° | 22km/h | 725m | -2.0m/s | 19.4°C | 59.0% | 934.8hPa | 2.7V | 06:32:00 | 03:54:27 | 00:00:00 | |
| NBG1-10 | 2026-08-31 02:26:18 | 49.69661 | 11.74800 | 342° | 22km/h | 729m | -1.8m/s | 19.4°C | 59.1% | 934.2hPa | 2.7V | 00:00:00 | 03:54:25 | 00:00:00 | |
| NBG1-10 | 2026-08-31 02:26:16 | 49.69651 | 11.74805 | 347° | 18km/h | 733m | -1.6m/s | 19.3°C | 59.2% | 933.8hPa | 2.7V | 00:00:00 | 03:54:23 | 00:00:00 | |
| NBG1-10 | 2026-08-31 02:26:14 | 49.69642 | 11.74808 | 348° | 16km/h | 736m | -1.8m/s | 19.3°C | 59.2% | 933.4hPa | 2.7V | 00:00:00 | 03:54:21 | 00:00:00 | |
| NBG1-10 | 2026-08-31 02:26:12 | 49.69634 | 11.74811 | 344° | 16km/h | 739m | -1.8m/s | 19.3°C | 59.1% | 932.9hPa | 2.7V | 00:00:00 | 03:54:19 | 00:00:00 | |
| NBG1-10 | 2026-08-31 02:26:10 | 49.69626 | 11.74814 | 352° | 16km/h | 744m | -2.0m/s | 19.3°C | 59.1% | 932.6hPa | 2.7V | 00:00:00 | 03:54:17 | 00:00:00 | |
| NBG1-10 | 2026-08-31 02:26:08 | 49.69619 | 11.74817 | 348° | 13km/h | 748m | -2.0m/s | 19.2°C | 59.1% | 932.1hPa | 2.7V | 00:00:00 | 03:54:15 | 00:00:00 | |
| NBG1-10 | 2026-08-31 02:26:06 | 49.69613 | 11.74819 | 336° | 13km/h | 752m | -2.1m/s | 19.2°C | 59.3% | 931.7hPa | 2.7V | 06:32:00 | 03:54:13 | 00:00:00 | |
| NBG1-10 | 2026-08-31 02:26:04 | 49.69607 | 11.74823 | 333° | 13km/h | 756m | -1.8m/s | 19.2°C | 59.3% | 931.4hPa | 2.7V | 00:00:00 | 03:54:11 | 00:00:00 | |
| NBG1-10 | 2026-08-31 02:26:02 | 49.69602 | 11.74828 | 331° | 11km/h | 759m | -1.9m/s | 19.1°C | 59.4% | 930.9hPa | 2.7V | 00:00:00 | 03:54:09 | 00:00:00 | |
| NBG1-10 | 2026-08-31 02:26:00 | 49.69597 | 11.74832 | 321° | 9km/h | 763m | -2.0m/s | 19.1°C | 59.6% | 930.4hPa | 2.7V | 00:00:00 | 03:54:07 | 00:00:00 | |
| NBG1-10 | 2026-08-31 02:25:58 | 49.69593 | 11.74836 | 320° | 11km/h | 767m | -2.2m/s | 19.1°C | 59.3% | 930.0hPa | 2.7V | 00:00:00 | 03:54:05 | 00:00:00 | |
| NBG1-10 | 2026-08-31 02:25:56 | 49.69590 | 11.74842 | 303° | 9km/h | 771m | -2.2m/s | 19.0°C | 59.4% | 929.6hPa | 2.7V | 00:00:00 | 03:54:03 | 00:00:00 | |
| NBG1-10 | 2026-08-31 02:25:54 | 49.69587 | 11.74848 | 306° | 11km/h | 775m | -2.2m/s | 19.0°C | 59.5% | 929.2hPa | 2.7V | 00:00:00 | 03:54:01 | 00:00:00 | |
| NBG1-10 | 2026-08-31 02:25:52 | 49.69584 | 11.74855 | 302° | 11km/h | 780m | -2.2m/s | 19.0°C | 59.6% | 928.6hPa | 2.7V | 06:32:00 | 03:53:59 | 00:00:00 | |
| NBG1-10 | 2026-08-31 02:25:50 | 49.69581 | 11.74863 | 293° | 11km/h | 784m | -2.1m/s | 18.9°C | 59.8% | 928.3hPa | 2.7V | 00:00:00 | 03:53:57 | 00:00:00 | |
| NBG1-10 | 2026-08-31 02:25:48 | 49.69579 | 11.74871 | 300° | 13km/h | 788m | -2.0m/s | 18.9°C | 59.9% | 927.8hPa | 2.7V | 00:00:00 | 03:53:55 | 00:00:00 | |
| NBG1-10 | 2026-08-31 02:25:46 | 49.69575 | 11.74880 | 291° | 15km/h | 792m | -2.0m/s | 18.8°C | 59.8% | 927.4hPa | 2.7V | 00:00:00 | 03:53:53 | 00:00:00 | |
| NBG1-10 | 2026-08-31 02:25:44 | 49.69573 | 11.74890 | 296° | 15km/h | 796m | -1.9m/s | 18.8°C | 59.8% | 926.9hPa | 2.7V | 00:00:00 | 03:53:51 | 00:00:00 | |
| NBG1-10 | 2026-08-31 02:25:42 | 49.69569 | 11.74901 | 297° | 16km/h | 799m | -1.9m/s | 18.8°C | 60.1% | 926.5hPa | 2.7V | 00:00:00 | 03:53:49 | 00:00:00 | |
| NBG1-10 | 2026-08-31 02:25:40 | 49.69566 | 11.74913 | 290° | 16km/h | 804m | -1.9m/s | 18.7°C | 60.2% | 925.9hPa | 2.7V | 00:00:00 | 03:53:47 | 00:00:00 | |
| NBG1-10 | 2026-08-31 02:25:38 | 49.69563 | 11.74925 | 296° | 18km/h | 808m | -2.4m/s | 18.7°C | 60.3% | 925.6hPa | 2.7V | 06:33:00 | 03:53:45 | 00:00:00 | |
| NBG1-10 | 2026-08-31 02:25:36 | 49.69559 | 11.74938 | 295° | 18km/h | 812m | -1.8m/s | 18.7°C | 60.2% | 925.2hPa | 2.7V | 00:00:00 | 03:53:43 | 00:00:00 | |
| NBG1-10 | 2026-08-31 02:25:34 | 49.69554 | 11.74951 | 300° | 20km/h | 816m | -1.8m/s | 18.6°C | 60.3% | 924.8hPa | 2.7V | 00:00:00 | 03:53:41 | 00:00:00 | |
| NBG1-10 | 2026-08-31 02:25:32 | 49.69549 | 11.74964 | 304° | 22km/h | 820m | -1.9m/s | 18.6°C | 59.7% | 924.3hPa | 2.7V | 00:00:00 | 03:53:39 | 00:00:00 | |
| NBG1-10 | 2026-08-31 02:25:30 | 49.69542 | 11.74977 | 314° | 22km/h | 824m | -2.1m/s | 18.6°C | 59.8% | 924.1hPa | 2.7V | 00:00:00 | 03:53:37 | 00:00:00 | |
| NBG1-10 | 2026-08-31 02:25:28 | 49.69534 | 11.74990 | 316° | 22km/h | 829m | -1.6m/s | 18.5°C | 59.9% | 923.5hPa | 2.7V | 00:00:00 | 03:53:35 | 00:00:00 | |
| NBG1-10 | 2026-08-31 02:25:26 | 49.69526 | 11.75001 | 322° | 22km/h | 832m | -1.6m/s | 18.5°C | 59.9% | 923.1hPa | 2.7V | 00:00:00 | 03:53:33 | 00:00:00 | |
| NBG1-10 | 2026-08-31 02:25:24 | 49.69517 | 11.75012 | 324° | 24km/h | 836m | -1.7m/s | 18.5°C | 60.1% | 922.7hPa | 2.7V | 06:33:00 | 03:53:31 | 00:00:00 | |
| NBG1-10 | 2026-08-31 02:25:22 | 49.69507 | 11.75022 | 324° | 22km/h | 839m | -2.0m/s | 18.4°C | 59.8% | 922.4hPa | 2.7V | 00:00:00 | 03:53:29 | 00:00:00 | |
| NBG1-10 | 2026-08-31 02:25:20 | 49.69498 | 11.75031 | 328° | 22km/h | 843m | -2.0m/s | 18.4°C | 60.0% | 921.8hPa | 2.7V | 00:00:00 | 03:53:27 | 00:00:00 | |
| NBG1-10 | 2026-08-31 02:25:18 | 49.69488 | 11.75040 | 334° | 22km/h | 847m | -1.9m/s | 18.4°C | 59.6% | 921.4hPa | 2.7V | 00:00:00 | 03:53:25 | 00:00:00 | |
| NBG1-10 | 2026-08-31 02:25:16 | 49.69478 | 11.75046 | 337° | 20km/h | 851m | -1.9m/s | 18.4°C | 58.2% | 920.9hPa | 2.7V | 00:00:00 | 03:53:23 | 00:00:00 | |
| NBG1-10 | 2026-08-31 02:25:14 | 49.69469 | 11.75053 | 340° | 18km/h | 855m | -2.0m/s | 18.4°C | 57.1% | 920.6hPa | 2.7V | 00:00:00 | 03:53:21 | 00:00:00 | |
| NBG1-10 | 2026-08-31 02:25:12 | 49.69461 | 11.75056 | 345° | 15km/h | 859m | -1.6m/s | 18.4°C | 56.9% | 920.3hPa | 2.7V | 00:00:00 | 03:53:19 | 00:00:00 | |
| NBG1-10 | 2026-08-31 02:25:10 | 49.69454 | 11.75059 | 346° | 15km/h | 863m | -1.9m/s | 18.4°C | 58.5% | 919.8hPa | 2.7V | 06:33:00 | 03:53:17 | 00:00:00 | |
| NBG1-10 | 2026-08-31 02:25:08 | 49.69447 | 11.75062 | 347° | 15km/h | 867m | -1.9m/s | 18.4°C | 59.0% | 919.4hPa | 2.7V | 00:00:00 | 03:53:15 | 00:00:00 | |
| NBG1-10 | 2026-08-31 02:25:06 | 49.69440 | 11.75064 | 352° | 15km/h | 871m | -1.8m/s | 18.3°C | 59.6% | 918.9hPa | 2.7V | 00:00:00 | 03:53:13 | 00:00:00 | |
| NBG1-10 | 2026-08-31 02:25:04 | 49.69432 | 11.75066 | 348° | 13km/h | 874m | -1.6m/s | 18.3°C | 60.6% | 918.6hPa | 2.7V | 00:00:00 | 03:53:11 | 00:00:00 | |
| NBG1-10 | 2026-08-31 02:25:02 | 49.69427 | 11.75068 | 349° | 11km/h | 878m | -1.8m/s | 18.3°C | 60.6% | 918.2hPa | 2.7V | 00:00:00 | 03:53:09 | 00:00:00 | |
| DB0NH | 2026-08-31 02:25:01 | 49.69424 | 11.75069 | 342° | 9km/h | 880m | -1.6m/s | 18.3°C | 60.8% | 917.9hPa | 2.7V | 00:00:00 | 03:53:08 | 00:00:00 | |
| NBG1-10 | 2026-08-31 02:25:00 | 49.69421 | 11.75070 | 341° | 9km/h | 881m | -2.0m/s | 18.3°C | 60.6% | 917.7hPa | 2.7V | 00:00:00 | 03:53:07 | 00:00:00 | |
| NBG1-10 | 2026-08-31 02:24:58 | 49.69417 | 11.75073 | 325° | 9km/h | 885m | -2.0m/s | 18.2°C | 60.4% | 917.4hPa | 2.7V | 00:00:00 | 03:53:05 | 00:00:00 | |
| NBG1-10 | 2026-08-31 02:24:56 | 49.69414 | 11.75078 | 311° | 9km/h | 889m | -1.5m/s | 18.2°C | 60.0% | 916.9hPa | 2.7V | 06:33:00 | 03:53:03 | 00:00:00 | |
| DB0NH | 2026-08-31 02:24:54 | 49.69411 | 11.75084 | 310° | 13km/h | 892m | -1.5m/s | 18.2°C | 59.9% | 916.5hPa | 2.7V | 00:00:00 | 03:53:01 | 00:00:00 | |
| NBG1-10 | 2026-08-31 02:24:54 | 49.69411 | 11.75084 | 310° | 11km/h | 892m | -1.5m/s | 18.2°C | 59.9% | 916.5hPa | 2.7V | 00:00:00 | 03:53:01 | 00:00:00 | |
| NBG1-10 | 2026-08-31 02:24:52 | 49.69407 | 11.75091 | 302° | 13km/h | 896m | -2.0m/s | 18.2°C | 59.7% | 916.1hPa | 2.7V | 00:00:00 | 03:52:59 | 00:00:00 | |
| NBG1-10 | 2026-08-31 02:24:50 | 49.69404 | 11.75100 | 296° | 16km/h | 899m | -1.8m/s | 18.2°C | 59.4% | 915.8hPa | 2.7V | 00:00:00 | 03:52:57 | 00:00:00 | |
| DB0NH | 2026-08-31 02:24:49 | 49.69402 | 11.75105 | 301° | 16km/h | 901m | -2.1m/s | 18.2°C | 59.5% | 915.6hPa | 2.7V | 06:33:00 | 03:52:56 | 00:00:00 | |
| NBG1-10 | 2026-08-31 02:24:43 | 49.69388 | 11.75138 | 309° | 18km/h | 913m | -1.8m/s | 18.1°C | 59.2% | 914.4hPa | 2.7V | 00:00:00 | 03:52:50 | 00:00:00 | |
| DB0NH | 2026-08-31 02:24:43 | 49.69388 | 11.75138 | 309° | 18km/h | 913m | -1.8m/s | 18.1°C | 59.2% | 914.4hPa | 2.7V | 00:00:00 | 03:52:50 | 00:00:00 | |
| DB0NH | 2026-08-31 02:24:38 | 49.69375 | 11.75167 | 304° | 20km/h | 923m | -2.0m/s | 18.1°C | 58.6% | 913.3hPa | 2.7V | 00:00:00 | 03:52:45 | 00:00:00 | |
| NBG1-10 | 2026-08-31 02:24:36 | 49.69369 | 11.75179 | 312° | 20km/h | 928m | -1.6m/s | 18.0°C | 58.9% | 913.0hPa | 2.7V | 00:00:00 | 03:52:43 | 00:00:00 | |
| DB0NH | 2026-08-31 02:24:33 | 49.69359 | 11.75197 | 315° | 22km/h | 933m | -1.6m/s | 18.0°C | 59.4% | 912.3hPa | 2.7V | 00:00:00 | 03:52:40 | 00:00:00 | |
| NBG1-10 | 2026-08-31 02:24:29 | 49.69342 | 11.75220 | 325° | 22km/h | 941m | -1.8m/s | 18.0°C | 59.3% | 911.5hPa | 2.7V | 00:00:00 | 03:52:36 | 00:00:00 | |
| DB0NH | 2026-08-31 02:24:28 | 49.69338 | 11.75225 | 324° | 22km/h | 943m | -1.8m/s | 18.0°C | 59.3% | 911.3hPa | 2.7V | 00:00:00 | 03:52:35 | 00:00:00 | |
| DB0NH | 2026-08-31 02:24:23 | 49.69315 | 11.75249 | 328° | 24km/h | 953m | -2.1m/s | 17.9°C | 59.2% | 910.3hPa | 2.7V | 00:00:00 | 03:52:30 | 00:00:00 | |
| NBG1-10 | 2026-08-31 02:24:22 | 49.69310 | 11.75253 | 330° | 24km/h | 955m | -2.1m/s | 17.9°C | 59.2% | 910.1hPa | 2.7V | 06:34:00 | 03:52:29 | 00:00:00 | |
| DB0NH | 2026-08-31 02:24:18 | 49.69288 | 11.75271 | 332° | 24km/h | 964m | -2.0m/s | 17.8°C | 59.2% | 909.4hPa | 2.7V | 00:00:00 | 03:52:25 | 00:00:00 | |
| NBG1-10 | 2026-08-31 02:24:15 | 49.69272 | 11.75282 | 337° | 24km/h | 970m | -1.9m/s | 17.8°C | 58.8% | 908.7hPa | 2.7V | 00:00:00 | 03:52:22 | 00:00:00 | |
| DB0NH | 2026-08-31 02:24:13 | 49.69261 | 11.75288 | 341° | 24km/h | 974m | -1.9m/s | 17.8°C | 58.5% | 908.3hPa | 2.7V | 06:34:00 | 03:52:20 | 00:00:00 | |
| DB0NH | 2026-08-31 02:24:08 | 49.69232 | 11.75299 | 348° | 22km/h | 984m | -1.9m/s | 17.7°C | 57.6% | 907.4hPa | 2.7V | 00:00:00 | 03:52:15 | 00:00:00 | |
| NBG1-10 | 2026-08-31 02:24:08 | 49.69232 | 11.75299 | 348° | 22km/h | 984m | -1.9m/s | 17.7°C | 57.6% | 907.4hPa | 2.7V | 00:00:00 | 03:52:15 | 00:00:00 | |
| DB0NH | 2026-08-31 02:24:03 | 49.69205 | 11.75305 | 355° | 20km/h | 994m | -1.9m/s | 17.7°C | 57.9% | 906.4hPa | 2.7V | 00:00:00 | 03:52:10 | 00:00:00 | |
| NBG1-10 | 2026-08-31 02:24:01 | 49.69193 | 11.75307 | 3° | 20km/h | 998m | -1.8m/s | 17.7°C | 57.8% | 905.9hPa | 2.7V | 00:00:00 | 03:52:08 | 00:00:00 | |
| DB0NH | 2026-08-31 02:23:58 | 49.69179 | 11.75306 | 360° | 20km/h | 1003m | -1.8m/s | 17.7°C | 56.6% | 905.3hPa | 2.7V | 00:00:00 | 03:52:05 | 00:00:00 | |
| NBG1-10 | 2026-08-31 02:23:54 | 49.69160 | 11.75303 | 4° | 20km/h | 1009m | -1.8m/s | 17.7°C | 55.1% | 904.6hPa | 2.7V | 00:00:00 | 03:52:01 | 00:00:00 | |
| DB0NH | 2026-08-31 02:23:48 | 49.69131 | 11.75295 | 9° | 16km/h | 1019m | -1.6m/s | 17.7°C | 55.0% | 903.4hPa | 2.7V | 00:00:00 | 03:51:55 | 00:00:00 | |
| NBG1-10 | 2026-08-31 02:23:47 | 49.69127 | 11.75293 | 8° | 16km/h | 1021m | -2.0m/s | 17.6°C | 55.0% | 903.0hPa | 2.7V | 00:00:00 | 03:51:54 | 00:00:00 | |
| NBG1-10 | 2026-08-31 02:23:40 | 49.69098 | 11.75280 | 10° | 11km/h | 1033m | -1.7m/s | 17.6°C | 54.7% | 901.8hPa | 2.7V | 00:00:00 | 03:51:47 | 00:00:00 | |
| DB0NH | 2026-08-31 02:23:38 | 49.69092 | 11.75279 | 7° | 13km/h | 1036m | -1.6m/s | 17.5°C | 55.7% | 901.5hPa | 2.7V | 00:00:00 | 03:51:45 | 00:00:00 | |
| NBG1-10 | 2026-08-31 02:23:33 | 49.69081 | 11.75280 | 326° | 16km/h | 1046m | -1.9m/s | 17.5°C | 55.1% | 900.3hPa | 2.7V | 06:35:00 | 03:51:40 | 00:00:00 | |
| DB0NH | 2026-08-31 02:23:28 | 49.69063 | 11.75295 | 340° | 26km/h | 1055m | -1.8m/s | 17.5°C | 55.0% | 899.5hPa | 2.7V | 00:00:00 | 03:51:35 | 00:00:00 | |
| NBG1-10 | 2026-08-31 02:23:26 | 49.69051 | 11.75300 | 345° | 26km/h | 1058m | -1.9m/s | 17.5°C | 54.8% | 899.1hPa | 2.7V | 00:00:00 | 03:51:33 | 00:00:00 | |
| NBG1-10 | 2026-08-31 02:23:19 | 49.69007 | 11.75307 | 360° | 27km/h | 1071m | -2.0m/s | 17.5°C | 54.5% | 897.7hPa | 2.7V | 00:00:00 | 03:51:26 | 00:00:00 | |
| DB0NH | 2026-08-31 02:23:18 | 49.69001 | 11.75307 | 359° | 26km/h | 1074m | -1.8m/s | 17.5°C | 54.6% | 897.4hPa | 2.7V | 06:35:00 | 03:51:25 | 00:00:00 | |
| NBG1-10 | 2026-08-31 02:23:12 | 49.68960 | 11.75303 | 9° | 26km/h | 1085m | -2.1m/s | 17.5°C | 54.8% | 896.2hPa | 2.7V | 00:00:00 | 03:51:19 | 00:00:00 | |
| DB0NH | 2026-08-31 02:23:08 | 49.68935 | 11.75297 | 9° | 26km/h | 1093m | -2.0m/s | 17.5°C | 55.4% | 895.3hPa | 2.7V | 00:00:00 | 03:51:15 | 00:00:00 | |
| NBG1-10 | 2026-08-31 02:23:05 | 49.68915 | 11.75291 | 10° | 26km/h | 1100m | -2.2m/s | 17.5°C | 55.8% | 894.4hPa | 2.7V | 00:00:00 | 03:51:12 | 00:00:00 | |
| NBG1-10 | 2026-08-31 02:22:58 | 49.68875 | 11.75271 | 26° | 18km/h | 1113m | -1.9m/s | 17.4°C | 57.2% | 893.1hPa | 2.7V | 00:00:00 | 03:51:05 | 00:00:00 | |
| DB0NH | 2026-08-31 02:22:58 | 49.68875 | 11.75271 | 26° | 16km/h | 1113m | -1.9m/s | 17.4°C | 57.2% | 893.1hPa | 2.7V | 00:00:00 | 03:51:05 | 00:00:00 | |
| NBG1-10 | 2026-08-31 02:22:51 | 49.68846 | 11.75253 | 16° | 16km/h | 1126m | -1.8m/s | 17.3°C | 57.7% | 891.9hPa | 2.7V | 00:00:00 | 03:50:58 | 00:00:00 | |
| DB0NH | 2026-08-31 02:22:48 | 49.68835 | 11.75251 | 3° | 16km/h | 1133m | -2.0m/s | 17.3°C | 57.9% | 891.2hPa | 2.7V | 00:00:00 | 03:50:55 | 00:00:00 | |
| DO9HM | 2026-08-31 02:22:45 | 49.68827 | 11.75251 | 361° | 16km/h | 1137m | -2.1m/s | 17.3°C | 58.3% | 890.8hPa | 2.7V | 00:00:00 | 00:00:00 | 00:00:00 | |
| NBG1-10 | 2026-08-31 02:22:44 | 49.68819 | 11.75251 | 360° | 18km/h | 1142m | -2.3m/s | 17.2°C | 59.0% | 890.4hPa | 2.7V | 06:35:00 | 03:50:51 | 00:00:00 | |
| DB0NH | 2026-08-31 02:22:38 | 49.68792 | 11.75256 | 348° | 26km/h | 1156m | -1.9m/s | 17.1°C | 59.8% | 888.9hPa | 2.7V | 00:00:00 | 03:50:45 | 00:00:00 | |
| NBG1-10 | 2026-08-31 02:22:37 | 49.68787 | 11.75258 | 351° | 26km/h | 1158m | -2.0m/s | 17.1°C | 59.7% | 888.9hPa | 2.7V | 00:00:00 | 03:50:44 | 00:00:00 | |
| NBG1-10 | 2026-08-31 02:22:30 | 49.68742 | 11.75268 | 357° | 29km/h | 1172m | -1.8m/s | 17.1°C | 60.6% | 887.3hPa | 2.7V | 00:00:00 | 03:50:37 | 00:00:00 | |
| DB0NH | 2026-08-31 02:22:28 | 49.68727 | 11.75270 | 358° | 31km/h | 1175m | -1.9m/s | 17.0°C | 60.9% | 886.9hPa | 2.7V | 00:00:00 | 03:50:35 | 00:00:00 | |
| NBG1-10 | 2026-08-31 02:22:23 | 49.68689 | 11.75275 | 360° | 33km/h | 1184m | -2.0m/s | 16.9°C | 61.0% | 885.8hPa | 2.7V | 00:00:00 | 03:50:30 | 00:00:00 | |
| DB0NH | 2026-08-31 02:22:18 | 49.68649 | 11.75275 | 6° | 33km/h | 1195m | -1.8m/s | 16.8°C | 61.7% | 885.0hPa | 2.7V | 00:00:00 | 03:50:25 | 00:00:00 | |
| NBG1-10 | 2026-08-31 02:22:16 | 49.68631 | 11.75273 | 6° | 33km/h | 1199m | -2.0m/s | 16.8°C | 61.9% | 884.5hPa | 2.7V | 00:00:00 | 03:50:23 | 00:00:00 | |
| DO9HM | 2026-08-31 02:22:15 | 49.68631 | 11.75273 | 6° | 35km/h | 1199m | -2.0m/s | 16.9°C | 61.6% | 884.6hPa | 2.7V | 00:00:00 | 00:00:00 | 00:00:00 | |
| NBG1-10 | 2026-08-31 02:22:09 | 49.68575 | 11.75256 | 18° | 26km/h | 1213m | -1.8m/s | 16.7°C | 63.5% | 883.0hPa | 2.7V | 00:00:00 | 03:50:16 | 00:00:00 | |
| DB0NH | 2026-08-31 02:22:08 | 49.68568 | 11.75252 | 21° | 24km/h | 1215m | -1.7m/s | 16.7°C | 62.3% | 882.8hPa | 2.7V | 06:36:00 | 03:50:15 | 00:00:00 | |
| NBG1-10 | 2026-08-31 02:22:02 | 49.68533 | 11.75234 | 12° | 20km/h | 1227m | -2.0m/s | 16.5°C | 63.1% | 881.6hPa | 2.7V | 00:00:00 | 03:50:09 | 00:00:00 | |
| DB0NH | 2026-08-31 02:21:58 | 49.68512 | 11.75230 | 2° | 22km/h | 1235m | -2.0m/s | 16.5°C | 64.8% | 880.8hPa | 2.7V | 00:00:00 | 03:50:05 | 00:00:00 | |
| NBG1-10 | 2026-08-31 02:21:55 | 49.68497 | 11.75230 | 359° | 22km/h | 1241m | -2.0m/s | 16.4°C | 65.1% | 880.0hPa | 2.7V | 06:36:00 | 03:50:02 | 00:00:00 | |
| DO9HM | 2026-08-31 02:21:49 | 49.68469 | 11.75233 | 355° | 24km/h | 1251m | -1.9m/s | 16.4°C | 65.3% | 879.3hPa | 2.7V | 06:37:00 | 00:00:00 | 00:00:00 | |
| NBG1-10 | 2026-08-31 02:21:48 | 49.68458 | 11.75235 | 353° | 26km/h | 1255m | -2.0m/s | 16.3°C | 65.8% | 878.8hPa | 2.7V | 00:00:00 | 03:49:55 | 00:00:00 | |
| DB0NH | 2026-08-31 02:21:48 | 49.68458 | 11.75235 | 353° | 26km/h | 1255m | -2.0m/s | 16.3°C | 65.8% | 878.8hPa | 2.7V | 00:00:00 | 03:49:55 | 00:00:00 | |
| NBG1-10 | 2026-08-31 02:21:41 | 49.68414 | 11.75245 | 350° | 29km/h | 1268m | -1.9m/s | 16.2°C | 66.7% | 877.3hPa | 2.7V | 00:00:00 | 03:49:48 | 00:00:00 | |
| DB0NH | 2026-08-31 02:21:38 | 49.68393 | 11.75252 | 350° | 31km/h | 1274m | -1.8m/s | 16.1°C | 68.3% | 876.5hPa | 2.7V | 00:00:00 | 03:49:45 | 00:00:00 | |
| NBG1-10 | 2026-08-31 02:21:34 | 49.68363 | 11.75261 | 349° | 31km/h | 1281m | -2.0m/s | 16.0°C | 68.7% | 876.0hPa | 2.7V | 00:00:00 | 03:49:41 | 00:00:00 | |
| DO9HM | 2026-08-31 02:21:29 | 49.68332 | 11.75271 | 350° | 33km/h | 1289m | -1.8m/s | 16.0°C | 68.8% | 875.3hPa | 2.7V | 06:37:00 | 00:00:00 | 00:00:00 | |
| DB0NH | 2026-08-31 02:21:28 | 49.68316 | 11.75275 | 350° | 35km/h | 1293m | -1.8m/s | 15.9°C | 69.2% | 874.6hPa | 2.7V | 00:00:00 | 03:49:35 | 00:00:00 | |
| NBG1-10 | 2026-08-31 02:21:27 | 49.68308 | 11.75277 | 350° | 35km/h | 1295m | -1.9m/s | 15.9°C | 69.1% | 874.5hPa | 2.7V | 00:00:00 | 03:49:34 | 00:00:00 | |
| NBG1-10 | 2026-08-31 02:21:20 | 49.68247 | 11.75292 | 354° | 38km/h | 1308m | -1.9m/s | 15.8°C | 71.1% | 873.2hPa | 2.7V | 00:00:00 | 03:49:27 | 00:00:00 | |
| DB0NH | 2026-08-31 02:21:18 | 49.68229 | 11.75295 | 356° | 38km/h | 1312m | -2.0m/s | 15.7°C | 73.3% | 872.8hPa | 2.7V | 00:00:00 | 03:49:25 | 00:00:00 | |
| NBG1-10 | 2026-08-31 02:21:13 | 49.68180 | 11.75299 | 359° | 40km/h | 1321m | -1.8m/s | 15.6°C | 75.0% | 871.7hPa | 2.7V | 00:00:00 | 03:49:20 | 00:00:00 | |
| DO9HM | 2026-08-31 02:21:08 | 49.68140 | 11.75299 | 2° | 40km/h | 1329m | -1.8m/s | 15.6°C | 74.5% | 871.2hPa | 2.7V | 06:38:00 | 00:00:00 | 00:00:00 | |
| DB0NH | 2026-08-31 02:21:08 | 49.68130 | 11.75299 | 3° | 38km/h | 1331m | -1.8m/s | 15.5°C | 74.9% | 870.8hPa | 2.7V | 00:00:00 | 03:49:15 | 00:00:00 | |
| NBG1-10 | 2026-08-31 02:21:06 | 49.68109 | 11.75297 | 5° | 38km/h | 1334m | -1.8m/s | 15.5°C | 75.1% | 870.4hPa | 2.7V | 06:37:00 | 03:49:13 | 00:00:00 | |
| NBG1-10 | 2026-08-31 02:20:59 | 49.68042 | 11.75281 | 14° | 31km/h | 1347m | -1.6m/s | 15.4°C | 76.3% | 869.1hPa | 2.7V | 00:00:00 | 03:49:06 | 00:00:00 | |
| DB0NH | 2026-08-31 02:20:58 | 49.68034 | 11.75278 | 14° | 29km/h | 1349m | -1.8m/s | 15.3°C | 79.0% | 868.9hPa | 2.7V | 06:37:00 | 03:49:05 | 00:00:00 | |
| NBG1-10 | 2026-08-31 02:20:52 | 49.67989 | 11.75266 | 5° | 31km/h | 1359m | -1.9m/s | 15.2°C | 80.4% | 867.9hPa | 2.7V | 00:00:00 | 03:48:59 | 00:00:00 | |
| DB0NH | 2026-08-31 02:20:48 | 49.67960 | 11.75267 | 355° | 35km/h | 1366m | -1.6m/s | 15.2°C | 80.1% | 867.1hPa | 2.7V | 00:00:00 | 03:48:55 | 00:00:00 | |
| NBG1-10 | 2026-08-31 02:20:38 | 49.67871 | 11.75283 | 356° | 40km/h | 1384m | -1.7m/s | 15.1°C | 81.9% | 865.4hPa | 2.7V | 00:00:00 | 03:48:45 | 00:00:00 | |
| DB0NH | 2026-08-31 02:20:38 | 49.67871 | 11.75283 | 356° | 40km/h | 1384m | -1.7m/s | 15.1°C | 81.9% | 865.4hPa | 2.7V | 00:00:00 | 03:48:45 | 00:00:00 | |
| NBG1-10 | 2026-08-31 02:20:31 | 49.67799 | 11.75286 | 1° | 42km/h | 1397m | -1.8m/s | 15.1°C | 82.2% | 864.1hPa | 2.7V | 00:00:00 | 03:48:38 | 00:00:00 | |
| DB0NH | 2026-08-31 02:20:28 | 49.67768 | 11.75286 | 2° | 42km/h | 1402m | -1.9m/s | 15.0°C | 82.3% | 863.6hPa | 2.7V | 00:00:00 | 03:48:35 | 00:00:00 | |
| DO9HM | 2026-08-31 02:20:26 | 49.67757 | 11.75285 | 3° | 42km/h | 1404m | -1.9m/s | 15.1°C | 81.7% | 863.4hPa | 2.7V | 06:38:00 | 00:00:00 | 00:00:00 | |
| NBG1-10 | 2026-08-31 02:20:24 | 49.67725 | 11.75282 | 6° | 42km/h | 1409m | -1.9m/s | 15.0°C | 82.1% | 862.9hPa | 2.7V | 00:00:00 | 03:48:31 | 00:00:00 | |
| DB0NH | 2026-08-31 02:20:18 | 49.67660 | 11.75268 | 10° | 44km/h | 1420m | -1.9m/s | 15.0°C | 82.1% | 861.8hPa | 2.7V | 00:00:00 | 03:48:25 | 00:00:00 | |
| NBG1-10 | 2026-08-31 02:20:17 | 49.67649 | 11.75266 | 10° | 44km/h | 1422m | -1.8m/s | 14.9°C | 82.1% | 861.4hPa | 2.7V | 06:38:00 | 03:48:24 | 00:00:00 | |
| NBG1-10 | 2026-08-31 02:20:10 | 49.67573 | 11.75245 | 12° | 44km/h | 1435m | -1.8m/s | 14.8°C | 82.7% | 860.3hPa | 2.7V | 00:00:00 | 03:48:17 | 00:00:00 | |
| DB0NH | 2026-08-31 02:20:08 | 49.67551 | 11.75238 | 13° | 44km/h | 1439m | -1.5m/s | 14.8°C | 82.8% | 859.8hPa | 2.7V | 00:00:00 | 03:48:15 | 00:00:00 | |
| DO9HM | 2026-08-31 02:20:05 | 49.67530 | 11.75231 | 13° | 44km/h | 1442m | -1.9m/s | 14.8°C | 82.3% | 859.6hPa | 2.7V | 06:38:00 | 00:00:00 | 00:00:00 | |
| NBG1-10 | 2026-08-31 02:20:03 | 49.67497 | 11.75219 | 14° | 44km/h | 1448m | -1.8m/s | 14.7°C | 83.0% | 858.9hPa | 2.7V | 00:00:00 | 03:48:10 | 00:00:00 | |
| DB0NH | 2026-08-31 02:19:58 | 49.67445 | 11.75197 | 16° | 42km/h | 1457m | -1.7m/s | 14.7°C | 83.2% | 857.9hPa | 2.7V | 00:00:00 | 03:48:05 | 00:00:00 | |
| NBG1-10 | 2026-08-31 02:19:49 | 49.67352 | 11.75150 | 21° | 42km/h | 1474m | -1.8m/s | 14.6°C | 83.4% | 856.2hPa | 2.7V | 00:00:00 | 03:47:56 | 00:00:00 | |
| DB0NH | 2026-08-31 02:19:48 | 49.67342 | 11.75145 | 21° | 42km/h | 1476m | -1.8m/s | 14.6°C | 83.5% | 856.2hPa | 2.7V | 06:38:00 | 03:47:55 | 00:00:00 | |
| DO9HM | 2026-08-31 02:19:46 | 49.67322 | 11.75133 | 22° | 42km/h | 1479m | -1.7m/s | 14.6°C | 82.9% | 855.9hPa | 2.7V | 06:38:00 | 00:00:00 | 00:00:00 | |
| NBG1-10 | 2026-08-31 02:19:42 | 49.67283 | 11.75108 | 24° | 40km/h | 1487m | -1.6m/s | 14.6°C | 83.5% | 855.0hPa | 2.7V | 00:00:00 | 03:47:49 | 00:00:00 | |
| DB0NH | 2026-08-31 02:19:38 | 49.67245 | 11.75082 | 26° | 40km/h | 1494m | -1.8m/s | 14.5°C | 83.5% | 854.2hPa | 2.7V | 00:00:00 | 03:47:45 | 00:00:00 | |
| DL0LBS | 2026-08-31 02:19:35 | 49.67227 | 11.75068 | 27° | 40km/h | 1497m | -1.8m/s | 14.6°C | 82.9% | 854.1hPa | 2.7V | 00:00:00 | 00:00:00 | 00:00:00 | |
| NBG1-10 | 2026-08-31 02:19:35 | 49.67218 | 11.75061 | 27° | 38km/h | 1499m | -1.8m/s | 14.5°C | 83.1% | 853.7hPa | 2.7V | 00:00:00 | 03:47:42 | 00:00:00 | |
| DB0NH | 2026-08-31 02:19:28 | 49.67157 | 11.75011 | 29° | 37km/h | 1512m | -1.7m/s | 14.4°C | 83.9% | 852.5hPa | 2.7V | 00:00:00 | 03:47:35 | 00:00:00 | |
| DO9HM | 2026-08-31 02:19:24 | 49.67132 | 11.74990 | 30° | 38km/h | 1517m | -1.7m/s | 14.4°C | 83.8% | 852.0hPa | 2.7V | 06:39:00 | 00:00:00 | 00:00:00 | |
| NBG1-10 | 2026-08-31 02:19:19 | 49.67084 | 11.74949 | 30° | 31km/h | 1528m | -1.7m/s | 14.3°C | 84.7% | 850.9hPa | 2.7V | 06:39:00 | 03:47:26 | 00:00:00 | |
| DB0NH | 2026-08-31 02:19:18 | 49.67076 | 11.74942 | 30° | 33km/h | 1530m | -1.8m/s | 14.3°C | 83.9% | 850.7hPa | 2.7V | 00:00:00 | 03:47:25 | 00:00:00 | |
| DL0LBS | 2026-08-31 02:19:15 | 49.67054 | 11.74923 | 30° | 33km/h | 1535m | -1.9m/s | 14.3°C | 83.2% | 850.1hPa | 2.7V | 00:00:00 | 00:00:00 | 00:00:00 | |
| DB0NH | 2026-08-31 02:19:08 | 49.67005 | 11.74883 | 26° | 29km/h | 1548m | -1.8m/s | 14.2°C | 84.2% | 848.8hPa | 2.7V | 00:00:00 | 03:47:15 | 00:00:00 | |
| DO9HM | 2026-08-31 02:19:06 | 49.66984 | 11.74869 | 24° | 29km/h | 1554m | -1.8m/s | 14.2°C | 83.7% | 848.3hPa | 2.7V | 06:39:00 | 00:00:00 | 00:00:00 | |
| DB0NH | 2026-08-31 02:18:58 | 49.66936 | 11.74841 | 19° | 31km/h | 1566m | -1.7m/s | 14.0°C | 84.2% | 846.9hPa | 2.7V | 00:00:00 | 03:47:05 | 00:00:00 | |
| NBG1-10 | 2026-08-31 02:18:57 | 49.66929 | 11.74837 | 18° | 37km/h | 1568m | -1.9m/s | 14.0°C | 84.2% | 846.9hPa | 2.7V | 00:00:00 | 03:47:04 | 00:00:00 | |
| DB0NH | 2026-08-31 02:18:48 | 49.66859 | 11.74813 | 11° | 40km/h | 1584m | -1.7m/s | 13.9°C | 84.9% | 845.1hPa | 2.7V | 00:00:00 | 03:46:55 | 00:00:00 | |
| DO9HM | 2026-08-31 02:18:43 | 49.66821 | 11.74801 | 14° | 40km/h | 1592m | -1.9m/s | 13.8°C | 84.2% | 844.5hPa | 2.7V | 06:40:00 | 00:00:00 | 00:00:00 | |
| DB0NH | 2026-08-31 02:18:38 | 49.66760 | 11.74777 | 17° | 42km/h | 1603m | -1.8m/s | 13.7°C | 85.0% | 843.3hPa | 2.7V | 06:40:00 | 03:46:45 | 00:00:00 | |
| NBG1-10 | 2026-08-31 02:18:35 | 49.66729 | 11.74762 | 20° | 38km/h | 1608m | -1.9m/s | 13.6°C | 85.1% | 842.9hPa | 2.7V | 00:00:00 | 03:46:42 | 00:00:00 | |
| DB0NH | 2026-08-31 02:18:28 | 49.66661 | 11.74714 | 28° | 38km/h | 1621m | -1.6m/s | 13.5°C | 85.6% | 841.5hPa | 2.7V | 00:00:00 | 03:46:35 | 00:00:00 | |
| DO9HM | 2026-08-31 02:18:22 | 49.66618 | 11.74677 | 32° | 38km/h | 1630m | -1.8m/s | 13.5°C | 85.1% | 840.7hPa | 2.7V | 06:40:00 | 00:00:00 | 00:00:00 | |
| DL0LBS | 2026-08-31 02:18:13 | 49.66549 | 11.74608 | 35° | 33km/h | 1647m | -2.0m/s | 13.4°C | 85.3% | 838.9hPa | 2.7V | 06:40:00 | 00:00:00 | 00:00:00 | |
| NBG1-10 | 2026-08-31 02:18:13 | 49.66542 | 11.74601 | 34° | 29km/h | 1649m | -1.9m/s | 13.3°C | 86.1% | 838.7hPa | 2.7V | 00:00:00 | 03:46:20 | 00:00:00 | |
| DB0NH | 2026-08-31 02:18:08 | 49.66508 | 11.74567 | 33° | 29km/h | 1658m | -1.9m/s | 13.2°C | 86.7% | 837.7hPa | 2.7V | 00:00:00 | 03:46:15 | 00:00:00 | |
| DO9HM | 2026-08-31 02:18:01 | 49.66469 | 11.74532 | 26° | 29km/h | 1669m | -2.0m/s | 13.2°C | 86.1% | 837.0hPa | 2.7V | 06:40:00 | 00:00:00 | 00:00:00 | |
| DB0NH | 2026-08-31 02:17:58 | 49.66442 | 11.74516 | 18° | 31km/h | 1676m | -1.6m/s | 13.0°C | 87.1% | 836.0hPa | 2.7V | 00:00:00 | 03:46:05 | 00:00:00 | |
| DO3MHA-11 | 2026-08-31 02:17:54 | 49.66413 | 11.74504 | 14° | 33km/h | 1683m | -1.8m/s | 13.0°C | 87.3% | 835.4hPa | 2.7V | 06:40:00 | 03:46:01 | 00:00:00 | |
| DL0LBS | 2026-08-31 02:17:51 | 49.66398 | 11.74498 | 14° | 31km/h | 1687m | -1.9m/s | 13.0°C | 86.7% | 835.1hPa | 2.7V | 00:00:00 | 00:00:00 | 00:00:00 | |
| NBG1-10 | 2026-08-31 02:17:51 | 49.66390 | 11.74495 | 14° | 38km/h | 1689m | -1.6m/s | 12.9°C | 87.3% | 834.9hPa | 2.7V | 00:00:00 | 03:45:58 | 00:00:00 | |
| DB0NH | 2026-08-31 02:17:48 | 49.66365 | 11.74487 | 14° | 38km/h | 1694m | -1.9m/s | 12.9°C | 87.4% | 834.4hPa | 2.7V | 00:00:00 | 03:45:55 | 00:00:00 | |
| DO9HM | 2026-08-31 02:17:40 | 49.66300 | 11.74458 | 21° | 40km/h | 1707m | -1.9m/s | 12.8°C | 85.9% | 833.1hPa | 2.7V | 06:41:00 | 00:00:00 | 00:00:00 | |
| DB0NH | 2026-08-31 02:17:38 | 49.66272 | 11.74440 | 26° | 40km/h | 1713m | -1.7m/s | 12.7°C | 86.9% | 832.5hPa | 2.7V | 00:00:00 | 03:45:45 | 00:00:00 | |
| DL0LBS | 2026-08-31 02:17:30 | 49.66209 | 11.74388 | 32° | 38km/h | 1725m | -1.9m/s | 12.7°C | 86.6% | 831.1hPa | 2.7V | 00:00:00 | 00:00:00 | 00:00:00 | |
| DB0NH | 2026-08-31 02:17:28 | 49.66184 | 11.74363 | 33° | 35km/h | 1731m | -1.8m/s | 12.6°C | 87.6% | 830.5hPa | 2.7V | 06:41:00 | 03:45:35 | 00:00:00 | |
| DO9HM | 2026-08-31 02:17:18 | 49.66119 | 11.74290 | 39° | 33km/h | 1748m | -1.9m/s | 12.5°C | 86.8% | 829.0hPa | 2.7V | 06:41:00 | 00:00:00 | 00:00:00 | |
| DB0NH | 2026-08-31 02:17:18 | 49.66112 | 11.74282 | 39° | 29km/h | 1750m | -2.0m/s | 12.5°C | 86.8% | 828.9hPa | 2.7V | 00:00:00 | 03:45:25 | 00:00:00 | |
| DO3MHA-11 | 2026-08-31 02:17:16 | 49.66100 | 11.74267 | 39° | 27km/h | 1754m | -1.8m/s | 12.4°C | 86.9% | 828.4hPa | 2.7V | 00:00:00 | 03:45:23 | 00:00:00 | |
| DL0LBS | 2026-08-31 02:17:09 | 49.66065 | 11.74228 | 31° | 26km/h | 1765m | -2.0m/s | 12.4°C | 85.5% | 827.3hPa | 2.7V | 00:00:00 | 00:00:00 | 00:00:00 | |
| DB0NH | 2026-08-31 02:17:08 | 49.66053 | 11.74218 | 27° | 29km/h | 1769m | -1.9m/s | 12.3°C | 86.3% | 827.0hPa | 2.7V | 00:00:00 | 03:45:15 | 00:00:00 | |
| NBG1-10 | 2026-08-31 02:17:07 | 49.66047 | 11.74214 | 24° | 35km/h | 1771m | -1.8m/s | 12.3°C | 86.4% | 826.9hPa | 2.7V | 00:00:00 | 03:45:14 | 00:00:00 | |
| DB0NH | 2026-08-31 02:16:58 | 49.65984 | 11.74180 | 20° | 37km/h | 1789m | -2.0m/s | 12.1°C | 86.4% | 825.1hPa | 2.7V | 00:00:00 | 03:45:05 | 00:00:00 | |
| DO9HM | 2026-08-31 02:16:57 | 49.65984 | 11.74180 | 20° | 35km/h | 1789m | -2.0m/s | 12.2°C | 85.5% | 825.2hPa | 2.7V | 06:42:00 | 00:00:00 | 00:00:00 | |
| DB0NH | 2026-08-31 02:16:48 | 49.65897 | 11.74128 | 24° | 38km/h | 1808m | -1.7m/s | 12.0°C | 84.2% | 823.0hPa | 2.7V | 00:00:00 | 03:44:55 | 00:00:00 | |
| NBG1-10 | 2026-08-31 02:16:45 | 49.65870 | 11.74109 | 28° | 38km/h | 1814m | -1.9m/s | 12.0°C | 83.1% | 822.5hPa | 2.7V | 06:41:00 | 03:44:52 | 00:00:00 | |
| DO9HM | 2026-08-31 02:16:38 | 49.65811 | 11.74053 | 36° | 38km/h | 1828m | -1.9m/s | 12.0°C | 77.6% | 821.2hPa | 2.7V | 06:42:00 | 00:00:00 | 00:00:00 | |
| DB0NH | 2026-08-31 02:16:38 | 49.65811 | 11.74053 | 35° | 38km/h | 1828m | -1.9m/s | 12.0°C | 78.4% | 821.2hPa | 2.7V | 00:00:00 | 03:44:45 | 00:00:00 | |
| DB0NH | 2026-08-31 02:16:28 | 49.65732 | 11.73964 | 40° | 35km/h | 1847m | -2.0m/s | 11.9°C | 76.9% | 819.2hPa | 2.7V | 00:00:00 | 03:44:35 | 00:00:00 | |
| NBG1-10 | 2026-08-31 02:16:23 | 49.65697 | 11.73918 | 43° | 29km/h | 1857m | -1.9m/s | 11.8°C | 76.2% | 818.2hPa | 2.7V | 00:00:00 | 03:44:30 | 00:00:00 | |
| DL0LBS | 2026-08-31 02:16:22 | 49.65697 | 11.73918 | 44° | 35km/h | 1857m | -2.0m/s | 11.9°C | 75.4% | 818.3hPa | 2.7V | 06:42:00 | 00:00:00 | 00:00:00 | |
| DB0NH | 2026-08-31 02:16:18 | 49.65667 | 11.73872 | 46° | 31km/h | 1867m | -2.0m/s | 11.7°C | 75.9% | 817.4hPa | 2.7V | 06:42:00 | 03:44:25 | 00:00:00 | |
| DO9HM | 2026-08-31 02:16:17 | 49.65667 | 11.73872 | 47° | 33km/h | 1867m | -2.1m/s | 11.8°C | 75.1% | 817.5hPa | 2.7V | 06:42:00 | 00:00:00 | 00:00:00 | |
| DO3MHA-11 | 2026-08-31 02:16:13 | 49.65639 | 11.73827 | 48° | 29km/h | 1878m | -2.0m/s | 11.6°C | 77.3% | 816.4hPa | 2.7V | 00:00:00 | 03:44:20 | 00:00:00 | |
| DO3MHA-11 | 2026-08-31 02:16:08 | 49.65614 | 11.73787 | 44° | 26km/h | 1887m | -1.9m/s | 11.5°C | 77.5% | 815.4hPa | 2.7V | 00:00:00 | 03:44:15 | 00:00:00 | |
| DB0NH | 2026-08-31 02:16:08 | 49.65614 | 11.73787 | 44° | 27km/h | 1887m | -1.9m/s | 11.5°C | 77.5% | 815.4hPa | 2.7V | 00:00:00 | 03:44:15 | 00:00:00 | |
| DO3MHA-11 | 2026-08-31 02:16:03 | 49.65588 | 11.73755 | 32° | 27km/h | 1898m | -2.0m/s | 11.4°C | 77.8% | 814.4hPa | 2.7V | 00:00:00 | 03:44:10 | 00:00:00 | |
| DL0LBS | 2026-08-31 02:16:01 | 49.65582 | 11.73749 | 30° | 27km/h | 1900m | -1.8m/s | 11.4°C | 76.4% | 814.3hPa | 2.7V | 06:43:00 | 00:00:00 | 00:00:00 | |
| NBG1-10 | 2026-08-31 02:16:01 | 49.65576 | 11.73745 | 28° | 35km/h | 1901m | -2.0m/s | 11.4°C | 77.3% | 814.0hPa | 2.7V | 00:00:00 | 03:44:08 | 00:00:00 | |
| DB0NH | 2026-08-31 02:15:58 | 49.65556 | 11.73730 | 25° | 33km/h | 1907m | -2.0m/s | 11.3°C | 78.1% | 813.5hPa | 2.7V | 00:00:00 | 03:44:05 | 00:00:00 | |
| DO3MHA-11 | 2026-08-31 02:15:58 | 49.65556 | 11.73730 | 25° | 31km/h | 1907m | -2.0m/s | 11.3°C | 78.1% | 813.5hPa | 2.7V | 00:00:00 | 03:44:05 | 00:00:00 | |
| DO9HM | 2026-08-31 02:15:57 | 49.65557 | 11.73730 | 25° | 29km/h | 1907m | -2.0m/s | 11.4°C | 77.2% | 813.5hPa | 2.7V | 06:43:00 | 00:00:00 | 00:00:00 | |
| DO3MHA-11 | 2026-08-31 02:15:53 | 49.65520 | 11.73705 | 25° | 35km/h | 1917m | -1.9m/s | 11.3°C | 77.5% | 812.6hPa | 2.7V | 00:00:00 | 03:44:00 | 00:00:00 | |
| DB0NH | 2026-08-31 02:15:48 | 49.65480 | 11.73674 | 28° | 38km/h | 1926m | -1.7m/s | 11.3°C | 74.1% | 811.7hPa | 2.7V | 00:00:00 | 03:43:55 | 00:00:00 | |
| DO3MHA-11 | 2026-08-31 02:15:48 | 49.65480 | 11.73674 | 28° | 38km/h | 1926m | -1.7m/s | 11.3°C | 74.1% | 811.7hPa | 2.7V | 06:42:00 | 03:43:55 | 00:00:00 | |
| DO3MHA-11 | 2026-08-31 02:15:42 | 49.65428 | 11.73630 | 31° | 40km/h | 1937m | -1.9m/s | 11.2°C | 74.7% | 810.5hPa | 2.7V | 00:00:00 | 03:43:49 | 00:00:00 | |
| NBG1-10 | 2026-08-31 02:15:39 | 49.65403 | 11.73606 | 33° | 37km/h | 1943m | -1.7m/s | 11.1°C | 74.9% | 810.2hPa | 2.7V | 00:00:00 | 03:43:46 | 00:00:00 | |
| DF9NV-10 | 2026-08-31 02:15:38 | 49.65403 | 11.73606 | 33° | 40km/h | 1943m | -1.8m/s | 11.2°C | 74.1% | 810.2hPa | 2.7V | 06:43:00 | 00:00:00 | 00:00:00 | |
| DB0NH | 2026-08-31 02:15:38 | 49.65394 | 11.73598 | 33° | 40km/h | 1945m | -1.8m/s | 11.1°C | 74.9% | 809.9hPa | 2.7V | 00:00:00 | 03:43:45 | 00:00:00 | |
| DO3MHA-11 | 2026-08-31 02:15:37 | 49.65386 | 11.73589 | 35° | 38km/h | 1946m | -1.9m/s | 11.1°C | 75.0% | 809.7hPa | 2.7V | 00:00:00 | 03:43:44 | 00:00:00 | |
| DO9HM | 2026-08-31 02:15:36 | 49.65386 | 11.73589 | 35° | 40km/h | 1946m | -2.0m/s | 11.1°C | 74.2% | 809.7hPa | 2.7V | 06:43:00 | 00:00:00 | 00:00:00 | |
| DB0NH | 2026-08-31 02:15:28 | 49.65319 | 11.73499 | 48° | 33km/h | 1963m | -1.8m/s | 10.9°C | 75.6% | 808.0hPa | 2.7V | 00:00:00 | 03:43:35 | 00:00:00 | |
| DO3MHA-11 | 2026-08-31 02:15:28 | 49.65319 | 11.73499 | 48° | 35km/h | 1963m | -1.8m/s | 10.9°C | 75.6% | 808.0hPa | 2.7V | 00:00:00 | 03:43:35 | 00:00:00 | |
| DO3MHA-11 | 2026-08-31 02:15:22 | 49.65284 | 11.73439 | 50° | 31km/h | 1974m | -1.8m/s | 10.8°C | 76.0% | 807.0hPa | 2.7V | 00:00:00 | 03:43:29 | 00:00:00 | |
| DF9NV-10 | 2026-08-31 02:15:18 | 49.65269 | 11.73412 | 50° | 31km/h | 1980m | -1.8m/s | 10.8°C | 75.2% | 806.5hPa | 2.7V | 06:44:00 | 00:00:00 | 00:00:00 | |
| DB0NH | 2026-08-31 02:15:18 | 49.65264 | 11.73403 | 50° | 29km/h | 1982m | -1.7m/s | 10.7°C | 76.2% | 806.4hPa | 2.7V | 00:00:00 | 03:43:25 | 00:00:00 | |
| NBG1-10 | 2026-08-31 02:15:17 | 49.65259 | 11.73393 | 50° | 29km/h | 1983m | -1.8m/s | 10.7°C | 76.3% | 806.2hPa | 2.7V | 00:00:00 | 03:43:24 | 00:00:00 | |
| DO3MHA-11 | 2026-08-31 02:15:17 | 49.65259 | 11.73393 | 50° | 29km/h | 1983m | -1.8m/s | 10.7°C | 76.3% | 806.2hPa | 2.7V | 00:00:00 | 03:43:24 | 00:00:00 | |
| DO9HM | 2026-08-31 02:15:16 | 49.65260 | 11.73393 | 51° | 31km/h | 1983m | -1.8m/s | 10.8°C | 75.4% | 806.2hPa | 2.7V | 06:44:00 | 00:00:00 | 00:00:00 | |
| DO3MHA-11 | 2026-08-31 02:15:12 | 49.65235 | 11.73350 | 47° | 27km/h | 1992m | -1.7m/s | 10.7°C | 76.9% | 805.3hPa | 2.7V | 00:00:00 | 03:43:19 | 00:00:00 | |
| DL0LBS | 2026-08-31 02:15:11 | 49.65235 | 11.73350 | 47° | 27km/h | 1992m | -1.7m/s | 10.7°C | 76.0% | 805.3hPa | 2.7V | 00:00:00 | 00:00:00 | 00:00:00 | |
| DO3MHA-11 | 2026-08-31 02:15:07 | 49.65210 | 11.73315 | 37° | 27km/h | 2001m | -1.7m/s | 10.6°C | 77.0% | 804.5hPa | 2.7V | 06:43:00 | 03:43:14 | 00:00:00 | |
| DO3MHA-11 | 2026-08-31 02:15:02 | 49.65179 | 11.73286 | 30° | 31km/h | 2010m | -1.6m/s | 10.5°C | 77.3% | 803.5hPa | 2.7V | 00:00:00 | 03:43:09 | 00:00:00 | |
| DO3MHA-11 | 2026-08-31 02:14:57 | 49.65143 | 11.73256 | 30° | 37km/h | 2019m | -1.8m/s | 10.4°C | 78.1% | 802.8hPa | 2.7V | 00:00:00 | 03:43:04 | 00:00:00 | |
| NBG1-10 | 2026-08-31 02:14:55 | 49.65127 | 11.73242 | 31° | 40km/h | 2023m | -1.8m/s | 10.4°C | 78.1% | 802.2hPa | 2.7V | 00:00:00 | 03:43:02 | 00:00:00 | |
| DB0NH | 2026-08-31 02:14:53 | 49.65111 | 11.73227 | 32° | 40km/h | 2026m | -1.8m/s | 10.3°C | 78.5% | 802.0hPa | 2.7V | 00:00:00 | 03:43:00 | 00:00:00 | |
| DO3MHA-11 | 2026-08-31 02:14:52 | 49.65103 | 11.73219 | 33° | 38km/h | 2028m | -1.8m/s | 10.3°C | 78.6% | 801.8hPa | 2.7V | 00:00:00 | 03:42:59 | 00:00:00 | |
| DL0LBS | 2026-08-31 02:14:49 | 49.65087 | 11.73203 | 34° | 38km/h | 2031m | -1.8m/s | 10.3°C | 77.8% | 801.6hPa | 2.7V | 00:00:00 | 00:00:00 | 00:00:00 | |
| DO3MHA-11 | 2026-08-31 02:14:47 | 49.65062 | 11.73177 | 35° | 40km/h | 2037m | -1.8m/s | 10.2°C | 79.0% | 800.9hPa | 2.7V | 00:00:00 | 03:42:54 | 00:00:00 | |
| DO3MHA-11 | 2026-08-31 02:14:42 | 49.65020 | 11.73132 | 36° | 42km/h | 2046m | -1.9m/s | 10.2°C | 79.6% | 799.9hPa | 2.7V | 00:00:00 | 03:42:49 | 00:00:00 | |
| DO3MHA-11 | 2026-08-31 02:14:37 | 49.64978 | 11.73083 | 39° | 44km/h | 2056m | -1.9m/s | 10.1°C | 79.9% | 799.1hPa | 2.7V | 00:00:00 | 03:42:44 | 00:00:00 | |
| DO9HM | 2026-08-31 02:14:34 | 49.64961 | 11.73062 | 41° | 44km/h | 2060m | -2.0m/s | 10.1°C | 79.0% | 798.8hPa | 2.7V | 06:44:00 | 00:00:00 | 00:00:00 | |
| NBG1-10 | 2026-08-31 02:14:33 | 49.64945 | 11.73040 | 42° | 40km/h | 2064m | -2.0m/s | 10.0°C | 80.3% | 798.2hPa | 2.7V | 00:00:00 | 03:42:40 | 00:00:00 | |
| DO3MHA-11 | 2026-08-31 02:14:32 | 49.64936 | 11.73029 | 42° | 42km/h | 2066m | -1.9m/s | 10.0°C | 80.5% | 798.2hPa | 2.7V | 06:44:00 | 03:42:39 | 00:00:00 | |
| DO3MHA-11 | 2026-08-31 02:14:27 | 49.64897 | 11.72972 | 46° | 42km/h | 2076m | -1.9m/s | 9.9°C | 80.8% | 797.2hPa | 2.7V | 00:00:00 | 03:42:34 | 00:00:00 | |
| DO3MHA-11 | 2026-08-31 02:14:22 | 49.64861 | 11.72912 | 50° | 40km/h | 2086m | -1.9m/s | 9.8°C | 81.4% | 796.2hPa | 2.7V | 00:00:00 | 03:42:29 | 00:00:00 | |
| DO3MHA-11 | 2026-08-31 02:14:17 | 49.64830 | 11.72851 | 54° | 35km/h | 2096m | -1.8m/s | 9.8°C | 82.2% | 795.3hPa | 2.7V | 00:00:00 | 03:42:24 | 00:00:00 | |
| DF9NV-10 | 2026-08-31 02:14:16 | 49.64830 | 11.72851 | 55° | 38km/h | 2096m | -1.8m/s | 9.8°C | 81.1% | 795.4hPa | 2.7V | 06:44:00 | 00:00:00 | 00:00:00 | |
| DO9HM | 2026-08-31 02:14:14 | 49.64814 | 11.72818 | 54° | 33km/h | 2101m | -2.0m/s | 9.8°C | 81.8% | 794.9hPa | 2.7V | 00:00:00 | 00:00:00 | 00:00:00 | |
| DB0NH | 2026-08-31 02:14:13 | 49.64809 | 11.72808 | 52° | 37km/h | 2103m | -1.7m/s | 9.7°C | 83.7% | 794.6hPa | 2.7V | 00:00:00 | 03:42:20 | 00:00:00 | |
| DO3MHA-11 | 2026-08-31 02:14:12 | 49.64804 | 11.72798 | 51° | 31km/h | 2105m | -1.9m/s | 9.7°C | 83.9% | 794.4hPa | 2.7V | 00:00:00 | 03:42:19 | 00:00:00 | |
| NBG1-10 | 2026-08-31 02:14:11 | 49.64799 | 11.72789 | 49° | 38km/h | 2107m | -1.8m/s | 9.7°C | 84.2% | 794.2hPa | 2.7V | 06:44:00 | 03:42:18 | 00:00:00 | |
| DO3MHA-11 | 2026-08-31 02:14:07 | 49.64777 | 11.72756 | 40° | 33km/h | 2114m | -1.8m/s | 9.6°C | 84.9% | 793.5hPa | 2.7V | 00:00:00 | 03:42:14 | 00:00:00 | |
| DO3MHA-11 | 2026-08-31 02:14:02 | 49.64742 | 11.72717 | 34° | 38km/h | 2124m | -1.8m/s | 9.5°C | 85.5% | 792.7hPa | 2.7V | 00:00:00 | 03:42:09 | 00:00:00 | |
| DO3MHA-11 | 2026-08-31 02:13:57 | 49.64701 | 11.72673 | 37° | 42km/h | 2133m | -1.7m/s | 9.4°C | 87.7% | 791.7hPa | 2.7V | 06:44:00 | 03:42:04 | 00:00:00 | |
| DF9NV-10 | 2026-08-31 02:13:55 | 49.64692 | 11.72662 | 39° | 42km/h | 2135m | -1.8m/s | 9.5°C | 86.3% | 791.5hPa | 2.7V | 06:44:00 | 00:00:00 | 00:00:00 | |
| DB0NH | 2026-08-31 02:13:53 | 49.64667 | 11.72631 | 40° | 46km/h | 2140m | -1.8m/s | 9.4°C | 87.6% | 791.1hPa | 2.7V | 00:00:00 | 03:42:00 | 00:00:00 | |
| DO3MHA-11 | 2026-08-31 02:13:52 | 49.64658 | 11.72620 | 41° | 44km/h | 2142m | -1.7m/s | 9.4°C | 88.0% | 790.8hPa | 2.7V | 00:00:00 | 03:41:59 | 00:00:00 | |
| NBG1-10 | 2026-08-31 02:13:49 | 49.64633 | 11.72586 | 42° | 46km/h | 2148m | -2.0m/s | 9.4°C | 87.9% | 790.3hPa | 2.7V | 00:00:00 | 03:41:56 | 00:00:00 | |
| DL0LBS | 2026-08-31 02:13:48 | 49.64633 | 11.72586 | 43° | 44km/h | 2148m | -2.0m/s | 9.4°C | 86.7% | 790.4hPa | 2.7V | 00:00:00 | 00:00:00 | 00:00:00 | |
| DO3MHA-11 | 2026-08-31 02:13:47 | 49.64616 | 11.72563 | 43° | 46km/h | 2152m | -1.9m/s | 9.3°C | 87.6% | 790.0hPa | 2.7V | 00:00:00 | 03:41:54 | 00:00:00 | |
| DO3MHA-11 | 2026-08-31 02:13:42 | 49.64575 | 11.72503 | 44° | 46km/h | 2161m | -1.9m/s | 9.3°C | 87.3% | 789.0hPa | 2.7V | 00:00:00 | 03:41:49 | 00:00:00 | |
| DO3MHA-11 | 2026-08-31 02:13:37 | 49.64534 | 11.72441 | 47° | 46km/h | 2171m | -1.9m/s | 9.2°C | 87.3% | 788.1hPa | 2.7V | 00:00:00 | 03:41:44 | 00:00:00 | |
| DF9NV-10 | 2026-08-31 02:13:34 | 49.64518 | 11.72414 | 49° | 46km/h | 2175m | -1.9m/s | 9.2°C | 86.0% | 787.7hPa | 2.7V | 06:45:00 | 00:00:00 | 00:00:00 | |
| DB0NH | 2026-08-31 02:13:33 | 49.64503 | 11.72387 | 51° | 46km/h | 2179m | -2.0m/s | 9.2°C | 85.6% | 787.5hPa | 2.7V | 00:00:00 | 03:41:40 | 00:00:00 | |
| DO3MHA-11 | 2026-08-31 02:13:32 | 49.64495 | 11.72373 | 52° | 46km/h | 2181m | -1.8m/s | 9.2°C | 85.7% | 787.2hPa | 2.7V | 00:00:00 | 03:41:39 | 00:00:00 | |
| DO3MHA-11 | 2026-08-31 02:13:27 | 49.64460 | 11.72302 | 55° | 46km/h | 2190m | -1.9m/s | 9.1°C | 86.0% | 786.3hPa | 2.7V | 00:00:00 | 03:41:34 | 00:00:00 | |
| DL0LBS | 2026-08-31 02:13:26 | 49.64460 | 11.72302 | 55° | 46km/h | 2190m | -1.9m/s | 9.2°C | 84.8% | 786.3hPa | 2.7V | 00:00:00 | 00:00:00 | 00:00:00 | |
| DO9HM | 2026-08-31 02:13:25 | 49.64447 | 11.72273 | 57° | 46km/h | 2194m | -2.1m/s | 9.1°C | 84.6% | 786.0hPa | 2.7V | 06:45:00 | 00:00:00 | 00:00:00 | |
| DO3MHA-11 | 2026-08-31 02:13:22 | 49.64428 | 11.72230 | 57° | 46km/h | 2200m | -2.0m/s | 9.1°C | 85.2% | 785.5hPa | 2.7V | 06:45:00 | 03:41:29 | 00:00:00 | |
| DO3MHA-11 | 2026-08-31 02:13:17 | 49.64397 | 11.72155 | 58° | 46km/h | 2210m | -2.0m/s | 9.0°C | 83.5% | 784.3hPa | 2.7V | 00:00:00 | 03:41:24 | 00:00:00 | |
| DB0NH | 2026-08-31 02:13:13 | 49.64373 | 11.72095 | 61° | 38km/h | 2218m | -1.7m/s | 9.0°C | 83.1% | 783.6hPa | 2.7V | 00:00:00 | 03:41:20 | 00:00:00 | |
| DO3MHA-11 | 2026-08-31 02:13:12 | 49.64368 | 11.72080 | 61° | 42km/h | 2220m | -1.8m/s | 8.9°C | 83.4% | 783.4hPa | 2.7V | 00:00:00 | 03:41:19 | 00:00:00 | |
| DO3MHA-11 | 2026-08-31 02:13:07 | 49.64343 | 11.72007 | 64° | 37km/h | 2230m | -1.9m/s | 8.8°C | 84.5% | 782.5hPa | 2.7V | 00:00:00 | 03:41:14 | 00:00:00 | |
| DL0LBS | 2026-08-31 02:13:06 | 49.64343 | 11.72007 | 64° | 40km/h | 2230m | -1.9m/s | 8.9°C | 83.3% | 782.5hPa | 2.7V | 00:00:00 | 00:00:00 | 00:00:00 | |
| NBG1-10 | 2026-08-31 02:13:05 | 49.64334 | 11.71980 | 62° | 40km/h | 2234m | -1.8m/s | 8.8°C | 84.0% | 782.1hPa | 2.7V | 00:00:00 | 03:41:12 | 00:00:00 | |
| DO9HM | 2026-08-31 02:13:03 | 49.64330 | 11.71968 | 62° | 37km/h | 2235m | -1.9m/s | 8.8°C | 82.7% | 782.0hPa | 2.7V | 06:45:00 | 00:00:00 | 00:00:00 | |
| DO3MHA-11 | 2026-08-31 02:13:02 | 49.64321 | 11.71945 | 56° | 35km/h | 2239m | -1.8m/s | 8.8°C | 83.7% | 781.7hPa | 2.7V | 00:00:00 | 03:41:09 | 00:00:00 | |
| DO3MHA-11 | 2026-08-31 02:12:57 | 49.64292 | 11.71893 | 46° | 38km/h | 2248m | -1.7m/s | 8.7°C | 81.8% | 780.8hPa | 2.7V | 00:00:00 | 03:41:04 | 00:00:00 | |
| DB0NH | 2026-08-31 02:12:53 | 49.64264 | 11.71850 | 45° | 46km/h | 2255m | -1.7m/s | 8.7°C | 81.2% | 780.1hPa | 2.7V | 06:45:00 | 03:41:00 | 00:00:00 | |
| DO3MHA-11 | 2026-08-31 02:12:52 | 49.64257 | 11.71839 | 46° | 44km/h | 2257m | -1.7m/s | 8.7°C | 80.7% | 780.0hPa | 2.7V | 00:00:00 | 03:40:59 | 00:00:00 | |
| DO3MHA-11 | 2026-08-31 02:12:47 | 49.64219 | 11.71775 | 51° | 47km/h | 2266m | -1.7m/s | 8.7°C | 78.3% | 779.2hPa | 2.7V | 06:45:00 | 03:40:54 | 00:00:00 | |
| DL0LBS | 2026-08-31 02:12:44 | 49.64204 | 11.71746 | 53° | 47km/h | 2270m | -1.6m/s | 8.8°C | 75.8% | 778.8hPa | 2.7V | 06:46:00 | 00:00:00 | 00:00:00 | |
| NBG1-10 | 2026-08-31 02:12:43 | 49.64190 | 11.71717 | 54° | 47km/h | 2273m | -1.7m/s | 8.7°C | 77.5% | 778.4hPa | 2.7V | 00:00:00 | 03:40:50 | 00:00:00 | |
| DO3MHA-11 | 2026-08-31 02:12:42 | 49.64182 | 11.71702 | 55° | 47km/h | 2275m | -1.7m/s | 8.7°C | 77.0% | 778.3hPa | 2.7V | 00:00:00 | 03:40:49 | 00:00:00 | |
| DO3MHA-11 | 2026-08-31 02:12:37 | 49.64149 | 11.71625 | 58° | 47km/h | 2284m | -1.7m/s | 8.7°C | 74.8% | 777.4hPa | 2.7V | 00:00:00 | 03:40:44 | 00:00:00 | |
| DB0NH | 2026-08-31 02:12:33 | 49.64123 | 11.71562 | 60° | 44km/h | 2291m | -1.8m/s | 8.6°C | 75.5% | 776.7hPa | 2.7V | 00:00:00 | 03:40:40 | 00:00:00 | |
| DO3MHA-11 | 2026-08-31 02:12:32 | 49.64117 | 11.71546 | 60° | 47km/h | 2293m | -1.7m/s | 8.6°C | 75.2% | 776.6hPa | 2.7V | 00:00:00 | 03:40:39 | 00:00:00 | |
| DF9NV-10 | 2026-08-31 02:12:31 | 49.64117 | 11.71546 | 60° | 47km/h | 2293m | -1.8m/s | 8.6°C | 74.2% | 776.6hPa | 2.7V | 06:46:00 | 00:00:00 | 00:00:00 | |
| DO3MHA-11 | 2026-08-31 02:12:27 | 49.64088 | 11.71466 | 63° | 46km/h | 2302m | -1.7m/s | 8.5°C | 76.5% | 775.7hPa | 2.7V | 00:00:00 | 03:40:34 | 00:00:00 | |
| DL0LBS | 2026-08-31 02:12:23 | 49.64073 | 11.71417 | 65° | 46km/h | 2307m | -1.6m/s | 8.5°C | 77.3% | 775.3hPa | 2.7V | 06:46:00 | 00:00:00 | 00:00:00 | |
| DO3MHA-11 | 2026-08-31 02:12:22 | 49.64063 | 11.71385 | 66° | 44km/h | 2311m | -1.8m/s | 8.4°C | 78.8% | 774.9hPa | 2.7V | 00:00:00 | 03:40:29 | 00:00:00 | |
| NBG1-10 | 2026-08-31 02:12:21 | 49.64058 | 11.71369 | 67° | 37km/h | 2312m | -1.8m/s | 8.4°C | 79.2% | 774.7hPa | 2.7V | 00:00:00 | 03:40:28 | 00:00:00 | |
| DO9HM | 2026-08-31 02:12:20 | 49.64054 | 11.71353 | 69° | 44km/h | 2314m | -1.9m/s | 8.4°C | 78.8% | 774.6hPa | 2.7V | 06:46:00 | 00:00:00 | 00:00:00 | |
| DO3MHA-11 | 2026-08-31 02:12:17 | 49.64042 | 11.71306 | 69° | 38km/h | 2320m | -1.8m/s | 8.3°C | 79.9% | 774.0hPa | 2.7V | 00:00:00 | 03:40:24 | 00:00:00 | |
| DB0NH | 2026-08-31 02:12:13 | 49.64027 | 11.71250 | 68° | 37km/h | 2327m | -1.7m/s | 8.3°C | 79.6% | 773.4hPa | 2.7V | 00:00:00 | 03:40:20 | 00:00:00 | |
| DO3MHA-11 | 2026-08-31 02:12:12 | 49.64023 | 11.71237 | 67° | 35km/h | 2328m | -1.9m/s | 8.3°C | 79.8% | 773.2hPa | 2.7V | 06:46:00 | 03:40:19 | 00:00:00 | |
| DF9NV-10 | 2026-08-31 02:12:11 | 49.64023 | 11.71237 | 68° | 37km/h | 2328m | -1.9m/s | 8.3°C | 78.6% | 773.2hPa | 2.7V | 06:46:00 | 00:00:00 | 00:00:00 | |
| DO3MHA-11 | 2026-08-31 02:12:07 | 49.64004 | 11.71177 | 62° | 35km/h | 2338m | -1.7m/s | 8.2°C | 79.9% | 772.3hPa | 2.7V | 00:00:00 | 03:40:14 | 00:00:00 | |
| DO3MHA-11 | 2026-08-31 02:12:02 | 49.63982 | 11.71120 | 57° | 37km/h | 2346m | -1.8m/s | 8.1°C | 80.2% | 771.6hPa | 2.7V | 00:00:00 | 03:40:09 | 00:00:00 | |
| DL0LBS | 2026-08-31 02:12:01 | 49.63982 | 11.71120 | 57° | 35km/h | 2346m | -1.8m/s | 8.1°C | 79.0% | 771.7hPa | 2.7V | 06:46:00 | 00:00:00 | 00:00:00 | |
| NBG1-10 | 2026-08-31 02:11:59 | 49.63967 | 11.71086 | 53° | 44km/h | 2352m | -1.7m/s | 8.0°C | 80.5% | 771.0hPa | 2.7V | 00:00:00 | 03:40:06 | 00:00:00 | |
| DO3MHA-11 | 2026-08-31 02:11:57 | 49.63955 | 11.71064 | 52° | 40km/h | 2355m | -1.7m/s | 8.0°C | 80.9% | 770.7hPa | 2.7V | 00:00:00 | 03:40:04 | 00:00:00 | |
| DB0NH | 2026-08-31 02:11:53 | 49.63929 | 11.71014 | 53° | 47km/h | 2362m | -1.7m/s | 7.9°C | 81.8% | 770.0hPa | 2.7V | 00:00:00 | 03:40:00 | 00:00:00 | |
| DO3MHA-11 | 2026-08-31 02:11:52 | 49.63923 | 11.71000 | 53° | 46km/h | 2364m | -1.6m/s | 7.9°C | 81.8% | 770.0hPa | 2.7V | 00:00:00 | 03:39:59 | 00:00:00 | |
| DF9NV-10 | 2026-08-31 02:11:50 | 49.63916 | 11.70986 | 55° | 46km/h | 2366m | -1.5m/s | 7.9°C | 81.4% | 769.9hPa | 2.7V | 06:47:00 | 00:00:00 | 00:00:00 | |
| DO3MHA-11 | 2026-08-31 02:11:47 | 49.63889 | 11.70927 | 56° | 47km/h | 2372m | -1.7m/s | 7.8°C | 85.3% | 769.1hPa | 2.7V | 00:00:00 | 03:39:54 | 00:00:00 | |
| DO3MHA-11 | 2026-08-31 02:11:42 | 49.63856 | 11.70851 | 57° | 47km/h | 2381m | -1.7m/s | 7.7°C | 86.1% | 768.2hPa | 2.7V | 00:00:00 | 03:39:49 | 00:00:00 | |
| DO9HM | 2026-08-31 02:11:39 | 49.63829 | 11.70788 | 59° | 49km/h | 2388m | -1.7m/s | 7.7°C | 85.4% | 767.6hPa | 2.7V | 06:47:00 | 00:00:00 | 00:00:00 | |
| DO3MHA-11 | 2026-08-31 02:11:32 | 49.63792 | 11.70687 | 63° | 51km/h | 2399m | -1.6m/s | 7.5°C | 89.4% | 766.7hPa | 2.7V | 00:00:00 | 03:39:39 | 00:00:00 | |
| DF9NV-10 | 2026-08-31 02:11:29 | 49.63780 | 11.70652 | 65° | 51km/h | 2402m | -1.7m/s | 7.6°C | 88.5% | 766.3hPa | 2.7V | 06:47:00 | 00:00:00 | 00:00:00 | |
| DO3MHA-11 | 2026-08-31 02:11:27 | 49.63763 | 11.70598 | 66° | 51km/h | 2408m | -1.8m/s | 7.4°C | 90.0% | 765.8hPa | 2.7V | 00:00:00 | 03:39:34 | 00:00:00 | |
| DO3MHA-11 | 2026-08-31 02:11:22 | 49.63737 | 11.70506 | 68° | 51km/h | 2417m | -1.7m/s | 7.4°C | 91.7% | 765.0hPa | 2.7V | 00:00:00 | 03:39:29 | 00:00:00 | |
| DO3MHA-11 | 2026-08-31 02:11:17 | 49.63713 | 11.70413 | 69° | 51km/h | 2426m | -1.9m/s | 7.3°C | 92.4% | 764.0hPa | 2.7V | 00:00:00 | 03:39:24 | 00:00:00 | |
| DO9HM | 2026-08-31 02:11:16 | 49.63713 | 11.70413 | 70° | 51km/h | 2426m | -2.0m/s | 7.3°C | 90.9% | 764.1hPa | 2.7V | 06:47:00 | 00:00:00 | 00:00:00 | |
| NBG1-10 | 2026-08-31 02:11:15 | 49.63704 | 11.70375 | 71° | 44km/h | 2429m | -1.7m/s | 7.3°C | 93.5% | 763.8hPa | 2.7V | 00:00:00 | 03:39:22 | 00:00:00 | |
| DB0NH | 2026-08-31 02:11:13 | 49.63696 | 11.70338 | 72° | 42km/h | 2433m | -1.9m/s | 7.2°C | 93.6% | 763.4hPa | 2.7V | 00:00:00 | 03:39:20 | 00:00:00 | |
| DO3MHA-11 | 2026-08-31 02:11:12 | 49.63692 | 11.70320 | 73° | 47km/h | 2435m | -1.7m/s | 7.2°C | 93.8% | 763.4hPa | 2.7V | 00:00:00 | 03:39:19 | 00:00:00 | |
| DF9NV-10 | 2026-08-31 02:11:09 | 49.63684 | 11.70284 | 75° | 47km/h | 2439m | -1.8m/s | 7.2°C | 92.3% | 762.9hPa | 2.7V | 06:48:00 | 00:00:00 | 00:00:00 | |
| DO3MHA-11 | 2026-08-31 02:11:07 | 49.63674 | 11.70231 | 74° | 42km/h | 2444m | -1.5m/s | 7.1°C | 94.4% | 762.5hPa | 2.7V | 00:00:00 | 03:39:14 | 00:00:00 | |
| DO3MHA-11 | 2026-08-31 02:11:02 | 49.63658 | 11.70152 | 72° | 40km/h | 2452m | -1.6m/s | 7.1°C | 96.0% | 761.8hPa | 2.7V | 06:47:00 | 03:39:09 | 00:00:00 | |
| DO3MHA-11 | 2026-08-31 02:10:57 | 49.63641 | 11.70081 | 68° | 38km/h | 2461m | -1.4m/s | 7.0°C | 97.3% | 760.9hPa | 2.7V | 00:00:00 | 03:39:04 | 00:00:00 | |
| DO9HM | 2026-08-31 02:10:55 | 49.63637 | 11.70067 | 68° | 38km/h | 2462m | -1.8m/s | 7.0°C | 95.9% | 760.9hPa | 2.7V | 06:48:00 | 00:00:00 | 00:00:00 | |
| DB0NH | 2026-08-31 02:10:53 | 49.63625 | 11.70027 | 65° | 38km/h | 2468m | -1.9m/s | 6.9°C | 98.3% | 760.4hPa | 2.7V | 00:00:00 | 03:39:00 | 00:00:00 | |
| DO3MHA-11 | 2026-08-31 02:10:52 | 49.63621 | 11.70013 | 65° | 38km/h | 2469m | -1.8m/s | 6.9°C | 98.7% | 760.1hPa | 2.7V | 00:00:00 | 03:38:59 | 00:00:00 | |
| DF9NV-10 | 2026-08-31 02:10:49 | 49.63612 | 11.69986 | 64° | 38km/h | 2473m | -1.8m/s | 7.0°C | 97.3% | 759.9hPa | 2.7V | 06:48:00 | 00:00:00 | 00:00:00 | |
| DO3MHA-11 | 2026-08-31 02:10:47 | 49.63599 | 11.69947 | 63° | 38km/h | 2479m | -1.7m/s | 6.9°C | 99.5% | 759.3hPa | 2.7V | 00:00:00 | 03:38:54 | 00:00:00 | |
| DO3MHA-11 | 2026-08-31 02:10:42 | 49.63575 | 11.69881 | 62° | 38km/h | 2487m | -1.7m/s | 6.9°C | 99.0% | 758.5hPa | 2.7V | 00:00:00 | 03:38:49 | 00:00:00 | |
| DO3MHA-11 | 2026-08-31 02:10:37 | 49.63551 | 11.69816 | 60° | 38km/h | 2496m | -1.8m/s | 6.8°C | 97.5% | 757.6hPa | 2.7V | 00:00:00 | 03:38:44 | 00:00:00 | |
| DO9HM | 2026-08-31 02:10:34 | 49.63541 | 11.69790 | 59° | 38km/h | 2500m | -1.9m/s | 6.8°C | 95.6% | 757.4hPa | 2.7V | 06:48:00 | 00:00:00 | 00:00:00 | |
| DB0NH | 2026-08-31 02:10:33 | 49.63530 | 11.69765 | 57° | 40km/h | 2503m | -1.8m/s | 6.8°C | 96.8% | 757.0hPa | 2.7V | 06:48:00 | 03:38:40 | 00:00:00 | |
| DO3MHA-11 | 2026-08-31 02:10:32 | 49.63525 | 11.69752 | 56° | 38km/h | 2505m | -1.8m/s | 6.8°C | 96.7% | 756.7hPa | 2.7V | 00:00:00 | 03:38:39 | 00:00:00 | |
| NBG1-10 | 2026-08-31 02:10:31 | 49.63519 | 11.69740 | 56° | 40km/h | 2507m | -1.7m/s | 6.7°C | 96.8% | 756.7hPa | 2.7V | 00:00:00 | 03:38:38 | 00:00:00 | |
| DF9NV-10 | 2026-08-31 02:10:29 | 49.63514 | 11.69727 | 56° | 38km/h | 2509m | -1.8m/s | 6.8°C | 95.0% | 756.6hPa | 2.7V | 06:48:00 | 00:00:00 | 00:00:00 | |
| DO3MHA-11 | 2026-08-31 02:10:27 | 49.63496 | 11.69690 | 55° | 40km/h | 2514m | -1.9m/s | 6.7°C | 95.2% | 756.2hPa | 2.7V | 06:48:00 | 03:38:34 | 00:00:00 | |
| DL0LBS | 2026-08-31 02:10:24 | 49.63485 | 11.69665 | 55° | 40km/h | 2518m | -1.8m/s | 6.7°C | 93.7% | 755.8hPa | 2.7V | 06:48:00 | 00:00:00 | 00:00:00 | |
| DO3MHA-11 | 2026-08-31 02:10:22 | 49.63467 | 11.69628 | 53° | 40km/h | 2523m | -1.7m/s | 6.6°C | 94.9% | 755.1hPa | 2.7V | 00:00:00 | 03:38:29 | 00:00:00 | |
| DO3MHA-11 | 2026-08-31 02:10:17 | 49.63434 | 11.69567 | 51° | 40km/h | 2532m | -1.6m/s | 6.6°C | 94.1% | 754.3hPa | 2.7V | 00:00:00 | 03:38:24 | 00:00:00 | |
| DO9HM | 2026-08-31 02:10:14 | 49.63421 | 11.69542 | 51° | 40km/h | 2535m | -1.8m/s | 6.6°C | 92.7% | 754.1hPa | 2.7V | 06:49:00 | 00:00:00 | 00:00:00 | |
| DB0NH | 2026-08-31 02:10:13 | 49.63408 | 11.69518 | 50° | 47km/h | 2539m | -1.8m/s | 6.5°C | 94.4% | 753.7hPa | 2.7V | 00:00:00 | 03:38:20 | 00:00:00 | |
| DO3MHA-11 | 2026-08-31 02:10:12 | 49.63401 | 11.69506 | 50° | 42km/h | 2541m | -1.8m/s | 6.5°C | 92.9% | 753.6hPa | 2.7V | 00:00:00 | 03:38:19 | 00:00:00 | |
| NBG1-10 | 2026-08-31 02:10:09 | 49.63380 | 11.69469 | 48° | 49km/h | 2546m | -1.8m/s | 6.5°C | 93.1% | 753.1hPa | 2.7V | 00:00:00 | 03:38:16 | 00:00:00 | |
| DF9NV-10 | 2026-08-31 02:10:08 | 49.63380 | 11.69469 | 49° | 44km/h | 2546m | -1.9m/s | 6.5°C | 91.5% | 753.2hPa | 2.7V | 06:49:00 | 00:00:00 | 00:00:00 | |
| DO3MHA-11 | 2026-08-31 02:10:07 | 49.63365 | 11.69444 | 48° | 46km/h | 2550m | -1.7m/s | 6.4°C | 92.8% | 752.7hPa | 2.7V | 00:00:00 | 03:38:14 | 00:00:00 | |
| DL0LBS | 2026-08-31 02:10:03 | 49.63342 | 11.69404 | 49° | 47km/h | 2555m | -1.8m/s | 6.5°C | 91.3% | 752.1hPa | 2.7V | 06:49:00 | 00:00:00 | 00:00:00 | |
| DO3MHA-11 | 2026-08-31 02:10:02 | 49.63325 | 11.69377 | 49° | 51km/h | 2559m | -1.7m/s | 6.4°C | 93.2% | 751.9hPa | 2.7V | 00:00:00 | 03:38:09 | 00:00:00 | |
| DO3MHA-11 | 2026-08-31 02:09:57 | 49.63285 | 11.69300 | 54° | 53km/h | 2568m | -1.7m/s | 6.3°C | 92.3% | 751.1hPa | 2.7V | 00:00:00 | 03:38:04 | 00:00:00 | |
| DB0NH | 2026-08-31 02:09:53 | 49.63254 | 11.69232 | 56° | 55km/h | 2575m | -1.7m/s | 6.3°C | 92.0% | 750.4hPa | 2.7V | 00:00:00 | 03:38:00 | 00:00:00 | |
| DO3MHA-11 | 2026-08-31 02:09:52 | 49.63246 | 11.69215 | 56° | 53km/h | 2577m | -1.7m/s | 6.2°C | 92.4% | 750.3hPa | 2.7V | 06:48:00 | 03:37:59 | 00:00:00 | |
| DO3MHA-11 | 2026-08-31 02:09:47 | 49.63208 | 11.69129 | 56° | 55km/h | 2586m | -1.8m/s | 6.2°C | 92.0% | 749.4hPa | 2.7V | 00:00:00 | 03:37:54 | 00:00:00 | |
| DO3MHA-11 | 2026-08-31 02:09:42 | 49.63170 | 11.69041 | 58° | 55km/h | 2595m | -1.7m/s | 6.1°C | 92.2% | 748.6hPa | 2.7V | 00:00:00 | 03:37:49 | 00:00:00 | |
| DO3MHA-11 | 2026-08-31 02:09:37 | 49.63134 | 11.68951 | 59° | 55km/h | 2604m | -1.6m/s | 6.0°C | 92.7% | 747.8hPa | 2.7V | 00:00:00 | 03:37:44 | 00:00:00 | |
| DO9HM | 2026-08-31 02:09:34 | 49.63112 | 11.68897 | 59° | 55km/h | 2610m | -2.0m/s | 6.0°C | 91.8% | 747.2hPa | 2.7V | 06:49:00 | 00:00:00 | 00:00:00 | |
| DB0NH | 2026-08-31 02:09:33 | 49.63104 | 11.68879 | 59° | 55km/h | 2612m | -1.8m/s | 6.0°C | 93.3% | 747.0hPa | 2.7V | 00:00:00 | 03:37:40 | 00:00:00 | |
| DO3MHA-11 | 2026-08-31 02:09:32 | 49.63097 | 11.68860 | 59° | 55km/h | 2614m | -1.8m/s | 6.0°C | 93.3% | 746.9hPa | 2.7V | 00:00:00 | 03:37:39 | 00:00:00 | |
| DO3MHA-11 | 2026-08-31 02:09:27 | 49.63060 | 11.68769 | 60° | 55km/h | 2623m | -1.9m/s | 6.1°C | 91.4% | 746.1hPa | 2.7V | 00:00:00 | 03:37:34 | 00:00:00 | |
| DF9NV-10 | 2026-08-31 02:09:26 | 49.63060 | 11.68769 | 60° | 55km/h | 2623m | -1.9m/s | 6.1°C | 89.7% | 746.1hPa | 2.7V | 06:50:00 | 00:00:00 | 00:00:00 | |
| NBG1-10 | 2026-08-31 02:09:25 | 49.63046 | 11.68731 | 60° | 51km/h | 2627m | -1.9m/s | 6.1°C | 90.6% | 745.8hPa | 2.7V | 00:00:00 | 03:37:32 | 00:00:00 | |
| DO3MHA-11 | 2026-08-31 02:09:22 | 49.63026 | 11.68675 | 62° | 55km/h | 2633m | -1.9m/s | 6.0°C | 90.3% | 745.3hPa | 2.7V | 00:00:00 | 03:37:29 | 00:00:00 | |
| DL0LBS | 2026-08-31 02:09:21 | 49.63026 | 11.68675 | 63° | 55km/h | 2633m | -2.0m/s | 6.1°C | 88.7% | 745.3hPa | 2.7V | 06:50:00 | 00:00:00 | 00:00:00 | |
| DO3MHA-11 | 2026-08-31 02:09:17 | 49.62995 | 11.68580 | 65° | 53km/h | 2642m | -1.8m/s | 6.0°C | 91.0% | 744.2hPa | 2.7V | 06:49:00 | 03:37:24 | 00:00:00 | |
| DB0NH | 2026-08-31 02:09:13 | 49.62973 | 11.68505 | 67° | 46km/h | 2649m | -1.9m/s | 5.9°C | 91.4% | 743.6hPa | 2.7V | 00:00:00 | 03:37:20 | 00:00:00 | |
| DO3MHA-11 | 2026-08-31 02:09:12 | 49.62968 | 11.68487 | 67° | 49km/h | 2651m | -1.7m/s | 5.9°C | 91.3% | 743.5hPa | 2.7V | 00:00:00 | 03:37:19 | 00:00:00 | |
| DO3MHA-11 | 2026-08-31 02:09:07 | 49.62944 | 11.68400 | 68° | 46km/h | 2660m | -1.9m/s | 5.9°C | 92.5% | 742.7hPa | 2.7V | 00:00:00 | 03:37:14 | 00:00:00 | |
| DF9NV-10 | 2026-08-31 02:09:06 | 49.62944 | 11.68400 | 68° | 47km/h | 2660m | -2.0m/s | 5.9°C | 90.8% | 742.8hPa | 2.7V | 06:50:00 | 00:00:00 | 00:00:00 | |
| NBG1-10 | 2026-08-31 02:09:03 | 49.62926 | 11.68334 | 67° | 42km/h | 2667m | -1.7m/s | 5.8°C | 94.0% | 742.1hPa | 2.7V | 06:49:00 | 03:37:10 | 00:00:00 | |
| DO3MHA-11 | 2026-08-31 02:09:02 | 49.62922 | 11.68319 | 66° | 44km/h | 2669m | -1.7m/s | 5.8°C | 94.5% | 741.9hPa | 2.7V | 00:00:00 | 03:37:09 | 00:00:00 | |
| DL0LBS | 2026-08-31 02:08:58 | 49.62908 | 11.68273 | 65° | 42km/h | 2675m | -1.8m/s | 5.8°C | 93.2% | 741.6hPa | 2.7V | 06:50:00 | 00:00:00 | 00:00:00 | |
| DO3MHA-11 | 2026-08-31 02:08:57 | 49.62898 | 11.68243 | 64° | 42km/h | 2678m | -1.8m/s | 5.7°C | 95.1% | 741.2hPa | 2.7V | 00:00:00 | 03:37:04 | 00:00:00 | |
| DB0NH | 2026-08-31 02:08:53 | 49.62879 | 11.68185 | 64° | 46km/h | 2686m | -1.9m/s | 5.7°C | 95.7% | 740.5hPa | 2.7V | 00:00:00 | 03:37:00 | 00:00:00 | |
| DO3MHA-11 | 2026-08-31 02:08:52 | 49.62875 | 11.68170 | 64° | 42km/h | 2688m | -1.8m/s | 5.7°C | 95.7% | 740.2hPa | 2.7V | 00:00:00 | 03:36:59 | 00:00:00 | |
| DO3MHA-11 | 2026-08-31 02:08:47 | 49.62849 | 11.68099 | 59° | 42km/h | 2697m | -1.7m/s | 5.6°C | 96.3% | 739.3hPa | 2.7V | 00:00:00 | 03:36:54 | 00:00:00 | |
| DF9NV-10 | 2026-08-31 02:08:46 | 49.62850 | 11.68099 | 60° | 42km/h | 2697m | -1.7m/s | 5.7°C | 94.4% | 739.4hPa | 2.7V | 06:50:00 | 00:00:00 | 00:00:00 | |
| DO3MHA-11 | 2026-08-31 02:08:42 | 49.62819 | 11.68032 | 53° | 46km/h | 2707m | -1.8m/s | 5.6°C | 95.5% | 738.6hPa | 2.7V | 06:49:00 | 03:36:49 | 00:00:00 | |
| NBG1-10 | 2026-08-31 02:08:41 | 49.62812 | 11.68018 | 53° | 53km/h | 2708m | -1.8m/s | 5.6°C | 95.7% | 738.4hPa | 2.7V | 00:00:00 | 03:36:48 | 00:00:00 | |
| DO3MHA-11 | 2026-08-31 02:08:37 | 49.62782 | 11.67960 | 53° | 51km/h | 2716m | -1.8m/s | 5.5°C | 96.0% | 737.6hPa | 2.7V | 00:00:00 | 03:36:44 | 00:00:00 | |
| DB0NH | 2026-08-31 02:08:33 | 49.62751 | 11.67894 | 56° | 55km/h | 2723m | -1.9m/s | 5.4°C | 96.1% | 737.1hPa | 2.7V | 00:00:00 | 03:36:40 | 00:00:00 | |
| DO3MHA-11 | 2026-08-31 02:08:32 | 49.62744 | 11.67877 | 56° | 53km/h | 2725m | -1.8m/s | 5.4°C | 95.7% | 736.9hPa | 2.7V | 00:00:00 | 03:36:39 | 00:00:00 | |
| DO3MHA-11 | 2026-08-31 02:08:27 | 49.62707 | 11.67789 | 59° | 55km/h | 2735m | -1.9m/s | 5.3°C | 95.9% | 736.1hPa | 2.7V | 00:00:00 | 03:36:34 | 00:00:00 | |
| DF9NV-10 | 2026-08-31 02:08:25 | 49.62700 | 11.67771 | 60° | 55km/h | 2737m | -2.1m/s | 5.4°C | 94.2% | 735.9hPa | 2.7V | 06:50:00 | 00:00:00 | 00:00:00 | |
| DO3MHA-11 | 2026-08-31 02:08:22 | 49.62672 | 11.67697 | 62° | 55km/h | 2745m | -2.0m/s | 5.3°C | 95.6% | 735.1hPa | 2.7V | 00:00:00 | 03:36:29 | 00:00:00 | |
| NBG1-10 | 2026-08-31 02:08:19 | 49.62653 | 11.67640 | 63° | 55km/h | 2751m | -2.1m/s | 5.2°C | 95.9% | 734.6hPa | 2.7V | 00:00:00 | 03:36:26 | 00:00:00 | |
| DO3MHA-11 | 2026-08-31 02:08:17 | 49.62640 | 11.67602 | 64° | 55km/h | 2755m | -1.9m/s | 5.2°C | 96.1% | 734.3hPa | 2.7V | 00:00:00 | 03:36:24 | 00:00:00 | |
| DL0LBS | 2026-08-31 02:08:16 | 49.62640 | 11.67602 | 65° | 55km/h | 2755m | -1.9m/s | 5.2°C | 94.2% | 734.3hPa | 2.7V | 00:00:00 | 00:00:00 | 00:00:00 | |
| DB0NH | 2026-08-31 02:08:13 | 49.62617 | 11.67525 | 66° | 53km/h | 2763m | -1.9m/s | 5.1°C | 96.6% | 733.6hPa | 2.7V | 06:50:00 | 03:36:20 | 00:00:00 | |
| DO3MHA-11 | 2026-08-31 02:08:12 | 49.62611 | 11.67506 | 67° | 55km/h | 2765m | -1.9m/s | 5.0°C | 96.6% | 733.4hPa | 2.7V | 00:00:00 | 03:36:19 | 00:00:00 | |
| DO9HM | 2026-08-31 02:08:11 | 49.62611 | 11.67506 | 67° | 55km/h | 2765m | -1.9m/s | 5.1°C | 94.7% | 733.5hPa | 2.7V | 06:50:00 | 00:00:00 | 00:00:00 | |
| DO3MHA-11 | 2026-08-31 02:08:07 | 49.62584 | 11.67408 | 68° | 53km/h | 2775m | -2.1m/s | 4.9°C | 97.1% | 732.6hPa | 2.7V | 06:50:00 | 03:36:14 | 00:00:00 | |
| DF9NV-10 | 2026-08-31 02:08:04 | 49.62574 | 11.67369 | 70° | 55km/h | 2779m | -2.1m/s | 4.9°C | 95.2% | 732.2hPa | 2.7V | 06:50:00 | 00:00:00 | 00:00:00 | |
| DO3MHA-11 | 2026-08-31 02:08:02 | 49.62560 | 11.67310 | 71° | 53km/h | 2786m | -2.0m/s | 4.8°C | 97.6% | 731.5hPa | 2.7V | 00:00:00 | 03:36:09 | 00:00:00 | |
| DO3MHA-11 | 2026-08-31 02:07:57 | 49.62539 | 11.67214 | 74° | 49km/h | 2796m | -2.0m/s | 4.7°C | 97.8% | 730.6hPa | 2.7V | 00:00:00 | 03:36:04 | 00:00:00 | |
| DL0LBS | 2026-08-31 02:07:56 | 49.62539 | 11.67214 | 74° | 51km/h | 2796m | -2.1m/s | 4.8°C | 95.8% | 730.6hPa | 2.7V | 00:00:00 | 00:00:00 | 00:00:00 | |
| DB0NH | 2026-08-31 02:07:53 | 49.62525 | 11.67139 | 74° | 47km/h | 2804m | -1.8m/s | 4.6°C | 98.3% | 729.8hPa | 2.7V | 00:00:00 | 03:36:00 | 00:00:00 | |
| DO3MHA-11 | 2026-08-31 02:07:52 | 49.62521 | 11.67122 | 74° | 42km/h | 2806m | -2.0m/s | 4.6°C | 98.4% | 729.7hPa | 2.7V | 00:00:00 | 03:35:59 | 00:00:00 | |
| DO3MHA-11 | 2026-08-31 02:07:47 | 49.62503 | 11.67045 | 66° | 44km/h | 2816m | -2.0m/s | 4.5°C | 98.9% | 728.9hPa | 2.7V | 00:00:00 | 03:35:54 | 00:00:00 | |
| DF9NV-10 | 2026-08-31 02:07:43 | 49.62488 | 11.67001 | 61° | 44km/h | 2822m | -1.9m/s | 4.5°C | 97.0% | 728.4hPa | 2.7V | 06:51:00 | 00:00:00 | 00:00:00 | |
| DO3MHA-11 | 2026-08-31 02:07:42 | 49.62476 | 11.66970 | 59° | 49km/h | 2826m | -2.0m/s | 4.5°C | 99.2% | 728.0hPa | 2.7V | 00:00:00 | 03:35:49 | 00:00:00 | |
| DO3MHA-11 | 2026-08-31 02:07:37 | 49.62443 | 11.66886 | 59° | 53km/h | 2836m | -2.1m/s | 4.4°C | 99.6% | 726.9hPa | 2.7V | 00:00:00 | 03:35:44 | 00:00:00 | |
| DL0LBS | 2026-08-31 02:07:36 | 49.62443 | 11.66886 | 60° | 53km/h | 2836m | -2.2m/s | 4.5°C | 97.6% | 727.0hPa | 2.7V | 06:51:00 | 00:00:00 | 00:00:00 | |
| NBG1-10 | 2026-08-31 02:07:35 | 49.62429 | 11.66851 | 60° | 57km/h | 2840m | -1.9m/s | 4.4°C | 0% | 726.6hPa | 2.7V | 00:00:00 | 03:35:42 | 00:00:00 | |
| DB0NH | 2026-08-31 02:07:33 | 49.62416 | 11.66815 | 61° | 57km/h | 2844m | -1.8m/s | 4.4°C | 0% | 726.2hPa | 2.7V | 00:00:00 | 03:35:40 | 00:00:00 | |
| DO3MHA-11 | 2026-08-31 02:07:32 | 49.62409 | 11.66797 | 61° | 55km/h | 2846m | -2.1m/s | 4.4°C | 0% | 726.0hPa | 2.7V | 06:51:00 | 03:35:39 | 00:00:00 | |
| DO9HM | 2026-08-31 02:07:30 | 49.62402 | 11.66778 | 62° | 55km/h | 2848m | -2.2m/s | 4.4°C | 97.9% | 725.9hPa | 2.7V | 06:51:00 | 00:00:00 | 00:00:00 | |
| DO3MHA-11 | 2026-08-31 02:07:27 | 49.62376 | 11.66701 | 64° | 57km/h | 2857m | -2.0m/s | 4.3°C | 0% | 725.2hPa | 2.7V | 00:00:00 | 03:35:34 | 00:00:00 | |
| DO3MHA-11 | 2026-08-31 02:07:22 | 49.62344 | 11.66601 | 66° | 58km/h | 2868m | -2.2m/s | 4.3°C | 0% | 724.1hPa | 2.7V | 00:00:00 | 03:35:29 | 00:00:00 | |
| DO3MHA-11 | 2026-08-31 02:07:17 | 49.62316 | 11.66497 | 70° | 57km/h | 2879m | -2.2m/s | 4.2°C | 0% | 723.2hPa | 2.7V | 00:00:00 | 03:35:24 | 00:00:00 | |
| DL0LBS | 2026-08-31 02:07:15 | 49.62311 | 11.66477 | 71° | 58km/h | 2881m | -2.1m/s | 4.2°C | 98.5% | 723.0hPa | 2.7V | 06:51:00 | 00:00:00 | 00:00:00 | |
| DB0NH | 2026-08-31 02:07:13 | 49.62297 | 11.66413 | 73° | 51km/h | 2888m | -2.1m/s | 4.1°C | 0% | 722.5hPa | 2.7V | 00:00:00 | 03:35:20 | 00:00:00 | |
| DO3MHA-11 | 2026-08-31 02:07:12 | 49.62293 | 11.66392 | 74° | 55km/h | 2890m | -2.2m/s | 4.1°C | 0% | 722.3hPa | 2.7V | 00:00:00 | 03:35:19 | 00:00:00 | |
| DO9HM | 2026-08-31 02:07:09 | 49.62285 | 11.66351 | 75° | 55km/h | 2894m | -1.9m/s | 4.1°C | 98.5% | 722.0hPa | 2.7V | 06:51:00 | 00:00:00 | 00:00:00 | |
| DO3MHA-11 | 2026-08-31 02:07:07 | 49.62274 | 11.66290 | 76° | 53km/h | 2900m | -2.0m/s | 4.0°C | 0% | 721.4hPa | 2.7V | 00:00:00 | 03:35:14 | 00:00:00 | |
| DO3MHA-11 | 2026-08-31 02:07:02 | 49.62258 | 11.66192 | 78° | 49km/h | 2910m | -1.9m/s | 4.0°C | 0% | 720.6hPa | 2.7V | 00:00:00 | 03:35:09 | 00:00:00 | |
| DO3MHA-11 | 2026-08-31 02:06:57 | 49.62244 | 11.66097 | 77° | 49km/h | 2920m | -1.9m/s | 3.9°C | 0% | 719.6hPa | 2.6V | 06:51:00 | 03:35:04 | 00:00:00 | |
| DL0LBS | 2026-08-31 02:06:55 | 49.62241 | 11.66078 | 77° | 49km/h | 2922m | -1.9m/s | 4.0°C | 99.0% | 719.5hPa | 2.6V | 06:51:00 | 00:00:00 | 00:00:00 | |
| DB0NH | 2026-08-31 02:06:53 | 49.62232 | 11.66023 | 77° | 47km/h | 2927m | -1.8m/s | 3.9°C | 0% | 718.9hPa | 2.6V | 00:00:00 | 03:35:00 | 00:00:00 | |
| DO3MHA-11 | 2026-08-31 02:06:52 | 49.62230 | 11.66005 | 77° | 46km/h | 2929m | -1.8m/s | 3.9°C | 0% | 718.7hPa | 2.6V | 00:00:00 | 03:34:59 | 00:00:00 | |
| NBG1-10 | 2026-08-31 02:06:51 | 49.62227 | 11.65987 | 76° | 49km/h | 2931m | -1.9m/s | 3.9°C | 0% | 718.5hPa | 2.6V | 00:00:00 | 03:34:58 | 00:00:00 | |
| DO9HM | 2026-08-31 02:06:49 | 49.62224 | 11.65969 | 77° | 46km/h | 2933m | -2.2m/s | 3.9°C | 99.3% | 718.4hPa | 2.6V | 06:52:00 | 00:00:00 | 00:00:00 | |
| DO3MHA-11 | 2026-08-31 02:06:47 | 49.62215 | 11.65918 | 74° | 44km/h | 2939m | -2.4m/s | 3.8°C | 0% | 717.9hPa | 2.6V | 00:00:00 | 03:34:54 | 00:00:00 | |
| DO3MHA-11 | 2026-08-31 02:06:42 | 49.62195 | 11.65836 | 66° | 49km/h | 2950m | -1.8m/s | 3.7°C | 0% | 717.1hPa | 2.7V | 00:00:00 | 03:34:49 | 00:00:00 | |
| DF9NV-10 | 2026-08-31 02:06:41 | 49.62195 | 11.65836 | 66° | 46km/h | 2950m | -1.8m/s | 3.8°C | 99.4% | 717.1hPa | 2.7V | 06:52:00 | 00:00:00 | 00:00:00 | |
| DO3MHA-11 | 2026-08-31 02:06:37 | 49.62167 | 11.65751 | 62° | 51km/h | 2960m | -2.2m/s | 3.7°C | 0% | 716.0hPa | 2.7V | 00:00:00 | 03:34:44 | 00:00:00 | |
| DL0LBS | 2026-08-31 02:06:34 | 49.62154 | 11.65716 | 62° | 51km/h | 2965m | -2.6m/s | 3.7°C | 99.6% | 715.7hPa | 2.7V | 00:00:00 | 00:00:00 | 00:00:00 | |
| DB0NH | 2026-08-31 02:06:33 | 49.62142 | 11.65680 | 62° | 57km/h | 2971m | -3.0m/s | 3.7°C | 0% | 715.2hPa | 2.7V | 00:00:00 | 03:34:40 | 00:00:00 | |
| DO3MHA-11 | 2026-08-31 02:06:32 | 49.62135 | 11.65662 | 62° | 53km/h | 2973m | -2.8m/s | 3.7°C | 0% | 714.9hPa | 2.7V | 00:00:00 | 03:34:39 | 00:00:00 | |
| NBG1-10 | 2026-08-31 02:06:29 | 49.62116 | 11.65609 | 62° | 58km/h | 2982m | -2.4m/s | 3.6°C | 0% | 714.1hPa | 2.7V | 06:52:00 | 03:34:36 | 00:00:00 | |
| DO9HM | 2026-08-31 02:06:28 | 49.62116 | 11.65609 | 62° | 53km/h | 2982m | -2.4m/s | 3.7°C | 100.0% | 714.2hPa | 2.7V | 06:52:00 | 00:00:00 | 00:00:00 | |
| DO3MHA-11 | 2026-08-31 02:06:22 | 49.62071 | 11.65472 | 65° | 58km/h | 3000m | -2.6m/s | 3.5°C | 0% | 712.5hPa | 2.7V | 06:52:00 | 03:34:29 | 00:00:00 | |
| DF9NV-10 | 2026-08-31 02:06:21 | 49.62071 | 11.65472 | 66° | 58km/h | 3000m | -2.6m/s | 3.6°C | 100.1% | 712.5hPa | 2.7V | 06:52:00 | 00:00:00 | 00:00:00 | |
| DO3MHA-11 | 2026-08-31 02:06:17 | 49.62042 | 11.65366 | 71° | 58km/h | 3012m | -2.2m/s | 3.3°C | 0% | 711.5hPa | 2.7V | 00:00:00 | 03:34:24 | 00:00:00 | |
| DL1NUX | 2026-08-31 02:06:14 | 49.62009 | 11.65191 | 76° | 57km/h | 3028m | -1.7m/s | 3.4°C | 0% | 710.2hPa | 2.7V | 06:52:31 | 03:34:16 | 00:00:00 | |
| DB0NH | 2026-08-31 02:06:13 | 49.62024 | 11.65279 | 75° | 53km/h | 3021m | -2.1m/s | 3.3°C | 0% | 710.7hPa | 2.7V | 00:00:00 | 03:34:20 | 00:00:00 | |
| DO3MHA-11 | 2026-08-31 02:06:12 | 49.62020 | 11.65257 | 75° | 58km/h | 3023m | -2.0m/s | 3.3°C | 0% | 710.5hPa | 2.7V | 00:00:00 | 03:34:19 | 00:00:00 | |
| DL1NUX | 2026-08-31 02:06:08 | 49.61991 | 11.65066 | 77° | 51km/h | 3038m | -1.8m/s | 3.3°C | 0% | 709.2hPa | 2.7V | 06:52:37 | 03:34:10 | 00:00:00 | |
| DO3MHA-11 | 2026-08-31 02:06:07 | 49.62003 | 11.65148 | 78° | 53km/h | 3031m | -1.5m/s | 3.3°C | 0% | 709.8hPa | 2.6V | 00:00:00 | 03:34:14 | 00:00:00 | |
| DL1NUX | 2026-08-31 02:06:03 | 49.61975 | 11.64973 | 69° | 47km/h | 3048m | -2m/s | 3.3°C | 0% | 708.4hPa | 2.6V | 06:52:42 | 03:34:05 | 00:00:00 | |
| DO3MHA-11 | 2026-08-31 02:06:02 | 49.61988 | 11.65047 | 78° | 49km/h | 3040m | -1.8m/s | 3.3°C | 0% | 709.0hPa | 2.7V | 00:00:00 | 03:34:09 | 00:00:00 | |
| DF9NV-10 | 2026-08-31 02:06:00 | 49.61985 | 11.65028 | 77° | 49km/h | 3042m | -2.0m/s | 3.3°C | 100.3% | 709.0hPa | 2.7V | 06:53:00 | 00:00:00 | 00:00:00 | |
| DO3MHA-11 | 2026-08-31 02:05:57 | 49.61970 | 11.64956 | 68° | 49km/h | 3050m | -1.7m/s | 3.2°C | 0% | 708.2hPa | 2.7V | 00:00:00 | 03:34:04 | 00:00:00 | |
| DL1NUX | 2026-08-31 02:05:53 | 49.61914 | 11.64801 | 58° | 53km/h | 3067m | -2.1m/s | 3°C | 0% | 706.7hPa | 2.7V | 06:52:52 | 03:33:55 | 00:00:00 | |
| DO3MHA-11 | 2026-08-31 02:05:52 | 49.61942 | 11.64871 | 60° | 53km/h | 3059m | -2.3m/s | 3.0°C | 0% | 707.3hPa | 2.7V | 00:00:00 | 03:33:59 | 00:00:00 | |
| DO3MHA-11 | 2026-08-31 02:05:47 | 49.61907 | 11.64783 | 59° | 57km/h | 3069m | -2.2m/s | 3.0°C | 0% | 706.5hPa | 2.7V | 06:52:00 | 03:33:54 | 00:00:00 | |
| NBG1-10 | 2026-08-31 02:05:45 | 49.61892 | 11.64746 | 60° | 60km/h | 3073m | -1.8m/s | 2.9°C | 0% | 706.1hPa | 2.7V | 00:00:00 | 03:33:52 | 00:00:00 | |
| DB0NH | 2026-08-31 02:05:43 | 49.61878 | 11.64707 | 61° | 58km/h | 3077m | -1.8m/s | 2.9°C | 0% | 705.7hPa | 2.7V | 06:52:00 | 03:33:50 | 00:00:00 | |
| DO3MHA-11 | 2026-08-31 02:05:42 | 49.61871 | 11.64688 | 61° | 58km/h | 3078m | -1.7m/s | 2.9°C | 0% | 705.6hPa | 2.7V | 00:00:00 | 03:33:49 | 00:00:00 | |
| DF9NV-10 | 2026-08-31 02:05:39 | 49.61857 | 11.64648 | 62° | 58km/h | 3082m | -1.4m/s | 3.0°C | 100.7% | 705.4hPa | 2.7V | 06:53:00 | 00:00:00 | 00:00:00 | |
| DO3MHA-11 | 2026-08-31 02:05:37 | 49.61836 | 11.64587 | 63° | 60km/h | 3085m | -1.4m/s | 2.9°C | 0% | 705.1hPa | 2.7V | 00:00:00 | 03:33:44 | 00:00:00 | |
| DL1NUX | 2026-08-31 02:05:33 | 49.61776 | 11.64391 | 68° | 62km/h | 3100m | -1.6m/s | 3°C | 0% | 703.9hPa | 2.7V | 06:53:12 | 03:33:35 | 00:00:00 | |
| DO3MHA-11 | 2026-08-31 02:05:32 | 49.61801 | 11.64481 | 66° | 62km/h | 3093m | -1.7m/s | 2.9°C | 0% | 704.3hPa | 2.7V | 00:00:00 | 03:33:39 | 00:00:00 | |
| DL1NUX | 2026-08-31 02:05:27 | 49.61748 | 11.64258 | 73° | 57km/h | 3109m | -1.4m/s | 3°C | 0% | 703hPa | 2.7V | 06:53:18 | 03:33:29 | 00:00:00 | |
| DO3MHA-11 | 2026-08-31 02:05:27 | 49.61771 | 11.64368 | 70° | 60km/h | 3101m | -1.5m/s | 2.9°C | 0% | 703.8hPa | 2.7V | 00:00:00 | 03:33:34 | 00:00:00 | |
| DO9HM | 2026-08-31 02:05:26 | 49.61771 | 11.64368 | 70° | 62km/h | 3101m | -1.5m/s | 3.0°C | 103.3% | 703.8hPa | 2.7V | 06:53:00 | 00:00:00 | 00:00:00 | |
| NBG1-10 | 2026-08-31 02:05:23 | 49.61752 | 11.64279 | 74° | 49km/h | 3107m | -1.2m/s | 2.9°C | 0% | 703.2hPa | 2.7V | 00:00:00 | 03:33:30 | 00:00:00 | |
| DO3MHA-11 | 2026-08-31 02:05:22 | 49.61748 | 11.64258 | 74° | 53km/h | 3109m | -1.4m/s | 2.9°C | 0% | 703.0hPa | 2.7V | 00:00:00 | 03:33:29 | 00:00:00 | |
| DF9NV-10 | 2026-08-31 02:05:18 | 49.61736 | 11.64198 | 74° | 51km/h | 3113m | -1.4m/s | 2.8°C | 101.6% | 702.8hPa | 2.7V | 06:53:00 | 00:00:00 | 00:00:00 | |
| DO3MHA-11 | 2026-08-31 02:05:17 | 49.61728 | 11.64160 | 72° | 49km/h | 3115m | -1.5m/s | 2.7°C | 0% | 702.4hPa | 2.7V | 00:00:00 | 03:33:24 | 00:00:00 | |
| DB0NH | 2026-08-31 02:05:13 | 49.61711 | 11.64089 | 68° | 55km/h | 3123m | -1.8m/s | 2.7°C | 0% | 701.9hPa | 2.7V | 00:00:00 | 03:33:20 | 00:00:00 | |
| DO3MHA-11 | 2026-08-31 02:05:12 | 49.61706 | 11.64072 | 67° | 47km/h | 3125m | -1.9m/s | 2.7°C | 0% | 701.6hPa | 2.7V | 06:53:00 | 03:33:19 | 00:00:00 | |
| DL1NUX | 2026-08-31 02:05:08 | 49.61685 | 11.64005 | 63° | 47km/h | 3132m | -2.1m/s | 2.8°C | 0% | 701.1hPa | 2.7V | 06:53:32 | 03:33:15 | 00:00:00 | |
| DL1NUX | 2026-08-31 02:05:08 | 49.61656 | 11.63921 | 59° | 51km/h | 3142m | -1.9m/s | 2.7°C | 0% | 700.2hPa | 2.7V | 06:53:37 | 03:33:10 | 00:00:00 | |
| DO3MHA-11 | 2026-08-31 02:05:07 | 49.61680 | 11.63988 | 64° | 49km/h | 3134m | -2.0m/s | 2.7°C | 0% | 700.9hPa | 2.7V | 00:00:00 | 03:33:14 | 00:00:00 | |
| DO9HM | 2026-08-31 02:05:05 | 49.61674 | 11.63972 | 63° | 49km/h | 3136m | -2.0m/s | 2.7°C | 106.2% | 700.6hPa | 2.7V | 06:54:00 | 00:00:00 | 00:00:00 | |
| DO3MHA-11 | 2026-08-31 02:05:02 | 49.61649 | 11.63903 | 60° | 53km/h | 3144m | -2.0m/s | 2.6°C | 0% | 700.0hPa | 2.7V | 00:00:00 | 03:33:09 | 00:00:00 | |
| NBG1-10 | 2026-08-31 02:05:01 | 49.61643 | 11.63886 | 59° | 60km/h | 3146m | -2.0m/s | 2.6°C | 0% | 699.8hPa | 2.7V | 00:00:00 | 03:33:08 | 00:00:00 | |
| DL1NUX | 2026-08-31 02:04:59 | 49.61590 | 11.63759 | 57° | 58km/h | 3159m | -1.3m/s | 2.6°C | 0% | 698.8hPa | 2.7V | 06:53:46 | 03:33:01 | 00:00:00 | |
| DO3MHA-11 | 2026-08-31 02:04:57 | 49.61614 | 11.63815 | 58° | 58km/h | 3154m | -1.7m/s | 2.6°C | 0% | 699.1hPa | 2.7V | 00:00:00 | 03:33:04 | 00:00:00 | |
| SO1NDE-10 | 2026-08-31 02:04:54 | 49.61590 | 11.63759 | 58° | 62km/h | 3159m | -1.3m/s | 2.5°C | 0% | 698.7hPa | 2.7V | 00:00:00 | 03:33:01 | 00:00:00 | |
| DO3MHA-11 | 2026-08-31 02:04:52 | 49.61574 | 11.63719 | 59° | 62km/h | 3162m | -1.3m/s | 2.5°C | 0% | 698.5hPa | 2.7V | 00:00:00 | 03:32:59 | 00:00:00 | |
| DO3MHA-11 | 2026-08-31 02:04:47 | 49.61535 | 11.63615 | 62° | 64km/h | 3170m | -1.7m/s | 2.5°C | 0% | 697.7hPa | 2.7V | 00:00:00 | 03:32:54 | 00:00:00 | |
| DO9HM | 2026-08-31 02:04:45 | 49.61505 | 11.63528 | 64° | 64km/h | 3177m | -1.9m/s | 2.5°C | 103.5% | 697.2hPa | 2.7V | 06:54:00 | 00:00:00 | 00:00:00 | |
| DB0NH | 2026-08-31 02:04:43 | 49.61505 | 11.63528 | 63° | 60km/h | 3177m | -1.8m/s | 2.4°C | 0% | 697.2hPa | 2.7V | 00:00:00 | 03:32:50 | 00:00:00 | |
| DO3MHA-11 | 2026-08-31 02:04:42 | 49.61498 | 11.63506 | 63° | 64km/h | 3179m | -1.9m/s | 2.4°C | 0% | 696.9hPa | 2.7V | 00:00:00 | 03:32:49 | 00:00:00 | |
| NBG1-10 | 2026-08-31 02:04:39 | 49.61476 | 11.63439 | 64° | 60km/h | 3185m | -2.0m/s | 2.4°C | 0% | 696.4hPa | 2.7V | 00:00:00 | 03:32:46 | 00:00:00 | |
| DL1NUX | 2026-08-31 02:04:37 | 49.61448 | 11.63349 | 64° | 64km/h | 3193m | -1.9m/s | 2.4°C | 0% | 695.8hPa | 2.7V | 06:54:05 | 03:32:42 | 00:00:00 | |
| DO3MHA-11 | 2026-08-31 02:04:37 | 49.61462 | 11.63394 | 65° | 64km/h | 3189m | -2.0m/s | 2.4°C | 0% | 696.1hPa | 2.7V | 06:54:00 | 03:32:44 | 00:00:00 | |
| DF9NV-10 | 2026-08-31 02:04:36 | 49.61462 | 11.63394 | 66° | 64km/h | 3189m | -2.0m/s | 2.4°C | 103.2% | 696.2hPa | 2.7V | 06:54:00 | 00:00:00 | 00:00:00 | |
| DL1NUX | 2026-08-31 02:04:32 | 49.61415 | 11.63237 | 66° | 62km/h | 3203m | -1.8m/s | 2.4°C | 0% | 695hPa | 2.7V | 06:54:10 | 03:32:37 | 00:00:00 | |
| DO3MHA-11 | 2026-08-31 02:04:32 | 49.61428 | 11.63282 | 66° | 62km/h | 3199m | -1.9m/s | 2.4°C | 0% | 695.2hPa | 2.7V | 00:00:00 | 03:32:39 | 00:00:00 | |
| SO1NDE-10 | 2026-08-31 02:04:30 | 49.61415 | 11.63237 | 67° | 62km/h | 3203m | -1.8m/s | 2.4°C | 0% | 694.9hPa | 2.7V | 00:00:00 | 03:32:37 | 00:00:00 | |
| DL1NUX | 2026-08-31 02:04:27 | 49.61386 | 11.63126 | 69° | 60km/h | 3213m | -2m/s | 2.3°C | 0% | 694.2hPa | 2.7V | 06:54:15 | 03:32:32 | 00:00:00 | |
| DO3MHA-11 | 2026-08-31 02:04:27 | 49.61397 | 11.63170 | 70° | 60km/h | 3209m | -1.9m/s | 2.3°C | 0% | 694.4hPa | 2.7V | 00:00:00 | 03:32:34 | 00:00:00 | |
| DO3MHA-11 | 2026-08-31 02:04:22 | 49.61371 | 11.63062 | 71° | 57km/h | 3219m | -2.0m/s | 2.2°C | 0% | 693.6hPa | 2.7V | 00:00:00 | 03:32:29 | 00:00:00 | |
| DO9HM | 2026-08-31 02:04:21 | 49.61371 | 11.63062 | 72° | 57km/h | 3219m | -2.1m/s | 2.3°C | 105.5% | 693.6hPa | 2.7V | 06:55:00 | 00:00:00 | 00:00:00 | |
| DO3MHA-11 | 2026-08-31 02:04:17 | 49.61347 | 11.62960 | 70° | 53km/h | 3229m | -2.0m/s | 2.2°C | 98.5% | 692.7hPa | 2.7V | 00:00:00 | 03:32:24 | 00:00:00 | |
| DF9NV-10 | 2026-08-31 02:04:15 | 49.61342 | 11.62941 | 70° | 53km/h | 3231m | -2.3m/s | 2.2°C | 96.0% | 692.6hPa | 2.7V | 06:55:00 | 00:00:00 | 00:00:00 | |
| DB0NH | 2026-08-31 02:04:13 | 49.61327 | 11.62884 | 66° | 57km/h | 3238m | -2.0m/s | 2.1°C | 98.6% | 692.1hPa | 2.7V | 00:00:00 | 03:32:20 | 00:00:00 | |
| DO3MHA-11 | 2026-08-31 02:04:12 | 49.61322 | 11.62867 | 65° | 51km/h | 3239m | -1.9m/s | 2.1°C | 99.1% | 691.9hPa | 2.7V | 00:00:00 | 03:32:19 | 00:00:00 | |
| DO3MHA-11 | 2026-08-31 02:04:07 | 49.61292 | 11.62780 | 60° | 51km/h | 3250m | -2.1m/s | 2.1°C | 99.0% | 691.1hPa | 2.7V | 00:00:00 | 03:32:14 | 00:00:00 | |
| DL0LBS | 2026-08-31 02:04:05 | 49.61286 | 11.62763 | 60° | 51km/h | 3252m | -2.0m/s | 2.1°C | 0% | 690.8hPa | 2.7V | 06:55:00 | 00:00:00 | 00:00:00 | |
| DO3MHA-11 | 2026-08-31 02:04:02 | 49.61258 | 11.62696 | 56° | 55km/h | 3261m | -2.1m/s | 2.0°C | 0% | 690.0hPa | 2.7V | 06:54:00 | 03:32:09 | 00:00:00 | |
| DL6DJ-15 | 2026-08-31 02:04:01 | 49.61234 | 11.62644 | 54° | 55km/h | 3267m | -2.3m/s | 2.0°C | 97.5% | 689.6hPa | 2.7V | 00:00:00 | 00:00:00 | 00:00:00 | |
| DO3MHA-11 | 2026-08-31 02:03:57 | 49.61218 | 11.62609 | 54° | 57km/h | 3272m | -2.1m/s | 1.9°C | 0% | 689.3hPa | 2.7V | 00:00:00 | 03:32:04 | 00:00:00 | |
| DF9NV-10 | 2026-08-31 02:03:54 | 49.61201 | 11.62573 | 55° | 57km/h | 3276m | -2.1m/s | 2.0°C | 97.3% | 688.9hPa | 2.7V | 06:55:00 | 00:00:00 | 00:00:00 | |
| DO3MHA-11 | 2026-08-31 02:03:52 | 49.61175 | 11.62518 | 55° | 62km/h | 3282m | -2.1m/s | 1.9°C | 98.4% | 688.3hPa | 2.7V | 00:00:00 | 03:31:59 | 00:00:00 | |
| DL1NUX | 2026-08-31 02:03:51 | 49.61122 | 11.62396 | 58° | 64km/h | 3295m | -2.1m/s | 1.9°C | 95.7% | 687.3hPa | 2.7V | 06:54:54 | 03:31:53 | 00:00:00 | |
| DO3MHA-11 | 2026-08-31 02:03:47 | 49.61130 | 11.62418 | 58° | 64km/h | 3293m | -2.1m/s | 1.9°C | 95.3% | 687.4hPa | 2.7V | 00:00:00 | 03:31:54 | 00:00:00 | |
| SO1NDE-10 | 2026-08-31 02:03:46 | 49.61122 | 11.62396 | 59° | 57km/h | 3295m | -2.0m/s | 1.9°C | 95.7% | 687.3hPa | 2.7V | 00:00:00 | 03:31:53 | 00:00:00 | |
| NBG1-10 | 2026-08-31 02:03:44 | 49.61105 | 11.62353 | 61° | 55km/h | 3299m | -2.0m/s | 1.9°C | 96.0% | 686.8hPa | 2.6V | 06:54:00 | 03:31:51 | 00:00:00 | |
| DB0NH | 2026-08-31 02:03:43 | 49.61097 | 11.62331 | 62° | 55km/h | 3301m | -1.9m/s | 1.9°C | 94.8% | 686.7hPa | 2.7V | 00:00:00 | 03:31:50 | 00:00:00 | |
| DO3MHA-11 | 2026-08-31 02:03:42 | 49.61090 | 11.62309 | 63° | 62km/h | 3303m | -2.1m/s | 1.9°C | 94.2% | 686.5hPa | 2.7V | 00:00:00 | 03:31:49 | 00:00:00 | |
| DL1NUX | 2026-08-31 02:03:41 | 49.61051 | 11.62178 | 67° | 58km/h | 3316m | -2.1m/s | 2°C | 91.7% | 685.5hPa | 2.7V | 06:55:04 | 03:31:43 | 00:00:00 | |
| DO9HM | 2026-08-31 02:03:41 | 49.61082 | 11.62286 | 65° | 64km/h | 3305m | -2.0m/s | 2.0°C | 89.5% | 686.3hPa | 2.7V | 06:55:00 | 00:00:00 | 00:00:00 | |
| DO3MHA-11 | 2026-08-31 02:03:37 | 49.61057 | 11.62199 | 67° | 57km/h | 3313m | -1.9m/s | 1.9°C | 91.7% | 685.5hPa | 2.7V | 00:00:00 | 03:31:44 | 00:00:00 | |
| DL1NUX | 2026-08-31 02:03:33 | 49.61006 | 11.62023 | 64° | 53km/h | 3332m | -2.1m/s | 2°C | 85.4% | 684hPa | 2.7V | 06:55:12 | 03:31:35 | 00:00:00 | |
| DO3MHA-11 | 2026-08-31 02:03:32 | 49.61029 | 11.62098 | 67° | 53km/h | 3324m | -2.2m/s | 2.0°C | 88.4% | 684.7hPa | 2.7V | 00:00:00 | 03:31:39 | 00:00:00 | |
| DL1NUX | 2026-08-31 02:03:28 | 49.60976 | 11.61934 | 61° | 51km/h | 3343m | -2m/s | 1.9°C | 84.4% | 683.1hPa | 2.7V | 06:55:17 | 03:31:30 | 00:00:00 | |
| DO3MHA-11 | 2026-08-31 02:03:27 | 49.61000 | 11.62005 | 64° | 51km/h | 3335m | -2.0m/s | 1.9°C | 85.3% | 683.9hPa | 2.6V | 06:55:00 | 03:31:34 | 00:00:00 | |
| SO1NDE-10 | 2026-08-31 02:03:23 | 49.60976 | 11.61934 | 62° | 51km/h | 3343m | -2.0m/s | 1.9°C | 84.4% | 683.0hPa | 2.6V | 00:00:00 | 03:31:30 | 00:00:00 | |
| DO3MHA-11 | 2026-08-31 02:03:22 | 49.60970 | 11.61917 | 61° | 51km/h | 3345m | -2.0m/s | 1.9°C | 84.1% | 682.9hPa | 2.6V | 00:00:00 | 03:31:29 | 00:00:00 | |
| DL1NUX | 2026-08-31 02:03:21 | 49.60930 | 11.61816 | 56° | 51km/h | 3357m | -2.1m/s | 1.9°C | 82.3% | 681.9hPa | 2.6V | 06:55:24 | 03:31:23 | 00:00:00 | |
| DO9HM | 2026-08-31 02:03:20 | 49.60957 | 11.61883 | 60° | 51km/h | 3349m | -2.0m/s | 1.9°C | 82.2% | 682.7hPa | 2.6V | 06:55:00 | 00:00:00 | 00:00:00 | |
| DO3MHA-11 | 2026-08-31 02:03:17 | 49.60937 | 11.61832 | 58° | 51km/h | 3355m | -2.0m/s | 1.8°C | 82.9% | 682.0hPa | 2.6V | 00:00:00 | 03:31:24 | 00:00:00 | |
| DB0ND-19 | 2026-08-31 02:03:16 | 49.60923 | 11.61799 | 56° | 49km/h | 3359m | -2.1m/s | 1.9°C | 79.6% | 681.8hPa | 2.7V | 00:00:00 | 00:00:00 | 00:00:00 | |
| DB0NH | 2026-08-31 02:03:13 | 49.60908 | 11.61766 | 56° | 57km/h | 3364m | -2.1m/s | 1.8°C | 80.4% | 681.3hPa | 2.7V | 00:00:00 | 03:31:20 | 00:00:00 | |
| DO3MHA-11 | 2026-08-31 02:03:12 | 49.60901 | 11.61750 | 55° | 51km/h | 3366m | -2.1m/s | 1.8°C | 80.2% | 681.1hPa | 2.7V | 00:00:00 | 03:31:19 | 00:00:00 | |
| NBG1-10 | 2026-08-31 02:03:11 | 49.60893 | 11.61734 | 55° | 58km/h | 3368m | -2.1m/s | 1.8°C | 80.1% | 680.9hPa | 2.7V | 00:00:00 | 03:31:18 | 00:00:00 | |
| DO3MHA-11 | 2026-08-31 02:03:07 | 49.60861 | 11.61668 | 53° | 53km/h | 3377m | -2.1m/s | 1.8°C | 77.8% | 680.2hPa | 2.7V | 00:00:00 | 03:31:14 | 00:00:00 | |
| DL1NUX | 2026-08-31 02:03:04 | 49.60802 | 11.61556 | 49° | 53km/h | 3392m | -2.1m/s | 1.8°C | 74.3% | 679hPa | 2.7V | 06:55:40 | 03:31:07 | 00:00:00 | |
| DL6DJ-15 | 2026-08-31 02:02:59 | 49.60738 | 11.61441 | 48° | 57km/h | 3407m | -2.2m/s | 1.7°C | 71.1% | 677.7hPa | 2.7V | 00:00:00 | 00:00:00 | 00:00:00 | |
| DB0ND-19 | 2026-08-31 02:02:45 | 49.60646 | 11.61276 | 52° | 64km/h | 3427m | -2.0m/s | 1.5°C | 71.0% | 676.1hPa | 2.7V | 00:00:00 | 00:00:00 | 00:00:00 | |
| DB0NH | 2026-08-31 02:02:43 | 49.60636 | 11.61255 | 54° | 58km/h | 3429m | -2.1m/s | 1.5°C | 73.2% | 676.0hPa | 2.7V | 00:00:00 | 03:30:50 | 00:00:00 | |
| DO3MHA-11 | 2026-08-31 02:02:42 | 49.60627 | 11.61234 | 56° | 66km/h | 3431m | -2.2m/s | 1.5°C | 73.0% | 675.8hPa | 2.7V | 00:00:00 | 03:30:49 | 00:00:00 | |
| DL0LBS | 2026-08-31 02:02:41 | 49.60627 | 11.61234 | 56° | 66km/h | 3431m | -2.2m/s | 0°C | 0% | 0hPa | 2.7V | 06:55:00 | 00:00:00 | 00:00:00 | |
| NBG1-10 | 2026-08-31 02:02:38 | 49.60592 | 11.61148 | 60° | 55km/h | 3440m | -2.1m/s | 1.4°C | 72.8% | 674.8hPa | 2.7V | 00:00:00 | 03:30:45 | 00:00:00 | |
| DO3MHA-11 | 2026-08-31 02:02:37 | 49.60583 | 11.61126 | 61° | 62km/h | 3442m | -2.1m/s | 1.4°C | 72.9% | 674.8hPa | 2.7V | 00:00:00 | 03:30:44 | 00:00:00 | |
| DL1NUX | 2026-08-31 02:02:35 | 49.60533 | 11.60979 | 63° | 58km/h | 3457m | -2.1m/s | 1.3°C | 73% | 673.5hPa | 2.7V | 06:56:10 | 03:30:37 | 00:00:00 | |
| DO3MHA-11 | 2026-08-31 02:02:32 | 49.60546 | 11.61020 | 64° | 58km/h | 3453m | -2.2m/s | 1.3°C | 73.0% | 673.9hPa | 2.6V | 00:00:00 | 03:30:39 | 00:00:00 | |
| DL1NUX | 2026-08-31 02:02:29 | 49.60501 | 11.60881 | 63° | 55km/h | 3469m | -2.2m/s | 1.2°C | 73.1% | 672.5hPa | 2.7V | 06:56:15 | 03:30:32 | 00:00:00 | |
| DO3MHA-11 | 2026-08-31 02:02:27 | 49.60514 | 11.60920 | 64° | 55km/h | 3464m | -2.0m/s | 1.2°C | 73.3% | 672.8hPa | 2.7V | 00:00:00 | 03:30:34 | 00:00:00 | |
| DL1NUX | 2026-08-31 02:02:23 | 49.60457 | 11.60755 | 59° | 51km/h | 3484m | -2.2m/s | 1.1°C | 73% | 671.2hPa | 2.7V | 06:56:22 | 03:30:25 | 00:00:00 | |
| DO3MHA-11 | 2026-08-31 02:02:22 | 49.60483 | 11.60825 | 63° | 51km/h | 3475m | -2.2m/s | 1.1°C | 72.9% | 672.0hPa | 2.7V | 00:00:00 | 03:30:29 | 00:00:00 | |
| DL0LBS | 2026-08-31 02:02:21 | 49.60483 | 11.60825 | 63° | 53km/h | 3475m | -2.2m/s | 0°C | 0% | 0hPa | 2.7V | 00:00:00 | 00:00:00 | 00:00:00 | |
| DO9HM | 2026-08-31 02:02:19 | 49.60464 | 11.60772 | 61° | 51km/h | 3482m | -2.3m/s | 1.1°C | 70.9% | 671.5hPa | 2.7V | 06:56:00 | 00:00:00 | 00:00:00 | |
| DO3MHA-11 | 2026-08-31 02:02:17 | 49.60450 | 11.60738 | 59° | 49km/h | 3486m | -2.4m/s | 1.0°C | 73.1% | 671.0hPa | 2.7V | 06:56:00 | 03:30:24 | 00:00:00 | |
| DB0ND-19 | 2026-08-31 02:02:14 | 49.60423 | 11.60673 | 56° | 49km/h | 3495m | -2.2m/s | 1.1°C | 71.3% | 670.4hPa | 2.6V | 00:00:00 | 00:00:00 | 00:00:00 | |
| DB0NH | 2026-08-31 02:02:13 | 49.60423 | 11.60673 | 57° | 55km/h | 3495m | -2.2m/s | 1.0°C | 73.3% | 670.4hPa | 2.6V | 06:56:00 | 03:30:20 | 00:00:00 | |
| DO3MHA-11 | 2026-08-31 02:02:12 | 49.60416 | 11.60657 | 57° | 49km/h | 3498m | -2.3m/s | 1.0°C | 73.6% | 670.1hPa | 2.7V | 00:00:00 | 03:30:19 | 00:00:00 | |
| DF9NV-10 | 2026-08-31 02:02:11 | 49.60416 | 11.60657 | 57° | 49km/h | 3498m | -2.4m/s | 1.0°C | 71.6% | 670.2hPa | 2.7V | 06:56:00 | 00:00:00 | 00:00:00 | |
| DO3MHA-11 | 2026-08-31 02:02:07 | 49.60380 | 11.60578 | 54° | 49km/h | 3509m | -2.2m/s | 0.9°C | 74.5% | 669.2hPa | 2.7V | 00:00:00 | 03:30:14 | 00:00:00 | |
| DL1NUX | 2026-08-31 02:02:06 | 49.60341 | 11.60502 | 50° | 49km/h | 3520m | -2.2m/s | 0.9°C | 76.2% | 668.3hPa | 2.7V | 06:56:38 | 03:30:09 | 00:00:00 | |
| NBG1-10 | 2026-08-31 02:02:05 | 49.60365 | 11.60548 | 53° | 58km/h | 3513m | -2.2m/s | 0.9°C | 75.6% | 668.8hPa | 2.6V | 00:00:00 | 03:30:12 | 00:00:00 | |
| DO3MHA-11 | 2026-08-31 02:02:02 | 49.60341 | 11.60502 | 51° | 51km/h | 3520m | -2.2m/s | 0.8°C | 76.2% | 668.2hPa | 2.7V | 00:00:00 | 03:30:09 | 00:00:00 | |
| DL6DJ-15 | 2026-08-31 02:01:56 | 49.60280 | 11.60393 | 48° | 57km/h | 3535m | -2.1m/s | 0.7°C | 75.6% | 667.0hPa | 2.7V | 00:00:00 | 00:00:00 | 00:00:00 | |
| DO3MHA-11 | 2026-08-31 02:01:52 | 49.60251 | 11.60342 | 49° | 60km/h | 3542m | -2.1m/s | 0.6°C | 78.0% | 666.4hPa | 2.7V | 00:00:00 | 03:29:59 | 00:00:00 | |
| DF9NV-10 | 2026-08-31 02:01:50 | 49.60240 | 11.60324 | 50° | 60km/h | 3545m | -2.3m/s | 0.6°C | 75.8% | 666.3hPa | 2.7V | 06:56:00 | 00:00:00 | 00:00:00 | |
| DO3MHA-11 | 2026-08-31 02:01:47 | 49.60201 | 11.60252 | 51° | 62km/h | 3554m | -2.3m/s | 0.5°C | 78.4% | 665.5hPa | 2.7V | 00:00:00 | 03:29:54 | 00:00:00 | |
| DB0ND-19 | 2026-08-31 02:01:43 | 49.60152 | 11.60155 | 54° | 64km/h | 3565m | -2.3m/s | 0.4°C | 76.8% | 664.7hPa | 2.7V | 00:00:00 | 00:00:00 | 00:00:00 | |
| DO3MHA-11 | 2026-08-31 02:01:42 | 49.60152 | 11.60155 | 55° | 64km/h | 3565m | -2.2m/s | 0.4°C | 79.0% | 664.6hPa | 2.7V | 06:56:00 | 03:29:49 | 00:00:00 | |
| DL1NUX | 2026-08-31 02:01:41 | 49.60133 | 11.60114 | 55° | 64km/h | 3570m | -2.3m/s | 0.4°C | 79.1% | 664.1hPa | 2.7V | 06:57:00 | 03:29:47 | 00:00:00 | |
| DO3MHA-11 | 2026-08-31 02:01:37 | 49.60106 | 11.60051 | 57° | 64km/h | 3577m | -2.3m/s | 0.3°C | 79.2% | 663.6hPa | 2.7V | 00:00:00 | 03:29:44 | 00:00:00 | |
| DO9HM | 2026-08-31 02:01:36 | 49.60106 | 11.60051 | 58° | 64km/h | 3577m | -2.3m/s | 0.4°C | 77.1% | 663.6hPa | 2.7V | 06:57:00 | 00:00:00 | 00:00:00 | |
| DO3MHA-11 | 2026-08-31 02:01:32 | 49.60062 | 11.59944 | 59° | 64km/h | 3588m | -2.3m/s | 0.2°C | 79.8% | 662.6hPa | 2.7V | 00:00:00 | 03:29:39 | 00:00:00 | |
| DF9NV-10 | 2026-08-31 02:01:29 | 49.60045 | 11.59901 | 61° | 64km/h | 3593m | -2.3m/s | 0.2°C | 78.0% | 662.3hPa | 2.6V | 06:57:00 | 00:00:00 | 00:00:00 | |
| DO3MHA-11 | 2026-08-31 02:01:27 | 49.60022 | 11.59836 | 62° | 60km/h | 3600m | -2.3m/s | 0.1°C | 80.7% | 661.7hPa | 2.6V | 00:00:00 | 03:29:34 | 00:00:00 | |
| DL6DJ-15 | 2026-08-31 02:01:25 | 49.60008 | 11.59793 | 63° | 60km/h | 3604m | -2.0m/s | 0.1°C | 78.6% | 661.5hPa | 2.6V | 00:00:00 | 00:00:00 | 00:00:00 | |
| DO3MHA-11 | 2026-08-31 02:01:22 | 49.59988 | 11.59732 | 65° | 55km/h | 3610m | -2.0m/s | 0.0°C | 80.4% | 660.8hPa | 2.6V | 00:00:00 | 03:29:29 | 00:00:00 | |
| DO3MHA-11 | 2026-08-31 02:01:17 | 49.59956 | 11.59638 | 62° | 51km/h | 3621m | -2.3m/s | -0.0°C | 80.6% | 660.0hPa | 2.6V | 00:00:00 | 03:29:24 | 00:00:00 | |
| DO9HM | 2026-08-31 02:01:15 | 49.59950 | 11.59621 | 61° | 51km/h | 3623m | -2.2m/s | -0.0°C | 78.1% | 659.8hPa | 2.7V | 06:57:00 | 00:00:00 | 00:00:00 | |
| DB0NH | 2026-08-31 02:01:13 | 49.59930 | 11.59570 | 58° | 60km/h | 3630m | -2.2m/s | -0.0°C | 80.0% | 659.2hPa | 2.7V | 00:00:00 | 03:29:20 | 00:00:00 | |
| DO3MHA-11 | 2026-08-31 02:01:12 | 49.59923 | 11.59554 | 57° | 51km/h | 3632m | -2.3m/s | -0.0°C | 79.7% | 659.0hPa | 2.7V | 00:00:00 | 03:29:19 | 00:00:00 | |
| DF9NV-10 | 2026-08-31 02:01:08 | 49.59901 | 11.59505 | 54° | 51km/h | 3639m | -2.3m/s | -0.1°C | 76.9% | 658.5hPa | 2.7V | 06:57:00 | 00:00:00 | 00:00:00 | |
| DO3MHA-11 | 2026-08-31 02:01:07 | 49.59884 | 11.59473 | 51° | 57km/h | 3643m | -2.2m/s | -0.1°C | 79.6% | 658.1hPa | 2.7V | 06:57:00 | 03:29:14 | 00:00:00 | |
| NBG1-10 | 2026-08-31 02:00:59 | 49.59808 | 11.59333 | 51° | 64km/h | 3660m | -2.1m/s | -0.2°C | 80.3% | 656.7hPa | 2.7V | 00:00:00 | 03:29:06 | 00:00:00 | |
| DO3MHA-11 | 2026-08-31 02:00:57 | 49.59788 | 11.59295 | 52° | 64km/h | 3665m | -2.2m/s | -0.3°C | 80.5% | 656.2hPa | 2.7V | 00:00:00 | 03:29:04 | 00:00:00 | |
| DL1NUX | 2026-08-31 02:00:56 | 49.59748 | 11.59217 | 52° | 66km/h | 3674m | -2.3m/s | -0.4°C | 80.4% | 655.7hPa | 2.7V | 06:57:47 | 03:29:00 | 00:00:00 | |
| DL6DJ-15 | 2026-08-31 02:00:54 | 49.59748 | 11.59217 | 52° | 64km/h | 3674m | -2.3m/s | -0.4°C | 78.1% | 655.7hPa | 2.7V | 00:00:00 | 00:00:00 | 00:00:00 | |
| DO3MHA-11 | 2026-08-31 02:00:52 | 49.59738 | 11.59197 | 53° | 66km/h | 3676m | -2.2m/s | -0.3°C | 80.6% | 655.4hPa | 2.7V | 00:00:00 | 03:28:59 | 00:00:00 | |
| DL1NUX | 2026-08-31 02:00:51 | 49.59688 | 11.59092 | 54° | 68km/h | 3687m | -2.3m/s | -0.5°C | 80.7% | 654.5hPa | 2.7V | 06:57:53 | 03:28:54 | 00:00:00 | |
| DO3MHA-11 | 2026-08-31 02:00:47 | 49.59688 | 11.59092 | 55° | 68km/h | 3688m | -2.3m/s | -0.4°C | 80.7% | 654.5hPa | 2.7V | 00:00:00 | 03:28:54 | 00:00:00 | |
| DL1NUX | 2026-08-31 02:00:45 | 49.59622 | 11.58938 | 59° | 68km/h | 3703m | -2.1m/s | -0.6°C | 81.4% | 653.2hPa | 2.7V | 06:58:00 | 03:28:47 | 00:00:00 | |
| DB0NH | 2026-08-31 02:00:43 | 49.59649 | 11.59005 | 57° | 60km/h | 3697m | -2.3m/s | -0.5°C | 81.1% | 653.8hPa | 2.7V | 00:00:00 | 03:28:50 | 00:00:00 | |
| DO3MHA-11 | 2026-08-31 02:00:42 | 49.59640 | 11.58983 | 58° | 68km/h | 3699m | -2.2m/s | -0.5°C | 81.1% | 653.6hPa | 2.7V | 00:00:00 | 03:28:49 | 00:00:00 | |
| DL1NUX | 2026-08-31 02:00:39 | 49.59575 | 11.58803 | 63° | 64km/h | 3716m | -2.2m/s | -0.7°C | 81.7% | 652.2hPa | 2.7V | 06:58:06 | 03:28:41 | 00:00:00 | |
| DO3MHA-11 | 2026-08-31 02:00:37 | 49.59597 | 11.58870 | 63° | 64km/h | 3710m | -2.1m/s | -0.6°C | 81.5% | 652.7hPa | 2.7V | 00:00:00 | 03:28:44 | 00:00:00 | |
| DO9HM | 2026-08-31 02:00:36 | 49.59582 | 11.58825 | 64° | 64km/h | 3715m | -2.2m/s | -0.7°C | 79.3% | 652.4hPa | 2.7V | 00:00:00 | 00:00:00 | 00:00:00 | |
| DO3MHA-11 | 2026-08-31 02:00:32 | 49.59561 | 11.58759 | 65° | 60km/h | 3721m | -2.2m/s | -0.7°C | 82.1% | 651.8hPa | 2.7V | 06:58:00 | 03:28:39 | 00:00:00 | |
| DL1NUX | 2026-08-31 02:00:31 | 49.59528 | 11.58655 | 63° | 58km/h | 3732m | -2.1m/s | -0.9°C | 82.4% | 650.9hPa | 2.7V | 06:58:13 | 03:28:34 | 00:00:00 | |
| DF9NV-10 | 2026-08-31 02:00:27 | 49.59528 | 11.58655 | 65° | 58km/h | 3732m | -2.1m/s | -0.9°C | 79.9% | 650.9hPa | 2.7V | 06:58:00 | 00:00:00 | 00:00:00 | |
| NBG1-10 | 2026-08-31 02:00:26 | 49.59521 | 11.58635 | 64° | 57km/h | 3734m | -2.2m/s | -0.8°C | 82.1% | 650.7hPa | 2.7V | 00:00:00 | 03:28:33 | 00:00:00 | |
| DL6DJ-15 | 2026-08-31 02:00:23 | 49.59502 | 11.58576 | 62° | 55km/h | 3741m | -2.3m/s | -0.9°C | 79.8% | 650.2hPa | 2.6V | 00:00:00 | 00:00:00 | 00:00:00 | |
| DO3MHA-11 | 2026-08-31 02:00:22 | 49.59495 | 11.58557 | 63° | 55km/h | 3743m | -2.0m/s | -0.9°C | 82.5% | 650.0hPa | 2.6V | 00:00:00 | 03:28:29 | 00:00:00 | |
| DL1NUX | 2026-08-31 02:00:21 | 49.59470 | 11.58481 | 62° | 55km/h | 3752m | -2.2m/s | -1°C | 83% | 649.4hPa | 2.6V | 06:58:22 | 03:28:25 | 00:00:00 | |
| DO3MHA-11 | 2026-08-31 02:00:17 | 49.59463 | 11.58462 | 62° | 53km/h | 3754m | -2.2m/s | -1.0°C | 82.7% | 649.0hPa | 2.6V | 00:00:00 | 03:28:24 | 00:00:00 | |
| DO9HM | 2026-08-31 02:00:16 | 49.59450 | 11.58425 | 62° | 53km/h | 3758m | -2.2m/s | -1.1°C | 80.6% | 648.7hPa | 2.6V | 00:00:00 | 00:00:00 | 00:00:00 | |
| DL1NUX | 2026-08-31 02:00:13 | 49.59415 | 11.58336 | 56° | 53km/h | 3769m | -2m/s | -1.2°C | 83.3% | 647.8hPa | 2.6V | 06:58:30 | 03:28:17 | 00:00:00 | |
| DB0NH | 2026-08-31 02:00:13 | 49.59436 | 11.58389 | 59° | 62km/h | 3763m | -2.0m/s | -1.1°C | 83.0% | 648.4hPa | 2.7V | 00:00:00 | 03:28:20 | 00:00:00 | |
| DB0ND-19 | 2026-08-31 02:00:09 | 49.59407 | 11.58319 | 55° | 53km/h | 3771m | -2.1m/s | -1.2°C | 81.0% | 647.7hPa | 2.7V | 00:00:00 | 00:00:00 | 00:00:00 | |
| DO3MHA-11 | 2026-08-31 02:00:07 | 49.59391 | 11.58285 | 54° | 57km/h | 3776m | -2.1m/s | -1.2°C | 83.5% | 647.4hPa | 2.7V | 00:00:00 | 03:28:14 | 00:00:00 | |
| DF9NV-10 | 2026-08-31 02:00:06 | 49.59391 | 11.58285 | 54° | 55km/h | 3776m | -2.1m/s | -1.3°C | 81.0% | 647.4hPa | 2.7V | 06:59:00 | 00:00:00 | 00:00:00 | |
| DL1NUX | 2026-08-31 02:00:05 | 49.59374 | 11.58251 | 51° | 57km/h | 3780m | -2m/s | -1.3°C | 83.6% | 647hPa | 2.7V | 06:58:35 | 03:28:12 | 00:00:00 | |
| DL1NUX | 2026-08-31 02:00:05 | 49.59326 | 11.58160 | 50° | 62km/h | 3790m | -2.2m/s | -1.4°C | 83.6% | 646hPa | 2.7V | 06:58:40 | 03:28:07 | 00:00:00 | |
| DL1NUX | 2026-08-31 02:00:00 | 49.59276 | 11.58064 | 51° | 66km/h | 3801m | -2.2m/s | -1.4°C | 83.5% | 645.3hPa | 2.7V | 06:58:45 | 03:28:02 | 00:00:00 | |
| DB0UT-7 | 2026-08-31 01:59:57 | 49.59296 | 11.58103 | 52° | 68km/h | 3797m | -2.0m/s | -1.4°C | 83.8% | 645.5hPa | 2.7V | 00:00:00 | 03:28:04 | 00:00:00 | |
| DO9HM | 2026-08-31 01:59:54 | 49.59276 | 11.58064 | 53° | 66km/h | 3801m | -2.2m/s | -1.5°C | 81.0% | 645.3hPa | 2.7V | 06:59:00 | 00:00:00 | 00:00:00 | |
| NBG1-10 | 2026-08-31 01:59:53 | 49.59255 | 11.58023 | 53° | 66km/h | 3806m | -2.0m/s | -1.4°C | 83.4% | 644.9hPa | 2.7V | 06:58:00 | 03:28:00 | 00:00:00 | |
| DO3MHA-11 | 2026-08-31 01:59:52 | 49.59245 | 11.58003 | 54° | 68km/h | 3808m | -2.1m/s | -1.4°C | 83.3% | 644.7hPa | 2.7V | 00:00:00 | 03:27:59 | 00:00:00 | |
| DL1NUX | 2026-08-31 01:59:50 | 49.59225 | 11.57961 | 54° | 68km/h | 3812m | -2.1m/s | -1.5°C | 82.4% | 644.2hPa | 2.7V | 06:58:50 | 03:27:57 | 00:00:00 | |
| DL1NUX | 2026-08-31 01:59:50 | 49.59166 | 11.57830 | 57° | 69km/h | 3825m | -2.2m/s | -1.6°C | 79.9% | 643.2hPa | 2.7V | 06:58:56 | 03:27:51 | 00:00:00 | |
| DO3MHA-11 | 2026-08-31 01:59:47 | 49.59195 | 11.57897 | 56° | 69km/h | 3819m | -2.1m/s | -1.5°C | 82.2% | 643.8hPa | 2.7V | 00:00:00 | 03:27:54 | 00:00:00 | |
| DL1NUX | 2026-08-31 01:59:45 | 49.59122 | 11.57714 | 61° | 68km/h | 3836m | -2.2m/s | -1.6°C | 80% | 642.3hPa | 2.7V | 06:59:01 | 03:27:46 | 00:00:00 | |
| DB0NH | 2026-08-31 01:59:43 | 49.59157 | 11.57807 | 59° | 62km/h | 3828m | -2.1m/s | -1.5°C | 80.0% | 643.1hPa | 2.7V | 00:00:00 | 03:27:50 | 00:00:00 | |
| DO3MHA-11 | 2026-08-31 01:59:42 | 49.59148 | 11.57784 | 60° | 69km/h | 3830m | -2.1m/s | -1.5°C | 79.7% | 642.9hPa | 2.7V | 00:00:00 | 03:27:49 | 00:00:00 | |
| DB0ND-19 | 2026-08-31 01:59:38 | 49.59114 | 11.57691 | 62° | 68km/h | 3838m | -2.2m/s | -1.7°C | 77.7% | 642.3hPa | 2.7V | 00:00:00 | 00:00:00 | 00:00:00 | |
| DO3MHA-11 | 2026-08-31 01:59:37 | 49.59106 | 11.57667 | 63° | 68km/h | 3840m | -2.1m/s | -1.6°C | 80.0% | 642.0hPa | 2.7V | 00:00:00 | 03:27:44 | 00:00:00 | |
| DL1NUX | 2026-08-31 01:59:34 | 49.59083 | 11.57597 | 63° | 68km/h | 3847m | -2.3m/s | -1.7°C | 80.2% | 641.5hPa | 2.7V | 06:59:06 | 03:27:41 | 00:00:00 | |
| DL1NUX | 2026-08-31 01:59:34 | 49.59048 | 11.57480 | 66° | 64km/h | 3858m | -2.1m/s | -1.8°C | 80.6% | 640.7hPa | 2.6V | 06:59:11 | 03:27:36 | 00:00:00 | |
| DO9HM | 2026-08-31 01:59:34 | 49.59083 | 11.57597 | 65° | 68km/h | 3847m | -2.3m/s | -1.7°C | 77.8% | 641.5hPa | 2.7V | 06:59:00 | 00:00:00 | 00:00:00 | |
| DO3MHA-11 | 2026-08-31 01:59:32 | 49.59069 | 11.57550 | 65° | 66km/h | 3852m | -2.2m/s | -1.7°C | 80.4% | 641.1hPa | 2.7V | 00:00:00 | 03:27:39 | 00:00:00 | |
| DL1NUX | 2026-08-31 01:59:27 | 49.59016 | 11.57369 | 66° | 60km/h | 3869m | -2.3m/s | -1.9°C | 80.4% | 639.7hPa | 2.7V | 06:59:16 | 03:27:31 | 00:00:00 | |
| DO3MHA-11 | 2026-08-31 01:59:27 | 49.59035 | 11.57435 | 67° | 60km/h | 3863m | -2.2m/s | -1.8°C | 80.7% | 640.2hPa | 2.7V | 00:00:00 | 03:27:34 | 00:00:00 | |
| DF9NV-10 | 2026-08-31 01:59:24 | 49.59023 | 11.57390 | 68° | 62km/h | 3867m | -2.1m/s | -1.9°C | 78.0% | 639.8hPa | 2.7V | 06:59:00 | 00:00:00 | 00:00:00 | |
| DO3MHA-11 | 2026-08-31 01:59:22 | 49.59005 | 11.57327 | 67° | 55km/h | 3874m | -2.3m/s | -1.9°C | 80.3% | 639.3hPa | 2.7V | 06:59:00 | 03:27:29 | 00:00:00 | |
| SO1NDE-10 | 2026-08-31 01:59:21 | 49.58999 | 11.57306 | 65° | 60km/h | 3876m | -2.2m/s | -1.9°C | 80.1% | 639.1hPa | 2.7V | 00:00:00 | 03:27:28 | 00:00:00 | |
| DL1NUX | 2026-08-31 01:59:20 | 49.58986 | 11.57268 | 62° | 55km/h | 3880m | -2.3m/s | -2°C | 80% | 638.9hPa | 2.7V | 06:59:21 | 03:27:26 | 00:00:00 | |
| NBG1-10 | 2026-08-31 01:59:20 | 49.58992 | 11.57287 | 64° | 62km/h | 3878m | -2.2m/s | -2.0°C | 80.1% | 638.9hPa | 2.7V | 00:00:00 | 03:27:27 | 00:00:00 | |
| DO3MHA-11 | 2026-08-31 01:59:17 | 49.58973 | 11.57231 | 60° | 55km/h | 3885m | -2.1m/s | -2.0°C | 79.8% | 638.5hPa | 2.7V | 00:00:00 | 03:27:24 | 00:00:00 | |
| DL1NUX | 2026-08-31 01:59:15 | 49.58927 | 11.57123 | 54° | 57km/h | 3897m | -2.2m/s | -2.2°C | 79.9% | 637.4hPa | 2.7V | 06:59:29 | 03:27:18 | 00:00:00 | |
| DB0NH | 2026-08-31 01:59:13 | 49.58943 | 11.57159 | 57° | 66km/h | 3894m | -2.1m/s | -2.1°C | 79.4% | 637.7hPa | 2.6V | 00:00:00 | 03:27:20 | 00:00:00 | |
| DO3MHA-11 | 2026-08-31 01:59:12 | 49.58935 | 11.57141 | 55° | 58km/h | 3895m | -1.9m/s | -2.1°C | 79.6% | 637.5hPa | 2.7V | 00:00:00 | 03:27:19 | 00:00:00 | |
| DL1NUX | 2026-08-31 01:59:09 | 49.58863 | 11.56991 | 52° | 64km/h | 3912m | -2.2m/s | -2.3°C | 81.3% | 636.1hPa | 2.7V | 06:59:36 | 03:27:11 | 00:00:00 | |
| DO3MHA-11 | 2026-08-31 01:59:07 | 49.58891 | 11.57049 | 54° | 62km/h | 3906m | -2.1m/s | -2.2°C | 80.8% | 636.7hPa | 2.6V | 00:00:00 | 03:27:14 | 00:00:00 | |
| DF9NV-10 | 2026-08-31 01:59:04 | 49.58872 | 11.57011 | 54° | 62km/h | 3910m | -2.1m/s | -2.3°C | 78.2% | 636.4hPa | 2.6V | 07:00:00 | 00:00:00 | 00:00:00 | |
| DL1NUX | 2026-08-31 01:59:03 | 49.58804 | 11.56868 | 55° | 68km/h | 3926m | -2.2m/s | -2.4°C | 83.1% | 635.2hPa | 2.6V | 06:59:42 | 03:27:05 | 00:00:00 | |
| DO3MHA-11 | 2026-08-31 01:59:02 | 49.58843 | 11.56951 | 54° | 66km/h | 3917m | -2.0m/s | -2.3°C | 81.4% | 635.9hPa | 2.7V | 00:00:00 | 03:27:09 | 00:00:00 | |
| DO3MHA-11 | 2026-08-31 01:58:57 | 49.58795 | 11.56846 | 56° | 69km/h | 3928m | -2.1m/s | -2.4°C | 83.2% | 635.0hPa | 2.6V | 00:00:00 | 03:27:04 | 00:00:00 | |
| DL1NUX | 2026-08-31 01:58:55 | 49.58728 | 11.56686 | 59° | 71km/h | 3944m | -2.2m/s | -2.6°C | 86.9% | 633.9hPa | 2.6V | 06:59:50 | 03:26:57 | 00:00:00 | |
| DL6DJ-15 | 2026-08-31 01:58:50 | 49.58728 | 11.56686 | 59° | 69km/h | 3943m | -2.2m/s | -2.6°C | 84.1% | 633.9hPa | 2.7V | 00:00:00 | 00:00:00 | 00:00:00 | |
| DO3MHA-11 | 2026-08-31 01:58:47 | 49.58701 | 11.56614 | 61° | 71km/h | 3950m | -2.2m/s | -2.6°C | 88.7% | 633.2hPa | 2.7V | 06:59:00 | 03:26:54 | 00:00:00 | |
| DL1NUX | 2026-08-31 01:58:45 | 49.58641 | 11.56441 | 63° | 71km/h | 3965m | -2m/s | -2.8°C | 90% | 632hPa | 2.7V | 07:00:00 | 03:26:47 | 00:00:00 | |
| DB0UT-7 | 2026-08-31 01:58:44 | 49.58675 | 11.56540 | 62° | 64km/h | 3957m | -2.2m/s | -2.7°C | 88.9% | 632.8hPa | 2.7V | 00:00:00 | 00:00:00 | 00:00:00 | |
| DB0NH | 2026-08-31 01:58:43 | 49.58666 | 11.56516 | 63° | 64km/h | 3959m | -2.0m/s | -2.7°C | 89.3% | 632.5hPa | 2.7V | 06:59:00 | 03:26:50 | 00:00:00 | |
| DO3MHA-11 | 2026-08-31 01:58:42 | 49.58658 | 11.56490 | 63° | 71km/h | 3961m | -2.1m/s | -2.8°C | 89.1% | 632.4hPa | 2.7V | 00:00:00 | 03:26:49 | 00:00:00 | |
| DO3MHA-11 | 2026-08-31 01:58:37 | 49.58617 | 11.56365 | 65° | 69km/h | 3972m | -2.1m/s | -2.9°C | 90.2% | 631.5hPa | 2.7V | 00:00:00 | 03:26:44 | 00:00:00 | |
| DB0ND-19 | 2026-08-31 01:58:36 | 49.58610 | 11.56340 | 65° | 69km/h | 3974m | -2.2m/s | -2.9°C | 87.3% | 631.5hPa | 2.7V | 00:00:00 | 00:00:00 | 00:00:00 | |
| DO9HM | 2026-08-31 01:58:34 | 49.58582 | 11.56242 | 68° | 68km/h | 3982m | -2.2m/s | -3.0°C | 87.5% | 630.8hPa | 2.7V | 07:00:00 | 00:00:00 | 00:00:00 | |
| DO3MHA-11 | 2026-08-31 01:58:32 | 49.58582 | 11.56242 | 68° | 64km/h | 3982m | -2.2m/s | -3.0°C | 90.5% | 630.7hPa | 2.7V | 07:00:00 | 03:26:39 | 00:00:00 | |
| DO3MHA-11 | 2026-08-31 01:58:27 | 49.58551 | 11.56129 | 67° | 58km/h | 3992m | -2.1m/s | -3.0°C | 91.3% | 629.9hPa | 2.7V | 00:00:00 | 03:26:34 | 00:00:00 | |
| DF9NV-10 | 2026-08-31 01:58:23 | 49.58532 | 11.56066 | 65° | 58km/h | 3999m | -2.2m/s | -3.2°C | 89.5% | 629.4hPa | 2.7V | 07:01:00 | 00:00:00 | 00:00:00 | |
| DO3MHA-11 | 2026-08-31 01:58:22 | 49.58519 | 11.56026 | 63° | 58km/h | 4003m | -2.0m/s | -3.1°C | 92.6% | 628.9hPa | 2.7V | 00:00:00 | 03:26:29 | 00:00:00 | |
| DL6DJ-15 | 2026-08-31 01:58:19 | 49.58489 | 11.55947 | 58° | 58km/h | 4011m | -2.1m/s | -3.3°C | 90.4% | 628.4hPa | 2.7V | 00:00:00 | 00:00:00 | 00:00:00 | |
| DO3MHA-11 | 2026-08-31 01:58:17 | 49.58481 | 11.55927 | 58° | 60km/h | 4013m | -1.9m/s | -3.2°C | 93.5% | 628.2hPa | 2.7V | 00:00:00 | 03:26:24 | 00:00:00 | |
| NBG1-10 | 2026-08-31 01:58:14 | 49.58456 | 11.55869 | 57° | 71km/h | 4019m | -1.9m/s | -3.3°C | 93.9% | 627.7hPa | 2.7V | 00:00:00 | 03:26:21 | 00:00:00 | |
| DB0NH | 2026-08-31 01:58:13 | 49.58448 | 11.55849 | 57° | 71km/h | 4021m | -2.0m/s | -3.3°C | 93.9% | 627.6hPa | 2.7V | 00:00:00 | 03:26:20 | 00:00:00 | |
| DO3MHA-11 | 2026-08-31 01:58:12 | 49.58439 | 11.55829 | 57° | 64km/h | 4023m | -2.0m/s | -3.3°C | 93.7% | 627.4hPa | 2.7V | 00:00:00 | 03:26:19 | 00:00:00 | |
| DO9HM | 2026-08-31 01:58:11 | 49.58431 | 11.55809 | 57° | 62km/h | 4025m | -2.2m/s | -3.3°C | 90.0% | 627.3hPa | 2.7V | 07:01:00 | 00:00:00 | 00:00:00 | |
| DO3MHA-11 | 2026-08-31 01:58:07 | 49.58394 | 11.55727 | 55° | 68km/h | 4034m | -2.0m/s | -3.3°C | 93.1% | 626.6hPa | 2.7V | 00:00:00 | 03:26:14 | 00:00:00 | |
| DB0ND-19 | 2026-08-31 01:58:05 | 49.58374 | 11.55685 | 54° | 66km/h | 4038m | -2.1m/s | -3.4°C | 90.3% | 626.3hPa | 2.7V | 00:00:00 | 00:00:00 | 00:00:00 | |
| DO3MHA-11 | 2026-08-31 01:58:02 | 49.58344 | 11.55620 | 55° | 69km/h | 4044m | -2.0m/s | -3.4°C | 93.2% | 625.8hPa | 2.7V | 00:00:00 | 03:26:09 | 00:00:00 | |
| DL6DJ-15 | 2026-08-31 01:57:48 | 49.58202 | 11.55289 | 59° | 75km/h | 4073m | -2.0m/s | -3.6°C | 87.8% | 623.6hPa | 2.7V | 00:00:00 | 00:00:00 | 00:00:00 | |
| DO3MHA-11 | 2026-08-31 01:57:47 | 49.58192 | 11.55264 | 61° | 77km/h | 4075m | -2.0m/s | -3.6°C | 90.7% | 623.3hPa | 2.7V | 00:00:00 | 03:25:54 | 00:00:00 | |
| DB0NH | 2026-08-31 01:57:43 | 49.58156 | 11.55159 | 64° | 68km/h | 4084m | -2.0m/s | -3.6°C | 87.9% | 622.7hPa | 2.7V | 00:00:00 | 03:25:50 | 00:00:00 | |
| DO3MHA-11 | 2026-08-31 01:57:42 | 49.58147 | 11.55132 | 65° | 75km/h | 4086m | -2.1m/s | -3.6°C | 87.8% | 622.6hPa | 2.7V | 00:00:00 | 03:25:49 | 00:00:00 | |
| NBG1-10 | 2026-08-31 01:57:41 | 49.58139 | 11.55106 | 65° | 68km/h | 4088m | -2.1m/s | -3.6°C | 87.9% | 622.4hPa | 2.7V | 00:00:00 | 03:25:48 | 00:00:00 | |
| DO3MHA-11 | 2026-08-31 01:57:37 | 49.58108 | 11.54999 | 68° | 73km/h | 4096m | -2.2m/s | -3.7°C | 88.4% | 621.7hPa | 2.7V | 00:00:00 | 03:25:44 | 00:00:00 | |
| DB0ND-19 | 2026-08-31 01:57:34 | 49.58088 | 11.54920 | 68° | 71km/h | 4102m | -2.3m/s | -3.8°C | 85.3% | 621.2hPa | 2.7V | 00:00:00 | 00:00:00 | 00:00:00 | |
| DO3MHA-11 | 2026-08-31 01:57:32 | 49.58074 | 11.54868 | 69° | 69km/h | 4107m | -2.1m/s | -3.8°C | 88.4% | 620.7hPa | 2.7V | 00:00:00 | 03:25:39 | 00:00:00 | |
| DF7PN | 2026-08-31 01:57:29 | 49.58056 | 11.54793 | 68° | 66km/h | 4113m | -2.1m/s | -3.9°C | 85.0% | 620.4hPa | 2.7V | 00:00:00 | 00:00:00 | 00:00:00 | |
| DO3MHA-11 | 2026-08-31 01:57:27 | 49.58043 | 11.54745 | 68° | 62km/h | 4117m | -1.9m/s | -3.8°C | 88.1% | 620.0hPa | 2.7V | 00:00:00 | 03:25:34 | 00:00:00 | |
| DL1NUX | 2026-08-31 01:57:25 | 49.57994 | 11.54593 | 59° | 62km/h | 4131m | -2m/s | -4°C | 88.5% | 618.9hPa | 2.7V | 07:01:20 | 03:25:27 | 00:00:00 | |
| DO3MHA-11 | 2026-08-31 01:57:22 | 49.58010 | 11.54635 | 62° | 62km/h | 4127m | -2.1m/s | -3.9°C | 88.5% | 619.3hPa | 2.7V | 00:00:00 | 03:25:29 | 00:00:00 | |
| DK5PH-5 | 2026-08-31 01:57:21 | 49.58002 | 11.54614 | 61° | 73km/h | 4129m | -2.0m/s | -3.9°C | 88.6% | 619.0hPa | 2.7V | 00:00:00 | 03:25:28 | 00:00:00 | |
| DL1NUX | 2026-08-31 01:57:18 | 49.57931 | 11.54445 | 54° | 68km/h | 4146m | -2m/s | -4.2°C | 88.8% | 617.9hPa | 2.7V | 07:01:27 | 03:25:20 | 00:00:00 | |
| DO3MHA-11 | 2026-08-31 01:57:17 | 49.57969 | 11.54531 | 57° | 66km/h | 4137m | -1.9m/s | -4.0°C | 88.8% | 618.5hPa | 2.7V | 00:00:00 | 03:25:24 | 00:00:00 | |
| DB0NH | 2026-08-31 01:57:13 | 49.57931 | 11.54445 | 55° | 73km/h | 4146m | -2.0m/s | -4.1°C | 88.8% | 617.8hPa | 2.7V | 07:01:00 | 03:25:20 | 00:00:00 | |
| DO3MHA-11 | 2026-08-31 01:57:12 | 49.57921 | 11.54423 | 55° | 69km/h | 4148m | -2.2m/s | -4.1°C | 89.1% | 617.7hPa | 2.7V | 07:01:00 | 03:25:19 | 00:00:00 | |
| DO9HM | 2026-08-31 01:57:09 | 49.57890 | 11.54358 | 55° | 69km/h | 4154m | -2.2m/s | -4.2°C | 85.6% | 617.1hPa | 2.7V | 07:01:00 | 00:00:00 | 00:00:00 | |
| DB0UT-7 | 2026-08-31 01:57:08 | 49.57880 | 11.54336 | 54° | 73km/h | 4157m | -2.2m/s | -4.2°C | 88.3% | 616.9hPa | 2.7V | 00:00:00 | 00:00:00 | 00:00:00 | |
| DO3MHA-11 | 2026-08-31 01:57:07 | 49.57869 | 11.54314 | 54° | 71km/h | 4159m | -2.2m/s | -4.2°C | 88.2% | 616.8hPa | 2.7V | 00:00:00 | 03:25:14 | 00:00:00 | |
| DB0ND-19 | 2026-08-31 01:57:03 | 49.57827 | 11.54225 | 53° | 71km/h | 4168m | -2.4m/s | -4.3°C | 84.1% | 616.0hPa | 2.7V | 00:00:00 | 00:00:00 | 00:00:00 | |
| DO3MHA-11 | 2026-08-31 01:57:02 | 49.57816 | 11.54203 | 54° | 73km/h | 4171m | -2.3m/s | -4.2°C | 87.4% | 615.8hPa | 2.7V | 00:00:00 | 03:25:09 | 00:00:00 | |
| DF9NV-10 | 2026-08-31 01:57:01 | 49.57816 | 11.54203 | 54° | 73km/h | 4171m | -2.4m/s | -4.3°C | 84.3% | 615.8hPa | 2.6V | 07:01:00 | 00:00:00 | 00:00:00 | |
| DF7PN | 2026-08-31 01:56:58 | 49.57771 | 11.54111 | 52° | 73km/h | 4180m | -2.3m/s | -4.4°C | 83.8% | 615.2hPa | 2.6V | 00:00:00 | 00:00:00 | 00:00:00 | |
| DL6DJ-15 | 2026-08-31 01:56:46 | 49.57621 | 11.53810 | 51° | 75km/h | 4208m | -2.1m/s | -4.6°C | 84.7% | 612.8hPa | 2.6V | 00:00:00 | 00:00:00 | 00:00:00 | |
| DB0NH | 2026-08-31 01:56:43 | 49.57597 | 11.53764 | 52° | 80km/h | 4213m | -2.0m/s | -4.6°C | 88.2% | 612.5hPa | 2.6V | 00:00:00 | 03:24:50 | 00:00:00 | |
| DO3MHA-11 | 2026-08-31 01:56:42 | 49.57585 | 11.53741 | 52° | 75km/h | 4215m | -2.0m/s | -4.6°C | 88.3% | 612.4hPa | 2.6V | 00:00:00 | 03:24:49 | 00:00:00 | |
| DF9NV-10 | 2026-08-31 01:56:41 | 49.57585 | 11.53741 | 53° | 75km/h | 4215m | -2.1m/s | -4.6°C | 85.2% | 612.4hPa | 2.6V | 07:02:00 | 00:00:00 | 00:00:00 | |
| DK5PH-5 | 2026-08-31 01:56:40 | 49.57561 | 11.53695 | 52° | 80km/h | 4219m | -2.1m/s | -4.6°C | 88.2% | 612.0hPa | 2.6V | 00:00:00 | 03:24:47 | 00:00:00 | |
| DB0UT-7 | 2026-08-31 01:56:38 | 49.57538 | 11.53649 | 51° | 80km/h | 4223m | -2.0m/s | -4.6°C | 88.8% | 611.6hPa | 2.6V | 00:00:00 | 03:24:45 | 00:00:00 | |
| DO3MHA-11 | 2026-08-31 01:56:37 | 49.57525 | 11.53626 | 52° | 77km/h | 4225m | -2.1m/s | -4.7°C | 89.1% | 611.5hPa | 2.7V | 00:00:00 | 03:24:44 | 00:00:00 | |
| NBG1-10 | 2026-08-31 01:56:35 | 49.57501 | 11.53580 | 52° | 78km/h | 4230m | -2.0m/s | -4.7°C | 89.1% | 611.2hPa | 2.7V | 00:00:00 | 03:24:42 | 00:00:00 | |
| DO3MHA-11 | 2026-08-31 01:56:32 | 49.57464 | 11.53508 | 52° | 82km/h | 4236m | -2.1m/s | -4.7°C | 88.8% | 610.8hPa | 2.7V | 07:02:00 | 03:24:39 | 00:00:00 | |
| DO3MHA-11 | 2026-08-31 01:56:27 | 49.57402 | 11.53381 | 55° | 84km/h | 4246m | -2.2m/s | -4.6°C | 86.6% | 609.9hPa | 2.7V | 00:00:00 | 03:24:34 | 00:00:00 | |
| DO3MHA-11 | 2026-08-31 01:56:22 | 49.57342 | 11.53246 | 57° | 84km/h | 4257m | -2.0m/s | -4.6°C | 85.7% | 609.1hPa | 2.7V | 00:00:00 | 03:24:29 | 00:00:00 | |
| DF9NV-10 | 2026-08-31 01:56:20 | 49.57331 | 11.53219 | 59° | 84km/h | 4259m | -2.1m/s | -4.7°C | 82.5% | 609.0hPa | 2.7V | 07:02:00 | 00:00:00 | 00:00:00 | |
| DL1NUX | 2026-08-31 01:56:18 | 49.57247 | 11.53001 | 60° | 77km/h | 4277m | -2.1m/s | -4.8°C | 87% | 607.7hPa | 2.7V | 07:02:27 | 03:24:20 | 00:00:00 | |
| DO3MHA-11 | 2026-08-31 01:56:17 | 49.57287 | 11.53108 | 60° | 80km/h | 4268m | -2.3m/s | -4.7°C | 86.4% | 608.2hPa | 2.7V | 00:00:00 | 03:24:24 | 00:00:00 | |
| DL6DJ-15 | 2026-08-31 01:56:15 | 49.57257 | 11.53027 | 60° | 77km/h | 4274m | -2.3m/s | -4.8°C | 83.8% | 607.9hPa | 2.7V | 00:00:00 | 00:00:00 | 00:00:00 | |
| DB0NH | 2026-08-31 01:56:13 | 49.57247 | 11.53001 | 61° | 73km/h | 4277m | -2.1m/s | -4.8°C | 87.0% | 607.7hPa | 2.7V | 00:00:00 | 03:24:20 | 00:00:00 | |
| DL1NUX | 2026-08-31 01:56:12 | 49.57188 | 11.52856 | 56° | 71km/h | 4289m | -2.1m/s | -4.9°C | 87.5% | 606.8hPa | 2.7V | 07:02:33 | 03:24:14 | 00:00:00 | |
| DO3MHA-11 | 2026-08-31 01:56:12 | 49.57237 | 11.52975 | 60° | 73km/h | 4279m | -2.0m/s | -4.8°C | 87.2% | 607.5hPa | 2.6V | 00:00:00 | 03:24:19 | 00:00:00 | |
| DK5PH-5 | 2026-08-31 01:56:09 | 49.57208 | 11.52902 | 58° | 75km/h | 4285m | -2.0m/s | -4.9°C | 87.5% | 606.9hPa | 2.6V | 00:00:00 | 03:24:16 | 00:00:00 | |
| DB0UT-7 | 2026-08-31 01:56:08 | 49.57198 | 11.52879 | 57° | 82km/h | 4287m | -1.9m/s | -4.9°C | 87.3% | 606.9hPa | 2.7V | 00:00:00 | 00:00:00 | 00:00:00 | |
| DO3MHA-11 | 2026-08-31 01:56:07 | 49.57188 | 11.52856 | 57° | 71km/h | 4289m | -2.1m/s | -4.9°C | 87.5% | 606.7hPa | 2.7V | 00:00:00 | 03:24:14 | 00:00:00 | |
| SO1NDE-10 | 2026-08-31 01:56:05 | 49.57168 | 11.52811 | 56° | 80km/h | 4292m | -2.0m/s | -4.9°C | 88.2% | 606.4hPa | 2.7V | 00:00:00 | 03:24:12 | 00:00:00 | |
| DL1NUX | 2026-08-31 01:56:04 | 49.57137 | 11.52744 | 53° | 69km/h | 4298m | -2.1m/s | -5°C | 88.5% | 606hPa | 2.7V | 07:02:38 | 03:24:09 | 00:00:00 | |
| DO3MHA-11 | 2026-08-31 01:56:02 | 49.57137 | 11.52744 | 54° | 69km/h | 4298m | -2.0m/s | -4.9°C | 88.5% | 606.0hPa | 2.7V | 00:00:00 | 03:24:09 | 00:00:00 | |
| DB0ND-19 | 2026-08-31 01:56:01 | 49.57116 | 11.52701 | 52° | 69km/h | 4302m | -2.0m/s | -5.0°C | 85.5% | 605.6hPa | 2.7V | 00:00:00 | 00:00:00 | 00:00:00 | |
| DF9NV-10 | 2026-08-31 01:55:59 | 49.57116 | 11.52701 | 53° | 71km/h | 4303m | -2.0m/s | -5.0°C | 85.6% | 605.6hPa | 2.7V | 07:02:00 | 00:00:00 | 00:00:00 | |
| DL1NUX | 2026-08-31 01:55:57 | 49.57025 | 11.52530 | 49° | 71km/h | 4319m | -2.2m/s | -5.1°C | 90.2% | 604.3hPa | 2.7V | 07:02:48 | 03:23:59 | 00:00:00 | |
| DF7PN | 2026-08-31 01:55:56 | 49.57071 | 11.52615 | 50° | 69km/h | 4310m | -2.1m/s | -5.1°C | 86.5% | 605.0hPa | 2.6V | 00:00:00 | 00:00:00 | 00:00:00 | |
| DO3MHA-11 | 2026-08-31 01:55:52 | 49.57025 | 11.52530 | 50° | 73km/h | 4320m | -2.2m/s | -5.1°C | 90.2% | 604.3hPa | 2.6V | 07:02:00 | 03:23:59 | 00:00:00 | |
| DO3MHA-11 | 2026-08-31 01:55:47 | 49.56964 | 11.52423 | 48° | 77km/h | 4331m | -2.2m/s | -5.0°C | 90.6% | 603.5hPa | 2.6V | 00:00:00 | 03:23:54 | 00:00:00 | |
| DL6DJ-15 | 2026-08-31 01:55:44 | 49.56911 | 11.52337 | 46° | 77km/h | 4340m | -2.4m/s | -5.1°C | 86.6% | 602.9hPa | 2.6V | 00:00:00 | 00:00:00 | 00:00:00 | |
| DB0NH | 2026-08-31 01:55:43 | 49.56911 | 11.52337 | 47° | 84km/h | 4340m | -2.3m/s | -5.1°C | 90.0% | 602.8hPa | 2.6V | 00:00:00 | 03:23:50 | 00:00:00 | |
| DO3MHA-11 | 2026-08-31 01:55:42 | 49.56897 | 11.52315 | 47° | 80km/h | 4342m | -2.1m/s | -5.1°C | 90.3% | 602.6hPa | 2.6V | 00:00:00 | 03:23:49 | 00:00:00 | |
| DF9NV-10 | 2026-08-31 01:55:39 | 49.56870 | 11.52270 | 48° | 80km/h | 4346m | -2.3m/s | -5.2°C | 87.0% | 602.3hPa | 2.6V | 07:03:00 | 00:00:00 | 00:00:00 | |
| DL1NUX | 2026-08-31 01:55:38 | 49.56770 | 11.52105 | 47° | 84km/h | 4363m | -2.2m/s | -5.3°C | 90.3% | 601hPa | 2.6V | 07:03:07 | 03:23:40 | 00:00:00 | |
| DO3MHA-11 | 2026-08-31 01:55:37 | 49.56827 | 11.52200 | 48° | 84km/h | 4353m | -2.3m/s | -5.2°C | 90.9% | 601.7hPa | 2.6V | 00:00:00 | 03:23:44 | 00:00:00 | |
| DK5PH-5 | 2026-08-31 01:55:36 | 49.56813 | 11.52177 | 48° | 84km/h | 4356m | -2.3m/s | -5.2°C | 90.4% | 601.6hPa | 2.6V | 00:00:00 | 03:23:43 | 00:00:00 | |
| DO3MHA-11 | 2026-08-31 01:55:32 | 49.56756 | 11.52080 | 48° | 86km/h | 4365m | -2.3m/s | -5.3°C | 90.7% | 600.9hPa | 2.6V | 00:00:00 | 03:23:39 | 00:00:00 | |
| DB0ND-19 | 2026-08-31 01:55:30 | 49.56727 | 11.52031 | 47° | 84km/h | 4370m | -2.2m/s | -5.4°C | 87.3% | 600.5hPa | 2.7V | 00:00:00 | 00:00:00 | 00:00:00 | |
| NBG1-10 | 2026-08-31 01:55:29 | 49.56712 | 11.52006 | 49° | 80km/h | 4372m | -2.3m/s | -5.4°C | 90.9% | 600.3hPa | 2.7V | 00:00:00 | 03:23:36 | 00:00:00 | |
| DL1NUX | 2026-08-31 01:55:28 | 49.56628 | 11.51849 | 52° | 88km/h | 4386m | -2.3m/s | -5.5°C | 91.5% | 599.3hPa | 2.7V | 07:03:17 | 03:23:30 | 00:00:00 | |
| DO3MHA-11 | 2026-08-31 01:55:27 | 49.56683 | 11.51955 | 50° | 88km/h | 4377m | -2.3m/s | -5.4°C | 91.3% | 599.9hPa | 2.6V | 00:00:00 | 03:23:34 | 00:00:00 | |
| DF7PN | 2026-08-31 01:55:25 | 49.56655 | 11.51903 | 51° | 86km/h | 4381m | -2.1m/s | -5.5°C | 87.9% | 599.7hPa | 2.6V | 00:00:00 | 00:00:00 | 00:00:00 | |
| DL1NUX | 2026-08-31 01:55:23 | 49.56564 | 11.51714 | 55° | 84km/h | 4397m | -2.3m/s | -5.7°C | 92.4% | 598.4hPa | 2.6V | 07:03:22 | 03:23:25 | 00:00:00 | |
| DO3MHA-11 | 2026-08-31 01:55:22 | 49.56614 | 11.51822 | 54° | 86km/h | 4388m | -2.2m/s | -5.5°C | 91.8% | 599.1hPa | 2.7V | 00:00:00 | 03:23:29 | 00:00:00 | |
| DL1NUX | 2026-08-31 01:55:18 | 49.56506 | 11.51583 | 55° | 78km/h | 4409m | -2.5m/s | -5.8°C | 93% | 597.5hPa | 2.7V | 07:03:27 | 03:23:20 | 00:00:00 | |
| DO3MHA-11 | 2026-08-31 01:55:17 | 49.56551 | 11.51687 | 56° | 80km/h | 4399m | -2.2m/s | -5.6°C | 92.6% | 598.2hPa | 2.7V | 00:00:00 | 03:23:24 | 00:00:00 | |
| DB0UT-7 | 2026-08-31 01:55:16 | 49.56540 | 11.51661 | 56° | 77km/h | 4402m | -2.4m/s | -5.7°C | 92.7% | 598.0hPa | 2.7V | 00:00:00 | 03:23:23 | 00:00:00 | |
| DM7RM-13 | 2026-08-31 01:55:15 | 49.56540 | 11.51661 | 57° | 82km/h | 4402m | -2.4m/s | -5.7°C | 89.2% | 598.0hPa | 2.7V | 00:00:00 | 00:00:00 | 00:00:00 | |
| DL1NUX | 2026-08-31 01:55:13 | 49.56450 | 11.51460 | 54° | 75km/h | 4421m | -2.4m/s | -5.9°C | 93.7% | 596.6hPa | 2.7V | 07:03:32 | 03:23:15 | 00:00:00 | |
| DL6DJ-15 | 2026-08-31 01:55:13 | 49.56495 | 11.51558 | 55° | 77km/h | 4411m | -2.5m/s | -5.8°C | 89.4% | 597.4hPa | 2.7V | 00:00:00 | 00:00:00 | 00:00:00 | |
| DO3MHA-11 | 2026-08-31 01:55:12 | 49.56495 | 11.51558 | 56° | 77km/h | 4411m | -2.4m/s | -5.7°C | 92.9% | 597.4hPa | 2.7V | 07:03:00 | 03:23:19 | 00:00:00 | |
| SO1NDE-10 | 2026-08-31 01:55:08 | 49.56450 | 11.51460 | 55° | 78km/h | 4421m | -2.4m/s | -5.8°C | 93.7% | 596.5hPa | 2.7V | 00:00:00 | 03:23:15 | 00:00:00 | |
| DO3MHA-11 | 2026-08-31 01:55:07 | 49.56439 | 11.51436 | 54° | 73km/h | 4424m | -2.5m/s | -5.8°C | 93.9% | 596.4hPa | 2.7V | 00:00:00 | 03:23:14 | 00:00:00 | |
| DK5PH-5 | 2026-08-31 01:55:06 | 49.56428 | 11.51413 | 54° | 84km/h | 4426m | -2.5m/s | -5.8°C | 94.2% | 596.2hPa | 2.7V | 00:00:00 | 03:23:13 | 00:00:00 | |
| DL1NUX | 2026-08-31 01:55:03 | 49.56394 | 11.51346 | 51° | 73km/h | 4433m | -2.5m/s | -6°C | 95.5% | 595.7hPa | 2.7V | 07:03:37 | 03:23:10 | 00:00:00 | |
| DL1NUX | 2026-08-31 01:55:03 | 49.56334 | 11.51238 | 47° | 73km/h | 4445m | -2.5m/s | -6.1°C | 96.1% | 594.8hPa | 2.6V | 07:03:42 | 03:23:05 | 00:00:00 | |
| DO3MHA-11 | 2026-08-31 01:55:02 | 49.56382 | 11.51324 | 52° | 73km/h | 4436m | -2.3m/s | -5.9°C | 95.4% | 595.4hPa | 2.7V | 00:00:00 | 03:23:09 | 00:00:00 | |
| DB0ND-19 | 2026-08-31 01:54:59 | 49.56347 | 11.51259 | 48° | 73km/h | 4443m | -2.3m/s | -6.0°C | 92.1% | 594.9hPa | 2.7V | 00:00:00 | 00:00:00 | 00:00:00 | |
| DF7PN | 2026-08-31 01:54:54 | 49.56281 | 11.51154 | 44° | 75km/h | 4456m | -2.6m/s | -6.1°C | 92.9% | 593.9hPa | 2.7V | 00:00:00 | 00:00:00 | 00:00:00 | |
| DL1NUX | 2026-08-31 01:54:53 | 49.56267 | 11.51133 | 44° | 77km/h | 4458m | -2.5m/s | -6.1°C | 96.7% | 593.8hPa | 2.7V | 07:03:47 | 03:23:00 | 00:00:00 | |
| DL1NUX | 2026-08-31 01:54:53 | 49.56195 | 11.51027 | 43° | 80km/h | 4471m | -2.6m/s | -6.2°C | 97.3% | 592.8hPa | 2.7V | 07:03:52 | 03:22:55 | 00:00:00 | |
| DO3MHA-11 | 2026-08-31 01:54:52 | 49.56253 | 11.51112 | 44° | 78km/h | 4461m | -2.5m/s | -6.1°C | 97.1% | 593.5hPa | 2.6V | 00:00:00 | 03:22:59 | 00:00:00 | |
| DL1NUX | 2026-08-31 01:54:48 | 49.56119 | 11.50913 | 45° | 88km/h | 4484m | -2.8m/s | -6.3°C | 97.7% | 591.8hPa | 2.6V | 07:03:57 | 03:22:50 | 00:00:00 | |
| DO3MHA-11 | 2026-08-31 01:54:47 | 49.56180 | 11.51005 | 44° | 84km/h | 4474m | -2.6m/s | -6.2°C | 97.6% | 592.4hPa | 2.7V | 00:00:00 | 03:22:54 | 00:00:00 | |
| DB0UT-7 | 2026-08-31 01:54:46 | 49.56165 | 11.50983 | 45° | 73km/h | 4476m | -2.6m/s | -6.2°C | 97.7% | 592.3hPa | 2.7V | 00:00:00 | 00:00:00 | 00:00:00 | |
| DL1NUX | 2026-08-31 01:54:43 | 49.56041 | 11.50791 | 46° | 89km/h | 4498m | -2.7m/s | -6.5°C | 98.1% | 590.8hPa | 2.7V | 07:04:02 | 03:22:45 | 00:00:00 | |
| DB0NH | 2026-08-31 01:54:43 | 49.56119 | 11.50913 | 46° | 86km/h | 4485m | -2.7m/s | -6.3°C | 97.7% | 591.8hPa | 2.6V | 00:00:00 | 03:22:50 | 00:00:00 | |
| DO3MHA-11 | 2026-08-31 01:54:42 | 49.56103 | 11.50889 | 46° | 88km/h | 4487m | -2.7m/s | -6.3°C | 97.6% | 591.6hPa | 2.7V | 00:00:00 | 03:22:49 | 00:00:00 | |
| DL6DJ-15 | 2026-08-31 01:54:41 | 49.56088 | 11.50865 | 45° | 86km/h | 4490m | -2.7m/s | -6.4°C | 94.1% | 591.4hPa | 2.7V | 00:00:00 | 00:00:00 | 00:00:00 | |
| DL1NUX | 2026-08-31 01:54:38 | 49.55966 | 11.50661 | 49° | 89km/h | 4512m | -2.7m/s | -6.5°C | 97.7% | 589.8hPa | 2.7V | 07:04:07 | 03:22:40 | 00:00:00 | |
| SO1NDE-10 | 2026-08-31 01:54:38 | 49.56041 | 11.50790 | 47° | 84km/h | 4498m | -2.7m/s | -6.4°C | 98.1% | 590.8hPa | 2.7V | 00:00:00 | 03:22:45 | 00:00:00 | |
| DO3MHA-11 | 2026-08-31 01:54:37 | 49.56026 | 11.50765 | 48° | 89km/h | 4501m | -2.8m/s | -6.4°C | 98.1% | 590.6hPa | 2.7V | 00:00:00 | 03:22:44 | 00:00:00 | |
| DK5PH-5 | 2026-08-31 01:54:34 | 49.55980 | 11.50687 | 49° | 82km/h | 4509m | -2.8m/s | -6.5°C | 98.0% | 589.9hPa | 2.7V | 00:00:00 | 03:22:41 | 00:00:00 | |
| DO3MHA-11 | 2026-08-31 01:54:32 | 49.55951 | 11.50634 | 50° | 89km/h | 4515m | -2.7m/s | -6.5°C | 98.0% | 589.5hPa | 2.7V | 07:04:00 | 03:22:39 | 00:00:00 | |
| DL1NUX | 2026-08-31 01:54:28 | 49.55894 | 11.50526 | 51° | 89km/h | 4526m | -2.8m/s | -6.6°C | 97.2% | 588.7hPa | 2.7V | 07:04:12 | 03:22:35 | 00:00:00 | |
| DL1NUX | 2026-08-31 01:54:28 | 49.55827 | 11.50391 | 53° | 86km/h | 4540m | -2.7m/s | -6.7°C | 95.7% | 587.7hPa | 2.6V | 07:04:17 | 03:22:30 | 00:00:00 | |
| DO3MHA-11 | 2026-08-31 01:54:27 | 49.55880 | 11.50499 | 53° | 88km/h | 4529m | -2.7m/s | -6.5°C | 95.9% | 588.5hPa | 2.7V | 00:00:00 | 03:22:34 | 00:00:00 | |
| NBG1-10 | 2026-08-31 01:54:23 | 49.55827 | 11.50391 | 54° | 77km/h | 4540m | -2.6m/s | -6.6°C | 95.7% | 587.6hPa | 2.7V | 00:00:00 | 03:22:30 | 00:00:00 | |
| DO3MHA-11 | 2026-08-31 01:54:22 | 49.55814 | 11.50364 | 55° | 84km/h | 4542m | -2.8m/s | -6.7°C | 94.6% | 587.5hPa | 2.7V | 00:00:00 | 03:22:29 | 00:00:00 | |
| DL1NUX | 2026-08-31 01:54:18 | 49.55765 | 11.50259 | 54° | 82km/h | 4553m | -2.7m/s | -6.8°C | 95% | 586.7hPa | 2.7V | 07:04:22 | 03:22:25 | 00:00:00 | |
| DL1NUX | 2026-08-31 01:54:18 | 49.55706 | 11.50132 | 54° | 78km/h | 4567m | -3m/s | -6.9°C | 95.5% | 585.7hPa | 2.7V | 07:04:27 | 03:22:20 | 00:00:00 | |
| DO3MHA-11 | 2026-08-31 01:54:17 | 49.55753 | 11.50233 | 55° | 80km/h | 4556m | -2.8m/s | -6.8°C | 95.4% | 586.4hPa | 2.7V | 00:00:00 | 03:22:24 | 00:00:00 | |
| DM7RM-13 | 2026-08-31 01:54:16 | 49.55753 | 11.50233 | 56° | 80km/h | 4556m | -2.8m/s | -6.8°C | 91.7% | 586.5hPa | 2.6V | 00:00:00 | 00:00:00 | 00:00:00 | |
| DL1NUX | 2026-08-31 01:54:13 | 49.55649 | 11.50009 | 54° | 77km/h | 4582m | -2.9m/s | -7°C | 96.1% | 584.5hPa | 2.6V | 07:04:32 | 03:22:15 | 00:00:00 | |
| DB0NH | 2026-08-31 01:54:13 | 49.55706 | 11.50132 | 55° | 73km/h | 4567m | -3.0m/s | -6.9°C | 95.5% | 585.6hPa | 2.7V | 00:00:00 | 03:22:20 | 00:00:00 | |
| DO3MHA-11 | 2026-08-31 01:54:12 | 49.55695 | 11.50107 | 55° | 77km/h | 4570m | -2.7m/s | -6.9°C | 95.9% | 585.3hPa | 2.7V | 00:00:00 | 03:22:19 | 00:00:00 | |
| DL6DJ-15 | 2026-08-31 01:54:10 | 49.55672 | 11.50058 | 54° | 77km/h | 4576m | -2.9m/s | -7.0°C | 93.1% | 585.0hPa | 2.7V | 00:00:00 | 00:00:00 | 00:00:00 | |
| DL1NUX | 2026-08-31 01:54:08 | 49.55593 | 11.49889 | 54° | 77km/h | 4596m | -2.8m/s | -7.1°C | 94.7% | 583.4hPa | 2.7V | 07:04:37 | 03:22:10 | 00:00:00 | |
| SO1NDE-10 | 2026-08-31 01:54:08 | 49.55649 | 11.50009 | 55° | 73km/h | 4582m | -2.8m/s | -6.9°C | 96.1% | 584.5hPa | 2.7V | 00:00:00 | 03:22:15 | 00:00:00 | |
| DO3MHA-11 | 2026-08-31 01:54:07 | 49.55638 | 11.49985 | 55° | 77km/h | 4584m | -2.9m/s | -7.0°C | 95.7% | 584.3hPa | 2.7V | 00:00:00 | 03:22:14 | 00:00:00 | |
| DK5PH-5 | 2026-08-31 01:54:04 | 49.55604 | 11.49913 | 55° | 73km/h | 4593m | -2.8m/s | -7.0°C | 94.8% | 583.6hPa | 2.7V | 07:04:00 | 03:22:11 | 00:00:00 | |
| DL1NUX | 2026-08-31 01:54:03 | 49.55537 | 11.49770 | 54° | 75km/h | 4611m | -3m/s | -7.2°C | 95.4% | 582.3hPa | 2.7V | 07:04:42 | 03:22:05 | 00:00:00 | |
| DO3MHA-11 | 2026-08-31 01:54:02 | 49.55581 | 11.49865 | 55° | 75km/h | 4599m | -3.1m/s | -7.0°C | 95.0% | 583.2hPa | 2.6V | 00:00:00 | 03:22:09 | 00:00:00 | |
| DL1NUX | 2026-08-31 01:53:58 | 49.55482 | 11.49656 | 52° | 71km/h | 4626m | -3m/s | -7.3°C | 95% | 581.2hPa | 2.7V | 07:04:47 | 03:22:00 | 00:00:00 | |
| DO3MHA-11 | 2026-08-31 01:53:57 | 49.55526 | 11.49747 | 54° | 73km/h | 4614m | -2.8m/s | -7.2°C | 95.7% | 582.0hPa | 2.6V | 00:00:00 | 03:22:04 | 00:00:00 | |
| DF9NV-10 | 2026-08-31 01:53:55 | 49.55515 | 11.49723 | 55° | 73km/h | 4617m | -3.0m/s | -7.2°C | 91.8% | 581.9hPa | 2.6V | 07:05:00 | 00:00:00 | 00:00:00 | |
| DM7RM-13 | 2026-08-31 01:53:54 | 49.55504 | 11.49701 | 54° | 73km/h | 4620m | -2.8m/s | -7.2°C | 91.7% | 581.7hPa | 2.6V | 07:05:00 | 00:00:00 | 00:00:00 | |
| DL1NUX | 2026-08-31 01:53:53 | 49.55426 | 11.49548 | 50° | 69km/h | 4640m | -3m/s | -7.4°C | 95.5% | 580.2hPa | 2.6V | 07:04:52 | 03:21:55 | 00:00:00 | |
| DO3MHA-11 | 2026-08-31 01:53:52 | 49.55470 | 11.49634 | 52° | 71km/h | 4629m | -2.7m/s | -7.3°C | 95.1% | 581.0hPa | 2.7V | 07:04:00 | 03:21:59 | 00:00:00 | |
| NBG1-10 | 2026-08-31 01:53:50 | 49.55448 | 11.49591 | 52° | 77km/h | 4634m | -2.9m/s | -7.3°C | 95.5% | 580.6hPa | 2.7V | 00:00:00 | 03:21:57 | 00:00:00 | |
| DO3MHA-11 | 2026-08-31 01:53:47 | 49.55414 | 11.49527 | 51° | 69km/h | 4643m | -2.7m/s | -7.4°C | 95.1% | 579.9hPa | 2.6V | 00:00:00 | 03:21:54 | 00:00:00 | |
| DL1NUX | 2026-08-31 01:53:43 | 49.55369 | 11.49446 | 47° | 69km/h | 4654m | -2.9m/s | -7.5°C | 95.2% | 579.1hPa | 2.7V | 07:04:57 | 03:21:50 | 00:00:00 | |
| DL1NUX | 2026-08-31 01:53:43 | 49.55306 | 11.49348 | 43° | 71km/h | 4668m | -2.8m/s | -7.6°C | 95.4% | 578.1hPa | 2.7V | 07:05:02 | 03:21:45 | 00:00:00 | |
| DO3MHA-11 | 2026-08-31 01:53:42 | 49.55357 | 11.49426 | 47° | 71km/h | 4657m | -2.8m/s | -7.5°C | 94.9% | 578.9hPa | 2.6V | 00:00:00 | 03:21:49 | 00:00:00 | |
| DB0NH | 2026-08-31 01:53:41 | 49.55345 | 11.49406 | 46° | 78km/h | 4659m | -2.8m/s | -7.5°C | 94.9% | 578.7hPa | 2.6V | 00:00:00 | 03:21:48 | 00:00:00 | |
| DL6DJ-15 | 2026-08-31 01:53:39 | 49.55319 | 11.49367 | 44° | 69km/h | 4665m | -2.7m/s | -7.6°C | 91.3% | 578.2hPa | 2.6V | 00:00:00 | 00:00:00 | 00:00:00 | |
| DB0UT-7 | 2026-08-31 01:53:38 | 49.55306 | 11.49348 | 44° | 78km/h | 4668m | -2.7m/s | -7.6°C | 95.4% | 578.1hPa | 2.6V | 00:00:00 | 03:21:45 | 00:00:00 | |
| DO3MHA-11 | 2026-08-31 01:53:37 | 49.55293 | 11.49329 | 44° | 75km/h | 4671m | -2.8m/s | -7.6°C | 95.4% | 577.9hPa | 2.6V | 00:00:00 | 03:21:44 | 00:00:00 | |
| DL1NUX | 2026-08-31 01:53:36 | 49.55238 | 11.49250 | 42° | 77km/h | 4682m | -2.9m/s | -7.7°C | 95.2% | 577hPa | 2.6V | 07:05:07 | 03:21:40 | 00:00:00 | |
| DF9NV-10 | 2026-08-31 01:53:35 | 49.55280 | 11.49309 | 44° | 73km/h | 4673m | -2.9m/s | -7.6°C | 91.4% | 577.7hPa | 2.7V | 07:05:00 | 00:00:00 | 00:00:00 | |
| DK5PH-5 | 2026-08-31 01:53:34 | 49.55252 | 11.49269 | 43° | 78km/h | 4679m | -2.9m/s | -7.6°C | 94.8% | 577.2hPa | 2.7V | 00:00:00 | 03:21:41 | 00:00:00 | |
| DO3MHA-11 | 2026-08-31 01:53:32 | 49.55223 | 11.49229 | 43° | 80km/h | 4685m | -2.7m/s | -7.7°C | 95.2% | 576.8hPa | 2.7V | 00:00:00 | 03:21:39 | 00:00:00 | |
| DO9HM | 2026-08-31 01:53:31 | 49.55223 | 11.49229 | 44° | 78km/h | 4685m | -2.8m/s | -7.7°C | 91.3% | 576.9hPa | 2.7V | 07:05:00 | 00:00:00 | 00:00:00 | |
| DM7RM-13 | 2026-08-31 01:53:29 | 49.55194 | 11.49187 | 44° | 80km/h | 4691m | -2.9m/s | -7.8°C | 91.4% | 576.4hPa | 2.7V | 07:05:00 | 00:00:00 | 00:00:00 | |
| DL1NUX | 2026-08-31 01:53:28 | 49.55164 | 11.49144 | 43° | 82km/h | 4696m | -2.9m/s | -7.8°C | 95.5% | 576.1hPa | 2.7V | 07:05:12 | 03:21:35 | 00:00:00 | |
| DL1NUX | 2026-08-31 01:53:28 | 49.55090 | 11.49028 | 47° | 84km/h | 4710m | -3m/s | -7.9°C | 95.6% | 575hPa | 2.7V | 07:05:17 | 03:21:30 | 00:00:00 | |
| DO3MHA-11 | 2026-08-31 01:53:27 | 49.55149 | 11.49122 | 45° | 84km/h | 4699m | -2.7m/s | -7.8°C | 96.0% | 575.8hPa | 2.7V | 00:00:00 | 03:21:34 | 00:00:00 | |
| DB0ND-19 | 2026-08-31 01:53:26 | 49.55134 | 11.49099 | 45° | 82km/h | 4702m | -2.7m/s | -7.9°C | 92.0% | 575.6hPa | 2.7V | 00:00:00 | 00:00:00 | 00:00:00 | |
| DL1NUX | 2026-08-31 01:53:23 | 49.55021 | 11.48904 | 51° | 84km/h | 4725m | -2.7m/s | -8.1°C | 96.1% | 574hPa | 2.7V | 07:05:22 | 03:21:25 | 00:00:00 | |
| DO3MHA-11 | 2026-08-31 01:53:22 | 49.55076 | 11.49004 | 49° | 84km/h | 4713m | -3.0m/s | -7.9°C | 95.3% | 574.7hPa | 2.6V | 00:00:00 | 03:21:29 | 00:00:00 | |
| DF7PN | 2026-08-31 01:53:21 | 49.55048 | 11.48955 | 49° | 84km/h | 4719m | -2.9m/s | -8.0°C | 91.7% | 574.3hPa | 2.6V | 00:00:00 | 00:00:00 | 00:00:00 | |
| DL1NUX | 2026-08-31 01:53:18 | 49.54959 | 11.48779 | 53° | 77km/h | 4739m | -2.8m/s | -8.2°C | 96.5% | 572.8hPa | 2.6V | 07:05:27 | 03:21:20 | 00:00:00 | |
| DO3MHA-11 | 2026-08-31 01:53:17 | 49.55008 | 11.48879 | 52° | 80km/h | 4728m | -2.8m/s | -8.0°C | 96.2% | 573.7hPa | 2.7V | 00:00:00 | 03:21:24 | 00:00:00 | |
| DF9NV-10 | 2026-08-31 01:53:15 | 49.54995 | 11.48854 | 54° | 82km/h | 4730m | -2.9m/s | -8.1°C | 92.1% | 573.5hPa | 2.6V | 07:06:00 | 00:00:00 | 00:00:00 | |
| DL1NUX | 2026-08-31 01:53:12 | 49.54893 | 11.48639 | 54° | 71km/h | 4756m | -2.9m/s | -8.3°C | 97.6% | 571.6hPa | 2.6V | 07:05:33 | 03:21:14 | 00:00:00 | |
| DO9HM | 2026-08-31 01:53:12 | 49.54947 | 11.48755 | 55° | 77km/h | 4742m | -2.8m/s | -8.2°C | 92.9% | 572.7hPa | 2.7V | 07:06:00 | 00:00:00 | 00:00:00 | |
| DB0NH | 2026-08-31 01:53:11 | 49.54936 | 11.48731 | 54° | 68km/h | 4745m | -2.6m/s | -8.2°C | 96.9% | 572.4hPa | 2.7V | 07:05:00 | 03:21:18 | 00:00:00 | |
| DB0UT-7 | 2026-08-31 01:53:08 | 49.54903 | 11.48662 | 55° | 66km/h | 4753m | -2.6m/s | -8.3°C | 97.4% | 571.8hPa | 2.7V | 00:00:00 | 00:00:00 | 00:00:00 | |
| DO3MHA-11 | 2026-08-31 01:53:07 | 49.54892 | 11.48639 | 55° | 71km/h | 4756m | -2.9m/s | -8.3°C | 97.6% | 571.6hPa | 2.7V | 00:00:00 | 03:21:14 | 00:00:00 | |
| DL1NUX | 2026-08-31 01:53:06 | 49.54831 | 11.48506 | 54° | 69km/h | 4773m | -3m/s | -8.5°C | 98.1% | 570.4hPa | 2.7V | 07:05:39 | 03:21:08 | 00:00:00 | |
| DM7RM-13 | 2026-08-31 01:53:05 | 49.54882 | 11.48617 | 55° | 71km/h | 4759m | -3.0m/s | -8.4°C | 93.4% | 571.5hPa | 2.7V | 07:06:00 | 00:00:00 | 00:00:00 | |
| DK5PH-5 | 2026-08-31 01:53:04 | 49.54861 | 11.48572 | 55° | 66km/h | 4765m | -2.9m/s | -8.4°C | 97.9% | 570.9hPa | 2.7V | 00:00:00 | 03:21:11 | 00:00:00 | |
| DO3MHA-11 | 2026-08-31 01:53:02 | 49.54841 | 11.48527 | 55° | 69km/h | 4770m | -2.7m/s | -8.4°C | 97.9% | 570.6hPa | 2.7V | 00:00:00 | 03:21:09 | 00:00:00 | |
| DL1NUX | 2026-08-31 01:53:01 | 49.54781 | 11.48398 | 54° | 66km/h | 4788m | -2.9m/s | -8.6°C | 98.1% | 569.3hPa | 2.7V | 07:05:44 | 03:21:03 | 00:00:00 | |
| DO3MHA-11 | 2026-08-31 01:52:57 | 49.54791 | 11.48419 | 55° | 66km/h | 4785m | -2.9m/s | -8.5°C | 98.0% | 569.5hPa | 2.7V | 00:00:00 | 03:21:04 | 00:00:00 | |
| DL1NUX | 2026-08-31 01:52:56 | 49.54732 | 11.48297 | 52° | 64km/h | 4802m | -2.9m/s | -8.7°C | 97.2% | 568.2hPa | 2.7V | 07:05:49 | 03:20:58 | 00:00:00 | |
| DB0ND-19 | 2026-08-31 01:52:55 | 49.54771 | 11.48377 | 54° | 64km/h | 4791m | -3.1m/s | -8.6°C | 94.1% | 569.1hPa | 2.7V | 00:00:00 | 00:00:00 | 00:00:00 | |
| DF9NV-10 | 2026-08-31 01:52:54 | 49.54771 | 11.48377 | 55° | 66km/h | 4791m | -3.1m/s | -8.6°C | 94.2% | 569.1hPa | 2.7V | 07:06:00 | 00:00:00 | 00:00:00 | |
| DO3MHA-11 | 2026-08-31 01:52:52 | 49.54742 | 11.48317 | 53° | 64km/h | 4800m | -2.7m/s | -8.6°C | 97.5% | 568.4hPa | 2.7V | 00:00:00 | 03:20:59 | 00:00:00 | |
| DO9HM | 2026-08-31 01:52:51 | 49.54732 | 11.48297 | 53° | 64km/h | 4803m | -2.9m/s | -8.7°C | 93.0% | 568.2hPa | 2.7V | 07:06:00 | 00:00:00 | 00:00:00 | |
| DL1NUX | 2026-08-31 01:52:50 | 49.54673 | 11.48184 | 50° | 62km/h | 4819m | -2.7m/s | -8.7°C | 94.6% | 566.9hPa | 2.7V | 07:05:55 | 03:20:52 | 00:00:00 | |
| DF7PN | 2026-08-31 01:52:50 | 49.54713 | 11.48258 | 51° | 62km/h | 4808m | -3.0m/s | -8.7°C | 92.0% | 567.8hPa | 2.6V | 00:00:00 | 00:00:00 | 00:00:00 | |
| DO3MHA-11 | 2026-08-31 01:52:47 | 49.54693 | 11.48221 | 51° | 62km/h | 4814m | -2.8m/s | -8.7°C | 95.9% | 567.3hPa | 2.6V | 00:00:00 | 03:20:54 | 00:00:00 | |
| DL1NUX | 2026-08-31 01:52:45 | 49.54620 | 11.48095 | 45° | 62km/h | 4833m | -2.6m/s | -8.6°C | 85% | 566hPa | 2.6V | 07:06:00 | 03:20:47 | 00:00:00 | |
| NBG1-10 | 2026-08-31 01:52:44 | 49.54662 | 11.48165 | 50° | 69km/h | 4822m | -2.5m/s | -8.7°C | 92.5% | 566.8hPa | 2.7V | 00:00:00 | 03:20:51 | 00:00:00 | |
| DO3MHA-11 | 2026-08-31 01:52:42 | 49.54642 | 11.48130 | 48° | 62km/h | 4827m | -2.7m/s | -8.5°C | 87.8% | 566.3hPa | 2.7V | 00:00:00 | 03:20:49 | 00:00:00 | |
| DB0NH | 2026-08-31 01:52:41 | 49.54631 | 11.48112 | 47° | 71km/h | 4830m | -2.8m/s | -8.5°C | 85.7% | 566.1hPa | 2.7V | 00:00:00 | 03:20:48 | 00:00:00 | |
| DL1NUX | 2026-08-31 01:52:40 | 49.54561 | 11.48008 | 42° | 68km/h | 4845m | -2.6m/s | -8.4°C | 80.7% | 565.1hPa | 2.7V | 07:06:05 | 03:20:42 | 00:00:00 | |
| DB0UT-7 | 2026-08-31 01:52:38 | 49.54598 | 11.48060 | 44° | 71km/h | 4837m | -2.3m/s | -8.5°C | 83.1% | 565.6hPa | 2.7V | 07:06:00 | 03:20:45 | 00:00:00 | |
| DO3MHA-11 | 2026-08-31 01:52:37 | 49.54586 | 11.48043 | 44° | 68km/h | 4840m | -2.6m/s | -8.5°C | 82.9% | 565.5hPa | 2.7V | 00:00:00 | 03:20:44 | 00:00:00 | |
| DL1NUX | 2026-08-31 01:52:35 | 49.54495 | 11.47912 | 44° | 75km/h | 4858m | -2.5m/s | -8.4°C | 75.7% | 564.2hPa | 2.7V | 07:06:10 | 03:20:37 | 00:00:00 | |
| DK5PH-5 | 2026-08-31 01:52:34 | 49.54548 | 11.47990 | 43° | 71km/h | 4848m | -2.5m/s | -8.4°C | 79.6% | 564.9hPa | 2.6V | 00:00:00 | 03:20:41 | 00:00:00 | |
| DO3MHA-11 | 2026-08-31 01:52:32 | 49.54522 | 11.47952 | 44° | 75km/h | 4853m | -2.5m/s | -8.4°C | 78.1% | 564.5hPa | 2.6V | 07:06:00 | 03:20:39 | 00:00:00 | |
| DL1NUX | 2026-08-31 01:52:30 | 49.54429 | 11.47804 | 49° | 77km/h | 4871m | -2.7m/s | -8.4°C | 71.2% | 563.2hPa | 2.7V | 07:06:15 | 03:20:32 | 00:00:00 | |
| DO3MHA-11 | 2026-08-31 01:52:27 | 49.54455 | 11.47849 | 48° | 77km/h | 4866m | -2.5m/s | -8.3°C | 71.2% | 563.5hPa | 2.6V | 00:00:00 | 03:20:34 | 00:00:00 | |
| DM7RM-13 | 2026-08-31 01:52:25 | 49.54442 | 11.47827 | 49° | 77km/h | 4869m | -2.6m/s | -8.4°C | 68.3% | 563.5hPa | 2.6V | 07:07:00 | 00:00:00 | 00:00:00 | |
| DB0ND-19 | 2026-08-31 01:52:24 | 49.54416 | 11.47781 | 50° | 77km/h | 4874m | -2.5m/s | -8.4°C | 68.1% | 563.0hPa | 2.6V | 00:00:00 | 00:00:00 | 00:00:00 | |
| DO3MHA-11 | 2026-08-31 01:52:22 | 49.54392 | 11.47735 | 53° | 73km/h | 4879m | -2.6m/s | -8.3°C | 70.2% | 562.7hPa | 2.6V | 00:00:00 | 03:20:29 | 00:00:00 | |
| DL1NUX | 2026-08-31 01:52:20 | 49.54369 | 11.47688 | 54° | 73km/h | 4884m | -2.6m/s | -8.3°C | 69.1% | 562.3hPa | 2.6V | 07:06:20 | 03:20:27 | 00:00:00 | |
| DL1NUX | 2026-08-31 01:52:20 | 49.54319 | 11.47575 | 56° | 68km/h | 4897m | -2.5m/s | -8.2°C | 66.2% | 561.5hPa | 2.7V | 07:06:25 | 03:20:22 | 00:00:00 | |
| DF7PN | 2026-08-31 01:52:19 | 49.54348 | 11.47642 | 55° | 69km/h | 4889m | -2.5m/s | -8.3°C | 65.1% | 562.0hPa | 2.7V | 00:00:00 | 00:00:00 | 00:00:00 | |
| DO3MHA-11 | 2026-08-31 01:52:17 | 49.54338 | 11.47619 | 57° | 68km/h | 4892m | -2.4m/s | -8.2°C | 66.8% | 561.7hPa | 2.7V | 00:00:00 | 03:20:24 | 00:00:00 | |
| DL1NUX | 2026-08-31 01:52:15 | 49.54274 | 11.47469 | 56° | 64km/h | 4909m | -2.6m/s | -8.2°C | 64.9% | 560.5hPa | 2.7V | 07:06:30 | 03:20:17 | 00:00:00 | |
| DF9NV-10 | 2026-08-31 01:52:14 | 49.54319 | 11.47575 | 58° | 68km/h | 4897m | -2.5m/s | -8.2°C | 63.3% | 561.5hPa | 2.7V | 07:07:00 | 00:00:00 | 00:00:00 | |
| DO3MHA-11 | 2026-08-31 01:52:12 | 49.54292 | 11.47511 | 57° | 64km/h | 4904m | -2.4m/s | -8.2°C | 64.8% | 560.9hPa | 2.7V | 00:00:00 | 03:20:19 | 00:00:00 | |
| NBG1-10 | 2026-08-31 01:52:11 | 49.54283 | 11.47490 | 57° | 60km/h | 4907m | -2.5m/s | -8.2°C | 64.9% | 560.7hPa | 2.7V | 00:00:00 | 03:20:18 | 00:00:00 | |
| DB0UT-7 | 2026-08-31 01:52:08 | 49.54256 | 11.47427 | 57° | 60km/h | 4914m | -2.5m/s | -8.2°C | 65.0% | 560.1hPa | 2.7V | 00:00:00 | 00:00:00 | 00:00:00 | |
| DO3MHA-11 | 2026-08-31 01:52:07 | 49.54247 | 11.47407 | 57° | 64km/h | 4917m | -2.3m/s | -8.2°C | 64.8% | 560.0hPa | 2.7V | 00:00:00 | 03:20:14 | 00:00:00 | |
| DL1NUX | 2026-08-31 01:52:05 | 49.54229 | 11.47365 | 56° | 64km/h | 4921m | -2.4m/s | -8.3°C | 64.6% | 559.6hPa | 2.7V | 07:06:35 | 03:20:12 | 00:00:00 | |
| DK5PH-5 | 2026-08-31 01:52:04 | 49.54220 | 11.47345 | 57° | 58km/h | 4924m | -2.4m/s | -8.2°C | 64.4% | 559.4hPa | 2.7V | 00:00:00 | 03:20:11 | 00:00:00 | |
| DO3MHA-11 | 2026-08-31 01:52:02 | 49.54203 | 11.47304 | 57° | 62km/h | 4929m | -2.4m/s | -8.2°C | 64.4% | 559.1hPa | 2.7V | 00:00:00 | 03:20:09 | 00:00:00 | |
| DB0ND-19 | 2026-08-31 01:51:53 | 49.54127 | 11.47125 | 56° | 58km/h | 4950m | -2.3m/s | -8.3°C | 54.6% | 557.6hPa | 2.6V | 00:00:00 | 00:00:00 | 00:00:00 | |
| DL1NUX | 2026-08-31 01:51:52 | 49.54078 | 11.47011 | 57° | 57km/h | 4964m | -2.2m/s | -8.3°C | 54.8% | 556.6hPa | 2.6V | 07:06:53 | 03:19:54 | 00:00:00 | |
| DF7PN | 2026-08-31 01:51:48 | 49.54078 | 11.47011 | 57° | 57km/h | 4964m | -2.2m/s | -8.3°C | 52.3% | 556.6hPa | 2.7V | 00:00:00 | 00:00:00 | 00:00:00 | |
| DL1NUX | 2026-08-31 01:51:47 | 49.54039 | 11.46919 | 56° | 57km/h | 4976m | -2.2m/s | -8.3°C | 51.5% | 555.7hPa | 2.7V | 07:06:58 | 03:19:49 | 00:00:00 | |
| DO3MHA-11 | 2026-08-31 01:51:47 | 49.54078 | 11.47011 | 58° | 57km/h | 4965m | -2.2m/s | -8.2°C | 54.8% | 556.6hPa | 2.6V | 00:00:00 | 03:19:54 | 00:00:00 | |
| DM7RM-13 | 2026-08-31 01:51:44 | 49.54062 | 11.46974 | 58° | 57km/h | 4969m | -2.4m/s | -8.3°C | 50.3% | 556.2hPa | 2.6V | 07:07:00 | 00:00:00 | 00:00:00 | |
| DO3MHA-11 | 2026-08-31 01:51:42 | 49.54040 | 11.46919 | 57° | 55km/h | 4976m | -2.2m/s | -8.2°C | 51.5% | 555.7hPa | 2.6V | 00:00:00 | 03:19:49 | 00:00:00 | |
| DB0NH | 2026-08-31 01:51:41 | 49.54032 | 11.46901 | 58° | 51km/h | 4978m | -2.4m/s | -8.2°C | 50.5% | 555.4hPa | 2.6V | 00:00:00 | 03:19:48 | 00:00:00 | |
| DL1NUX | 2026-08-31 01:51:37 | 49.54002 | 11.46829 | 56° | 55km/h | 4988m | -2.3m/s | -8.3°C | 48.4% | 554.9hPa | 2.7V | 07:07:03 | 03:19:44 | 00:00:00 | |
| DL1NUX | 2026-08-31 01:51:37 | 49.53964 | 11.46744 | 55° | 51km/h | 4999m | -2.4m/s | -8.2°C | 43.4% | 554hPa | 2.7V | 07:07:08 | 03:19:39 | 00:00:00 | |
| DO3MHA-11 | 2026-08-31 01:51:37 | 49.54001 | 11.46829 | 57° | 53km/h | 4988m | -2.2m/s | -8.2°C | 48.4% | 554.8hPa | 2.6V | 00:00:00 | 03:19:44 | 00:00:00 | |
| DL6DJ-15 | 2026-08-31 01:51:35 | 49.53987 | 11.46794 | 56° | 51km/h | 4993m | -2.4m/s | -8.3°C | 45.6% | 554.5hPa | 2.6V | 00:00:00 | 00:00:00 | 00:00:00 | |
| DK5PH-5 | 2026-08-31 01:51:34 | 49.53979 | 11.46777 | 56° | 53km/h | 4995m | -2.1m/s | -8.2°C | 47.7% | 554.3hPa | 2.6V | 00:00:00 | 03:19:41 | 00:00:00 | |
| DF9NV-10 | 2026-08-31 01:51:33 | 49.53979 | 11.46777 | 57° | 53km/h | 4995m | -2.2m/s | -8.3°C | 45.6% | 554.4hPa | 2.7V | 07:07:00 | 00:00:00 | 00:00:00 | |
| DO3MHA-11 | 2026-08-31 01:51:32 | 49.53964 | 11.46744 | 56° | 49km/h | 4999m | -2.4m/s | -8.1°C | 43.4% | 554.0hPa | 2.7V | 00:00:00 | 03:19:39 | 00:00:00 | |
| DL1NUX | 2026-08-31 01:51:32 | 49.53928 | 11.46664 | 54° | 49km/h | 5011m | -2.4m/s | -8.3°C | 42.4% | 553.1hPa | 2.6V | 07:07:13 | 03:19:34 | 00:00:00 | |
| DO9HM | 2026-08-31 01:51:28 | 49.53942 | 11.46696 | 56° | 49km/h | 5006m | -2.5m/s | -8.2°C | 40.9% | 553.5hPa | 2.7V | 07:07:00 | 00:00:00 | 00:00:00 | |
| DO3MHA-11 | 2026-08-31 01:51:26 | 49.53921 | 11.46649 | 55° | 47km/h | 5014m | -2.3m/s | -8.3°C | 43.2% | 552.9hPa | 2.7V | 00:00:00 | 03:19:33 | 00:00:00 | |
| DM7RM-13 | 2026-08-31 01:51:24 | 49.53913 | 11.46633 | 55° | 49km/h | 5016m | -2.4m/s | -8.3°C | 41.5% | 552.8hPa | 2.7V | 07:07:00 | 00:00:00 | 00:00:00 | |
| DL1NUX | 2026-08-31 01:51:22 | 49.53854 | 11.46516 | 47° | 47km/h | 5035m | -2.3m/s | -8.4°C | 40.5% | 551.5hPa | 2.7V | 07:07:23 | 03:19:24 | 00:00:00 | |
| DF7PN | 2026-08-31 01:51:17 | 49.53846 | 11.46503 | 45° | 46km/h | 5037m | -2.3m/s | -8.4°C | 38.6% | 551.4hPa | 2.6V | 00:00:00 | 00:00:00 | 00:00:00 | |
| DO3MHA-11 | 2026-08-31 01:51:16 | 49.53846 | 11.46503 | 46° | 57km/h | 5037m | -2.2m/s | -8.4°C | 40.5% | 551.3hPa | 2.6V | 00:00:00 | 03:19:23 | 00:00:00 | |
| DL1NUX | 2026-08-31 01:51:12 | 49.53762 | 11.46355 | 56° | 62km/h | 5054m | -2.1m/s | -8.4°C | 37.5% | 550hPa | 2.6V | 07:07:33 | 03:19:14 | 00:00:00 | |
| DB0NH | 2026-08-31 01:51:11 | 49.53799 | 11.46432 | 49° | 60km/h | 5047m | -1.6m/s | -8.4°C | 39.2% | 550.6hPa | 2.7V | 00:00:00 | 03:19:18 | 00:00:00 | |
| DO9HM | 2026-08-31 01:51:08 | 49.53771 | 11.46375 | 56° | 62km/h | 5053m | -2.1m/s | -8.4°C | 36.0% | 550.2hPa | 2.7V | 07:07:00 | 00:00:00 | 00:00:00 | |
| SO1NDE-10 | 2026-08-31 01:51:07 | 49.53762 | 11.46355 | 57° | 60km/h | 5055m | -2.0m/s | -8.4°C | 37.5% | 550.0hPa | 2.7V | 00:00:00 | 03:19:14 | 00:00:00 | |
| DO3MHA-11 | 2026-08-31 01:51:06 | 49.53753 | 11.46334 | 58° | 62km/h | 5057m | -2.1m/s | -8.4°C | 37.2% | 549.9hPa | 2.7V | 00:00:00 | 03:19:13 | 00:00:00 | |
| NBG1-10 | 2026-08-31 01:51:05 | 49.53745 | 11.46314 | 59° | 58km/h | 5059m | -2.2m/s | -8.3°C | 36.5% | 549.7hPa | 2.7V | 00:00:00 | 03:19:12 | 00:00:00 | |
| DK5PH-5 | 2026-08-31 01:51:04 | 49.53737 | 11.46293 | 60° | 58km/h | 5061m | -2.3m/s | -8.2°C | 35.1% | 549.5hPa | 2.7V | 00:00:00 | 03:19:11 | 00:00:00 | |
| DM7RM-13 | 2026-08-31 01:51:03 | 49.53737 | 11.46293 | 61° | 62km/h | 5061m | -2.3m/s | -8.3°C | 33.5% | 549.6hPa | 2.7V | 07:07:00 | 00:00:00 | 00:00:00 | |
| DL1NUX | 2026-08-31 01:51:02 | 49.53685 | 11.46147 | 63° | 60km/h | 5076m | -2.3m/s | -7.7°C | 24.6% | 548.5hPa | 2.7V | 07:07:43 | 03:19:04 | 00:00:00 | |
| DO3MHA-11 | 2026-08-31 01:50:56 | 49.53679 | 11.46125 | 64° | 60km/h | 5079m | -2.2m/s | -7.6°C | 24.2% | 548.2hPa | 2.7V | 07:07:00 | 03:19:03 | 00:00:00 | |
| DL1NUX | 2026-08-31 01:50:52 | 49.53619 | 11.45933 | 65° | 60km/h | 5098m | -2.3m/s | -7.3°C | 16.8% | 547hPa | 2.7V | 07:07:53 | 03:18:54 | 00:00:00 | |
| DB0ND-19 | 2026-08-31 01:50:51 | 49.53645 | 11.46018 | 64° | 60km/h | 5089m | -2.1m/s | -7.4°C | 18.2% | 547.6hPa | 2.6V | 00:00:00 | 00:00:00 | 00:00:00 | |
| DF7PN | 2026-08-31 01:50:45 | 49.53607 | 11.45891 | 66° | 58km/h | 5103m | -2.5m/s | -7.2°C | 14.1% | 546.6hPa | 2.6V | 00:00:00 | 00:00:00 | 00:00:00 | |
| DM7RM-13 | 2026-08-31 01:50:43 | 49.53601 | 11.45871 | 68° | 58km/h | 5105m | -2.4m/s | -7.0°C | 11.8% | 546.4hPa | 2.6V | 07:08:00 | 00:00:00 | 00:00:00 | |
| DL1NUX | 2026-08-31 01:50:42 | 49.53566 | 11.45730 | 71° | 53km/h | 5122m | -2.1m/s | -6.6°C | 7.9% | 545.3hPa | 2.6V | 07:08:03 | 03:18:44 | 00:00:00 | |
| DB0NH | 2026-08-31 01:50:41 | 49.53585 | 11.45809 | 70° | 55km/h | 5113m | -2.4m/s | -6.8°C | 11.2% | 545.9hPa | 2.6V | 00:00:00 | 03:18:48 | 00:00:00 | |
| SO1NDE-10 | 2026-08-31 01:50:37 | 49.53566 | 11.45730 | 72° | 57km/h | 5122m | -2.0m/s | -6.6°C | 7.9% | 545.2hPa | 2.6V | 00:00:00 | 03:18:44 | 00:00:00 | |
| DO3MHA-11 | 2026-08-31 01:50:36 | 49.53562 | 11.45710 | 72° | 49km/h | 5124m | -2.3m/s | -6.6°C | 7.3% | 545.1hPa | 2.6V | 00:00:00 | 03:18:43 | 00:00:00 | |
| DK5PH-5 | 2026-08-31 01:50:34 | 49.53554 | 11.45673 | 71° | 57km/h | 5129m | -2.4m/s | -6.6°C | 7.2% | 544.8hPa | 2.7V | 00:00:00 | 03:18:41 | 00:00:00 | |
| DL6DJ-15 | 2026-08-31 01:50:33 | 49.53550 | 11.45654 | 70° | 49km/h | 5131m | -2.2m/s | -6.7°C | 6.8% | 544.7hPa | 2.7V | 00:00:00 | 00:00:00 | 00:00:00 | |
| DL1NUX | 2026-08-31 01:50:32 | 49.53519 | 11.45553 | 58° | 49km/h | 5144m | -2.2m/s | -6.8°C | 7% | 543.8hPa | 2.7V | 07:08:13 | 03:18:34 | 00:00:00 | |
| NBG1-10 | 2026-08-31 01:50:32 | 49.53545 | 11.45636 | 70° | 58km/h | 5133m | -2.3m/s | -6.6°C | 7.1% | 544.4hPa | 2.7V | 07:08:00 | 03:18:39 | 00:00:00 | |
| DF9NV-10 | 2026-08-31 01:50:30 | 49.53541 | 11.45619 | 69° | 47km/h | 5136m | -2.5m/s | -6.7°C | 6.7% | 544.4hPa | 2.6V | 07:08:00 | 00:00:00 | 00:00:00 | |
| DB0UT-7 | 2026-08-31 01:50:28 | 49.53525 | 11.45570 | 61° | 60km/h | 5143m | -2.2m/s | -6.7°C | 7.1% | 543.9hPa | 2.6V | 00:00:00 | 03:18:35 | 00:00:00 | |
| DO3MHA-11 | 2026-08-31 01:50:26 | 49.53512 | 11.45537 | 58° | 58km/h | 5147m | -2.2m/s | -6.7°C | 7.1% | 543.5hPa | 2.6V | 00:00:00 | 03:18:33 | 00:00:00 | |
| DM7RM-13 | 2026-08-31 01:50:23 | 49.53498 | 11.45501 | 58° | 57km/h | 5151m | -2.2m/s | -6.8°C | 6.7% | 543.4hPa | 2.6V | 07:08:00 | 00:00:00 | 00:00:00 | |
| DL1NUX | 2026-08-31 01:50:22 | 49.53441 | 11.45364 | 57° | 62km/h | 5167m | -2.5m/s | -7°C | 7.1% | 542.2hPa | 2.6V | 07:08:23 | 03:18:24 | 00:00:00 | |
| DB0ND-19 | 2026-08-31 01:50:20 | 49.53466 | 11.45424 | 57° | 58km/h | 5160m | -2.4m/s | -6.9°C | 6.6% | 542.8hPa | 2.7V | 00:00:00 | 00:00:00 | 00:00:00 | |
| DO3MHA-11 | 2026-08-31 01:50:16 | 49.53432 | 11.45344 | 58° | 64km/h | 5170m | -2.4m/s | -6.9°C | 7.1% | 541.9hPa | 2.7V | 00:00:00 | 03:18:23 | 00:00:00 | |
| DF7PN | 2026-08-31 01:50:14 | 49.53416 | 11.45303 | 58° | 62km/h | 5175m | -2.3m/s | -7.0°C | 6.6% | 541.7hPa | 2.7V | 00:00:00 | 00:00:00 | 00:00:00 | |
| DL1NUX | 2026-08-31 01:50:12 | 49.53365 | 11.45149 | 67° | 62km/h | 5191m | -2.2m/s | -7°C | 6.2% | 540.5hPa | 2.7V | 07:08:33 | 03:18:14 | 00:00:00 | |
| DB0NH | 2026-08-31 01:50:11 | 49.53392 | 11.45239 | 63° | 55km/h | 5182m | -2.3m/s | -7.0°C | 7.1% | 541.1hPa | 2.6V | 00:00:00 | 03:18:18 | 00:00:00 | |
| DF9NV-10 | 2026-08-31 01:50:10 | 49.53392 | 11.45239 | 64° | 64km/h | 5182m | -2.4m/s | -7.1°C | 6.6% | 541.2hPa | 2.7V | 07:08:00 | 00:00:00 | 00:00:00 | |
| SO1NDE-10 | 2026-08-31 01:50:07 | 49.53365 | 11.45149 | 68° | 53km/h | 5191m | -2.2m/s | -6.9°C | 6.2% | 540.5hPa | 2.7V | 00:00:00 | 03:18:14 | 00:00:00 | |
| DO3MHA-11 | 2026-08-31 01:50:06 | 49.53359 | 11.45127 | 68° | 58km/h | 5193m | -2.0m/s | -7.0°C | 6.3% | 540.4hPa | 2.7V | 00:00:00 | 03:18:13 | 00:00:00 | |
| DO9HM | 2026-08-31 01:50:05 | 49.53359 | 11.45127 | 69° | 62km/h | 5193m | -2.1m/s | -7.0°C | 5.9% | 540.5hPa | 2.6V | 07:08:00 | 00:00:00 | 00:00:00 | |
| DK5PH-5 | 2026-08-31 01:50:04 | 49.53348 | 11.45082 | 70° | 53km/h | 5198m | -2.3m/s | -6.9°C | 5.8% | 540.0hPa | 2.6V | 07:08:00 | 03:18:11 | 00:00:00 | |
| DL1NUX | 2026-08-31 01:50:02 | 49.53316 | 11.44933 | 71° | 53km/h | 5214m | -2.4m/s | -7°C | 5.7% | 539.1hPa | 2.7V | 07:08:43 | 03:18:04 | 00:00:00 | |
| NBG1-10 | 2026-08-31 01:49:59 | 49.53324 | 11.44974 | 73° | 53km/h | 5209m | -2.2m/s | -7.0°C | 5.7% | 539.2hPa | 2.6V | 00:00:00 | 03:18:06 | 00:00:00 | |
| DB0UT-7 | 2026-08-31 01:49:58 | 49.53320 | 11.44953 | 73° | 51km/h | 5211m | -2.3m/s | -7.0°C | 5.6% | 539.1hPa | 2.6V | 00:00:00 | 00:00:00 | 00:00:00 | |
| DO3MHA-11 | 2026-08-31 01:49:56 | 49.53312 | 11.44914 | 72° | 49km/h | 5216m | -2.4m/s | -7.0°C | 5.7% | 538.9hPa | 2.6V | 00:00:00 | 03:18:03 | 00:00:00 | |
| DL1NUX | 2026-08-31 01:49:52 | 49.53267 | 11.44755 | 61° | 49km/h | 5237m | -2.3m/s | -7.2°C | 5.8% | 537.4hPa | 2.6V | 07:08:53 | 03:17:54 | 00:00:00 | |
| DB0ND-19 | 2026-08-31 01:49:49 | 49.53272 | 11.44772 | 62° | 47km/h | 5235m | -2.2m/s | -7.2°C | 5.4% | 537.5hPa | 2.7V | 00:00:00 | 00:00:00 | 00:00:00 | |
| DO3MHA-11 | 2026-08-31 01:49:46 | 49.53261 | 11.44738 | 62° | 51km/h | 5240m | -2.4m/s | -7.2°C | 5.8% | 537.2hPa | 2.7V | 00:00:00 | 03:17:53 | 00:00:00 | |
| DF7PN | 2026-08-31 01:49:44 | 49.53242 | 11.44689 | 58° | 47km/h | 5247m | -2.6m/s | -7.3°C | 5.4% | 536.8hPa | 2.7V | 00:00:00 | 00:00:00 | 00:00:00 | |
| DL1NUX | 2026-08-31 01:49:42 | 49.53199 | 11.44591 | 54° | 53km/h | 5261m | -2.5m/s | -7.5°C | 5.9% | 535.7hPa | 2.7V | 07:09:03 | 03:17:44 | 00:00:00 | |
| DB0NH | 2026-08-31 01:49:41 | 49.53229 | 11.44657 | 57° | 58km/h | 5252m | -2.3m/s | -7.3°C | 5.9% | 536.3hPa | 2.7V | 00:00:00 | 03:17:48 | 00:00:00 | |
| SO1NDE-10 | 2026-08-31 01:49:37 | 49.53199 | 11.44591 | 55° | 60km/h | 5261m | -2.5m/s | -7.4°C | 5.9% | 535.7hPa | 2.7V | 00:00:00 | 03:17:44 | 00:00:00 | |
| DO3MHA-11 | 2026-08-31 01:49:36 | 49.53191 | 11.44574 | 54° | 57km/h | 5264m | -2.3m/s | -7.4°C | 5.9% | 535.4hPa | 2.7V | 07:09:00 | 03:17:43 | 00:00:00 | |
| DK5PH-5 | 2026-08-31 01:49:34 | 49.53174 | 11.44540 | 52° | 60km/h | 5268m | -2.4m/s | -7.4°C | 5.9% | 535.2hPa | 2.7V | 00:00:00 | 03:17:41 | 00:00:00 | |
| DL1NUX | 2026-08-31 01:49:32 | 49.53111 | 11.44420 | 49° | 57km/h | 5286m | -2.6m/s | -7.6°C | 6.3% | 534.1hPa | 2.7V | 07:09:13 | 03:17:34 | 00:00:00 | |
| DL6DJ-15 | 2026-08-31 01:49:31 | 49.53148 | 11.44489 | 51° | 55km/h | 5276m | -2.6m/s | -7.5°C | 5.8% | 534.6hPa | 2.6V | 00:00:00 | 00:00:00 | 00:00:00 | |
| DB0UT-7 | 2026-08-31 01:49:28 | 49.53120 | 11.44437 | 51° | 60km/h | 5284m | -2.4m/s | -7.6°C | 6.3% | 534.1hPa | 2.6V | 00:00:00 | 03:17:35 | 00:00:00 | |
| DO3MHA-11 | 2026-08-31 01:49:26 | 49.53102 | 11.44403 | 50° | 62km/h | 5289m | -2.3m/s | -7.6°C | 6.2% | 533.8hPa | 2.6V | 00:00:00 | 03:17:33 | 00:00:00 | |
| DO9HM | 2026-08-31 01:49:24 | 49.53082 | 11.44368 | 51° | 58km/h | 5294m | -2.5m/s | -7.7°C | 5.9% | 533.5hPa | 2.6V | 07:09:00 | 00:00:00 | 00:00:00 | |
| DM7RM-13 | 2026-08-31 01:49:21 | 49.53063 | 11.44332 | 52° | 60km/h | 5299m | -2.4m/s | -7.7°C | 5.9% | 533.2hPa | 2.6V | 07:09:00 | 00:00:00 | 00:00:00 | |
| DL1NUX | 2026-08-31 01:49:19 | 49.53014 | 11.44234 | 55° | 66km/h | 5311m | -2.4m/s | -7.8°C | 6.5% | 532.3hPa | 2.6V | 07:09:23 | 03:17:24 | 00:00:00 | |
| DB0ND-19 | 2026-08-31 01:49:18 | 49.53014 | 11.44234 | 55° | 66km/h | 5311m | -2.4m/s | -7.9°C | 6.0% | 532.3hPa | 2.7V | 00:00:00 | 00:00:00 | 00:00:00 | |
| DO3MHA-11 | 2026-08-31 01:49:16 | 49.53004 | 11.44213 | 57° | 64km/h | 5314m | -2.3m/s | -7.8°C | 6.4% | 532.1hPa | 2.7V | 00:00:00 | 03:17:23 | 00:00:00 | |
| DF7PN | 2026-08-31 01:49:12 | 49.52971 | 11.44125 | 62° | 64km/h | 5323m | -2.4m/s | -8.0°C | 6.0% | 531.5hPa | 2.7V | 00:00:00 | 00:00:00 | 00:00:00 | |
| DB0NH | 2026-08-31 01:49:11 | 49.52963 | 11.44103 | 64° | 57km/h | 5325m | -2.2m/s | -8.0°C | 6.5% | 531.3hPa | 2.7V | 07:09:00 | 03:17:18 | 00:00:00 | |
| DL1NUX | 2026-08-31 01:49:09 | 49.52937 | 11.44016 | 65° | 60km/h | 5334m | -2.2m/s | -8.1°C | 6.5% | 530.8hPa | 2.7V | 07:09:33 | 03:17:14 | 00:00:00 | |
| SO1NDE-10 | 2026-08-31 01:49:07 | 49.52936 | 11.44016 | 66° | 58km/h | 5334m | -2.2m/s | -8.0°C | 6.5% | 530.7hPa | 2.7V | 07:09:00 | 03:17:14 | 00:00:00 | |
| DO3MHA-11 | 2026-08-31 01:49:06 | 49.52930 | 11.43995 | 66° | 57km/h | 5337m | -2.4m/s | -8.1°C | 6.5% | 530.6hPa | 2.7V | 00:00:00 | 03:17:13 | 00:00:00 | |
| DK5PH-5 | 2026-08-31 01:49:04 | 49.52918 | 11.43952 | 67° | 58km/h | 5342m | -2.6m/s | -8.1°C | 6.6% | 530.2hPa | 2.7V | 00:00:00 | 03:17:11 | 00:00:00 | |
| DM7RM-13 | 2026-08-31 01:49:01 | 49.52906 | 11.43910 | 68° | 58km/h | 5346m | -2.3m/s | -8.2°C | 6.2% | 529.9hPa | 2.7V | 07:10:00 | 00:00:00 | 00:00:00 | |
| DL6DJ-15 | 2026-08-31 01:49:00 | 49.52890 | 11.43850 | 65° | 53km/h | 5354m | -2.4m/s | -8.2°C | 6.3% | 529.3hPa | 2.7V | 00:00:00 | 00:00:00 | 00:00:00 | |
| DL1NUX | 2026-08-31 01:48:59 | 49.52878 | 11.43813 | 63° | 53km/h | 5358m | -2.2m/s | -8.3°C | 6.7% | 529.1hPa | 2.7V | 07:09:43 | 03:17:04 | 00:00:00 | |
| DB0UT-7 | 2026-08-31 01:48:58 | 49.52884 | 11.43831 | 65° | 60km/h | 5356m | -2.3m/s | -8.2°C | 6.7% | 529.1hPa | 2.6V | 00:00:00 | 00:00:00 | 00:00:00 | |
| DO3MHA-11 | 2026-08-31 01:48:56 | 49.52872 | 11.43795 | 63° | 53km/h | 5361m | -2.4m/s | -8.3°C | 6.7% | 528.9hPa | 2.6V | 00:00:00 | 03:17:03 | 00:00:00 | |
| NBG1-10 | 2026-08-31 01:48:53 | 49.52853 | 11.43743 | 58° | 62km/h | 5368m | -2.3m/s | -8.3°C | 6.8% | 528.5hPa | 2.6V | 00:00:00 | 03:17:00 | 00:00:00 | |
| DL1NUX | 2026-08-31 01:48:49 | 49.52805 | 11.43642 | 51° | 58km/h | 5380m | -2.1m/s | -8.5°C | 6.9% | 527.6hPa | 2.6V | 07:09:53 | 03:16:54 | 00:00:00 | |
| DB0ND-19 | 2026-08-31 01:48:47 | 49.52804 | 11.43642 | 51° | 58km/h | 5380m | -2.1m/s | -8.5°C | 6.5% | 527.6hPa | 2.6V | 00:00:00 | 00:00:00 | 00:00:00 | |
| DO3MHA-11 | 2026-08-31 01:48:46 | 49.52795 | 11.43624 | 52° | 64km/h | 5382m | -2.0m/s | -8.5°C | 6.9% | 527.4hPa | 2.6V | 00:00:00 | 03:16:53 | 00:00:00 | |
| DB0NH | 2026-08-31 01:48:41 | 49.52747 | 11.43529 | 53° | 64km/h | 5393m | -2.0m/s | -8.6°C | 7.1% | 526.8hPa | 2.6V | 00:00:00 | 03:16:48 | 00:00:00 | |
| DL1NUX | 2026-08-31 01:48:39 | 49.52708 | 11.43445 | 57° | 68km/h | 5402m | -2.2m/s | -8.7°C | 7.1% | 526.1hPa | 2.7V | 07:10:03 | 03:16:44 | 00:00:00 | |
| DO9HM | 2026-08-31 01:48:38 | 49.52727 | 11.43488 | 56° | 66km/h | 5398m | -2.0m/s | -8.6°C | 6.6% | 526.5hPa | 2.7V | 07:10:00 | 00:00:00 | 00:00:00 | |
| SO1NDE-10 | 2026-08-31 01:48:37 | 49.52708 | 11.43445 | 58° | 62km/h | 5402m | -2.1m/s | -8.6°C | 7.1% | 526.1hPa | 2.7V | 00:00:00 | 03:16:44 | 00:00:00 | |
| DO3MHA-11 | 2026-08-31 01:48:36 | 49.52699 | 11.43423 | 60° | 68km/h | 5404m | -2.4m/s | -8.6°C | 7.1% | 526.0hPa | 2.7V | 00:00:00 | 03:16:43 | 00:00:00 | |
| DK5PH-5 | 2026-08-31 01:48:34 | 49.52682 | 11.43377 | 61° | 60km/h | 5409m | -2.5m/s | -8.7°C | 7.2% | 525.6hPa | 2.6V | 00:00:00 | 03:16:41 | 00:00:00 | |
| DL1NUX | 2026-08-31 01:48:32 | 49.52630 | 11.43213 | 66° | 66km/h | 5426m | -2.4m/s | -8.7°C | 8.7% | 524.5hPa | 2.7V | 07:10:13 | 03:16:34 | 00:00:00 | |
| DL6DJ-15 | 2026-08-31 01:48:29 | 49.52637 | 11.43237 | 66° | 66km/h | 5423m | -2.3m/s | -8.6°C | 8.1% | 524.7hPa | 2.6V | 00:00:00 | 00:00:00 | 00:00:00 | |
| DB0UT-7 | 2026-08-31 01:48:28 | 49.52637 | 11.43237 | 67° | 57km/h | 5424m | -2.2m/s | -8.6°C | 8.6% | 524.7hPa | 2.6V | 07:10:00 | 03:16:35 | 00:00:00 | |
| DO3MHA-11 | 2026-08-31 01:48:26 | 49.52624 | 11.43190 | 68° | 64km/h | 5428m | -2.3m/s | -8.6°C | 8.7% | 524.3hPa | 2.6V | 00:00:00 | 03:16:33 | 00:00:00 | |
| DL1NUX | 2026-08-31 01:48:22 | 49.52573 | 11.42982 | 70° | 58km/h | 5450m | -2.4m/s | -8.9°C | 8.9% | 522.9hPa | 2.6V | 07:10:23 | 03:16:24 | 00:00:00 | |
| NBG1-10 | 2026-08-31 01:48:20 | 49.52589 | 11.43049 | 71° | 57km/h | 5443m | -2.3m/s | -8.8°C | 8.8% | 523.4hPa | 2.7V | 00:00:00 | 03:16:27 | 00:00:00 | |
| DO9HM | 2026-08-31 01:48:17 | 49.52578 | 11.43004 | 72° | 60km/h | 5447m | -2.1m/s | -8.9°C | 8.3% | 523.1hPa | 2.7V | 07:10:00 | 00:00:00 | 00:00:00 | |
| DO3MHA-11 | 2026-08-31 01:48:16 | 49.52569 | 11.42961 | 71° | 53km/h | 5452m | -2.1m/s | -8.8°C | 8.8% | 522.7hPa | 2.7V | 07:10:00 | 03:16:23 | 00:00:00 | |
| DL1NUX | 2026-08-31 01:48:12 | 49.52526 | 11.42789 | 66° | 49km/h | 5475m | -2.7m/s | -9.1°C | 9.8% | 521.2hPa | 2.7V | 07:10:33 | 03:16:14 | 00:00:00 | |
| DB0NH | 2026-08-31 01:48:11 | 49.52545 | 11.42862 | 70° | 60km/h | 5464m | -2.7m/s | -9.0°C | 9.7% | 521.8hPa | 2.7V | 00:00:00 | 03:16:18 | 00:00:00 | |
| DF7PN | 2026-08-31 01:48:10 | 49.52540 | 11.42843 | 69° | 49km/h | 5467m | -2.9m/s | -9.1°C | 9.2% | 521.8hPa | 2.7V | 00:00:00 | 00:00:00 | 00:00:00 | |
| SO1NDE-10 | 2026-08-31 01:48:07 | 49.52526 | 11.42788 | 67° | 62km/h | 5475m | -2.7m/s | -9.1°C | 9.8% | 521.1hPa | 2.7V | 00:00:00 | 03:16:14 | 00:00:00 | |
| DO3MHA-11 | 2026-08-31 01:48:06 | 49.52521 | 11.42771 | 66° | 53km/h | 5477m | -2.6m/s | -9.1°C | 10.0% | 521.0hPa | 2.7V | 00:00:00 | 03:16:13 | 00:00:00 | |
| DF9NV-10 | 2026-08-31 01:48:05 | 49.52521 | 11.42771 | 66° | 49km/h | 5477m | -2.6m/s | -9.1°C | 9.4% | 521.0hPa | 2.7V | 07:11:00 | 00:00:00 | 00:00:00 | |
| DK5PH-5 | 2026-08-31 01:48:04 | 49.52510 | 11.42736 | 63° | 64km/h | 5482m | -2.3m/s | -9.1°C | 9.8% | 520.6hPa | 2.7V | 00:00:00 | 03:16:11 | 00:00:00 | |
| DL1NUX | 2026-08-31 01:48:02 | 49.52460 | 11.42612 | 58° | 60km/h | 5499m | -2.4m/s | -9.4°C | 10.2% | 519.6hPa | 2.7V | 07:10:43 | 03:16:04 | 00:00:00 | |
| DL6DJ-15 | 2026-08-31 01:47:58 | 49.52460 | 11.42612 | 58° | 60km/h | 5499m | -2.4m/s | -9.4°C | 9.6% | 519.6hPa | 2.6V | 00:00:00 | 00:00:00 | 00:00:00 | |
| DO3MHA-11 | 2026-08-31 01:47:56 | 49.52452 | 11.42591 | 60° | 66km/h | 5501m | -2.2m/s | -9.3°C | 10.3% | 519.4hPa | 2.6V | 00:00:00 | 03:16:03 | 00:00:00 | |
| DL1NUX | 2026-08-31 01:47:52 | 49.52382 | 11.42388 | 63° | 68km/h | 5523m | -2.5m/s | -9.6°C | 10.6% | 518hPa | 2.6V | 07:10:53 | 03:15:54 | 00:00:00 | |
| DB0ND-19 | 2026-08-31 01:47:45 | 49.52359 | 11.42316 | 65° | 68km/h | 5531m | -2.8m/s | -9.7°C | 10.9% | 517.5hPa | 2.7V | 00:00:00 | 00:00:00 | 00:00:00 | |
| DL1NUX | 2026-08-31 01:47:42 | 49.52312 | 11.42142 | 69° | 69km/h | 5549m | -2.5m/s | -9.8°C | 11.4% | 516.3hPa | 2.7V | 07:11:03 | 03:15:44 | 00:00:00 | |
| DB0NH | 2026-08-31 01:47:41 | 49.52338 | 11.42242 | 68° | 68km/h | 5539m | -2.4m/s | -9.7°C | 11.9% | 516.8hPa | 2.6V | 00:00:00 | 03:15:48 | 00:00:00 | |
| DF7PN | 2026-08-31 01:47:39 | 49.52325 | 11.42192 | 68° | 68km/h | 5544m | -2.3m/s | -9.8°C | 11.1% | 516.6hPa | 2.6V | 00:00:00 | 00:00:00 | 00:00:00 | |
| SO1NDE-10 | 2026-08-31 01:47:37 | 49.52312 | 11.42142 | 70° | 66km/h | 5549m | -2.4m/s | -9.8°C | 11.4% | 516.2hPa | 2.6V | 00:00:00 | 03:15:44 | 00:00:00 | |
| DO3MHA-11 | 2026-08-31 01:47:36 | 49.52306 | 11.42117 | 70° | 69km/h | 5551m | -2.5m/s | -9.8°C | 11.5% | 516.0hPa | 2.6V | 00:00:00 | 03:15:43 | 00:00:00 | |
| DK5PH-5 | 2026-08-31 01:47:34 | 49.52294 | 11.42067 | 70° | 66km/h | 5557m | -2.7m/s | -9.9°C | 11.5% | 515.8hPa | 2.7V | 00:00:00 | 03:15:41 | 00:00:00 | |
| DL1NUX | 2026-08-31 01:47:32 | 49.52252 | 11.41890 | 70° | 69km/h | 5575m | -2.5m/s | -10.1°C | 11.7% | 514.6hPa | 2.7V | 07:11:13 | 03:15:34 | 00:00:00 | |
| DO3MHA-11 | 2026-08-31 01:47:26 | 49.52247 | 11.41864 | 71° | 68km/h | 5578m | -2.6m/s | -10.1°C | 11.7% | 514.3hPa | 2.7V | 00:00:00 | 03:15:33 | 00:00:00 | |
| DF9NV-10 | 2026-08-31 01:47:25 | 49.52246 | 11.41864 | 72° | 69km/h | 5578m | -2.7m/s | -10.1°C | 10.9% | 514.4hPa | 2.7V | 07:11:00 | 00:00:00 | 00:00:00 | |
| DL1NUX | 2026-08-31 01:47:22 | 49.52201 | 11.41639 | 75° | 66km/h | 5601m | -2.4m/s | -10.3°C | 12.6% | 512.8hPa | 2.7V | 07:11:23 | 03:15:24 | 00:00:00 | |
| DM7RM-13 | 2026-08-31 01:47:18 | 49.52210 | 11.41689 | 75° | 68km/h | 5596m | -2.6m/s | -10.3°C | 11.2% | 513.2hPa | 2.6V | 07:12:00 | 00:00:00 | 00:00:00 | |
| DO9HM | 2026-08-31 01:47:17 | 49.52197 | 11.41614 | 77° | 66km/h | 5603m | -2.4m/s | -10.4°C | 12.4% | 512.7hPa | 2.6V | 07:12:00 | 00:00:00 | 00:00:00 | |
| DO3MHA-11 | 2026-08-31 01:47:16 | 49.52197 | 11.41614 | 76° | 62km/h | 5603m | -2.4m/s | -10.3°C | 13.2% | 512.6hPa | 2.6V | 00:00:00 | 03:15:23 | 00:00:00 | |
| DB0ND-19 | 2026-08-31 01:47:14 | 49.52186 | 11.41541 | 77° | 62km/h | 5611m | -2.4m/s | -10.4°C | 12.7% | 512.1hPa | 2.6V | 00:00:00 | 00:00:00 | 00:00:00 | |
| DL1NUX | 2026-08-31 01:47:12 | 49.52166 | 11.41404 | 78° | 57km/h | 5625m | -2.6m/s | -10.6°C | 13% | 511.1hPa | 2.6V | 07:11:33 | 03:15:14 | 00:00:00 | |
| DB0NH | 2026-08-31 01:47:11 | 49.52179 | 11.41494 | 78° | 55km/h | 5616m | -2.2m/s | -10.4°C | 13.3% | 511.8hPa | 2.7V | 00:00:00 | 03:15:18 | 00:00:00 | |
| DF7PN | 2026-08-31 01:47:08 | 49.52170 | 11.41426 | 77° | 58km/h | 5623m | -2.4m/s | -10.6°C | 12.3% | 511.3hPa | 2.6V | 00:00:00 | 00:00:00 | 00:00:00 | |
| SO1NDE-10 | 2026-08-31 01:47:07 | 49.52166 | 11.41404 | 79° | 57km/h | 5626m | -2.6m/s | -10.5°C | 13.0% | 511.1hPa | 2.6V | 00:00:00 | 03:15:14 | 00:00:00 | |
| DO3MHA-11 | 2026-08-31 01:47:06 | 49.52163 | 11.41382 | 78° | 55km/h | 5628m | -2.5m/s | -10.5°C | 13.0% | 511.0hPa | 2.7V | 00:00:00 | 03:15:13 | 00:00:00 | |
| DK5PH-5 | 2026-08-31 01:47:04 | 49.52157 | 11.41339 | 78° | 57km/h | 5633m | -2.5m/s | -10.6°C | 13.6% | 510.6hPa | 2.7V | 00:00:00 | 03:15:11 | 00:00:00 | |
| DL1NUX | 2026-08-31 01:47:02 | 49.52134 | 11.41197 | 72° | 51km/h | 5650m | -2.6m/s | -10.8°C | 16.6% | 509.5hPa | 2.7V | 07:11:43 | 03:15:04 | 00:00:00 | |
| DM7RM-13 | 2026-08-31 01:46:58 | 49.52141 | 11.41236 | 76° | 53km/h | 5646m | -2.5m/s | -10.8°C | 15.3% | 509.8hPa | 2.7V | 07:12:00 | 00:00:00 | 00:00:00 | |
| DO3MHA-11 | 2026-08-31 01:46:56 | 49.52130 | 11.41178 | 71° | 53km/h | 5653m | -2.5m/s | -10.7°C | 17.3% | 509.3hPa | 2.7V | 07:11:00 | 03:15:03 | 00:00:00 | |
| DO9HM | 2026-08-31 01:46:55 | 49.52125 | 11.41158 | 71° | 53km/h | 5656m | -2.5m/s | -10.8°C | 17.3% | 509.1hPa | 2.7V | 07:12:00 | 00:00:00 | 00:00:00 | |
| DL1NUX | 2026-08-31 01:46:52 | 49.52081 | 11.41006 | 63° | 55km/h | 5676m | -2.6m/s | -11°C | 20.7% | 507.9hPa | 2.7V | 07:11:53 | 03:14:54 | 00:00:00 | |
| DO3MHA-11 | 2026-08-31 01:46:46 | 49.52074 | 11.40987 | 64° | 60km/h | 5678m | -2.5m/s | -11.0°C | 20.9% | 507.6hPa | 2.7V | 00:00:00 | 03:14:53 | 00:00:00 | |
| DF9NV-10 | 2026-08-31 01:46:45 | 49.52068 | 11.40968 | 64° | 57km/h | 5681m | -2.7m/s | -11.1°C | 19.8% | 507.6hPa | 2.7V | 07:12:00 | 00:00:00 | 00:00:00 | |
| DB0ND-19 | 2026-08-31 01:46:43 | 49.52047 | 11.40908 | 62° | 58km/h | 5689m | -2.4m/s | -11.1°C | 20.5% | 507.0hPa | 2.7V | 00:00:00 | 00:00:00 | 00:00:00 | |
| DL1NUX | 2026-08-31 01:46:42 | 49.52012 | 11.40798 | 65° | 66km/h | 5702m | -2.5m/s | -11.2°C | 25.6% | 506.1hPa | 2.7V | 07:12:03 | 03:14:44 | 00:00:00 | |
| NBG1-10 | 2026-08-31 01:46:41 | 49.52040 | 11.40887 | 63° | 64km/h | 5692m | -2.6m/s | -11.1°C | 22.0% | 506.8hPa | 2.7V | 00:00:00 | 03:14:48 | 00:00:00 | |
| SO1NDE-10 | 2026-08-31 01:46:37 | 49.52012 | 11.40798 | 66° | 64km/h | 5702m | -2.5m/s | -11.2°C | 25.6% | 506.1hPa | 2.7V | 00:00:00 | 03:14:44 | 00:00:00 | |
| DO3MHA-11 | 2026-08-31 01:46:36 | 49.52005 | 11.40774 | 66° | 69km/h | 5705m | -2.6m/s | -11.2°C | 26.3% | 505.9hPa | 2.7V | 00:00:00 | 03:14:43 | 00:00:00 | |
| DO9HM | 2026-08-31 01:46:35 | 49.51991 | 11.40726 | 68° | 68km/h | 5710m | -2.7m/s | -11.3°C | 25.2% | 505.6hPa | 2.6V | 07:12:00 | 00:00:00 | 00:00:00 | |
| DK5PH-5 | 2026-08-31 01:46:34 | 49.51991 | 11.40726 | 68° | 62km/h | 5710m | -2.7m/s | -11.3°C | 26.7% | 505.5hPa | 2.6V | 00:00:00 | 03:14:41 | 00:00:00 | |
| DL1NUX | 2026-08-31 01:46:32 | 49.51948 | 11.40550 | 72° | 69km/h | 5728m | -2.6m/s | -11.5°C | 30.8% | 504.3hPa | 2.6V | 07:12:13 | 03:14:34 | 00:00:00 | |
| DO3MHA-11 | 2026-08-31 01:46:26 | 49.51943 | 11.40524 | 74° | 66km/h | 5731m | -2.6m/s | -11.5°C | 31.1% | 504.2hPa | 2.6V | 00:00:00 | 03:14:33 | 00:00:00 | |
| DF9NV-10 | 2026-08-31 01:46:24 | 49.51938 | 11.40498 | 75° | 69km/h | 5734m | -2.6m/s | -11.5°C | 29.3% | 504.0hPa | 2.6V | 07:12:00 | 00:00:00 | 00:00:00 | |
| DL1NUX | 2026-08-31 01:46:18 | 49.51908 | 11.40300 | 78° | 60km/h | 5754m | -2.7m/s | -11.7°C | 33.5% | 502.6hPa | 2.6V | 07:12:23 | 03:14:24 | 00:00:00 | |
| DK7TD | 2026-08-31 01:46:17 | 49.51908 | 11.40300 | 79° | 60km/h | 5754m | -2.7m/s | 0°C | 0% | 0hPa | 2.6V | 18:12:15 | 03:14:24 | 00:00:00 | |
| DO3MHA-11 | 2026-08-31 01:46:16 | 49.51905 | 11.40277 | 78° | 55km/h | 5757m | -2.6m/s | -11.7°C | 34.0% | 502.4hPa | 2.5V | 00:00:00 | 03:14:23 | 00:00:00 | |
| DB0UT-7 | 2026-08-31 01:46:15 | 49.51902 | 11.40256 | 77° | 66km/h | 5760m | -2.6m/s | -11.7°C | 34.7% | 502.3hPa | 2.5V | 00:00:00 | 00:00:00 | 00:00:00 | |
| DB0ND-19 | 2026-08-31 01:46:12 | 49.51885 | 11.40175 | 68° | 53km/h | 5770m | -2.6m/s | -11.8°C | 45.6% | 501.6hPa | 2.5V | 00:00:00 | 00:00:00 | 00:00:00 | |
| DB0NH | 2026-08-31 01:46:11 | 49.51885 | 11.40175 | 69° | 62km/h | 5770m | -2.6m/s | -11.8°C | 48.3% | 501.6hPa | 2.5V | 00:00:00 | 03:14:18 | 00:00:00 | |
| NBG1-10 | 2026-08-31 01:46:08 | 49.51869 | 11.40117 | 65° | 66km/h | 5778m | -2.5m/s | -11.8°C | 57.7% | 501.1hPa | 2.5V | 07:12:00 | 03:14:15 | 00:00:00 | |
| SO1NDE-10 | 2026-08-31 01:46:07 | 49.51863 | 11.40098 | 65° | 66km/h | 5780m | -2.5m/s | -11.8°C | 58.2% | 501.0hPa | 2.5V | 00:00:00 | 03:14:14 | 00:00:00 | |
| DO3MHA-11 | 2026-08-31 01:46:06 | 49.51856 | 11.40079 | 63° | 58km/h | 5783m | -2.6m/s | -11.8°C | 57.1% | 500.7hPa | 2.5V | 00:00:00 | 03:14:13 | 00:00:00 | |
| DK5PH-5 | 2026-08-31 01:46:04 | 49.51843 | 11.40039 | 62° | 68km/h | 5788m | -2.3m/s | -11.8°C | 56.8% | 500.4hPa | 2.7V | 07:12:00 | 03:14:11 | 00:00:00 | |
| DF9NV-10 | 2026-08-31 01:46:03 | 49.51843 | 11.40039 | 63° | 58km/h | 5788m | -2.4m/s | -11.9°C | 53.8% | 500.5hPa | 2.7V | 07:12:00 | 00:00:00 | 00:00:00 | |
| DL1NUX | 2026-08-31 01:46:02 | 49.51792 | 11.39897 | 60° | 62km/h | 5806m | -2.7m/s | -12°C | 63.3% | 499.2hPa | 2.7V | 07:12:43 | 03:14:04 | 00:00:00 | |
| DL6DJ-15 | 2026-08-31 01:45:53 | 49.51760 | 11.39811 | 60° | 64km/h | 5816m | -2.5m/s | -12.1°C | 61.6% | 498.6hPa | 2.7V | 00:00:00 | 00:00:00 | 00:00:00 | |
| DL1NUX | 2026-08-31 01:45:52 | 49.51709 | 11.39675 | 61° | 69km/h | 5831m | -2.5m/s | -12.2°C | 67.8% | 497.6hPa | 2.7V | 07:12:53 | 03:13:54 | 00:00:00 | |
| DK7TD | 2026-08-31 01:45:51 | 49.51743 | 11.39767 | 60° | 66km/h | 5821m | -2.5m/s | 0°C | 0% | 0hPa | 2.6V | 18:12:15 | 03:13:58 | 00:00:00 | |
| DO3MHA-11 | 2026-08-31 01:45:46 | 49.51701 | 11.39651 | 62° | 73km/h | 5834m | -2.3m/s | -12.1°C | 67.9% | 497.4hPa | 2.7V | 00:00:00 | 03:13:53 | 00:00:00 | |
| DL1NUX | 2026-08-31 01:45:43 | 49.51631 | 11.39422 | 68° | 75km/h | 5858m | -2.6m/s | -12.3°C | 68.2% | 496.1hPa | 2.7V | 07:13:03 | 03:13:44 | 00:00:00 | |
| DK7TD | 2026-08-31 01:45:39 | 49.51646 | 11.39475 | 67° | 73km/h | 5853m | -2.7m/s | 0°C | 0% | 0hPa | 2.5V | 18:12:15 | 03:13:46 | 00:00:00 | |
| SO1NDE-10 | 2026-08-31 01:45:37 | 49.51631 | 11.39422 | 69° | 66km/h | 5858m | -2.5m/s | -12.3°C | 68.2% | 496.0hPa | 2.7V | 00:00:00 | 03:13:44 | 00:00:00 | |
| DO3MHA-11 | 2026-08-31 01:45:36 | 49.51624 | 11.39395 | 70° | 68km/h | 5860m | -2.5m/s | -12.3°C | 67.4% | 495.8hPa | 2.6V | 07:13:00 | 03:13:43 | 00:00:00 | |
| NBG1-10 | 2026-08-31 01:45:35 | 49.51618 | 11.39367 | 71° | 66km/h | 5863m | -2.4m/s | -12.3°C | 67.7% | 495.5hPa | 2.7V | 00:00:00 | 03:13:42 | 00:00:00 | |
| DK5PH-5 | 2026-08-31 01:45:34 | 49.51612 | 11.39340 | 72° | 66km/h | 5866m | -2.4m/s | -12.4°C | 68.4% | 495.5hPa | 2.6V | 00:00:00 | 03:13:41 | 00:00:00 | |
| DL1NUX | 2026-08-31 01:45:32 | 49.51579 | 11.39172 | 66° | 57km/h | 5882m | -2m/s | -12.5°C | 68.3% | 494.4hPa | 2.6V | 07:13:13 | 03:13:34 | 00:00:00 | |
| DO9HM | 2026-08-31 01:45:32 | 49.51601 | 11.39286 | 76° | 69km/h | 5870m | -2.4m/s | -12.5°C | 65.6% | 495.1hPa | 2.5V | 07:13:00 | 00:00:00 | 00:00:00 | |
| DO3MHA-11 | 2026-08-31 01:45:26 | 49.51572 | 11.39152 | 63° | 62km/h | 5884m | -2.2m/s | -12.5°C | 68.3% | 494.2hPa | 2.5V | 00:00:00 | 03:13:33 | 00:00:00 | |
| DL1NUX | 2026-08-31 01:45:22 | 49.51497 | 11.38967 | 56° | 66km/h | 5906m | -2.7m/s | -12.7°C | 68.2% | 492.8hPa | 2.5V | 07:13:23 | 03:13:24 | 00:00:00 | |
| DO3MHA-11 | 2026-08-31 01:45:16 | 49.51487 | 11.38946 | 57° | 68km/h | 5909m | -2.5m/s | -12.7°C | 68.3% | 492.6hPa | 2.6V | 00:00:00 | 03:13:23 | 00:00:00 | |
| DM7RM-13 | 2026-08-31 01:45:15 | 49.51487 | 11.38946 | 57° | 66km/h | 5909m | -2.6m/s | -12.7°C | 64.6% | 492.6hPa | 2.6V | 07:13:00 | 00:00:00 | 00:00:00 | |
| DL1NUX | 2026-08-31 01:45:12 | 49.51400 | 11.38750 | 55° | 71km/h | 5932m | -2.6m/s | -12.9°C | 68.9% | 491.1hPa | 2.6V | 07:13:33 | 03:13:14 | 00:00:00 | |
| DB0NH | 2026-08-31 01:45:11 | 49.51440 | 11.38838 | 56° | 73km/h | 5922m | -2.4m/s | -12.8°C | 68.7% | 491.7hPa | 2.5V | 07:13:00 | 03:13:18 | 00:00:00 | |
| DB0ND-19 | 2026-08-31 01:45:10 | 49.51420 | 11.38795 | 55° | 68km/h | 5927m | -2.6m/s | -12.9°C | 65.3% | 491.4hPa | 2.5V | 00:00:00 | 00:00:00 | 00:00:00 | |
| SO1NDE-10 | 2026-08-31 01:45:07 | 49.51400 | 11.38750 | 56° | 71km/h | 5932m | -2.6m/s | -12.9°C | 68.9% | 491.0hPa | 2.5V | 07:13:00 | 03:13:14 | 00:00:00 | |
| DO3MHA-11 | 2026-08-31 01:45:06 | 49.51389 | 11.38727 | 56° | 73km/h | 5934m | -2.4m/s | -12.9°C | 68.9% | 490.9hPa | 2.5V | 00:00:00 | 03:13:13 | 00:00:00 | |
| DK5PH-5 | 2026-08-31 01:45:04 | 49.51369 | 11.38681 | 56° | 73km/h | 5940m | -2.4m/s | -12.9°C | 68.8% | 490.6hPa | 2.6V | 00:00:00 | 03:13:11 | 00:00:00 | |
| DB0UT-7 | 2026-08-31 01:45:02 | 49.51348 | 11.38634 | 56° | 73km/h | 5945m | -2.4m/s | -12.8°C | 65.9% | 490.2hPa | 2.6V | 00:00:00 | 03:13:09 | 00:00:00 | |
| DF9NV-10 | 2026-08-31 01:45:01 | 49.51348 | 11.38634 | 57° | 73km/h | 5945m | -2.5m/s | -12.9°C | 62.3% | 490.3hPa | 2.6V | 07:13:00 | 00:00:00 | 00:00:00 | |
| DL1NUX | 2026-08-31 01:44:58 | 49.51255 | 11.38410 | 60° | 78km/h | 5967m | -2.2m/s | -12.9°C | 64.4% | 488.9hPa | 2.6V | 07:13:47 | 03:13:00 | 00:00:00 | |
| DO3MHA-11 | 2026-08-31 01:44:56 | 49.51285 | 11.38487 | 58° | 77km/h | 5959m | -2.3m/s | -12.8°C | 64.5% | 489.3hPa | 2.6V | 00:00:00 | 03:13:03 | 00:00:00 | |
| DM7RM-13 | 2026-08-31 01:44:54 | 49.51275 | 11.38462 | 60° | 77km/h | 5962m | -2.4m/s | -12.9°C | 61.0% | 489.2hPa | 2.6V | 07:13:00 | 00:00:00 | 00:00:00 | |
| DO9HM | 2026-08-31 01:44:51 | 49.51236 | 11.38356 | 64° | 77km/h | 5972m | -2.3m/s | -12.9°C | 60.7% | 488.6hPa | 2.6V | 07:13:00 | 00:00:00 | 00:00:00 | |
| DL1NUX | 2026-08-31 01:44:47 | 49.51173 | 11.38146 | 66° | 71km/h | 5990m | -2.5m/s | -13°C | 63.1% | 487.5hPa | 2.6V | 07:13:57 | 03:12:50 | 00:00:00 | |
| DO3MHA-11 | 2026-08-31 01:44:46 | 49.51195 | 11.38224 | 66° | 71km/h | 5983m | -2.4m/s | -13.0°C | 64.5% | 487.8hPa | 2.5V | 00:00:00 | 03:12:53 | 00:00:00 | |
| DB0NH | 2026-08-31 01:44:41 | 49.51158 | 11.38096 | 67° | 66km/h | 5995m | -2.4m/s | -13.0°C | 63.7% | 487.1hPa | 2.5V | 00:00:00 | 03:12:48 | 00:00:00 | |
| DF9NV-10 | 2026-08-31 01:44:40 | 49.51158 | 11.38096 | 68° | 69km/h | 5995m | -2.4m/s | -13.1°C | 60.3% | 487.2hPa | 2.5V | 07:14:00 | 00:00:00 | 00:00:00 | |
| DB0ND-19 | 2026-08-31 01:44:39 | 49.51138 | 11.38023 | 66° | 68km/h | 6002m | -2.2m/s | -13.1°C | 59.2% | 486.7hPa | 2.5V | 00:00:00 | 00:00:00 | 00:00:00 | |
| DL1NUX | 2026-08-31 01:44:37 | 49.51103 | 11.37904 | 64° | 66km/h | 6014m | -2.4m/s | -13.2°C | 62.1% | 486hPa | 2.5V | 07:14:07 | 03:12:40 | 00:00:00 | |
| DO3MHA-11 | 2026-08-31 01:44:36 | 49.51124 | 11.37975 | 66° | 64km/h | 6007m | -2.3m/s | -13.1°C | 62.7% | 486.3hPa | 2.6V | 00:00:00 | 03:12:43 | 00:00:00 | |
| DK5PH-5 | 2026-08-31 01:44:34 | 49.51110 | 11.37927 | 66° | 66km/h | 6012m | -2.4m/s | -13.1°C | 62.7% | 486.1hPa | 2.6V | 00:00:00 | 03:12:41 | 00:00:00 | |
| NBG1-10 | 2026-08-31 01:44:33 | 49.51073 | 11.37814 | 62° | 68km/h | 6024m | -2.2m/s | -13.1°C | 61.0% | 485.3hPa | 2.6V | 00:00:00 | 03:12:36 | 00:00:00 | |
| SO1NDE-10 | 2026-08-31 01:44:32 | 49.51073 | 11.37814 | 62° | 68km/h | 6024m | -2.2m/s | -13.1°C | 61.0% | 485.3hPa | 2.6V | 00:00:00 | 03:12:36 | 00:00:00 | |
| DL1NUX | 2026-08-31 01:44:30 | 49.51023 | 11.37690 | 55° | 62km/h | 6038m | -2.5m/s | -13.3°C | 61.4% | 484.4hPa | 2.6V | 07:14:17 | 03:12:30 | 00:00:00 | |
| DO3MHA-11 | 2026-08-31 01:44:27 | 49.51049 | 11.37751 | 58° | 64km/h | 6031m | -2.4m/s | -13.2°C | 61.2% | 484.8hPa | 2.5V | 00:00:00 | 03:12:33 | 00:00:00 | |
| DF3TZ-5 | 2026-08-31 01:44:22 | 49.50995 | 11.37630 | 53° | 64km/h | 6045m | -2.5m/s | -13.3°C | 57.0% | 483.9hPa | 2.5V | 00:00:00 | 00:00:00 | 00:00:00 | |
| DL6DJ-15 | 2026-08-31 01:44:20 | 49.50995 | 11.37630 | 53° | 64km/h | 6045m | -2.5m/s | -13.3°C | 57.0% | 483.9hPa | 2.5V | 00:00:00 | 00:00:00 | 00:00:00 | |
| DJTTGO | 2026-08-31 01:44:19 | 49.50995 | 11.37630 | 54° | 64km/h | 6045m | -2.5m/s | -13.3°C | 57.0% | 483.9hPa | 2.5V | 00:00:00 | 00:00:00 | 00:00:00 | |
| DL1NUX | 2026-08-31 01:44:16 | 49.50923 | 11.37490 | 49° | 68km/h | 6062m | -2.2m/s | -13.3°C | 58.7% | 482.9hPa | 2.5V | 07:14:27 | 03:12:20 | 00:00:00 | |
| DO3MHA-11 | 2026-08-31 01:44:16 | 49.50955 | 11.37550 | 52° | 68km/h | 6055m | -2.3m/s | -13.3°C | 59.6% | 483.3hPa | 2.6V | 07:14:00 | 03:12:23 | 00:00:00 | |
| DM7RM-13 | 2026-08-31 01:44:14 | 49.50945 | 11.37530 | 52° | 66km/h | 6057m | -2.4m/s | -13.3°C | 56.0% | 483.2hPa | 2.6V | 07:14:00 | 00:00:00 | 00:00:00 | |
| DB0NH | 2026-08-31 01:44:11 | 49.50901 | 11.37449 | 50° | 75km/h | 6066m | -2.2m/s | -13.3°C | 58.5% | 482.5hPa | 2.6V | 00:00:00 | 03:12:18 | 00:00:00 | |
| DO9HM | 2026-08-31 01:44:09 | 49.50889 | 11.37429 | 50° | 69km/h | 6068m | -2.3m/s | -13.3°C | 55.0% | 482.4hPa | 2.5V | 07:14:00 | 00:00:00 | 00:00:00 | |
| DL1NUX | 2026-08-31 01:44:08 | 49.50807 | 11.37284 | 48° | 73km/h | 6084m | -2.4m/s | -13.4°C | 58.3% | 481.4hPa | 2.5V | 07:14:37 | 03:12:10 | 00:00:00 | |
| DB0ND-19 | 2026-08-31 01:44:07 | 49.50855 | 11.37368 | 48° | 69km/h | 6075m | -2.3m/s | -13.4°C | 55.2% | 482.1hPa | 2.6V | 00:00:00 | 00:00:00 | 00:00:00 | |
| DO3MHA-11 | 2026-08-31 01:44:06 | 49.50843 | 11.37347 | 49° | 75km/h | 6077m | -2.3m/s | -13.4°C | 58.4% | 481.8hPa | 2.6V | 00:00:00 | 03:12:13 | 00:00:00 | |
| DK5PH-5 | 2026-08-31 01:44:04 | 49.50819 | 11.37305 | 49° | 75km/h | 6082m | -2.3m/s | -13.4°C | 58.5% | 481.6hPa | 2.6V | 00:00:00 | 03:12:11 | 00:00:00 | |
| DF7PN | 2026-08-31 01:44:02 | 49.50783 | 11.37241 | 48° | 73km/h | 6089m | -2.4m/s | -13.5°C | 55.3% | 481.1hPa | 2.6V | 00:00:00 | 00:00:00 | 00:00:00 | |
| SO1NDE-10 | 2026-08-31 01:43:59 | 49.50758 | 11.37197 | 50° | 73km/h | 6094m | -2.3m/s | -13.5°C | 58.6% | 480.8hPa | 2.6V | 00:00:00 | 03:12:06 | 00:00:00 | |
| DL1NUX | 2026-08-31 01:43:58 | 49.50682 | 11.37055 | 53° | 80km/h | 6108m | -2.3m/s | -13.7°C | 58.8% | 479.9hPa | 2.6V | 07:14:47 | 03:12:00 | 00:00:00 | |
| DF3TZ-5 | 2026-08-31 01:43:50 | 49.50648 | 11.36977 | 57° | 80km/h | 6115m | -2.3m/s | -13.7°C | 55.1% | 479.6hPa | 2.6V | 00:00:00 | 00:00:00 | 00:00:00 | |
| DB0UT-7 | 2026-08-31 01:43:49 | 49.50636 | 11.36951 | 59° | 68km/h | 6117m | -2.3m/s | -13.7°C | 58.4% | 479.3hPa | 2.6V | 00:00:00 | 03:11:56 | 00:00:00 | |
| DL1NUX | 2026-08-31 01:43:48 | 49.50578 | 11.36794 | 61° | 75km/h | 6130m | -2.4m/s | -13.8°C | 58.2% | 478.5hPa | 2.6V | 07:14:57 | 03:11:50 | 00:00:00 | |
| DB0NH | 2026-08-31 01:43:41 | 49.50561 | 11.36744 | 62° | 68km/h | 6135m | -2.3m/s | -13.8°C | 58.5% | 478.2hPa | 2.5V | 00:00:00 | 03:11:48 | 00:00:00 | |
| DL1NUX | 2026-08-31 01:43:38 | 49.50494 | 11.36558 | 58° | 66km/h | 6153m | -2.2m/s | -14°C | 58.4% | 477.1hPa | 2.5V | 07:15:07 | 03:11:40 | 00:00:00 | |
| DO3MHA-11 | 2026-08-31 01:43:36 | 49.50519 | 11.36624 | 62° | 66km/h | 6147m | -2.2m/s | -13.9°C | 58.6% | 477.5hPa | 2.6V | 00:00:00 | 03:11:43 | 00:00:00 | |
| DK5PH-5 | 2026-08-31 01:43:34 | 49.50502 | 11.36580 | 60° | 69km/h | 6151m | -2.1m/s | -13.9°C | 58.1% | 477.3hPa | 2.6V | 00:00:00 | 03:11:41 | 00:00:00 | |
| DM7RM-13 | 2026-08-31 01:43:33 | 49.50502 | 11.36580 | 60° | 66km/h | 6151m | -2.1m/s | -14.0°C | 54.8% | 477.3hPa | 2.6V | 07:15:00 | 00:00:00 | 00:00:00 | |
| DF7PN | 2026-08-31 01:43:31 | 49.50467 | 11.36495 | 55° | 64km/h | 6159m | -2.2m/s | -14.0°C | 55.3% | 476.8hPa | 2.6V | 00:00:00 | 00:00:00 | 00:00:00 | |
| SO1NDE-10 | 2026-08-31 01:43:29 | 49.50457 | 11.36475 | 54° | 73km/h | 6162m | -2.2m/s | -14.0°C | 59.2% | 476.5hPa | 2.6V | 00:00:00 | 03:11:36 | 00:00:00 | |
| DL1NUX | 2026-08-31 01:43:28 | 49.50395 | 11.36355 | 49° | 68km/h | 6176m | -2.4m/s | -14.1°C | 60.7% | 475.7hPa | 2.6V | 07:15:17 | 03:11:30 | 00:00:00 | |
| DO3MHA-11 | 2026-08-31 01:43:26 | 49.50427 | 11.36414 | 52° | 68km/h | 6169m | -2.4m/s | -14.1°C | 60.1% | 476.2hPa | 2.6V | 00:00:00 | 03:11:33 | 00:00:00 | |
| NBG1-10 | 2026-08-31 01:43:23 | 49.50395 | 11.36356 | 50° | 77km/h | 6176m | -2.4m/s | -14.1°C | 60.7% | 475.6hPa | 2.6V | 00:00:00 | 03:11:30 | 00:00:00 | |
| DB0UT-7 | 2026-08-31 01:43:19 | 49.50349 | 11.36276 | 48° | 78km/h | 6185m | -2.5m/s | -14.2°C | 60.8% | 475.0hPa | 2.6V | 00:00:00 | 00:00:00 | 00:00:00 | |
| DL1NUX | 2026-08-31 01:43:18 | 49.50275 | 11.36153 | 47° | 75km/h | 6200m | -2.5m/s | -14.3°C | 61% | 474.2hPa | 2.6V | 07:15:27 | 03:11:20 | 00:00:00 | |
| DF9NV-10 | 2026-08-31 01:43:17 | 49.50338 | 11.36256 | 48° | 69km/h | 6187m | -2.5m/s | -14.3°C | 57.4% | 474.9hPa | 2.6V | 07:15:00 | 00:00:00 | 00:00:00 | |
| DO3MHA-11 | 2026-08-31 01:43:16 | 49.50313 | 11.36216 | 48° | 75km/h | 6192m | -2.3m/s | -14.2°C | 61.1% | 474.6hPa | 2.6V | 00:00:00 | 03:11:23 | 00:00:00 | |
| DM7RM-13 | 2026-08-31 01:43:13 | 49.50288 | 11.36174 | 48° | 73km/h | 6197m | -2.6m/s | -14.3°C | 57.7% | 474.3hPa | 2.6V | 07:15:00 | 00:00:00 | 00:00:00 | |
| DB0NH | 2026-08-31 01:43:11 | 49.50249 | 11.36110 | 48° | 82km/h | 6205m | -2.4m/s | -14.3°C | 61.3% | 473.8hPa | 2.6V | 00:00:00 | 03:11:18 | 00:00:00 | |
| DL1NUX | 2026-08-31 01:43:08 | 49.50143 | 11.35930 | 49° | 80km/h | 6225m | -2.4m/s | -14.5°C | 61.9% | 472.7hPa | 2.6V | 07:15:37 | 03:11:10 | 00:00:00 | |
| DO3MHA-11 | 2026-08-31 01:43:06 | 49.50183 | 11.36000 | 49° | 82km/h | 6217m | -2.4m/s | -14.4°C | 61.3% | 473.0hPa | 2.5V | 00:00:00 | 03:11:13 | 00:00:00 | |
| DB0ND-19 | 2026-08-31 01:43:05 | 49.50170 | 11.35977 | 48° | 78km/h | 6220m | -2.5m/s | -14.5°C | 57.7% | 472.9hPa | 2.6V | 00:00:00 | 00:00:00 | 00:00:00 | |
| DK5PH-5 | 2026-08-31 01:43:04 | 49.50156 | 11.35953 | 49° | 82km/h | 6222m | -2.4m/s | -14.4°C | 61.0% | 472.7hPa | 2.6V | 00:00:00 | 03:11:11 | 00:00:00 | |
| DF7PN | 2026-08-31 01:43:00 | 49.50090 | 11.35832 | 50° | 82km/h | 6234m | -2.3m/s | -14.6°C | 60.0% | 472.0hPa | 2.6V | 00:00:00 | 00:00:00 | 00:00:00 | |
| SO1NDE-10 | 2026-08-31 01:42:59 | 49.50090 | 11.35832 | 51° | 80km/h | 6234m | -2.3m/s | -14.6°C | 63.8% | 472.0hPa | 2.6V | 00:00:00 | 03:11:06 | 00:00:00 | |
| DL1NUX | 2026-08-31 01:42:58 | 49.50011 | 11.35680 | 52° | 84km/h | 6248m | -2.3m/s | -14.7°C | 68.7% | 471.1hPa | 2.6V | 07:15:47 | 03:11:00 | 00:00:00 | |
| DO3MHA-11 | 2026-08-31 01:42:56 | 49.50050 | 11.35757 | 52° | 84km/h | 6242m | -2.5m/s | -14.6°C | 64.4% | 471.5hPa | 2.6V | 07:15:00 | 03:11:03 | 00:00:00 | |
| DM7RM-13 | 2026-08-31 01:42:52 | 49.50011 | 11.35680 | 54° | 84km/h | 6248m | -2.3m/s | -14.7°C | 64.6% | 471.1hPa | 2.6V | 07:16:00 | 00:00:00 | 00:00:00 | |
| NBG1-10 | 2026-08-31 01:42:50 | 49.49973 | 11.35601 | 54° | 75km/h | 6255m | -2.2m/s | -14.7°C | 69.1% | 470.7hPa | 2.6V | 00:00:00 | 03:10:57 | 00:00:00 | |
| DB0UT-7 | 2026-08-31 01:42:49 | 49.49960 | 11.35574 | 55° | 80km/h | 6257m | -2.3m/s | -14.8°C | 67.3% | 470.5hPa | 2.6V | 07:15:00 | 03:10:56 | 00:00:00 | |
| DL1NUX | 2026-08-31 01:42:48 | 49.49891 | 11.35414 | 58° | 80km/h | 6271m | -2.2m/s | -15°C | 66.2% | 469.8hPa | 2.6V | 07:15:57 | 03:10:50 | 00:00:00 | |
| DL6DJ-15 | 2026-08-31 01:42:47 | 49.49936 | 11.35521 | 55° | 82km/h | 6262m | -2.4m/s | -14.9°C | 60.6% | 470.3hPa | 2.5V | 00:00:00 | 00:00:00 | 00:00:00 | |
| DO3MHA-11 | 2026-08-31 01:42:46 | 49.49924 | 11.35494 | 57° | 80km/h | 6265m | -2.2m/s | -14.9°C | 64.7% | 470.1hPa | 2.5V | 00:00:00 | 03:10:53 | 00:00:00 | |
| DB0NH | 2026-08-31 01:42:41 | 49.49869 | 11.35361 | 59° | 71km/h | 6276m | -2.0m/s | -15.0°C | 65.4% | 469.5hPa | 2.5V | 00:00:00 | 03:10:48 | 00:00:00 | |
| DL1NUX | 2026-08-31 01:42:38 | 49.49791 | 11.35153 | 60° | 75km/h | 6293m | -2.1m/s | -15.2°C | 72.3% | 468.4hPa | 2.6V | 07:16:07 | 03:10:40 | 00:00:00 | |
| DO3MHA-11 | 2026-08-31 01:42:36 | 49.49819 | 11.35230 | 61° | 73km/h | 6286m | -2.2m/s | -15.1°C | 68.1% | 468.8hPa | 2.5V | 00:00:00 | 03:10:43 | 00:00:00 | |
| DK5PH-5 | 2026-08-31 01:42:34 | 49.49800 | 11.35179 | 61° | 68km/h | 6291m | -2.2m/s | -15.1°C | 70.0% | 468.5hPa | 2.6V | 00:00:00 | 03:10:41 | 00:00:00 | |
| DM7RM-13 | 2026-08-31 01:42:32 | 49.49790 | 11.35153 | 61° | 75km/h | 6293m | -2.1m/s | -15.2°C | 68.1% | 468.4hPa | 2.6V | 07:16:00 | 00:00:00 | 00:00:00 | |
| DF7PN | 2026-08-31 01:42:29 | 49.49745 | 11.35030 | 59° | 69km/h | 6304m | -2.1m/s | -15.3°C | 68.2% | 467.7hPa | 2.6V | 00:00:00 | 00:00:00 | 00:00:00 | |
| DL1NUX | 2026-08-31 01:42:28 | 49.49701 | 11.34915 | 58° | 68km/h | 6315m | -2.4m/s | -15.4°C | 73.2% | 467hPa | 2.6V | 07:16:17 | 03:10:30 | 00:00:00 | |
| DO9HM | 2026-08-31 01:42:27 | 49.49736 | 11.35007 | 61° | 69km/h | 6306m | -2.4m/s | -15.3°C | 68.5% | 467.5hPa | 2.6V | 07:16:00 | 00:00:00 | 00:00:00 | |
| DO3MHA-11 | 2026-08-31 01:42:26 | 49.49727 | 11.34984 | 60° | 68km/h | 6308m | -2.3m/s | -15.3°C | 72.9% | 467.4hPa | 2.6V | 00:00:00 | 03:10:33 | 00:00:00 | |
| DL1NUX | 2026-08-31 01:42:18 | 49.49609 | 11.34702 | 53° | 64km/h | 6337m | -2.1m/s | -15.6°C | 70.3% | 465.6hPa | 2.6V | 07:16:27 | 03:10:20 | 00:00:00 | |
| NBG1-10 | 2026-08-31 01:42:17 | 49.49647 | 11.34784 | 57° | 73km/h | 6329m | -2.2m/s | -15.4°C | 69.6% | 466.1hPa | 2.5V | 00:00:00 | 03:10:24 | 00:00:00 | |
| DO3MHA-11 | 2026-08-31 01:42:16 | 49.49638 | 11.34764 | 56° | 66km/h | 6331m | -2.3m/s | -15.5°C | 70.1% | 466.0hPa | 2.6V | 00:00:00 | 03:10:23 | 00:00:00 | |
| DB0NH | 2026-08-31 01:42:11 | 49.49589 | 11.34663 | 52° | 75km/h | 6342m | -2.0m/s | -15.5°C | 69.0% | 465.3hPa | 2.6V | 00:00:00 | 03:10:18 | 00:00:00 | |
| DL1NUX | 2026-08-31 01:42:08 | 49.49498 | 11.34506 | 46° | 73km/h | 6359m | -2.3m/s | -15.7°C | 61.1% | 464.2hPa | 2.6V | 07:16:37 | 03:10:10 | 00:00:00 | |
| DO9HM | 2026-08-31 01:42:07 | 49.49534 | 11.34566 | 48° | 68km/h | 6352m | -2.2m/s | -15.6°C | 58.4% | 464.6hPa | 2.5V | 07:17:00 | 00:00:00 | 00:00:00 | |
| DO3MHA-11 | 2026-08-31 01:42:06 | 49.49534 | 11.34566 | 48° | 73km/h | 6352m | -2.1m/s | -15.6°C | 62.2% | 464.6hPa | 2.5V | 00:00:00 | 03:10:13 | 00:00:00 | |
| DK5PH-5 | 2026-08-31 01:42:04 | 49.49510 | 11.34526 | 47° | 78km/h | 6357m | -2.4m/s | -15.6°C | 61.2% | 464.3hPa | 2.6V | 07:16:00 | 03:10:11 | 00:00:00 | |
| DB0ND-19 | 2026-08-31 01:42:03 | 49.49433 | 11.34401 | 46° | 75km/h | 6371m | -2.4m/s | -15.8°C | 57.8% | 463.5hPa | 2.6V | 00:00:00 | 00:00:00 | 00:00:00 | |
| SO1NDE-10 | 2026-08-31 01:41:59 | 49.49446 | 11.34423 | 47° | 78km/h | 6369m | -2.4m/s | -15.7°C | 61.7% | 463.6hPa | 2.6V | 00:00:00 | 03:10:06 | 00:00:00 | |
| DL1NUX | 2026-08-31 01:41:58 | 49.49366 | 11.34291 | 47° | 78km/h | 6384m | -2.4m/s | -15.8°C | 61.9% | 462.8hPa | 2.6V | 07:16:47 | 03:10:00 | 00:00:00 | |
| DF7PN | 2026-08-31 01:41:57 | 49.49419 | 11.34380 | 46° | 75km/h | 6374m | -2.4m/s | -15.8°C | 57.8% | 463.4hPa | 2.6V | 00:00:00 | 00:00:00 | 00:00:00 | |
| DO3MHA-11 | 2026-08-31 01:41:56 | 49.49406 | 11.34358 | 48° | 78km/h | 6376m | -2.4m/s | -15.8°C | 61.9% | 463.2hPa | 2.6V | 00:00:00 | 03:10:03 | 00:00:00 | |
| DF9NV-10 | 2026-08-31 01:41:55 | 49.49406 | 11.34358 | 48° | 77km/h | 6376m | -2.5m/s | -15.8°C | 58.1% | 463.2hPa | 2.6V | 07:17:00 | 00:00:00 | 00:00:00 | |
| DM7RM-13 | 2026-08-31 01:41:51 | 49.49353 | 11.34269 | 49° | 80km/h | 6386m | -2.5m/s | -15.8°C | 57.4% | 462.7hPa | 2.6V | 07:17:00 | 00:00:00 | 00:00:00 | |
| DL1NUX | 2026-08-31 01:41:48 | 49.49233 | 11.34052 | 52° | 82km/h | 6409m | -2.5m/s | -16°C | 61.6% | 461.2hPa | 2.6V | 07:16:57 | 03:09:50 | 00:00:00 | |
| DF3TZ-5 | 2026-08-31 01:41:46 | 49.49272 | 11.34127 | 50° | 82km/h | 6401m | -2.7m/s | -16.0°C | 57.9% | 461.7hPa | 2.6V | 00:00:00 | 00:00:00 | 00:00:00 | |
| DL6DJ-15 | 2026-08-31 01:41:45 | 49.49246 | 11.34077 | 51° | 82km/h | 6407m | -2.5m/s | -16.0°C | 58.0% | 461.4hPa | 2.6V | 00:00:00 | 00:00:00 | 00:00:00 | |
| NBG1-10 | 2026-08-31 01:41:44 | 49.49246 | 11.34077 | 52° | 73km/h | 6407m | -2.5m/s | -16.0°C | 61.9% | 461.4hPa | 2.6V | 07:16:00 | 03:09:51 | 00:00:00 | |
| DB0NH | 2026-08-31 01:41:41 | 49.49208 | 11.34000 | 55° | 73km/h | 6414m | -2.3m/s | -16.0°C | 61.8% | 460.9hPa | 2.6V | 00:00:00 | 03:09:48 | 00:00:00 | |
| DL1NUX | 2026-08-31 01:41:38 | 49.49121 | 11.33791 | 59° | 77km/h | 6435m | -2.7m/s | -16.2°C | 60.4% | 459.7hPa | 2.6V | 07:17:07 | 03:09:40 | 00:00:00 | |
| DO3MHA-11 | 2026-08-31 01:41:36 | 49.49152 | 11.33869 | 59° | 77km/h | 6427m | -2.5m/s | -16.1°C | 60.9% | 460.2hPa | 2.5V | 07:17:00 | 03:09:43 | 00:00:00 | |
| DF9NV-10 | 2026-08-31 01:41:35 | 49.49152 | 11.33869 | 59° | 78km/h | 6427m | -2.6m/s | -16.2°C | 57.1% | 460.2hPa | 2.6V | 07:17:00 | 00:00:00 | 00:00:00 | |
| DK5PH-5 | 2026-08-31 01:41:34 | 49.49131 | 11.33817 | 60° | 69km/h | 6432m | -2.6m/s | -16.2°C | 60.5% | 459.8hPa | 2.6V | 00:00:00 | 03:09:41 | 00:00:00 | |
| DB0UT-7 | 2026-08-31 01:41:32 | 49.49111 | 11.33765 | 60° | 68km/h | 6438m | -2.4m/s | -16.2°C | 60.9% | 459.5hPa | 2.6V | 00:00:00 | 00:00:00 | 00:00:00 | |
| DM7RM-13 | 2026-08-31 01:41:30 | 49.49101 | 11.33739 | 61° | 77km/h | 6440m | -2.6m/s | -16.3°C | 57.2% | 459.4hPa | 2.6V | 07:17:00 | 00:00:00 | 00:00:00 | |
| SO1NDE-10 | 2026-08-31 01:41:29 | 49.49082 | 11.33689 | 60° | 68km/h | 6446m | -2.6m/s | -16.3°C | 61.4% | 459.0hPa | 2.6V | 00:00:00 | 03:09:36 | 00:00:00 | |
| DL1NUX | 2026-08-31 01:41:28 | 49.49029 | 11.33543 | 60° | 69km/h | 6461m | -2.6m/s | -16.4°C | 61.5% | 458.1hPa | 2.6V | 07:17:17 | 03:09:30 | 00:00:00 | |
| DO3MHA-11 | 2026-08-31 01:41:26 | 49.49055 | 11.33615 | 61° | 69km/h | 6453m | -2.4m/s | -16.3°C | 61.9% | 458.5hPa | 2.5V | 00:00:00 | 03:09:33 | 00:00:00 | |
| DO9HM | 2026-08-31 01:41:23 | 49.49038 | 11.33567 | 62° | 71km/h | 6458m | -2.5m/s | -16.4°C | 57.6% | 458.2hPa | 2.5V | 07:18:00 | 00:00:00 | 00:00:00 | |
| DL1NUX | 2026-08-31 01:41:18 | 49.48944 | 11.33316 | 57° | 64km/h | 6486m | -2.7m/s | -16.6°C | 64.2% | 456.5hPa | 2.5V | 07:17:27 | 03:09:20 | 00:00:00 | |
| DO3MHA-11 | 2026-08-31 01:41:16 | 49.48970 | 11.33380 | 60° | 64km/h | 6479m | -2.6m/s | -16.5°C | 60.8% | 457.0hPa | 2.6V | 00:00:00 | 03:09:23 | 00:00:00 | |
| DF9NV-10 | 2026-08-31 01:41:15 | 49.48969 | 11.33380 | 61° | 66km/h | 6479m | -2.6m/s | -16.5°C | 56.9% | 457.1hPa | 2.6V | 07:18:00 | 00:00:00 | 00:00:00 | |
| DL6DJ-15 | 2026-08-31 01:41:14 | 49.48944 | 11.33316 | 57° | 62km/h | 6486m | -2.7m/s | -16.6°C | 60.1% | 456.5hPa | 2.6V | 00:00:00 | 00:00:00 | 00:00:00 | |
| DB0NH | 2026-08-31 01:41:11 | 49.48926 | 11.33275 | 56° | 71km/h | 6491m | -2.5m/s | -16.6°C | 64.0% | 456.2hPa | 2.6V | 07:17:00 | 03:09:18 | 00:00:00 | |
| DM7RM-13 | 2026-08-31 01:41:10 | 49.48926 | 11.33275 | 56° | 62km/h | 6491m | -2.5m/s | -16.7°C | 60.0% | 456.3hPa | 2.6V | 07:18:00 | 00:00:00 | 00:00:00 | |
| DL1NUX | 2026-08-31 01:41:08 | 49.48843 | 11.33122 | 46° | 69km/h | 6510m | -2.4m/s | -16.8°C | 68.3% | 455hPa | 2.6V | 07:17:37 | 03:09:10 | 00:00:00 | |
| DO3MHA-11 | 2026-08-31 01:41:06 | 49.48877 | 11.33179 | 49° | 71km/h | 6503m | -2.1m/s | -16.7°C | 66.1% | 455.5hPa | 2.5V | 00:00:00 | 03:09:13 | 00:00:00 | |
| SONCRA | 2026-08-31 01:41:05 | 49.48866 | 11.33160 | 47° | 64km/h | 6505m | -2.3m/s | -16.8°C | 62.6% | 455.4hPa | 2.6V | 00:00:00 | 00:00:00 | 00:00:00 | |
| DK5PH-5 | 2026-08-31 01:41:04 | 49.48855 | 11.33141 | 48° | 71km/h | 6507m | -2.3m/s | -16.7°C | 67.4% | 455.2hPa | 2.6V | 00:00:00 | 03:09:11 | 00:00:00 | |
| DO9HM | 2026-08-31 01:41:03 | 49.48855 | 11.33141 | 49° | 68km/h | 6507m | -2.3m/s | -16.8°C | 63.1% | 455.3hPa | 2.6V | 07:18:00 | 00:00:00 | 00:00:00 | |
| DB0UT-7 | 2026-08-31 01:41:02 | 49.48831 | 11.33102 | 47° | 75km/h | 6512m | -2.4m/s | -16.7°C | 68.5% | 454.9hPa | 2.6V | 00:00:00 | 03:09:09 | 00:00:00 | |
| DB0ND-19 | 2026-08-31 01:41:01 | 49.48819 | 11.33081 | 47° | 71km/h | 6514m | -2.5m/s | -16.8°C | 64.3% | 454.9hPa | 2.5V | 00:00:00 | 00:00:00 | 00:00:00 | |
| SO1NDE-10 | 2026-08-31 01:40:59 | 49.48793 | 11.33038 | 50° | 69km/h | 6520m | -2.6m/s | -16.8°C | 68.3% | 454.5hPa | 2.5V | 07:17:00 | 03:09:06 | 00:00:00 | |
| DL1NUX | 2026-08-31 01:40:58 | 49.48724 | 11.32892 | 58° | 77km/h | 6535m | -2.5m/s | -16.9°C | 70.9% | 453.6hPa | 2.5V | 07:17:47 | 03:09:00 | 00:00:00 | |
| DO3MHA-11 | 2026-08-31 01:40:56 | 49.48756 | 11.32968 | 54° | 77km/h | 6528m | -2.7m/s | -16.9°C | 69.1% | 454.1hPa | 2.6V | 00:00:00 | 03:09:03 | 00:00:00 | |
| DF9NV-10 | 2026-08-31 01:40:55 | 49.48757 | 11.32968 | 55° | 78km/h | 6528m | -2.7m/s | -16.9°C | 64.8% | 454.1hPa | 2.6V | 07:18:00 | 00:00:00 | 00:00:00 | |
| DM7RM-13 | 2026-08-31 01:40:49 | 49.48695 | 11.32815 | 63° | 77km/h | 6543m | -2.6m/s | -16.9°C | 67.0% | 453.1hPa | 2.6V | 07:18:00 | 00:00:00 | 00:00:00 | |
| DL1NUX | 2026-08-31 01:40:48 | 49.48638 | 11.32634 | 66° | 69km/h | 6563m | -2.9m/s | -17°C | 73.2% | 451.9hPa | 2.6V | 07:17:57 | 03:08:50 | 00:00:00 | |
| DO3MHA-11 | 2026-08-31 01:40:46 | 49.48660 | 11.32710 | 65° | 68km/h | 6554m | -3.0m/s | -16.9°C | 71.9% | 452.4hPa | 2.5V | 00:00:00 | 03:08:53 | 00:00:00 | |
| DL6DJ-15 | 2026-08-31 01:40:43 | 49.48631 | 11.32609 | 67° | 68km/h | 6565m | -2.7m/s | -17.0°C | 68.2% | 451.7hPa | 2.5V | 00:00:00 | 00:00:00 | 00:00:00 | |
| DB0NH | 2026-08-31 01:40:41 | 49.48625 | 11.32585 | 67° | 69km/h | 6568m | -2.7m/s | -17.0°C | 73.1% | 451.5hPa | 2.5V | 00:00:00 | 03:08:48 | 00:00:00 | |
| DL1NUX | 2026-08-31 01:40:38 | 49.48569 | 11.32419 | 56° | 57km/h | 6587m | -2.3m/s | -17.2°C | 74.6% | 450.4hPa | 2.5V | 07:18:07 | 03:08:40 | 00:00:00 | |
| NBG1-10 | 2026-08-31 01:40:38 | 49.48605 | 11.32518 | 65° | 71km/h | 6576m | -2.6m/s | -17.1°C | 73.4% | 451.1hPa | 2.6V | 00:00:00 | 03:08:45 | 00:00:00 | |
| DO3MHA-11 | 2026-08-31 01:40:36 | 49.48591 | 11.32477 | 62° | 62km/h | 6581m | -2.2m/s | -17.1°C | 74.7% | 450.8hPa | 2.6V | 00:00:00 | 03:08:43 | 00:00:00 | |
| DF9NV-10 | 2026-08-31 01:40:35 | 49.48591 | 11.32477 | 63° | 58km/h | 6581m | -2.3m/s | -17.2°C | 70.0% | 450.9hPa | 2.6V | 07:18:00 | 00:00:00 | 00:00:00 | |
| SONCRA | 2026-08-31 01:40:34 | 49.48552 | 11.32382 | 53° | 58km/h | 6592m | -2.3m/s | -17.2°C | 69.8% | 450.2hPa | 2.6V | 00:00:00 | 00:00:00 | 00:00:00 | |
| DB0ND-19 | 2026-08-31 01:40:30 | 49.48543 | 11.32363 | 53° | 60km/h | 6594m | -2.4m/s | -17.3°C | 70.4% | 450.0hPa | 2.6V | 00:00:00 | 00:00:00 | 00:00:00 | |
| SO1NDE-10 | 2026-08-31 01:40:29 | 49.48533 | 11.32344 | 53° | 75km/h | 6596m | -2.2m/s | -17.2°C | 75.0% | 449.8hPa | 2.6V | 00:00:00 | 03:08:36 | 00:00:00 | |
| DL1NUX | 2026-08-31 01:40:28 | 49.48470 | 11.32209 | 56° | 75km/h | 6611m | -2.3m/s | -17.3°C | 76% | 449hPa | 2.6V | 07:18:17 | 03:08:30 | 00:00:00 | |
| DO3MHA-11 | 2026-08-31 01:40:26 | 49.48502 | 11.32280 | 55° | 77km/h | 6603m | -2.4m/s | -17.2°C | 75.4% | 449.5hPa | 2.5V | 00:00:00 | 03:08:33 | 00:00:00 | |
| DF7PN | 2026-08-31 01:40:24 | 49.48480 | 11.32233 | 55° | 75km/h | 6608m | -2.5m/s | -17.3°C | 71.1% | 449.2hPa | 2.5V | 00:00:00 | 00:00:00 | 00:00:00 | |
| DO9HM | 2026-08-31 01:40:23 | 49.48470 | 11.32209 | 57° | 75km/h | 6611m | -2.3m/s | -17.3°C | 71.2% | 449.0hPa | 2.5V | 07:18:00 | 00:00:00 | 00:00:00 | |
| DL1NUX | 2026-08-31 01:40:18 | 49.48375 | 11.31946 | 64° | 78km/h | 6636m | -2.6m/s | -17.3°C | 78.2% | 447.6hPa | 2.5V | 07:18:27 | 03:08:20 | 00:00:00 | |
| DO3MHA-11 | 2026-08-31 01:40:16 | 49.48401 | 11.32028 | 64° | 78km/h | 6628m | -2.4m/s | -17.2°C | 77.6% | 447.9hPa | 2.6V | 07:18:00 | 03:08:23 | 00:00:00 | |
| DF9NV-10 | 2026-08-31 01:40:14 | 49.48392 | 11.32001 | 65° | 78km/h | 6631m | -2.4m/s | -17.3°C | 73.0% | 447.9hPa | 2.6V | 07:18:00 | 00:00:00 | 00:00:00 | |
| DB0NH | 2026-08-31 01:40:11 | 49.48358 | 11.31892 | 65° | 69km/h | 6641m | -2.5m/s | -17.3°C | 78.5% | 447.2hPa | 2.6V | 00:00:00 | 03:08:18 | 00:00:00 | |
| DL1NUX | 2026-08-31 01:40:08 | 49.48293 | 11.31675 | 67° | 75km/h | 6662m | -2.4m/s | -17.5°C | 78.9% | 446hPa | 2.6V | 07:18:37 | 03:08:10 | 00:00:00 | |
| DO3MHA-11 | 2026-08-31 01:40:06 | 49.48316 | 11.31756 | 66° | 75km/h | 6654m | -2.5m/s | -17.4°C | 78.8% | 446.4hPa | 2.5V | 00:00:00 | 03:08:13 | 00:00:00 | |
| NBG1-10 | 2026-08-31 01:40:05 | 49.48308 | 11.31729 | 67° | 68km/h | 6657m | -2.6m/s | -17.4°C | 78.7% | 446.3hPa | 2.6V | 00:00:00 | 03:08:12 | 00:00:00 | |
| DK5PH-5 | 2026-08-31 01:40:04 | 49.48300 | 11.31702 | 68° | 68km/h | 6659m | -2.6m/s | -17.4°C | 78.5% | 446.2hPa | 2.6V | 00:00:00 | 03:08:11 | 00:00:00 | |
| SONCRA | 2026-08-31 01:40:03 | 49.48293 | 11.31675 | 67° | 75km/h | 6662m | -2.4m/s | -17.5°C | 73.8% | 446.1hPa | 2.6V | 00:00:00 | 00:00:00 | 00:00:00 | |
| DO9HM | 2026-08-31 01:40:02 | 49.48293 | 11.31675 | 69° | 75km/h | 6662m | -2.4m/s | -17.5°C | 73.9% | 446.0hPa | 2.6V | 07:18:00 | 00:00:00 | 00:00:00 | |
| SO1NDE-10 | 2026-08-31 01:39:59 | 49.48266 | 11.31567 | 71° | 66km/h | 6672m | -2.5m/s | -17.5°C | 79.2% | 445.4hPa | 2.6V | 00:00:00 | 03:08:06 | 00:00:00 | |
| DL1NUX | 2026-08-31 01:39:58 | 49.48232 | 11.31417 | 69° | 64km/h | 6687m | -2.5m/s | -17.6°C | 79% | 444.5hPa | 2.6V | 07:18:47 | 03:08:00 | 00:00:00 | |
| DF7PN | 2026-08-31 01:39:53 | 49.48232 | 11.31417 | 69° | 64km/h | 6687m | -2.5m/s | -17.6°C | 73.9% | 444.5hPa | 2.5V | 00:00:00 | 00:00:00 | 00:00:00 | |
| DL1NUX | 2026-08-31 01:39:48 | 49.48163 | 11.31200 | 58° | 64km/h | 6713m | -2.8m/s | -17.7°C | 78.6% | 442.9hPa | 2.5V | 07:18:57 | 03:07:50 | 00:00:00 | |
| DO3MHA-11 | 2026-08-31 01:39:46 | 49.48187 | 11.31263 | 62° | 64km/h | 6705m | -2.5m/s | -17.6°C | 78.6% | 443.5hPa | 2.6V | 00:00:00 | 03:07:53 | 00:00:00 | |
| DO9HM | 2026-08-31 01:39:43 | 49.48155 | 11.31179 | 59° | 64km/h | 6716m | -2.7m/s | -17.7°C | 74.0% | 442.8hPa | 2.6V | 07:19:00 | 00:00:00 | 00:00:00 | |
| DB0NH | 2026-08-31 01:39:41 | 49.48146 | 11.31158 | 58° | 75km/h | 6719m | -2.6m/s | -17.7°C | 78.9% | 442.6hPa | 2.6V | 00:00:00 | 03:07:48 | 00:00:00 | |
| DL6DJ-15 | 2026-08-31 01:39:40 | 49.48137 | 11.31137 | 56° | 64km/h | 6721m | -2.5m/s | -17.8°C | 73.9% | 442.6hPa | 2.5V | 00:00:00 | 00:00:00 | 00:00:00 | |
| DL1NUX | 2026-08-31 01:39:38 | 49.48070 | 11.30985 | 55° | 71km/h | 6739m | -2.8m/s | -17.9°C | 79.4% | 441.4hPa | 2.5V | 07:19:07 | 03:07:40 | 00:00:00 | |
| DO3MHA-11 | 2026-08-31 01:39:36 | 49.48099 | 11.31052 | 56° | 73km/h | 6732m | -2.6m/s | -17.8°C | 79.5% | 441.8hPa | 2.6V | 00:00:00 | 03:07:43 | 00:00:00 | |
| DK5PH-5 | 2026-08-31 01:39:34 | 49.48080 | 11.31008 | 56° | 75km/h | 6737m | -2.7m/s | -17.9°C | 79.5% | 441.5hPa | 2.5V | 00:00:00 | 03:07:41 | 00:00:00 | |
| DF9NV-10 | 2026-08-31 01:39:33 | 49.48080 | 11.31008 | 57° | 69km/h | 6737m | -2.8m/s | -17.9°C | 74.4% | 441.5hPa | 2.5V | 07:19:00 | 00:00:00 | 00:00:00 | |
| NBG1-10 | 2026-08-31 01:39:32 | 49.48059 | 11.30962 | 57° | 73km/h | 6742m | -2.7m/s | -17.9°C | 79.1% | 441.2hPa | 2.5V | 00:00:00 | 03:07:39 | 00:00:00 | |
| SO1NDE-10 | 2026-08-31 01:39:29 | 49.48029 | 11.30889 | 58° | 73km/h | 6751m | -2.8m/s | -18.0°C | 79.8% | 440.7hPa | 2.5V | 00:00:00 | 03:07:36 | 00:00:00 | |
| DL1NUX | 2026-08-31 01:39:28 | 49.47967 | 11.30735 | 59° | 80km/h | 6768m | -3m/s | -18.1°C | 79.3% | 439.6hPa | 2.6V | 07:19:17 | 03:07:30 | 00:00:00 | |
| DB0ND-19 | 2026-08-31 01:39:28 | 49.48018 | 11.30864 | 57° | 75km/h | 6753m | -2.8m/s | -18.1°C | 74.7% | 440.6hPa | 2.5V | 00:00:00 | 00:00:00 | 00:00:00 | |
| DO3MHA-11 | 2026-08-31 01:39:26 | 49.47998 | 11.30814 | 59° | 78km/h | 6759m | -2.9m/s | -18.0°C | 80.1% | 440.2hPa | 2.5V | 00:00:00 | 03:07:33 | 00:00:00 | |
| DB0UT-7 | 2026-08-31 01:39:24 | 49.47977 | 11.30762 | 60° | 73km/h | 6765m | -3.0m/s | -18.1°C | 79.6% | 439.8hPa | 2.5V | 00:00:00 | 03:07:31 | 00:00:00 | |
| DF7PN | 2026-08-31 01:39:22 | 49.47957 | 11.30708 | 60° | 78km/h | 6771m | -3.0m/s | -18.2°C | 74.5% | 439.6hPa | 2.5V | 00:00:00 | 00:00:00 | 00:00:00 | |
| DO9HM | 2026-08-31 01:39:21 | 49.47947 | 11.30681 | 63° | 80km/h | 6774m | -3.1m/s | -18.2°C | 74.4% | 439.4hPa | 2.5V | 07:19:00 | 00:00:00 | 00:00:00 | |
| DL1NUX | 2026-08-31 01:39:18 | 49.47882 | 11.30461 | 67° | 73km/h | 6797m | -2.7m/s | -18.5°C | 81% | 438hPa | 2.5V | 07:19:27 | 03:07:20 | 00:00:00 | |
| DO3MHA-11 | 2026-08-31 01:39:16 | 49.47903 | 11.30542 | 67° | 71km/h | 6789m | -2.9m/s | -18.3°C | 80.8% | 438.4hPa | 2.5V | 00:00:00 | 03:07:23 | 00:00:00 | |
| DF9NV-10 | 2026-08-31 01:39:13 | 49.47888 | 11.30487 | 69° | 75km/h | 6795m | -2.6m/s | -18.4°C | 75.8% | 438.2hPa | 2.5V | 07:19:00 | 00:00:00 | 00:00:00 | |
| DB0NH | 2026-08-31 01:39:11 | 49.47868 | 11.30409 | 68° | 64km/h | 6803m | -2.6m/s | -18.5°C | 81.4% | 437.7hPa | 2.5V | 00:00:00 | 03:07:18 | 00:00:00 | |
| DL6DJ-15 | 2026-08-31 01:39:09 | 49.47855 | 11.30360 | 67° | 66km/h | 6808m | -2.7m/s | -18.6°C | 76.8% | 437.4hPa | 2.5V | 00:00:00 | 00:00:00 | 00:00:00 | |
| DL1NUX | 2026-08-31 01:39:08 | 49.47814 | 11.30222 | 62° | 64km/h | 6824m | -2.8m/s | -18.7°C | 83.1% | 436.4hPa | 2.5V | 07:19:37 | 03:07:10 | 00:00:00 | |
| DK7TD | 2026-08-31 01:39:04 | 49.47821 | 11.30244 | 64° | 64km/h | 6821m | -2.8m/s | -18.7°C | 77.1% | 436.5hPa | 2.5V | 07:21:29 | 03:07:11 | 00:00:00 | |
| DK5PH-5 | 2026-08-31 01:39:04 | 49.47821 | 11.30244 | 64° | 66km/h | 6821m | -2.8m/s | -18.6°C | 82.2% | 436.5hPa | 2.6V | 00:00:00 | 03:07:11 | 00:00:00 | |
| SONCRA | 2026-08-31 01:39:01 | 49.47799 | 11.30179 | 61° | 62km/h | 6830m | -2.7m/s | -18.8°C | 77.2% | 436.1hPa | 2.6V | 00:00:00 | 00:00:00 | 00:00:00 | |
| SO1NDE-10 | 2026-08-31 01:38:59 | 49.47784 | 11.30136 | 61° | 68km/h | 6835m | -2.7m/s | -18.7°C | 82.2% | 435.7hPa | 2.6V | 00:00:00 | 03:07:06 | 00:00:00 | |
| DL1NUX | 2026-08-31 01:38:58 | 49.47734 | 11.30011 | 57° | 64km/h | 6852m | -2.9m/s | -18.9°C | 82.8% | 434.8hPa | 2.6V | 07:19:47 | 03:07:00 | 00:00:00 | |
| DF7PN | 2026-08-31 01:38:51 | 49.47717 | 11.29970 | 56° | 62km/h | 6857m | -2.7m/s | -19.0°C | 77.2% | 434.4hPa | 2.6V | 00:00:00 | 00:00:00 | 00:00:00 | |
| DL1NUX | 2026-08-31 01:38:48 | 49.47642 | 11.29806 | 53° | 66km/h | 6879m | -2.8m/s | -19.1°C | 82.8% | 433.2hPa | 2.6V | 07:19:57 | 03:06:50 | 00:00:00 | |
| DO3MHA-11 | 2026-08-31 01:38:46 | 49.47671 | 11.29868 | 55° | 68km/h | 6871m | -2.6m/s | -19.0°C | 83.0% | 433.6hPa | 2.5V | 00:00:00 | 03:06:53 | 00:00:00 | |
| DJTTGO | 2026-08-31 01:38:42 | 49.47632 | 11.29785 | 54° | 68km/h | 6882m | -2.8m/s | -19.2°C | 77.2% | 433.1hPa | 2.5V | 07:20:00 | 00:00:00 | 00:00:00 | |
| DB0NH | 2026-08-31 01:38:41 | 49.47622 | 11.29764 | 53° | 75km/h | 6885m | -2.7m/s | -19.1°C | 83.2% | 432.9hPa | 2.5V | 00:00:00 | 03:06:48 | 00:00:00 | |
| DF3TZ-5 | 2026-08-31 01:38:40 | 49.47600 | 11.29722 | 52° | 68km/h | 6890m | -2.7m/s | -19.2°C | 77.8% | 432.6hPa | 2.5V | 00:00:00 | 00:00:00 | 00:00:00 | |
| DL1NUX | 2026-08-31 01:38:38 | 49.47533 | 11.29591 | 51° | 75km/h | 6906m | -2.8m/s | -19.4°C | 83.9% | 431.7hPa | 2.5V | 07:20:07 | 03:06:40 | 00:00:00 | |
| DO3MHA-11 | 2026-08-31 01:38:36 | 49.47567 | 11.29657 | 52° | 75km/h | 6898m | -2.8m/s | -19.3°C | 84.0% | 432.1hPa | 2.6V | 00:00:00 | 03:06:43 | 00:00:00 | |
| DK5PH-5 | 2026-08-31 01:38:34 | 49.47545 | 11.29613 | 52° | 73km/h | 6904m | -2.6m/s | -19.3°C | 83.6% | 431.7hPa | 2.6V | 00:00:00 | 03:06:41 | 00:00:00 | |
| DF9NV-10 | 2026-08-31 01:38:32 | 49.47533 | 11.29591 | 53° | 75km/h | 6906m | -2.8m/s | -19.4°C | 78.2% | 431.7hPa | 2.6V | 07:20:00 | 00:00:00 | 00:00:00 | |
| SONCRA | 2026-08-31 01:38:30 | 49.47498 | 11.29521 | 52° | 77km/h | 6914m | -2.6m/s | -19.4°C | 78.1% | 431.2hPa | 2.6V | 00:00:00 | 00:00:00 | 00:00:00 | |
| SO1NDE-10 | 2026-08-31 01:38:29 | 49.47486 | 11.29497 | 53° | 73km/h | 6917m | -2.8m/s | -19.4°C | 83.9% | 430.9hPa | 2.6V | 00:00:00 | 03:06:36 | 00:00:00 | |
| DL1NUX | 2026-08-31 01:38:28 | 49.47417 | 11.29342 | 59° | 82km/h | 6934m | -2.8m/s | -19.6°C | 84.9% | 430.1hPa | 2.6V | 07:20:17 | 03:06:30 | 00:00:00 | |
| DK7TD | 2026-08-31 01:38:20 | 49.47387 | 11.29258 | 63° | 80km/h | 6942m | -2.6m/s | -19.7°C | 79% | 429.6hPa | 2.5V | 07:21:29 | 03:06:27 | 00:00:00 | |
| DL1NUX | 2026-08-31 01:38:18 | 49.47332 | 11.29075 | 65° | 68km/h | 6960m | -2.4m/s | -19.9°C | 85.5% | 428.5hPa | 2.6V | 07:20:27 | 03:06:20 | 00:00:00 | |
| DK7TD | 2026-08-31 01:38:10 | 49.47310 | 11.29007 | 60° | 64km/h | 6968m | -2.7m/s | -19.9°C | 78.5% | 428.1hPa | 2.5V | 07:21:29 | 03:06:17 | 00:00:00 | |
| DF3TZ-5 | 2026-08-31 01:38:09 | 49.47293 | 11.28965 | 57° | 62km/h | 6973m | -2.6m/s | -20.0°C | 79.9% | 427.9hPa | 2.5V | 00:00:00 | 00:00:00 | 00:00:00 | |
| DL1NUX | 2026-08-31 01:38:08 | 49.47246 | 11.28864 | 52° | 66km/h | 6986m | -2.6m/s | -20.1°C | 85.6% | 427hPa | 2.5V | 07:20:37 | 03:06:10 | 00:00:00 | |
| DK7TD | 2026-08-31 01:38:00 | 49.47214 | 11.28803 | 51° | 69km/h | 6994m | -2.6m/s | -20.2°C | 78.9% | 426.7hPa | 2.6V | 07:21:29 | 03:06:07 | 00:00:00 | |
| SO1NDE-10 | 2026-08-31 01:37:59 | 49.47203 | 11.28782 | 51° | 80km/h | 6997m | -2.3m/s | -20.1°C | 86.3% | 426.4hPa | 2.5V | 00:00:00 | 03:06:06 | 00:00:00 | |
| DL1NUX | 2026-08-31 01:37:58 | 49.47131 | 11.28649 | 50° | 77km/h | 7011m | -2.2m/s | -20.3°C | 86.9% | 425.6hPa | 2.5V | 07:20:47 | 03:06:00 | 00:00:00 | |
| DK7TD | 2026-08-31 01:37:49 | 49.47080 | 11.28555 | 50° | 80km/h | 7021m | -2.5m/s | -20.4°C | 78% | 425.1hPa | 2.6V | 07:21:29 | 03:05:56 | 00:00:00 | |
| DL1NUX | 2026-08-31 01:37:48 | 49.47005 | 11.28402 | 56° | 84km/h | 7036m | -2.3m/s | -20.5°C | 85% | 424.3hPa | 2.6V | 07:20:57 | 03:05:50 | 00:00:00 | |
| DK7TD | 2026-08-31 01:37:38 | 49.46950 | 11.28263 | 60° | 84km/h | 7047m | -2.2m/s | -20.5°C | 77.7% | 423.6hPa | 2.6V | 07:21:29 | 03:05:45 | 00:00:00 | |
| DF3TZ-5 | 2026-08-31 01:37:38 | 49.46939 | 11.28235 | 60° | 84km/h | 7049m | -2.2m/s | -20.6°C | 78.0% | 423.5hPa | 2.5V | 00:00:00 | 00:00:00 | 00:00:00 | |
| OE5DXL-15 | 2026-08-31 01:37:37 | 49.46939 | 11.28235 | 61° | 84km/h | 7049m | -2.1m/s | -20.5°C | 84.0% | 423.4hPa | 2.5V | 00:00:00 | 00:00:00 | 00:00:00 | |
| DO3MHA-11 | 2026-08-31 01:37:36 | 49.46929 | 11.28206 | 61° | 82km/h | 7052m | -2.3m/s | -20.5°C | 84.1% | 423.3hPa | 2.5V | 07:21:00 | 03:05:43 | 00:00:00 | |
| DO9HM | 2026-08-31 01:37:35 | 49.46929 | 11.28206 | 61° | 84km/h | 7052m | -2.4m/s | -20.6°C | 78.2% | 423.3hPa | 2.6V | 07:21:00 | 00:00:00 | 00:00:00 | |
| DK5PH-5 | 2026-08-31 01:37:34 | 49.46908 | 11.28149 | 61° | 75km/h | 7056m | -2.5m/s | -20.6°C | 84.2% | 423.0hPa | 2.6V | 00:00:00 | 03:05:41 | 00:00:00 | |
| DF9NV-10 | 2026-08-31 01:37:30 | 49.46878 | 11.28062 | 64° | 82km/h | 7064m | -2.4m/s | -20.7°C | 78.9% | 422.6hPa | 2.6V | 07:21:00 | 00:00:00 | 00:00:00 | |
| SO1NDE-10 | 2026-08-31 01:37:29 | 49.46860 | 11.28005 | 65° | 75km/h | 7068m | -2.1m/s | -20.7°C | 84.8% | 422.4hPa | 2.6V | 00:00:00 | 03:05:36 | 00:00:00 | |
| DL1NUX | 2026-08-31 01:37:28 | 49.46813 | 11.27842 | 66° | 73km/h | 7081m | -2.4m/s | -20.9°C | 85.8% | 421.6hPa | 2.6V | 07:21:17 | 03:05:30 | 00:00:00 | |
| DK7TD | 2026-08-31 01:37:28 | 49.46851 | 11.27977 | 66° | 78km/h | 7070m | -2.2m/s | -20.8°C | 78.9% | 422.3hPa | 2.6V | 07:21:29 | 03:05:35 | 00:00:00 | |
| DO3MHA-11 | 2026-08-31 01:37:26 | 49.46835 | 11.27922 | 67° | 71km/h | 7075m | -2.1m/s | -20.8°C | 85.3% | 421.9hPa | 2.5V | 00:00:00 | 03:05:33 | 00:00:00 | |
| DM7RM-13 | 2026-08-31 01:37:24 | 49.46827 | 11.27895 | 68° | 75km/h | 7077m | -2.2m/s | -20.8°C | 79.6% | 421.8hPa | 2.5V | 07:21:00 | 00:00:00 | 00:00:00 | |
| NBG1-10 | 2026-08-31 01:37:20 | 49.46790 | 11.27767 | 64° | 78km/h | 7089m | -2.5m/s | -20.9°C | 87.4% | 421.1hPa | 2.5V | 07:21:00 | 03:05:27 | 00:00:00 | |
| DL1NUX | 2026-08-31 01:37:18 | 49.46728 | 11.27609 | 53° | 69km/h | 7108m | -3m/s | -21°C | 82.1% | 420.1hPa | 2.5V | 07:21:27 | 03:05:20 | 00:00:00 | |
| DK7TD | 2026-08-31 01:37:17 | 49.46766 | 11.27697 | 60° | 68km/h | 7097m | -2.3m/s | -20.9°C | 77.3% | 420.7hPa | 2.6V | 07:21:29 | 03:05:24 | 00:00:00 | |
| DO3MHA-11 | 2026-08-31 01:37:16 | 49.46757 | 11.27675 | 58° | 71km/h | 7099m | -2.8m/s | -20.9°C | 82.6% | 420.6hPa | 2.6V | 00:00:00 | 03:05:23 | 00:00:00 | |
| DO9HM | 2026-08-31 01:37:15 | 49.46748 | 11.27653 | 57° | 68km/h | 7102m | -2.9m/s | -20.9°C | 76.3% | 420.5hPa | 2.6V | 07:21:00 | 00:00:00 | 00:00:00 | |
| DJTTGO | 2026-08-31 01:37:12 | 49.46728 | 11.27609 | 55° | 69km/h | 7108m | -3.0m/s | -21.0°C | 76.2% | 420.1hPa | 2.6V | 00:00:00 | 00:00:00 | 00:00:00 | |
| DB0NH | 2026-08-31 01:37:11 | 49.46706 | 11.27564 | 53° | 80km/h | 7113m | -2.6m/s | -21.0°C | 82.6% | 419.7hPa | 2.6V | 07:21:00 | 03:05:18 | 00:00:00 | |
| DF9NV-10 | 2026-08-31 01:37:10 | 49.46706 | 11.27564 | 53° | 73km/h | 7113m | -2.7m/s | -21.0°C | 76.7% | 419.8hPa | 2.6V | 07:21:00 | 00:00:00 | 00:00:00 | |
| DL1NUX | 2026-08-31 01:37:08 | 49.46611 | 11.27372 | 55° | 84km/h | 7133m | -2.8m/s | -21.2°C | 83.6% | 418.7hPa | 2.6V | 07:21:37 | 03:05:10 | 00:00:00 | |
| DK7TD | 2026-08-31 01:37:06 | 49.46647 | 11.27449 | 52° | 78km/h | 7125m | -2.7m/s | -21.1°C | 76.9% | 419.1hPa | 2.6V | 07:22:20 | 03:05:13 | 00:00:00 | |
| DO3MHA-11 | 2026-08-31 01:37:06 | 49.46647 | 11.27449 | 53° | 84km/h | 7126m | -2.6m/s | -21.1°C | 83.1% | 419.1hPa | 2.6V | 00:00:00 | 03:05:13 | 00:00:00 | |
| DL6DJ-15 | 2026-08-31 01:37:05 | 49.46635 | 11.27424 | 53° | 80km/h | 7128m | -2.5m/s | -21.2°C | 77.4% | 418.9hPa | 2.5V | 00:00:00 | 00:00:00 | 00:00:00 | |
| DK5PH-5 | 2026-08-31 01:37:04 | 49.46623 | 11.27398 | 54° | 78km/h | 7131m | -2.4m/s | -21.1°C | 83.6% | 418.8hPa | 2.5V | 00:00:00 | 03:05:11 | 00:00:00 | |
| SO1NDE-10 | 2026-08-31 01:36:59 | 49.46564 | 11.27259 | 60° | 78km/h | 7145m | -2.5m/s | -21.2°C | 83.6% | 418.0hPa | 2.5V | 07:21:00 | 03:05:06 | 00:00:00 | |
| DL1NUX | 2026-08-31 01:36:58 | 49.46502 | 11.27080 | 63° | 86km/h | 7158m | -2.4m/s | -21.4°C | 84.8% | 417.2hPa | 2.5V | 07:21:47 | 03:05:00 | 00:00:00 | |
| DK7TD | 2026-08-31 01:36:56 | 49.46532 | 11.27170 | 62° | 88km/h | 7152m | -2.2m/s | -21.3°C | 77.3% | 417.6hPa | 2.6V | 07:22:20 | 03:05:03 | 00:00:00 | |
| DO3MHA-11 | 2026-08-31 01:36:56 | 49.46532 | 11.27170 | 63° | 84km/h | 7152m | -2.1m/s | -21.3°C | 82.9% | 417.6hPa | 2.5V | 00:00:00 | 03:05:03 | 00:00:00 | |
| DO9HM | 2026-08-31 01:36:55 | 49.46522 | 11.27140 | 64° | 88km/h | 7154m | -2.3m/s | -21.4°C | 78.0% | 417.5hPa | 2.5V | 07:22:00 | 00:00:00 | 00:00:00 | |
| DB0UT-7 | 2026-08-31 01:36:53 | 49.46502 | 11.27080 | 64° | 77km/h | 7159m | -2.3m/s | -21.4°C | 84.8% | 417.2hPa | 2.5V | 07:21:00 | 03:05:00 | 00:00:00 | |
| OE5DXL-15 | 2026-08-31 01:36:50 | 49.46475 | 11.26990 | 67° | 80km/h | 7165m | -1.7m/s | -21.5°C | 84.8% | 416.8hPa | 2.5V | 00:00:00 | 03:04:57 | 00:00:00 | |
| DL1NUX | 2026-08-31 01:36:48 | 49.46425 | 11.26792 | 68° | 73km/h | 7178m | -2.2m/s | -21.5°C | 83% | 416.1hPa | 2.5V | 07:21:57 | 03:04:50 | 00:00:00 | |
| DK7TD | 2026-08-31 01:36:45 | 49.46438 | 11.26846 | 69° | 77km/h | 7174m | -2m/s | -21.5°C | 77% | 416.3hPa | 2.5V | 07:22:20 | 03:04:52 | 00:00:00 | |
| DM7RM-13 | 2026-08-31 01:36:43 | 49.46431 | 11.26819 | 70° | 75km/h | 7176m | -2.2m/s | -21.5°C | 77.2% | 416.2hPa | 2.6V | 07:22:00 | 00:00:00 | 00:00:00 | |
| DB0NH | 2026-08-31 01:36:41 | 49.46411 | 11.26741 | 68° | 80km/h | 7183m | -2.2m/s | -21.5°C | 83.2% | 415.9hPa | 2.6V | 00:00:00 | 03:04:48 | 00:00:00 | |
| DL1NUX | 2026-08-31 01:36:38 | 49.46341 | 11.26554 | 54° | 77km/h | 7200m | -2.3m/s | -21.8°C | 86.2% | 414.8hPa | 2.6V | 07:22:07 | 03:04:40 | 00:00:00 | |
| DK7TD | 2026-08-31 01:36:35 | 49.46363 | 11.26601 | 56° | 71km/h | 7196m | -2.3m/s | -21.8°C | 79.8% | 415.1hPa | 2.5V | 07:22:20 | 03:04:42 | 00:00:00 | |
| DK5PH-5 | 2026-08-31 01:36:34 | 49.46352 | 11.26578 | 55° | 84km/h | 7198m | -1.9m/s | -21.8°C | 85.9% | 414.9hPa | 2.5V | 00:00:00 | 03:04:41 | 00:00:00 | |
| DJTTGO | 2026-08-31 01:36:31 | 49.46329 | 11.26530 | 55° | 80km/h | 7203m | -2.1m/s | -21.8°C | 78.9% | 414.8hPa | 2.5V | 00:00:00 | 00:00:00 | 00:00:00 | |
| SO1NDE-10 | 2026-08-31 01:36:29 | 49.46293 | 11.26452 | 55° | 84km/h | 7209m | -2.1m/s | -21.8°C | 84.2% | 414.3hPa | 2.5V | 00:00:00 | 03:04:36 | 00:00:00 | |
| DL1NUX | 2026-08-31 01:36:28 | 49.46222 | 11.26288 | 58° | 88km/h | 7222m | -2.3m/s | -21.9°C | 85.1% | 413.6hPa | 2.5V | 07:22:17 | 03:04:30 | 00:00:00 | |
| DK7TD | 2026-08-31 01:36:24 | 49.46233 | 11.26316 | 57° | 86km/h | 7219m | -2.4m/s | -21.9°C | 78.4% | 413.8hPa | 2.5V | 07:22:20 | 03:04:31 | 00:00:00 | |
| DM7RM-13 | 2026-08-31 01:36:23 | 49.46233 | 11.26316 | 58° | 86km/h | 7219m | -2.4m/s | -21.9°C | 78.4% | 413.8hPa | 2.5V | 07:22:00 | 00:00:00 | 00:00:00 | |
| DL1NUX | 2026-08-31 01:36:18 | 49.46117 | 11.25989 | 64° | 88km/h | 7245m | -2.5m/s | -22.1°C | 85.9% | 412.4hPa | 2.5V | 07:22:27 | 03:04:20 | 00:00:00 | |
| DK7TD | 2026-08-31 01:36:13 | 49.46117 | 11.25989 | 64° | 88km/h | 7245m | -2.5m/s | -22.1°C | 78.7% | 412.4hPa | 2.5V | 07:23:11 | 03:04:20 | 00:00:00 | |
| DB0NH | 2026-08-31 01:36:11 | 49.46099 | 11.25928 | 66° | 78km/h | 7251m | -2.5m/s | -22.1°C | 86.4% | 412.1hPa | 2.6V | 00:00:00 | 03:04:18 | 00:00:00 | |
| DM0DOS-11 | 2026-08-31 01:36:10 | 49.46058 | 11.25774 | 70° | 82km/h | 7263m | -2.6m/s | -22.2°C | 85.5% | 411.3hPa | 2.6V | 07:22:34 | 03:04:13 | 00:00:00 | |
| DL1NUX | 2026-08-31 01:36:08 | 49.46040 | 11.25685 | 72° | 77km/h | 7272m | -3m/s | -22.3°C | 85.3% | 410.8hPa | 2.5V | 07:22:37 | 03:04:10 | 00:00:00 | |
| DK7TD | 2026-08-31 01:36:03 | 49.46040 | 11.25685 | 73° | 77km/h | 7272m | -3m/s | -22.3°C | 80.1% | 410.9hPa | 2.5V | 07:23:11 | 03:04:10 | 00:00:00 | |
| SO1NDE-10 | 2026-08-31 01:35:59 | 49.46017 | 11.25575 | 72° | 80km/h | 7284m | -2.9m/s | -22.4°C | 85.7% | 410.2hPa | 2.5V | 00:00:00 | 03:04:06 | 00:00:00 | |
| DL1NUX | 2026-08-31 01:35:58 | 49.45974 | 11.25429 | 59° | 71km/h | 7298m | -2.5m/s | -22.6°C | 86.9% | 409.4hPa | 2.5V | 07:22:47 | 03:04:00 | 00:00:00 | |
| DK7TD | 2026-08-31 01:35:53 | 49.45973 | 11.25429 | 59° | 71km/h | 7298m | -2.5m/s | -22.6°C | 80% | 409.4hPa | 2.5V | 07:23:11 | 03:04:00 | 00:00:00 | |
| DB0UT-7 | 2026-08-31 01:35:53 | 49.45973 | 11.25429 | 60° | 77km/h | 7298m | -2.5m/s | -22.5°C | 86.9% | 409.3hPa | 2.6V | 00:00:00 | 03:04:00 | 00:00:00 | |
| DJTTGO | 2026-08-31 01:35:50 | 49.45954 | 11.25380 | 59° | 77km/h | 7303m | -2.1m/s | -22.6°C | 80.7% | 409.2hPa | 2.6V | 00:00:00 | 00:00:00 | 00:00:00 | |
| DL1NUX | 2026-08-31 01:35:48 | 49.45870 | 11.25159 | 61° | 86km/h | 7319m | -2m/s | -22.8°C | 87.6% | 408.2hPa | 2.6V | 07:22:57 | 03:03:50 | 00:00:00 | |
| DK7TD | 2026-08-31 01:35:42 | 49.45860 | 11.25129 | 62° | 88km/h | 7322m | -1.7m/s | -22.8°C | 80.7% | 408.1hPa | 2.5V | 07:23:11 | 03:03:49 | 00:00:00 | |
| BIOWL1-15 | 2026-08-31 01:35:41 | 49.45839 | 11.25069 | 63° | 88km/h | 7325m | -1.6m/s | -22.8°C | 80.1% | 407.9hPa | 2.6V | 07:24:53 | 03:03:47 | 00:00:00 | |
| DL1NUX | 2026-08-31 01:35:38 | 49.45781 | 11.24846 | 73° | 84km/h | 7336m | -1.9m/s | -22.8°C | 81% | 407.3hPa | 2.5V | 07:23:07 | 03:03:40 | 00:00:00 | |
| DO3MHA-11 | 2026-08-31 01:35:36 | 49.45803 | 11.24942 | 69° | 80km/h | 7331m | -1.6m/s | -22.7°C | 79.4% | 407.5hPa | 2.6V | 00:00:00 | 03:03:43 | 00:00:00 | |
| DM0DOS-11 | 2026-08-31 01:35:35 | 49.45776 | 11.24815 | 74° | 82km/h | 7338m | -1.8m/s | -22.8°C | 81% | 407.2hPa | 2.5V | 07:23:08 | 03:03:39 | 00:00:00 | |
| DK7TD | 2026-08-31 01:35:32 | 49.45776 | 11.24815 | 75° | 82km/h | 7338m | -1.8m/s | -22.8°C | 74.8% | 407.2hPa | 2.5V | 07:23:11 | 03:03:39 | 00:00:00 | |
| SO1NDE-10 | 2026-08-31 01:35:29 | 49.45760 | 11.24727 | 76° | 77km/h | 7344m | -2.1m/s | -22.8°C | 81.2% | 406.8hPa | 2.6V | 00:00:00 | 03:03:36 | 00:00:00 | |
| DL1NUX | 2026-08-31 01:35:28 | 49.45728 | 11.24576 | 65° | 66km/h | 7355m | -2m/s | -22.9°C | 81% | 406.2hPa | 2.6V | 07:23:17 | 03:03:30 | 00:00:00 | |
| BIOWL1-15 | 2026-08-31 01:35:28 | 49.45756 | 11.24699 | 75° | 71km/h | 7346m | -1.9m/s | -22.9°C | 75.1% | 406.7hPa | 2.6V | 07:24:53 | 03:03:35 | 00:00:00 | |
| DF9NV-10 | 2026-08-31 01:35:27 | 49.45755 | 11.24699 | 76° | 71km/h | 7346m | -1.9m/s | -22.9°C | 75.2% | 406.7hPa | 2.6V | 07:24:00 | 00:00:00 | 00:00:00 | |
| DO3MHA-11 | 2026-08-31 01:35:26 | 49.45745 | 11.24647 | 72° | 69km/h | 7349m | -1.7m/s | -22.9°C | 81.1% | 406.5hPa | 2.6V | 00:00:00 | 03:03:33 | 00:00:00 | |
| DM0DOS-11 | 2026-08-31 01:35:25 | 49.45720 | 11.24553 | 63° | 66km/h | 7357m | -2m/s | -23°C | 81.5% | 406.1hPa | 2.6V | 07:23:18 | 03:03:29 | 00:00:00 | |
| DK7TD | 2026-08-31 01:35:22 | 49.45720 | 11.24553 | 64° | 66km/h | 7357m | -2m/s | -23°C | 75.4% | 406.1hPa | 2.6V | 07:24:02 | 03:03:29 | 00:00:00 | |
| DB0ND-19 | 2026-08-31 01:35:20 | 49.45685 | 11.24456 | 59° | 77km/h | 7365m | -1.5m/s | -23.0°C | 75.1% | 405.7hPa | 2.6V | 00:00:00 | 00:00:00 | 00:00:00 | |
| DL1NUX | 2026-08-31 01:35:18 | 49.45638 | 11.24309 | 68° | 86km/h | 7374m | -2.4m/s | -23.1°C | 81.6% | 405.1hPa | 2.6V | 07:23:27 | 03:03:20 | 00:00:00 | |
| DB0UT-7 | 2026-08-31 01:35:18 | 49.45685 | 11.24456 | 60° | 80km/h | 7365m | -1.5m/s | -23.0°C | 81.4% | 405.6hPa | 2.6V | 00:00:00 | 00:00:00 | 00:00:00 | |
| DO3MHA-11 | 2026-08-31 01:35:16 | 49.45665 | 11.24401 | 63° | 86km/h | 7368m | -1.5m/s | -23.0°C | 82.6% | 405.5hPa | 2.6V | 00:00:00 | 03:03:23 | 00:00:00 | |
| DM0DOS-11 | 2026-08-31 01:35:15 | 49.45631 | 11.24278 | 69° | 86km/h | 7376m | -1.6m/s | -23.1°C | 81% | 405.1hPa | 2.6V | 07:23:28 | 03:03:19 | 00:00:00 | |
| DK7TD | 2026-08-31 01:35:12 | 49.45631 | 11.24278 | 70° | 86km/h | 7376m | -1.6m/s | -23.1°C | 75.3% | 405.1hPa | 2.6V | 07:24:02 | 03:03:19 | 00:00:00 | |
| DB0NH | 2026-08-31 01:35:11 | 49.45623 | 11.24246 | 71° | 80km/h | 7377m | -1.9m/s | -23.1°C | 81.5% | 404.9hPa | 2.5V | 00:00:00 | 03:03:18 | 00:00:00 | |
| DL1NUX | 2026-08-31 01:35:08 | 49.45577 | 11.24004 | 75° | 75km/h | 7390m | -1.7m/s | -23.2°C | 79.7% | 404.2hPa | 2.5V | 07:23:37 | 03:03:10 | 00:00:00 | |
| BIOWL1-15 | 2026-08-31 01:35:07 | 49.45587 | 11.24062 | 75° | 78km/h | 7387m | -1.6m/s | -23.2°C | 76.1% | 404.4hPa | 2.6V | 07:24:53 | 03:03:12 | 00:00:00 | |
| DK7TD | 2026-08-31 01:35:01 | 49.45567 | 11.23948 | 75° | 71km/h | 7394m | -1.6m/s | -23.3°C | 74.7% | 404.1hPa | 2.6V | 07:24:02 | 03:03:08 | 00:00:00 | |
| SO1NDE-10 | 2026-08-31 01:34:59 | 49.45557 | 11.23896 | 71° | 78km/h | 7397m | -1.7m/s | -23.3°C | 80.3% | 403.8hPa | 2.6V | 00:00:00 | 03:03:06 | 00:00:00 | |
| DL1NUX | 2026-08-31 01:34:58 | 49.45510 | 11.23747 | 60° | 78km/h | 7406m | -1.7m/s | -23.4°C | 79.5% | 403.3hPa | 2.6V | 07:23:47 | 03:03:00 | 00:00:00 | |
| BIOWL9-15 | 2026-08-31 01:34:57 | 49.45480 | 11.23663 | 62° | 84km/h | 7412m | -2.0m/s | -23.4°C | 74.2% | 403.0hPa | 2.5V | 00:00:00 | 00:00:00 | 00:00:00 | |
| DO3MHA-11 | 2026-08-31 01:34:56 | 49.45537 | 11.23823 | 64° | 80km/h | 7402m | -1.5m/s | -23.3°C | 79.9% | 403.6hPa | 2.5V | 07:23:00 | 03:03:03 | 00:00:00 | |
| DM0DOS-11 | 2026-08-31 01:34:55 | 49.45500 | 11.23720 | 60° | 80km/h | 7408m | -1.8m/s | -23.4°C | 79.8% | 403.4hPa | 2.5V | 07:23:48 | 03:02:59 | 00:00:00 | |
| DK7TD | 2026-08-31 01:34:51 | 49.45490 | 11.23692 | 61° | 84km/h | 7410m | -1.8m/s | -23.4°C | 74.2% | 403.1hPa | 2.5V | 07:24:02 | 03:02:58 | 00:00:00 | |
| DB0ND-19 | 2026-08-31 01:34:49 | 49.45470 | 11.23633 | 63° | 86km/h | 7414m | -2.1m/s | -23.4°C | 74.0% | 403.0hPa | 2.6V | 00:00:00 | 00:00:00 | 00:00:00 | |
| DL1NUX | 2026-08-31 01:34:48 | 49.45419 | 11.23443 | 72° | 88km/h | 7426m | -2.1m/s | -23.5°C | 78.8% | 402.2hPa | 2.6V | 07:23:57 | 03:02:50 | 00:00:00 | |
| BIOWL1-15 | 2026-08-31 01:34:46 | 49.45441 | 11.23540 | 68° | 89km/h | 7420m | -2.1m/s | -23.5°C | 74.5% | 402.6hPa | 2.5V | 07:24:53 | 03:02:53 | 00:00:00 | |
| DO3MHA-11 | 2026-08-31 01:34:46 | 49.45441 | 11.23540 | 68° | 86km/h | 7420m | -2.0m/s | -23.4°C | 80.0% | 402.6hPa | 2.6V | 00:00:00 | 03:02:53 | 00:00:00 | |
| DM0DOS-11 | 2026-08-31 01:34:45 | 49.45412 | 11.23410 | 73° | 88km/h | 7428m | -2.2m/s | -23.5°C | 78.9% | 402.2hPa | 2.6V | 07:23:58 | 03:02:49 | 00:00:00 | |
| DK7TD | 2026-08-31 01:34:39 | 49.45396 | 11.23315 | 76° | 82km/h | 7436m | -2.7m/s | -23.6°C | 75.3% | 401.8hPa | 2.5V | 07:24:02 | 03:02:46 | 00:00:00 | |
| DL1NUX | 2026-08-31 01:34:38 | 49.45369 | 11.23141 | 75° | 73km/h | 7448m | -2.4m/s | -23.7°C | 79.8% | 401hPa | 2.5V | 07:24:07 | 03:02:40 | 00:00:00 | |
| DB0UT-7 | 2026-08-31 01:34:37 | 49.45386 | 11.23254 | 78° | 78km/h | 7440m | -1.9m/s | -23.6°C | 79.2% | 401.4hPa | 2.6V | 00:00:00 | 03:02:44 | 00:00:00 | |
| DO3MHA-11 | 2026-08-31 01:34:36 | 49.45382 | 11.23225 | 78° | 71km/h | 7442m | -1.5m/s | -23.7°C | 79.8% | 401.4hPa | 2.6V | 00:00:00 | 03:02:43 | 00:00:00 | |
| DM0DOS-11 | 2026-08-31 01:34:35 | 49.45359 | 11.23087 | 74° | 71km/h | 7453m | -2.1m/s | -23.8°C | 80.2% | 400.8hPa | 2.6V | 07:24:09 | 03:02:38 | 00:00:00 | |
| BIOWL1-15 | 2026-08-31 01:34:31 | 49.45354 | 11.23061 | 73° | 69km/h | 7455m | -2m/s | -23.8°C | 74.7% | 400.7hPa | 2.6V | 07:24:53 | 03:02:37 | 00:00:00 | |
| DK7TD | 2026-08-31 01:34:28 | 49.45343 | 11.23010 | 70° | 69km/h | 7459m | -2.5m/s | -23.9°C | 74.6% | 400.5hPa | 2.5V | 07:24:53 | 03:02:35 | 00:00:00 | |
| DL1NUX | 2026-08-31 01:34:28 | 49.45306 | 11.22882 | 64° | 77km/h | 7471m | -2.3m/s | -24°C | 82.3% | 399.9hPa | 2.6V | 07:24:17 | 03:02:30 | 00:00:00 | |
| DO3MHA-11 | 2026-08-31 01:34:26 | 49.45330 | 11.22960 | 67° | 78km/h | 7465m | -2.4m/s | -23.9°C | 81.5% | 400.1hPa | 2.5V | 00:00:00 | 03:02:33 | 00:00:00 | |
| DM0DOS-11 | 2026-08-31 01:34:25 | 49.45289 | 11.22827 | 64° | 80km/h | 7476m | -2.5m/s | -24°C | 79.9% | 399.6hPa | 2.5V | 07:24:19 | 03:02:28 | 00:00:00 | |
| DJTTGO | 2026-08-31 01:34:23 | 49.45315 | 11.22909 | 66° | 75km/h | 7469m | -2.4m/s | -24.0°C | 75.3% | 400.0hPa | 2.6V | 00:00:00 | 00:00:00 | 00:00:00 | |
| OE5DXL-15 | 2026-08-31 01:34:21 | 49.45289 | 11.22827 | 65° | 84km/h | 7476m | -2.5m/s | -24.0°C | 79.9% | 399.5hPa | 2.6V | 00:00:00 | 00:00:00 | 00:00:00 | |
| DL1NUX | 2026-08-31 01:34:18 | 49.45223 | 11.22582 | 70° | 88km/h | 7497m | -2.5m/s | -24.2°C | 79.4% | 398.5hPa | 2.6V | 07:24:27 | 03:02:20 | 00:00:00 | |
| DO3MHA-11 | 2026-08-31 01:34:16 | 49.45246 | 11.22677 | 69° | 88km/h | 7489m | -2.6m/s | -24.1°C | 79.8% | 398.9hPa | 2.6V | 00:00:00 | 03:02:23 | 00:00:00 | |
| DM0DOS-11 | 2026-08-31 01:34:15 | 49.45209 | 11.22517 | 72° | 88km/h | 7502m | -2.6m/s | -24.2°C | 79.1% | 398.2hPa | 2.6V | 07:24:29 | 03:02:18 | 00:00:00 | |
| BIOWL1-15 | 2026-08-31 01:34:13 | 49.45223 | 11.22582 | 71° | 88km/h | 7497m | -2.6m/s | -24.2°C | 74.7% | 398.5hPa | 2.6V | 07:24:53 | 03:02:20 | 00:00:00 | |
| DK7TD | 2026-08-31 01:34:10 | 49.45203 | 11.22485 | 73° | 88km/h | 7504m | -2.5m/s | -24.2°C | 74.6% | 398hPa | 2.5V | 07:24:53 | 03:02:17 | 00:00:00 | |
| DL1NUX | 2026-08-31 01:34:08 | 49.45166 | 11.22263 | 77° | 82km/h | 7523m | -3m/s | -24.3°C | 74.9% | 397hPa | 2.5V | 07:24:37 | 03:02:10 | 00:00:00 | |
| DB0UT-7 | 2026-08-31 01:34:07 | 49.45185 | 11.22388 | 76° | 77km/h | 7512m | -2.5m/s | -24.3°C | 80.2% | 397.6hPa | 2.6V | 00:00:00 | 00:00:00 | 00:00:00 | |
| DO3MHA-11 | 2026-08-31 01:34:06 | 49.45180 | 11.22357 | 77° | 82km/h | 7515m | -2.7m/s | -24.3°C | 80.2% | 397.4hPa | 2.6V | 00:00:00 | 03:02:13 | 00:00:00 | |
| DM0DOS-11 | 2026-08-31 01:34:05 | 49.45157 | 11.22201 | 77° | 80km/h | 7529m | -2.6m/s | -24.3°C | 75.4% | 396.6hPa | 2.6V | 07:24:39 | 03:02:08 | 00:00:00 | |
| BIOWL1-15 | 2026-08-31 01:34:04 | 49.45161 | 11.22232 | 78° | 82km/h | 7526m | -2.9m/s | -24.3°C | 70.5% | 396.8hPa | 2.5V | 07:24:53 | 03:02:09 | 00:00:00 | |
| DK7TD | 2026-08-31 01:33:59 | 49.45149 | 11.22140 | 78° | 80km/h | 7534m | -2.9m/s | -24.4°C | 71.2% | 396.4hPa | 2.6V | 07:24:53 | 03:02:06 | 00:00:00 | |
| SO1NDE-10 | 2026-08-31 01:33:59 | 49.45149 | 11.22140 | 79° | 73km/h | 7535m | -2.9m/s | -24.4°C | 76.0% | 396.4hPa | 2.6V | 00:00:00 | 03:02:06 | 00:00:00 | |
| DL1NUX | 2026-08-31 01:33:58 | 49.45125 | 11.21957 | 79° | 78km/h | 7551m | -2.9m/s | -24.5°C | 76.1% | 395.5hPa | 2.6V | 07:24:47 | 03:02:00 | 00:00:00 | |
| DO3MHA-11 | 2026-08-31 01:33:56 | 49.45136 | 11.22048 | 79° | 77km/h | 7543m | -3.0m/s | -24.4°C | 75.8% | 395.9hPa | 2.5V | 00:00:00 | 03:02:03 | 00:00:00 | |
| DM0DOS-11 | 2026-08-31 01:33:55 | 49.45118 | 11.21898 | 79° | 77km/h | 7557m | -3.1m/s | -24.6°C | 76.1% | 395.2hPa | 2.5V | 07:24:49 | 03:01:58 | 00:00:00 | |
| BIOWL1-15 | 2026-08-31 01:33:52 | 49.45114 | 11.21869 | 80° | 77km/h | 7560m | -2.9m/s | -24.6°C | 71.5% | 395hPa | 2.5V | 07:24:53 | 03:01:57 | 00:00:00 | |
| DK7TD | 2026-08-31 01:33:49 | 49.45111 | 11.21840 | 80° | 75km/h | 7563m | -3.1m/s | -24.6°C | 71.4% | 394.9hPa | 2.6V | 07:24:53 | 03:01:56 | 00:00:00 | |
| DL1NUX | 2026-08-31 01:33:48 | 49.45090 | 11.21674 | 77° | 69km/h | 7583m | -3.3m/s | -24.8°C | 76.9% | 393.8hPa | 2.6V | 07:24:57 | 03:01:50 | 00:00:00 | |
| DB0ND-19 | 2026-08-31 01:33:47 | 49.45104 | 11.21784 | 79° | 73km/h | 7570m | -3.3m/s | -24.7°C | 0% | 394.5hPa | 2.5V | 00:00:00 | 00:00:00 | 00:00:00 | |
| BIOWL1-15 | 2026-08-31 01:33:39 | 49.45073 | 11.21571 | 75° | 68km/h | 7594m | -2.8m/s | -24.9°C | 72.5% | 393.2hPa | 2.5V | 07:25:44 | 03:01:46 | 00:00:00 | |
| DL1NUX | 2026-08-31 01:33:38 | 49.45044 | 11.21423 | 72° | 66km/h | 7612m | -2.9m/s | -25.1°C | 76.6% | 392.2hPa | 2.5V | 07:25:07 | 03:01:40 | 00:00:00 | |
| DK7TD | 2026-08-31 01:33:38 | 49.45069 | 11.21546 | 74° | 68km/h | 7597m | -2.9m/s | -24.9°C | 72% | 393hPa | 2.5V | 07:29:59 | 03:01:45 | 00:00:00 | |
| DO3MHA-11 | 2026-08-31 01:33:36 | 49.45059 | 11.21496 | 73° | 66km/h | 7603m | -3.3m/s | -24.9°C | 75.7% | 392.7hPa | 2.6V | 07:25:00 | 03:01:43 | 00:00:00 | |
| DB0UT-7 | 2026-08-31 01:33:35 | 49.45054 | 11.21472 | 73° | 78km/h | 7606m | -3.0m/s | -24.9°C | 75.9% | 392.5hPa | 2.6V | 00:00:00 | 03:01:42 | 00:00:00 | |
| DK5PH-5 | 2026-08-31 01:33:34 | 49.45049 | 11.21447 | 73° | 77km/h | 7609m | -3.0m/s | -25.0°C | 76.3% | 392.3hPa | 2.5V | 00:00:00 | 03:01:41 | 00:00:00 | |
| DO9HM | 2026-08-31 01:33:31 | 49.45039 | 11.21399 | 74° | 66km/h | 7615m | -2.8m/s | -25.1°C | 70.8% | 392.0hPa | 2.6V | 07:25:00 | 00:00:00 | 00:00:00 | |
| SO1NDE-10 | 2026-08-31 01:33:29 | 49.45024 | 11.21326 | 71° | 78km/h | 7624m | -2.8m/s | -25.1°C | 78.0% | 391.6hPa | 2.6V | 00:00:00 | 03:01:36 | 00:00:00 | |
| DL1NUX | 2026-08-31 01:33:28 | 49.44984 | 11.21179 | 65° | 73km/h | 7642m | -3.2m/s | -25.4°C | 78.8% | 390.6hPa | 2.6V | 07:25:17 | 03:01:30 | 00:00:00 | |
| DL6DJ-15 | 2026-08-31 01:33:28 | 49.45012 | 11.21278 | 68° | 66km/h | 7629m | -3.1m/s | -25.3°C | 72.7% | 391.3hPa | 2.5V | 00:00:00 | 00:00:00 | 00:00:00 | |
| DO3MHA-11 | 2026-08-31 01:33:26 | 49.45006 | 11.21254 | 68° | 75km/h | 7632m | -3.2m/s | -25.3°C | 79.4% | 391.1hPa | 2.5V | 00:00:00 | 03:01:33 | 00:00:00 | |
| DM0DOS-11 | 2026-08-31 01:33:25 | 49.44968 | 11.21127 | 64° | 75km/h | 7648m | -3.1m/s | -25.4°C | 78% | 390.3hPa | 2.5V | 07:25:19 | 03:01:28 | 00:00:00 | |
| BIOWL1-15 | 2026-08-31 01:33:25 | 49.44999 | 11.21229 | 67° | 69km/h | 7636m | -3.2m/s | -25.3°C | 73.6% | 390.9hPa | 2.6V | 07:25:44 | 03:01:32 | 00:00:00 | |
| DK7TD | 2026-08-31 01:33:23 | 49.44984 | 11.21179 | 65° | 73km/h | 7642m | -3.2m/s | -25.4°C | 73.4% | 390.6hPa | 2.6V | 07:29:59 | 03:01:30 | 00:00:00 | |
| BIOWL1-15 | 2026-08-31 01:33:19 | 49.44919 | 11.20956 | 68° | 84km/h | 7667m | -3.2m/s | -25.6°C | 74.4% | 389.3hPa | 2.5V | 07:25:44 | 03:01:22 | 00:00:00 | |
| DL1NUX | 2026-08-31 01:33:18 | 49.44904 | 11.20895 | 70° | 84km/h | 7673m | -3.5m/s | -25.6°C | 78.2% | 388.9hPa | 2.6V | 07:25:27 | 03:01:20 | 00:00:00 | |
| DO3MHA-11 | 2026-08-31 01:33:16 | 49.44927 | 11.20986 | 68° | 86km/h | 7664m | -3.2m/s | -25.5°C | 79.3% | 389.4hPa | 2.5V | 00:00:00 | 03:01:23 | 00:00:00 | |
| DM0DOS-11 | 2026-08-31 01:33:15 | 49.44890 | 11.20832 | 72° | 86km/h | 7681m | -3.4m/s | -25.6°C | 73.7% | 388.5hPa | 2.5V | 07:25:29 | 03:01:18 | 00:00:00 | |
| DK7TD | 2026-08-31 01:33:13 | 49.44904 | 11.20895 | 70° | 84km/h | 7673m | -3.5m/s | -25.6°C | 74.8% | 388.9hPa | 2.6V | 07:29:59 | 03:01:20 | 00:00:00 | |
| DB0NH | 2026-08-31 01:33:11 | 49.44890 | 11.20832 | 73° | 77km/h | 7681m | -3.4m/s | -25.5°C | 73.7% | 388.5hPa | 2.5V | 07:25:00 | 03:01:18 | 00:00:00 | |
| DF7PN | 2026-08-31 01:33:10 | 49.44878 | 11.20768 | 74° | 86km/h | 7688m | -3.4m/s | -25.6°C | 67.9% | 388.0hPa | 2.5V | 00:00:00 | 00:00:00 | 00:00:00 | |
| DL1NUX | 2026-08-31 01:33:08 | 49.44851 | 11.20578 | 80° | 77km/h | 7707m | -2.8m/s | -25.8°C | 75.2% | 387.1hPa | 2.5V | 07:25:37 | 03:01:10 | 00:00:00 | |
| DO3MHA-11 | 2026-08-31 01:33:06 | 49.44862 | 11.20670 | 79° | 73km/h | 7698m | -3.2m/s | -25.7°C | 75.5% | 387.6hPa | 2.5V | 00:00:00 | 03:01:13 | 00:00:00 | |
| DM0DOS-11 | 2026-08-31 01:33:05 | 49.44840 | 11.20497 | 76° | 68km/h | 7715m | -2.8m/s | -25.9°C | 76.5% | 386.6hPa | 2.6V | 07:25:40 | 03:01:07 | 00:00:00 | |
| DK7TD | 2026-08-31 01:33:02 | 49.44847 | 11.20549 | 80° | 73km/h | 7710m | -2.8m/s | -25.9°C | 71% | 386.9hPa | 2.5V | 07:29:59 | 03:01:09 | 00:00:00 | |
| BIOWL1-15 | 2026-08-31 01:33:01 | 49.44844 | 11.20522 | 78° | 69km/h | 7713m | -2.8m/s | -25.9°C | 71.1% | 386.8hPa | 2.6V | 07:25:44 | 03:01:08 | 00:00:00 | |
| DL1NUX | 2026-08-31 01:32:58 | 49.44799 | 11.20326 | 65° | 71km/h | 7738m | -3.9m/s | -26.1°C | 77% | 385.5hPa | 2.5V | 07:25:47 | 03:01:00 | 00:00:00 | |
| DL6DJ-15 | 2026-08-31 01:32:57 | 49.44819 | 11.20399 | 68° | 66km/h | 7727m | -3.3m/s | -26.0°C | 70.6% | 386.0hPa | 2.6V | 00:00:00 | 00:00:00 | 00:00:00 | |
| DO3MHA-11 | 2026-08-31 01:32:56 | 49.44819 | 11.20399 | 69° | 75km/h | 7728m | -3.3m/s | -26.0°C | 77.2% | 386.0hPa | 2.6V | 00:00:00 | 03:01:03 | 00:00:00 | |
| DM0DOS-11 | 2026-08-31 01:32:55 | 49.44775 | 11.20247 | 65° | 77km/h | 7750m | -3.6m/s | -26.3°C | 80.6% | 384.8hPa | 2.6V | 07:25:50 | 03:00:57 | 00:00:00 | |
| BIOWL1-15 | 2026-08-31 01:32:54 | 49.44775 | 11.20247 | 65° | 77km/h | 7750m | -3.6m/s | -26.3°C | 76.2% | 384.8hPa | 2.6V | 07:26:35 | 03:00:57 | 00:00:00 | |
| DK7TD | 2026-08-31 01:32:51 | 49.44783 | 11.20274 | 65° | 75km/h | 7746m | -3.6m/s | -26.3°C | 75% | 385hPa | 2.5V | 07:29:59 | 03:00:58 | 00:00:00 | |
| SONCRA | 2026-08-31 01:32:49 | 49.44759 | 11.20191 | 66° | 78km/h | 7757m | -3.9m/s | -26.4°C | 73.5% | 384.5hPa | 2.6V | 00:00:00 | 00:00:00 | 00:00:00 | |
| DL1NUX | 2026-08-31 01:32:48 | 49.44719 | 11.20043 | 68° | 84km/h | 7777m | -3.9m/s | -26.6°C | 79.5% | 383.3hPa | 2.6V | 07:25:57 | 03:00:50 | 00:00:00 | |
| DO3MHA-11 | 2026-08-31 01:32:46 | 49.44742 | 11.20133 | 68° | 86km/h | 7765m | -3.8m/s | -26.4°C | 80.2% | 383.9hPa | 2.5V | 00:00:00 | 03:00:53 | 00:00:00 | |
| DM0DOS-11 | 2026-08-31 01:32:45 | 49.44695 | 11.19949 | 69° | 88km/h | 7789m | -3.9m/s | -26.6°C | 78.8% | 382.8hPa | 2.5V | 07:26:00 | 03:00:47 | 00:00:00 | |
| BIOWL1-15 | 2026-08-31 01:32:40 | 49.44695 | 11.19949 | 70° | 88km/h | 7789m | -3.9m/s | -26.7°C | 74% | 382.8hPa | 2.5V | 07:26:35 | 03:00:47 | 00:00:00 | |
| DL1NUX | 2026-08-31 01:32:38 | 49.44646 | 11.19718 | 73° | 91km/h | 7816m | -3.7m/s | -26.9°C | 80.9% | 381.4hPa | 2.5V | 07:26:07 | 03:00:40 | 00:00:00 | |
| DO3MHA-11 | 2026-08-31 01:32:36 | 49.44666 | 11.19819 | 72° | 91km/h | 7804m | -3.8m/s | -26.6°C | 74.3% | 381.9hPa | 2.6V | 00:00:00 | 03:00:43 | 00:00:00 | |
| DM0DOS-11 | 2026-08-31 01:32:35 | 49.44628 | 11.19617 | 75° | 91km/h | 7827m | -3.7m/s | -27°C | 79% | 380.8hPa | 2.5V | 07:26:10 | 03:00:37 | 00:00:00 | |
| BIOWL1-15 | 2026-08-31 01:32:30 | 49.44628 | 11.19617 | 76° | 91km/h | 7827m | -3.7m/s | -27°C | 74% | 380.8hPa | 2.5V | 07:26:35 | 03:00:37 | 00:00:00 | |
| DK7TD | 2026-08-31 01:32:29 | 49.44623 | 11.19583 | 77° | 91km/h | 7831m | -3.8m/s | -27°C | 72.3% | 380.6hPa | 2.5V | 07:29:59 | 03:00:36 | 00:00:00 | |
| SO1NDE-10 | 2026-08-31 01:32:29 | 49.44623 | 11.19582 | 77° | 84km/h | 7831m | -3.7m/s | -26.9°C | 76.8% | 380.5hPa | 2.6V | 00:00:00 | 03:00:36 | 00:00:00 | |
| DL1NUX | 2026-08-31 01:32:28 | 49.44594 | 11.19374 | 79° | 91km/h | 7853m | -3.7m/s | -27.1°C | 74.6% | 379.4hPa | 2.6V | 07:26:17 | 03:00:30 | 00:00:00 | |
| DF3TZ-5 | 2026-08-31 01:32:27 | 49.44612 | 11.19513 | 77° | 91km/h | 7838m | -4.0m/s | -27.0°C | 67.4% | 380.2hPa | 2.5V | 00:00:00 | 00:00:00 | 00:00:00 | |
| DL6DJ-15 | 2026-08-31 01:32:26 | 49.44603 | 11.19444 | 78° | 91km/h | 7846m | -3.8m/s | -27.0°C | 67.3% | 379.7hPa | 2.5V | 00:00:00 | 00:00:00 | 00:00:00 | |
| DM0DOS-11 | 2026-08-31 01:32:25 | 49.44582 | 11.19269 | 81° | 91km/h | 7864m | -3.9m/s | -27.2°C | 75% | 378.7hPa | 2.5V | 07:26:20 | 03:00:27 | 00:00:00 | |
| BIOWL1-15 | 2026-08-31 01:32:20 | 49.44582 | 11.19269 | 81° | 91km/h | 7864m | -3.9m/s | -27.2°C | 71.6% | 378.8hPa | 2.5V | 07:26:35 | 03:00:27 | 00:00:00 | |
| DK7TD | 2026-08-31 01:32:19 | 49.44579 | 11.19234 | 82° | 91km/h | 7868m | -3.8m/s | -27.2°C | 71.9% | 378.6hPa | 2.5V | 07:29:59 | 03:00:26 | 00:00:00 | |
| DL1NUX | 2026-08-31 01:32:18 | 49.44563 | 11.19030 | 84° | 84km/h | 7891m | -3.8m/s | -27.4°C | 76% | 377.3hPa | 2.5V | 07:26:27 | 03:00:20 | 00:00:00 | |
| BIOWL1-15 | 2026-08-31 01:32:09 | 49.44553 | 11.18905 | 82° | 77km/h | 7906m | -3.5m/s | -27.6°C | 72.9% | 376.6hPa | 2.6V | 07:26:35 | 03:00:16 | 00:00:00 | |
| DK7TD | 2026-08-31 01:32:08 | 49.44551 | 11.18876 | 81° | 77km/h | 7910m | -3.6m/s | -27.6°C | 73.1% | 376.5hPa | 2.5V | 07:29:59 | 03:00:15 | 00:00:00 | |
| DL1NUX | 2026-08-31 01:32:08 | 49.44530 | 11.18733 | 74° | 77km/h | 7927m | -3.5m/s | -27.8°C | 77.5% | 375.5hPa | 2.5V | 07:26:37 | 03:00:10 | 00:00:00 | |
| BIOWL1-15 | 2026-08-31 01:32:01 | 49.44507 | 11.18617 | 72° | 78km/h | 7942m | -3.5m/s | -27.8°C | 72.2% | 374.7hPa | 2.5V | 07:27:26 | 03:00:06 | 00:00:00 | |
| SO1NDE-10 | 2026-08-31 01:31:59 | 49.44507 | 11.18617 | 73° | 89km/h | 7942m | -3.5m/s | -27.8°C | 77.8% | 374.7hPa | 2.5V | 00:00:00 | 03:00:06 | 00:00:00 | |
| DL1NUX | 2026-08-31 01:31:58 | 49.44468 | 11.18441 | 69° | 82km/h | 7963m | -3.6m/s | -27.9°C | 77.5% | 373.5hPa | 2.5V | 07:26:47 | 03:00:00 | 00:00:00 | |
| BIOWL1-15 | 2026-08-31 01:31:51 | 49.44438 | 11.18319 | 70° | 88km/h | 7978m | -3.8m/s | -28°C | 73.3% | 372.8hPa | 2.6V | 07:27:26 | 02:59:56 | 00:00:00 | |
| DK7TD | 2026-08-31 01:31:50 | 49.44446 | 11.18350 | 70° | 86km/h | 7974m | -3.6m/s | -28°C | 73.2% | 373hPa | 2.6V | 07:29:59 | 02:59:57 | 00:00:00 | |
| SONCRA | 2026-08-31 01:31:46 | 49.44415 | 11.18221 | 70° | 91km/h | 7988m | -3.5m/s | -28.1°C | 70.3% | 372.3hPa | 2.6V | 00:00:00 | 00:00:00 | 00:00:00 | |
| BIOWL1-15 | 2026-08-31 01:31:40 | 49.44358 | 11.17939 | 76° | 97km/h | 8016m | -3.3m/s | -28.3°C | 74.6% | 370.9hPa | 2.6V | 07:27:26 | 02:59:45 | 00:00:00 | |
| DK7TD | 2026-08-31 01:31:39 | 49.44364 | 11.17976 | 75° | 97km/h | 8012m | -3.3m/s | -28.3°C | 74.4% | 371.1hPa | 2.6V | 07:29:59 | 02:59:46 | 00:00:00 | |
| DO3MHA-11 | 2026-08-31 01:31:36 | 49.44347 | 11.17866 | 77° | 95km/h | 8022m | -3.3m/s | -28.3°C | 78.3% | 370.4hPa | 2.5V | 00:00:00 | 02:59:43 | 00:00:00 | |
| DM0DOS-11 | 2026-08-31 01:31:35 | 49.44316 | 11.17647 | 79° | 95km/h | 8042m | -3.4m/s | -28.5°C | 78.7% | 369.5hPa | 2.5V | 07:27:10 | 02:59:37 | 00:00:00 | |
| DK7TD | 2026-08-31 01:31:29 | 49.44311 | 11.17611 | 80° | 93km/h | 8046m | -3.4m/s | -28.5°C | 74.3% | 369.4hPa | 2.5V | 07:29:59 | 02:59:36 | 00:00:00 | |
| SO1NDE-10 | 2026-08-31 01:31:29 | 49.44311 | 11.17611 | 80° | 82km/h | 8046m | -3.3m/s | -28.4°C | 78.6% | 369.3hPa | 2.6V | 00:00:00 | 02:59:36 | 00:00:00 | |
| DL1NUX | 2026-08-31 01:31:28 | 49.44289 | 11.17406 | 80° | 86km/h | 8065m | -3m/s | -28.6°C | 79% | 368.4hPa | 2.6V | 07:27:17 | 02:59:30 | 00:00:00 | |
| BIOWL1-15 | 2026-08-31 01:31:27 | 49.44303 | 11.17541 | 80° | 91km/h | 8052m | -3.2m/s | -28.6°C | 74.3% | 369hPa | 2.6V | 07:27:26 | 02:59:34 | 00:00:00 | |
| BIOWL1-15 | 2026-08-31 01:31:19 | 49.44266 | 11.17216 | 78° | 80km/h | 8083m | -3.2m/s | -28.8°C | 74.5% | 367.4hPa | 2.6V | 07:27:26 | 02:59:24 | 00:00:00 | |
| DL1NUX | 2026-08-31 01:31:18 | 49.44247 | 11.17097 | 74° | 78km/h | 8095m | -3.1m/s | -28.9°C | 80.3% | 366.8hPa | 2.5V | 07:27:27 | 02:59:20 | 00:00:00 | |
| DK7TD | 2026-08-31 01:31:18 | 49.44270 | 11.17247 | 79° | 80km/h | 8080m | -3.1m/s | -28.8°C | 74.4% | 367.6hPa | 2.6V | 07:29:59 | 02:59:25 | 00:00:00 | |
| NBG1-10 | 2026-08-31 01:31:17 | 49.44266 | 11.17216 | 78° | 84km/h | 8083m | -3.1m/s | -28.8°C | 80.3% | 367.4hPa | 2.5V | 00:00:00 | 02:59:24 | 00:00:00 | |
| DO3MHA-11 | 2026-08-31 01:31:16 | 49.44262 | 11.17186 | 77° | 78km/h | 8086m | -3.0m/s | -28.8°C | 80.1% | 367.2hPa | 2.5V | 00:00:00 | 02:59:23 | 00:00:00 | |
| DB0UT-7 | 2026-08-31 01:31:15 | 49.44257 | 11.17156 | 77° | 84km/h | 8089m | -3.0m/s | -28.8°C | 80.5% | 367.1hPa | 2.5V | 00:00:00 | 00:00:00 | 00:00:00 | |
| DB0NH | 2026-08-31 01:31:10 | 49.44231 | 11.17009 | 74° | 86km/h | 8105m | -3.1m/s | -28.9°C | 80.2% | 366.2hPa | 2.6V | 00:00:00 | 02:59:17 | 00:00:00 | |
| DO9HM | 2026-08-31 01:31:09 | 49.44225 | 11.16980 | 74° | 78km/h | 8108m | -3.2m/s | -29.0°C | 72.8% | 366.1hPa | 2.6V | 07:28:00 | 00:00:00 | 00:00:00 | |
| DL1NUX | 2026-08-31 01:31:08 | 49.44186 | 11.16806 | 69° | 80km/h | 8126m | -3.1m/s | -29.2°C | 79.9% | 365.2hPa | 2.6V | 07:27:37 | 02:59:10 | 00:00:00 | |
| BIOWL1-15 | 2026-08-31 01:31:08 | 49.44207 | 11.16893 | 71° | 78km/h | 8117m | -3.2m/s | -29.1°C | 75% | 365.7hPa | 2.5V | 07:29:08 | 02:59:13 | 00:00:00 | |
| DK7TD | 2026-08-31 01:31:04 | 49.44193 | 11.16835 | 70° | 80km/h | 8123m | -3.2m/s | -29.1°C | 75.2% | 365.3hPa | 2.5V | 07:29:59 | 02:59:11 | 00:00:00 | |
| DK5PH-5 | 2026-08-31 01:31:04 | 49.44193 | 11.16835 | 71° | 89km/h | 8123m | -3.1m/s | -29.1°C | 79.8% | 365.3hPa | 2.5V | 00:00:00 | 02:59:11 | 00:00:00 | |
| SO1NDE-10 | 2026-08-31 01:30:59 | 49.44157 | 11.16689 | 69° | 91km/h | 8139m | -2.9m/s | -29.2°C | 79.7% | 364.5hPa | 2.5V | 00:00:00 | 02:59:06 | 00:00:00 | |
| DJTTGO | 2026-08-31 01:30:57 | 49.44149 | 11.16659 | 69° | 82km/h | 8142m | -3.0m/s | -29.3°C | 71.9% | 364.4hPa | 2.5V | 07:28:00 | 00:00:00 | 00:00:00 | |
| DO3MHA-11 | 2026-08-31 01:30:56 | 49.44133 | 11.16599 | 68° | 89km/h | 8148m | -2.9m/s | -29.3°C | 79.2% | 364.1hPa | 2.5V | 07:27:00 | 02:59:03 | 00:00:00 | |
| DM0DOS-11 | 2026-08-31 01:30:55 | 49.44116 | 11.16539 | 67° | 86km/h | 8154m | -3m/s | -29.4°C | 79.2% | 363.8hPa | 2.5V | 07:27:46 | 02:59:01 | 00:00:00 | |
| BIOWL1-15 | 2026-08-31 01:30:55 | 49.44125 | 11.16569 | 67° | 84km/h | 8151m | -3.1m/s | -29.4°C | 74.7% | 364hPa | 2.5V | 07:29:08 | 02:59:02 | 00:00:00 | |
| DK7TD | 2026-08-31 01:30:50 | 49.44081 | 11.16413 | 67° | 91km/h | 8166m | -2.9m/s | -29.5°C | 74.7% | 363.1hPa | 2.5V | 07:29:59 | 02:58:57 | 00:00:00 | |
| BIOWL1-15 | 2026-08-31 01:30:47 | 49.44038 | 11.16245 | 70° | 95km/h | 8181m | -3m/s | -29.6°C | 74.9% | 362.4hPa | 2.5V | 07:29:08 | 02:58:52 | 00:00:00 | |
| DM0DOS-11 | 2026-08-31 01:30:46 | 49.44030 | 11.16210 | 70° | 97km/h | 8183m | -2.8m/s | -29.6°C | 79.1% | 362.4hPa | 2.5V | 07:27:56 | 02:58:51 | 00:00:00 | |
| DB0UT-7 | 2026-08-31 01:30:45 | 49.44038 | 11.16245 | 70° | 91km/h | 8181m | -2.9m/s | -29.6°C | 79.5% | 362.3hPa | 2.5V | 00:00:00 | 02:58:52 | 00:00:00 | |
| NBG1-10 | 2026-08-31 01:30:44 | 49.44030 | 11.16210 | 71° | 88km/h | 8184m | -2.7m/s | -29.6°C | 79.1% | 362.3hPa | 2.5V | 00:00:00 | 02:58:51 | 00:00:00 | |
| DB0ND-19 | 2026-08-31 01:30:41 | 49.44000 | 11.16067 | 73° | 97km/h | 8195m | -2.9m/s | -29.7°C | 71.0% | 361.7hPa | 2.5V | 00:00:00 | 00:00:00 | 00:00:00 | |
| DB0NH | 2026-08-31 01:30:40 | 49.43999 | 11.16067 | 74° | 86km/h | 8195m | -2.8m/s | -29.7°C | 78.5% | 361.6hPa | 2.5V | 00:00:00 | 02:58:47 | 00:00:00 | |
| DL1NUX | 2026-08-31 01:30:38 | 49.43958 | 11.15813 | 77° | 95km/h | 8214m | -2.7m/s | -29.9°C | 78.7% | 360.7hPa | 2.6V | 07:28:07 | 02:58:40 | 00:00:00 | |
| DK7TD | 2026-08-31 01:30:37 | 49.43980 | 11.15958 | 75° | 97km/h | 8203m | -2.8m/s | -29.8°C | 74% | 361.3hPa | 2.6V | 07:29:59 | 02:58:44 | 00:00:00 | |
| DM0DOS-11 | 2026-08-31 01:30:35 | 49.43962 | 11.15849 | 77° | 95km/h | 8211m | -2.7m/s | -29.8°C | 78.4% | 360.9hPa | 2.5V | 07:28:06 | 02:58:41 | 00:00:00 | |
| BIOWL1-15 | 2026-08-31 01:30:35 | 49.43957 | 11.15813 | 78° | 95km/h | 8214m | -2.7m/s | -29.9°C | 73.7% | 360.7hPa | 2.6V | 07:29:08 | 02:58:40 | 00:00:00 | |
| DK5PH-5 | 2026-08-31 01:30:34 | 49.43962 | 11.15849 | 78° | 82km/h | 8212m | -2.6m/s | -29.8°C | 78.4% | 360.8hPa | 2.5V | 00:00:00 | 02:58:41 | 00:00:00 | |
| SO1NDE-10 | 2026-08-31 01:30:29 | 49.43940 | 11.15675 | 80° | 82km/h | 8225m | -2.7m/s | -29.9°C | 79.0% | 360.1hPa | 2.5V | 00:00:00 | 02:58:36 | 00:00:00 | |
| DL1NUX | 2026-08-31 01:30:28 | 49.43913 | 11.15488 | 75° | 78km/h | 8241m | -2.8m/s | -30.1°C | 78.4% | 359.4hPa | 2.5V | 07:28:17 | 02:58:30 | 00:00:00 | |
| DK7TD | 2026-08-31 01:30:27 | 49.43931 | 11.15610 | 79° | 84km/h | 8230m | -2.7m/s | -30°C | 73.8% | 359.9hPa | 2.6V | 07:29:59 | 02:58:34 | 00:00:00 | |
| DO3MHA-11 | 2026-08-31 01:30:26 | 49.43927 | 11.15579 | 78° | 78km/h | 8233m | -2.5m/s | -30.0°C | 78.7% | 359.7hPa | 2.5V | 00:00:00 | 02:58:33 | 00:00:00 | |
| DM0DOS-11 | 2026-08-31 01:30:25 | 49.43918 | 11.15518 | 76° | 78km/h | 8238m | -2.9m/s | -30.1°C | 78.4% | 359.6hPa | 2.5V | 07:28:16 | 02:58:31 | 00:00:00 | |
| BIOWL1-15 | 2026-08-31 01:30:25 | 49.43902 | 11.15430 | 73° | 78km/h | 8246m | -2.6m/s | -30.1°C | 73.2% | 359.1hPa | 2.6V | 07:29:08 | 02:58:28 | 00:00:00 | |
| OE5DXL-15 | 2026-08-31 01:30:21 | 49.43902 | 11.15430 | 73° | 86km/h | 8246m | -2.5m/s | -30.1°C | 78.4% | 359.1hPa | 2.5V | 00:00:00 | 00:00:00 | 00:00:00 | |
| DL1NUX | 2026-08-31 01:30:18 | 49.43846 | 11.15202 | 67° | 80km/h | 8267m | -2.6m/s | -30.3°C | 78.9% | 358hPa | 2.5V | 07:28:27 | 02:58:20 | 00:00:00 | |
| DF9NV-10 | 2026-08-31 01:30:17 | 49.43883 | 11.15345 | 71° | 78km/h | 8254m | -2.8m/s | -30.2°C | 71.2% | 358.7hPa | 2.5V | 07:29:00 | 00:00:00 | 00:00:00 | |
| DM0DOS-11 | 2026-08-31 01:30:16 | 49.43854 | 11.15231 | 67° | 78km/h | 8264m | -2.7m/s | -30.3°C | 79.2% | 358.2hPa | 2.5V | 07:28:26 | 02:58:21 | 00:00:00 | |
| DK7TD | 2026-08-31 01:30:10 | 49.43822 | 11.15117 | 66° | 80km/h | 8275m | -2.7m/s | -30.4°C | 73.7% | 357.6hPa | 2.6V | 07:29:59 | 02:58:17 | 00:00:00 | |
| DB0NH | 2026-08-31 01:30:10 | 49.43822 | 11.15117 | 67° | 89km/h | 8275m | -2.6m/s | -30.3°C | 78.8% | 357.6hPa | 2.6V | 00:00:00 | 02:58:17 | 00:00:00 | |
| DM0DOS-11 | 2026-08-31 01:30:09 | 49.43768 | 11.14942 | 63° | 86km/h | 8291m | -2.5m/s | -30.5°C | 79% | 356.8hPa | 2.6V | 07:28:36 | 02:58:11 | 00:00:00 | |
| DL1NUX | 2026-08-31 01:30:08 | 49.43759 | 11.14912 | 63° | 88km/h | 8293m | -2.7m/s | -30.5°C | 79% | 356.7hPa | 2.5V | 07:28:37 | 02:58:10 | 00:00:00 | |
| DO9HM | 2026-08-31 01:30:07 | 49.43796 | 11.15030 | 66° | 82km/h | 8283m | -2.6m/s | -30.4°C | 71.3% | 357.3hPa | 2.5V | 07:29:00 | 00:00:00 | 00:00:00 | |
| DO3MHA-11 | 2026-08-31 01:30:06 | 49.43787 | 11.15001 | 65° | 89km/h | 8285m | -2.6m/s | -30.4°C | 79.3% | 357.1hPa | 2.5V | 00:00:00 | 02:58:13 | 00:00:00 | |
| DK5PH-5 | 2026-08-31 01:30:04 | 49.43768 | 11.14942 | 64° | 89km/h | 8291m | -2.5m/s | -30.5°C | 79.0% | 356.8hPa | 2.5V | 07:28:00 | 02:58:11 | 00:00:00 | |
| BIOWL1-15 | 2026-08-31 01:30:00 | 49.43562 | 11.14016 | 72° | 78km/h | 8360m | -2.5m/s | -31.1°C | 74.6% | 353.4hPa | 2.5V | 07:29:08 | 02:57:43 | 00:00:00 | |
| DM0DOS-11 | 2026-08-31 01:29:59 | 49.43615 | 11.14330 | 76° | 89km/h | 8336m | -2.4m/s | -30.9°C | 79.7% | 354.6hPa | 2.5V | 07:28:54 | 02:57:53 | 00:00:00 | |
| SO1NDE-10 | 2026-08-31 01:29:59 | 49.43719 | 11.14785 | 66° | 88km/h | 8304m | -2.7m/s | -30.6°C | 78.9% | 356.1hPa | 2.5V | 00:00:00 | 02:58:06 | 00:00:00 | |
| DL1NUX | 2026-08-31 01:29:58 | 49.43610 | 11.14296 | 76° | 88km/h | 8338m | -2.5m/s | -30.9°C | 80% | 354.5hPa | 2.5V | 07:28:55 | 02:57:52 | 00:00:00 | |
| DK7TD | 2026-08-31 01:29:57 | 49.43663 | 11.14578 | 70° | 99km/h | 8319m | -2.4m/s | -30.8°C | 74% | 355.4hPa | 2.5V | 07:29:59 | 02:58:00 | 00:00:00 | |
| DF3TZ-5 | 2026-08-31 01:29:52 | 49.43655 | 11.14542 | 70° | 97km/h | 8321m | -2.4m/s | -30.8°C | 71.4% | 355.3hPa | 2.5V | 00:00:00 | 00:00:00 | 00:00:00 | |
| BIOWL1-15 | 2026-08-31 01:29:51 | 49.43556 | 11.13988 | 71° | 78km/h | 8362m | -2.2m/s | -31.1°C | 74.5% | 353.3hPa | 2.5V | 07:29:08 | 02:57:42 | 00:00:00 | |
| DL6DJ-15 | 2026-08-31 01:29:50 | 49.43640 | 11.14470 | 73° | 97km/h | 8326m | -2.5m/s | -30.8°C | 71.7% | 355.1hPa | 2.6V | 00:00:00 | 00:00:00 | 00:00:00 | |
| DK7TD | 2026-08-31 01:29:47 | 49.43595 | 11.14199 | 76° | 84km/h | 8346m | -2.5m/s | -31°C | 74.5% | 354.1hPa | 2.6V | 07:29:59 | 02:57:49 | 00:00:00 | |
| DO9HM | 2026-08-31 01:29:46 | 49.43615 | 11.14330 | 77° | 89km/h | 8336m | -2.4m/s | -30.9°C | 71.8% | 354.6hPa | 2.5V | 07:29:00 | 00:00:00 | 00:00:00 | |
| SONCRA | 2026-08-31 01:29:42 | 49.43595 | 11.14199 | 76° | 84km/h | 8345m | -2.5m/s | -31.0°C | 72.1% | 354.1hPa | 2.5V | 00:00:00 | 00:00:00 | 00:00:00 | |
| DB0NH | 2026-08-31 01:29:40 | 49.43584 | 11.14136 | 76° | 80km/h | 8350m | -2.2m/s | -31.0°C | 80.1% | 353.8hPa | 2.5V | 00:00:00 | 02:57:47 | 00:00:00 | |
| DB0ND-19 | 2026-08-31 01:29:39 | 49.43574 | 11.14075 | 74° | 78km/h | 8355m | -2.5m/s | -31.0°C | 72.1% | 353.6hPa | 2.5V | 00:00:00 | 00:00:00 | 00:00:00 | |
| NBG1-10 | 2026-08-31 01:29:38 | 49.43573 | 11.14075 | 75° | 82km/h | 8355m | -2.4m/s | -31.0°C | 80.0% | 353.5hPa | 2.5V | 00:00:00 | 02:57:45 | 00:00:00 | |
| DO3MHA-11 | 2026-08-31 01:29:36 | 49.43562 | 11.14016 | 73° | 78km/h | 8360m | -2.4m/s | -31.0°C | 80.3% | 353.4hPa | 2.5V | 07:29:00 | 02:57:43 | 00:00:00 | |
| DL1NUX | 2026-08-31 01:29:35 | 49.43520 | 11.13848 | 65° | 77km/h | 8374m | -2.6m/s | -31.2°C | 81% | 352.7hPa | 2.4V | 07:29:10 | 02:57:37 | 00:00:00 | |
| BIOWL1-15 | 2026-08-31 01:29:27 | 49.43469 | 11.13684 | 63° | 78km/h | 8390m | -2.8m/s | -31.4°C | 75.4% | 351.9hPa | 2.4V | 07:30:50 | 02:57:31 | 00:00:00 | |
| DO3MHA-11 | 2026-08-31 01:29:26 | 49.43486 | 11.13738 | 65° | 80km/h | 8385m | -2.6m/s | -31.3°C | 80.8% | 352.2hPa | 2.6V | 00:00:00 | 02:57:33 | 00:00:00 | |
| DL1NUX | 2026-08-31 01:29:25 | 49.43431 | 11.13575 | 61° | 80km/h | 8400m | -2.7m/s | -31.4°C | 80.3% | 351.4hPa | 2.6V | 07:29:20 | 02:57:27 | 00:00:00 | |
| BIOWL1-15 | 2026-08-31 01:29:11 | 49.43338 | 11.13317 | 61° | 91km/h | 8424m | -2.7m/s | -31.6°C | 74.4% | 350.2hPa | 2.5V | 07:30:50 | 02:57:18 | 00:00:00 | |
| DK7TD | 2026-08-31 01:29:07 | 49.43293 | 11.13190 | 63° | 95km/h | 8434m | -2.5m/s | -31.7°C | 74.9% | 349.8hPa | 2.5V | 07:29:59 | 02:57:14 | 00:00:00 | |
| DO3MHA-11 | 2026-08-31 01:29:06 | 49.43282 | 11.13156 | 64° | 97km/h | 8436m | -2.5m/s | -31.7°C | 81.3% | 349.6hPa | 2.5V | 00:00:00 | 02:57:13 | 00:00:00 | |
| DL1NUX | 2026-08-31 01:29:05 | 49.43221 | 11.12950 | 67° | 99km/h | 8451m | -2.5m/s | -31.9°C | 80.9% | 348.9hPa | 2.4V | 07:29:40 | 02:57:07 | 00:00:00 | |
| BIOWL1-15 | 2026-08-31 01:29:00 | 49.43162 | 11.12707 | 72° | 91km/h | 8468m | -2.4m/s | -31.9°C | 75.4% | 348.1hPa | 2.5V | 07:30:50 | 02:57:00 | 00:00:00 | |
| DK7TD | 2026-08-31 01:28:54 | 49.43169 | 11.12740 | 72° | 93km/h | 8466m | -2.3m/s | -31.9°C | 75.5% | 348.2hPa | 2.4V | 07:29:59 | 02:57:01 | 00:00:00 | |
| BIOWL1-15 | 2026-08-31 01:28:47 | 49.43107 | 11.12461 | 68° | 78km/h | 8487m | -2.2m/s | -32°C | 73.4% | 347.2hPa | 2.6V | 07:30:50 | 02:56:52 | 00:00:00 | |
| DO3MHA-11 | 2026-08-31 01:28:46 | 49.43114 | 11.12490 | 70° | 82km/h | 8484m | -2.3m/s | -31.9°C | 80.9% | 347.3hPa | 2.6V | 00:00:00 | 02:56:53 | 00:00:00 | |
| DL1NUX | 2026-08-31 01:28:45 | 49.43063 | 11.12324 | 59° | 84km/h | 8498m | -2.3m/s | -31.9°C | 81.6% | 346.6hPa | 2.6V | 07:30:00 | 02:56:47 | 00:00:00 | |
| BIOWL1-15 | 2026-08-31 01:28:36 | 49.42990 | 11.12139 | 61° | 100km/h | 8512m | -2.3m/s | -32.1°C | 77.1% | 345.9hPa | 2.6V | 07:30:50 | 02:56:41 | 00:00:00 | |
| DO3MHA-11 | 2026-08-31 01:28:36 | 49.43015 | 11.12205 | 59° | 102km/h | 8508m | -2.2m/s | -32.0°C | 81.6% | 346.1hPa | 2.4V | 00:00:00 | 02:56:43 | 00:00:00 | |
| DL1NUX | 2026-08-31 01:28:35 | 49.42942 | 11.11996 | 65° | 106km/h | 8523m | -2.5m/s | -32.1°C | 79.6% | 345.4hPa | 2.4V | 07:30:10 | 02:56:37 | 00:00:00 | |
| DK7TD | 2026-08-31 01:28:33 | 49.42977 | 11.12105 | 61° | 102km/h | 8515m | -2.7m/s | -32.1°C | 76.9% | 345.8hPa | 2.6V | 07:30:50 | 02:56:40 | 00:00:00 | |
| BIOWL1-15 | 2026-08-31 01:28:30 | 49.42897 | 11.11817 | 70° | 88km/h | 8533m | -1.8m/s | -32.2°C | 73.7% | 344.9hPa | 2.4V | 07:30:50 | 02:56:32 | 00:00:00 | |
| DF7PN | 2026-08-31 01:28:30 | 49.42942 | 11.11996 | 65° | 104km/h | 8523m | -2.5m/s | -32.2°C | 71.4% | 345.4hPa | 2.5V | 00:00:00 | 00:00:00 | 00:00:00 | |
| SO1NDE-10 | 2026-08-31 01:28:29 | 49.42931 | 11.11959 | 68° | 95km/h | 8525m | -2.2m/s | -32.1°C | 80.0% | 345.2hPa | 2.5V | 00:00:00 | 02:56:36 | 00:00:00 | |
| DO3MHA-11 | 2026-08-31 01:28:26 | 49.42905 | 11.11850 | 71° | 86km/h | 8531m | -2.0m/s | -32.1°C | 80.7% | 344.9hPa | 2.5V | 00:00:00 | 02:56:33 | 00:00:00 | |
| DL1NUX | 2026-08-31 01:28:25 | 49.42854 | 11.11671 | 60° | 82km/h | 8544m | -2.8m/s | -32.3°C | 80.5% | 344.3hPa | 2.5V | 07:30:20 | 02:56:27 | 00:00:00 | |
| DK7TD | 2026-08-31 01:28:22 | 49.42873 | 11.11727 | 64° | 80km/h | 8539m | -2.4m/s | -32.3°C | 74.1% | 344.6hPa | 2.6V | 07:30:50 | 02:56:29 | 00:00:00 | |
| BIOWL1-15 | 2026-08-31 01:28:15 | 49.42794 | 11.11526 | 57° | 97km/h | 8556m | -2.1m/s | -32.4°C | 74.7% | 343.8hPa | 2.6V | 07:30:50 | 02:56:22 | 00:00:00 | |
| DK7TD | 2026-08-31 01:28:11 | 49.42741 | 11.11393 | 60° | 104km/h | 8566m | -2.5m/s | -32.4°C | 74.6% | 343.3hPa | 2.6V | 07:30:50 | 02:56:18 | 00:00:00 | |
| BIOWL1-15 | 2026-08-31 01:28:06 | 49.42647 | 11.11101 | 68° | 100km/h | 8584m | -2.1m/s | -32.5°C | 72.4% | 342.4hPa | 2.4V | 07:30:50 | 02:56:10 | 00:00:00 | |
| DB0ND-19 | 2026-08-31 01:28:06 | 49.42667 | 11.11174 | 65° | 104km/h | 8580m | -2.0m/s | -32.5°C | 70.5% | 342.6hPa | 2.4V | 00:00:00 | 00:00:00 | 00:00:00 | |
| DL1NUX | 2026-08-31 01:28:05 | 49.42620 | 11.10997 | 67° | 89km/h | 8591m | -2.1m/s | -32.6°C | 79.6% | 342.1hPa | 2.4V | 07:30:40 | 02:56:07 | 00:00:00 | |
| DK7TD | 2026-08-31 01:28:00 | 49.42620 | 11.10997 | 67° | 89km/h | 8591m | -2.1m/s | -32.6°C | 72.5% | 342.1hPa | 2.4V | 07:30:50 | 02:56:07 | 00:00:00 | |
| SO1NDE-10 | 2026-08-31 01:27:59 | 49.42611 | 11.10966 | 66° | 91km/h | 8593m | -2.1m/s | -32.5°C | 80.1% | 342.0hPa | 2.6V | 00:00:00 | 02:56:06 | 00:00:00 | |
| DO3MHA-11 | 2026-08-31 01:27:56 | 49.42582 | 11.10878 | 61° | 89km/h | 8600m | -2.3m/s | -32.6°C | 80.2% | 341.7hPa | 2.6V | 00:00:00 | 02:56:03 | 00:00:00 | |
| DL1NUX | 2026-08-31 01:27:55 | 49.42509 | 11.10713 | 53° | 91km/h | 8616m | -2.7m/s | -32.7°C | 79.8% | 340.9hPa | 2.6V | 07:30:50 | 02:55:57 | 00:00:00 | |
| BIOWL1-15 | 2026-08-31 01:27:54 | 49.42560 | 11.10823 | 57° | 84km/h | 8605m | -2.5m/s | -32.7°C | 74.6% | 341.4hPa | 2.4V | 07:30:50 | 02:56:01 | 00:00:00 | |
| DK7TD | 2026-08-31 01:27:49 | 49.42495 | 11.10684 | 53° | 93km/h | 8619m | -2.7m/s | -32.7°C | 75.7% | 340.7hPa | 2.6V | 07:31:41 | 02:55:56 | 00:00:00 | |
| DF3TZ-5 | 2026-08-31 01:27:48 | 49.42466 | 11.10624 | 54° | 99km/h | 8624m | -2.5m/s | -32.8°C | 71.1% | 340.5hPa | 2.4V | 00:00:00 | 00:00:00 | 00:00:00 | |
| DL6DJ-15 | 2026-08-31 01:27:46 | 49.42451 | 11.10592 | 55° | 102km/h | 8626m | -2.4m/s | -32.8°C | 71.2% | 340.3hPa | 2.4V | 00:00:00 | 00:00:00 | 00:00:00 | |
| DK7TD | 2026-08-31 01:27:38 | 49.42356 | 11.10311 | 66° | 91km/h | 8647m | -2.8m/s | -33°C | 73.7% | 339.4hPa | 2.4V | 07:31:41 | 02:55:45 | 00:00:00 | |
| DO3MHA-11 | 2026-08-31 01:27:36 | 49.42337 | 11.10249 | 63° | 89km/h | 8652m | -2.3m/s | -32.9°C | 80.1% | 339.1hPa | 2.6V | 00:00:00 | 02:55:43 | 00:00:00 | |
| DL1NUX | 2026-08-31 01:27:35 | 49.42264 | 11.10081 | 52° | 91km/h | 8667m | -2.6m/s | -33.1°C | 80.7% | 338.4hPa | 2.4V | 07:31:10 | 02:55:37 | 00:00:00 | |
| BIOWL1-15 | 2026-08-31 01:27:26 | 49.42204 | 11.09963 | 53° | 102km/h | 8678m | -2.6m/s | -33.2°C | 75.2% | 337.9hPa | 2.4V | 07:33:23 | 02:55:33 | 00:00:00 | |
| DL1NUX | 2026-08-31 01:27:25 | 49.42114 | 11.09757 | 60° | 108km/h | 8694m | -2.5m/s | -33.4°C | 80.9% | 337.1hPa | 2.6V | 07:31:20 | 02:55:27 | 00:00:00 | |
| DK7TD | 2026-08-31 01:27:24 | 49.42172 | 11.09898 | 55° | 106km/h | 8683m | -2.7m/s | -33.3°C | 75.6% | 337.6hPa | 2.4V | 07:31:41 | 02:55:31 | 00:00:00 | |
| OE5DXL-15 | 2026-08-31 01:27:21 | 49.42127 | 11.09793 | 59° | 99km/h | 8691m | -2.6m/s | -33.3°C | 81.0% | 337.2hPa | 2.4V | 07:31:00 | 00:00:00 | 00:00:00 | |
| AM1SDL-15 | 2026-08-31 01:27:19 | 49.42100 | 11.09721 | 62° | 93km/h | 8697m | -2.6m/s | -33.3°C | 80.9% | 336.9hPa | 2.4V | 00:00:00 | 02:55:26 | 00:00:00 | |
| DF3TZ-5 | 2026-08-31 01:27:17 | 49.42065 | 11.09612 | 65° | 99km/h | 8704m | -2.5m/s | -33.4°C | 72.1% | 336.6hPa | 2.4V | 00:00:00 | 00:00:00 | 00:00:00 | |
| DO3MHA-11 | 2026-08-31 01:27:16 | 49.42065 | 11.09612 | 66° | 91km/h | 8705m | -2.5m/s | -33.4°C | 80.7% | 336.6hPa | 2.4V | 00:00:00 | 02:55:23 | 00:00:00 | |
| DL1NUX | 2026-08-31 01:27:15 | 49.42004 | 11.09426 | 56° | 86km/h | 8718m | -2.3m/s | -33.5°C | 81.1% | 335.9hPa | 2.4V | 07:31:30 | 02:55:17 | 00:00:00 | |
| DK7TD | 2026-08-31 01:27:13 | 49.42036 | 11.09512 | 64° | 88km/h | 8712m | -2.2m/s | -33.4°C | 74.9% | 336.2hPa | 2.6V | 07:31:41 | 02:55:20 | 00:00:00 | |
| DO9HM | 2026-08-31 01:27:11 | 49.42016 | 11.09454 | 60° | 84km/h | 8716m | -2.2m/s | -33.5°C | 72.4% | 336.1hPa | 2.4V | 07:31:00 | 00:00:00 | 00:00:00 | |
| DB0NH | 2026-08-31 01:27:10 | 49.42004 | 11.09426 | 57° | 99km/h | 8718m | -2.3m/s | -33.4°C | 81.1% | 335.8hPa | 2.4V | 00:00:00 | 02:55:17 | 00:00:00 | |
| DM7RM-13 | 2026-08-31 01:27:09 | 49.42004 | 11.09426 | 57° | 86km/h | 8718m | -2.3m/s | -33.5°C | 72.6% | 335.9hPa | 2.4V | 07:31:00 | 00:00:00 | 00:00:00 | |
| DM0DOS-11 | 2026-08-31 01:27:07 | 49.41964 | 11.09343 | 51° | 95km/h | 8726m | -2.4m/s | -33.5°C | 81.8% | 335.6hPa | 2.4V | 07:31:33 | 02:55:14 | 00:00:00 | |
| DO3MHA-11 | 2026-08-31 01:27:06 | 49.41948 | 11.09313 | 52° | 106km/h | 8728m | -2.4m/s | -33.5°C | 82.0% | 335.4hPa | 2.4V | 00:00:00 | 02:55:13 | 00:00:00 | |
| DL1NUX | 2026-08-31 01:27:05 | 49.41858 | 11.09107 | 61° | 110km/h | 8743m | -2.4m/s | -33.6°C | 81.7% | 334.8hPa | 2.4V | 07:31:40 | 02:55:07 | 00:00:00 | |
| DK7TD | 2026-08-31 01:27:02 | 49.41886 | 11.09180 | 58° | 110km/h | 8738m | -2.5m/s | -33.6°C | 75.7% | 335hPa | 2.4V | 07:31:41 | 02:55:09 | 00:00:00 | |
| BIOWL1-15 | 2026-08-31 01:26:56 | 49.41812 | 11.08961 | 67° | 99km/h | 8754m | -2.7m/s | -33.7°C | 76.4% | 334.3hPa | 2.4V | 07:33:23 | 02:55:03 | 00:00:00 | |
| DO3MHA-11 | 2026-08-31 01:26:56 | 49.41812 | 11.08960 | 67° | 91km/h | 8754m | -2.6m/s | -33.7°C | 80.9% | 334.2hPa | 2.4V | 07:31:00 | 02:55:03 | 00:00:00 | |
| DL1NUX | 2026-08-31 01:26:55 | 49.41755 | 11.08769 | 59° | 86km/h | 8769m | -2.4m/s | -33.9°C | 81.7% | 333.6hPa | 2.4V | 07:31:50 | 02:54:57 | 00:00:00 | |
| DK7TD | 2026-08-31 01:26:52 | 49.41775 | 11.08828 | 65° | 88km/h | 8764m | -2.8m/s | -33.8°C | 75% | 333.8hPa | 2.4V | 07:32:32 | 02:54:59 | 00:00:00 | |
| BIOWL1-15 | 2026-08-31 01:26:46 | 49.41702 | 11.08653 | 53° | 99km/h | 8779m | -2.2m/s | -34°C | 75.7% | 333.1hPa | 2.4V | 07:33:23 | 02:54:53 | 00:00:00 | |
| DF3TZ-5 | 2026-08-31 01:26:46 | 49.41687 | 11.08622 | 53° | 100km/h | 8781m | -2.0m/s | -34.0°C | 74.1% | 333.0hPa | 2.5V | 00:00:00 | 00:00:00 | 00:00:00 | |
| DL1NUX | 2026-08-31 01:26:45 | 49.41611 | 11.08449 | 59° | 111km/h | 8793m | -2.8m/s | -34.1°C | 82.3% | 332.4hPa | 2.5V | 07:32:00 | 02:54:47 | 00:00:00 | |
| DL6DJ-15 | 2026-08-31 01:26:44 | 49.41671 | 11.08590 | 54° | 104km/h | 8783m | -2.3m/s | -34.0°C | 74.1% | 332.8hPa | 2.6V | 00:00:00 | 00:00:00 | 00:00:00 | |
| DK7TD | 2026-08-31 01:26:41 | 49.41625 | 11.08486 | 58° | 111km/h | 8790m | -2.7m/s | -34.1°C | 77.3% | 332.5hPa | 2.6V | 07:32:32 | 02:54:48 | 00:00:00 | |
| DB0NH | 2026-08-31 01:26:40 | 49.41610 | 11.08449 | 60° | 104km/h | 8793m | -2.7m/s | -34.0°C | 82.3% | 332.3hPa | 2.6V | 00:00:00 | 02:54:47 | 00:00:00 | |
| DO3MHA-11 | 2026-08-31 01:26:36 | 49.41559 | 11.08297 | 66° | 95km/h | 8805m | -2.7m/s | -34.1°C | 81.5% | 331.8hPa | 2.6V | 00:00:00 | 02:54:43 | 00:00:00 | |
| DL1NUX | 2026-08-31 01:26:35 | 49.41499 | 11.08091 | 61° | 88km/h | 8819m | -2.4m/s | -34.3°C | 82.9% | 331.1hPa | 2.6V | 07:32:10 | 02:54:37 | 00:00:00 | |
| BIOWL1-15 | 2026-08-31 01:26:34 | 49.41518 | 11.08154 | 67° | 93km/h | 8815m | -2.3m/s | -34.2°C | 75.2% | 331.3hPa | 2.4V | 07:33:23 | 02:54:39 | 00:00:00 | |
| DK7TD | 2026-08-31 01:26:30 | 49.41499 | 11.08091 | 62° | 88km/h | 8819m | -2.4m/s | -34.3°C | 75.1% | 331.1hPa | 2.6V | 07:32:32 | 02:54:37 | 00:00:00 | |
| DO9HM | 2026-08-31 01:26:30 | 49.41499 | 11.08090 | 63° | 88km/h | 8819m | -2.4m/s | -34.3°C | 74.0% | 331.1hPa | 2.4V | 07:32:00 | 00:00:00 | 00:00:00 | |
| SO1NDE-10 | 2026-08-31 01:26:29 | 49.41488 | 11.08061 | 59° | 102km/h | 8822m | -2.4m/s | -34.3°C | 83.3% | 331.0hPa | 2.4V | 00:00:00 | 02:54:36 | 00:00:00 | |
| DM7RM-13 | 2026-08-31 01:26:27 | 49.41475 | 11.08032 | 57° | 89km/h | 8824m | -2.3m/s | -34.3°C | 74.4% | 330.9hPa | 2.4V | 07:32:00 | 00:00:00 | 00:00:00 | |
| DF7PN | 2026-08-31 01:26:26 | 49.41433 | 11.07942 | 53° | 99km/h | 8831m | -2.5m/s | -34.4°C | 75.0% | 330.6hPa | 2.4V | 00:00:00 | 00:00:00 | 00:00:00 | |
| DL1NUX | 2026-08-31 01:26:25 | 49.41356 | 11.07774 | 56° | 111km/h | 8843m | -2.6m/s | -34.5°C | 83.3% | 330hPa | 2.4V | 07:32:20 | 02:54:27 | 00:00:00 | |
| BIOWL1-15 | 2026-08-31 01:26:22 | 49.41387 | 11.07844 | 55° | 108km/h | 8838m | -2.5m/s | -34.5°C | 77.6% | 330.3hPa | 2.4V | 07:33:23 | 02:54:29 | 00:00:00 | |
| DK7TD | 2026-08-31 01:26:18 | 49.41326 | 11.07700 | 59° | 113km/h | 8849m | -2.7m/s | -34.5°C | 77.4% | 329.7hPa | 2.6V | 07:32:32 | 02:54:25 | 00:00:00 | |
| DO3MHA-11 | 2026-08-31 01:26:16 | 49.41297 | 11.07623 | 63° | 100km/h | 8854m | -2.6m/s | -34.5°C | 81.8% | 329.4hPa | 2.4V | 00:00:00 | 02:54:23 | 00:00:00 | |
| DL1NUX | 2026-08-31 01:26:15 | 49.41231 | 11.07400 | 65° | 95km/h | 8869m | -2.2m/s | -34.6°C | 81.9% | 328.8hPa | 2.4V | 07:32:30 | 02:54:17 | 00:00:00 | |
| DM0DOS-11 | 2026-08-31 01:26:14 | 49.41221 | 11.07367 | 63° | 91km/h | 8871m | -2.1m/s | -34.6°C | 82.2% | 328.7hPa | 2.4V | 07:32:31 | 02:54:16 | 00:00:00 | |
| BIOWL1-15 | 2026-08-31 01:26:11 | 49.41241 | 11.07434 | 67° | 99km/h | 8867m | -2.5m/s | -34.6°C | 74.7% | 328.9hPa | 2.5V | 07:33:23 | 02:54:18 | 00:00:00 | |
| DK7TD | 2026-08-31 01:26:07 | 49.41198 | 11.07305 | 59° | 91km/h | 8875m | -2.1m/s | -34.7°C | 74.5% | 328.6hPa | 2.4V | 07:33:23 | 02:54:14 | 00:00:00 | |
| DO3MHA-11 | 2026-08-31 01:26:06 | 49.41186 | 11.07275 | 57° | 102km/h | 8878m | -2.4m/s | -34.7°C | 83.0% | 328.3hPa | 2.5V | 00:00:00 | 02:54:13 | 00:00:00 | |
| DL1NUX | 2026-08-31 01:26:05 | 49.41096 | 11.07090 | 52° | 106km/h | 8893m | -2.6m/s | -34.8°C | 81.9% | 327.7hPa | 2.5V | 07:32:40 | 02:54:07 | 00:00:00 | |
| BIOWL1-15 | 2026-08-31 01:26:00 | 49.41096 | 11.07090 | 53° | 106km/h | 8893m | -2.6m/s | -34.8°C | 75.5% | 327.7hPa | 2.5V | 07:33:23 | 02:54:07 | 00:00:00 | |
| DK7TD | 2026-08-31 01:25:57 | 49.41047 | 11.06986 | 55° | 113km/h | 8900m | -2.6m/s | -34.8°C | 76.1% | 327.3hPa | 2.4V | 07:33:23 | 02:54:04 | 00:00:00 | |
| DO3MHA-11 | 2026-08-31 01:25:56 | 49.41030 | 11.06949 | 57° | 110km/h | 8903m | -2.7m/s | -34.8°C | 81.0% | 327.1hPa | 2.4V | 00:00:00 | 02:54:03 | 00:00:00 | |
| DL1NUX | 2026-08-31 01:25:55 | 49.40946 | 11.06714 | 65° | 108km/h | 8919m | -2.5m/s | -34.9°C | 79.9% | 326.4hPa | 2.4V | 07:32:50 | 02:53:57 | 00:00:00 | |
| BIOWL1-15 | 2026-08-31 01:25:49 | 49.40935 | 11.06677 | 66° | 104km/h | 8921m | -2.6m/s | -34.9°C | 73.3% | 326.4hPa | 2.6V | 07:33:23 | 02:53:56 | 00:00:00 | |
| DK7TD | 2026-08-31 01:25:46 | 49.40902 | 11.06575 | 60° | 95km/h | 8929m | -2.4m/s | -35°C | 73% | 326.1hPa | 2.4V | 07:33:23 | 02:53:53 | 00:00:00 | |
| DO3MHA-11 | 2026-08-31 01:25:46 | 49.40902 | 11.06575 | 61° | 108km/h | 8929m | -2.4m/s | -34.9°C | 81.0% | 326.0hPa | 2.4V | 00:00:00 | 02:53:53 | 00:00:00 | |
| DL1NUX | 2026-08-31 01:25:45 | 49.40816 | 11.06388 | 51° | 106km/h | 8943m | -2.6m/s | -35°C | 80.3% | 325.3hPa | 2.4V | 07:33:00 | 02:53:47 | 00:00:00 | |
| BIOWL1-15 | 2026-08-31 01:25:38 | 49.40782 | 11.06322 | 52° | 111km/h | 8949m | -2.7m/s | -35.1°C | 73.9% | 325.1hPa | 2.5V | 07:33:23 | 02:53:45 | 00:00:00 | |
| DK7TD | 2026-08-31 01:25:35 | 49.40730 | 11.06216 | 54° | 117km/h | 8957m | -2.6m/s | -35.1°C | 74.4% | 324.7hPa | 2.4V | 07:33:23 | 02:53:42 | 00:00:00 | |
| BIOWL1-15 | 2026-08-31 01:25:30 | 49.40622 | 11.05941 | 64° | 113km/h | 8976m | -2.6m/s | -35.2°C | 73.6% | 323.8hPa | 2.6V | 07:33:23 | 02:53:35 | 00:00:00 | |
| DK7TD | 2026-08-31 01:25:25 | 49.40587 | 11.05828 | 64° | 102km/h | 8984m | -2.5m/s | -35.3°C | 72.8% | 323.4hPa | 2.4V | 07:33:23 | 02:53:32 | 00:00:00 | |
| DL1NUX | 2026-08-31 01:25:25 | 49.40521 | 11.05666 | 52° | 102km/h | 8996m | -2.5m/s | -35.4°C | 80.2% | 322.9hPa | 2.4V | 07:33:20 | 02:53:27 | 00:00:00 | |
| BIOWL1-15 | 2026-08-31 01:25:17 | 49.40470 | 11.05566 | 52° | 113km/h | 9003m | -2.6m/s | -35.5°C | 73.6% | 322.5hPa | 2.5V | 07:33:23 | 02:53:24 | 00:00:00 | |
| DK7TD | 2026-08-31 01:25:14 | 49.40417 | 11.05456 | 55° | 120km/h | 9011m | -2.6m/s | -35.5°C | 73.6% | 322.2hPa | 2.4V | 07:35:56 | 02:53:21 | 00:00:00 | |
| BIOWL1-15 | 2026-08-31 01:25:06 | 49.40251 | 11.04998 | 57° | 99km/h | 9043m | -2.6m/s | -35.7°C | 73.7% | 320.7hPa | 2.5V | 07:34:14 | 02:53:09 | 00:00:00 | |
| DK7TD | 2026-08-31 01:25:03 | 49.40264 | 11.05030 | 59° | 99km/h | 9041m | -2.5m/s | -35.7°C | 73.4% | 320.8hPa | 2.5V | 07:35:56 | 02:53:10 | 00:00:00 | |
| BIOWL1-15 | 2026-08-31 01:24:54 | 49.40118 | 11.04733 | 53° | 120km/h | 9066m | -2.7m/s | -35.9°C | 72.9% | 319.6hPa | 2.4V | 07:34:14 | 02:53:01 | 00:00:00 | |
| DK7TD | 2026-08-31 01:24:50 | 49.40050 | 11.04574 | 61° | 122km/h | 9077m | -2.7m/s | -36°C | 72.2% | 319.2hPa | 2.4V | 07:35:56 | 02:52:57 | 00:00:00 | |
| DF9NV-10 | 2026-08-31 01:24:46 | 49.40010 | 11.04453 | 65° | 111km/h | 9085m | -2.7m/s | -36.0°C | 70.4% | 318.8hPa | 2.4V | 07:34:00 | 00:00:00 | 00:00:00 | |
| DL1NUX | 2026-08-31 01:24:45 | 49.39920 | 11.04214 | 53° | 100km/h | 9104m | -2.9m/s | -36.2°C | 78.8% | 317.9hPa | 2.4V | 07:34:00 | 02:52:47 | 00:00:00 | |
| BIOWL1-15 | 2026-08-31 01:24:44 | 49.39974 | 11.04344 | 61° | 100km/h | 9093m | -2.7m/s | -36.1°C | 72.9% | 318.5hPa | 2.4V | 07:34:14 | 02:52:51 | 00:00:00 | |
| BIOWL1-15 | 2026-08-31 01:24:36 | 49.39815 | 11.04015 | 52° | 119km/h | 9121m | -3m/s | -36.4°C | 72.7% | 317.1hPa | 2.4V | 07:34:14 | 02:52:41 | 00:00:00 | |
| DK7TD | 2026-08-31 01:24:30 | 49.39745 | 11.03859 | 60° | 120km/h | 9133m | -2.8m/s | -36.4°C | 72% | 316.6hPa | 2.4V | 07:35:56 | 02:52:37 | 00:00:00 | |
| BIOWL1-15 | 2026-08-31 01:24:23 | 49.39600 | 11.03472 | 54° | 99km/h | 9165m | -3.3m/s | -36.7°C | 72.1% | 315.1hPa | 2.4V | 07:35:05 | 02:52:26 | 00:00:00 | |
| DK7TD | 2026-08-31 01:24:20 | 49.39614 | 11.03503 | 55° | 97km/h | 9161m | -3.2m/s | -36.6°C | 72.2% | 315.3hPa | 2.4V | 07:35:56 | 02:52:27 | 00:00:00 | |
| BIOWL1-15 | 2026-08-31 01:24:13 | 49.39498 | 11.03281 | 51° | 117km/h | 9185m | -3m/s | -36.8°C | 71.8% | 314.2hPa | 2.5V | 07:35:05 | 02:52:20 | 00:00:00 | |
| DL1NUX | 2026-08-31 01:24:12 | 49.39397 | 11.03045 | 61° | 119km/h | 9203m | -3.2m/s | -37°C | 77.5% | 313.4hPa | 2.5V | 07:34:33 | 02:52:14 | 00:00:00 | |
| DK7TD | 2026-08-31 01:24:09 | 49.39428 | 11.03127 | 59° | 122km/h | 9197m | -3m/s | -36.9°C | 72.8% | 313.7hPa | 2.4V | 07:35:56 | 02:52:16 | 00:00:00 | |
| BIOWL1-15 | 2026-08-31 01:24:02 | 49.39333 | 11.02853 | 62° | 102km/h | 9218m | -3m/s | -37.1°C | 71.4% | 312.7hPa | 2.5V | 07:35:05 | 02:52:09 | 00:00:00 | |
| DK7TD | 2026-08-31 01:23:59 | 49.39293 | 11.02755 | 54° | 99km/h | 9227m | -2.7m/s | -37.1°C | 70.3% | 312.3hPa | 2.4V | 07:35:56 | 02:52:06 | 00:00:00 | |
| DB0ND-19 | 2026-08-31 01:23:57 | 49.39261 | 11.02692 | 50° | 104km/h | 9233m | -2.9m/s | 0°C | -1.0% | -1.0hPa | 2.4V | 00:00:00 | 00:00:00 | 00:00:00 | |
| DO3MHA-11 | 2026-08-31 01:23:55 | 49.39226 | 11.02626 | 51° | 120km/h | 9238m | -2.8m/s | -37.2°C | 78.0% | 311.8hPa | 2.4V | 00:00:00 | 02:52:02 | 00:00:00 | |
| DM0DOS-11 | 2026-08-31 01:23:53 | 49.39100 | 11.02363 | 57° | 124km/h | 9259m | -3m/s | -37.4°C | 78.3% | 310.8hPa | 2.4V | 07:34:52 | 02:51:55 | 00:00:00 | |
| BIOWL1-15 | 2026-08-31 01:23:51 | 49.39135 | 11.02442 | 55° | 122km/h | 9253m | -2.8m/s | -37.3°C | 71.3% | 311.1hPa | 2.5V | 07:35:05 | 02:51:57 | 00:00:00 | |
| DF7PN | 2026-08-31 01:23:50 | 49.39135 | 11.02442 | 54° | 122km/h | 9253m | -2.8m/s | -37.3°C | 69.0% | 311.1hPa | 2.4V | 00:00:00 | 00:00:00 | 00:00:00 | |
| DL1NUX | 2026-08-31 01:23:49 | 49.39083 | 11.02322 | 58° | 124km/h | 9262m | -3.2m/s | -37.4°C | 78.3% | 310.7hPa | 2.4V | 07:34:53 | 02:51:54 | 00:00:00 | |
| DK7TD | 2026-08-31 01:23:48 | 49.39100 | 11.02363 | 57° | 124km/h | 9259m | -3m/s | -37.4°C | 72% | 310.8hPa | 2.4V | 07:35:56 | 02:51:55 | 00:00:00 | |
| BIOWL1-15 | 2026-08-31 01:23:41 | 49.38991 | 11.02073 | 63° | 119km/h | 9282m | -3.5m/s | -37.6°C | 71.2% | 309.8hPa | 2.4V | 07:35:05 | 02:51:48 | 00:00:00 | |
| DM0DOS-11 | 2026-08-31 01:23:40 | 49.38914 | 11.01846 | 57° | 104km/h | 9301m | -3m/s | -37.6°C | 76.3% | 309hPa | 2.5V | 07:35:05 | 02:51:42 | 00:00:00 | |
| DK7TD | 2026-08-31 01:23:37 | 49.38940 | 11.01916 | 63° | 106km/h | 9295m | -3.1m/s | -37.6°C | 69.2% | 309.2hPa | 2.4V | 07:35:56 | 02:51:44 | 00:00:00 | |
| DL1NUX | 2026-08-31 01:23:36 | 49.38848 | 11.01711 | 51° | 115km/h | 9313m | -3.4m/s | -37.8°C | 78% | 308.4hPa | 2.4V | 07:35:09 | 02:51:38 | 00:00:00 | |
| BIOWL1-15 | 2026-08-31 01:23:30 | 49.38830 | 11.01675 | 52° | 119km/h | 9317m | -3.3m/s | -37.8°C | 70.3% | 308.3hPa | 2.4V | 07:35:56 | 02:51:37 | 00:00:00 | |
| DK7TD | 2026-08-31 01:23:21 | 49.38671 | 11.01304 | 63° | 128km/h | 9346m | -3.5m/s | -38.1°C | 71% | 307hPa | 2.5V | 07:35:56 | 02:51:28 | 00:00:00 | |
| BIOWL1-15 | 2026-08-31 01:23:19 | 49.38605 | 11.01092 | 65° | 113km/h | 9364m | -3.2m/s | -38.2°C | 69.9% | 306.2hPa | 2.5V | 07:35:56 | 02:51:23 | 00:00:00 | |
| DN1GJH-1 | 2026-08-31 01:23:18 | 49.38643 | 11.01217 | 66° | 124km/h | 9353m | -3.6m/s | -38.1°C | 66.2% | 306.6hPa | 2.4V | 07:35:00 | 00:00:00 | 00:00:00 | |
| DM0DOS-11 | 2026-08-31 01:23:15 | 49.38593 | 11.01053 | 63° | 110km/h | 9367m | -3m/s | -38.1°C | 76.7% | 306.1hPa | 2.4V | 07:35:25 | 02:51:22 | 00:00:00 | |
| BIOWL1-15 | 2026-08-31 01:23:11 | 49.38501 | 11.00841 | 52° | 119km/h | 9386m | -3.2m/s | -38.3°C | 70.5% | 305.2hPa | 2.5V | 07:35:56 | 02:51:16 | 00:00:00 | |
| DB0NH | 2026-08-31 01:23:10 | 49.38519 | 11.00877 | 53° | 120km/h | 9383m | -3.2m/s | -38.3°C | 77.4% | 305.4hPa | 2.5V | 00:00:00 | 02:51:17 | 00:00:00 | |
| DF3TZ-5 | 2026-08-31 01:23:08 | 49.38482 | 11.00805 | 52° | 120km/h | 9389m | -3.1m/s | -38.3°C | 67.5% | 305.1hPa | 2.4V | 00:00:00 | 00:00:00 | 00:00:00 | |
| DM0DOS-11 | 2026-08-31 01:23:05 | 49.38426 | 11.00686 | 56° | 130km/h | 9399m | -3.6m/s | -38.4°C | 76.3% | 304.7hPa | 2.4V | 07:35:35 | 02:51:12 | 00:00:00 | |
| DL1NUX | 2026-08-31 01:23:05 | 49.38346 | 11.00467 | 64° | 124km/h | 9415m | -3m/s | -38.5°C | 75.2% | 303.9hPa | 2.4V | 07:35:40 | 02:51:07 | 00:00:00 | |
| DO3MHA-11 | 2026-08-31 01:23:05 | 49.38426 | 11.00686 | 57° | 124km/h | 9399m | -3.5m/s | -38.3°C | 76.3% | 304.6hPa | 2.4V | 00:00:00 | 02:51:12 | 00:00:00 | |
| DK5PH-5 | 2026-08-31 01:23:04 | 49.38408 | 11.00643 | 59° | 124km/h | 9403m | -3.2m/s | -38.3°C | 76.1% | 304.4hPa | 2.5V | 00:00:00 | 02:51:11 | 00:00:00 | |
| BIOWL9-15 | 2026-08-31 01:23:03 | 49.38391 | 11.00599 | 60° | 131km/h | 9406m | -3.0m/s | -38.4°C | 66.6% | 304.3hPa | 2.4V | 00:00:00 | 00:00:00 | 00:00:00 | |
| DM7RM-13 | 2026-08-31 01:23:02 | 49.38375 | 11.00555 | 63° | 130km/h | 9409m | -3.1m/s | -38.4°C | 66.3% | 304.3hPa | 2.4V | 07:35:00 | 00:00:00 | 00:00:00 | |
| DO9HM | 2026-08-31 01:23:01 | 49.38360 | 11.00510 | 65° | 128km/h | 9412m | -3.1m/s | -38.4°C | 65.9% | 304.1hPa | 2.4V | 07:35:00 | 00:00:00 | 00:00:00 | |
| DM0DOS-11 | 2026-08-31 01:23:00 | 49.38284 | 11.00258 | 64° | 113km/h | 9431m | -3.6m/s | -38.6°C | 74.3% | 303.2hPa | 2.4V | 07:35:45 | 02:51:02 | 00:00:00 | |
| BIOWL1-15 | 2026-08-31 01:22:58 | 49.38320 | 11.00381 | 66° | 119km/h | 9421m | -3m/s | -38.5°C | 70.3% | 303.6hPa | 2.5V | 07:35:56 | 02:51:05 | 00:00:00 | |
| DN1GJH-1 | 2026-08-31 01:22:57 | 49.38321 | 11.00380 | 67° | 119km/h | 9421m | -3.0m/s | -38.5°C | 65.4% | 303.6hPa | 2.5V | 07:35:00 | 00:00:00 | 00:00:00 | |
| DL1NUX | 2026-08-31 01:22:55 | 49.38216 | 11.00069 | 57° | 111km/h | 9448m | -3.2m/s | -38.7°C | 74.6% | 302.5hPa | 2.5V | 07:35:50 | 02:50:57 | 00:00:00 | |
| DK7TD | 2026-08-31 01:22:54 | 49.38271 | 11.00218 | 64° | 111km/h | 9435m | -3.3m/s | -38.6°C | 69% | 303.1hPa | 2.4V | 07:35:56 | 02:51:01 | 00:00:00 | |
| OE5DXL-15 | 2026-08-31 01:22:51 | 49.38231 | 11.00106 | 59° | 124km/h | 9445m | -3.4m/s | -38.7°C | 74.7% | 302.6hPa | 2.5V | 00:00:00 | 00:00:00 | 00:00:00 | |
| DM0DOS-11 | 2026-08-31 01:22:50 | 49.38131 | 10.99883 | 54° | 124km/h | 9465m | -3.4m/s | -38.9°C | 76.5% | 301.7hPa | 2.5V | 07:35:55 | 02:50:52 | 00:00:00 | |
| BIOWL1-15 | 2026-08-31 01:22:50 | 49.38184 | 10.99996 | 55° | 115km/h | 9455m | -3.3m/s | -38.8°C | 67.9% | 302.2hPa | 2.4V | 07:35:56 | 02:50:55 | 00:00:00 | |
| DF7PN | 2026-08-31 01:22:48 | 49.38184 | 10.99996 | 55° | 115km/h | 9455m | -3.3m/s | -38.8°C | 65.4% | 302.2hPa | 2.4V | 00:00:00 | 00:00:00 | 00:00:00 | |
| DL1NUX | 2026-08-31 01:22:45 | 49.38039 | 10.99674 | 58° | 135km/h | 9482m | -3.3m/s | -39°C | 77.4% | 301hPa | 2.4V | 07:36:00 | 02:50:47 | 00:00:00 | |
| DK7TD | 2026-08-31 01:22:43 | 49.38094 | 10.99802 | 55° | 130km/h | 9472m | -3.3m/s | -39°C | 69.5% | 301.5hPa | 2.5V | 07:36:47 | 02:50:50 | 00:00:00 | |
| SO1NDE-10 | 2026-08-31 01:22:43 | 49.38094 | 10.99802 | 56° | 130km/h | 9472m | -3.3m/s | -38.9°C | 77.2% | 301.4hPa | 2.5V | 00:00:00 | 02:50:50 | 00:00:00 | |
| DF9NV-10 | 2026-08-31 01:22:42 | 49.38094 | 10.99802 | 56° | 130km/h | 9472m | -3.3m/s | -39.0°C | 67.6% | 301.5hPa | 2.4V | 07:36:00 | 00:00:00 | 00:00:00 | |
| DM7RM-13 | 2026-08-31 01:22:41 | 49.38075 | 10.99760 | 57° | 131km/h | 9475m | -3.4m/s | -39.0°C | 67.6% | 301.3hPa | 2.4V | 07:36:00 | 00:00:00 | 00:00:00 | |
| DM0DOS-11 | 2026-08-31 01:22:40 | 49.37958 | 10.99443 | 64° | 133km/h | 9500m | -4.2m/s | -39.2°C | 75.5% | 300.2hPa | 2.4V | 07:36:05 | 02:50:42 | 00:00:00 | |
| BIOWL1-15 | 2026-08-31 01:22:39 | 49.37988 | 10.99537 | 63° | 135km/h | 9493m | -3.7m/s | -39.2°C | 71.3% | 300.5hPa | 2.5V | 07:36:47 | 02:50:44 | 00:00:00 | |
| DJTTGO | 2026-08-31 01:22:38 | 49.38021 | 10.99629 | 61° | 135km/h | 9485m | -3.4m/s | -39.1°C | 67.7% | 300.9hPa | 2.4V | 00:00:00 | 00:00:00 | 00:00:00 | |
| DF3TZ-5 | 2026-08-31 01:22:37 | 49.37988 | 10.99537 | 62° | 135km/h | 9493m | -3.7m/s | -39.2°C | 67.1% | 300.5hPa | 2.4V | 00:00:00 | 00:00:00 | 00:00:00 | |
| DN1GJH-1 | 2026-08-31 01:22:36 | 49.37988 | 10.99537 | 63° | 135km/h | 9493m | -3.7m/s | -39.2°C | 67.2% | 300.5hPa | 2.4V | 00:00:00 | 00:00:00 | 00:00:00 | |
| DL1NUX | 2026-08-31 01:22:35 | 49.37894 | 10.99217 | 66° | 119km/h | 9521m | -4m/s | -39.3°C | 74.6% | 299.3hPa | 2.4V | 07:36:10 | 02:50:37 | 00:00:00 | |
| DK7TD | 2026-08-31 01:22:33 | 49.37930 | 10.99350 | 67° | 130km/h | 9509m | -4.7m/s | -39.3°C | 69.8% | 299.8hPa | 2.5V | 07:36:47 | 02:50:40 | 00:00:00 | |
| BIOWL9-15 | 2026-08-31 01:22:32 | 49.37918 | 10.99305 | 67° | 126km/h | 9513m | -4.3m/s | -39.3°C | 65.0% | 299.6hPa | 2.4V | 00:00:00 | 00:00:00 | 00:00:00 | |
| DM0DOS-11 | 2026-08-31 01:22:30 | 49.37825 | 10.99022 | 56° | 119km/h | 9537m | -2.9m/s | -39.5°C | 77.5% | 298.6hPa | 2.4V | 07:36:15 | 02:50:32 | 00:00:00 | |
| BIOWL1-15 | 2026-08-31 01:22:26 | 49.37841 | 10.99060 | 58° | 115km/h | 9534m | -2.6m/s | -39.4°C | 69.3% | 298.7hPa | 2.4V | 07:36:47 | 02:50:33 | 00:00:00 | |
| DL1NUX | 2026-08-31 01:22:25 | 49.37733 | 10.98814 | 58° | 139km/h | 9552m | -3.2m/s | -39.6°C | 75.9% | 297.8hPa | 2.4V | 07:36:20 | 02:50:27 | 00:00:00 | |
| DK7TD | 2026-08-31 01:22:23 | 49.37790 | 10.98944 | 55° | 128km/h | 9543m | -2.9m/s | -39.5°C | 70.2% | 298.3hPa | 2.4V | 07:36:47 | 02:50:30 | 00:00:00 | |
| BIOWL1-15 | 2026-08-31 01:22:16 | 49.37666 | 10.98623 | 66° | 139km/h | 9567m | -3.4m/s | -39.6°C | 69.2% | 297.3hPa | 2.5V | 07:36:47 | 02:50:23 | 00:00:00 | |
| DK7TD | 2026-08-31 01:22:13 | 49.37626 | 10.98479 | 68° | 128km/h | 9577m | -3.3m/s | -39.7°C | 69.5% | 296.8hPa | 2.4V | 07:36:47 | 02:50:20 | 00:00:00 | |
| SO1NDE-10 | 2026-08-31 01:22:13 | 49.37626 | 10.98479 | 69° | 131km/h | 9577m | -3.3m/s | -39.7°C | 76.7% | 296.7hPa | 2.4V | 00:00:00 | 02:50:20 | 00:00:00 | |
| DL1NUX | 2026-08-31 01:22:12 | 49.37548 | 10.98234 | 58° | 117km/h | 9594m | -3.1m/s | -39.9°C | 76.9% | 296.1hPa | 2.4V | 07:36:33 | 02:50:14 | 00:00:00 | |
| DM0DOS-11 | 2026-08-31 01:22:10 | 49.37515 | 10.98155 | 56° | 126km/h | 9600m | -3.1m/s | -40°C | 76.9% | 295.8hPa | 2.5V | 07:36:35 | 02:50:12 | 00:00:00 | |
| BIOWL1-15 | 2026-08-31 01:22:05 | 49.37515 | 10.98155 | 57° | 126km/h | 9600m | -3.1m/s | -40°C | 69% | 295.8hPa | 2.5V | 07:36:47 | 02:50:12 | 00:00:00 | |
| DK5PH-5 | 2026-08-31 01:22:04 | 49.37497 | 10.98113 | 58° | 137km/h | 9603m | -3.0m/s | -39.9°C | 77.7% | 295.6hPa | 2.5V | 07:36:00 | 02:50:11 | 00:00:00 | |
| DL1NUX | 2026-08-31 01:22:01 | 49.37352 | 10.97740 | 63° | 144km/h | 9628m | -3.4m/s | -40.2°C | 79% | 294.5hPa | 2.5V | 07:36:44 | 02:50:03 | 00:00:00 | |
| DK7TD | 2026-08-31 01:21:59 | 49.37405 | 10.97886 | 59° | 144km/h | 9618m | -3.3m/s | -40.1°C | 70.4% | 295hPa | 2.4V | 07:36:47 | 02:50:06 | 00:00:00 | |
| SONCRA | 2026-08-31 01:21:56 | 49.37352 | 10.97740 | 63° | 142km/h | 9628m | -3.4m/s | -40.2°C | 68.7% | 294.6hPa | 2.5V | 00:00:00 | 00:00:00 | 00:00:00 | |
| DM0DOS-11 | 2026-08-31 01:21:55 | 49.37336 | 10.97690 | 65° | 142km/h | 9632m | -3.6m/s | -40.2°C | 77.9% | 294.5hPa | 2.5V | 07:36:45 | 02:50:02 | 00:00:00 | |
| BIOWL1-15 | 2026-08-31 01:21:54 | 49.37321 | 10.97640 | 67° | 141km/h | 9635m | -3.3m/s | -40.2°C | 72% | 294.2hPa | 2.4V | 07:36:47 | 02:50:01 | 00:00:00 | |
| DL1NUX | 2026-08-31 01:21:51 | 49.37222 | 10.97279 | 62° | 124km/h | 9662m | -3.1m/s | -40.4°C | 76.5% | 293.1hPa | 2.4V | 07:36:54 | 02:49:53 | 00:00:00 | |
| OE5DXL-15 | 2026-08-31 01:21:51 | 49.37284 | 10.97496 | 69° | 135km/h | 9646m | -3.6m/s | -40.2°C | 74.4% | 293.8hPa | 2.4V | 00:00:00 | 00:00:00 | 00:00:00 | |
| DM0DOS-11 | 2026-08-31 01:21:50 | 49.37207 | 10.97235 | 61° | 130km/h | 9665m | -2.5m/s | -40.4°C | 76.7% | 293hPa | 2.5V | 07:36:55 | 02:49:52 | 00:00:00 | |
| DK7TD | 2026-08-31 01:21:48 | 49.37249 | 10.97364 | 66° | 120km/h | 9656m | -3.1m/s | -40.3°C | 68.4% | 293.4hPa | 2.4V | 07:37:38 | 02:49:55 | 00:00:00 | |
| DF7PN | 2026-08-31 01:21:46 | 49.37222 | 10.97279 | 62° | 124km/h | 9662m | -3.1m/s | -40.4°C | 66.5% | 293.1hPa | 2.4V | 00:00:00 | 00:00:00 | 00:00:00 | |
| BIOWL1-15 | 2026-08-31 01:21:43 | 49.37173 | 10.97145 | 60° | 139km/h | 9670m | -2.6m/s | -40.4°C | 67.7% | 292.8hPa | 2.4V | 07:37:38 | 02:49:50 | 00:00:00 | |
| SO1NDE-10 | 2026-08-31 01:21:42 | 49.37156 | 10.97098 | 61° | 141km/h | 9673m | -2.4m/s | -40.3°C | 76.3% | 292.7hPa | 2.4V | 00:00:00 | 02:49:49 | 00:00:00 | |
| DF9NV-10 | 2026-08-31 01:21:41 | 49.37156 | 10.97098 | 61° | 141km/h | 9673m | -2.5m/s | -40.4°C | 66.4% | 292.7hPa | 2.4V | 07:37:00 | 00:00:00 | 00:00:00 | |
| DL1NUX | 2026-08-31 01:21:40 | 49.37029 | 10.96751 | 63° | 150km/h | 9696m | -3.7m/s | -40.6°C | 74.8% | 291.7hPa | 2.4V | 07:37:05 | 02:49:42 | 00:00:00 | |
| DK7TD | 2026-08-31 01:21:38 | 49.37082 | 10.96903 | 60° | 148km/h | 9685m | -3m/s | -40.5°C | 68.3% | 292.1hPa | 2.4V | 07:37:38 | 02:49:45 | 00:00:00 | |
| DO3MHA-11 | 2026-08-31 01:21:35 | 49.37029 | 10.96751 | 64° | 139km/h | 9696m | -3.6m/s | -40.6°C | 74.8% | 291.6hPa | 2.4V | 07:37:00 | 02:49:42 | 00:00:00 | |
| DK5PH-5 | 2026-08-31 01:21:34 | 49.37012 | 10.96699 | 65° | 142km/h | 9700m | -3.8m/s | -40.6°C | 73.5% | 291.4hPa | 2.4V | 00:00:00 | 02:49:41 | 00:00:00 | |
| DL6DJ-15 | 2026-08-31 01:21:33 | 49.36997 | 10.96647 | 66° | 148km/h | 9703m | -3.7m/s | -40.6°C | 62.1% | 291.4hPa | 2.5V | 00:00:00 | 00:00:00 | 00:00:00 | |
| DL1NUX | 2026-08-31 01:21:30 | 49.36897 | 10.96259 | 65° | 126km/h | 9733m | -3.5m/s | -40.5°C | 66.6% | 290.1hPa | 2.5V | 07:37:15 | 02:49:32 | 00:00:00 | |
| BIOWL1-15 | 2026-08-31 01:21:28 | 49.36934 | 10.96396 | 70° | 130km/h | 9722m | -4.2m/s | -40.5°C | 62.1% | 290.6hPa | 2.4V | 07:37:38 | 02:49:35 | 00:00:00 | |
| DK7TD | 2026-08-31 01:21:27 | 49.36922 | 10.96349 | 68° | 128km/h | 9726m | -4.3m/s | -40.5°C | 62% | 290.4hPa | 2.4V | 07:37:38 | 02:49:34 | 00:00:00 | |
| BIOWL1-15 | 2026-08-31 01:21:16 | 49.36749 | 10.95838 | 61° | 150km/h | 9765m | -3.9m/s | -40.9°C | 64.9% | 288.8hPa | 2.4V | 07:37:38 | 02:49:23 | 00:00:00 | |
| DM0DOS-11 | 2026-08-31 01:21:15 | 49.36731 | 10.95787 | 61° | 151km/h | 9769m | -3.8m/s | -40.9°C | 71.6% | 288.6hPa | 2.5V | 07:37:25 | 02:49:22 | 00:00:00 | |
| DK7TD | 2026-08-31 01:21:13 | 49.36694 | 10.95683 | 62° | 155km/h | 9776m | -4.1m/s | -41.1°C | 66% | 288.3hPa | 2.4V | 07:37:38 | 02:49:20 | 00:00:00 | |
| SO1NDE-10 | 2026-08-31 01:21:11 | 49.36658 | 10.95575 | 65° | 148km/h | 9785m | -3.7m/s | -41.1°C | 72.1% | 287.9hPa | 2.4V | 00:00:00 | 02:49:18 | 00:00:00 | |
| DL1NUX | 2026-08-31 01:21:10 | 49.36576 | 10.95252 | 71° | 139km/h | 9805m | -2.9m/s | -41.2°C | 68.2% | 287.1hPa | 2.4V | 07:37:35 | 02:49:12 | 00:00:00 | |
| BIOWL1-15 | 2026-08-31 01:21:06 | 49.36587 | 10.95303 | 71° | 144km/h | 9801m | -3m/s | -41.2°C | 64.4% | 287.2hPa | 2.4V | 07:37:38 | 02:49:13 | 00:00:00 | |
| DK7TD | 2026-08-31 01:21:02 | 49.36540 | 10.95106 | 67° | 131km/h | 9813m | -2.9m/s | -41.3°C | 63% | 286.7hPa | 2.4V | 07:37:38 | 02:49:09 | 00:00:00 | |
| DL1NUX | 2026-08-31 01:21:00 | 49.36428 | 10.94762 | 63° | 155km/h | 9832m | -2.3m/s | -41.4°C | 71.5% | 285.9hPa | 2.4V | 07:37:45 | 02:49:02 | 00:00:00 | |
| BIOWL1-15 | 2026-08-31 01:20:55 | 49.36393 | 10.94653 | 64° | 157km/h | 9837m | -2.8m/s | -41.5°C | 65.8% | 285.7hPa | 2.5V | 07:38:29 | 02:49:00 | 00:00:00 | |
| DK7TD | 2026-08-31 01:20:51 | 49.36358 | 10.94542 | 65° | 159km/h | 9843m | -3.1m/s | -41.5°C | 65% | 285.5hPa | 2.4V | 07:39:20 | 02:48:58 | 00:00:00 | |
| BIOWL1-15 | 2026-08-31 01:20:44 | 49.36257 | 10.94148 | 71° | 142km/h | 9864m | -2.1m/s | -41.7°C | 62.9% | 284.6hPa | 2.4V | 07:38:29 | 02:48:51 | 00:00:00 | |
| DF7PN | 2026-08-31 01:20:44 | 49.36257 | 10.94148 | 70° | 141km/h | 9864m | -2.1m/s | -41.7°C | 58.8% | 284.6hPa | 2.4V | 00:00:00 | 00:00:00 | 00:00:00 | |
| DJTTGO | 2026-08-31 01:20:42 | 49.36245 | 10.94097 | 71° | 137km/h | 9867m | -2.1m/s | -41.7°C | 58.8% | 284.5hPa | 2.4V | 00:00:00 | 00:00:00 | 00:00:00 | |
| SO1NDE-10 | 2026-08-31 01:20:41 | 49.36219 | 10.94001 | 66° | 148km/h | 9872m | -2.4m/s | -41.7°C | 67.9% | 284.2hPa | 2.4V | 07:37:00 | 02:48:48 | 00:00:00 | |
| DL1NUX | 2026-08-31 01:20:40 | 49.36119 | 10.93711 | 60° | 151km/h | 9884m | -1.9m/s | -41.8°C | 68% | 283.7hPa | 2.4V | 07:38:05 | 02:48:42 | 00:00:00 | |
| DK7TD | 2026-08-31 01:20:40 | 49.36205 | 10.93954 | 64° | 135km/h | 9874m | -2m/s | -41.7°C | 61.3% | 284.2hPa | 2.4V | 07:39:20 | 02:48:47 | 00:00:00 | |
| BIOWL1-15 | 2026-08-31 01:20:33 | 49.36044 | 10.93497 | 64° | 159km/h | 9892m | -2.4m/s | -41.9°C | 63.5% | 283.3hPa | 2.5V | 07:38:29 | 02:48:38 | 00:00:00 | |
| DF3TZ-5 | 2026-08-31 01:20:33 | 49.36081 | 10.93606 | 61° | 155km/h | 9888m | -2.3m/s | -41.8°C | 59.1% | 283.6hPa | 2.5V | 00:00:00 | 00:00:00 | 00:00:00 | |
| DL6DJ-15 | 2026-08-31 01:20:31 | 49.36044 | 10.93497 | 63° | 159km/h | 9892m | -2.4m/s | -41.9°C | 59.8% | 283.3hPa | 2.5V | 00:00:00 | 00:00:00 | 00:00:00 | |
| DL1NUX | 2026-08-31 01:20:30 | 49.35952 | 10.93160 | 69° | 151km/h | 9908m | -3.2m/s | -42.1°C | 71.5% | 282.7hPa | 2.5V | 07:38:15 | 02:48:32 | 00:00:00 | |
| DK7TD | 2026-08-31 01:20:29 | 49.36010 | 10.93385 | 66° | 161km/h | 9898m | -2.5m/s | -41.9°C | 64% | 283.1hPa | 2.4V | 07:39:20 | 02:48:36 | 00:00:00 | |
| DN1GJH-1 | 2026-08-31 01:20:28 | 49.36010 | 10.93385 | 67° | 161km/h | 9898m | -2.5m/s | -41.9°C | 60.3% | 283.1hPa | 2.4V | 07:38:00 | 00:00:00 | 00:00:00 | |
| BIOWL1-15 | 2026-08-31 01:20:21 | 49.35729 | 10.92446 | 64° | 161km/h | 9945m | -2.1m/s | -42.4°C | 64.5% | 281.2hPa | 2.4V | 07:38:29 | 02:48:18 | 00:00:00 | |
| DL1NUX | 2026-08-31 01:20:20 | 49.35803 | 10.92661 | 61° | 151km/h | 9935m | -2.5m/s | -42.3°C | 70% | 281.6hPa | 2.4V | 07:38:25 | 02:48:22 | 00:00:00 | |
| DK7TD | 2026-08-31 01:20:18 | 49.35856 | 10.92809 | 63° | 139km/h | 9927m | -2m/s | -42.2°C | 64.9% | 281.9hPa | 2.4V | 07:39:20 | 02:48:25 | 00:00:00 | |
| DK7TD | 2026-08-31 01:20:07 | 49.35661 | 10.92218 | 66° | 162km/h | 9954m | -2.2m/s | -42.5°C | 65.8% | 280.8hPa | 2.4V | 07:39:20 | 02:48:14 | 00:00:00 | |
| BIOWL1-15 | 2026-08-31 01:20:00 | 49.35553 | 10.91807 | 70° | 162km/h | 9972m | -2.5m/s | -42.6°C | 64.8% | 280.1hPa | 2.4V | 07:39:20 | 02:48:07 | 00:00:00 | |
| DK7TD | 2026-08-31 01:19:56 | 49.35503 | 10.91578 | 72° | 148km/h | 9983m | -2.7m/s | -42.7°C | 63.7% | 279.6hPa | 2.4V | 07:39:20 | 02:48:03 | 00:00:00 | |
| BIOWL1-15 | 2026-08-31 01:19:49 | 49.35405 | 10.91217 | 63° | 150km/h | 10002m | -2.9m/s | -42.8°C | 61.7% | 278.8hPa | 2.4V | 07:39:20 | 02:47:56 | 00:00:00 | |
| DK7TD | 2026-08-31 01:19:46 | 49.35352 | 10.91057 | 63° | 159km/h | 10011m | -2.9m/s | -42.9°C | 61.9% | 278.5hPa | 2.5V | 07:39:20 | 02:47:53 | 00:00:00 | |
| BIOWL1-15 | 2026-08-31 01:19:41 | 49.35232 | 10.90648 | 69° | 168km/h | 10032m | -3m/s | -43°C | 62.6% | 277.6hPa | 2.4V | 07:39:20 | 02:47:46 | 00:00:00 | |
| DB0NH | 2026-08-31 01:19:40 | 49.35248 | 10.90708 | 69° | 161km/h | 10029m | -3.0m/s | -43.0°C | 67.7% | 277.7hPa | 2.4V | 00:00:00 | 02:47:47 | 00:00:00 | |
| AM1SDL-15 | 2026-08-31 01:19:39 | 49.35232 | 10.90648 | 70° | 155km/h | 10032m | -3.0m/s | -43.0°C | 67.6% | 277.6hPa | 2.4V | 00:00:00 | 02:47:46 | 00:00:00 | |
| DM7RM-13 | 2026-08-31 01:19:36 | 49.35203 | 10.90526 | 72° | 166km/h | 10038m | -3.0m/s | -43.1°C | 58.1% | 277.3hPa | 2.5V | 07:39:00 | 00:00:00 | 00:00:00 | |
| DM0DOS-11 | 2026-08-31 01:19:35 | 49.35178 | 10.90406 | 72° | 161km/h | 10044m | -3m/s | -43.1°C | 66.9% | 277.1hPa | 2.5V | 07:39:05 | 02:47:42 | 00:00:00 | |
| DK7TD | 2026-08-31 01:19:35 | 49.35178 | 10.90406 | 73° | 161km/h | 10044m | -3m/s | -43.2°C | 62% | 277.1hPa | 2.5V | 07:39:20 | 02:47:42 | 00:00:00 | |
| DO3MHA-11 | 2026-08-31 01:19:35 | 49.35178 | 10.90406 | 73° | 148km/h | 10044m | -2.9m/s | -43.1°C | 66.9% | 277.0hPa | 2.5V | 00:00:00 | 02:47:42 | 00:00:00 | |
| DK5PH-5 | 2026-08-31 01:19:34 | 49.35166 | 10.90347 | 73° | 157km/h | 10047m | -2.8m/s | -43.1°C | 65.6% | 276.9hPa | 2.4V | 00:00:00 | 02:47:41 | 00:00:00 | |
| DF9NV-10 | 2026-08-31 01:19:33 | 49.35166 | 10.90347 | 74° | 157km/h | 10047m | -2.8m/s | -43.1°C | 56.1% | 277.0hPa | 2.4V | 07:39:00 | 00:00:00 | 00:00:00 | |
| DF3TZ-5 | 2026-08-31 01:19:31 | 49.35119 | 10.90129 | 69° | 142km/h | 10059m | -3.0m/s | -43.1°C | 54.2% | 276.5hPa | 2.4V | 00:00:00 | 00:00:00 | 00:00:00 | |
| DL1NUX | 2026-08-31 01:19:30 | 49.35043 | 10.89873 | 63° | 153km/h | 10074m | -3.2m/s | -43.2°C | 65.4% | 275.9hPa | 2.4V | 07:39:15 | 02:47:32 | 00:00:00 | |
| BIOWL1-15 | 2026-08-31 01:19:29 | 49.35106 | 10.90077 | 67° | 142km/h | 10062m | -3.1m/s | -43.1°C | 59.9% | 276.4hPa | 2.5V | 07:39:20 | 02:47:36 | 00:00:00 | |
| DK7TD | 2026-08-31 01:19:24 | 49.35026 | 10.89819 | 64° | 157km/h | 10077m | -3.1m/s | -43.2°C | 60% | 275.8hPa | 2.5V | 07:39:20 | 02:47:31 | 00:00:00 | |
| BIOWL1-15 | 2026-08-31 01:19:18 | 49.34927 | 10.89465 | 70° | 170km/h | 10094m | -2.6m/s | -43.4°C | 62.2% | 275.1hPa | 2.5V | 07:41:02 | 02:47:25 | 00:00:00 | |
| DM0DOS-11 | 2026-08-31 01:19:16 | 49.34885 | 10.89279 | 71° | 170km/h | 10103m | -3.1m/s | -43.5°C | 66.8% | 274.7hPa | 2.4V | 07:39:25 | 02:47:22 | 00:00:00 | |
| DK7TD | 2026-08-31 01:19:14 | 49.34871 | 10.89216 | 72° | 168km/h | 10106m | -3.1m/s | -43.5°C | 62.9% | 274.5hPa | 2.4V | 07:40:11 | 02:47:21 | 00:00:00 | |
| SO1NDE-10 | 2026-08-31 01:19:11 | 49.34835 | 10.89033 | 75° | 159km/h | 10117m | -3.4m/s | -43.6°C | 67.1% | 274.1hPa | 2.4V | 00:00:00 | 02:47:18 | 00:00:00 | |
| DB0NH | 2026-08-31 01:19:10 | 49.34824 | 10.88974 | 75° | 159km/h | 10120m | -3.1m/s | -43.6°C | 67.8% | 273.9hPa | 2.4V | 00:00:00 | 02:47:17 | 00:00:00 | |
| DM0DOS-11 | 2026-08-31 01:19:06 | 49.34764 | 10.88699 | 67° | 148km/h | 10134m | -2.7m/s | -43.7°C | 71.2% | 273.4hPa | 2.4V | 07:39:35 | 02:47:12 | 00:00:00 | |
| BIOWL1-15 | 2026-08-31 01:19:06 | 49.34778 | 10.88752 | 69° | 146km/h | 10132m | -2.6m/s | -43.7°C | 63.7% | 273.6hPa | 2.5V | 07:41:02 | 02:47:13 | 00:00:00 | |
| DK7TD | 2026-08-31 01:19:04 | 49.34749 | 10.88646 | 66° | 151km/h | 10137m | -2.5m/s | -43.8°C | 64.2% | 273.4hPa | 2.4V | 07:40:11 | 02:47:11 | 00:00:00 | |
| DK5PH-5 | 2026-08-31 01:19:04 | 49.34749 | 10.88646 | 66° | 162km/h | 10137m | -2.5m/s | -43.7°C | 70.8% | 273.3hPa | 2.5V | 00:00:00 | 02:47:11 | 00:00:00 | |
| DF3TZ-5 | 2026-08-31 01:19:00 | 49.34664 | 10.88362 | 66° | 170km/h | 10151m | -3.0m/s | -43.9°C | 60.8% | 272.7hPa | 2.5V | 00:00:00 | 00:00:00 | 00:00:00 | |
| DL6DJ-15 | 2026-08-31 01:18:58 | 49.34630 | 10.88240 | 67° | 173km/h | 10157m | -2.7m/s | -43.8°C | 60.9% | 272.5hPa | 2.5V | 00:00:00 | 00:00:00 | 00:00:00 | |
| DM0DOS-11 | 2026-08-31 01:18:56 | 49.34599 | 10.88114 | 70° | 173km/h | 10162m | -2.5m/s | -43.9°C | 71.5% | 272.3hPa | 2.5V | 07:39:45 | 02:47:02 | 00:00:00 | |
| BIOWL1-15 | 2026-08-31 01:18:55 | 49.34584 | 10.88050 | 72° | 173km/h | 10165m | -2.6m/s | -43.9°C | 65.6% | 272.2hPa | 2.5V | 07:41:02 | 02:47:01 | 00:00:00 | |
| DK7TD | 2026-08-31 01:18:53 | 49.34571 | 10.87986 | 73° | 172km/h | 10168m | -2.7m/s | -43.8°C | 65.8% | 272.1hPa | 2.4V | 07:40:11 | 02:47:00 | 00:00:00 | |
| DO9HM | 2026-08-31 01:18:52 | 49.34571 | 10.87986 | 74° | 172km/h | 10168m | -2.7m/s | -43.8°C | 61.5% | 272.1hPa | 2.4V | 07:40:00 | 00:00:00 | 00:00:00 | |
| OE5DXL-15 | 2026-08-31 01:18:51 | 49.34547 | 10.87861 | 75° | 159km/h | 10173m | -2.5m/s | -43.8°C | 72.2% | 271.8hPa | 2.4V | 00:00:00 | 00:00:00 | 00:00:00 | |
| DB0UT-7 | 2026-08-31 01:18:50 | 49.34537 | 10.87799 | 75° | 161km/h | 10175m | -2.2m/s | -43.8°C | 72.7% | 271.7hPa | 2.4V | 00:00:00 | 00:00:00 | 00:00:00 | |
| DM0DOS-11 | 2026-08-31 01:18:46 | 49.34483 | 10.87512 | 71° | 148km/h | 10188m | -2.6m/s | -44°C | 73% | 271.2hPa | 2.4V | 07:39:55 | 02:46:52 | 00:00:00 | |
| DK7TD | 2026-08-31 01:18:41 | 49.34429 | 10.87296 | 67° | 155km/h | 10199m | -2.5m/s | -44°C | 67% | 270.8hPa | 2.4V | 07:40:11 | 02:46:48 | 00:00:00 | |
| SO1NDE-10 | 2026-08-31 01:18:41 | 49.34429 | 10.87296 | 67° | 164km/h | 10199m | -2.4m/s | -43.9°C | 73.6% | 270.7hPa | 2.4V | 00:00:00 | 02:46:48 | 00:00:00 | |
| DB0NH | 2026-08-31 01:18:40 | 49.34414 | 10.87240 | 67° | 166km/h | 10201m | -2.4m/s | -44.0°C | 74.0% | 270.7hPa | 2.4V | 00:00:00 | 02:46:47 | 00:00:00 | |
| NBG1-10 | 2026-08-31 01:18:38 | 49.34380 | 10.87123 | 67° | 166km/h | 10206m | -2.5m/s | -44.0°C | 73.9% | 270.4hPa | 2.4V | 00:00:00 | 02:46:45 | 00:00:00 | |
| DM0DOS-11 | 2026-08-31 01:18:35 | 49.34332 | 10.86935 | 69° | 175km/h | 10214m | -2.8m/s | -44.1°C | 73.4% | 270.2hPa | 2.4V | 07:40:05 | 02:46:42 | 00:00:00 | |
| DK7TD | 2026-08-31 01:18:31 | 49.34275 | 10.86676 | 74° | 175km/h | 10226m | -3.1m/s | -44.2°C | 67.5% | 269.7hPa | 2.5V | 07:40:11 | 02:46:38 | 00:00:00 | |
| DM0DOS-11 | 2026-08-31 01:18:29 | 49.34210 | 10.86306 | 74° | 153km/h | 10243m | -2.9m/s | -44.4°C | 73.7% | 269hPa | 2.5V | 07:40:15 | 02:46:32 | 00:00:00 | |
| DK7TD | 2026-08-31 01:18:21 | 49.34161 | 10.86085 | 69° | 150km/h | 10255m | -3m/s | -44.5°C | 67.6% | 268.5hPa | 2.4V | 07:41:02 | 02:46:28 | 00:00:00 | |
| OE5DXL-15 | 2026-08-31 01:18:21 | 49.34161 | 10.86085 | 69° | 164km/h | 10256m | -3.0m/s | -44.4°C | 73.5% | 268.5hPa | 2.5V | 00:00:00 | 00:00:00 | 00:00:00 | |
| DL1NUX | 2026-08-31 01:18:20 | 49.34068 | 10.85746 | 67° | 170km/h | 10275m | -2.8m/s | -44.6°C | 73.9% | 267.7hPa | 2.5V | 07:40:25 | 02:46:22 | 00:00:00 | |
| SONCRA | 2026-08-31 01:18:19 | 49.34132 | 10.85976 | 66° | 153km/h | 10262m | -3.4m/s | -44.5°C | 62.6% | 268.3hPa | 2.4V | 00:00:00 | 00:00:00 | 00:00:00 | |
| DO3MHA-11 | 2026-08-31 01:18:15 | 49.34067 | 10.85746 | 68° | 173km/h | 10275m | -2.7m/s | -44.6°C | 73.9% | 267.7hPa | 2.4V | 00:00:00 | 02:46:22 | 00:00:00 | |
| DM7RM-13 | 2026-08-31 01:18:13 | 49.34051 | 10.85684 | 69° | 173km/h | 10278m | -3.1m/s | -44.7°C | 63.0% | 267.7hPa | 2.4V | 00:00:00 | 00:00:00 | 00:00:00 | |
| SO1NDE-10 | 2026-08-31 01:18:11 | 49.34005 | 10.85492 | 72° | 166km/h | 10287m | -2.8m/s | -44.7°C | 73.7% | 267.2hPa | 2.4V | 00:00:00 | 02:46:18 | 00:00:00 | |
| DL1NUX | 2026-08-31 01:18:10 | 49.33934 | 10.85106 | 76° | 164km/h | 10306m | -3.3m/s | -44.9°C | 72.2% | 266.5hPa | 2.4V | 07:40:35 | 02:46:12 | 00:00:00 | |
| DK7TD | 2026-08-31 01:18:10 | 49.33991 | 10.85427 | 73° | 177km/h | 10290m | -3.3m/s | -44.8°C | 68% | 267.2hPa | 2.4V | 07:41:02 | 02:46:17 | 00:00:00 | |
| BIOWL1-15 | 2026-08-31 01:18:08 | 49.33966 | 10.85297 | 74° | 173km/h | 10296m | -3.2m/s | -44.8°C | 67.7% | 266.9hPa | 2.5V | 07:41:02 | 02:46:15 | 00:00:00 | |
| DK7TD | 2026-08-31 01:18:00 | 49.33881 | 10.84815 | 71° | 150km/h | 10321m | -3m/s | -45.1°C | 67.1% | 265.9hPa | 2.4V | 07:41:02 | 02:46:07 | 00:00:00 | |
| BIOWL1-15 | 2026-08-31 01:17:59 | 49.33840 | 10.84650 | 67° | 155km/h | 10331m | -3.4m/s | -45.2°C | 66.7% | 265.5hPa | 2.5V | 07:41:02 | 02:46:04 | 00:00:00 | |
| DF3TZ-5 | 2026-08-31 01:17:58 | 49.33840 | 10.84650 | 67° | 153km/h | 10331m | -3.4m/s | -45.2°C | 60.9% | 265.5hPa | 2.5V | 00:00:00 | 00:00:00 | 00:00:00 | |
| AM1SDL-15 | 2026-08-31 01:17:57 | 49.33840 | 10.84650 | 68° | 168km/h | 10331m | -3.3m/s | -45.1°C | 71.8% | 265.5hPa | 2.5V | 00:00:00 | 02:46:04 | 00:00:00 | |
| DO3MHA-11 | 2026-08-31 01:17:55 | 49.33808 | 10.84538 | 67° | 172km/h | 10337m | -3.1m/s | -45.2°C | 71.7% | 265.2hPa | 2.5V | 00:00:00 | 02:46:02 | 00:00:00 | |
| DB0UT-7 | 2026-08-31 01:17:52 | 49.33758 | 10.84360 | 68° | 164km/h | 10346m | -3.0m/s | -45.3°C | 72.0% | 264.8hPa | 2.5V | 07:40:00 | 02:45:59 | 00:00:00 | |
| OE5DXL-15 | 2026-08-31 01:17:51 | 49.33742 | 10.84297 | 69° | 164km/h | 10350m | -3.1m/s | -45.3°C | 72.8% | 264.7hPa | 2.5V | 00:00:00 | 00:00:00 | 00:00:00 | |
| DL1NUX | 2026-08-31 01:17:50 | 49.33662 | 10.83913 | 75° | 168km/h | 10369m | -3.3m/s | -45.5°C | 74.3% | 264hPa | 2.5V | 07:40:55 | 02:45:52 | 00:00:00 | |
| DK7TD | 2026-08-31 01:17:50 | 49.33726 | 10.84234 | 70° | 177km/h | 10353m | -3.1m/s | -45.4°C | 66.3% | 264.6hPa | 2.5V | 07:41:02 | 02:45:57 | 00:00:00 | |
| BIOWL1-15 | 2026-08-31 01:17:46 | 49.33674 | 10.83976 | 75° | 170km/h | 10365m | -3.2m/s | -45.5°C | 67% | 264.1hPa | 2.4V | 07:41:02 | 02:45:53 | 00:00:00 | |
| DO3MHA-11 | 2026-08-31 01:17:45 | 49.33662 | 10.83912 | 76° | 157km/h | 10369m | -3.3m/s | -45.5°C | 74.3% | 263.9hPa | 2.4V | 00:00:00 | 02:45:52 | 00:00:00 | |
| DN1GJH-1 | 2026-08-31 01:17:44 | 49.33662 | 10.83912 | 76° | 168km/h | 10369m | -3.3m/s | -45.5°C | 63.0% | 264.0hPa | 2.4V | 00:00:00 | 00:00:00 | 00:00:00 | |
| SO1NDE-10 | 2026-08-31 01:17:41 | 49.33622 | 10.83668 | 76° | 159km/h | 10382m | -3.6m/s | -45.6°C | 71.7% | 263.4hPa | 2.4V | 00:00:00 | 02:45:48 | 00:00:00 | |
| DL1NUX | 2026-08-31 01:17:40 | 49.33557 | 10.83331 | 69° | 150km/h | 10403m | -3.4m/s | -45.8°C | 66.6% | 262.6hPa | 2.4V | 07:41:05 | 02:45:42 | 00:00:00 | |
| DK7TD | 2026-08-31 01:17:39 | 49.33603 | 10.83552 | 75° | 151km/h | 10389m | -3.5m/s | -45.7°C | 65.4% | 263.2hPa | 2.5V | 07:41:02 | 02:45:46 | 00:00:00 | |
| BIOWL1-15 | 2026-08-31 01:17:35 | 49.33557 | 10.83332 | 69° | 150km/h | 10403m | -3.4m/s | -45.8°C | 61.6% | 262.6hPa | 2.4V | 07:41:53 | 02:45:42 | 00:00:00 | |
| DK5PH-5 | 2026-08-31 01:17:34 | 49.33543 | 10.83277 | 69° | 162km/h | 10407m | -3.4m/s | -45.8°C | 65.4% | 262.5hPa | 2.5V | 00:00:00 | 02:45:41 | 00:00:00 | |
| NBG1-10 | 2026-08-31 01:17:32 | 49.33513 | 10.83166 | 67° | 164km/h | 10413m | -3.1m/s | -45.7°C | 64.1% | 262.2hPa | 2.5V | 00:00:00 | 02:45:39 | 00:00:00 | |
| DM0DOS-11 | 2026-08-31 01:17:31 | 49.33480 | 10.83049 | 67° | 168km/h | 10420m | -3.1m/s | -45.8°C | 64.6% | 262hPa | 2.4V | 07:41:10 | 02:45:37 | 00:00:00 | |
| DO9HM | 2026-08-31 01:17:31 | 49.33496 | 10.83109 | 68° | 164km/h | 10417m | -3.1m/s | -45.8°C | 54.2% | 262.1hPa | 2.4V | 07:41:00 | 00:00:00 | 00:00:00 | |
| DL1NUX | 2026-08-31 01:17:30 | 49.33407 | 10.82733 | 73° | 175km/h | 10436m | -3.4m/s | -45.9°C | 61.9% | 261.4hPa | 2.4V | 07:41:15 | 02:45:32 | 00:00:00 | |
| DK7TD | 2026-08-31 01:17:28 | 49.33449 | 10.82926 | 70° | 173km/h | 10426m | -3.1m/s | -45.8°C | 58.3% | 261.8hPa | 2.4V | 07:41:53 | 02:45:35 | 00:00:00 | |
| BIOWL1-15 | 2026-08-31 01:17:24 | 49.33395 | 10.82668 | 74° | 173km/h | 10439m | -3.5m/s | -45.9°C | 56.5% | 261.2hPa | 2.4V | 07:41:53 | 02:45:31 | 00:00:00 | |
| DB0UT-7 | 2026-08-31 01:17:22 | 49.33372 | 10.82540 | 76° | 161km/h | 10447m | -3.6m/s | -45.8°C | 58.0% | 260.9hPa | 2.4V | 00:00:00 | 00:00:00 | 00:00:00 | |
| DM0DOS-11 | 2026-08-31 01:17:21 | 49.33352 | 10.82414 | 76° | 164km/h | 10453m | -3.4m/s | -45.9°C | 57.5% | 260.6hPa | 2.5V | 07:41:20 | 02:45:27 | 00:00:00 | |
| DL1NUX | 2026-08-31 01:17:20 | 49.33306 | 10.82124 | 74° | 148km/h | 10471m | -3.7m/s | -46°C | 59.4% | 259.9hPa | 2.5V | 07:41:25 | 02:45:22 | 00:00:00 | |
| DK7TD | 2026-08-31 01:17:18 | 49.33334 | 10.82294 | 77° | 155km/h | 10460m | -3.4m/s | -46°C | 55.4% | 260.4hPa | 2.4V | 07:41:53 | 02:45:25 | 00:00:00 | |
| SONCRA | 2026-08-31 01:17:17 | 49.33325 | 10.82236 | 76° | 151km/h | 10464m | -3.6m/s | -46.0°C | 48.6% | 260.2hPa | 2.4V | 00:00:00 | 00:00:00 | 00:00:00 | |
| DN1GJH-1 | 2026-08-31 01:17:16 | 49.33325 | 10.82236 | 77° | 151km/h | 10464m | -3.6m/s | -46.0°C | 48.7% | 260.2hPa | 2.4V | 07:41:00 | 00:00:00 | 00:00:00 | |
| DM0DOS-11 | 2026-08-31 01:17:15 | 49.33243 | 10.81850 | 67° | 157km/h | 10489m | -3.2m/s | -46.2°C | 65.4% | 259.4hPa | 2.4V | 07:41:30 | 02:45:17 | 00:00:00 | |
| BIOWL1-15 | 2026-08-31 01:17:13 | 49.33284 | 10.82015 | 71° | 148km/h | 10479m | -3.5m/s | -46.1°C | 57.5% | 259.7hPa | 2.4V | 07:41:53 | 02:45:20 | 00:00:00 | |
| SO1NDE-10 | 2026-08-31 01:17:11 | 49.33258 | 10.81906 | 69° | 162km/h | 10486m | -3.3m/s | -46.1°C | 64.2% | 259.4hPa | 2.4V | 00:00:00 | 02:45:18 | 00:00:00 | |
| DL1NUX | 2026-08-31 01:17:10 | 49.33169 | 10.81548 | 71° | 173km/h | 10506m | -3.6m/s | -46.3°C | 70.1% | 258.7hPa | 2.4V | 07:41:35 | 02:45:12 | 00:00:00 | |
| DK7TD | 2026-08-31 01:17:07 | 49.33198 | 10.81673 | 70° | 170km/h | 10499m | -3.3m/s | -46.3°C | 62.6% | 258.9hPa | 2.4V | 07:41:53 | 02:45:14 | 00:00:00 | |
| DF7PN | 2026-08-31 01:17:07 | 49.33183 | 10.81611 | 70° | 170km/h | 10502m | -3.3m/s | -46.3°C | 58.5% | 258.8hPa | 2.4V | 00:00:00 | 00:00:00 | 00:00:00 | |
| DO3MHA-11 | 2026-08-31 01:17:05 | 49.33169 | 10.81548 | 72° | 170km/h | 10506m | -3.5m/s | -46.2°C | 70.1% | 258.6hPa | 2.4V | 00:00:00 | 02:45:12 | 00:00:00 | |
| DK5PH-5 | 2026-08-31 01:17:04 | 49.33156 | 10.81484 | 73° | 162km/h | 10509m | -3.3m/s | -46.3°C | 70.5% | 258.5hPa | 2.4V | 00:00:00 | 02:45:11 | 00:00:00 | |
| DM0DOS-11 | 2026-08-31 01:17:03 | 49.33110 | 10.81226 | 76° | 170km/h | 10523m | -3.7m/s | -46.4°C | 71.7% | 258hPa | 2.4V | 07:41:40 | 02:45:07 | 00:00:00 | |
| BIOWL1-15 | 2026-08-31 01:17:02 | 49.33121 | 10.81291 | 76° | 172km/h | 10520m | -3.6m/s | -46.4°C | 66.6% | 258.1hPa | 2.4V | 07:41:53 | 02:45:08 | 00:00:00 | |
| DJ8HS-15 | 2026-08-31 01:17:01 | 49.33121 | 10.81291 | 76° | 172km/h | 10520m | -3.5m/s | -46.4°C | 71.3% | 258.1hPa | 2.4V | 00:00:00 | 02:45:08 | 00:00:00 | |
| DL1NUX | 2026-08-31 01:17:00 | 49.33067 | 10.80915 | 78° | 157km/h | 10542m | -3.7m/s | -46.6°C | 72.4% | 257.2hPa | 2.4V | 07:41:45 | 02:45:02 | 00:00:00 | |
| DK7TD | 2026-08-31 01:16:57 | 49.33083 | 10.81037 | 78° | 164km/h | 10535m | -4m/s | -46.6°C | 67.3% | 257.5hPa | 2.5V | 07:41:53 | 02:45:04 | 00:00:00 | |
| DF3TZ-5 | 2026-08-31 01:16:56 | 49.33067 | 10.80915 | 78° | 155km/h | 10542m | -3.7m/s | -46.6°C | 61.0% | 257.2hPa | 2.5V | 00:00:00 | 00:00:00 | 00:00:00 | |
| DL6DJ-15 | 2026-08-31 01:16:54 | 49.33051 | 10.80800 | 77° | 148km/h | 10550m | -3.6m/s | -46.7°C | 61.3% | 256.9hPa | 2.5V | 00:00:00 | 00:00:00 | 00:00:00 | |
| DM0DOS-11 | 2026-08-31 01:16:52 | 49.33022 | 10.80635 | 71° | 146km/h | 10560m | -3.7m/s | -46.8°C | 72% | 256.5hPa | 2.5V | 07:41:50 | 02:44:57 | 00:00:00 | |
| DB0UT-7 | 2026-08-31 01:16:52 | 49.33042 | 10.80744 | 76° | 157km/h | 10553m | -3.4m/s | -46.7°C | 72.7% | 256.7hPa | 2.5V | 00:00:00 | 02:44:59 | 00:00:00 | |
| BIOWL1-15 | 2026-08-31 01:16:52 | 49.32982 | 10.80471 | 69° | 157km/h | 10571m | -3.4m/s | -46.8°C | 65% | 256.2hPa | 2.4V | 07:41:53 | 02:44:54 | 00:00:00 | |
| OE5DXL-15 | 2026-08-31 01:16:51 | 49.33022 | 10.80635 | 72° | 159km/h | 10560m | -3.6m/s | -46.7°C | 72.0% | 256.5hPa | 2.5V | 00:00:00 | 00:00:00 | 00:00:00 | |
| DO9HM | 2026-08-31 01:16:50 | 49.33022 | 10.80635 | 73° | 146km/h | 10560m | -3.7m/s | -46.8°C | 60.7% | 256.5hPa | 2.5V | 07:41:00 | 00:00:00 | 00:00:00 | |
| DL1NUX | 2026-08-31 01:16:49 | 49.32953 | 10.80355 | 68° | 166km/h | 10578m | -3.6m/s | -46.9°C | 69.6% | 255.8hPa | 2.5V | 07:41:55 | 02:44:52 | 00:00:00 | |
| DK7TD | 2026-08-31 01:16:46 | 49.32968 | 10.80414 | 68° | 162km/h | 10574m | -3.4m/s | -46.9°C | 64.7% | 256hPa | 2.4V | 07:42:44 | 02:44:53 | 00:00:00 | |
| SONCRA | 2026-08-31 01:16:46 | 49.32953 | 10.80355 | 68° | 164km/h | 10578m | -3.6m/s | -46.9°C | 58.4% | 255.8hPa | 2.4V | 00:00:00 | 00:00:00 | 00:00:00 | |
| DL1NUX | 2026-08-31 01:16:40 | 49.32837 | 10.79726 | 78° | 157km/h | 10614m | -3.5m/s | -47.2°C | 69.5% | 254.4hPa | 2.4V | 07:42:05 | 02:44:42 | 00:00:00 | |
| BIOWL1-15 | 2026-08-31 01:16:39 | 49.32853 | 10.79848 | 78° | 166km/h | 10606m | -3.6m/s | -47.1°C | 64.2% | 254.7hPa | 2.4V | 07:42:44 | 02:44:44 | 00:00:00 | |
| DK7TD | 2026-08-31 01:16:36 | 49.32845 | 10.79786 | 79° | 161km/h | 10610m | -3.6m/s | -47.2°C | 64.4% | 254.6hPa | 2.4V | 07:42:44 | 02:44:43 | 00:00:00 | |
| DF7PN | 2026-08-31 01:16:36 | 49.32837 | 10.79726 | 78° | 157km/h | 10614m | -3.5m/s | -47.2°C | 58.3% | 254.4hPa | 2.4V | 00:00:00 | 00:00:00 | 00:00:00 | |
| DM0DOS-11 | 2026-08-31 01:16:35 | 49.32795 | 10.79442 | 74° | 146km/h | 10632m | -3.6m/s | -47.4°C | 69.8% | 253.8hPa | 2.4V | 07:42:10 | 02:44:37 | 00:00:00 | |
| DO3MHA-11 | 2026-08-31 01:16:35 | 49.32837 | 10.79726 | 79° | 150km/h | 10614m | -3.5m/s | -47.1°C | 69.5% | 254.4hPa | 2.4V | 00:00:00 | 02:44:42 | 00:00:00 | |
| DJTTGO | 2026-08-31 01:16:34 | 49.32829 | 10.79667 | 79° | 155km/h | 10617m | -3.6m/s | -47.2°C | 58.3% | 254.3hPa | 2.4V | 00:00:00 | 00:00:00 | 00:00:00 | |
| AM1SDL-15 | 2026-08-31 01:16:33 | 49.32821 | 10.79609 | 79° | 151km/h | 10621m | -3.5m/s | -47.2°C | 69.8% | 254.2hPa | 2.4V | 00:00:00 | 02:44:40 | 00:00:00 | |
| DL1NUX | 2026-08-31 01:16:30 | 49.32736 | 10.79172 | 68° | 153km/h | 10650m | -3.7m/s | -47.5°C | 70.5% | 253hPa | 2.4V | 07:42:15 | 02:44:32 | 00:00:00 | |
| BIOWL1-15 | 2026-08-31 01:16:29 | 49.32722 | 10.79115 | 69° | 157km/h | 10654m | -3.7m/s | -47.6°C | 64.9% | 252.9hPa | 2.4V | 07:42:44 | 02:44:31 | 00:00:00 | |
| DK7TD | 2026-08-31 01:16:25 | 49.32736 | 10.79172 | 69° | 153km/h | 10650m | -3.7m/s | -47.6°C | 64.9% | 253hPa | 2.4V | 07:42:44 | 02:44:32 | 00:00:00 | |
| DF3TZ-5 | 2026-08-31 01:16:25 | 49.32722 | 10.79115 | 68° | 157km/h | 10654m | -3.7m/s | -47.6°C | 58.9% | 252.9hPa | 2.5V | 00:00:00 | 00:00:00 | 00:00:00 | |
| DM0DOS-11 | 2026-08-31 01:16:24 | 49.32664 | 10.78875 | 71° | 172km/h | 10669m | -3.5m/s | -47.7°C | 69.5% | 252.4hPa | 2.5V | 07:42:20 | 02:44:27 | 00:00:00 | |
| DL6DJ-15 | 2026-08-31 01:16:23 | 49.32692 | 10.78999 | 69° | 164km/h | 10661m | -3.7m/s | -47.7°C | 58.8% | 252.7hPa | 2.5V | 00:00:00 | 00:00:00 | 00:00:00 | |
| DB0UT-7 | 2026-08-31 01:16:21 | 49.32678 | 10.78938 | 71° | 161km/h | 10665m | -3.7m/s | -47.6°C | 69.8% | 252.4hPa | 2.5V | 00:00:00 | 00:00:00 | 00:00:00 | |
| DL1NUX | 2026-08-31 01:16:20 | 49.32607 | 10.78555 | 77° | 168km/h | 10688m | -3.8m/s | -47.9°C | 68.3% | 251.7hPa | 2.5V | 07:42:25 | 02:44:22 | 00:00:00 | |
| BIOWL1-15 | 2026-08-31 01:16:18 | 49.32638 | 10.78748 | 74° | 173km/h | 10676m | -3.9m/s | -47.8°C | 64.2% | 252.1hPa | 2.4V | 07:42:44 | 02:44:25 | 00:00:00 | |
| DK7TD | 2026-08-31 01:16:12 | 49.32583 | 10.78370 | 79° | 157km/h | 10698m | -3.6m/s | -48°C | 62.1% | 251.2hPa | 2.4V | 07:42:44 | 02:44:19 | 00:00:00 | |
| SO1NDE-10 | 2026-08-31 01:16:11 | 49.32575 | 10.78312 | 80° | 155km/h | 10702m | -3.7m/s | -48.0°C | 66.0% | 251.0hPa | 2.4V | 00:00:00 | 02:44:18 | 00:00:00 | |
| DL1NUX | 2026-08-31 01:16:10 | 49.32519 | 10.77983 | 70° | 148km/h | 10724m | -3.7m/s | -48.2°C | 63.8% | 250.2hPa | 2.4V | 07:42:35 | 02:44:12 | 00:00:00 | |
| BIOWL1-15 | 2026-08-31 01:16:07 | 49.32531 | 10.78037 | 72° | 146km/h | 10720m | -3.5m/s | -48.2°C | 59.8% | 250.4hPa | 2.4V | 07:42:44 | 02:44:13 | 00:00:00 | |
| DM0DOS-11 | 2026-08-31 01:16:07 | 49.32531 | 10.78037 | 71° | 146km/h | 10720m | -3.5m/s | -48.2°C | 64.2% | 250.4hPa | 2.4V | 07:42:34 | 02:44:13 | 00:00:00 | |
| DK7TD | 2026-08-31 01:16:02 | 49.32477 | 10.77818 | 69° | 159km/h | 10735m | -3.9m/s | -48.3°C | 57.4% | 249.9hPa | 2.5V | 07:42:44 | 02:44:09 | 00:00:00 | |
| DL1NUX | 2026-08-31 01:16:00 | 49.32384 | 10.77386 | 75° | 170km/h | 10761m | -3.7m/s | -48.5°C | 60.6% | 248.9hPa | 2.4V | 07:42:45 | 02:44:02 | 00:00:00 | |
| BIOWL1-15 | 2026-08-31 01:15:56 | 49.32395 | 10.77450 | 75° | 172km/h | 10757m | -3.8m/s | -48.4°C | 57.1% | 249hPa | 2.5V | 07:42:44 | 02:44:03 | 00:00:00 | |
| DK7TD | 2026-08-31 01:15:51 | 49.32348 | 10.77133 | 79° | 162km/h | 10777m | -3.8m/s | -48.6°C | 56% | 248.3hPa | 2.5V | 07:44:26 | 02:43:58 | 00:00:00 | |
| DB0UT-7 | 2026-08-31 01:15:51 | 49.32348 | 10.77133 | 80° | 157km/h | 10777m | -3.8m/s | -48.5°C | 59.4% | 248.2hPa | 2.5V | 00:00:00 | 02:43:58 | 00:00:00 | |
| DL1NUX | 2026-08-31 01:15:50 | 49.32304 | 10.76785 | 76° | 144km/h | 10799m | -3.8m/s | -48.8°C | 60% | 247.4hPa | 2.5V | 07:42:55 | 02:43:52 | 00:00:00 | |
| BIOWL1-15 | 2026-08-31 01:15:46 | 49.32166 | 10.76149 | 74° | 172km/h | 10840m | -3.9m/s | -49°C | 55.4% | 245.9hPa | 2.4V | 07:43:35 | 02:43:41 | 00:00:00 | |
| DK7TD | 2026-08-31 01:15:40 | 49.32248 | 10.76515 | 70° | 155km/h | 10818m | -3.8m/s | -48.9°C | 57.1% | 246.7hPa | 2.4V | 07:44:26 | 02:43:47 | 00:00:00 | |
| DJ8HS-15 | 2026-08-31 01:15:40 | 49.32248 | 10.76514 | 70° | 161km/h | 10818m | -3.7m/s | -48.8°C | 62.1% | 246.7hPa | 2.4V | 00:00:00 | 02:43:47 | 00:00:00 | |
| DM0DOS-11 | 2026-08-31 01:15:35 | 49.32125 | 10.75893 | 78° | 166km/h | 10855m | -3.8m/s | -49.1°C | 59.5% | 245.3hPa | 2.4V | 07:43:10 | 02:43:37 | 00:00:00 | |
| DK7TD | 2026-08-31 01:15:30 | 49.32125 | 10.75893 | 79° | 166km/h | 10855m | -3.8m/s | -49.1°C | 55.3% | 245.3hPa | 2.4V | 07:44:26 | 02:43:37 | 00:00:00 | |
| DJTTGO | 2026-08-31 01:15:29 | 49.32125 | 10.75892 | 80° | 166km/h | 10855m | -3.8m/s | -49.1°C | 48.9% | 245.3hPa | 2.4V | 00:00:00 | 00:00:00 | 00:00:00 | |
| DO9HM | 2026-08-31 01:15:28 | 49.32110 | 10.75768 | 81° | 159km/h | 10862m | -3.7m/s | -49.2°C | 49.8% | 245.0hPa | 2.4V | 07:43:00 | 00:00:00 | 00:00:00 | |
| DL1NUX | 2026-08-31 01:15:27 | 49.32089 | 10.75594 | 77° | 148km/h | 10873m | -3.4m/s | -49.2°C | 61.9% | 244.6hPa | 2.4V | 07:43:15 | 02:43:32 | 00:00:00 | |
| DO3MHA-11 | 2026-08-31 01:15:25 | 49.32089 | 10.75594 | 78° | 153km/h | 10873m | -3.4m/s | -49.2°C | 61.9% | 244.6hPa | 2.4V | 00:00:00 | 02:43:32 | 00:00:00 | |
| BIOWL1-15 | 2026-08-31 01:15:23 | 49.31867 | 10.74461 | 79° | 157km/h | 10944m | -3.6m/s | -49.7°C | 62.3% | 242hPa | 2.4V | 07:43:35 | 02:43:13 | 00:00:00 | |
| DM0DOS-11 | 2026-08-31 01:15:23 | 49.32036 | 10.75320 | 70° | 151km/h | 10891m | -3.5m/s | -49.4°C | 61.9% | 243.9hPa | 2.5V | 07:43:20 | 02:43:27 | 00:00:00 | |
| DF3TZ-5 | 2026-08-31 01:15:23 | 49.32061 | 10.75429 | 72° | 146km/h | 10884m | -3.3m/s | -49.4°C | 51.5% | 244.2hPa | 2.4V | 00:00:00 | 00:00:00 | 00:00:00 | |
| DL1NUX | 2026-08-31 01:15:22 | 49.31966 | 10.75030 | 70° | 168km/h | 10910m | -4.1m/s | -49.5°C | 61.3% | 243.3hPa | 2.4V | 07:43:25 | 02:43:22 | 00:00:00 | |
| DK7TD | 2026-08-31 01:15:21 | 49.32023 | 10.75264 | 70° | 155km/h | 10894m | -3.6m/s | -49.4°C | 56.8% | 243.9hPa | 2.5V | 07:44:26 | 02:43:26 | 00:00:00 | |
| DM0DOS-11 | 2026-08-31 01:15:18 | 49.31901 | 10.74712 | 76° | 173km/h | 10930m | -3.6m/s | -49.6°C | 64.7% | 242.5hPa | 2.4V | 07:43:30 | 02:43:17 | 00:00:00 | |
| BIOWL1-15 | 2026-08-31 01:15:12 | 49.31844 | 10.74291 | 77° | 146km/h | 10955m | -3.8m/s | -49.8°C | 65.7% | 241.6hPa | 2.4V | 07:45:17 | 02:43:10 | 00:00:00 | |
| SO1NDE-10 | 2026-08-31 01:15:11 | 49.31912 | 10.74777 | 75° | 159km/h | 10926m | -3.6m/s | -49.5°C | 64.2% | 242.7hPa | 2.4V | 00:00:00 | 02:43:18 | 00:00:00 | |
| DL1NUX | 2026-08-31 01:15:10 | 49.31860 | 10.74403 | 78° | 151km/h | 10948m | -3.7m/s | -49.7°C | 69.1% | 241.9hPa | 2.4V | 07:43:35 | 02:43:12 | 00:00:00 | |
| DK7TD | 2026-08-31 01:15:07 | 49.31875 | 10.74522 | 79° | 161km/h | 10941m | -3.4m/s | -49.7°C | 61.1% | 242.2hPa | 2.5V | 07:44:26 | 02:43:14 | 00:00:00 | |
| DO9HM | 2026-08-31 01:15:06 | 49.31874 | 10.74522 | 80° | 161km/h | 10941m | -3.4m/s | -49.7°C | 55.1% | 242.2hPa | 2.4V | 07:43:00 | 00:00:00 | 00:00:00 | |
| DM0DOS-11 | 2026-08-31 01:15:05 | 49.31815 | 10.74128 | 72° | 146km/h | 10967m | -3.8m/s | -49.8°C | 72.6% | 241.1hPa | 2.4V | 07:43:40 | 02:43:07 | 00:00:00 | |
| BIOWL1-15 | 2026-08-31 01:15:05 | 49.31826 | 10.74182 | 74° | 144km/h | 10963m | -4m/s | -49.8°C | 67% | 241.3hPa | 2.5V | 07:45:17 | 02:43:08 | 00:00:00 | |
| DO3MHA-11 | 2026-08-31 01:15:05 | 49.31860 | 10.74403 | 79° | 150km/h | 10948m | -3.6m/s | -49.6°C | 69.1% | 241.8hPa | 2.4V | 00:00:00 | 02:43:12 | 00:00:00 | |
| DK5PH-5 | 2026-08-31 01:15:04 | 49.31852 | 10.74346 | 79° | 155km/h | 10951m | -3.5m/s | -49.7°C | 70.4% | 241.7hPa | 2.5V | 00:00:00 | 02:43:11 | 00:00:00 | |
| DJ8HS-15 | 2026-08-31 01:15:00 | 49.31815 | 10.74128 | 73° | 159km/h | 10967m | -3.8m/s | -49.8°C | 72.6% | 241.1hPa | 2.5V | 00:00:00 | 02:43:07 | 00:00:00 | |
| DL1NUX | 2026-08-31 01:14:59 | 49.31748 | 10.73849 | 69° | 164km/h | 10986m | -3.9m/s | -49.9°C | 72.9% | 240.5hPa | 2.5V | 07:43:45 | 02:43:02 | 00:00:00 | |
| DM0DOS-11 | 2026-08-31 01:14:55 | 49.31670 | 10.73471 | 76° | 172km/h | 11009m | -3.6m/s | -50°C | 77% | 239.6hPa | 2.5V | 07:43:51 | 02:42:56 | 00:00:00 | |
| DK7TD | 2026-08-31 01:14:51 | 49.31692 | 10.73600 | 74° | 173km/h | 11001m | -4m/s | -50°C | 69.6% | 239.9hPa | 2.4V | 07:44:26 | 02:42:58 | 00:00:00 | |
| BIOWL1-15 | 2026-08-31 01:14:50 | 49.31661 | 10.73407 | 78° | 168km/h | 11012m | -3.6m/s | -50.1°C | 70.1% | 239.5hPa | 2.4V | 07:45:17 | 02:42:55 | 00:00:00 | |
| DL6DJ-15 | 2026-08-31 01:14:50 | 49.31670 | 10.73471 | 76° | 170km/h | 11009m | -3.6m/s | -50.1°C | 63.9% | 239.6hPa | 2.4V | 00:00:00 | 00:00:00 | 00:00:00 | |
| NBG1-10 | 2026-08-31 01:14:47 | 49.31652 | 10.73344 | 79° | 157km/h | 11016m | -3.5m/s | -50.1°C | 77.0% | 239.4hPa | 2.4V | 00:00:00 | 02:42:54 | 00:00:00 | |
| DM7RM-13 | 2026-08-31 01:14:46 | 49.31652 | 10.73344 | 80° | 162km/h | 11016m | -3.5m/s | -50.1°C | 64.0% | 239.5hPa | 2.4V | 07:44:00 | 00:00:00 | 00:00:00 | |
| DO3MHA-11 | 2026-08-31 01:14:45 | 49.31637 | 10.73223 | 79° | 150km/h | 11023m | -3.6m/s | -50.1°C | 76.9% | 239.0hPa | 2.4V | 00:00:00 | 02:42:52 | 00:00:00 | |
| DM0DOS-11 | 2026-08-31 01:14:44 | 49.31593 | 10.72945 | 73° | 146km/h | 11042m | -3.8m/s | -50.3°C | 75.3% | 238.5hPa | 2.4V | 07:44:00 | 02:42:47 | 00:00:00 | |
| DK7TD | 2026-08-31 01:14:41 | 49.31603 | 10.72999 | 74° | 144km/h | 11038m | -3.9m/s | -50.3°C | 68.8% | 238.6hPa | 2.4V | 07:44:26 | 02:42:48 | 00:00:00 | |
| BIOWL1-15 | 2026-08-31 01:14:40 | 49.31593 | 10.72945 | 73° | 146km/h | 11042m | -3.8m/s | -50.3°C | 68.7% | 0hPa | 2.4V | 07:45:17 | 02:42:47 | 00:00:00 | |
| DB0NH | 2026-08-31 01:14:40 | 49.31593 | 10.72945 | 74° | 161km/h | 11042m | -3.7m/s | -50.2°C | 75.3% | 238.4hPa | 2.4V | 00:00:00 | 02:42:47 | 00:00:00 | |
| OE5DXL-15 | 2026-08-31 01:14:39 | 49.31582 | 10.72892 | 72° | 162km/h | 11045m | -3.8m/s | -50.2°C | 75.6% | 238.3hPa | 2.4V | 00:00:00 | 00:00:00 | 00:00:00 | |
| DO3MHA-11 | 2026-08-31 01:14:35 | 49.31528 | 10.72670 | 69° | 170km/h | 11061m | -3.7m/s | -50.3°C | 75.6% | 237.7hPa | 2.4V | 00:00:00 | 02:42:42 | 00:00:00 | |
| DM0DOS-11 | 2026-08-31 01:14:34 | 49.31459 | 10.72360 | 74° | 173km/h | 11079m | -3.7m/s | -50.5°C | 75.1% | 237.1hPa | 2.5V | 07:44:10 | 02:42:37 | 00:00:00 | |
| BIOWL1-15 | 2026-08-31 01:14:30 | 49.31459 | 10.72360 | 75° | 173km/h | 11079m | -3.7m/s | -50.5°C | 69% | 0hPa | 2.5V | 07:45:17 | 02:42:37 | 00:00:00 | |
| DK7TD | 2026-08-31 01:14:29 | 49.31448 | 10.72295 | 76° | 173km/h | 11083m | -3.7m/s | -50.5°C | 68.9% | 236.9hPa | 2.4V | 07:44:26 | 02:42:36 | 00:00:00 | |
| DL1NUX | 2026-08-31 01:14:28 | 49.31412 | 10.72037 | 79° | 166km/h | 11099m | -3.9m/s | -50.7°C | 74.5% | 236.4hPa | 2.5V | 07:44:15 | 02:42:32 | 00:00:00 | |
| DO9HM | 2026-08-31 01:14:27 | 49.31428 | 10.72165 | 79° | 170km/h | 11091m | -3.9m/s | -50.6°C | 61.8% | 236.7hPa | 2.4V | 07:44:00 | 00:00:00 | 00:00:00 | |
| AM1SDL-15 | 2026-08-31 01:14:26 | 49.31420 | 10.72101 | 79° | 159km/h | 11095m | -3.9m/s | -50.6°C | 74.8% | 236.4hPa | 2.4V | 00:00:00 | 02:42:33 | 00:00:00 | |
| DO3MHA-11 | 2026-08-31 01:14:25 | 49.31412 | 10.72037 | 80° | 153km/h | 11099m | -3.8m/s | -50.6°C | 74.5% | 236.3hPa | 2.4V | 00:00:00 | 02:42:32 | 00:00:00 | |
| DF1GD-15 | 2026-08-31 01:14:24 | 49.31412 | 10.72037 | 81° | 166km/h | 11099m | -3.9m/s | -50.7°C | 61.6% | 236.4hPa | 2.4V | 07:44:00 | 00:00:00 | 00:00:00 | |
| DM0DOS-11 | 2026-08-31 01:14:23 | 49.31376 | 10.71739 | 77° | 148km/h | 11118m | -3.8m/s | -50.8°C | 75.2% | 235.7hPa | 2.4V | 07:44:20 | 02:42:27 | 00:00:00 | |
| DK7TD | 2026-08-31 01:14:19 | 49.31367 | 10.71684 | 76° | 144km/h | 11122m | -3.8m/s | -50.9°C | 68.5% | 235.5hPa | 2.4V | 07:44:26 | 02:42:26 | 00:00:00 | |
| DL1NUX | 2026-08-31 01:14:18 | 49.31321 | 10.71466 | 69° | 155km/h | 11137m | -3.5m/s | -51°C | 75.6% | 235hPa | 2.4V | 07:44:25 | 02:42:22 | 00:00:00 | |
| BIOWL1-15 | 2026-08-31 01:14:08 | 49.31231 | 10.71029 | 77° | 173km/h | 11162m | -3.6m/s | -51.1°C | 68.2% | 0hPa | 2.4V | 07:45:17 | 02:42:15 | 00:00:00 | |
| DL1NUX | 2026-08-31 01:14:08 | 49.31205 | 10.70835 | 79° | 168km/h | 11173m | -3.8m/s | -51.2°C | 73.5% | 233.7hPa | 2.5V | 07:44:35 | 02:42:12 | 00:00:00 | |
| DB0ND-19 | 2026-08-31 01:14:08 | 49.31222 | 10.70964 | 78° | 172km/h | 11166m | -3.7m/s | -51.2°C | 61.3% | 234.0hPa | 2.5V | 00:00:00 | 00:00:00 | 00:00:00 | |
| DO9HM | 2026-08-31 01:14:06 | 49.31213 | 10.70899 | 80° | 170km/h | 11170m | -3.7m/s | -51.2°C | 60.9% | 233.8hPa | 2.5V | 07:45:00 | 00:00:00 | 00:00:00 | |
| DO3MHA-11 | 2026-08-31 01:14:05 | 49.31206 | 10.70835 | 80° | 155km/h | 11174m | -3.7m/s | -51.2°C | 73.5% | 233.6hPa | 2.5V | 00:00:00 | 02:42:12 | 00:00:00 | |
| DK5PH-5 | 2026-08-31 01:14:04 | 49.31198 | 10.70772 | 81° | 159km/h | 11177m | -3.7m/s | -51.2°C | 73.2% | 233.5hPa | 2.4V | 07:44:00 | 02:42:11 | 00:00:00 | |
| OE5DXL-15 | 2026-08-31 01:14:03 | 49.31191 | 10.70709 | 81° | 159km/h | 11181m | -3.8m/s | -51.2°C | 73.2% | 233.4hPa | 2.4V | 07:44:00 | 00:00:00 | 00:00:00 | |
| DF7PN | 2026-08-31 01:14:00 | 49.31172 | 10.70529 | 80° | 151km/h | 11193m | -4.0m/s | -51.4°C | 60.4% | 233.0hPa | 2.4V | 00:00:00 | 00:00:00 | 00:00:00 | |
| DC4HF-4 | 2026-08-31 01:13:59 | 49.31158 | 10.70416 | 77° | 146km/h | 11201m | -3.7m/s | -51.4°C | 60.3% | 232.7hPa | 2.4V | 00:00:00 | 00:00:00 | 00:00:00 | |
| DL1NUX | 2026-08-31 01:13:58 | 49.31130 | 10.70251 | 72° | 148km/h | 11211m | -3.6m/s | -51.5°C | 73.5% | 232.3hPa | 2.4V | 07:44:45 | 02:42:02 | 00:00:00 | |
| DK7TD | 2026-08-31 01:13:54 | 49.31118 | 10.70196 | 72° | 151km/h | 11215m | -3.7m/s | -51.5°C | 66.1% | 232.2hPa | 2.4V | 07:46:59 | 02:42:01 | 00:00:00 | |
| OE5DRO-10 | 2026-08-31 01:13:49 | 49.31051 | 10.69901 | 72° | 164km/h | 11234m | -3.6m/s | -51.6°C | 71.2% | 231.4hPa | 2.4V | 00:00:00 | 00:00:00 | 00:00:00 | |
| DL1NUX | 2026-08-31 01:13:48 | 49.31002 | 10.69640 | 76° | 177km/h | 11249m | -3.7m/s | -51.7°C | 69.9% | 231hPa | 2.4V | 07:44:55 | 02:41:52 | 00:00:00 | |
| BIOWL1-15 | 2026-08-31 01:13:45 | 49.30993 | 10.69573 | 78° | 175km/h | 11253m | -3.7m/s | -51.7°C | 62.9% | 0hPa | 2.4V | 07:45:17 | 02:41:51 | 00:00:00 | |
| DM0DOS-11 | 2026-08-31 01:13:45 | 49.30964 | 10.69318 | 80° | 157km/h | 11267m | -3.6m/s | -51.8°C | 68.8% | 230.3hPa | 2.5V | 07:45:00 | 02:41:47 | 00:00:00 | |
| DK7TD | 2026-08-31 01:13:43 | 49.30984 | 10.69507 | 80° | 172km/h | 11256m | -3.6m/s | -51.7°C | 62.6% | 230.7hPa | 2.4V | 07:46:59 | 02:41:50 | 00:00:00 | |
| DB0UT-7 | 2026-08-31 01:13:43 | 49.30984 | 10.69507 | 80° | 157km/h | 11256m | -3.5m/s | -51.7°C | 69.2% | 230.6hPa | 2.5V | 07:44:00 | 02:41:50 | 00:00:00 | |
| SO1NDE-10 | 2026-08-31 01:13:41 | 49.30970 | 10.69379 | 82° | 159km/h | 11264m | -3.5m/s | -51.7°C | 69.0% | 230.4hPa | 2.5V | 00:00:00 | 02:41:48 | 00:00:00 | |
| DL1NUX | 2026-08-31 01:13:40 | 49.30925 | 10.69035 | 74° | 146km/h | 11285m | -3.6m/s | -51.9°C | 66.1% | 229.7hPa | 2.5V | 07:45:05 | 02:41:42 | 00:00:00 | |
| DJ8HS-15 | 2026-08-31 01:13:40 | 49.30964 | 10.69318 | 81° | 161km/h | 11267m | -3.6m/s | -51.7°C | 68.8% | 230.3hPa | 2.5V | 00:00:00 | 02:41:47 | 00:00:00 | |
| SONCRA | 2026-08-31 01:13:39 | 49.30957 | 10.69259 | 80° | 151km/h | 11271m | -3.5m/s | -51.8°C | 55.7% | 230.2hPa | 2.5V | 00:00:00 | 00:00:00 | 00:00:00 | |
| DO3MHA-11 | 2026-08-31 01:13:35 | 49.30924 | 10.69035 | 75° | 161km/h | 11285m | -3.6m/s | -51.8°C | 66.1% | 229.6hPa | 2.5V | 07:45:00 | 02:41:42 | 00:00:00 | |
| DM0DOS-11 | 2026-08-31 01:13:34 | 49.30864 | 10.68756 | 70° | 161km/h | 11304m | -3.9m/s | -52.1°C | 66.1% | 229hPa | 2.4V | 07:45:10 | 02:41:37 | 00:00:00 | |
| BIOWL1-15 | 2026-08-31 01:13:34 | 49.30914 | 10.68980 | 73° | 148km/h | 11289m | -3.8m/s | -51.9°C | 61.2% | 0hPa | 2.5V | 07:45:17 | 02:41:41 | 00:00:00 | |
| DK5PH-5 | 2026-08-31 01:13:34 | 49.30914 | 10.68980 | 74° | 161km/h | 11289m | -3.8m/s | -51.9°C | 66.1% | 229.5hPa | 2.4V | 00:00:00 | 02:41:41 | 00:00:00 | |
| OE5DXL-15 | 2026-08-31 01:13:33 | 49.30903 | 10.68925 | 72° | 162km/h | 11293m | -3.7m/s | -51.9°C | 66.0% | 229.4hPa | 2.4V | 00:00:00 | 00:00:00 | 00:00:00 | |
| DF7PN | 2026-08-31 01:13:29 | 49.30850 | 10.68697 | 70° | 164km/h | 11307m | -3.6m/s | -52.1°C | 53.5% | 228.9hPa | 2.4V | 00:00:00 | 00:00:00 | 00:00:00 | |
| DL1NUX | 2026-08-31 01:13:25 | 49.30798 | 10.68442 | 75° | 177km/h | 11321m | -3.6m/s | -52.1°C | 65.4% | 228.4hPa | 2.4V | 07:45:15 | 02:41:32 | 00:00:00 | |
| DO9HM | 2026-08-31 01:13:25 | 49.30798 | 10.68442 | 77° | 177km/h | 11322m | -3.6m/s | -52.2°C | 53.1% | 228.4hPa | 2.4V | 07:45:00 | 00:00:00 | 00:00:00 | |
| DN1GJH-1 | 2026-08-31 01:13:24 | 49.30798 | 10.68442 | 77° | 177km/h | 11322m | -3.6m/s | -52.2°C | 53.1% | 228.4hPa | 2.4V | 07:45:00 | 00:00:00 | 00:00:00 | |
| DM0DOS-11 | 2026-08-31 01:13:23 | 49.30755 | 10.68116 | 80° | 164km/h | 11339m | -3.5m/s | -52.3°C | 64.7% | 227.7hPa | 2.4V | 07:45:20 | 02:41:27 | 00:00:00 | |
| BIOWL1-15 | 2026-08-31 01:13:23 | 49.30778 | 10.68309 | 78° | 173km/h | 11329m | -3.6m/s | 0°C | 0% | 0hPa | 2.4V | 07:45:17 | 02:41:30 | 00:00:00 | |
| DF1GD-15 | 2026-08-31 01:13:22 | 49.30778 | 10.68309 | 79° | 173km/h | 11329m | -3.6m/s | -52.2°C | 53.0% | 228.1hPa | 2.5V | 07:45:00 | 00:00:00 | 00:00:00 | |
| DL1NUX | 2026-08-31 01:13:20 | 49.30720 | 10.67822 | 77° | 146km/h | 11358m | -3.7m/s | -52.4°C | 64.2% | 227.1hPa | 2.5V | 07:45:25 | 02:41:22 | 00:00:00 | |
| DJ8HS-15 | 2026-08-31 01:13:20 | 49.30755 | 10.68116 | 81° | 161km/h | 11340m | -3.5m/s | -52.2°C | 64.7% | 227.7hPa | 2.4V | 00:00:00 | 02:41:27 | 00:00:00 | |
| DJTTGO | 2026-08-31 01:13:19 | 49.30748 | 10.68053 | 82° | 161km/h | 11343m | -3.7m/s | -52.3°C | 52.4% | 227.6hPa | 2.4V | 00:00:00 | 00:00:00 | 00:00:00 | |
| DF3TZ-5 | 2026-08-31 01:13:18 | 49.30742 | 10.67993 | 80° | 155km/h | 11347m | -3.8m/s | -52.3°C | 52.3% | 227.5hPa | 2.4V | 00:00:00 | 00:00:00 | 00:00:00 | |
| DL6DJ-15 | 2026-08-31 01:13:16 | 49.30728 | 10.67878 | 78° | 148km/h | 11354m | -3.6m/s | -52.4°C | 51.9% | 227.2hPa | 2.4V | 00:00:00 | 00:00:00 | 00:00:00 | |
| DO3MHA-11 | 2026-08-31 01:13:15 | 49.30720 | 10.67822 | 78° | 157km/h | 11358m | -3.6m/s | -52.4°C | 64.2% | 227.0hPa | 2.4V | 00:00:00 | 02:41:22 | 00:00:00 | |
| DM0DOS-11 | 2026-08-31 01:13:13 | 49.30666 | 10.67547 | 70° | 155km/h | 11376m | -3.6m/s | -52.5°C | 64.6% | 226.4hPa | 2.4V | 07:45:30 | 02:41:17 | 00:00:00 | |
| DK7TD | 2026-08-31 01:13:13 | 49.30702 | 10.67713 | 74° | 146km/h | 11365m | -3.9m/s | -52.5°C | 58.4% | 226.8hPa | 2.4V | 07:46:59 | 02:41:20 | 00:00:00 | |
| DB0UT-7 | 2026-08-31 01:13:13 | 49.30702 | 10.67713 | 74° | 164km/h | 11366m | -3.9m/s | -52.4°C | 64.0% | 226.8hPa | 2.4V | 00:00:00 | 00:00:00 | 00:00:00 | |
| SO1NDE-10 | 2026-08-31 01:13:11 | 49.30679 | 10.67603 | 72° | 164km/h | 11373m | -3.6m/s | -52.5°C | 64.1% | 226.5hPa | 2.4V | 00:00:00 | 02:41:18 | 00:00:00 | |
| DL1NUX | 2026-08-31 01:13:10 | 49.30599 | 10.67240 | 74° | 175km/h | 11394m | -3.6m/s | -52.6°C | 63.7% | 225.8hPa | 2.4V | 07:45:35 | 02:41:12 | 00:00:00 | |
| DB0NH | 2026-08-31 01:13:10 | 49.30666 | 10.67547 | 71° | 164km/h | 11377m | -3.6m/s | -52.5°C | 64.6% | 226.4hPa | 2.4V | 07:45:00 | 02:41:17 | 00:00:00 | |
| NBG1-10 | 2026-08-31 01:13:08 | 49.30638 | 10.67430 | 71° | 166km/h | 11384m | -3.2m/s | -52.5°C | 64.4% | 226.2hPa | 2.4V | 00:00:00 | 02:41:15 | 00:00:00 | |
| DO9HM | 2026-08-31 01:13:05 | 49.30599 | 10.67240 | 75° | 175km/h | 11394m | -3.6m/s | -52.6°C | 51.5% | 225.8hPa | 2.4V | 07:46:00 | 00:00:00 | 00:00:00 | |
| DK5PH-5 | 2026-08-31 01:13:04 | 49.30588 | 10.67174 | 76° | 166km/h | 11398m | -3.5m/s | -52.6°C | 62.8% | 225.6hPa | 2.4V | 00:00:00 | 02:41:11 | 00:00:00 | |
| DF1GD-15 | 2026-08-31 01:13:03 | 49.30577 | 10.67108 | 78° | 175km/h | 11401m | -3.5m/s | -52.7°C | 50.5% | 225.6hPa | 2.4V | 07:46:00 | 00:00:00 | 00:00:00 | |
| DL1NUX | 2026-08-31 01:13:00 | 49.30519 | 10.66605 | 79° | 150km/h | 11431m | -3.7m/s | -52.7°C | 57.9% | 224.5hPa | 2.4V | 07:45:45 | 02:41:02 | 00:00:00 | |
| BIOWL1-15 | 2026-08-31 01:12:48 | 49.30396 | 10.65964 | 74° | 175km/h | 11470m | -3.6m/s | 0°C | 0% | 0hPa | 2.5V | 07:46:08 | 02:40:51 | 00:00:00 | |
| DF3TZ-5 | 2026-08-31 01:12:47 | 49.30435 | 10.66153 | 71° | 164km/h | 11459m | -3.3m/s | -52.9°C | 47.0% | 223.6hPa | 2.5V | 00:00:00 | 00:00:00 | 00:00:00 | |
| DL1NUX | 2026-08-31 01:12:45 | 49.30384 | 10.65899 | 74° | 175km/h | 11473m | -3.5m/s | -53°C | 56.2% | 223.1hPa | 2.5V | 07:45:57 | 02:40:50 | 00:00:00 | |
| DK7TD | 2026-08-31 01:12:45 | 49.30409 | 10.66028 | 73° | 172km/h | 11466m | -3.4m/s | -52.9°C | 52.2% | 223.3hPa | 2.4V | 07:46:59 | 02:40:52 | 00:00:00 | |
| BIOWL1-15 | 2026-08-31 01:12:38 | 49.30312 | 10.65309 | 82° | 161km/h | 11507m | -3.8m/s | 0°C | 0% | 0hPa | 2.4V | 07:46:08 | 02:40:41 | 00:00:00 | |
| DL1NUX | 2026-08-31 01:12:38 | 49.30306 | 10.65249 | 81° | 157km/h | 11511m | -3.4m/s | -53.1°C | 49% | 221.8hPa | 2.4V | 07:46:07 | 02:40:40 | 00:00:00 | |
| DK7TD | 2026-08-31 01:12:30 | 49.30287 | 10.65075 | 79° | 148km/h | 11521m | -3.7m/s | -53.2°C | 45.6% | 221.4hPa | 2.5V | 07:46:59 | 02:40:37 | 00:00:00 | |
| DB0UT-7 | 2026-08-31 01:12:29 | 49.30280 | 10.65019 | 78° | 159km/h | 11525m | -3.7m/s | -53.2°C | 48.4% | 221.3hPa | 2.4V | 00:00:00 | 02:40:36 | 00:00:00 | |
| DL1NUX | 2026-08-31 01:12:28 | 49.30215 | 10.64682 | 71° | 164km/h | 11547m | -3.6m/s | -53.3°C | 50.2% | 220.5hPa | 2.4V | 07:46:17 | 02:40:30 | 00:00:00 | |
| BIOWL1-15 | 2026-08-31 01:12:25 | 49.30228 | 10.64741 | 72° | 159km/h | 11543m | -3.4m/s | 0°C | 0% | 0hPa | 2.5V | 18:12:15 | 02:40:31 | 00:00:00 | |
| DK7TD | 2026-08-31 01:12:20 | 49.30179 | 10.64493 | 75° | 175km/h | 11557m | -3.4m/s | -53.4°C | 47.5% | 220.2hPa | 2.4V | 07:46:59 | 02:40:27 | 00:00:00 | |
| DJ8HS-15 | 2026-08-31 01:12:20 | 49.30179 | 10.64493 | 76° | 175km/h | 11557m | -3.3m/s | -53.4°C | 51.9% | 220.1hPa | 2.4V | 00:00:00 | 02:40:27 | 00:00:00 | |
| DL1NUX | 2026-08-31 01:12:18 | 49.30121 | 10.64029 | 82° | 166km/h | 11583m | -3.7m/s | -53.5°C | 55.5% | 219.3hPa | 2.4V | 07:46:27 | 02:40:20 | 00:00:00 | |
| BIOWL1-15 | 2026-08-31 01:12:15 | 49.30121 | 10.64029 | 82° | 166km/h | 11583m | -3.7m/s | 0°C | 0% | 0hPa | 2.4V | 18:12:15 | 02:40:20 | 00:00:00 | |
| DO3MHA-11 | 2026-08-31 01:12:15 | 49.30133 | 10.64160 | 81° | 157km/h | 11575m | -3.8m/s | -53.4°C | 54.7% | 219.5hPa | 2.5V | 07:46:00 | 02:40:22 | 00:00:00 | |
| DL6DJ-15 | 2026-08-31 01:12:14 | 49.30127 | 10.64094 | 81° | 170km/h | 11579m | -3.8m/s | -53.5°C | 43.7% | 219.5hPa | 2.5V | 00:00:00 | 00:00:00 | 00:00:00 | |
| DJTTGO | 2026-08-31 01:12:13 | 49.30127 | 10.64094 | 83° | 170km/h | 11579m | -3.8m/s | -53.5°C | 43.8% | 219.5hPa | 2.5V | 00:00:00 | 00:00:00 | 00:00:00 | |
| SO1NDE-10 | 2026-08-31 01:12:11 | 49.30110 | 10.63905 | 83° | 159km/h | 11590m | -3.7m/s | -53.6°C | 56.3% | 219.0hPa | 2.5V | 00:00:00 | 02:40:18 | 00:00:00 | |
| DB0NH | 2026-08-31 01:12:10 | 49.30104 | 10.63845 | 82° | 159km/h | 11594m | -3.6m/s | -53.6°C | 56.7% | 218.9hPa | 2.4V | 00:00:00 | 02:40:17 | 00:00:00 | |
| DL1NUX | 2026-08-31 01:12:08 | 49.30050 | 10.63454 | 73° | 150km/h | 11619m | -3.7m/s | -53.8°C | 56% | 218.1hPa | 2.4V | 07:46:37 | 02:40:10 | 00:00:00 | |
| BIOWL1-15 | 2026-08-31 01:12:05 | 49.30070 | 10.63564 | 76° | 146km/h | 11612m | -3.7m/s | 0°C | 0% | 0hPa | 2.5V | 18:12:15 | 02:40:12 | 00:00:00 | |
| DO3MHA-11 | 2026-08-31 01:12:05 | 49.30070 | 10.63564 | 76° | 161km/h | 11612m | -3.7m/s | -53.7°C | 56.3% | 218.2hPa | 2.5V | 00:00:00 | 02:40:12 | 00:00:00 | |
| DK5PH-5 | 2026-08-31 01:12:04 | 49.30060 | 10.63510 | 75° | 162km/h | 11616m | -3.6m/s | -53.7°C | 56.2% | 218.2hPa | 2.5V | 00:00:00 | 02:40:11 | 00:00:00 | |
| OE5DXL-15 | 2026-08-31 01:12:03 | 49.30050 | 10.63454 | 74° | 162km/h | 11619m | -3.6m/s | -53.8°C | 56.0% | 218.0hPa | 2.5V | 00:00:00 | 00:00:00 | 00:00:00 | |
| NBG1-10 | 2026-08-31 01:12:02 | 49.30038 | 10.63398 | 73° | 164km/h | 11623m | -3.7m/s | -53.8°C | 55.8% | 217.9hPa | 2.5V | 00:00:00 | 02:40:09 | 00:00:00 | |
| DF9NV-10 | 2026-08-31 01:12:01 | 49.30038 | 10.63398 | 73° | 153km/h | 11623m | -3.8m/s | -53.8°C | 44.3% | 217.9hPa | 2.5V | 07:46:00 | 00:00:00 | 00:00:00 | |
| DB0UT-7 | 2026-08-31 01:11:59 | 49.30001 | 10.63222 | 73° | 157km/h | 11634m | -3.6m/s | -53.8°C | 55.2% | 217.5hPa | 2.5V | 00:00:00 | 00:00:00 | 00:00:00 | |
| DL1NUX | 2026-08-31 01:11:58 | 49.29934 | 10.62832 | 79° | 175km/h | 11656m | -3.5m/s | -53.9°C | 53.7% | 216.8hPa | 2.5V | 07:46:47 | 02:40:00 | 00:00:00 | |
| BIOWL1-15 | 2026-08-31 01:11:53 | 49.29934 | 10.62832 | 79° | 175km/h | 11656m | -3.5m/s | 0°C | 0% | 0hPa | 2.5V | 18:12:15 | 02:40:00 | 00:00:00 | |
| DJ8HS-15 | 2026-08-31 01:11:49 | 49.29908 | 10.62572 | 83° | 162km/h | 11671m | -3.7m/s | -53.9°C | 53.2% | 216.2hPa | 2.4V | 00:00:00 | 02:39:56 | 00:00:00 | |
| DL1NUX | 2026-08-31 01:11:48 | 49.29867 | 10.62231 | 74° | 148km/h | 11692m | -3.4m/s | -54.1°C | 52.1% | 215.6hPa | 2.4V | 07:46:57 | 02:39:50 | 00:00:00 | |
| DF3TZ-5 | 2026-08-31 01:11:45 | 49.29885 | 10.62340 | 77° | 144km/h | 11685m | -3.5m/s | -54.0°C | 41.6% | 215.8hPa | 2.4V | 00:00:00 | 00:00:00 | 00:00:00 | |
| DK7TD | 2026-08-31 01:11:38 | 49.29806 | 10.61944 | 72° | 166km/h | 11711m | -3.6m/s | -54.2°C | 47.4% | 215hPa | 2.4V | 07:47:50 | 02:39:45 | 00:00:00 | |
| DL1NUX | 2026-08-31 01:11:38 | 49.29745 | 10.61621 | 77° | 175km/h | 11729m | -3.6m/s | -54.3°C | 51.7% | 214.4hPa | 2.5V | 07:47:07 | 02:39:40 | 00:00:00 | |
| DO3MHA-11 | 2026-08-31 01:11:35 | 49.29767 | 10.61753 | 75° | 166km/h | 11722m | -3.8m/s | -54.2°C | 51.1% | 214.6hPa | 2.4V | 00:00:00 | 02:39:42 | 00:00:00 | |
| DK5PH-5 | 2026-08-31 01:11:34 | 49.29756 | 10.61687 | 77° | 161km/h | 11726m | -3.8m/s | -54.2°C | 51.4% | 214.4hPa | 2.5V | 00:00:00 | 02:39:41 | 00:00:00 | |
| OE5DXL-15 | 2026-08-31 01:11:33 | 49.29745 | 10.61621 | 78° | 161km/h | 11729m | -3.6m/s | -54.2°C | 51.7% | 214.3hPa | 2.5V | 00:00:00 | 00:00:00 | 00:00:00 | |
| DB0ND-19 | 2026-08-31 01:11:32 | 49.29737 | 10.61555 | 79° | 172km/h | 11733m | -3.5m/s | -54.3°C | 40.7% | 214.3hPa | 2.4V | 00:00:00 | 00:00:00 | 00:00:00 | |
| NBG1-10 | 2026-08-31 01:11:29 | 49.29717 | 10.61363 | 82° | 157km/h | 11743m | -3.1m/s | -54.3°C | 51.0% | 213.9hPa | 2.4V | 00:00:00 | 02:39:36 | 00:00:00 | |
| DL1NUX | 2026-08-31 01:11:28 | 49.29677 | 10.61020 | 76° | 144km/h | 11764m | -3.8m/s | -54.5°C | 50.4% | 213.2hPa | 2.4V | 07:47:17 | 02:39:30 | 00:00:00 | |
| DK7TD | 2026-08-31 01:11:23 | 49.29677 | 10.61020 | 76° | 144km/h | 11764m | -3.8m/s | -54.5°C | 46.8% | 213.2hPa | 2.4V | 07:47:50 | 02:39:30 | 00:00:00 | |
| DM0DOS-11 | 2026-08-31 01:11:21 | 49.29635 | 10.60802 | 71° | 151km/h | 11779m | -3.7m/s | -54.6°C | 50.3% | 212.7hPa | 2.4V | 07:47:21 | 02:39:26 | 00:00:00 | |
| DK7TD | 2026-08-31 01:11:13 | 49.29555 | 10.60439 | 74° | 175km/h | 11802m | -3.7m/s | -54.7°C | 44.9% | 211.9hPa | 2.4V | 07:47:50 | 02:39:20 | 00:00:00 | |
| DL1NUX | 2026-08-31 01:11:12 | 49.29534 | 10.60307 | 77° | 175km/h | 11809m | -3.8m/s | -54.8°C | 46.6% | 211.7hPa | 2.4V | 07:47:29 | 02:39:18 | 00:00:00 | |
| DL6DJ-15 | 2026-08-31 01:11:12 | 49.29534 | 10.60307 | 77° | 175km/h | 11809m | -3.8m/s | -54.8°C | 36.2% | 211.7hPa | 2.5V | 00:00:00 | 00:00:00 | 00:00:00 | |
| SO1NDE-10 | 2026-08-31 01:11:11 | 49.29534 | 10.60307 | 78° | 162km/h | 11809m | -3.8m/s | -54.7°C | 46.6% | 211.7hPa | 2.5V | 00:00:00 | 02:39:18 | 00:00:00 | |
| DM0DOS-11 | 2026-08-31 01:11:10 | 49.29517 | 10.60175 | 80° | 172km/h | 11816m | -3.8m/s | -54.8°C | 45.8% | 211.4hPa | 2.5V | 07:47:31 | 02:39:16 | 00:00:00 | |
| DB0NH | 2026-08-31 01:11:10 | 49.29525 | 10.60241 | 80° | 162km/h | 11813m | -3.7m/s | -54.7°C | 45.9% | 211.6hPa | 2.4V | 00:00:00 | 02:39:17 | 00:00:00 | |
| SONCRA | 2026-08-31 01:11:05 | 49.29486 | 10.59870 | 79° | 148km/h | 11835m | -3.5m/s | -54.9°C | 36.0% | 210.8hPa | 2.4V | 00:00:00 | 00:00:00 | 00:00:00 | |
| DK5PH-5 | 2026-08-31 01:11:04 | 49.29486 | 10.59869 | 80° | 161km/h | 11835m | -3.4m/s | -54.8°C | 46.4% | 210.8hPa | 2.4V | 00:00:00 | 02:39:11 | 00:00:00 | |
| OE5DXL-15 | 2026-08-31 01:11:03 | 49.29478 | 10.59814 | 78° | 161km/h | 11838m | -3.3m/s | -54.9°C | 46.8% | 210.7hPa | 2.4V | 00:00:00 | 00:00:00 | 00:00:00 | |
| DL1NUX | 2026-08-31 01:11:02 | 49.29448 | 10.59649 | 72° | 150km/h | 11849m | -3.6m/s | -55°C | 47% | 210.4hPa | 2.4V | 07:47:40 | 02:39:07 | 00:00:00 | |
| DB0ND-19 | 2026-08-31 01:11:01 | 49.29459 | 10.59704 | 73° | 146km/h | 11845m | -3.5m/s | -55.0°C | 36.4% | 210.5hPa | 2.5V | 00:00:00 | 00:00:00 | 00:00:00 | |
| DC4HF-4 | 2026-08-31 01:10:58 | 49.29423 | 10.59537 | 70° | 155km/h | 11856m | -3.7m/s | -55.1°C | 36.4% | 210.2hPa | 2.5V | 00:00:00 | 00:00:00 | 00:00:00 | |
| DF7PN | 2026-08-31 01:10:54 | 49.29356 | 10.59234 | 72° | 173km/h | 11875m | -3.7m/s | -55.2°C | 35.2% | 209.6hPa | 2.5V | 00:00:00 | 00:00:00 | 00:00:00 | |
| DL1NUX | 2026-08-31 01:10:52 | 49.29319 | 10.59037 | 75° | 177km/h | 11886m | -3.9m/s | -55.2°C | 44.3% | 209.2hPa | 2.5V | 07:47:50 | 02:38:57 | 00:00:00 | |
| DK7TD | 2026-08-31 01:10:47 | 49.29290 | 10.58838 | 79° | 173km/h | 11898m | -3.7m/s | -55.3°C | 39.5% | 208.8hPa | 2.4V | 07:48:41 | 02:38:54 | 00:00:00 | |
| DO3MHA-11 | 2026-08-31 01:10:45 | 49.29275 | 10.58707 | 82° | 155km/h | 11905m | -3.9m/s | -55.3°C | 42.0% | 208.5hPa | 2.4V | 00:00:00 | 02:38:52 | 00:00:00 | |
| DF3TZ-5 | 2026-08-31 01:10:43 | 49.29263 | 10.58583 | 81° | 157km/h | 11912m | -3.8m/s | -55.4°C | 31.7% | 208.3hPa | 2.4V | 00:00:00 | 00:00:00 | 00:00:00 | |
| DL1NUX | 2026-08-31 01:10:42 | 49.29243 | 10.58408 | 77° | 148km/h | 11924m | -3.8m/s | -55.5°C | 41.9% | 207.9hPa | 2.4V | 07:48:00 | 02:38:47 | 00:00:00 | |
| DK7TD | 2026-08-31 01:10:36 | 49.29201 | 10.58185 | 71° | 155km/h | 11938m | -3.6m/s | -55.5°C | 37.6% | 207.5hPa | 2.5V | 07:48:41 | 02:38:43 | 00:00:00 | |
| DO3MHA-11 | 2026-08-31 01:10:35 | 49.29188 | 10.58127 | 71° | 173km/h | 11942m | -3.7m/s | -55.5°C | 40.6% | 207.3hPa | 2.4V | 00:00:00 | 02:38:42 | 00:00:00 | |
| DK5PH-5 | 2026-08-31 01:10:34 | 49.29174 | 10.58068 | 71° | 166km/h | 11946m | -3.8m/s | -55.5°C | 40.4% | 207.2hPa | 2.4V | 00:00:00 | 02:38:41 | 00:00:00 | |
| DM0DOS-11 | 2026-08-31 01:10:33 | 49.29146 | 10.57945 | 71° | 172km/h | 11953m | -4m/s | -55.5°C | 40.3% | 206.9hPa | 2.4V | 07:48:08 | 02:38:39 | 00:00:00 | |
| OE5DXL-15 | 2026-08-31 01:10:33 | 49.29160 | 10.58008 | 71° | 166km/h | 11949m | -3.7m/s | -55.5°C | 40.4% | 207.0hPa | 2.5V | 00:00:00 | 00:00:00 | 00:00:00 | |
| DL1NUX | 2026-08-31 01:10:32 | 49.29119 | 10.57817 | 73° | 177km/h | 11961m | -3.7m/s | -55.5°C | 39.8% | 206.7hPa | 2.5V | 07:48:10 | 02:38:37 | 00:00:00 | |
| DK7TD | 2026-08-31 01:10:25 | 49.29068 | 10.57482 | 80° | 175km/h | 11979m | -3.7m/s | -55.6°C | 36.5% | 206.1hPa | 2.5V | 07:48:41 | 02:38:32 | 00:00:00 | |
| DO3MHA-11 | 2026-08-31 01:10:25 | 49.29068 | 10.57482 | 80° | 162km/h | 11980m | -3.7m/s | -55.6°C | 39.5% | 206.0hPa | 2.4V | 00:00:00 | 02:38:32 | 00:00:00 | |
| DM0DOS-11 | 2026-08-31 01:10:23 | 49.29047 | 10.57285 | 81° | 168km/h | 11991m | -3.9m/s | -55.6°C | 38.6% | 205.8hPa | 2.4V | 07:48:18 | 02:38:29 | 00:00:00 | |
| DF7PN | 2026-08-31 01:10:23 | 49.29047 | 10.57285 | 81° | 168km/h | 11991m | -3.9m/s | -55.6°C | 29.2% | 205.8hPa | 2.4V | 00:00:00 | 00:00:00 | 00:00:00 | |
| DL1NUX | 2026-08-31 01:10:22 | 49.29036 | 10.57158 | 81° | 161km/h | 11999m | -4m/s | -55.6°C | 38.1% | 205.5hPa | 2.4V | 07:48:20 | 02:38:27 | 00:00:00 | |
| DK7TD | 2026-08-31 01:10:15 | 49.29002 | 10.56868 | 76° | 148km/h | 12019m | -3.7m/s | -55.7°C | 35.5% | 204.9hPa | 2.4V | 07:48:41 | 02:38:22 | 00:00:00 | |
| BIOWL1-15 | 2026-08-31 01:10:14 | 49.28970 | 10.56700 | 72° | 155km/h | 12029m | -3.5m/s | -55.8°C | 35.5% | 204.5hPa | 2.5V | 07:49:32 | 02:38:19 | 00:00:00 | |
| DF3TZ-5 | 2026-08-31 01:10:12 | 49.28970 | 10.56700 | 71° | 155km/h | 12029m | -3.5m/s | -55.8°C | 28.7% | 204.5hPa | 2.5V | 00:00:00 | 00:00:00 | 00:00:00 | |
| DL6DJ-15 | 2026-08-31 01:10:10 | 49.28931 | 10.56522 | 71° | 168km/h | 12041m | -3.8m/s | -55.8°C | 29.0% | 204.2hPa | 2.5V | 00:00:00 | 00:00:00 | 00:00:00 | |
| DO3MHA-11 | 2026-08-31 01:10:05 | 49.28879 | 10.56264 | 76° | 166km/h | 12056m | -3.9m/s | -55.9°C | 39.5% | 203.6hPa | 2.5V | 00:00:00 | 02:38:12 | 00:00:00 | |
| DK5PH-5 | 2026-08-31 01:10:04 | 49.28868 | 10.56197 | 77° | 162km/h | 12060m | -3.8m/s | -55.9°C | 40.1% | 203.5hPa | 2.4V | 07:48:00 | 02:38:11 | 00:00:00 | |
| DM0DOS-11 | 2026-08-31 01:10:03 | 49.28850 | 10.56063 | 79° | 173km/h | 12067m | -3.5m/s | -56°C | 40.7% | 203.3hPa | 2.4V | 07:48:38 | 02:38:09 | 00:00:00 | |
| OE5DXL-15 | 2026-08-31 01:10:03 | 49.28858 | 10.56130 | 79° | 161km/h | 12064m | -3.5m/s | -56.0°C | 40.4% | 203.4hPa | 2.4V | 07:48:00 | 00:00:00 | 00:00:00 | |
| DL1NUX | 2026-08-31 01:10:02 | 49.28836 | 10.55933 | 81° | 164km/h | 12075m | -3.5m/s | -56°C | 40.3% | 202.9hPa | 2.4V | 07:48:40 | 02:38:07 | 00:00:00 | |
| DK7TD | 2026-08-31 01:09:56 | 49.28812 | 10.55696 | 79° | 148km/h | 12089m | -3.9m/s | -56°C | 36.6% | 202.6hPa | 2.4V | 07:49:32 | 02:38:03 | 00:00:00 | |
| BIOWL1-15 | 2026-08-31 01:09:54 | 49.28796 | 10.55586 | 76° | 146km/h | 12097m | -4.1m/s | -56.1°C | 36.5% | 202.4hPa | 2.4V | 07:49:32 | 02:38:01 | 00:00:00 | |
| DK7TD | 2026-08-31 01:09:45 | 49.28685 | 10.55067 | 73° | 175km/h | 12133m | -3.9m/s | -56.2°C | 36.2% | 201.2hPa | 2.4V | 07:49:32 | 02:37:52 | 00:00:00 | |
| DO3MHA-11 | 2026-08-31 01:09:45 | 49.28685 | 10.55067 | 73° | 170km/h | 12133m | -3.8m/s | -56.1°C | 39.3% | 201.2hPa | 2.4V | 00:00:00 | 02:37:52 | 00:00:00 | |
| DM0DOS-11 | 2026-08-31 01:09:43 | 49.28651 | 10.54869 | 77° | 177km/h | 12144m | -3.8m/s | -56.1°C | 39.3% | 200.9hPa | 2.4V | 07:48:58 | 02:37:49 | 00:00:00 | |
| DJ8HS-15 | 2026-08-31 01:09:43 | 49.28661 | 10.54935 | 76° | 159km/h | 12140m | -3.7m/s | -56.1°C | 39.3% | 201.0hPa | 2.4V | 00:00:00 | 02:37:50 | 00:00:00 | |
| DL1NUX | 2026-08-31 01:09:41 | 49.28608 | 10.54488 | 80° | 153km/h | 12166m | -4m/s | -56.2°C | 39.7% | 200.2hPa | 2.4V | 07:49:04 | 02:37:43 | 00:00:00 | |
| BIOWL1-15 | 2026-08-31 01:09:41 | 49.28642 | 10.54802 | 79° | 173km/h | 12148m | -3.9m/s | -56.1°C | 36.3% | 200.8hPa | 2.4V | 07:49:32 | 02:37:48 | 00:00:00 | |
| DK7TD | 2026-08-31 01:09:33 | 49.28587 | 10.54318 | 77° | 146km/h | 12178m | -3.8m/s | -56.3°C | 36.3% | 199.8hPa | 2.5V | 07:49:32 | 02:37:40 | 00:00:00 | |
| DM0DOS-11 | 2026-08-31 01:09:33 | 49.28558 | 10.54155 | 72° | 148km/h | 12190m | -3.9m/s | -56.4°C | 38.7% | 199.4hPa | 2.4V | 07:49:10 | 02:37:37 | 00:00:00 | |
| OE5DXL-15 | 2026-08-31 01:09:33 | 49.28587 | 10.54318 | 78° | 161km/h | 12178m | -3.8m/s | -56.3°C | 39.5% | 199.7hPa | 2.4V | 00:00:00 | 00:00:00 | 00:00:00 | |
| DL1NUX | 2026-08-31 01:09:31 | 49.28506 | 10.53932 | 69° | 159km/h | 12205m | -4.2m/s | -56.5°C | 38.1% | 198.9hPa | 2.4V | 07:49:14 | 02:37:33 | 00:00:00 | |
| SONCRA | 2026-08-31 01:09:31 | 49.28568 | 10.54209 | 73° | 144km/h | 12186m | -3.9m/s | -56.4°C | 29.3% | 199.5hPa | 2.5V | 00:00:00 | 00:00:00 | 00:00:00 | |
| DB0ND-19 | 2026-08-31 01:09:28 | 49.28533 | 10.54045 | 70° | 151km/h | 12197m | -4.0m/s | -56.5°C | 28.6% | 199.2hPa | 2.5V | 00:00:00 | 00:00:00 | 00:00:00 | |
| DO3MHA-11 | 2026-08-31 01:09:25 | 49.28492 | 10.53874 | 70° | 172km/h | 12210m | -4.1m/s | -56.5°C | 38.0% | 198.8hPa | 2.5V | 00:00:00 | 02:37:32 | 00:00:00 | |
| DM0DOS-11 | 2026-08-31 01:09:23 | 49.28426 | 10.53559 | 75° | 177km/h | 12229m | -3.8m/s | -56.6°C | 38.2% | 198.2hPa | 2.5V | 07:49:20 | 02:37:27 | 00:00:00 | |
| DK7TD | 2026-08-31 01:09:23 | 49.28463 | 10.53753 | 71° | 172km/h | 12218m | -3.9m/s | -56.6°C | 35% | 198.6hPa | 2.4V | 07:49:32 | 02:37:30 | 00:00:00 | |
| DJ8HS-15 | 2026-08-31 01:09:23 | 49.28463 | 10.53753 | 72° | 159km/h | 12218m | -3.8m/s | -56.6°C | 38.0% | 198.6hPa | 2.4V | 00:00:00 | 02:37:30 | 00:00:00 | |
| DL1NUX | 2026-08-31 01:09:21 | 49.28391 | 10.53297 | 80° | 166km/h | 12246m | -4m/s | -56.7°C | 38% | 197.7hPa | 2.4V | 07:49:24 | 02:37:23 | 00:00:00 | |
| BIOWL1-15 | 2026-08-31 01:09:20 | 49.28391 | 10.53297 | 81° | 166km/h | 12246m | -4m/s | -56.7°C | 34.1% | 197.7hPa | 2.4V | 07:49:32 | 02:37:23 | 00:00:00 | |
| DK7TD | 2026-08-31 01:09:13 | 49.28364 | 10.53060 | 78° | 146km/h | 12261m | -3.8m/s | -56.8°C | 33.3% | 197.2hPa | 2.4V | 07:49:32 | 02:37:19 | 00:00:00 | |
| DL1NUX | 2026-08-31 01:09:11 | 49.28301 | 10.52738 | 69° | 150km/h | 12284m | -4.1m/s | -56.8°C | 34.9% | 196.5hPa | 2.4V | 07:49:34 | 02:37:13 | 00:00:00 | |
| BIOWL1-15 | 2026-08-31 01:09:10 | 49.28326 | 10.52845 | 72° | 144km/h | 12276m | -3.9m/s | -56.8°C | 32.1% | 196.7hPa | 2.5V | 07:49:32 | 02:37:15 | 00:00:00 | |
| DB0NH | 2026-08-31 01:09:10 | 49.28346 | 10.52951 | 75° | 157km/h | 12269m | -3.6m/s | -56.8°C | 36.1% | 197.0hPa | 2.4V | 07:49:00 | 02:37:17 | 00:00:00 | |
| DM0DOS-11 | 2026-08-31 01:09:08 | 49.28288 | 10.52683 | 68° | 153km/h | 12288m | -4.3m/s | -56.8°C | 34.4% | 196.3hPa | 2.4V | 07:49:35 | 02:37:12 | 00:00:00 | |
| DK7TD | 2026-08-31 01:09:02 | 49.28244 | 10.52509 | 70° | 168km/h | 12300m | -3.8m/s | -56.6°C | 30.1% | 196hPa | 2.5V | 07:50:23 | 02:37:09 | 00:00:00 | |
| DL1NUX | 2026-08-31 01:09:01 | 49.28174 | 10.52123 | 78° | 173km/h | 12324m | -4.1m/s | -56.5°C | 31% | 195.3hPa | 2.5V | 07:49:44 | 02:37:03 | 00:00:00 | |
| SONCRA | 2026-08-31 01:09:00 | 49.28217 | 10.52384 | 72° | 172km/h | 12308m | -3.9m/s | -56.6°C | 23.6% | 195.7hPa | 2.5V | 00:00:00 | 00:00:00 | 00:00:00 | |
| DM0DOS-11 | 2026-08-31 01:08:58 | 49.28165 | 10.52057 | 79° | 172km/h | 12328m | -4.2m/s | -56.5°C | 30.7% | 195.1hPa | 2.5V | 07:49:45 | 02:37:02 | 00:00:00 | |
| BIOWL1-15 | 2026-08-31 01:08:56 | 49.28174 | 10.52123 | 78° | 173km/h | 12324m | -4.1m/s | -56.5°C | 28.7% | 195.3hPa | 2.5V | 07:52:05 | 02:37:03 | 00:00:00 | |
| DK7TD | 2026-08-31 01:08:52 | 49.28144 | 10.51867 | 81° | 161km/h | 12340m | -4.3m/s | -56.5°C | 28.2% | 194.8hPa | 2.4V | 07:50:23 | 02:36:59 | 00:00:00 | |
| DL1NUX | 2026-08-31 01:08:51 | 49.28099 | 10.51528 | 72° | 144km/h | 12364m | -3.7m/s | -56.5°C | 30.1% | 194hPa | 2.4V | 07:49:54 | 02:36:53 | 00:00:00 | |
| DF7PN | 2026-08-31 01:08:49 | 49.28125 | 10.51691 | 79° | 146km/h | 12353m | -3.8m/s | -56.5°C | 21.9% | 194.3hPa | 2.4V | 00:00:00 | 00:00:00 | 00:00:00 | |
| DM0DOS-11 | 2026-08-31 01:08:48 | 49.28088 | 10.51475 | 71° | 146km/h | 12368m | -3.9m/s | -56.6°C | 29.9% | 193.9hPa | 2.4V | 07:49:55 | 02:36:52 | 00:00:00 | |
| DK7TD | 2026-08-31 01:08:41 | 49.28034 | 10.51253 | 69° | 161km/h | 12384m | -4m/s | -56.7°C | 27.8% | 193.4hPa | 2.4V | 07:50:23 | 02:36:48 | 00:00:00 | |
| BIOWL1-15 | 2026-08-31 01:08:38 | 49.27990 | 10.51071 | 71° | 173km/h | 12396m | -4.3m/s | -56.8°C | 27.7% | 193.1hPa | 2.4V | 07:52:05 | 02:36:45 | 00:00:00 | |
| DM7RM-13 | 2026-08-31 01:08:36 | 49.27977 | 10.51007 | 74° | 175km/h | 12400m | -4.1m/s | -56.8°C | 21.7% | 192.9hPa | 2.4V | 07:50:00 | 00:00:00 | 00:00:00 | |
| DM0DOS-11 | 2026-08-31 01:08:35 | 49.27952 | 10.50877 | 75° | 175km/h | 12408m | -4.1m/s | -56.9°C | 29.9% | 192.7hPa | 2.4V | 07:50:05 | 02:36:42 | 00:00:00 | |
| DO9HM | 2026-08-31 01:08:35 | 49.27952 | 10.50877 | 77° | 175km/h | 12408m | -4.1m/s | -56.9°C | 21.7% | 192.7hPa | 2.4V | 07:50:00 | 00:00:00 | 00:00:00 | |
| DK5PH-5 | 2026-08-31 01:08:34 | 49.27942 | 10.50811 | 78° | 157km/h | 12412m | -3.6m/s | -56.8°C | 29.9% | 192.5hPa | 2.4V | 00:00:00 | 02:36:41 | 00:00:00 | |
| DL1NUX | 2026-08-31 01:08:31 | 49.27880 | 10.50342 | 74° | 142km/h | 12443m | -4.1m/s | -57°C | 29.3% | 191.6hPa | 2.4V | 07:50:14 | 02:36:33 | 00:00:00 | |
| DK7TD | 2026-08-31 01:08:31 | 49.27919 | 10.50622 | 81° | 159km/h | 12424m | -3.8m/s | -57°C | 27.4% | 192.2hPa | 2.5V | 07:50:23 | 02:36:38 | 00:00:00 | |
| SONCRA | 2026-08-31 01:08:29 | 49.27905 | 10.50505 | 79° | 148km/h | 12431m | -3.9m/s | -57.0°C | 21.7% | 191.9hPa | 2.4V | 00:00:00 | 00:00:00 | 00:00:00 | |
| OE5DXL-15 | 2026-08-31 01:08:27 | 49.27890 | 10.50395 | 77° | 151km/h | 12439m | -4.0m/s | -57.0°C | 29.5% | 191.7hPa | 2.4V | 00:00:00 | 00:00:00 | 00:00:00 | |
| DB0ND-19 | 2026-08-31 01:08:26 | 49.27881 | 10.50342 | 74° | 141km/h | 12443m | -4.1m/s | -57.0°C | 21.1% | 191.6hPa | 2.4V | 00:00:00 | 00:00:00 | 00:00:00 | |
| DO3MHA-11 | 2026-08-31 01:08:25 | 49.27870 | 10.50289 | 74° | 155km/h | 12448m | -4.1m/s | -57.0°C | 29.2% | 191.4hPa | 2.4V | 00:00:00 | 02:36:32 | 00:00:00 | |
| DJ8HS-15 | 2026-08-31 01:08:23 | 49.27847 | 10.50184 | 70° | 159km/h | 12456m | -4.2m/s | -57.0°C | 29.0% | 191.1hPa | 2.4V | 07:50:00 | 02:36:30 | 00:00:00 | |
| DL1NUX | 2026-08-31 01:08:21 | 49.27746 | 10.49783 | 70° | 172km/h | 12485m | -4.2m/s | -57°C | 28.4% | 190.3hPa | 2.4V | 07:50:24 | 02:36:23 | 00:00:00 | |
| DK7TD | 2026-08-31 01:08:20 | 49.27806 | 10.50021 | 68° | 157km/h | 12468m | -4.2m/s | -57.1°C | 26.5% | 190.8hPa | 2.4V | 07:50:23 | 02:36:27 | 00:00:00 | |
| DF7PN | 2026-08-31 01:08:18 | 49.27776 | 10.49906 | 68° | 164km/h | 12477m | -4.1m/s | -57.0°C | 20.5% | 190.6hPa | 2.5V | 00:00:00 | 00:00:00 | 00:00:00 | |
| DB0UT-7 | 2026-08-31 01:08:17 | 49.27760 | 10.49845 | 70° | 157km/h | 12481m | -4.1m/s | -57.0°C | 28.5% | 190.5hPa | 2.5V | 00:00:00 | 00:00:00 | 00:00:00 | |
| DM7RM-13 | 2026-08-31 01:08:16 | 49.27760 | 10.49845 | 70° | 170km/h | 12481m | -4.1m/s | -57.0°C | 20.5% | 190.5hPa | 2.5V | 07:50:00 | 00:00:00 | 00:00:00 | |
| DF1GD-15 | 2026-08-31 01:08:15 | 49.27732 | 10.49720 | 73° | 173km/h | 12489m | -4.2m/s | -57.0°C | 20.3% | 190.2hPa | 2.5V | 07:51:00 | 00:00:00 | 00:00:00 | |
| AM1SDL-15 | 2026-08-31 01:08:13 | 49.27706 | 10.49590 | 75° | 164km/h | 12498m | -4.2m/s | 0°C | 0% | 0hPa | 2.5V | 00:00:00 | 02:36:20 | 00:00:00 | |
| DL1NUX | 2026-08-31 01:08:11 | 49.27647 | 10.49163 | 77° | 144km/h | 12525m | -4m/s | -57.1°C | 27.9% | 189.2hPa | 2.5V | 07:50:34 | 02:36:13 | 00:00:00 | |
| DK7TD | 2026-08-31 01:08:09 | 49.27669 | 10.49336 | 80° | 161km/h | 12514m | -3.9m/s | -57°C | 25.8% | 189.5hPa | 2.4V | 07:51:14 | 02:36:16 | 00:00:00 | |
| SO1NDE-10 | 2026-08-31 01:08:09 | 49.27669 | 10.49336 | 80° | 155km/h | 12514m | -3.9m/s | -57.0°C | 28.0% | 189.5hPa | 2.5V | 00:00:00 | 02:36:16 | 00:00:00 | |
| DM0DOS-11 | 2026-08-31 01:08:08 | 49.27639 | 10.49109 | 75° | 142km/h | 12529m | -3.8m/s | -57.1°C | 27.7% | 189.1hPa | 2.5V | 07:50:35 | 02:36:12 | 00:00:00 | |
| BIOWL1-15 | 2026-08-31 01:08:07 | 49.27655 | 10.49218 | 79° | 150km/h | 12521m | -3.9m/s | -57.1°C | 25.7% | 189.3hPa | 2.4V | 07:52:05 | 02:36:14 | 00:00:00 | |
| DO3MHA-11 | 2026-08-31 01:08:05 | 49.27639 | 10.49109 | 76° | 151km/h | 12529m | -3.8m/s | -57.1°C | 27.7% | 189.0hPa | 2.5V | 00:00:00 | 02:36:12 | 00:00:00 | |
| DK5PH-5 | 2026-08-31 01:08:04 | 49.27629 | 10.49056 | 74° | 157km/h | 12533m | -4.0m/s | -57.1°C | 27.6% | 188.8hPa | 2.4V | 00:00:00 | 02:36:11 | 00:00:00 | |
| DJ8HS-15 | 2026-08-31 01:08:03 | 49.27619 | 10.49004 | 72° | 161km/h | 12537m | -4.0m/s | -57.1°C | 27.6% | 188.8hPa | 2.4V | 00:00:00 | 02:36:10 | 00:00:00 | |
| DL1NUX | 2026-08-31 01:08:01 | 49.27519 | 10.48618 | 69° | 170km/h | 12565m | -3.9m/s | -57.3°C | 27.3% | 187.9hPa | 2.4V | 07:50:44 | 02:36:03 | 00:00:00 | |
| DK7TD | 2026-08-31 01:07:59 | 49.27565 | 10.48793 | 67° | 155km/h | 12553m | -4m/s | -57.3°C | 25.2% | 188.3hPa | 2.5V | 07:51:14 | 02:36:06 | 00:00:00 | |
| DM0DOS-11 | 2026-08-31 01:07:58 | 49.27504 | 10.48556 | 70° | 172km/h | 12569m | -4m/s | -57.4°C | 27.2% | 187.8hPa | 2.4V | 07:50:45 | 02:36:02 | 00:00:00 | |
| BIOWL1-15 | 2026-08-31 01:07:57 | 49.27453 | 10.48300 | 76° | 172km/h | 12585m | -4.2m/s | -57.4°C | 24.4% | 187.3hPa | 2.4V | 07:52:05 | 02:35:58 | 00:00:00 | |
| DO3MHA-11 | 2026-08-31 01:07:55 | 49.27504 | 10.48556 | 71° | 168km/h | 12569m | -4.0m/s | -57.3°C | 27.2% | 187.8hPa | 2.5V | 00:00:00 | 02:36:02 | 00:00:00 | |
| DO9HM | 2026-08-31 01:07:54 | 49.27490 | 10.48493 | 73° | 173km/h | 12573m | -4.0m/s | -57.4°C | 19.2% | 187.7hPa | 2.5V | 07:51:00 | 00:00:00 | 00:00:00 | |
| DF1GD-15 | 2026-08-31 01:07:53 | 49.27490 | 10.48493 | 73° | 173km/h | 12573m | -4.0m/s | -57.4°C | 19.2% | 187.7hPa | 2.5V | 07:51:00 | 00:00:00 | 00:00:00 | |
| DF9NV-10 | 2026-08-31 01:07:52 | 49.27477 | 10.48429 | 74° | 173km/h | 12577m | -4.1m/s | -57.4°C | 19.1% | 187.6hPa | 2.5V | 07:51:00 | 00:00:00 | 00:00:00 | |
| DL1NUX | 2026-08-31 01:07:51 | 49.27411 | 10.47988 | 79° | 155km/h | 12606m | -4.2m/s | -57.4°C | 26.3% | 186.7hPa | 2.5V | 07:50:54 | 02:35:53 | 00:00:00 | |
| DK7TD | 2026-08-31 01:07:48 | 49.27426 | 10.48109 | 79° | 164km/h | 12598m | -4.1m/s | -57.4°C | 24.2% | 187hPa | 2.4V | 07:51:14 | 02:35:55 | 00:00:00 | |
| DM0DOS-11 | 2026-08-31 01:07:48 | 49.27404 | 10.47930 | 79° | 151km/h | 12610m | -4.3m/s | -57.4°C | 26.4% | 186.6hPa | 2.4V | 07:50:55 | 02:35:52 | 00:00:00 | |
| OE5DRO-10 | 2026-08-31 01:07:47 | 49.27418 | 10.48048 | 80° | 151km/h | 12602m | -4.1m/s | -57.4°C | 26.3% | 186.8hPa | 2.4V | 00:00:00 | 00:00:00 | 00:00:00 | |
| DO3MHA-11 | 2026-08-31 01:07:45 | 49.27404 | 10.47930 | 80° | 148km/h | 12610m | -4.2m/s | -57.4°C | 26.4% | 186.6hPa | 2.4V | 00:00:00 | 02:35:52 | 00:00:00 | |
| DJ8HS-15 | 2026-08-31 01:07:43 | 49.27388 | 10.47819 | 77° | 159km/h | 12619m | -4.1m/s | -57.4°C | 26.5% | 186.4hPa | 2.4V | 00:00:00 | 02:35:50 | 00:00:00 | |
| DL1NUX | 2026-08-31 01:07:41 | 49.27301 | 10.47447 | 67° | 159km/h | 12647m | -4m/s | -57.5°C | 26.5% | 185.6hPa | 2.4V | 07:51:04 | 02:35:43 | 00:00:00 | |
| BIOWL1-15 | 2026-08-31 01:07:38 | 49.27301 | 10.47447 | 67° | 159km/h | 12647m | -4m/s | -57.5°C | 23.9% | 185.6hPa | 2.4V | 07:52:05 | 02:35:43 | 00:00:00 | |
| DK7TD | 2026-08-31 01:07:37 | 49.27317 | 10.47502 | 67° | 155km/h | 12642m | -4.1m/s | -57.5°C | 23.9% | 185.7hPa | 2.4V | 07:51:14 | 02:35:44 | 00:00:00 | |
| DF3TZ-5 | 2026-08-31 01:07:37 | 49.27301 | 10.47447 | 67° | 159km/h | 12647m | -4.0m/s | -57.5°C | 18.6% | 185.6hPa | 2.4V | 00:00:00 | 00:00:00 | 00:00:00 | |
| DO3MHA-11 | 2026-08-31 01:07:35 | 49.27286 | 10.47389 | 68° | 168km/h | 12651m | -4.0m/s | -57.5°C | 26.5% | 185.4hPa | 2.4V | 00:00:00 | 02:35:42 | 00:00:00 | |
| DK5PH-5 | 2026-08-31 01:07:34 | 49.27270 | 10.47329 | 69° | 161km/h | 12655m | -4.0m/s | -57.5°C | 26.4% | 185.3hPa | 2.4V | 00:00:00 | 02:35:41 | 00:00:00 | |
| DF9NV-10 | 2026-08-31 01:07:32 | 49.27255 | 10.47267 | 71° | 172km/h | 12659m | -4.1m/s | -57.6°C | 18.6% | 185.2hPa | 2.4V | 07:51:00 | 00:00:00 | 00:00:00 | |
| DL1NUX | 2026-08-31 01:07:31 | 49.27183 | 10.46824 | 80° | 157km/h | 12686m | -4.1m/s | -57.6°C | 25.7% | 184.4hPa | 2.4V | 07:51:14 | 02:35:33 | 00:00:00 | |
| BIOWL1-15 | 2026-08-31 01:07:27 | 49.27177 | 10.46765 | 80° | 153km/h | 12691m | -4.1m/s | -57.6°C | 23.1% | 184.3hPa | 2.4V | 07:52:05 | 02:35:32 | 00:00:00 | |
| DK7TD | 2026-08-31 01:07:27 | 49.27190 | 10.46885 | 80° | 162km/h | 12682m | -4.1m/s | -57.7°C | 23.4% | 184.5hPa | 2.5V | 07:51:14 | 02:35:34 | 00:00:00 | |
| SONCRA | 2026-08-31 01:07:27 | 49.27183 | 10.46824 | 80° | 157km/h | 12686m | -4.1m/s | -57.7°C | 18.0% | 184.4hPa | 2.4V | 00:00:00 | 00:00:00 | 00:00:00 | |
| OE5DXL-15 | 2026-08-31 01:07:26 | 49.27183 | 10.46824 | 81° | 151km/h | 12687m | -4.1m/s | -57.6°C | 25.7% | 184.3hPa | 2.4V | 00:00:00 | 00:00:00 | 00:00:00 | |
| DO3MHA-11 | 2026-08-31 01:07:25 | 49.27177 | 10.46765 | 81° | 144km/h | 12691m | -4.1m/s | -57.5°C | 25.5% | 184.2hPa | 2.4V | 00:00:00 | 02:35:32 | 00:00:00 | |
| OE5DRO-10 | 2026-08-31 01:07:24 | 49.27170 | 10.46708 | 80° | 153km/h | 12695m | -4.0m/s | -57.5°C | 25.3% | 184.1hPa | 2.4V | 00:00:00 | 00:00:00 | 00:00:00 | |
| DJ8HS-15 | 2026-08-31 01:07:23 | 49.27163 | 10.46653 | 79° | 159km/h | 12699m | -4.1m/s | -57.5°C | 25.0% | 184.0hPa | 2.4V | 00:00:00 | 02:35:30 | 00:00:00 | |
| DM0DOS-11 | 2026-08-31 01:07:22 | 49.27138 | 10.46495 | 73° | 139km/h | 12711m | -4.2m/s | -57.5°C | 24.9% | 183.7hPa | 2.4V | 07:51:20 | 02:35:27 | 00:00:00 | |
| DL1NUX | 2026-08-31 01:07:21 | 49.27088 | 10.46286 | 67° | 151km/h | 12726m | -4.1m/s | -57.5°C | 25.1% | 183.2hPa | 2.5V | 07:51:24 | 02:35:23 | 00:00:00 | |
| DK7TD | 2026-08-31 01:07:16 | 49.27088 | 10.46286 | 68° | 151km/h | 12726m | -4.1m/s | -57.5°C | 22.6% | 183.2hPa | 2.5V | 07:52:05 | 02:35:23 | 00:00:00 | |
| BIOWL1-15 | 2026-08-31 01:07:15 | 49.27074 | 10.46231 | 68° | 155km/h | 12731m | -3.9m/s | -57.6°C | 22.6% | 183.1hPa | 2.5V | 07:52:05 | 02:35:22 | 00:00:00 | |
| DO3MHA-11 | 2026-08-31 01:07:15 | 49.27073 | 10.46231 | 68° | 166km/h | 12731m | -3.8m/s | -57.5°C | 25.1% | 183.1hPa | 2.4V | 00:00:00 | 02:35:22 | 00:00:00 | |
| DF1GD-15 | 2026-08-31 01:07:13 | 49.27043 | 10.46116 | 70° | 164km/h | 12739m | -4.1m/s | -57.6°C | 17.5% | 182.9hPa | 2.4V | 07:52:00 | 00:00:00 | 00:00:00 | |
| DF9NV-10 | 2026-08-31 01:07:12 | 49.27043 | 10.46116 | 70° | 164km/h | 12739m | -4.1m/s | -57.6°C | 17.5% | 182.9hPa | 2.4V | 07:52:00 | 00:00:00 | 00:00:00 | |
| DL1NUX | 2026-08-31 01:07:11 | 49.26958 | 10.45676 | 78° | 166km/h | 12767m | -3.9m/s | -57.5°C | 24.3% | 182.1hPa | 2.4V | 07:51:34 | 02:35:13 | 00:00:00 | |
| DK7TD | 2026-08-31 01:07:06 | 49.26958 | 10.45676 | 79° | 166km/h | 12767m | -3.9m/s | -57.5°C | 22.2% | 182.1hPa | 2.4V | 07:52:05 | 02:35:13 | 00:00:00 | |
| BIOWL1-15 | 2026-08-31 01:07:05 | 49.26950 | 10.45614 | 80° | 162km/h | 12771m | -4.1m/s | -57.5°C | 22.2% | 181.9hPa | 2.4V | 07:52:05 | 02:35:12 | 00:00:00 | |
| DM0DOS-11 | 2026-08-31 01:07:04 | 49.26943 | 10.45553 | 80° | 157km/h | 12774m | -4m/s | -57.5°C | 24.1% | 181.8hPa | 2.4V | 07:51:36 | 02:35:11 | 00:00:00 | |
| DK7TD | 2026-08-31 01:06:55 | 49.26868 | 10.45070 | 69° | 144km/h | 12811m | -3.9m/s | -57.7°C | 21.7% | 180.8hPa | 2.4V | 07:52:05 | 02:35:02 | 00:00:00 | |
| DM0DOS-11 | 2026-08-31 01:06:54 | 49.26854 | 10.45018 | 68° | 150km/h | 12815m | -3.9m/s | -57.7°C | 24% | 180.7hPa | 2.4V | 07:51:46 | 02:35:01 | 00:00:00 | |
| BIOWL1-15 | 2026-08-31 01:06:53 | 49.26825 | 10.44907 | 69° | 161km/h | 12823m | -3.9m/s | -57.7°C | 21.5% | 180.4hPa | 2.4V | 07:52:05 | 02:34:59 | 00:00:00 | |
| DB0ND-19 | 2026-08-31 01:06:53 | 49.26840 | 10.44963 | 67° | 153km/h | 12819m | -4.0m/s | -57.7°C | 16.5% | 180.6hPa | 2.4V | 00:00:00 | 00:00:00 | 00:00:00 | |
| DO9HM | 2026-08-31 01:06:52 | 49.26825 | 10.44907 | 70° | 161km/h | 12823m | -3.9m/s | -57.7°C | 16.5% | 180.4hPa | 2.4V | 07:52:00 | 00:00:00 | 00:00:00 | |
| DL1NUX | 2026-08-31 01:06:51 | 49.26749 | 10.44533 | 77° | 170km/h | 12846m | -4.1m/s | -57.8°C | 23.7% | 179.8hPa | 2.4V | 07:51:54 | 02:34:53 | 00:00:00 | |
| DM0DOS-11 | 2026-08-31 01:06:49 | 49.26733 | 10.44407 | 79° | 162km/h | 12854m | -3.8m/s | -57.8°C | 23.9% | 179.6hPa | 2.5V | 07:51:56 | 02:34:51 | 00:00:00 | |
| DK7TD | 2026-08-31 01:06:44 | 49.26733 | 10.44407 | 80° | 162km/h | 12854m | -3.8m/s | -57.8°C | 21% | 179.6hPa | 2.5V | 07:52:05 | 02:34:51 | 00:00:00 | |
| DL1ZP-14 | 2026-08-31 01:06:44 | 49.26733 | 10.44407 | 79° | 161km/h | 12854m | -3.8m/s | -57.8°C | 16.4% | 179.6hPa | 2.5V | 00:00:00 | 00:00:00 | 00:00:00 | |
| BIOWL1-15 | 2026-08-31 01:06:40 | 49.26707 | 10.44177 | 79° | 141km/h | 12870m | -3.8m/s | -57.7°C | 20.6% | 179.1hPa | 2.4V | 07:52:05 | 02:34:47 | 00:00:00 | |
| DB0NH | 2026-08-31 01:06:40 | 49.26706 | 10.44177 | 79° | 146km/h | 12870m | -3.8m/s | -57.6°C | 23.2% | 179.1hPa | 2.4V | 00:00:00 | 02:34:47 | 00:00:00 | |
| DL1NUX | 2026-08-31 01:06:39 | 49.26672 | 10.43973 | 72° | 135km/h | 12885m | -4m/s | -57.7°C | 22.1% | 178.6hPa | 2.4V | 07:52:04 | 02:34:43 | 00:00:00 | |
| DK7TD | 2026-08-31 01:06:33 | 49.26636 | 10.43823 | 68° | 142km/h | 12898m | -4.4m/s | -57.8°C | 19.2% | 178.3hPa | 2.4V | 07:52:56 | 02:34:40 | 00:00:00 | |
| DL6DJ-15 | 2026-08-31 01:06:32 | 49.26622 | 10.43771 | 67° | 146km/h | 12902m | -4.2m/s | -57.8°C | 14.4% | 178.2hPa | 2.5V | 00:00:00 | 00:00:00 | 00:00:00 | |
| DL1NUX | 2026-08-31 01:06:31 | 49.26535 | 10.43426 | 72° | 168km/h | 12926m | -3.9m/s | -57.8°C | 20.8% | 177.5hPa | 2.5V | 07:52:14 | 02:34:33 | 00:00:00 | |
| BIOWL1-15 | 2026-08-31 01:06:29 | 49.26548 | 10.43488 | 71° | 168km/h | 12922m | -3.8m/s | -57.8°C | 18% | 177.6hPa | 2.4V | 07:53:47 | 02:34:34 | 00:00:00 | |
| DK7TD | 2026-08-31 01:06:23 | 49.26496 | 10.43179 | 79° | 157km/h | 12941m | -3.7m/s | -57.8°C | 16.6% | 177.1hPa | 2.4V | 07:52:56 | 02:34:29 | 00:00:00 | |
| DM0DOS-11 | 2026-08-31 01:06:23 | 49.26488 | 10.43121 | 79° | 151km/h | 12945m | -3.6m/s | -57.8°C | 19.4% | 177hPa | 2.4V | 07:52:19 | 02:34:28 | 00:00:00 | |
| DB0ND-19 | 2026-08-31 01:06:22 | 49.26496 | 10.43179 | 79° | 155km/h | 12941m | -3.7m/s | -57.8°C | 13.1% | 177.1hPa | 2.4V | 00:00:00 | 00:00:00 | 00:00:00 | |
| DJ8HS-15 | 2026-08-31 01:06:16 | 49.26451 | 10.42855 | 75° | 159km/h | 12964m | -4.0m/s | -57.4°C | 16.7% | 176.4hPa | 2.4V | 00:00:00 | 02:34:23 | 00:00:00 | |
| DO3MHA-11 | 2026-08-31 01:06:15 | 49.26442 | 10.42806 | 74° | 146km/h | 12968m | -4.0m/s | -57.3°C | 16.3% | 176.3hPa | 2.4V | 00:00:00 | 02:34:22 | 00:00:00 | |
| DF7PN | 2026-08-31 01:06:14 | 49.26432 | 10.42757 | 71° | 131km/h | 12972m | -4.1m/s | -57.3°C | 10.1% | 176.2hPa | 2.4V | 00:00:00 | 00:00:00 | 00:00:00 | |
| DM0DOS-11 | 2026-08-31 01:06:13 | 49.26395 | 10.42610 | 66° | 142km/h | 12984m | -4.1m/s | -57.2°C | 15.3% | 175.9hPa | 2.4V | 07:52:29 | 02:34:18 | 00:00:00 | |
| DK7TD | 2026-08-31 01:06:11 | 49.26394 | 10.42610 | 67° | 142km/h | 12984m | -4.1m/s | -57.2°C | 12.9% | 175.9hPa | 2.4V | 07:52:56 | 02:34:18 | 00:00:00 | |
| DB0NH | 2026-08-31 01:06:10 | 49.26380 | 10.42558 | 67° | 153km/h | 12988m | -4.0m/s | -57.2°C | 15.1% | 175.7hPa | 2.5V | 00:00:00 | 02:34:17 | 00:00:00 | |
| DF9NV-10 | 2026-08-31 01:06:09 | 49.26380 | 10.42558 | 67° | 148km/h | 12988m | -4.0m/s | -57.2°C | 9.5% | 175.8hPa | 2.5V | 07:52:00 | 00:00:00 | 00:00:00 | |
| SO1NDE-10 | 2026-08-31 01:06:07 | 49.26334 | 10.42393 | 69° | 153km/h | 13000m | -3.8m/s | -57.1°C | 14.8% | 175.4hPa | 2.5V | 00:00:00 | 02:34:14 | 00:00:00 | |
| DO3MHA-11 | 2026-08-31 01:06:05 | 49.26306 | 10.42274 | 72° | 161km/h | 13008m | -3.9m/s | -56.9°C | 14.4% | 175.2hPa | 2.4V | 00:00:00 | 02:34:12 | 00:00:00 | |
| DK5PH-5 | 2026-08-31 01:06:04 | 49.26293 | 10.42213 | 73° | 153km/h | 13012m | -3.8m/s | -56.9°C | 14.3% | 175.1hPa | 2.5V | 07:52:00 | 02:34:11 | 00:00:00 | |
| DM0DOS-11 | 2026-08-31 01:06:03 | 49.26259 | 10.42027 | 76° | 164km/h | 13024m | -4.2m/s | -56.9°C | 13.8% | 174.7hPa | 2.5V | 07:52:39 | 02:34:08 | 00:00:00 | |
| DK7TD | 2026-08-31 01:06:00 | 49.26250 | 10.41966 | 78° | 162km/h | 13028m | -4.3m/s | -56.9°C | 11.3% | 174.7hPa | 2.5V | 07:52:56 | 02:34:07 | 00:00:00 | |
| SONCRA | 2026-08-31 01:05:54 | 49.26193 | 10.41518 | 76° | 131km/h | 13062m | -4.3m/s | -57.1°C | 7.5% | 173.7hPa | 2.4V | 00:00:00 | 00:00:00 | 00:00:00 | |
| DM7RM-13 | 2026-08-31 01:05:53 | 49.26208 | 10.41621 | 80° | 139km/h | 13053m | -4.3m/s | -57.1°C | 7.8% | 173.9hPa | 2.4V | 07:52:00 | 00:00:00 | 00:00:00 | |
| DM0DOS-11 | 2026-08-31 01:05:52 | 49.26184 | 10.41469 | 74° | 131km/h | 13066m | -4.4m/s | -57°C | 12.3% | 173.6hPa | 2.4V | 07:52:49 | 02:33:58 | 00:00:00 | |
| DK7TD | 2026-08-31 01:05:50 | 49.26175 | 10.41420 | 72° | 131km/h | 13070m | -4.2m/s | -56.9°C | 9.7% | 173.5hPa | 2.4V | 07:52:56 | 02:33:57 | 00:00:00 | |
| OE5DRO-10 | 2026-08-31 01:05:50 | 49.26175 | 10.41420 | 72° | 110km/h | 13070m | -4.2m/s | -56.9°C | 12.2% | 173.4hPa | 2.4V | 00:00:00 | 00:00:00 | 00:00:00 | |
| DF1GD-15 | 2026-08-31 01:05:49 | 49.26175 | 10.41420 | 73° | 131km/h | 13070m | -4.2m/s | -56.9°C | 7.3% | 173.5hPa | 2.4V | 07:52:00 | 00:00:00 | 00:00:00 | |
| DF9NV-10 | 2026-08-31 01:05:48 | 49.26164 | 10.41371 | 71° | 135km/h | 13075m | -4.2m/s | -56.9°C | 7.2% | 173.4hPa | 2.4V | 07:52:00 | 00:00:00 | 00:00:00 | |
| DL1NUX | 2026-08-31 01:05:46 | 49.26125 | 10.41219 | 67° | 150km/h | 13087m | -4.2m/s | -56.8°C | 11.9% | 173.1hPa | 2.4V | 07:52:54 | 02:33:53 | 00:00:00 | |
| DO3MHA-11 | 2026-08-31 01:05:45 | 49.26110 | 10.41165 | 69° | 162km/h | 13091m | -4.2m/s | -56.8°C | 11.8% | 172.9hPa | 2.5V | 00:00:00 | 02:33:52 | 00:00:00 | |
| DF7PN | 2026-08-31 01:05:43 | 49.26082 | 10.41050 | 70° | 162km/h | 13099m | -4.1m/s | -56.9°C | 6.8% | 172.7hPa | 2.5V | 00:00:00 | 00:00:00 | 00:00:00 | |
| DM0DOS-11 | 2026-08-31 01:05:42 | 49.26056 | 10.40929 | 73° | 166km/h | 13108m | -4.5m/s | -56.9°C | 11.3% | 172.5hPa | 2.5V | 07:52:59 | 02:33:48 | 00:00:00 | |
| BIOWL1-15 | 2026-08-31 01:05:41 | 49.26056 | 10.40929 | 74° | 166km/h | 13108m | -4.5m/s | -56.9°C | 8.6% | 172.5hPa | 2.5V | 07:53:47 | 02:33:48 | 00:00:00 | |
| DL1NUX | 2026-08-31 01:05:41 | 49.26010 | 10.40619 | 80° | 159km/h | 13131m | -4.5m/s | -57°C | 10.8% | 171.8hPa | 2.5V | 07:53:04 | 02:33:43 | 00:00:00 | |
| DK7TD | 2026-08-31 01:05:40 | 49.26045 | 10.40867 | 75° | 168km/h | 13112m | -4.4m/s | -56.9°C | 8.5% | 172.4hPa | 2.4V | 07:53:47 | 02:33:47 | 00:00:00 | |
| DB0NH | 2026-08-31 01:05:40 | 49.26045 | 10.40867 | 76° | 146km/h | 13112m | -4.4m/s | -56.9°C | 11.2% | 172.3hPa | 2.5V | 00:00:00 | 02:33:47 | 00:00:00 | |
| DB0UT-7 | 2026-08-31 01:05:39 | 49.26034 | 10.40804 | 77° | 146km/h | 13117m | -4.5m/s | -56.9°C | 11.1% | 172.2hPa | 2.5V | 00:00:00 | 00:00:00 | 00:00:00 | |
| SO1NDE-10 | 2026-08-31 01:05:37 | 49.26017 | 10.40680 | 80° | 142km/h | 13126m | -4.6m/s | -56.9°C | 10.9% | 172.0hPa | 2.5V | 00:00:00 | 02:33:44 | 00:00:00 | |
| DO3MHA-11 | 2026-08-31 01:05:35 | 49.26004 | 10.40560 | 82° | 137km/h | 13135m | -4.6m/s | -57.0°C | 10.8% | 171.7hPa | 2.5V | 07:53:00 | 02:33:42 | 00:00:00 | |
| DK5PH-5 | 2026-08-31 01:05:34 | 49.25998 | 10.40502 | 82° | 139km/h | 13140m | -4.6m/s | -57.0°C | 10.6% | 171.6hPa | 2.4V | 00:00:00 | 02:33:41 | 00:00:00 | |
| DM0DOS-11 | 2026-08-31 01:05:32 | 49.25981 | 10.40342 | 78° | 133km/h | 13154m | -4.7m/s | -57°C | 10.2% | 171.3hPa | 2.4V | 07:53:09 | 02:33:38 | 00:00:00 | |
| DL1NUX | 2026-08-31 01:05:31 | 49.25933 | 10.40098 | 68° | 139km/h | 13177m | -4.8m/s | -57°C | 9.7% | 170.6hPa | 2.4V | 07:53:14 | 02:33:33 | 00:00:00 | |
| BIOWL1-15 | 2026-08-31 01:05:30 | 49.25906 | 10.39995 | 68° | 148km/h | 13186m | -4.3m/s | -56.9°C | 6.7% | 170.4hPa | 2.5V | 07:53:47 | 02:33:31 | 00:00:00 | |
| DK7TD | 2026-08-31 01:05:29 | 49.25966 | 10.40243 | 74° | 130km/h | 13163m | -4.6m/s | -57°C | 7.2% | 171hPa | 2.5V | 07:53:47 | 02:33:36 | 00:00:00 | |
| DF1GD-15 | 2026-08-31 01:05:28 | 49.25966 | 10.40243 | 75° | 130km/h | 13163m | -4.6m/s | -57.0°C | 5.6% | 171.0hPa | 2.5V | 07:53:00 | 00:00:00 | 00:00:00 | |
| DF9NV-10 | 2026-08-31 01:05:27 | 49.25956 | 10.40195 | 73° | 131km/h | 13168m | -4.6m/s | -57.0°C | 5.5% | 170.9hPa | 2.5V | 07:53:00 | 00:00:00 | 00:00:00 | |
| NBG1-10 | 2026-08-31 01:05:26 | 49.25933 | 10.40097 | 69° | 135km/h | 13177m | -4.8m/s | -56.9°C | 9.7% | 170.5hPa | 2.5V | 00:00:00 | 02:33:33 | 00:00:00 | |
| DO3MHA-11 | 2026-08-31 01:05:25 | 49.25919 | 10.40047 | 68° | 151km/h | 13182m | -4.2m/s | -56.9°C | 9.7% | 170.5hPa | 2.5V | 00:00:00 | 02:33:32 | 00:00:00 | |
| OE5DXL-15 | 2026-08-31 01:05:24 | 49.25906 | 10.39995 | 69° | 135km/h | 13186m | -4.3m/s | -56.9°C | 9.6% | 170.3hPa | 2.5V | 00:00:00 | 00:00:00 | 00:00:00 | |
| DM0DOS-11 | 2026-08-31 01:05:23 | 49.25866 | 10.39826 | 72° | 159km/h | 13199m | -4m/s | -57°C | 9.7% | 170.1hPa | 2.4V | 07:53:19 | 02:33:28 | 00:00:00 | |
| SONCRA | 2026-08-31 01:05:22 | 49.25878 | 10.39884 | 70° | 157km/h | 13195m | -4.5m/s | -57.0°C | 5.2% | 170.2hPa | 2.4V | 00:00:00 | 00:00:00 | 00:00:00 | |
| DL1NUX | 2026-08-31 01:05:21 | 49.25824 | 10.39537 | 80° | 144km/h | 13218m | -3.8m/s | -57.1°C | 9.3% | 169.5hPa | 2.4V | 07:53:24 | 02:33:23 | 00:00:00 | |
| DK7TD | 2026-08-31 01:05:19 | 49.25845 | 10.39708 | 77° | 155km/h | 13207m | -3.6m/s | -57.1°C | 6.2% | 169.8hPa | 2.4V | 07:53:47 | 02:33:26 | 00:00:00 | |
| BIOWL1-15 | 2026-08-31 01:05:15 | 49.25753 | 10.38900 | 74° | 117km/h | 13274m | -4.4m/s | -56.6°C | 4.2% | 168hPa | 2.4V | 07:53:47 | 02:33:10 | 00:00:00 | |
| DM0DOS-11 | 2026-08-31 01:05:13 | 49.25799 | 10.39274 | 81° | 131km/h | 13238m | -4.5m/s | -56.5°C | 8.2% | 168.9hPa | 2.5V | 07:53:29 | 02:33:18 | 00:00:00 | |
| DF7PN | 2026-08-31 01:05:12 | 49.25804 | 10.39325 | 81° | 133km/h | 13234m | -4.2m/s | -56.6°C | 4.2% | 169.0hPa | 2.4V | 00:00:00 | 00:00:00 | 00:00:00 | |
| DL1ZP-14 | 2026-08-31 01:05:11 | 49.25794 | 10.39224 | 81° | 128km/h | 13243m | -4.5m/s | -56.5°C | 4.1% | 168.8hPa | 2.4V | 00:00:00 | 00:00:00 | 00:00:00 | |
| DB0NH | 2026-08-31 01:05:10 | 49.25794 | 10.39224 | 82° | 128km/h | 13243m | -4.5m/s | -56.5°C | 8.2% | 168.8hPa | 2.4V | 07:53:00 | 02:33:17 | 00:00:00 | |
| DL1NUX | 2026-08-31 01:05:09 | 49.25774 | 10.39033 | 79° | 120km/h | 13261m | -4.3m/s | -56.6°C | 8% | 168.3hPa | 2.4V | 07:53:34 | 02:33:13 | 00:00:00 | |
| DK7TD | 2026-08-31 01:05:09 | 49.25785 | 10.39127 | 81° | 126km/h | 13252m | -4.5m/s | -56.6°C | 4.6% | 168.6hPa | 2.4V | 07:53:47 | 02:33:15 | 00:00:00 | |
| BIOWL1-15 | 2026-08-31 01:05:07 | 49.25745 | 10.38857 | 72° | 117km/h | 13278m | -4.2m/s | -56.6°C | 4% | 167.9hPa | 2.4V | 07:53:47 | 02:33:09 | 00:00:00 | |
| SO1NDE-10 | 2026-08-31 01:05:07 | 49.25779 | 10.39080 | 81° | 126km/h | 13257m | -4.4m/s | -56.6°C | 8.1% | 168.4hPa | 2.5V | 00:00:00 | 02:33:14 | 00:00:00 | |
| DK5PH-5 | 2026-08-31 01:05:04 | 49.25761 | 10.38944 | 77° | 126km/h | 13270m | -4.2m/s | -56.5°C | 7.8% | 168.1hPa | 2.5V | 00:00:00 | 02:33:11 | 00:00:00 | |
| DM0DOS-11 | 2026-08-31 01:05:03 | 49.25735 | 10.38814 | 70° | 117km/h | 13283m | -4.2m/s | -56.6°C | 7.6% | 167.7hPa | 2.4V | 07:53:39 | 02:33:08 | 00:00:00 | |
| DF3TZ-5 | 2026-08-31 01:05:02 | 49.25735 | 10.38814 | 70° | 117km/h | 13283m | -4.2m/s | -56.6°C | 3.6% | 167.7hPa | 2.4V | 00:00:00 | 00:00:00 | 00:00:00 | |
| DL1NUX | 2026-08-31 01:04:59 | 49.25675 | 10.38593 | 65° | 133km/h | 13305m | -4.6m/s | -55.8°C | 6.8% | 167.2hPa | 2.4V | 07:53:44 | 02:33:03 | 00:00:00 | |
| DK7TD | 2026-08-31 01:04:58 | 49.25702 | 10.38684 | 67° | 126km/h | 13296m | -4.5m/s | -56.1°C | 3.5% | 167.4hPa | 2.5V | 07:53:47 | 02:33:05 | 00:00:00 | |
| DC4HF-4 | 2026-08-31 01:04:58 | 49.25689 | 10.38639 | 65° | 128km/h | 13301m | -4.5m/s | -55.9°C | 3.2% | 167.3hPa | 2.4V | 00:00:00 | 00:00:00 | 00:00:00 | |
| DO3MHA-11 | 2026-08-31 01:04:55 | 49.25661 | 10.38545 | 67° | 141km/h | 13310m | -4.4m/s | -55.6°C | 6.8% | 167.0hPa | 2.4V | 00:00:00 | 02:33:02 | 00:00:00 | |
| OE5DXL-15 | 2026-08-31 01:04:54 | 49.25647 | 10.38495 | 68° | 131km/h | 13314m | -4.5m/s | -55.5°C | 6.6% | 166.9hPa | 2.4V | 00:00:00 | 00:00:00 | 00:00:00 | |
| DM0DOS-11 | 2026-08-31 01:04:53 | 49.25609 | 10.38335 | 73° | 148km/h | 13328m | -4.2m/s | -55.4°C | 6.7% | 166.6hPa | 2.4V | 07:53:49 | 02:32:58 | 00:00:00 | |
| BIOWL1-15 | 2026-08-31 01:04:52 | 49.25621 | 10.38389 | 71° | 148km/h | 13323m | -4.3m/s | -55.4°C | 3.2% | 166.7hPa | 2.5V | 07:55:29 | 02:32:59 | 00:00:00 | |
| SONCRA | 2026-08-31 01:04:52 | 49.25609 | 10.38335 | 73° | 148km/h | 13328m | -4.2m/s | -55.4°C | 3.1% | 166.6hPa | 2.5V | 00:00:00 | 00:00:00 | 00:00:00 | |
| DM7RM-13 | 2026-08-31 01:04:51 | 49.25621 | 10.38389 | 72° | 148km/h | 13323m | -4.3m/s | -55.4°C | 3.1% | 166.7hPa | 2.5V | 07:54:00 | 00:00:00 | 00:00:00 | |
| DL1NUX | 2026-08-31 01:04:49 | 49.25573 | 10.38070 | 81° | 128km/h | 13347m | -3.9m/s | -55.1°C | 6.4% | 166.1hPa | 2.5V | 07:53:54 | 02:32:53 | 00:00:00 | |
| HSKMA3-T | 2026-08-31 01:04:49 | 49.25591 | 10.38225 | 78° | 144km/h | 13336m | -3.9m/s | -55.3°C | 3.2% | 166.4hPa | 2.4V | 07:56:20 | 02:32:56 | 00:00:00 | |
| DK7TD | 2026-08-31 01:04:48 | 49.25584 | 10.38172 | 80° | 139km/h | 13340m | -3.9m/s | -55.2°C | 3.1% | 166.3hPa | 2.4V | 07:54:38 | 02:32:55 | 00:00:00 | |
| DO9HM | 2026-08-31 01:04:47 | 49.25584 | 10.38172 | 81° | 139km/h | 13340m | -3.9m/s | -55.2°C | 3.0% | 166.3hPa | 2.5V | 07:54:00 | 00:00:00 | 00:00:00 | |
| DF9NV-10 | 2026-08-31 01:04:46 | 49.25578 | 10.38120 | 82° | 133km/h | 13344m | -3.9m/s | -55.1°C | 3.0% | 166.2hPa | 2.5V | 07:54:00 | 00:00:00 | 00:00:00 | |
| DO3MHA-11 | 2026-08-31 01:04:45 | 49.25568 | 10.38023 | 81° | 117km/h | 13352m | -4.2m/s | -55.0°C | 6.3% | 166.0hPa | 2.5V | 00:00:00 | 02:32:52 | 00:00:00 | |
| DM0DOS-11 | 2026-08-31 01:04:42 | 49.25544 | 10.37850 | 74° | 110km/h | 13370m | -4.6m/s | -55°C | 6.2% | 165.5hPa | 2.5V | 07:53:59 | 02:32:48 | 00:00:00 | |
| BIOWL1-15 | 2026-08-31 01:04:41 | 49.25527 | 10.37769 | 69° | 111km/h | 13379m | -4.5m/s | -55°C | 2.9% | 165.3hPa | 2.4V | 07:55:29 | 02:32:46 | 00:00:00 | |
| DK7TD | 2026-08-31 01:04:38 | 49.25516 | 10.37729 | 67° | 115km/h | 13383m | -4.4m/s | -54.9°C | 2.9% | 165.2hPa | 2.4V | 07:54:38 | 02:32:45 | 00:00:00 | |
| SO1NDE-10 | 2026-08-31 01:04:37 | 49.25504 | 10.37687 | 67° | 128km/h | 13388m | -4.1m/s | -54.8°C | 6.4% | 165.0hPa | 2.4V | 07:54:00 | 02:32:44 | 00:00:00 | |
| DJ8HS-15 | 2026-08-31 01:04:35 | 49.25478 | 10.37595 | 68° | 126km/h | 13396m | -3.8m/s | -54.9°C | 6.6% | 164.8hPa | 2.5V | 00:00:00 | 02:32:42 | 00:00:00 | |
| DK5PH-5 | 2026-08-31 01:04:34 | 49.25466 | 10.37546 | 70° | 124km/h | 13399m | -3.6m/s | -54.9°C | 6.6% | 164.7hPa | 2.4V | 00:00:00 | 02:32:41 | 00:00:00 | |
| DM0DOS-11 | 2026-08-31 01:04:32 | 49.25434 | 10.37386 | 76° | 144km/h | 13411m | -4.4m/s | -54.8°C | 6.5% | 164.4hPa | 2.4V | 07:54:09 | 02:32:38 | 00:00:00 | |
| BIOWL1-15 | 2026-08-31 01:04:31 | 49.25382 | 10.36847 | 80° | 106km/h | 13461m | -4.6m/s | -53.8°C | 2.5% | 163.2hPa | 2.4V | 07:55:29 | 02:32:27 | 00:00:00 | |
| DM7RM-13 | 2026-08-31 01:04:31 | 49.25443 | 10.37440 | 75° | 146km/h | 13407m | -3.9m/s | -54.9°C | 3.0% | 164.6hPa | 2.4V | 07:54:00 | 00:00:00 | 00:00:00 | |
| DL1NUX | 2026-08-31 01:04:29 | 49.25403 | 10.37121 | 83° | 131km/h | 13433m | -4.5m/s | -54.2°C | 6% | 163.8hPa | 2.4V | 07:54:14 | 02:32:33 | 00:00:00 | |
| DK7TD | 2026-08-31 01:04:27 | 49.25407 | 10.37172 | 82° | 137km/h | 13429m | -4.7m/s | -54.3°C | 2.7% | 163.9hPa | 2.4V | 07:54:38 | 02:32:34 | 00:00:00 | |
| BIOWL1-15 | 2026-08-31 01:04:23 | 49.25377 | 10.36807 | 77° | 106km/h | 13466m | -4.6m/s | -53.7°C | 2.5% | 163hPa | 2.4V | 07:55:29 | 02:32:26 | 00:00:00 | |
| DK7TD | 2026-08-31 01:04:17 | 49.25363 | 10.36728 | 71° | 110km/h | 13475m | -4.3m/s | -53.7°C | 2.5% | 162.8hPa | 2.4V | 07:54:38 | 02:32:24 | 00:00:00 | |
| DO3MHA-11 | 2026-08-31 01:04:15 | 49.25342 | 10.36645 | 69° | 131km/h | 13483m | -4.2m/s | -53.7°C | 5.7% | 162.5hPa | 2.4V | 07:54:00 | 02:32:22 | 00:00:00 | |
| DB0UT-7 | 2026-08-31 01:04:12 | 49.25310 | 10.36504 | 74° | 120km/h | 13496m | -4.2m/s | -53.8°C | 5.9% | 162.3hPa | 2.4V | 00:00:00 | 00:00:00 | 00:00:00 | |
| DF7PN | 2026-08-31 01:04:10 | 49.25286 | 10.36349 | 80° | 135km/h | 13509m | -4.2m/s | -53.7°C | 2.6% | 162.0hPa | 2.4V | 00:00:00 | 00:00:00 | 00:00:00 | |
| DL1NUX | 2026-08-31 01:04:09 | 49.25275 | 10.36197 | 85° | 128km/h | 13521m | -4.2m/s | -53.6°C | 5.7% | 161.7hPa | 2.4V | 07:54:34 | 02:32:13 | 00:00:00 | |
| BIOWL1-15 | 2026-08-31 01:04:07 | 49.25273 | 10.36148 | 87° | 124km/h | 13526m | -4.4m/s | -53.6°C | 2.4% | 161.5hPa | 2.4V | 07:55:29 | 02:32:12 | 00:00:00 | |
| DK7TD | 2026-08-31 01:04:06 | 49.25275 | 10.36197 | 86° | 128km/h | 13521m | -4.3m/s | -53.6°C | 2.5% | 161.7hPa | 2.4V | 07:54:38 | 02:32:13 | 00:00:00 | |
| HSKMA3-T | 2026-08-31 01:04:00 | 49.25267 | 10.35923 | 88° | 108km/h | 13549m | -5m/s | -53.6°C | 2.3% | 160.9hPa | 2.4V | 07:56:20 | 02:32:07 | 00:00:00 | |
| DF3TZ-5 | 2026-08-31 01:04:00 | 49.25266 | 10.35883 | 87° | 102km/h | 13554m | -5.1m/s | -53.6°C | 2.3% | 160.8hPa | 2.4V | 00:00:00 | 00:00:00 | 00:00:00 | |
| DL1NUX | 2026-08-31 01:03:59 | 49.25258 | 10.35769 | 80° | 97km/h | 13569m | -4.8m/s | -53.6°C | 5.5% | 160.4hPa | 2.4V | 07:54:44 | 02:32:03 | 00:00:00 | |
| DK7TD | 2026-08-31 01:03:56 | 49.25258 | 10.35769 | 80° | 97km/h | 13569m | -4.8m/s | -53.6°C | 2.2% | 160.4hPa | 2.4V | 07:55:29 | 02:32:03 | 00:00:00 | |
| BIOWL1-15 | 2026-08-31 01:03:55 | 49.25253 | 10.35732 | 77° | 97km/h | 13573m | -4.5m/s | -53.6°C | 2.2% | 160.3hPa | 2.4V | 07:55:29 | 02:32:02 | 00:00:00 | |
| DJ8HS-15 | 2026-08-31 01:03:55 | 49.25253 | 10.35732 | 77° | 120km/h | 13573m | -4.4m/s | -53.6°C | 5.5% | 160.2hPa | 2.4V | 00:00:00 | 02:32:02 | 00:00:00 | |
| OE5DXL-15 | 2026-08-31 01:03:54 | 49.25247 | 10.35695 | 74° | 115km/h | 13578m | -4.4m/s | -53.5°C | 5.5% | 160.2hPa | 2.4V | 00:00:00 | 00:00:00 | 00:00:00 | |
| DM0DOS-11 | 2026-08-31 01:03:53 | 49.25221 | 10.35573 | 72° | 120km/h | 13590m | -4.2m/s | -53.6°C | 5.6% | 159.8hPa | 2.5V | 07:54:49 | 02:31:58 | 00:00:00 | |
| DL1NUX | 2026-08-31 01:03:49 | 49.25184 | 10.35331 | 81° | 133km/h | 13612m | -4.4m/s | -53.7°C | 5.5% | 159.4hPa | 2.4V | 07:54:54 | 02:31:53 | 00:00:00 | |
| HSKMA3-T | 2026-08-31 01:03:48 | 49.25196 | 10.35432 | 78° | 131km/h | 13603m | -4.5m/s | -53.7°C | 2.1% | 159.6hPa | 2.4V | 07:56:20 | 02:31:55 | 00:00:00 | |
| DK7TD | 2026-08-31 01:03:45 | 49.25180 | 10.35280 | 84° | 133km/h | 13617m | -4.6m/s | -53.7°C | 2.1% | 159.2hPa | 2.5V | 07:55:29 | 02:31:52 | 00:00:00 | |
| SONCRA | 2026-08-31 01:03:44 | 49.25177 | 10.35229 | 85° | 131km/h | 13621m | -4.6m/s | -53.7°C | 2.3% | 159.1hPa | 2.4V | 00:00:00 | 00:00:00 | 00:00:00 | |
| BIOWL1-15 | 2026-08-31 01:03:42 | 49.25173 | 10.35129 | 89° | 130km/h | 13631m | -4.9m/s | -53.6°C | 2% | 158.9hPa | 2.4V | 07:55:29 | 02:31:49 | 00:00:00 | |
| DM0DOS-11 | 2026-08-31 01:03:42 | 49.25173 | 10.35079 | 90° | 126km/h | 13635m | -4.8m/s | -53.5°C | 5.4% | 158.8hPa | 2.4V | 07:54:59 | 02:31:48 | 00:00:00 | |
| DB0UT-7 | 2026-08-31 01:03:42 | 49.25173 | 10.35129 | 89° | 108km/h | 13631m | -4.9m/s | -53.5°C | 5.4% | 158.8hPa | 2.4V | 07:54:00 | 02:31:49 | 00:00:00 | |
| DB0NH | 2026-08-31 01:03:40 | 49.25173 | 10.35031 | 92° | 106km/h | 13640m | -4.9m/s | -53.5°C | 5.4% | 158.6hPa | 2.4V | 00:00:00 | 02:31:47 | 00:00:00 | |
| DL1NUX | 2026-08-31 01:03:39 | 49.25179 | 10.34853 | 93° | 106km/h | 13660m | -5.2m/s | -53.4°C | 5.3% | 158.1hPa | 2.4V | 07:55:04 | 02:31:43 | 00:00:00 | |
| HSKMA3-T | 2026-08-31 01:03:37 | 49.25178 | 10.34895 | 94° | 111km/h | 13655m | -4.9m/s | -53.4°C | 1.9% | 158.2hPa | 2.4V | 07:56:20 | 02:31:44 | 00:00:00 | |
| DK7TD | 2026-08-31 01:03:34 | 49.25181 | 10.34774 | 91° | 99km/h | 13670m | -5.2m/s | -53.4°C | 1.8% | 157.9hPa | 2.4V | 07:55:29 | 02:31:41 | 00:00:00 | |
| DL1NUX | 2026-08-31 01:03:29 | 49.25148 | 10.34473 | 75° | 113km/h | 13713m | -5.5m/s | -53°C | 5.1% | 156.8hPa | 2.5V | 07:55:14 | 02:31:33 | 00:00:00 | |
| HSKMA3-T | 2026-08-31 01:03:26 | 49.25148 | 10.34473 | 76° | 113km/h | 13713m | -5.5m/s | -53°C | 1.7% | 156.8hPa | 2.5V | 07:56:20 | 02:31:33 | 00:00:00 | |
| DK7TD | 2026-08-31 01:03:24 | 49.25136 | 10.34383 | 82° | 122km/h | 13724m | -5.1m/s | -53°C | 1.7% | 156.7hPa | 2.4V | 07:55:29 | 02:31:31 | 00:00:00 | |
| OE5DXL-15 | 2026-08-31 01:03:24 | 49.25136 | 10.34383 | 82° | 102km/h | 13724m | -5.0m/s | -53.0°C | 5.1% | 156.6hPa | 2.4V | 00:00:00 | 00:00:00 | 00:00:00 | |
| DM0DOS-11 | 2026-08-31 01:03:23 | 49.25131 | 10.34242 | 91° | 119km/h | 13738m | -4.7m/s | -53°C | 5% | 156.3hPa | 2.4V | 07:55:19 | 02:31:28 | 00:00:00 | |
| DL1NUX | 2026-08-31 01:03:19 | 49.25143 | 10.34032 | 97° | 99km/h | 13763m | -5.1m/s | -52.6°C | 4.9% | 155.6hPa | 2.4V | 07:55:24 | 02:31:23 | 00:00:00 | |
| HSKMA3-T | 2026-08-31 01:03:15 | 49.25146 | 10.33995 | 97° | 95km/h | 13768m | -5.1m/s | -52.7°C | 1.6% | 155.5hPa | 2.4V | 07:56:20 | 02:31:22 | 00:00:00 | |
| DJ8HS-15 | 2026-08-31 01:03:15 | 49.25146 | 10.33995 | 97° | 97km/h | 13768m | -5.1m/s | -52.6°C | 4.9% | 155.4hPa | 2.4V | 00:00:00 | 02:31:22 | 00:00:00 | |
| NBG1-10 | 2026-08-31 01:03:14 | 49.25149 | 10.33959 | 96° | 91km/h | 13774m | -5.1m/s | -52.6°C | 4.9% | 155.4hPa | 2.4V | 00:00:00 | 02:31:21 | 00:00:00 | |
| DM0DOS-11 | 2026-08-31 01:03:13 | 49.25152 | 10.33859 | 88° | 82km/h | 13788m | -4.7m/s | -52.5°C | 4.7% | 155hPa | 2.4V | 07:55:29 | 02:31:18 | 00:00:00 | |
| BIOWL1-15 | 2026-08-31 01:03:13 | 49.25151 | 10.33925 | 94° | 88km/h | 13779m | -5.3m/s | -52.5°C | 1.5% | 155.3hPa | 2.5V | 07:55:29 | 02:31:20 | 00:00:00 | |
| DB0UT-7 | 2026-08-31 01:03:12 | 49.25152 | 10.33892 | 92° | 91km/h | 13784m | -4.5m/s | -52.4°C | 4.7% | 155.1hPa | 2.4V | 00:00:00 | 00:00:00 | 00:00:00 | |
| DC4HF-4 | 2026-08-31 01:03:10 | 49.25148 | 10.33796 | 80° | 82km/h | 13798m | -4.9m/s | -52.6°C | 1.9% | 154.8hPa | 2.4V | 00:00:00 | 00:00:00 | 00:00:00 | |
| DL1NUX | 2026-08-31 01:03:09 | 49.25132 | 10.33700 | 73° | 91km/h | 13814m | -5.8m/s | -52.6°C | 4.7% | 154.5hPa | 2.4V | 07:55:34 | 02:31:13 | 00:00:00 | |
| DK7TD | 2026-08-31 01:03:03 | 49.25112 | 10.33588 | 77° | 108km/h | 13829m | -4.9m/s | -52.7°C | 1.5% | 154.1hPa | 2.4V | 07:56:20 | 02:31:10 | 00:00:00 | |
| BIOWL1-15 | 2026-08-31 01:03:02 | 49.25101 | 10.33418 | 91° | 111km/h | 13849m | -4.8m/s | -52.8°C | 1.6% | 153.6hPa | 2.4V | 07:56:20 | 02:31:06 | 00:00:00 | |
| DM0DOS-11 | 2026-08-31 01:03:02 | 49.25103 | 10.33504 | 84° | 113km/h | 13839m | -4.9m/s | -52.7°C | 4.9% | 153.9hPa | 2.5V | 07:55:39 | 02:31:08 | 00:00:00 | |
| DL1NUX | 2026-08-31 01:02:59 | 49.25108 | 10.33296 | 97° | 99km/h | 13864m | -5.2m/s | -52.8°C | 4.9% | 153.3hPa | 2.5V | 07:55:44 | 02:31:03 | 00:00:00 | |
| HSKMA3-T | 2026-08-31 01:02:53 | 49.25117 | 10.33191 | 97° | 84km/h | 13880m | -5.3m/s | -53°C | 1.6% | 152.9hPa | 2.4V | 07:56:20 | 02:31:00 | 00:00:00 | |
| DK7TD | 2026-08-31 01:02:52 | 49.25119 | 10.33160 | 95° | 78km/h | 13885m | -5.1m/s | -53°C | 1.7% | 152.8hPa | 2.4V | 07:56:20 | 02:30:59 | 00:00:00 | |
| DL1NUX | 2026-08-31 01:02:49 | 49.25108 | 10.32987 | 73° | 80km/h | 13915m | -5.1m/s | -53.3°C | 4.8% | 152hPa | 2.4V | 07:55:54 | 02:30:53 | 00:00:00 | |
| DB0ND-19 | 2026-08-31 01:02:45 | 49.25095 | 10.32926 | 70° | 88km/h | 13925m | -5.4m/s | -53.4°C | 1.9% | 151.8hPa | 2.5V | 00:00:00 | 00:00:00 | 00:00:00 | |
| HSKMA3-T | 2026-08-31 01:02:43 | 49.25087 | 10.32893 | 72° | 93km/h | 13931m | -5.4m/s | -53.4°C | 1.6% | 151.7hPa | 2.5V | 07:56:20 | 02:30:50 | 00:00:00 | |
| DK7TD | 2026-08-31 01:02:42 | 49.25080 | 10.32858 | 74° | 97km/h | 13936m | -5.4m/s | -53.4°C | 1.6% | 151.6hPa | 2.5V | 07:56:20 | 02:30:49 | 00:00:00 | |
| DB0UT-7 | 2026-08-31 01:02:42 | 49.25080 | 10.32858 | 74° | 82km/h | 13936m | -5.3m/s | -53.4°C | 4.9% | 151.5hPa | 2.4V | 00:00:00 | 02:30:49 | 00:00:00 | |
| NBG1-10 | 2026-08-31 01:02:41 | 49.25073 | 10.32821 | 77° | 80km/h | 13942m | -5.2m/s | -53.4°C | 5.0% | 151.4hPa | 2.4V | 00:00:00 | 02:30:48 | 00:00:00 | |
| DB0NH | 2026-08-31 01:02:40 | 49.25069 | 10.32782 | 81° | 82km/h | 13947m | -4.9m/s | -53.5°C | 5.1% | 151.3hPa | 2.5V | 00:00:00 | 02:30:47 | 00:00:00 | |
| DL1NUX | 2026-08-31 01:02:39 | 49.25065 | 10.32628 | 94° | 93km/h | 13965m | -4.5m/s | -53.6°C | 5.2% | 150.9hPa | 2.5V | 07:56:04 | 02:30:43 | 00:00:00 | |
| SO1NDE-10 | 2026-08-31 01:02:37 | 49.25064 | 10.32665 | 92° | 77km/h | 13960m | -4.5m/s | -53.5°C | 5.1% | 150.9hPa | 2.5V | 00:00:00 | 02:30:44 | 00:00:00 | |
| DF7PN | 2026-08-31 01:02:36 | 49.25065 | 10.32628 | 94° | 93km/h | 13965m | -4.5m/s | -53.6°C | 2.1% | 150.9hPa | 2.5V | 00:00:00 | 00:00:00 | 00:00:00 | |
| DM0DOS-11 | 2026-08-31 01:02:35 | 49.25075 | 10.32471 | 93° | 71km/h | 13988m | -4.8m/s | -53.6°C | 5.2% | 150.3hPa | 2.5V | 07:56:09 | 02:30:38 | 00:00:00 | |
| BIOWL1-15 | 2026-08-31 01:02:35 | 49.25067 | 10.32593 | 96° | 89km/h | 13969m | -4.8m/s | -53.6°C | 1.7% | 150.8hPa | 2.4V | 07:56:20 | 02:30:42 | 00:00:00 | |
| DK7TD | 2026-08-31 01:02:32 | 49.25074 | 10.32499 | 95° | 75km/h | 13984m | -4.7m/s | -53.6°C | 1.8% | 150.4hPa | 2.4V | 07:56:20 | 02:30:39 | 00:00:00 | |
| BIOWL1-15 | 2026-08-31 01:02:27 | 49.25065 | 10.32321 | 74° | 66km/h | 14018m | -5.1m/s | -53.8°C | 1.7% | 149.6hPa | 2.5V | 07:56:20 | 02:30:32 | 00:00:00 | |
| DM0DOS-11 | 2026-08-31 01:02:24 | 49.25038 | 10.32219 | 66° | 80km/h | 14039m | -5.4m/s | -53.9°C | 5% | 149.1hPa | 2.4V | 07:56:19 | 02:30:28 | 00:00:00 | |
| DK7TD | 2026-08-31 01:02:22 | 49.25046 | 10.32246 | 67° | 75km/h | 14034m | -5.3m/s | -53.9°C | 1.7% | 149.2hPa | 2.4V | 07:56:20 | 02:30:29 | 00:00:00 | |
| HSKMA3-T | 2026-08-31 01:02:21 | 49.25038 | 10.32219 | 66° | 80km/h | 14039m | -5.4m/s | -53.9°C | 1.7% | 149.1hPa | 2.4V | 07:56:20 | 02:30:28 | 00:00:00 | |
| BIOWL1-15 | 2026-08-31 01:02:14 | 49.24992 | 10.31986 | 84° | 88km/h | 14073m | -4m/s | -54.1°C | 1.9% | 148.3hPa | 2.4V | 07:57:11 | 02:30:21 | 00:00:00 | |
| DB0ND-19 | 2026-08-31 01:02:14 | 49.24991 | 10.31954 | 87° | 80km/h | 14077m | -4.0m/s | -54.1°C | 2.1% | 148.3hPa | 2.4V | 00:00:00 | 00:00:00 | 00:00:00 | |
| DM0DOS-11 | 2026-08-31 01:02:13 | 49.24989 | 10.31868 | 88° | 68km/h | 14090m | -4.6m/s | -54°C | 5.3% | 148hPa | 2.4V | 07:56:30 | 02:30:17 | 00:00:00 | |
| DK7TD | 2026-08-31 01:02:12 | 49.24990 | 10.31923 | 89° | 77km/h | 14081m | -4m/s | -54.1°C | 1.8% | 148.2hPa | 2.5V | 07:58:53 | 02:30:19 | 00:00:00 | |
| HSKMA3-T | 2026-08-31 01:02:10 | 49.24989 | 10.31868 | 89° | 68km/h | 14090m | -4.6m/s | -54°C | 1.9% | 148hPa | 2.4V | 07:57:11 | 02:30:17 | 00:00:00 | |
| DB0NH | 2026-08-31 01:02:10 | 49.24989 | 10.31868 | 89° | 66km/h | 14090m | -4.6m/s | -53.9°C | 5.3% | 148.0hPa | 2.4V | 00:00:00 | 02:30:17 | 00:00:00 | |
| DL1NUX | 2026-08-31 01:02:09 | 49.24986 | 10.31773 | 83° | 57km/h | 14109m | -5.1m/s | -54°C | 5.2% | 147.5hPa | 2.5V | 07:56:34 | 02:30:13 | 00:00:00 | |
| BIOWL1-15 | 2026-08-31 01:02:05 | 49.24979 | 10.31712 | 74° | 51km/h | 14124m | -5m/s | -54°C | 1.8% | 147.2hPa | 2.4V | 07:57:11 | 02:30:10 | 00:00:00 | |
| DO3MHA-11 | 2026-08-31 01:02:05 | 49.24984 | 10.31752 | 82° | 58km/h | 14114m | -4.8m/s | -53.9°C | 5.2% | 147.4hPa | 2.5V | 00:00:00 | 02:30:12 | 00:00:00 | |
| DL1ZP-14 | 2026-08-31 01:02:04 | 49.24982 | 10.31732 | 78° | 51km/h | 14119m | -5.1m/s | -54.0°C | 2.1% | 147.3hPa | 2.4V | 00:00:00 | 00:00:00 | 00:00:00 | |
| DM0DOS-11 | 2026-08-31 01:02:02 | 49.24963 | 10.31656 | 60° | 55km/h | 14140m | -5.2m/s | -54°C | 5% | 146.8hPa | 2.5V | 07:56:40 | 02:30:07 | 00:00:00 | |
| DK7TD | 2026-08-31 01:02:01 | 49.24970 | 10.31675 | 64° | 53km/h | 14134m | -5m/s | -54°C | 1.7% | 146.9hPa | 2.4V | 07:58:53 | 02:30:08 | 00:00:00 | |
| HSKMA3-T | 2026-08-31 01:02:00 | 49.24963 | 10.31656 | 60° | 55km/h | 14140m | -5.2m/s | -54°C | 1.7% | 146.8hPa | 2.5V | 07:57:11 | 02:30:07 | 00:00:00 | |
| DK5PH-5 | 2026-08-31 01:01:59 | 49.24956 | 10.31638 | 58° | 66km/h | 14145m | -5.0m/s | -53.9°C | 5.1% | 146.7hPa | 2.5V | 07:56:00 | 02:30:06 | 00:00:00 | |
| DM0DOS-11 | 2026-08-31 01:01:56 | 49.24881 | 10.31395 | 79° | 84km/h | 14188m | -4.8m/s | -54.1°C | 5.2% | 145.8hPa | 2.4V | 07:56:50 | 02:29:57 | 00:00:00 | |
| BIOWL1-15 | 2026-08-31 01:01:52 | 49.24892 | 10.31459 | 72° | 88km/h | 14178m | -4.7m/s | -54.1°C | 1.8% | 146hPa | 2.5V | 07:57:11 | 02:29:59 | 00:00:00 | |
| DK7TD | 2026-08-31 01:01:51 | 49.24886 | 10.31427 | 76° | 86km/h | 14183m | -4.5m/s | -54.1°C | 1.8% | 145.8hPa | 2.4V | 07:58:53 | 02:29:58 | 00:00:00 | |
| HSKMA3-T | 2026-08-31 01:01:49 | 49.24876 | 10.31333 | 85° | 77km/h | 14197m | -5m/s | -54.2°C | 1.9% | 145.5hPa | 2.4V | 07:57:11 | 02:29:55 | 00:00:00 | |
| DL1NUX | 2026-08-31 01:01:49 | 49.24872 | 10.31254 | 87° | 60km/h | 14212m | -4.5m/s | -54.3°C | 5.3% | 145.2hPa | 2.4V | 07:56:55 | 02:29:52 | 00:00:00 | |
| DO3MHA-11 | 2026-08-31 01:01:45 | 49.24872 | 10.31254 | 88° | 51km/h | 14212m | -4.5m/s | -54.2°C | 5.3% | 145.2hPa | 2.5V | 00:00:00 | 02:29:52 | 00:00:00 | |
| DO9HM | 2026-08-31 01:01:44 | 49.24870 | 10.31211 | 84° | 51km/h | 14221m | -4.4m/s | -54.4°C | 2.2% | 145.0hPa | 2.5V | 07:57:00 | 00:00:00 | 00:00:00 | |
| DM0DOS-11 | 2026-08-31 01:01:43 | 49.24862 | 10.31158 | 68° | 46km/h | 14234m | -5.1m/s | -54.5°C | 5.4% | 144.7hPa | 2.5V | 07:57:00 | 02:29:47 | 00:00:00 | |
| BIOWL1-15 | 2026-08-31 01:01:42 | 49.24865 | 10.31175 | 74° | 46km/h | 14230m | -4.6m/s | -54.5°C | 1.9% | 144.8hPa | 2.5V | 07:57:11 | 02:29:48 | 00:00:00 | |
| DK7TD | 2026-08-31 01:01:40 | 49.24861 | 10.31158 | 69° | 46km/h | 14234m | -5.1m/s | -54.5°C | 2% | 144.7hPa | 2.5V | 07:58:53 | 02:29:47 | 00:00:00 | |
| HSKMA3-T | 2026-08-31 01:01:39 | 49.24857 | 10.31142 | 64° | 46km/h | 14240m | -5m/s | -54.5°C | 2% | 144.6hPa | 2.4V | 07:57:11 | 02:29:46 | 00:00:00 | |
| AZAK | 2026-08-31 01:01:39 | 49.24857 | 10.31142 | 65° | 46km/h | 14240m | -5.0m/s | -54.5°C | 2.2% | 144.6hPa | 2.4V | 00:00:00 | 00:00:00 | 00:00:00 | |
| SO1NDE-10 | 2026-08-31 01:01:37 | 49.24845 | 10.31110 | 55° | 66km/h | 14250m | -5.1m/s | -54.6°C | 5.3% | 144.3hPa | 2.4V | 00:00:00 | 02:29:44 | 00:00:00 | |
| DL1NUX | 2026-08-31 01:01:35 | 49.24828 | 10.31078 | 50° | 58km/h | 14260m | -5.1m/s | -54.7°C | 5.4% | 144.1hPa | 2.5V | 07:57:05 | 02:29:42 | 00:00:00 | |
| DJ8HS-15 | 2026-08-31 01:01:35 | 49.24828 | 10.31078 | 51° | 68km/h | 14260m | -5.0m/s | -54.7°C | 5.4% | 144.1hPa | 2.5V | 00:00:00 | 02:29:42 | 00:00:00 | |
| DF7PN | 2026-08-31 01:01:34 | 49.24818 | 10.31060 | 50° | 62km/h | 14265m | -4.8m/s | -54.8°C | 2.1% | 143.9hPa | 2.4V | 00:00:00 | 00:00:00 | 00:00:00 | |
| DM0DOS-11 | 2026-08-31 01:01:33 | 49.24775 | 10.30969 | 59° | 80km/h | 14284m | -4.8m/s | -54.9°C | 5.4% | 143.5hPa | 2.4V | 07:57:10 | 02:29:37 | 00:00:00 | |
| BIOWL1-15 | 2026-08-31 01:01:32 | 49.24775 | 10.30969 | 59° | 80km/h | 14284m | -4.8m/s | -54.9°C | 2% | 143.5hPa | 2.4V | 07:57:11 | 02:29:37 | 00:00:00 | |
| DL1NUX | 2026-08-31 01:01:29 | 49.24736 | 10.30820 | 77° | 80km/h | 14309m | -5m/s | -55.1°C | 5.4% | 143hPa | 2.4V | 07:57:15 | 02:29:32 | 00:00:00 | |
| HSKMA3-T | 2026-08-31 01:01:28 | 49.24756 | 10.30912 | 66° | 86km/h | 14294m | -5.1m/s | -55°C | 2% | 143.3hPa | 2.5V | 07:58:02 | 02:29:35 | 00:00:00 | |
| DK7TD | 2026-08-31 01:01:27 | 49.24748 | 10.30882 | 70° | 86km/h | 14299m | -5m/s | -55°C | 2% | 143.2hPa | 2.4V | 07:58:53 | 02:29:34 | 00:00:00 | |
| BIOWL1-15 | 2026-08-31 01:01:24 | 49.24726 | 10.30690 | 83° | 53km/h | 14333m | -4.7m/s | -55.3°C | 2.2% | 142.5hPa | 2.4V | 08:00:35 | 02:29:27 | 00:00:00 | |
| DJTTGO | 2026-08-31 01:01:24 | 49.24732 | 10.30790 | 82° | 77km/h | 14314m | -4.7m/s | -55.1°C | 2.2% | 142.9hPa | 2.4V | 00:00:00 | 00:00:00 | 00:00:00 | |
| DM0DOS-11 | 2026-08-31 01:01:21 | 49.24726 | 10.30690 | 83° | 53km/h | 14333m | -4.7m/s | -55.3°C | 5.7% | 142.5hPa | 2.4V | 07:57:20 | 02:29:27 | 00:00:00 | |
| DF9NV-10 | 2026-08-31 01:01:20 | 49.24727 | 10.30711 | 86° | 58km/h | 14328m | -4.8m/s | -55.2°C | 2.3% | 142.6hPa | 2.5V | 07:58:00 | 00:00:00 | 00:00:00 | |
| DL1NUX | 2026-08-31 01:01:19 | 49.24702 | 10.30605 | 51° | 53km/h | 14355m | -4.8m/s | -55.4°C | 5.7% | 142hPa | 2.5V | 07:57:25 | 02:29:22 | 00:00:00 | |
| HSKMA3-T | 2026-08-31 01:01:18 | 49.24720 | 10.30653 | 70° | 46km/h | 14342m | -4.5m/s | -55.3°C | 2.2% | 142.3hPa | 2.4V | 07:58:02 | 02:29:25 | 00:00:00 | |
| DK7TD | 2026-08-31 01:01:15 | 49.24702 | 10.30605 | 52° | 53km/h | 14355m | -4.8m/s | -55.4°C | 2.2% | 142hPa | 2.5V | 07:58:53 | 02:29:22 | 00:00:00 | |
| BIOWL1-15 | 2026-08-31 01:01:09 | 49.24571 | 10.30316 | 69° | 91km/h | 14415m | -4.8m/s | -55.8°C | 2.2% | 140.6hPa | 2.5V | 08:00:35 | 02:29:10 | 00:00:00 | |
| DL1NUX | 2026-08-31 01:01:08 | 49.24590 | 10.30380 | 62° | 89km/h | 14405m | -5m/s | -55.8°C | 5.7% | 140.8hPa | 2.4V | 07:57:35 | 02:29:12 | 00:00:00 | |
| HSKMA3-T | 2026-08-31 01:01:07 | 49.24601 | 10.30410 | 59° | 88km/h | 14400m | -5m/s | -55.7°C | 2.1% | 141hPa | 2.4V | 07:58:02 | 02:29:13 | 00:00:00 | |
| SO1NDE-10 | 2026-08-31 01:01:07 | 49.24613 | 10.30439 | 57° | 78km/h | 14395m | -5.1m/s | -55.6°C | 5.6% | 141.0hPa | 2.4V | 00:00:00 | 02:29:14 | 00:00:00 | |
| DM0DOS-11 | 2026-08-31 01:01:05 | 49.24552 | 10.30220 | 77° | 80km/h | 14430m | -4.7m/s | -55.6°C | 5.7% | 140.3hPa | 2.4V | 07:57:40 | 02:29:07 | 00:00:00 | |
| DK7TD | 2026-08-31 01:01:05 | 49.24590 | 10.30380 | 62° | 89km/h | 14405m | -5m/s | -55.8°C | 2.2% | 140.8hPa | 2.4V | 07:58:53 | 02:29:12 | 00:00:00 | |
| DO3MHA-11 | 2026-08-31 01:01:05 | 49.24590 | 10.30380 | 63° | 78km/h | 14405m | -5.0m/s | -55.7°C | 5.7% | 140.8hPa | 2.4V | 00:00:00 | 02:29:12 | 00:00:00 | |
| DM7RM-13 | 2026-08-31 01:01:04 | 49.24590 | 10.30380 | 63° | 89km/h | 14405m | -5.0m/s | -55.8°C | 2.3% | 140.8hPa | 2.4V | 07:58:00 | 00:00:00 | 00:00:00 | |
| DF7PN | 2026-08-31 01:01:03 | 49.24571 | 10.30316 | 68° | 89km/h | 14415m | -4.8m/s | -55.8°C | 2.3% | 140.6hPa | 2.4V | 00:00:00 | 00:00:00 | 00:00:00 | |
| NBG1-10 | 2026-08-31 01:01:02 | 49.24563 | 10.30284 | 72° | 73km/h | 14420m | -5.0m/s | -55.7°C | 5.7% | 140.5hPa | 2.4V | 00:00:00 | 02:29:09 | 00:00:00 | |
| DO9HM | 2026-08-31 01:01:01 | 49.24557 | 10.30251 | 76° | 86km/h | 14425m | -4.9m/s | -55.7°C | 2.3% | 140.4hPa | 2.4V | 07:58:00 | 00:00:00 | 00:00:00 | |
| DF1GD-15 | 2026-08-31 01:01:00 | 49.24557 | 10.30251 | 76° | 86km/h | 14425m | -4.9m/s | -55.7°C | 2.3% | 140.4hPa | 2.4V | 07:58:00 | 00:00:00 | 00:00:00 | |
| DK5PH-5 | 2026-08-31 01:00:59 | 49.24548 | 10.30191 | 79° | 73km/h | 14434m | -4.6m/s | -55.6°C | 5.7% | 140.2hPa | 2.4V | 00:00:00 | 02:29:06 | 00:00:00 | |
| DL1NUX | 2026-08-31 01:00:58 | 49.24532 | 10.30097 | 68° | 55km/h | 14453m | -4.5m/s | -55.7°C | 5.8% | 139.8hPa | 2.4V | 07:57:45 | 02:29:02 | 00:00:00 | |
| BIOWL1-15 | 2026-08-31 01:00:57 | 49.24541 | 10.30140 | 77° | 62km/h | 14444m | -4.6m/s | -55.7°C | 2.3% | 140hPa | 2.5V | 08:00:35 | 02:29:04 | 00:00:00 | |
| HSKMA3-T | 2026-08-31 01:00:56 | 49.24537 | 10.30118 | 73° | 57km/h | 14448m | -4.5m/s | -55.7°C | 2.2% | 139.9hPa | 2.4V | 07:58:02 | 02:29:03 | 00:00:00 | |
| DO3MHA-11 | 2026-08-31 01:00:55 | 49.24532 | 10.30097 | 69° | 64km/h | 14453m | -4.5m/s | -55.6°C | 5.8% | 139.8hPa | 2.5V | 00:00:00 | 02:29:02 | 00:00:00 | |
| DM0DOS-11 | 2026-08-31 01:00:54 | 49.24492 | 10.30008 | 47° | 64km/h | 14477m | -4.9m/s | -55.9°C | 5.9% | 139.3hPa | 2.5V | 07:57:50 | 02:28:57 | 00:00:00 | |
| DK7TD | 2026-08-31 01:00:54 | 49.24527 | 10.30079 | 63° | 53km/h | 14458m | -4.6m/s | -55.7°C | 2.3% | 139.7hPa | 2.4V | 07:58:53 | 02:29:01 | 00:00:00 | |
| DF3TZ-5 | 2026-08-31 01:00:53 | 49.24520 | 10.30061 | 57° | 53km/h | 14462m | -4.9m/s | -55.8°C | 2.3% | 139.6hPa | 2.5V | 00:00:00 | 00:00:00 | 00:00:00 | |
| DL6DJ-15 | 2026-08-31 01:00:51 | 49.24492 | 10.30008 | 47° | 62km/h | 14477m | -4.9m/s | -55.9°C | 2.4% | 139.3hPa | 2.5V | 00:00:00 | 00:00:00 | 00:00:00 | |
| DL1NUX | 2026-08-31 01:00:48 | 49.24428 | 10.29899 | 51° | 88km/h | 14502m | -4.9m/s | -55.9°C | 5.8% | 138.7hPa | 2.5V | 07:57:55 | 02:28:52 | 00:00:00 | |
| BIOWL1-15 | 2026-08-31 01:00:47 | 49.24442 | 10.29925 | 49° | 84km/h | 14497m | -4.8m/s | -55.9°C | 2.3% | 138.8hPa | 2.4V | 08:00:35 | 02:28:53 | 00:00:00 | |
| HSKMA3-T | 2026-08-31 01:00:46 | 49.24428 | 10.29899 | 51° | 88km/h | 14502m | -4.9m/s | -55.9°C | 2.3% | 138.7hPa | 2.5V | 07:58:02 | 02:28:52 | 00:00:00 | |
| DO3MHA-11 | 2026-08-31 01:00:45 | 49.24427 | 10.29899 | 52° | 89km/h | 14502m | -4.8m/s | -55.8°C | 5.8% | 138.7hPa | 2.4V | 00:00:00 | 02:28:52 | 00:00:00 | |
| OE3JTB-15 | 2026-08-31 01:00:44 | 49.24414 | 10.29871 | 55° | 75km/h | 14507m | -4.7m/s | 0°C | 0% | 0hPa | 2.4V | 00:00:00 | 00:00:00 | 00:00:00 | |
| DB0NH | 2026-08-31 01:00:40 | 49.24368 | 10.29744 | 68° | 80km/h | 14526m | -4.8m/s | -55.9°C | 5.8% | 138.2hPa | 2.4V | 00:00:00 | 02:28:47 | 00:00:00 | |
| DF1GD-15 | 2026-08-31 01:00:39 | 49.24368 | 10.29744 | 69° | 93km/h | 14526m | -4.8m/s | -56.0°C | 2.3% | 138.2hPa | 2.4V | 07:58:00 | 00:00:00 | 00:00:00 | |
| DL1NUX | 2026-08-31 01:00:38 | 49.24338 | 10.29588 | 75° | 71km/h | 14550m | -4.9m/s | -56.1°C | 6% | 137.7hPa | 2.4V | 07:58:05 | 02:28:42 | 00:00:00 | |
| HSKMA3-T | 2026-08-31 01:00:35 | 49.24338 | 10.29588 | 76° | 71km/h | 14550m | -4.9m/s | -56.2°C | 2.4% | 137.7hPa | 2.4V | 07:58:53 | 02:28:42 | 00:00:00 | |
| DM0DOS-11 | 2026-08-31 01:00:34 | 49.24304 | 10.29481 | 49° | 64km/h | 14572m | -4.5m/s | -56.3°C | 6.2% | 137.2hPa | 2.4V | 07:58:10 | 02:28:37 | 00:00:00 | |
| DF7PN | 2026-08-31 01:00:32 | 49.24322 | 10.29520 | 60° | 58km/h | 14563m | -4.4m/s | -56.3°C | 2.5% | 137.4hPa | 2.4V | 00:00:00 | 00:00:00 | 00:00:00 | |
| AZAK | 2026-08-31 01:00:31 | 49.24314 | 10.29500 | 55° | 60km/h | 14568m | -4.4m/s | -56.3°C | 2.5% | 137.3hPa | 2.4V | 00:00:00 | 00:00:00 | 00:00:00 | |
| DK5PH-5 | 2026-08-31 01:00:29 | 49.24293 | 10.29462 | 47° | 82km/h | 14577m | -4.7m/s | -56.2°C | 6.1% | 137.0hPa | 2.4V | 00:00:00 | 02:28:36 | 00:00:00 | |
| DL1NUX | 2026-08-31 01:00:28 | 49.24238 | 10.29375 | 48° | 88km/h | 14596m | -4.9m/s | -56.1°C | 6.1% | 136.7hPa | 2.4V | 07:58:15 | 02:28:32 | 00:00:00 | |
| HSKMA3-T | 2026-08-31 01:00:24 | 49.24223 | 10.29348 | 52° | 93km/h | 14601m | -4.8m/s | -56.2°C | 2.4% | 136.6hPa | 2.4V | 07:58:53 | 02:28:31 | 00:00:00 | |
| OE5DXL-15 | 2026-08-31 01:00:24 | 49.24223 | 10.29348 | 52° | 84km/h | 14601m | -4.7m/s | -56.1°C | 6.1% | 136.6hPa | 2.5V | 00:00:00 | 00:00:00 | 00:00:00 | |
| DM0DOS-11 | 2026-08-31 01:00:23 | 49.24173 | 10.29222 | 65° | 97km/h | 14620m | -4.6m/s | -56.1°C | 6.3% | 136.2hPa | 2.5V | 07:58:20 | 02:28:27 | 00:00:00 | |
| DF3TZ-5 | 2026-08-31 01:00:22 | 49.24183 | 10.29256 | 61° | 97km/h | 14615m | -4.5m/s | -56.2°C | 2.5% | 136.3hPa | 2.4V | 00:00:00 | 00:00:00 | 00:00:00 | |
| DL6DJ-15 | 2026-08-31 01:00:20 | 49.24163 | 10.29187 | 68° | 95km/h | 14625m | -4.7m/s | -56.0°C | 2.5% | 136.1hPa | 2.4V | 00:00:00 | 00:00:00 | 00:00:00 | |
| DL1NUX | 2026-08-31 01:00:18 | 49.24136 | 10.29053 | 76° | 82km/h | 14645m | -5.3m/s | -55.8°C | 6.1% | 135.6hPa | 2.4V | 07:58:25 | 02:28:22 | 00:00:00 | |
| BIOWL1-15 | 2026-08-31 01:00:14 | 49.24127 | 10.28995 | 77° | 71km/h | 14655m | -5.1m/s | -55.8°C | 2.5% | 135.4hPa | 2.5V | 08:00:35 | 02:28:20 | 00:00:00 | |
| OE3JTB-15 | 2026-08-31 01:00:13 | 49.24127 | 10.28995 | 77° | 64km/h | 14655m | -5.0m/s | 0°C | 0% | 0hPa | 2.4V | 00:00:00 | 02:28:20 | 00:00:00 | |
| DB0NH | 2026-08-31 01:00:10 | 49.24112 | 10.28924 | 65° | 71km/h | 14670m | -4.7m/s | -55.6°C | 6.1% | 135.1hPa | 2.4V | 00:00:00 | 02:28:17 | 00:00:00 | |
| DC4HF-4 | 2026-08-31 01:00:09 | 49.24105 | 10.28904 | 58° | 58km/h | 14675m | -4.8m/s | -55.6°C | 2.4% | 135.0hPa | 2.4V | 00:00:00 | 00:00:00 | 00:00:00 | |
| DL1NUX | 2026-08-31 01:00:08 | 49.24062 | 10.28828 | 45° | 75km/h | 14695m | -5.5m/s | -55.4°C | 5.8% | 134.6hPa | 2.4V | 07:58:35 | 02:28:12 | 00:00:00 | |
| DK7TD | 2026-08-31 01:00:08 | 49.24097 | 10.28885 | 53° | 60km/h | 14680m | -4.9m/s | -55.6°C | 2.4% | 134.9hPa | 2.5V | 07:58:53 | 02:28:15 | 00:00:00 | |
| SO1NDE-10 | 2026-08-31 01:00:07 | 49.24086 | 10.28867 | 49° | 77km/h | 14685m | -5.1m/s | -55.6°C | 6.0% | 134.7hPa | 2.5V | 00:00:00 | 02:28:14 | 00:00:00 | |
| DM0DOS-11 | 2026-08-31 01:00:06 | 49.24034 | 10.28782 | 48° | 88km/h | 14706m | -5.2m/s | -55.2°C | 5.7% | 134.3hPa | 2.4V | 07:58:37 | 02:28:10 | 00:00:00 | |
| HSKMA3-T | 2026-08-31 01:00:05 | 49.24062 | 10.28828 | 46° | 75km/h | 14695m | -5.5m/s | -55.4°C | 2.3% | 134.6hPa | 2.4V | 07:58:53 | 02:28:12 | 00:00:00 | |
| DK7TD | 2026-08-31 00:59:58 | 49.23968 | 10.28629 | 66° | 95km/h | 14731m | -4.6m/s | -55.3°C | 2.1% | 133.9hPa | 2.4V | 07:58:53 | 02:28:05 | 00:00:00 | |
| DL1NUX | 2026-08-31 00:59:58 | 49.23945 | 10.28534 | 73° | 78km/h | 14745m | -4.5m/s | -55°C | 5.6% | 133.6hPa | 2.5V | 07:58:45 | 02:28:02 | 00:00:00 | |
| HSKMA3-T | 2026-08-31 00:59:55 | 49.23945 | 10.28534 | 73° | 78km/h | 14745m | -4.5m/s | -55°C | 2% | 133.6hPa | 2.5V | 07:58:53 | 02:28:02 | 00:00:00 | |
| BIOWL1-15 | 2026-08-31 00:59:54 | 49.23940 | 10.28506 | 73° | 73km/h | 14749m | -4.5m/s | -55°C | 1.9% | 133.5hPa | 2.4V | 08:00:35 | 02:28:01 | 00:00:00 | |
| DF3TZ-5 | 2026-08-31 00:59:51 | 49.23924 | 10.28434 | 67° | 58km/h | 14763m | -4.8m/s | -54.8°C | 2.1% | 133.2hPa | 2.4V | 00:00:00 | 00:00:00 | 00:00:00 | |
| AZAK | 2026-08-31 00:59:50 | 49.23918 | 10.28414 | 65° | 57km/h | 14768m | -4.7m/s | -54.8°C | 2.0% | 133.1hPa | 2.4V | 00:00:00 | 00:00:00 | 00:00:00 | |
| DL1NUX | 2026-08-31 00:59:49 | 49.23874 | 10.28328 | 42° | 62km/h | 14793m | -5m/s | -54.9°C | 5.3% | 132.6hPa | 2.4V | 07:58:55 | 02:27:52 | 00:00:00 | |
| DK7TD | 2026-08-31 00:59:48 | 49.23903 | 10.28378 | 55° | 55km/h | 14778m | -5m/s | -54.9°C | 1.8% | 132.9hPa | 2.4V | 07:58:53 | 02:27:55 | 00:00:00 | |
| HSKMA3-T | 2026-08-31 00:59:44 | 49.23862 | 10.28312 | 40° | 66km/h | 14798m | -4.9m/s | -54.9°C | 1.7% | 132.4hPa | 2.4V | 08:01:26 | 02:27:51 | 00:00:00 | |
| OE3JTB-15 | 2026-08-31 00:59:44 | 49.23862 | 10.28312 | 41° | 80km/h | 14798m | -4.9m/s | 0°C | 0% | 0hPa | 2.4V | 00:00:00 | 00:00:00 | 00:00:00 | |
| DM7RM-13 | 2026-08-31 00:59:42 | 49.23848 | 10.28295 | 40° | 71km/h | 14803m | -4.9m/s | -54.9°C | 2.0% | 132.4hPa | 2.4V | 07:59:00 | 00:00:00 | 00:00:00 | |
| DB0NH | 2026-08-31 00:59:40 | 49.23802 | 10.28237 | 41° | 82km/h | 14818m | -5.1m/s | -54.8°C | 5.1% | 131.9hPa | 2.4V | 00:00:00 | 02:27:47 | 00:00:00 | |
| DB0ND-19 | 2026-08-31 00:59:39 | 49.23752 | 10.28162 | 48° | 95km/h | 14833m | -5.0m/s | -54.9°C | 1.9% | 131.7hPa | 2.4V | 00:00:00 | 00:00:00 | 00:00:00 | |
| DL1NUX | 2026-08-31 00:59:38 | 49.23723 | 10.28103 | 56° | 95km/h | 14843m | -4.8m/s | -54.9°C | 5.1% | 131.5hPa | 2.4V | 07:59:05 | 02:27:42 | 00:00:00 | |
| DK7TD | 2026-08-31 00:59:37 | 49.23752 | 10.28162 | 49° | 97km/h | 14833m | -5m/s | -54.9°C | 1.6% | 131.7hPa | 2.5V | 07:59:44 | 02:27:44 | 00:00:00 | |
| SONCRA | 2026-08-31 00:59:36 | 49.23737 | 10.28133 | 52° | 95km/h | 14838m | -5.0m/s | -54.9°C | 1.9% | 131.6hPa | 2.4V | 00:00:00 | 00:00:00 | 00:00:00 | |
| DO3MHA-11 | 2026-08-31 00:59:35 | 49.23723 | 10.28103 | 57° | 73km/h | 14843m | -4.8m/s | -54.9°C | 5.1% | 131.5hPa | 2.4V | 00:00:00 | 02:27:42 | 00:00:00 | |
| DM0DOS-11 | 2026-08-31 00:59:33 | 49.23678 | 10.27957 | 69° | 69km/h | 14866m | -5m/s | -55°C | 5.1% | 131.1hPa | 2.5V | 07:59:10 | 02:27:37 | 00:00:00 | |
| DF7PN | 2026-08-31 00:59:30 | 49.23678 | 10.27957 | 69° | 69km/h | 14866m | -5.0m/s | -55.1°C | 1.9% | 131.1hPa | 2.5V | 00:00:00 | 00:00:00 | 00:00:00 | |
| DK5PH-5 | 2026-08-31 00:59:29 | 49.23671 | 10.27933 | 69° | 73km/h | 14871m | -5.0m/s | -55.0°C | 5.1% | 130.9hPa | 2.5V | 00:00:00 | 02:27:36 | 00:00:00 | |
| DL1NUX | 2026-08-31 00:59:28 | 49.23642 | 10.27857 | 46° | 57km/h | 14890m | -4.8m/s | -55.3°C | 5.2% | 130.6hPa | 2.5V | 07:59:15 | 02:27:32 | 00:00:00 | |
| HSKMA3-T | 2026-08-31 00:59:27 | 49.23659 | 10.27891 | 60° | 57km/h | 14881m | -4.8m/s | -55.2°C | 1.6% | 130.8hPa | 2.4V | 08:01:26 | 02:27:34 | 00:00:00 | |
| DK7TD | 2026-08-31 00:59:26 | 49.23651 | 10.27873 | 53° | 55km/h | 14886m | -5m/s | -55.2°C | 1.6% | 130.7hPa | 2.4V | 07:59:44 | 02:27:33 | 00:00:00 | |
| DO3MHA-11 | 2026-08-31 00:59:25 | 49.23642 | 10.27857 | 47° | 80km/h | 14891m | -4.7m/s | -55.2°C | 5.2% | 130.5hPa | 2.5V | 00:00:00 | 02:27:32 | 00:00:00 | |
| OE5DXL-15 | 2026-08-31 00:59:24 | 49.23631 | 10.27841 | 42° | 82km/h | 14896m | -4.5m/s | -55.3°C | 5.2% | 130.4hPa | 2.5V | 00:00:00 | 00:00:00 | 00:00:00 | |
| DM0DOS-11 | 2026-08-31 00:59:23 | 49.23572 | 10.27771 | 38° | 86km/h | 14914m | -4.8m/s | -55.5°C | 5.3% | 130.1hPa | 2.4V | 07:59:20 | 02:27:27 | 00:00:00 | |
| NBG1-10 | 2026-08-31 00:59:23 | 49.23618 | 10.27825 | 38° | 84km/h | 14900m | -4.8m/s | -55.3°C | 5.3% | 130.3hPa | 2.4V | 00:00:00 | 02:27:30 | 00:00:00 | |
| OE5DRO-10 | 2026-08-31 00:59:22 | 49.23604 | 10.27809 | 38° | 77km/h | 14905m | -4.7m/s | -55.3°C | 5.3% | 130.2hPa | 2.4V | 07:59:00 | 00:00:00 | 00:00:00 | |
| DM7RM-13 | 2026-08-31 00:59:21 | 49.23604 | 10.27808 | 38° | 73km/h | 14905m | -4.7m/s | -55.4°C | 2.0% | 130.3hPa | 2.4V | 07:59:00 | 00:00:00 | 00:00:00 | |
| DF3TZ-5 | 2026-08-31 00:59:20 | 49.23572 | 10.27771 | 38° | 84km/h | 14914m | -4.8m/s | -55.5°C | 1.9% | 130.1hPa | 2.4V | 00:00:00 | 00:00:00 | 00:00:00 | |
| DL1NUX | 2026-08-31 00:59:18 | 49.23489 | 10.27641 | 53° | 99km/h | 14939m | -4.7m/s | -55.6°C | 5.3% | 129.6hPa | 2.4V | 07:59:25 | 02:27:22 | 00:00:00 | |
| DK7TD | 2026-08-31 00:59:16 | 49.23504 | 10.27671 | 50° | 99km/h | 14934m | -4.9m/s | -55.6°C | 1.6% | 129.7hPa | 2.4V | 07:59:44 | 02:27:23 | 00:00:00 | |
| BIOWL1-15 | 2026-08-31 00:59:15 | 49.23489 | 10.27641 | 54° | 99km/h | 14939m | -4.7m/s | -55.6°C | 1.6% | 129.6hPa | 2.4V | 08:00:35 | 02:27:22 | 00:00:00 | |
| DJ8HS-15 | 2026-08-31 00:59:15 | 49.23489 | 10.27641 | 54° | 80km/h | 14939m | -4.7m/s | -55.5°C | 5.3% | 129.5hPa | 2.5V | 00:00:00 | 02:27:22 | 00:00:00 | |
| DL1NUX | 2026-08-31 00:59:10 | 49.23404 | 10.27350 | 66° | 60km/h | 14989m | -5.5m/s | -55.8°C | 5.4% | 128.5hPa | 2.5V | 07:59:35 | 02:27:12 | 00:00:00 | |
| HSKMA3-T | 2026-08-31 00:59:06 | 49.23410 | 10.27372 | 71° | 64km/h | 14984m | -5.4m/s | -55.8°C | 1.6% | 128.6hPa | 2.5V | 08:01:26 | 02:27:13 | 00:00:00 | |
| DK7TD | 2026-08-31 00:59:05 | 49.23404 | 10.27350 | 67° | 60km/h | 14989m | -5.5m/s | -55.8°C | 1.7% | 128.5hPa | 2.5V | 07:59:44 | 02:27:12 | 00:00:00 | |
| BIOWL1-15 | 2026-08-31 00:59:03 | 49.23389 | 10.27311 | 53° | 58km/h | 15000m | -4.7m/s | -55.9°C | 1.6% | 128.3hPa | 2.4V | 08:00:35 | 02:27:10 | 00:00:00 | |
| OE5DRO-10 | 2026-08-31 00:59:01 | 49.23367 | 10.27276 | 42° | 73km/h | 15008m | -4.0m/s | -55.9°C | 5.3% | 128.1hPa | 2.4V | 00:00:00 | 00:00:00 | 00:00:00 | |
| DO9HM | 2026-08-31 00:58:58 | 49.23322 | 10.27216 | 43° | 89km/h | 15021m | -5.0m/s | -56.0°C | 2.0% | 127.9hPa | 2.4V | 07:59:00 | 00:00:00 | 00:00:00 | |
| DL1NUX | 2026-08-31 00:58:57 | 49.23273 | 10.27136 | 52° | 97km/h | 15036m | -5m/s | -55.9°C | 5.4% | 127.6hPa | 2.4V | 07:59:45 | 02:27:02 | 00:00:00 | |
| HSKMA3-T | 2026-08-31 00:58:55 | 49.23273 | 10.27136 | 53° | 97km/h | 15036m | -5m/s | -55.9°C | 1.7% | 127.6hPa | 2.4V | 08:01:26 | 02:27:02 | 00:00:00 | |
| DK7TD | 2026-08-31 00:58:54 | 49.23259 | 10.27106 | 57° | 97km/h | 15041m | -4.5m/s | -55.9°C | 1.7% | 127.5hPa | 2.6V | 08:00:35 | 02:27:01 | 00:00:00 | |
| OE5DXL-15 | 2026-08-31 00:58:54 | 49.23259 | 10.27106 | 58° | 71km/h | 15041m | -4.5m/s | -55.8°C | 5.5% | 127.4hPa | 2.4V | 00:00:00 | 00:00:00 | 00:00:00 | |
| DL1NUX | 2026-08-31 00:58:50 | 49.23191 | 10.26858 | 66° | 58km/h | 15080m | -4.5m/s | -55.7°C | 5.6% | 126.7hPa | 2.4V | 07:59:55 | 02:26:52 | 00:00:00 | |
| BIOWL1-15 | 2026-08-31 00:58:47 | 49.23203 | 10.26903 | 70° | 66km/h | 15071m | -4.7m/s | -55.8°C | 1.9% | 126.9hPa | 2.5V | 08:00:35 | 02:26:54 | 00:00:00 | |
| DL6DJ-15 | 2026-08-31 00:58:47 | 49.23197 | 10.26880 | 68° | 60km/h | 15076m | -4.7m/s | -55.8°C | 2.1% | 126.8hPa | 2.5V | 00:00:00 | 00:00:00 | 00:00:00 | |
| DO3MHA-11 | 2026-08-31 00:58:45 | 49.23191 | 10.26858 | 67° | 53km/h | 15081m | -4.5m/s | -55.6°C | 5.6% | 126.7hPa | 2.5V | 00:00:00 | 02:26:52 | 00:00:00 | |
| DM0DOS-11 | 2026-08-31 00:58:43 | 49.23165 | 10.26786 | 53° | 49km/h | 15099m | -5.3m/s | -55.5°C | 5.4% | 126.3hPa | 2.5V | 07:59:59 | 02:26:48 | 00:00:00 | |
| DK7TD | 2026-08-31 00:58:43 | 49.23179 | 10.26820 | 61° | 53km/h | 15089m | -4.7m/s | -55.7°C | 1.8% | 126.5hPa | 2.4V | 08:00:35 | 02:26:50 | 00:00:00 | |
| OE5DRO-10 | 2026-08-31 00:58:42 | 49.23172 | 10.26802 | 58° | 68km/h | 15095m | -4.9m/s | -55.6°C | 5.5% | 126.4hPa | 2.5V | 00:00:00 | 00:00:00 | 00:00:00 | |
| AZAK | 2026-08-31 00:58:41 | 49.23165 | 10.26786 | 55° | 49km/h | 15100m | -5.3m/s | -55.5°C | 2.0% | 126.3hPa | 2.5V | 00:00:00 | 00:00:00 | 00:00:00 | |
| DB0NH | 2026-08-31 00:58:40 | 49.23157 | 10.26771 | 49° | 66km/h | 15105m | -5.4m/s | -55.4°C | 5.4% | 126.2hPa | 2.5V | 00:00:00 | 02:26:47 | 00:00:00 | |
| OE3JTB-15 | 2026-08-31 00:58:38 | 49.23139 | 10.26745 | 39° | 78km/h | 15116m | -5.6m/s | 0°C | 0% | 0hPa | 2.5V | 00:00:00 | 02:26:45 | 00:00:00 | |
| DL1NUX | 2026-08-31 00:58:37 | 49.23102 | 10.26706 | 32° | 69km/h | 15132m | -5.2m/s | -55.4°C | 5.5% | 125.7hPa | 2.5V | 08:00:05 | 02:26:42 | 00:00:00 | |
| SO1NDE-10 | 2026-08-31 00:58:37 | 49.23128 | 10.26733 | 36° | 69km/h | 15122m | -5.4m/s | -55.3°C | 5.4% | 125.8hPa | 2.4V | 08:00:00 | 02:26:44 | 00:00:00 | |
| DF1GD-15 | 2026-08-31 00:58:36 | 49.23128 | 10.26733 | 36° | 57km/h | 15122m | -5.4m/s | -55.4°C | 2.1% | 125.9hPa | 2.5V | 08:00:00 | 00:00:00 | 00:00:00 | |
| DJ8HS-15 | 2026-08-31 00:58:35 | 49.23102 | 10.26706 | 33° | 66km/h | 15132m | -5.2m/s | -55.4°C | 5.5% | 125.6hPa | 2.5V | 00:00:00 | 02:26:42 | 00:00:00 | |
| SONCRA | 2026-08-31 00:58:34 | 49.23071 | 10.26673 | 37° | 80km/h | 15142m | -4.9m/s | -55.3°C | 2.1% | 125.5hPa | 2.4V | 00:00:00 | 00:00:00 | 00:00:00 | |
| DM0DOS-11 | 2026-08-31 00:58:33 | 49.23024 | 10.26604 | 50° | 89km/h | 15156m | -4.8m/s | -55.4°C | 5.6% | 125.2hPa | 2.4V | 08:00:10 | 02:26:37 | 00:00:00 | |
| DK7TD | 2026-08-31 00:58:32 | 49.23055 | 10.26652 | 42° | 86km/h | 15147m | -4.8m/s | -55.3°C | 1.9% | 125.4hPa | 2.4V | 08:00:35 | 02:26:39 | 00:00:00 | |
| DL1NUX | 2026-08-31 00:58:30 | 49.22974 | 10.26473 | 66° | 64km/h | 15180m | -4.6m/s | -55.1°C | 5.5% | 124.8hPa | 2.4V | 08:00:15 | 02:26:32 | 00:00:00 | |
| BIOWL1-15 | 2026-08-31 00:58:26 | 49.22981 | 10.26496 | 65° | 71km/h | 15175m | -4.8m/s | -55.2°C | 1.9% | 124.9hPa | 2.4V | 08:00:35 | 02:26:33 | 00:00:00 | |
| DO3MHA-11 | 2026-08-31 00:58:25 | 49.22974 | 10.26473 | 67° | 51km/h | 15180m | -4.5m/s | -55.1°C | 5.5% | 124.7hPa | 2.4V | 00:00:00 | 02:26:32 | 00:00:00 | |
| OE5DXL-15 | 2026-08-31 00:58:24 | 49.22968 | 10.26451 | 66° | 69km/h | 15185m | -4.5m/s | -55.1°C | 5.5% | 124.6hPa | 2.4V | 00:00:00 | 00:00:00 | 00:00:00 | |
| DM0DOS-11 | 2026-08-31 00:58:23 | 49.22942 | 10.26389 | 44° | 44km/h | 15203m | -4.9m/s | -55.2°C | 5.6% | 124.3hPa | 2.4V | 08:00:20 | 02:26:27 | 00:00:00 | |
| DK7TD | 2026-08-31 00:58:21 | 49.22949 | 10.26402 | 52° | 44km/h | 15199m | -4.5m/s | -55.2°C | 2% | 124.4hPa | 2.4V | 08:00:35 | 02:26:28 | 00:00:00 | |
| DB0UT-7 | 2026-08-31 00:58:19 | 49.22933 | 10.26377 | 38° | 80km/h | 15209m | -4.7m/s | -55.2°C | 5.6% | 124.2hPa | 2.4V | 00:00:00 | 02:26:26 | 00:00:00 | |
| DF3TZ-5 | 2026-08-31 00:58:18 | 49.22923 | 10.26367 | 32° | 47km/h | 15213m | -4.9m/s | -55.2°C | 2.2% | 124.2hPa | 2.4V | 00:00:00 | 00:00:00 | 00:00:00 | |
| DL1NUX | 2026-08-31 00:58:17 | 49.22886 | 10.26337 | 26° | 62km/h | 15228m | -4.8m/s | -55.2°C | 5.6% | 123.8hPa | 2.4V | 08:00:25 | 02:26:22 | 00:00:00 | |
| HSKMA3-T | 2026-08-31 00:58:16 | 49.22900 | 10.26347 | 27° | 57km/h | 15223m | -4.9m/s | -55.2°C | 2% | 123.9hPa | 2.5V | 08:01:26 | 02:26:23 | 00:00:00 | |
| BIOWL1-15 | 2026-08-31 00:58:15 | 49.22886 | 10.26337 | 27° | 62km/h | 15228m | -4.8m/s | -55.2°C | 2% | 123.8hPa | 2.4V | 08:00:35 | 02:26:22 | 00:00:00 | |
| DO3MHA-11 | 2026-08-31 00:58:15 | 49.22886 | 10.26337 | 27° | 80km/h | 15228m | -4.8m/s | -55.1°C | 5.6% | 123.7hPa | 2.4V | 00:00:00 | 02:26:22 | 00:00:00 | |
| DM0DOS-11 | 2026-08-31 00:58:13 | 49.22770 | 10.26227 | 36° | 89km/h | 15261m | -5.2m/s | -55.3°C | 5.6% | 123.2hPa | 2.4V | 08:00:32 | 02:26:15 | 00:00:00 | |
| DK7TD | 2026-08-31 00:58:10 | 49.22806 | 10.26265 | 34° | 84km/h | 15251m | -4.9m/s | -55.3°C | 2.1% | 123.3hPa | 2.5V | 08:00:35 | 02:26:17 | 00:00:00 | |
| DL1NUX | 2026-08-31 00:58:10 | 49.22717 | 10.26159 | 44° | 91km/h | 15277m | -5.1m/s | -55.4°C | 5.6% | 122.8hPa | 2.5V | 08:00:35 | 02:26:12 | 00:00:00 | |
| HSKMA3-T | 2026-08-31 00:58:06 | 49.22734 | 10.26183 | 41° | 91km/h | 15272m | -5.5m/s | -55.4°C | 2% | 123hPa | 2.4V | 08:01:26 | 02:26:13 | 00:00:00 | |
| BIOWL1-15 | 2026-08-31 00:58:04 | 49.22672 | 10.26080 | 54° | 86km/h | 15292m | -4.7m/s | -55.3°C | 1.9% | 122.6hPa | 2.4V | 08:01:26 | 02:26:09 | 00:00:00 | |
| OE5DRO-10 | 2026-08-31 00:58:04 | 49.22701 | 10.26133 | 48° | 73km/h | 15283m | -5.0m/s | -55.3°C | 5.6% | 122.7hPa | 2.5V | 00:00:00 | 00:00:00 | 00:00:00 | |
| DM0DOS-11 | 2026-08-31 00:58:03 | 49.22633 | 10.25979 | 61° | 66km/h | 15312m | -4.9m/s | -55.2°C | 5.5% | 122.2hPa | 2.5V | 08:00:42 | 02:26:05 | 00:00:00 | |
| DK7TD | 2026-08-31 00:58:00 | 49.22650 | 10.26027 | 60° | 77km/h | 15302m | -4.6m/s | -55.3°C | 1.9% | 122.4hPa | 2.4V | 08:01:26 | 02:26:07 | 00:00:00 | |
| BIOWL1-15 | 2026-08-31 00:57:54 | 49.22599 | 10.25909 | 41° | 53km/h | 15331m | -4.7m/s | -54.9°C | 1.9% | 121.9hPa | 2.4V | 08:01:26 | 02:26:01 | 00:00:00 | |
| DK7TD | 2026-08-31 00:57:50 | 49.22546 | 10.25860 | 27° | 71km/h | 15350m | -5m/s | -54.9°C | 1.9% | 121.5hPa | 2.4V | 08:01:26 | 02:25:57 | 00:00:00 | |
| DL1NUX | 2026-08-31 00:57:47 | 49.22455 | 10.25777 | 37° | 95km/h | 15375m | -4.8m/s | -55.1°C | 5.4% | 121hPa | 2.5V | 08:00:55 | 02:25:52 | 00:00:00 | |
| EDDB2-12 | 2026-08-31 00:57:45 | 49.22455 | 10.25777 | 37° | 93km/h | 15375m | -4.8m/s | -55.1°C | 2.1% | 121.0hPa | 2.4V | 00:00:00 | 00:00:00 | 00:00:00 | |
| DL6DJ-15 | 2026-08-31 00:57:44 | 49.22436 | 10.25754 | 41° | 95km/h | 15380m | -4.8m/s | -55.1°C | 2.0% | 121.0hPa | 2.4V | 00:00:00 | 00:00:00 | 00:00:00 | |
| BIOWL1-15 | 2026-08-31 00:57:43 | 49.22386 | 10.25673 | 52° | 97km/h | 15393m | -4.7m/s | -55.1°C | 1.8% | 120.7hPa | 2.4V | 08:01:26 | 02:25:48 | 00:00:00 | |
| DM0DOS-11 | 2026-08-31 00:57:43 | 49.22348 | 10.25583 | 60° | 88km/h | 15409m | -5.5m/s | -55.1°C | 5.3% | 120.3hPa | 2.4V | 08:01:02 | 02:25:45 | 00:00:00 | |
| DK7TD | 2026-08-31 00:57:39 | 49.22359 | 10.25613 | 58° | 91km/h | 15403m | -5.2m/s | -55.1°C | 1.8% | 120.5hPa | 2.5V | 08:01:26 | 02:25:46 | 00:00:00 | |
| BIOWL1-15 | 2026-08-31 00:57:34 | 49.22296 | 10.25434 | 53° | 57km/h | 15440m | -4.7m/s | -55.3°C | 1.9% | 119.8hPa | 2.4V | 08:01:26 | 02:25:39 | 00:00:00 | |
| SONDE2-11 | 2026-08-31 00:57:34 | 49.22304 | 10.25453 | 59° | 60km/h | 15435m | -4.8m/s | -55.3°C | 2.0% | 119.9hPa | 2.5V | 00:00:00 | 00:00:00 | 00:00:00 | |
| AM1SDL-15 | 2026-08-31 00:57:33 | 49.22296 | 10.25434 | 54° | 71km/h | 15440m | -4.6m/s | 0°C | 0% | 0hPa | 2.5V | 00:00:00 | 02:25:39 | 00:00:00 | |
| DM0DOS-11 | 2026-08-31 00:57:32 | 49.22250 | 10.25374 | 32° | 69km/h | 15458m | -4.7m/s | -55.3°C | 5.5% | 119.5hPa | 2.5V | 08:01:12 | 02:25:35 | 00:00:00 | |
| DK7TD | 2026-08-31 00:57:28 | 49.22250 | 10.25374 | 32° | 69km/h | 15458m | -4.7m/s | -55.3°C | 1.9% | 119.5hPa | 2.5V | 08:01:26 | 02:25:35 | 00:00:00 | |
| DF7PN | 2026-08-31 00:57:26 | 49.22217 | 10.25343 | 33° | 82km/h | 15468m | -4.7m/s | -55.3°C | 2.0% | 119.3hPa | 2.4V | 00:00:00 | 00:00:00 | 00:00:00 | |
| DO3MHA-11 | 2026-08-31 00:57:25 | 49.22199 | 10.25324 | 36° | 97km/h | 15473m | -4.6m/s | -55.3°C | 5.5% | 119.2hPa | 2.4V | 00:00:00 | 02:25:32 | 00:00:00 | |
| OE5DXL-15 | 2026-08-31 00:57:24 | 49.22181 | 10.25303 | 39° | 82km/h | 15477m | -4.5m/s | -55.3°C | 5.5% | 119.0hPa | 2.4V | 00:00:00 | 00:00:00 | 00:00:00 | |
| DM0DOS-11 | 2026-08-31 00:57:22 | 49.22081 | 10.25134 | 56° | 99km/h | 15504m | -4.9m/s | -55.4°C | 5.4% | 118.6hPa | 2.4V | 08:01:22 | 02:25:25 | 00:00:00 | |
| BIOWL1-15 | 2026-08-31 00:57:21 | 49.22045 | 10.25038 | 64° | 91km/h | 15519m | -5m/s | -55.5°C | 1.9% | 118.3hPa | 2.5V | 08:01:26 | 02:25:22 | 00:00:00 | |
| HSKMA3-T | 2026-08-31 00:57:19 | 49.22095 | 10.25166 | 54° | 100km/h | 15500m | -4.5m/s | -55.4°C | 1.9% | 118.7hPa | 2.4V | 08:01:26 | 02:25:26 | 00:00:00 | |
| DK7TD | 2026-08-31 00:57:18 | 49.22081 | 10.25134 | 57° | 99km/h | 15504m | -4.9m/s | -55.4°C | 1.9% | 118.6hPa | 2.4V | 08:01:26 | 02:25:25 | 00:00:00 | |
| DL1NUX | 2026-08-31 00:57:17 | 49.22045 | 10.25038 | 64° | 91km/h | 15519m | -5m/s | -55.5°C | 5.4% | 118.3hPa | 2.5V | 08:01:25 | 02:25:22 | 00:00:00 | |
| DM7RM-13 | 2026-08-31 00:57:16 | 49.22067 | 10.25102 | 60° | 97km/h | 15509m | -4.8m/s | -55.5°C | 2.0% | 118.5hPa | 2.5V | 08:01:00 | 00:00:00 | 00:00:00 | |
| EDDB2-12 | 2026-08-31 00:57:14 | 49.22035 | 10.25007 | 66° | 88km/h | 15524m | -5.2m/s | -55.6°C | 2.0% | 118.2hPa | 2.5V | 00:00:00 | 00:00:00 | 00:00:00 | |
| DL6DJ-15 | 2026-08-31 00:57:13 | 49.22019 | 10.24947 | 69° | 77km/h | 15535m | -5.3m/s | -55.7°C | 2.0% | 118.0hPa | 2.5V | 00:00:00 | 00:00:00 | 00:00:00 | |
| DM0DOS-11 | 2026-08-31 00:57:12 | 49.21994 | 10.24851 | 61° | 57km/h | 15556m | -5.2m/s | -55.8°C | 5.4% | 117.6hPa | 2.5V | 08:01:32 | 02:25:15 | 00:00:00 | |
| HSKMA3-T | 2026-08-31 00:57:09 | 49.22000 | 10.24872 | 66° | 62km/h | 15551m | -5.4m/s | -55.8°C | 1.8% | 117.7hPa | 2.5V | 08:07:23 | 02:25:16 | 00:00:00 | |
| DL1NUX | 2026-08-31 00:57:07 | 49.21966 | 10.24800 | 42° | 64km/h | 15571m | -4.8m/s | -55.8°C | 5.5% | 117.3hPa | 2.4V | 08:01:35 | 02:25:12 | 00:00:00 | |
| DK7TD | 2026-08-31 00:57:07 | 49.21986 | 10.24833 | 54° | 57km/h | 15561m | -5.1m/s | -55.8°C | 1.9% | 117.5hPa | 2.4V | 08:02:17 | 02:25:14 | 00:00:00 | |
| SO1NDE-10 | 2026-08-31 00:57:07 | 49.21986 | 10.24833 | 55° | 80km/h | 15562m | -5.0m/s | -55.7°C | 5.4% | 117.5hPa | 2.4V | 00:00:00 | 02:25:14 | 00:00:00 | |
| DO3MHA-11 | 2026-08-31 00:57:05 | 49.21966 | 10.24799 | 43° | 88km/h | 15572m | -4.8m/s | -55.7°C | 5.5% | 117.3hPa | 2.4V | 00:00:00 | 02:25:12 | 00:00:00 | |
| SONDE2-11 | 2026-08-31 00:57:03 | 49.21923 | 10.24744 | 41° | 84km/h | 15586m | -4.9m/s | -55.8°C | 2.1% | 117.1hPa | 2.4V | 00:00:00 | 00:00:00 | 00:00:00 | |
| DM0DOS-11 | 2026-08-31 00:57:01 | 49.21859 | 10.24638 | 53° | 100km/h | 15605m | -4.9m/s | -55.9°C | 5.5% | 116.7hPa | 2.4V | 08:01:42 | 02:25:05 | 00:00:00 | |
| SONCRA | 2026-08-31 00:57:01 | 49.21891 | 10.24696 | 46° | 95km/h | 15595m | -4.9m/s | -55.8°C | 2.0% | 116.9hPa | 2.4V | 00:00:00 | 00:00:00 | 00:00:00 | |
| DK5PH-5 | 2026-08-31 00:56:59 | 49.21874 | 10.24668 | 50° | 89km/h | 15601m | -4.9m/s | -55.8°C | 5.5% | 116.8hPa | 2.4V | 00:00:00 | 02:25:06 | 00:00:00 | |
| DL1NUX | 2026-08-31 00:56:57 | 49.21818 | 10.24538 | 62° | 100km/h | 15620m | -5m/s | -55.9°C | 5.5% | 116.5hPa | 2.4V | 08:01:45 | 02:25:02 | 00:00:00 | |
| DK7TD | 2026-08-31 00:56:57 | 49.21844 | 10.24606 | 56° | 102km/h | 15610m | -5m/s | -55.9°C | 1.9% | 116.7hPa | 2.5V | 08:02:17 | 02:25:04 | 00:00:00 | |
| DO3MHA-11 | 2026-08-31 00:56:55 | 49.21818 | 10.24538 | 63° | 84km/h | 15621m | -5.0m/s | -55.9°C | 5.5% | 116.4hPa | 2.4V | 00:00:00 | 02:25:02 | 00:00:00 | |
| DM0DOS-11 | 2026-08-31 00:56:53 | 49.21766 | 10.24283 | 77° | 66km/h | 15662m | -5.5m/s | -56.2°C | 5.5% | 115.7hPa | 2.4V | 08:01:53 | 02:24:54 | 00:00:00 | |
| BIOWL1-15 | 2026-08-31 00:56:48 | 49.21766 | 10.24283 | 77° | 66km/h | 15662m | -5.5m/s | -56.2°C | 1.9% | 115.7hPa | 2.4V | 08:03:08 | 02:24:54 | 00:00:00 | |
| DL1NUX | 2026-08-31 00:56:47 | 49.21757 | 10.24237 | 66° | 58km/h | 15673m | -5.2m/s | -56.2°C | 5.5% | 115.5hPa | 2.5V | 08:01:55 | 02:24:52 | 00:00:00 | |
| DK7TD | 2026-08-31 00:56:46 | 49.21762 | 10.24259 | 73° | 60km/h | 15668m | -5.3m/s | -56.2°C | 1.8% | 115.6hPa | 2.4V | 08:02:17 | 02:24:53 | 00:00:00 | |
| DO3MHA-11 | 2026-08-31 00:56:45 | 49.21757 | 10.24237 | 67° | 80km/h | 15673m | -5.2m/s | -56.2°C | 5.5% | 115.4hPa | 2.4V | 00:00:00 | 02:24:52 | 00:00:00 | |
| EDDB2-12 | 2026-08-31 00:56:43 | 49.21732 | 10.24178 | 49° | 68km/h | 15688m | -4.8m/s | -56.3°C | 2.0% | 115.2hPa | 2.4V | 00:00:00 | 00:00:00 | 00:00:00 | |
| DM0DOS-11 | 2026-08-31 00:56:42 | 49.21664 | 10.24047 | 56° | 100km/h | 15712m | -4.9m/s | -56.4°C | 5.7% | 114.8hPa | 2.4V | 08:02:03 | 02:24:44 | 00:00:00 | |
| HSKMA3-T | 2026-08-31 00:56:38 | 49.21678 | 10.24078 | 54° | 97km/h | 15707m | -4.9m/s | -56.4°C | 1.9% | 114.9hPa | 2.5V | 08:07:23 | 02:24:45 | 00:00:00 | |
| BIOWL1-15 | 2026-08-31 00:56:36 | 49.21638 | 10.23979 | 63° | 104km/h | 15722m | -5.3m/s | -56.5°C | 1.9% | 114.6hPa | 2.4V | 08:03:08 | 02:24:42 | 00:00:00 | |
| DL1NUX | 2026-08-31 00:56:36 | 49.21638 | 10.23979 | 62° | 104km/h | 15722m | -5.3m/s | -56.5°C | 5.6% | 114.6hPa | 2.4V | 08:02:05 | 02:24:42 | 00:00:00 | |
| DK7TD | 2026-08-31 00:56:36 | 49.21650 | 10.24014 | 60° | 102km/h | 15717m | -5m/s | -56.5°C | 1.9% | 114.7hPa | 2.4V | 08:02:17 | 02:24:43 | 00:00:00 | |
| DM7RM-13 | 2026-08-31 00:56:35 | 49.21638 | 10.23979 | 64° | 104km/h | 15722m | -5.3m/s | -56.5°C | 2.1% | 114.6hPa | 2.6V | 08:02:00 | 00:00:00 | 00:00:00 | |
| DO9HM | 2026-08-31 00:56:33 | 49.21616 | 10.23904 | 70° | 106km/h | 15733m | -5.2m/s | -56.6°C | 2.0% | 114.4hPa | 2.6V | 08:02:00 | 00:00:00 | 00:00:00 | |
| DM0DOS-11 | 2026-08-31 00:56:32 | 49.21581 | 10.23677 | 84° | 91km/h | 15766m | -5.8m/s | -56.7°C | 5.5% | 113.8hPa | 2.6V | 08:02:13 | 02:24:34 | 00:00:00 | |
| SONDE2-11 | 2026-08-31 00:56:32 | 49.21599 | 10.23827 | 74° | 104km/h | 15744m | -5.4m/s | -56.6°C | 1.9% | 114.2hPa | 2.4V | 00:00:00 | 00:00:00 | 00:00:00 | |
| DL1NUX | 2026-08-31 00:56:31 | 49.21577 | 10.23612 | 85° | 78km/h | 15777m | -5.5m/s | -56.7°C | 5.5% | 113.6hPa | 2.4V | 08:02:15 | 02:24:32 | 00:00:00 | |
| HSKMA3-T | 2026-08-31 00:56:28 | 49.21584 | 10.23713 | 83° | 95km/h | 15760m | -5.6m/s | -56.7°C | 1.8% | 113.9hPa | 2.4V | 08:07:23 | 02:24:35 | 00:00:00 | |
| DK7TD | 2026-08-31 00:56:26 | 49.21579 | 10.23643 | 86° | 84km/h | 15772m | -5.8m/s | -56.7°C | 1.8% | 113.7hPa | 2.5V | 08:02:17 | 02:24:33 | 00:00:00 | |
| BIOWL1-15 | 2026-08-31 00:56:24 | 49.21576 | 10.23583 | 83° | 71km/h | 15783m | -5.3m/s | -56.7°C | 1.7% | 113.5hPa | 2.4V | 08:03:08 | 02:24:31 | 00:00:00 | |
| DF7PN | 2026-08-31 00:56:24 | 49.21573 | 10.23556 | 77° | 66km/h | 15788m | -5.0m/s | -56.7°C | 1.9% | 113.4hPa | 2.4V | 00:00:00 | 00:00:00 | 00:00:00 | |
| DM0DOS-11 | 2026-08-31 00:56:22 | 49.21522 | 10.23404 | 58° | 91km/h | 15817m | -5.3m/s | -56.9°C | 5.6% | 112.9hPa | 2.4V | 08:02:23 | 02:24:24 | 00:00:00 | |
| DK7TD | 2026-08-31 00:56:16 | 49.21509 | 10.23373 | 60° | 99km/h | 15823m | -5.2m/s | -56.9°C | 1.7% | 112.8hPa | 2.4V | 08:03:08 | 02:24:23 | 00:00:00 | |
| DO3MHA-11 | 2026-08-31 00:56:15 | 49.21497 | 10.23339 | 63° | 111km/h | 15828m | -5.0m/s | -56.9°C | 5.6% | 112.7hPa | 2.4V | 00:00:00 | 02:24:22 | 00:00:00 | |
| DF3TZ-5 | 2026-08-31 00:56:14 | 49.21485 | 10.23302 | 65° | 108km/h | 15833m | -5.1m/s | -56.9°C | 1.9% | 112.6hPa | 2.4V | 00:00:00 | 00:00:00 | 00:00:00 | |
| DF9NV-10 | 2026-08-31 00:56:13 | 49.21486 | 10.23302 | 66° | 108km/h | 15833m | -5.1m/s | -56.9°C | 1.9% | 112.6hPa | 2.4V | 08:03:00 | 00:00:00 | 00:00:00 | |
| EDDB2-12 | 2026-08-31 00:56:12 | 49.21455 | 10.23180 | 73° | 115km/h | 15849m | -5.5m/s | -57.0°C | 1.9% | 112.3hPa | 2.4V | 00:00:00 | 00:00:00 | 00:00:00 | |
| DL6DJ-15 | 2026-08-31 00:56:11 | 49.21448 | 10.23136 | 76° | 117km/h | 15854m | -5.8m/s | -57.0°C | 1.9% | 112.2hPa | 2.4V | 00:00:00 | 00:00:00 | 00:00:00 | |
| DL1NUX | 2026-08-31 00:56:10 | 49.21431 | 10.22924 | 89° | 99km/h | 15883m | -5.3m/s | -57.1°C | 5.6% | 111.7hPa | 2.4V | 08:02:35 | 02:24:12 | 00:00:00 | |
| DM0DOS-11 | 2026-08-31 00:56:10 | 49.21430 | 10.22855 | 88° | 82km/h | 15893m | -4.9m/s | -57.1°C | 5.5% | 111.5hPa | 2.5V | 08:02:37 | 02:24:10 | 00:00:00 | |
| DK7TD | 2026-08-31 00:56:06 | 49.21431 | 10.22924 | 89° | 99km/h | 15883m | -5.3m/s | -57.1°C | 1.6% | 111.7hPa | 2.4V | 08:03:08 | 02:24:12 | 00:00:00 | |
| BIOWL1-15 | 2026-08-31 00:56:00 | 49.21417 | 10.22743 | 68° | 73km/h | 15914m | -5.4m/s | -57.1°C | 1.5% | 111.2hPa | 2.4V | 08:03:08 | 02:24:06 | 00:00:00 | |
| SONCRA | 2026-08-31 00:55:59 | 49.21409 | 10.22717 | 64° | 77km/h | 15920m | -5.3m/s | -57.1°C | 1.8% | 111.1hPa | 2.4V | 00:00:00 | 00:00:00 | 00:00:00 | |
| DM0DOS-11 | 2026-08-31 00:55:58 | 49.21367 | 10.22592 | 64° | 104km/h | 15940m | -5.1m/s | -57°C | 5.6% | 110.7hPa | 2.4V | 08:02:46 | 02:24:01 | 00:00:00 | |
| DC4HF-4 | 2026-08-31 00:55:57 | 49.21389 | 10.22659 | 61° | 89km/h | 15930m | -5.3m/s | -57.1°C | 1.8% | 110.9hPa | 2.4V | 00:00:00 | 00:00:00 | 00:00:00 | |
| DL1NUX | 2026-08-31 00:55:56 | 49.21378 | 10.22627 | 62° | 99km/h | 15936m | -5m/s | -57°C | 5.5% | 110.8hPa | 2.4V | 08:02:45 | 02:24:02 | 00:00:00 | |
| DK7TD | 2026-08-31 00:55:54 | 49.21367 | 10.22592 | 65° | 104km/h | 15940m | -5.1m/s | -57°C | 1.5% | 110.7hPa | 2.4V | 08:03:08 | 02:24:01 | 00:00:00 | |
| DF7PN | 2026-08-31 00:55:53 | 49.21346 | 10.22515 | 72° | 110km/h | 15950m | -5.0m/s | -57.1°C | 1.8% | 110.6hPa | 2.6V | 00:00:00 | 00:00:00 | 00:00:00 | |
| DL1ZP-14 | 2026-08-31 00:55:51 | 49.21339 | 10.22474 | 76° | 108km/h | 15955m | -4.8m/s | -57.2°C | 1.8% | 110.5hPa | 2.6V | 00:00:00 | 00:00:00 | 00:00:00 | |
| DL1NUX | 2026-08-31 00:55:50 | 49.21324 | 10.22246 | 90° | 89km/h | 15983m | -5m/s | -56.6°C | 5.4% | 110hPa | 2.5V | 08:02:55 | 02:23:52 | 00:00:00 | |
| DM0DOS-11 | 2026-08-31 00:55:49 | 49.21324 | 10.22212 | 90° | 86km/h | 15988m | -5m/s | -56.5°C | 5.4% | 109.9hPa | 2.5V | 08:02:56 | 02:23:51 | 00:00:00 | |
| BIOWL1-15 | 2026-08-31 00:55:47 | 49.21325 | 10.22317 | 88° | 95km/h | 15974m | -4.7m/s | -56.7°C | 1.4% | 110.2hPa | 2.4V | 08:03:08 | 02:23:54 | 00:00:00 | |
| DK7TD | 2026-08-31 00:55:44 | 49.21324 | 10.22212 | 91° | 88km/h | 15988m | -5.1m/s | -56.6°C | 1.4% | 109.9hPa | 2.5V | 08:03:08 | 02:23:51 | 00:00:00 | |
| HSKMA3-T | 2026-08-31 00:55:43 | 49.21325 | 10.22179 | 92° | 84km/h | 15993m | -5.2m/s | -56.5°C | 1.3% | 109.8hPa | 2.4V | 08:07:23 | 02:23:50 | 00:00:00 | |
| DF3TZ-5 | 2026-08-31 00:55:43 | 49.21326 | 10.22148 | 92° | 78km/h | 15999m | -5.4m/s | -56.5°C | 1.7% | 109.7hPa | 2.4V | 00:00:00 | 00:00:00 | 00:00:00 | |
| EDDB2-12 | 2026-08-31 00:55:41 | 49.21328 | 10.22090 | 93° | 71km/h | 16010m | -5.6m/s | -56.4°C | 1.6% | 109.5hPa | 2.4V | 00:00:00 | 00:00:00 | 00:00:00 | |
| DL6DJ-15 | 2026-08-31 00:55:40 | 49.21329 | 10.22063 | 93° | 66km/h | 16015m | -5.6m/s | -56.4°C | 1.7% | 109.4hPa | 2.4V | 00:00:00 | 00:00:00 | 00:00:00 | |
| DM0DOS-11 | 2026-08-31 00:55:37 | 49.21323 | 10.21953 | 70° | 53km/h | 16044m | -5.5m/s | -56.4°C | 5.1% | 108.9hPa | 2.4V | 08:03:06 | 02:23:41 | 00:00:00 | |
| DL1NUX | 2026-08-31 00:55:37 | 49.21327 | 10.21973 | 78° | 53km/h | 16039m | -5.8m/s | -56.4°C | 5.1% | 109hPa | 2.4V | 08:03:05 | 02:23:42 | 00:00:00 | |
| DK7TD | 2026-08-31 00:55:34 | 49.21323 | 10.21953 | 71° | 53km/h | 16044m | -5.5m/s | -56.4°C | 1.2% | 108.9hPa | 2.4V | 08:03:08 | 02:23:41 | 00:00:00 | |
| NBG1-10 | 2026-08-31 00:55:32 | 49.21311 | 10.21913 | 62° | 68km/h | 16055m | -5.1m/s | -56.3°C | 5.1% | 108.7hPa | 2.4V | 00:00:00 | 02:23:39 | 00:00:00 | |
| DF1GD-15 | 2026-08-31 00:55:31 | 49.21311 | 10.21913 | 62° | 64km/h | 16055m | -5.2m/s | -56.3°C | 1.6% | 108.7hPa | 2.4V | 08:03:00 | 00:00:00 | 00:00:00 | |
| OE5DRO-10 | 2026-08-31 00:55:30 | 49.21293 | 10.21866 | 61° | 68km/h | 16065m | -5.2m/s | -56.2°C | 5.1% | 108.5hPa | 2.4V | 00:00:00 | 00:00:00 | 00:00:00 | |
| DM0DOS-11 | 2026-08-31 00:55:29 | 49.21252 | 10.21638 | 89° | 84km/h | 16102m | -4.9m/s | -56°C | 5.1% | 108hPa | 2.4V | 08:03:17 | 02:23:30 | 00:00:00 | |
| DK5PH-5 | 2026-08-31 00:55:29 | 49.21284 | 10.21838 | 64° | 68km/h | 16071m | -5.3m/s | -56.2°C | 5.1% | 108.4hPa | 2.4V | 00:00:00 | 02:23:36 | 00:00:00 | |
| SONCRA | 2026-08-31 00:55:28 | 49.21267 | 10.21775 | 71° | 91km/h | 16081m | -5.3m/s | -56.2°C | 1.6% | 108.3hPa | 2.4V | 00:00:00 | 00:00:00 | 00:00:00 | |
| DL1NUX | 2026-08-31 00:55:26 | 49.21256 | 10.21706 | 80° | 91km/h | 16092m | -5.1m/s | -56.2°C | 5.1% | 108.2hPa | 2.4V | 08:03:15 | 02:23:32 | 00:00:00 | |
| DK7TD | 2026-08-31 00:55:23 | 49.21252 | 10.21638 | 89° | 84km/h | 16102m | -4.9m/s | -56°C | 1.2% | 108hPa | 2.4V | 08:03:59 | 02:23:30 | 00:00:00 | |
| DC4HF-4 | 2026-08-31 00:55:21 | 49.21254 | 10.21577 | 95° | 73km/h | 16111m | -4.9m/s | -55.9°C | 1.6% | 107.8hPa | 2.5V | 00:00:00 | 00:00:00 | 00:00:00 | |
| DL1ZP-14 | 2026-08-31 00:55:20 | 49.21255 | 10.21550 | 96° | 68km/h | 16117m | -4.9m/s | -55.9°C | 1.6% | 107.7hPa | 2.5V | 00:00:00 | 00:00:00 | 00:00:00 | |
| OE5DXL-15 | 2026-08-31 00:55:19 | 49.21258 | 10.21525 | 99° | 57km/h | 16121m | -4.9m/s | -55.8°C | 5.0% | 107.6hPa | 2.5V | 00:00:00 | 00:00:00 | 00:00:00 | |
| DM0DOS-11 | 2026-08-31 00:55:17 | 49.21265 | 10.21426 | 88° | 42km/h | 16149m | -5.8m/s | -56°C | 5% | 107.1hPa | 2.5V | 08:03:26 | 02:23:21 | 00:00:00 | |
| DL1NUX | 2026-08-31 00:55:16 | 49.21265 | 10.21442 | 93° | 46km/h | 16143m | -5.6m/s | -56°C | 4.9% | 107.2hPa | 2.5V | 08:03:25 | 02:23:22 | 00:00:00 | |
| DK7TD | 2026-08-31 00:55:12 | 49.21262 | 10.21395 | 73° | 38km/h | 16160m | -5.7m/s | -56.1°C | 1.1% | 107hPa | 2.4V | 08:03:59 | 02:23:19 | 00:00:00 | |
| DF3TZ-5 | 2026-08-31 00:55:12 | 49.21258 | 10.21381 | 64° | 40km/h | 16166m | -5.7m/s | -56.1°C | 1.5% | 106.8hPa | 2.4V | 00:00:00 | 00:00:00 | 00:00:00 | |
| DF1GD-15 | 2026-08-31 00:55:11 | 49.21258 | 10.21381 | 65° | 40km/h | 16166m | -5.7m/s | -56.1°C | 1.6% | 106.9hPa | 2.4V | 08:03:00 | 00:00:00 | 00:00:00 | |
| EDDB2-12 | 2026-08-31 00:55:10 | 49.21246 | 10.21351 | 53° | 49km/h | 16177m | -5.5m/s | -56.2°C | 1.5% | 106.7hPa | 2.4V | 00:00:00 | 00:00:00 | 00:00:00 | |
| DM0DOS-11 | 2026-08-31 00:55:09 | 49.21198 | 10.21245 | 61° | 80km/h | 16204m | -6.1m/s | -56.1°C | 4.9% | 106.2hPa | 2.4V | 08:03:36 | 02:23:11 | 00:00:00 | |
| DL6DJ-15 | 2026-08-31 00:55:09 | 49.21238 | 10.21335 | 52° | 57km/h | 16182m | -5.4m/s | -56.2°C | 1.5% | 106.5hPa | 2.4V | 00:00:00 | 00:00:00 | 00:00:00 | |
| SO1NDE-10 | 2026-08-31 00:55:07 | 49.21228 | 10.21316 | 53° | 62km/h | 16188m | -5.5m/s | -56.1°C | 4.9% | 106.4hPa | 2.4V | 00:00:00 | 02:23:14 | 00:00:00 | |
| DL1NUX | 2026-08-31 00:55:06 | 49.21208 | 10.21271 | 57° | 77km/h | 16199m | -5.7m/s | -56.1°C | 4.9% | 106.3hPa | 2.4V | 08:03:35 | 02:23:12 | 00:00:00 | |
| DK7TD | 2026-08-31 00:55:01 | 49.21175 | 10.21158 | 76° | 80km/h | 16222m | -5.2m/s | -56°C | 1% | 105.9hPa | 2.4V | 08:03:59 | 02:23:08 | 00:00:00 | |
| DB0ND-19 | 2026-08-31 00:54:59 | 49.21169 | 10.21099 | 86° | 71km/h | 16232m | -4.7m/s | -56.0°C | 1.5% | 105.8hPa | 2.4V | 00:00:00 | 00:00:00 | 00:00:00 | |
| SONDE2-11 | 2026-08-31 00:54:58 | 49.21168 | 10.21073 | 89° | 64km/h | 16236m | -5.0m/s | -56.1°C | 1.5% | 105.7hPa | 2.4V | 00:00:00 | 00:00:00 | 00:00:00 | |
| DM0DOS-11 | 2026-08-31 00:54:57 | 49.21169 | 10.20992 | 85° | 42km/h | 16257m | -5.3m/s | -56.2°C | 5.1% | 105.4hPa | 2.4V | 08:03:46 | 02:23:01 | 00:00:00 | |
| DL1NUX | 2026-08-31 00:54:56 | 49.21169 | 10.21008 | 89° | 46km/h | 16252m | -5.3m/s | -56.2°C | 5.1% | 105.4hPa | 2.4V | 08:03:45 | 02:23:02 | 00:00:00 | |
| BIOWL1-15 | 2026-08-31 00:54:54 | 49.21169 | 10.20992 | 85° | 42km/h | 16257m | -5.3m/s | -56.2°C | 1.1% | 105.4hPa | 2.4V | 08:03:59 | 02:23:01 | 00:00:00 | |
| DK7TD | 2026-08-31 00:54:50 | 49.21156 | 10.20940 | 51° | 37km/h | 16278m | -5.5m/s | -56.2°C | 0.9% | 105hPa | 2.5V | 08:03:59 | 02:22:57 | 00:00:00 | |
| DM0DOS-11 | 2026-08-31 00:54:49 | 49.21083 | 10.20850 | 42° | 73km/h | 16319m | -5.6m/s | -55.7°C | 4.9% | 104.3hPa | 2.4V | 08:03:57 | 02:22:50 | 00:00:00 | |
| BIOWL1-15 | 2026-08-31 00:54:44 | 49.21083 | 10.20850 | 43° | 73km/h | 16320m | -5.6m/s | -55.7°C | 0.9% | 104.3hPa | 2.4V | 08:03:59 | 02:22:50 | 00:00:00 | |
| DK7TD | 2026-08-31 00:54:40 | 49.21045 | 10.20781 | 57° | 82km/h | 16336m | -5.2m/s | -55.7°C | 0.9% | 104hPa | 2.4V | 08:04:50 | 02:22:47 | 00:00:00 | |
| DB0NH | 2026-08-31 00:54:40 | 49.21045 | 10.20781 | 58° | 58km/h | 16336m | -5.2m/s | -55.6°C | 4.9% | 104.0hPa | 2.4V | 08:04:00 | 02:22:47 | 00:00:00 | |
| EDDB2-12 | 2026-08-31 00:54:39 | 49.21026 | 10.20726 | 66° | 80km/h | 16347m | -5.7m/s | -55.6°C | 1.4% | 103.9hPa | 2.5V | 00:00:00 | 00:00:00 | 00:00:00 | |
| DL6DJ-15 | 2026-08-31 00:54:38 | 49.21019 | 10.20698 | 70° | 77km/h | 16353m | -5.8m/s | -55.6°C | 1.4% | 103.8hPa | 2.5V | 00:00:00 | 00:00:00 | 00:00:00 | |
| DM0DOS-11 | 2026-08-31 00:54:37 | 49.21004 | 10.20600 | 82° | 51km/h | 16376m | -5.8m/s | -55.7°C | 4.9% | 103.4hPa | 2.5V | 08:04:07 | 02:22:40 | 00:00:00 | |
| BIOWL1-15 | 2026-08-31 00:54:33 | 49.21002 | 10.20582 | 82° | 42km/h | 16381m | -5.6m/s | -55.7°C | 0.8% | 103.3hPa | 2.5V | 08:04:50 | 02:22:39 | 00:00:00 | |
| DK7TD | 2026-08-31 00:54:29 | 49.20995 | 10.20545 | 55° | 27km/h | 16399m | -6.2m/s | -55.7°C | 0.8% | 103hPa | 2.4V | 08:04:50 | 02:22:36 | 00:00:00 | |
| DK5PH-5 | 2026-08-31 00:54:29 | 49.20995 | 10.20545 | 55° | 51km/h | 16400m | -6.1m/s | -55.6°C | 4.9% | 103.0hPa | 2.4V | 00:00:00 | 02:22:36 | 00:00:00 | |
| PG1ADW-2 | 2026-08-31 00:54:28 | 49.20990 | 10.20536 | 41° | 27km/h | 16406m | -6.2m/s | -55.6°C | 4.8% | 102.9hPa | 2.4V | 00:00:00 | 00:00:00 | 00:00:00 | |
| SONDE2-11 | 2026-08-31 00:54:27 | 49.20983 | 10.20529 | 31° | 35km/h | 16412m | -6.0m/s | -55.6°C | -1.0% | 102.8hPa | 2.4V | 00:00:00 | 00:00:00 | 00:00:00 | |
| DO9HM | 2026-08-31 00:54:26 | 49.20983 | 10.20529 | 33° | 37km/h | 16412m | -6.0m/s | -55.6°C | 1.4% | 102.8hPa | 2.4V | 08:04:00 | 00:00:00 | 00:00:00 | |
| DM0DOS-11 | 2026-08-31 00:54:25 | 49.20937 | 10.20487 | 36° | 68km/h | 16435m | -5.7m/s | -55.4°C | 4.9% | 102.4hPa | 2.4V | 08:04:17 | 02:22:30 | 00:00:00 | |
| BIOWL1-15 | 2026-08-31 00:54:19 | 49.20869 | 10.20299 | 82° | 62km/h | 16480m | -5.8m/s | -53.9°C | 0.5% | 101.7hPa | 2.6V | 08:04:50 | 02:22:22 | 00:00:00 | |
| DK7TD | 2026-08-31 00:54:19 | 49.20889 | 10.20402 | 62° | 75km/h | 16457m | -5.4m/s | -54.3°C | 0.6% | 102.1hPa | 2.4V | 08:04:50 | 02:22:26 | 00:00:00 | |
| OE5DXL-15 | 2026-08-31 00:54:19 | 49.20889 | 10.20402 | 63° | 53km/h | 16457m | -5.3m/s | -54.3°C | 4.5% | 102.1hPa | 2.4V | 00:00:00 | 00:00:00 | 00:00:00 | |
| DM0DOS-11 | 2026-08-31 00:54:18 | 49.20866 | 10.20257 | 88° | 49km/h | 16492m | -5.7m/s | -53.8°C | 4.2% | 101.5hPa | 2.4V | 08:04:27 | 02:22:20 | 00:00:00 | |
| DL1NUX | 2026-08-31 00:54:16 | 49.20869 | 10.20300 | 82° | 62km/h | 16480m | -5.8m/s | -53.9°C | 4.3% | 101.7hPa | 2.6V | 08:04:25 | 02:22:22 | 00:00:00 | |
| HSKMA3-T | 2026-08-31 00:54:12 | 49.20866 | 10.20240 | 89° | 42km/h | 16498m | -5.8m/s | -53.8°C | 0.5% | 101.5hPa | 2.4V | 08:07:23 | 02:22:19 | 00:00:00 | |
| DK7TD | 2026-08-31 00:54:09 | 49.20864 | 10.20203 | 74° | 24km/h | 16515m | -5.9m/s | -53.8°C | 0.4% | 101.2hPa | 2.6V | 08:04:50 | 02:22:16 | 00:00:00 | |
| DF1GD-15 | 2026-08-31 00:54:09 | 49.20864 | 10.20203 | 75° | 24km/h | 16515m | -5.9m/s | -53.8°C | 1.2% | 101.2hPa | 2.4V | 08:04:00 | 00:00:00 | 00:00:00 | |
| DO9HM | 2026-08-31 00:54:07 | 49.20858 | 10.20188 | 45° | 24km/h | 16527m | -5.9m/s | -53.8°C | 1.2% | 101.0hPa | 2.4V | 08:04:00 | 00:00:00 | 00:00:00 | |
| DL1NUX | 2026-08-31 00:54:06 | 49.20847 | 10.20176 | 29° | 35km/h | 16539m | -6m/s | -53.9°C | 4.2% | 100.8hPa | 2.4V | 08:04:35 | 02:22:12 | 00:00:00 | |
| HSKMA3-T | 2026-08-31 00:54:01 | 49.20806 | 10.20134 | 41° | 62km/h | 16562m | -5.5m/s | -53.9°C | 0.4% | 100.4hPa | 2.4V | 08:07:23 | 02:22:08 | 00:00:00 | |
| DK7TD | 2026-08-31 00:53:58 | 49.20772 | 10.20075 | 56° | 71km/h | 16579m | -6m/s | -54°C | 0.5% | 100.2hPa | 2.4V | 08:04:50 | 02:22:05 | 00:00:00 | |
| DB0ND-19 | 2026-08-31 00:53:57 | 49.20747 | 10.20002 | 68° | 68km/h | 16597m | -6.2m/s | -54.0°C | 1.2% | 99.9hPa | 2.4V | 00:00:00 | 00:00:00 | 00:00:00 | |
| DL1NUX | 2026-08-31 00:53:56 | 49.20747 | 10.20002 | 68° | 69km/h | 16597m | -6.2m/s | -54°C | 4.3% | 99.9hPa | 2.4V | 08:04:45 | 02:22:02 | 00:00:00 | |
| BIOWL1-15 | 2026-08-31 00:53:54 | 49.20731 | 10.19898 | 85° | 38km/h | 16624m | -5.4m/s | -54°C | 0.6% | 99.5hPa | 2.5V | 08:04:50 | 02:21:57 | 00:00:00 | |
| DK7TD | 2026-08-31 00:53:47 | 49.20729 | 10.19863 | 80° | 24km/h | 16641m | -5.9m/s | -53.8°C | 0.5% | 99.2hPa | 2.4V | 08:05:41 | 02:21:54 | 00:00:00 | |
| DL1NUX | 2026-08-31 00:53:46 | 49.20726 | 10.19847 | 65° | 18km/h | 16653m | -6m/s | -53.7°C | 4.3% | 99hPa | 2.6V | 08:04:55 | 02:21:52 | 00:00:00 | |
| DM0DOS-11 | 2026-08-31 00:53:45 | 49.20720 | 10.19837 | 34° | 18km/h | 16665m | -6.4m/s | -53.5°C | 4.2% | 98.8hPa | 2.4V | 08:04:57 | 02:21:50 | 00:00:00 | |
| BIOWL1-15 | 2026-08-31 00:53:42 | 49.20716 | 10.19833 | 20° | 20km/h | 16671m | -6.1m/s | -53.3°C | 0.4% | 98.7hPa | 2.4V | 08:10:47 | 02:21:49 | 00:00:00 | |
| DL1NUX | 2026-08-31 00:53:40 | 49.20647 | 10.19813 | 20° | 60km/h | 16714m | -6.2m/s | -52.6°C | 3.9% | 98.1hPa | 2.4V | 08:05:05 | 02:21:42 | 00:00:00 | |
| DK7TD | 2026-08-31 00:53:37 | 49.20674 | 10.19824 | 10° | 49km/h | 16702m | -6.1m/s | -52.9°C | 0.3% | 98.2hPa | 2.4V | 08:05:41 | 02:21:44 | 00:00:00 | |
| DO3MHA-11 | 2026-08-31 00:53:35 | 49.20647 | 10.19813 | 21° | 53km/h | 16714m | -6.1m/s | -52.5°C | 3.9% | 98.0hPa | 2.4V | 08:05:00 | 02:21:42 | 00:00:00 | |
| DM0DOS-11 | 2026-08-31 00:53:33 | 49.20620 | 10.19792 | 34° | 64km/h | 16726m | -5.9m/s | -52.6°C | 3.9% | 97.9hPa | 2.6V | 08:05:07 | 02:21:40 | 00:00:00 | |
| DC4HF-4 | 2026-08-31 00:53:33 | 49.20607 | 10.19777 | 41° | 62km/h | 16732m | -5.8m/s | -52.5°C | 1.0% | 97.8hPa | 2.4V | 00:00:00 | 00:00:00 | 00:00:00 | |
| DF9NV-10 | 2026-08-31 00:53:31 | 49.20596 | 10.19760 | 49° | 60km/h | 16737m | -5.5m/s | -52.5°C | 1.1% | 97.8hPa | 2.4V | 08:05:00 | 00:00:00 | 00:00:00 | |
| DK5PH-5 | 2026-08-31 00:53:29 | 49.20580 | 10.19724 | 62° | 42km/h | 16749m | -5.7m/s | -52.4°C | 3.9% | 97.5hPa | 2.4V | 00:00:00 | 02:21:36 | 00:00:00 | |
| DM0DOS-11 | 2026-08-31 00:53:28 | 49.20563 | 10.19659 | 37° | 13km/h | 16784m | -6.1m/s | -52.5°C | 3.9% | 97hPa | 2.4V | 08:05:17 | 02:21:30 | 00:00:00 | |
| BIOWL1-15 | 2026-08-31 00:53:27 | 49.20567 | 10.19670 | 74° | 22km/h | 16772m | -5.8m/s | -52.5°C | 0.3% | 97.2hPa | 2.4V | 08:10:47 | 02:21:32 | 00:00:00 | |
| DO9HM | 2026-08-31 00:53:27 | 49.20571 | 10.19692 | 73° | 38km/h | 16760m | -5.7m/s | -52.4°C | 1.1% | 97.4hPa | 2.4V | 08:05:00 | 00:00:00 | 00:00:00 | |
| DL1NUX | 2026-08-31 00:53:26 | 49.20567 | 10.19670 | 74° | 22km/h | 16772m | -5.8m/s | -52.5°C | 3.9% | 97.2hPa | 2.4V | 08:05:15 | 02:21:32 | 00:00:00 | |
| DK7TD | 2026-08-31 00:53:26 | 49.20568 | 10.19680 | 76° | 29km/h | 16766m | -5.7m/s | -52.4°C | 0.3% | 97.3hPa | 2.5V | 08:05:41 | 02:21:33 | 00:00:00 | |
| DO3MHA-11 | 2026-08-31 00:53:25 | 49.20567 | 10.19670 | 75° | 29km/h | 16772m | -5.8m/s | -52.4°C | 3.9% | 97.2hPa | 2.4V | 00:00:00 | 02:21:32 | 00:00:00 | |
| SONCRA | 2026-08-31 00:53:23 | 49.20563 | 10.19659 | 37° | 11km/h | 16784m | -6.1m/s | -52.5°C | 1.0% | 97.0hPa | 2.4V | 00:00:00 | 00:00:00 | 00:00:00 | |
| NBG1-10 | 2026-08-31 00:53:20 | 49.20549 | 10.19659 | 351° | 49km/h | 16802m | -5.7m/s | -52.5°C | 3.9% | 96.7hPa | 2.4V | 00:00:00 | 02:21:27 | 00:00:00 | |
| OE5DXL-15 | 2026-08-31 00:53:19 | 49.20541 | 10.19661 | 353° | 49km/h | 16808m | -5.7m/s | -52.5°C | 3.9% | 96.7hPa | 2.4V | 00:00:00 | 00:00:00 | 00:00:00 | |
| DM0DOS-11 | 2026-08-31 00:53:18 | 49.20460 | 10.19646 | 20° | 66km/h | 16842m | -6.2m/s | -52.8°C | 3.9% | 96.1hPa | 2.4V | 08:05:27 | 02:21:20 | 00:00:00 | |
| DK7TD | 2026-08-31 00:53:16 | 49.20506 | 10.19662 | 5° | 55km/h | 16824m | -5.8m/s | -52.7°C | 0.3% | 96.4hPa | 2.4V | 08:05:41 | 02:21:23 | 00:00:00 | |
| DL1NUX | 2026-08-31 00:53:15 | 49.20491 | 10.19659 | 10° | 60km/h | 16830m | -6m/s | -52.7°C | 3.9% | 96.3hPa | 2.6V | 08:05:25 | 02:21:22 | 00:00:00 | |
| DJ8HS-15 | 2026-08-31 00:53:15 | 49.20491 | 10.19659 | 11° | 47km/h | 16830m | -6.0m/s | -52.7°C | 3.9% | 96.3hPa | 2.4V | 00:00:00 | 02:21:22 | 00:00:00 | |
| DB0UT-7 | 2026-08-31 00:53:10 | 49.20415 | 10.19609 | 37° | 53km/h | 16861m | -6.2m/s | -52.9°C | 4.0% | 95.8hPa | 2.4V | 00:00:00 | 00:00:00 | 00:00:00 | |
| DF9NV-10 | 2026-08-31 00:53:09 | 49.20415 | 10.19609 | 38° | 68km/h | 16861m | -6.2m/s | -52.9°C | 1.1% | 95.9hPa | 2.5V | 08:05:00 | 00:00:00 | 00:00:00 | |
| DM0DOS-11 | 2026-08-31 00:53:08 | 49.20357 | 10.19480 | 67° | 27km/h | 16909m | -6.1m/s | -53.1°C | 4% | 95.2hPa | 2.5V | 08:05:38 | 02:21:09 | 00:00:00 | |
| DK7TD | 2026-08-31 00:53:05 | 49.20368 | 10.19520 | 64° | 47km/h | 16891m | -5.9m/s | -53.1°C | 0.3% | 95.4hPa | 2.4V | 08:05:41 | 02:21:12 | 00:00:00 | |
| BIOWL1-15 | 2026-08-31 00:53:05 | 49.20354 | 10.19471 | 60° | 22km/h | 16915m | -6.1m/s | -53.1°C | 0.3% | 95.1hPa | 2.4V | 08:10:47 | 02:21:08 | 00:00:00 | |
| HSKMA3-T | 2026-08-31 00:53:00 | 49.20351 | 10.19465 | 43° | 18km/h | 16921m | -6.1m/s | -53°C | 0.2% | 95hPa | 2.4V | 08:07:23 | 02:21:07 | 00:00:00 | |
| DK7TD | 2026-08-31 00:52:54 | 49.20303 | 10.19458 | 7° | 53km/h | 16957m | -5.7m/s | -53.3°C | 0.4% | 94.5hPa | 2.4V | 08:06:32 | 02:21:01 | 00:00:00 | |
| DM0DOS-11 | 2026-08-31 00:52:53 | 49.20275 | 10.19448 | 18° | 62km/h | 16968m | -5.6m/s | -53.3°C | 4.1% | 94.3hPa | 2.4V | 08:05:48 | 02:20:59 | 00:00:00 | |
| HSKMA3-T | 2026-08-31 00:52:49 | 49.20230 | 10.19412 | 36° | 69km/h | 16985m | -6.1m/s | -53.5°C | 0.4% | 94.1hPa | 2.4V | 08:07:23 | 02:20:56 | 00:00:00 | |
| DF7PN | 2026-08-31 00:52:46 | 49.20193 | 10.19357 | 52° | 64km/h | 17004m | -6.0m/s | -53.6°C | 1.1% | 93.8hPa | 2.6V | 00:00:00 | 00:00:00 | 00:00:00 | |
| DL1NUX | 2026-08-31 00:52:45 | 49.20184 | 10.19337 | 58° | 62km/h | 17009m | -6m/s | -53.7°C | 4% | 93.7hPa | 2.6V | 08:05:55 | 02:20:52 | 00:00:00 | |
| DO3MHA-11 | 2026-08-31 00:52:45 | 49.20184 | 10.19337 | 59° | 38km/h | 17010m | -6.0m/s | -53.6°C | 4.0% | 93.7hPa | 2.4V | 00:00:00 | 02:20:52 | 00:00:00 | |
| DO9HM | 2026-08-31 00:52:44 | 49.20184 | 10.19337 | 60° | 62km/h | 17010m | -6.0m/s | -53.7°C | 1.1% | 93.7hPa | 2.4V | 08:06:00 | 00:00:00 | 00:00:00 | |
| DM0DOS-11 | 2026-08-31 00:52:43 | 49.20167 | 10.19277 | 75° | 47km/h | 17028m | -6.1m/s | -53.8°C | 4% | 93.4hPa | 2.4V | 08:05:58 | 02:20:49 | 00:00:00 | |
| DK7TD | 2026-08-31 00:52:43 | 49.20171 | 10.19296 | 70° | 53km/h | 17022m | -6.2m/s | -53.7°C | 0.4% | 93.5hPa | 2.4V | 08:06:32 | 02:20:50 | 00:00:00 | |
| OE5DRO-10 | 2026-08-31 00:52:41 | 49.20165 | 10.19260 | 80° | 51km/h | 17034m | -6.2m/s | -53.8°C | 4.1% | 93.3hPa | 2.4V | 00:00:00 | 00:00:00 | 00:00:00 | |
| BIOWL1-15 | 2026-08-31 00:52:41 | 49.20157 | 10.19219 | 43° | 18km/h | 17059m | -5.9m/s | -54°C | 0.4% | 93hPa | 2.4V | 08:10:47 | 02:20:44 | 00:00:00 | |
| DL1NUX | 2026-08-31 00:52:40 | 49.20147 | 10.19212 | 11° | 29km/h | 17071m | -5.5m/s | -54.1°C | 4.2% | 92.8hPa | 2.4V | 08:06:05 | 02:20:42 | 00:00:00 | |
| HSKMA3-T | 2026-08-31 00:52:39 | 49.20162 | 10.19234 | 78° | 27km/h | 17047m | -6.3m/s | -53.9°C | 0.4% | 93.2hPa | 2.6V | 08:07:23 | 02:20:46 | 00:00:00 | |
| DB0UT-7 | 2026-08-31 00:52:39 | 49.20162 | 10.19234 | 79° | 46km/h | 17047m | -6.3m/s | -53.8°C | 4.1% | 93.1hPa | 2.4V | 00:00:00 | 02:20:46 | 00:00:00 | |
| SO1NDE-10 | 2026-08-31 00:52:37 | 49.20157 | 10.19219 | 44° | 49km/h | 17059m | -5.8m/s | -53.9°C | 4.1% | 92.9hPa | 2.4V | 00:00:00 | 02:20:44 | 00:00:00 | |
| DF3TZ-5 | 2026-08-31 00:52:36 | 49.20153 | 10.19215 | 21° | 22km/h | 17065m | -5.7m/s | -54.0°C | 1.2% | 92.9hPa | 2.4V | 00:00:00 | 00:00:00 | 00:00:00 | |
| DJ8HS-15 | 2026-08-31 00:52:35 | 49.20147 | 10.19212 | 12° | 58km/h | 17071m | -5.5m/s | -54.0°C | 4.2% | 92.8hPa | 2.4V | 00:00:00 | 02:20:42 | 00:00:00 | |
| DM0DOS-11 | 2026-08-31 00:52:33 | 49.20115 | 10.19203 | 15° | 53km/h | 17088m | -6m/s | -54.2°C | 4.2% | 92.6hPa | 2.6V | 08:06:08 | 02:20:39 | 00:00:00 | |
| DK7TD | 2026-08-31 00:52:33 | 49.20115 | 10.19203 | 15° | 53km/h | 17088m | -6m/s | -54.2°C | 0.5% | 92.6hPa | 2.6V | 08:06:32 | 02:20:39 | 00:00:00 | |
| HSKMA3-T | 2026-08-31 00:52:29 | 49.20044 | 10.19144 | 41° | 71km/h | 17117m | -5.7m/s | -54.4°C | 0.5% | 92.2hPa | 2.6V | 08:07:23 | 02:20:34 | 00:00:00 | |
| DF1GD-15 | 2026-08-31 00:52:26 | 49.20044 | 10.19144 | 42° | 71km/h | 17118m | -5.7m/s | -54.4°C | 1.2% | 92.2hPa | 2.4V | 08:06:00 | 00:00:00 | 00:00:00 | |
| DL1NUX | 2026-08-31 00:52:25 | 49.20019 | 10.19104 | 51° | 73km/h | 17129m | -5.8m/s | -54.5°C | 4.4% | 92hPa | 2.4V | 08:06:15 | 02:20:32 | 00:00:00 | |
| DO9HM | 2026-08-31 00:52:25 | 49.20019 | 10.19104 | 53° | 73km/h | 17129m | -5.8m/s | -54.5°C | 1.2% | 92.0hPa | 2.4V | 08:06:00 | 00:00:00 | 00:00:00 | |
| DM0DOS-11 | 2026-08-31 00:52:24 | 49.19991 | 10.19033 | 66° | 69km/h | 17147m | -6.2m/s | -54.7°C | 4.4% | 91.7hPa | 2.4V | 08:06:18 | 02:20:29 | 00:00:00 | |
| DK7TD | 2026-08-31 00:52:22 | 49.19991 | 10.19033 | 67° | 69km/h | 17147m | -6.2m/s | -54.7°C | 0.6% | 91.7hPa | 2.4V | 08:06:32 | 02:20:29 | 00:00:00 | |
| OE5DRO-10 | 2026-08-31 00:52:22 | 49.19991 | 10.19033 | 67° | 47km/h | 17147m | -6.1m/s | -54.6°C | 4.4% | 91.7hPa | 2.6V | 00:00:00 | 00:00:00 | 00:00:00 | |
| DC4HF-4 | 2026-08-31 00:52:21 | 49.19981 | 10.18986 | 75° | 60km/h | 17160m | -6.2m/s | -54.8°C | 1.2% | 91.5hPa | 2.6V | 00:00:00 | 00:00:00 | 00:00:00 | |
| DL1NUX | 2026-08-31 00:52:20 | 49.19972 | 10.18904 | 76° | 26km/h | 17190m | -5.9m/s | -54.8°C | 4.4% | 91.1hPa | 2.6V | 08:06:25 | 02:20:22 | 00:00:00 | |
| HSKMA3-T | 2026-08-31 00:52:18 | 49.19974 | 10.18928 | 84° | 40km/h | 17178m | -5.9m/s | -54.8°C | 0.6% | 91.3hPa | 2.4V | 08:07:23 | 02:20:24 | 00:00:00 | |
| DO3MHA-11 | 2026-08-31 00:52:15 | 49.19972 | 10.18903 | 77° | 40km/h | 17190m | -5.9m/s | -54.7°C | 4.4% | 91.1hPa | 2.4V | 00:00:00 | 02:20:22 | 00:00:00 | |
| NBG1-10 | 2026-08-31 00:52:14 | 49.19970 | 10.18895 | 62° | 46km/h | 17196m | -6.0m/s | -54.6°C | 4.4% | 91.0hPa | 2.4V | 00:00:00 | 02:20:21 | 00:00:00 | |
| DM0DOS-11 | 2026-08-31 00:52:13 | 49.19962 | 10.18884 | 28° | 26km/h | 17208m | -6.2m/s | -54.6°C | 4.3% | 90.8hPa | 2.4V | 08:06:28 | 02:20:19 | 00:00:00 | |
| DK7TD | 2026-08-31 00:52:12 | 49.19962 | 10.18884 | 28° | 26km/h | 17208m | -6.2m/s | -54.6°C | 0.5% | 90.8hPa | 2.4V | 08:06:32 | 02:20:19 | 00:00:00 | |
| DB0NH | 2026-08-31 00:52:10 | 49.19947 | 10.18874 | 21° | 49km/h | 17221m | -6.0m/s | -54.6°C | 4.3% | 90.6hPa | 2.4V | 00:00:00 | 02:20:17 | 00:00:00 | |
| DF9NV-10 | 2026-08-31 00:52:08 | 49.19936 | 10.18868 | 25° | 47km/h | 17227m | -5.9m/s | -54.6°C | 1.2% | 90.6hPa | 2.4V | 08:06:00 | 00:00:00 | 00:00:00 | |
| SO1NDE-10 | 2026-08-31 00:52:07 | 49.19912 | 10.18848 | 34° | 53km/h | 17238m | -5.5m/s | -54.6°C | 4.4% | 90.4hPa | 2.4V | 00:00:00 | 02:20:14 | 00:00:00 | |
| DO3MHA-11 | 2026-08-31 00:52:05 | 49.19887 | 10.18816 | 45° | 66km/h | 17250m | -5.7m/s | -54.5°C | 4.5% | 90.2hPa | 2.4V | 08:06:00 | 02:20:12 | 00:00:00 | |
| DB0UT-7 | 2026-08-31 00:52:04 | 49.19875 | 10.18796 | 51° | 51km/h | 17255m | -5.6m/s | -54.5°C | 4.4% | 90.2hPa | 2.5V | 00:00:00 | 00:00:00 | 00:00:00 | |
| DM0DOS-11 | 2026-08-31 00:52:03 | 49.19855 | 10.18750 | 61° | 71km/h | 17267m | -5.9m/s | -54.5°C | 4.4% | 90.1hPa | 2.5V | 08:06:38 | 02:20:09 | 00:00:00 | |
| DK7TD | 2026-08-31 00:52:01 | 49.19847 | 10.18725 | 67° | 71km/h | 17273m | -6.2m/s | -54.5°C | 0.6% | 89.9hPa | 2.4V | 08:07:23 | 02:20:08 | 00:00:00 | |
| DK5PH-5 | 2026-08-31 00:51:59 | 49.19837 | 10.18675 | 78° | 46km/h | 17286m | -6.3m/s | -54.5°C | 4.4% | 89.7hPa | 2.4V | 00:00:00 | 02:20:06 | 00:00:00 | |
| DL1NUX | 2026-08-31 00:51:56 | 49.19833 | 10.18590 | 96° | 42km/h | 17310m | -5.9m/s | -54.6°C | 4.4% | 89.4hPa | 2.4V | 08:06:45 | 02:20:02 | 00:00:00 | |
| DJ8HS-15 | 2026-08-31 00:51:55 | 49.19834 | 10.18590 | 97° | 46km/h | 17310m | -5.9m/s | -54.6°C | 4.4% | 89.4hPa | 2.4V | 00:00:00 | 02:20:02 | 00:00:00 | |
| DM0DOS-11 | 2026-08-31 00:51:53 | 49.19836 | 10.18554 | 92° | 22km/h | 17328m | -6.1m/s | -54.7°C | 4.4% | 89.2hPa | 2.4V | 08:06:48 | 02:19:59 | 00:00:00 | |
| DK7TD | 2026-08-31 00:51:51 | 49.19836 | 10.18546 | 77° | 16km/h | 17334m | -6.1m/s | -54.6°C | 0.5% | 89.1hPa | 2.6V | 08:07:23 | 02:19:58 | 00:00:00 | |
| BIOWL1-15 | 2026-08-31 00:51:51 | 49.19831 | 10.18536 | 32° | 20km/h | 17346m | -6.2m/s | -54.6°C | 0.5% | 88.9hPa | 2.4V | 08:10:47 | 02:19:56 | 00:00:00 | |
| SONCRA | 2026-08-31 00:51:50 | 49.19831 | 10.18536 | 32° | 20km/h | 17346m | -6.2m/s | -54.6°C | 1.2% | 88.9hPa | 2.4V | 00:00:00 | 00:00:00 | 00:00:00 | |
| OE5DXL-15 | 2026-08-31 00:51:49 | 49.19831 | 10.18536 | 33° | 44km/h | 17346m | -6.2m/s | -54.5°C | 4.3% | 88.8hPa | 2.4V | 08:06:00 | 00:00:00 | 00:00:00 | |
| DF9NV-10 | 2026-08-31 00:51:47 | 49.19826 | 10.18532 | 26° | 27km/h | 17353m | -6.5m/s | -54.6°C | 1.2% | 88.8hPa | 2.4V | 08:07:00 | 00:00:00 | 00:00:00 | |
| DO3MHA-11 | 2026-08-31 00:51:45 | 49.19800 | 10.18513 | 31° | 62km/h | 17372m | -6.1m/s | -54.6°C | 4.3% | 88.5hPa | 2.4V | 00:00:00 | 02:19:52 | 00:00:00 | |
| DM0DOS-11 | 2026-08-31 00:51:44 | 49.19767 | 10.18470 | 49° | 64km/h | 17389m | -5.9m/s | -54.7°C | 4.3% | 88.3hPa | 2.4V | 08:06:58 | 02:19:49 | 00:00:00 | |
| DK7TD | 2026-08-31 00:51:41 | 49.19748 | 10.18428 | 62° | 68km/h | 17401m | -6.2m/s | -54.7°C | 0.5% | 88.1hPa | 2.4V | 08:07:23 | 02:19:47 | 00:00:00 | |
| BIOWL1-15 | 2026-08-31 00:51:40 | 49.19733 | 10.18256 | 103° | 37km/h | 17451m | -6.1m/s | -55°C | 0.6% | 87.5hPa | 2.6V | 08:10:47 | 02:19:39 | 00:00:00 | |
| DB0NH | 2026-08-31 00:51:40 | 49.19748 | 10.18428 | 62° | 49km/h | 17401m | -6.1m/s | -54.6°C | 4.3% | 88.1hPa | 2.4V | 00:00:00 | 02:19:47 | 00:00:00 | |
| SO1NDE-10 | 2026-08-31 00:51:37 | 49.19731 | 10.18355 | 80° | 47km/h | 17420m | -6.2m/s | -54.8°C | 4.4% | 87.8hPa | 2.6V | 00:00:00 | 02:19:44 | 00:00:00 | |
| DM0DOS-11 | 2026-08-31 00:51:36 | 49.19733 | 10.18256 | 102° | 35km/h | 17451m | -6.1m/s | -55°C | 4.5% | 87.5hPa | 2.6V | 08:07:08 | 02:19:39 | 00:00:00 | |
| HSKMA3-T | 2026-08-31 00:51:31 | 49.19735 | 10.18244 | 102° | 27km/h | 17457m | -6m/s | -55°C | 0.6% | 87.4hPa | 2.4V | 08:07:23 | 02:19:38 | 00:00:00 | |
| DL1NUX | 2026-08-31 00:51:30 | 49.19720 | 10.18210 | 19° | 31km/h | 17494m | -6.5m/s | -55.1°C | 4.6% | 86.9hPa | 2.4V | 08:07:15 | 02:19:32 | 00:00:00 | |
| DK7TD | 2026-08-31 00:51:29 | 49.19736 | 10.18228 | 82° | 16km/h | 17469m | -6.2m/s | -55°C | 0.7% | 87.2hPa | 2.4V | 08:07:23 | 02:19:36 | 00:00:00 | |
| DK5PH-5 | 2026-08-31 00:51:29 | 49.19736 | 10.18227 | 82° | 42km/h | 17469m | -6.2m/s | -54.9°C | 4.6% | 87.2hPa | 2.4V | 08:07:00 | 02:19:36 | 00:00:00 | |
| DF9NV-10 | 2026-08-31 00:51:26 | 49.19732 | 10.18218 | 34° | 18km/h | 17481m | -6.3m/s | -55.0°C | 1.3% | 87.1hPa | 2.4V | 08:07:00 | 00:00:00 | 00:00:00 | |
| DM7RM-13 | 2026-08-31 00:51:25 | 49.19720 | 10.18210 | 20° | 31km/h | 17494m | -6.5m/s | -55.1°C | 1.2% | 86.9hPa | 2.4V | 08:07:00 | 00:00:00 | 00:00:00 | |
| DM0DOS-11 | 2026-08-31 00:51:23 | 49.19691 | 10.18194 | 23° | 51km/h | 17513m | -6.5m/s | -54.9°C | 4.6% | 86.6hPa | 2.4V | 08:07:18 | 02:19:29 | 00:00:00 | |
| DF8AY | 2026-08-31 00:51:21 | 49.19679 | 10.18185 | 28° | 57km/h | 17520m | -6.6m/s | -54.9°C | 0.6% | 86.5hPa | 2.6V | 08:07:23 | 02:19:28 | 00:00:00 | |
| DL1NUX | 2026-08-31 00:51:20 | 49.19611 | 10.18081 | 63° | 68km/h | 17557m | -5.7m/s | -54.8°C | 4.6% | 86hPa | 2.6V | 08:07:25 | 02:19:22 | 00:00:00 | |
| DK7TD | 2026-08-31 00:51:19 | 49.19654 | 10.18160 | 38° | 64km/h | 17533m | -6.6m/s | -54.9°C | 0.6% | 86.4hPa | 2.4V | 08:07:23 | 02:19:26 | 00:00:00 | |
| SONCRA | 2026-08-31 00:51:19 | 49.19641 | 10.18143 | 43° | 66km/h | 17539m | -6.4m/s | -54.9°C | 1.2% | 86.2hPa | 2.4V | 00:00:00 | 00:00:00 | 00:00:00 | |
| DJ8HS-15 | 2026-08-31 00:51:15 | 49.19611 | 10.18080 | 64° | 42km/h | 17558m | -5.6m/s | -54.8°C | 4.6% | 86.0hPa | 2.4V | 00:00:00 | 02:19:22 | 00:00:00 | |
| DM0DOS-11 | 2026-08-31 00:51:14 | 49.19596 | 10.18012 | 80° | 58km/h | 17575m | -6.4m/s | -54.5°C | 4.5% | 85.8hPa | 2.4V | 08:07:28 | 02:19:19 | 00:00:00 | |
| BIOWL1-15 | 2026-08-31 00:51:13 | 49.19595 | 10.17925 | 98° | 29km/h | 17608m | -6.5m/s | -54.3°C | 0.6% | 85.4hPa | 2.4V | 08:10:47 | 02:19:14 | 00:00:00 | |
| DF8AY | 2026-08-31 00:51:11 | 49.19594 | 10.17990 | 85° | 53km/h | 17582m | -6.6m/s | -54.5°C | 0.5% | 85.7hPa | 2.4V | 08:09:56 | 02:19:18 | 00:00:00 | |
| HSKMA3-T | 2026-08-31 00:51:08 | 49.19594 | 10.17938 | 96° | 37km/h | 17602m | -6.5m/s | -54.4°C | 0.5% | 85.4hPa | 2.6V | 08:08:14 | 02:19:15 | 00:00:00 | |
| DF8AY | 2026-08-31 00:51:00 | 49.19571 | 10.17891 | 20° | 40km/h | 17653m | -6.5m/s | -53.9°C | 0.5% | 84.8hPa | 2.4V | 08:09:56 | 02:19:07 | 00:00:00 | |
| DL1NUX | 2026-08-31 00:51:00 | 49.19516 | 10.17828 | 52° | 66km/h | 17685m | -6.6m/s | -53.6°C | 4.1% | 84.3hPa | 2.4V | 08:07:45 | 02:19:02 | 00:00:00 | |
| DK7TD | 2026-08-31 00:50:58 | 49.19549 | 10.17875 | 31° | 53km/h | 17666m | -6.7m/s | -53.8°C | 0.5% | 84.6hPa | 2.4V | 08:08:14 | 02:19:05 | 00:00:00 | |
| BIOWL1-15 | 2026-08-31 00:50:57 | 49.19538 | 10.17863 | 38° | 58km/h | 17673m | -6.5m/s | -53.7°C | 0.4% | 84.5hPa | 2.6V | 08:10:47 | 02:19:04 | 00:00:00 | |
| DM0DOS-11 | 2026-08-31 00:50:55 | 49.19492 | 10.17759 | 72° | 68km/h | 17705m | -6.3m/s | -53.6°C | 4.1% | 84.1hPa | 2.4V | 08:07:48 | 02:18:59 | 00:00:00 | |
| DB0ND-19 | 2026-08-31 00:50:51 | 49.19488 | 10.17734 | 79° | 66km/h | 17711m | -6.4m/s | -53.7°C | 1.1% | 84.0hPa | 2.6V | 00:00:00 | 00:00:00 | 00:00:00 | |
| DL1NUX | 2026-08-31 00:50:50 | 49.19494 | 10.17613 | 110° | 33km/h | 17752m | -6.4m/s | -53.8°C | 4.1% | 83.4hPa | 2.6V | 08:07:55 | 02:18:52 | 00:00:00 | |
| DF8AY | 2026-08-31 00:50:49 | 49.19485 | 10.17685 | 91° | 60km/h | 17725m | -7m/s | -53.7°C | 0.4% | 83.8hPa | 2.4V | 08:09:56 | 02:18:56 | 00:00:00 | |
| DK7TD | 2026-08-31 00:50:48 | 49.19486 | 10.17663 | 97° | 55km/h | 17732m | -6.9m/s | -53.8°C | 0.4% | 83.7hPa | 2.4V | 08:08:14 | 02:18:55 | 00:00:00 | |
| HSKMA3-T | 2026-08-31 00:50:46 | 49.19491 | 10.17626 | 107° | 42km/h | 17745m | -6.8m/s | -53.8°C | 0.4% | 83.5hPa | 2.4V | 08:08:14 | 02:18:53 | 00:00:00 | |
| BIOWL1-15 | 2026-08-31 00:50:43 | 49.19498 | 10.17596 | 98° | 15km/h | 17765m | -6.4m/s | -53.8°C | 0.5% | 83.3hPa | 2.4V | 08:10:47 | 02:18:50 | 00:00:00 | |
| DM0DOS-11 | 2026-08-31 00:50:43 | 49.19498 | 10.17591 | 65° | 11km/h | 17771m | -6.4m/s | -53.8°C | 4.2% | 83.2hPa | 2.4V | 08:07:58 | 02:18:49 | 00:00:00 | |
| DF7PN | 2026-08-31 00:50:42 | 49.19498 | 10.17591 | 65° | 11km/h | 17771m | -6.4m/s | -53.8°C | 1.1% | 83.2hPa | 2.4V | 00:00:00 | 00:00:00 | 00:00:00 | |
| DB0NH | 2026-08-31 00:50:40 | 49.19491 | 10.17584 | 21° | 47km/h | 17785m | -6.9m/s | -53.8°C | 4.2% | 83.0hPa | 2.4V | 00:00:00 | 02:18:47 | 00:00:00 | |
| DL1NUX | 2026-08-31 00:50:39 | 49.19445 | 10.17544 | 42° | 60km/h | 17820m | -6.7m/s | -53.9°C | 4.2% | 82.6hPa | 2.4V | 08:08:05 | 02:18:42 | 00:00:00 | |
| DF8AY | 2026-08-31 00:50:38 | 49.19477 | 10.17576 | 23° | 38km/h | 17799m | -7.2m/s | -53.9°C | 0.5% | 82.8hPa | 2.6V | 08:09:56 | 02:18:45 | 00:00:00 | |
| DK7TD | 2026-08-31 00:50:38 | 49.19467 | 10.17568 | 29° | 47km/h | 17806m | -7.2m/s | -53.9°C | 0.4% | 82.8hPa | 2.4V | 08:08:14 | 02:18:44 | 00:00:00 | |
| SO1NDE-10 | 2026-08-31 00:50:37 | 49.19467 | 10.17568 | 29° | 51km/h | 17806m | -7.1m/s | -53.8°C | 4.2% | 82.7hPa | 2.6V | 00:00:00 | 02:18:44 | 00:00:00 | |
| DM0DOS-11 | 2026-08-31 00:50:35 | 49.19417 | 10.17484 | 65° | 68km/h | 17840m | -6.5m/s | -53.7°C | 4.2% | 82.3hPa | 2.6V | 08:08:08 | 02:18:39 | 00:00:00 | |
| HSKMA3-T | 2026-08-31 00:50:34 | 49.19435 | 10.17527 | 50° | 64km/h | 17827m | -6.6m/s | -53.8°C | 0.4% | 82.5hPa | 2.4V | 08:08:14 | 02:18:41 | 00:00:00 | |
| DB0UT-7 | 2026-08-31 00:50:34 | 49.19435 | 10.17527 | 51° | 49km/h | 17827m | -6.6m/s | -53.7°C | 4.2% | 82.4hPa | 2.4V | 00:00:00 | 02:18:41 | 00:00:00 | |
| DF3TZ-5 | 2026-08-31 00:50:32 | 49.19407 | 10.17369 | 98° | 47km/h | 17873m | -6.9m/s | -53.8°C | 1.1% | 81.9hPa | 2.4V | 00:00:00 | 00:00:00 | 00:00:00 | |
| DL1NUX | 2026-08-31 00:50:29 | 49.19412 | 10.17338 | 105° | 33km/h | 17887m | -6.8m/s | -53.9°C | 4.2% | 81.8hPa | 2.4V | 08:08:15 | 02:18:32 | 00:00:00 | |
| DK7TD | 2026-08-31 00:50:27 | 49.19407 | 10.17369 | 99° | 49km/h | 17873m | -6.9m/s | -53.8°C | 0.4% | 81.9hPa | 2.6V | 08:08:14 | 02:18:34 | 00:00:00 | |
| DF8AY | 2026-08-31 00:50:25 | 49.19414 | 10.17327 | 104° | 24km/h | 17894m | -6.5m/s | -53.9°C | 0.5% | 81.7hPa | 2.4V | 08:09:56 | 02:18:31 | 00:00:00 | |
| HSKMA3-T | 2026-08-31 00:50:23 | 49.19415 | 10.17320 | 91° | 16km/h | 17900m | -6.3m/s | -54°C | 0.5% | 81.6hPa | 2.4V | 08:09:56 | 02:18:30 | 00:00:00 | |
| BIOWL1-15 | 2026-08-31 00:50:22 | 49.19290 | 10.17120 | 85° | 57km/h | 18007m | -7m/s | -54.1°C | 0.5% | 80.2hPa | 2.4V | 08:10:47 | 02:18:14 | 00:00:00 | |
| DO9HM | 2026-08-31 00:50:21 | 49.19411 | 10.17310 | 29° | 16km/h | 17913m | -6.3m/s | -54.0°C | 1.1% | 81.4hPa | 2.6V | 08:09:00 | 00:00:00 | 00:00:00 | |
| DB0ND-19 | 2026-08-31 00:50:20 | 49.19406 | 10.17308 | 15° | 22km/h | 17919m | -6.5m/s | -54.0°C | 1.1% | 81.3hPa | 2.6V | 00:00:00 | 00:00:00 | 00:00:00 | |
| DL1NUX | 2026-08-31 00:50:19 | 49.19357 | 10.17282 | 28° | 58km/h | 17954m | -7.5m/s | -54.2°C | 4.3% | 80.8hPa | 2.6V | 08:08:25 | 02:18:22 | 00:00:00 | |
| DK7TD | 2026-08-31 00:50:17 | 49.19381 | 10.17298 | 17° | 46km/h | 17940m | -7.3m/s | -54.1°C | 0.4% | 81.1hPa | 2.4V | 08:09:05 | 02:18:24 | 00:00:00 | |
| HSKMA3-T | 2026-08-31 00:50:11 | 49.19310 | 10.17214 | 59° | 69km/h | 17981m | -6m/s | -54.1°C | 0.5% | 80.6hPa | 2.4V | 08:09:56 | 02:18:18 | 00:00:00 | |
| DK7TD | 2026-08-31 00:50:06 | 49.19289 | 10.17099 | 90° | 51km/h | 18014m | -7m/s | -54°C | 0.5% | 80.2hPa | 2.4V | 08:09:05 | 02:18:13 | 00:00:00 | |
| HSKMA3-T | 2026-08-31 00:50:00 | 49.19291 | 10.17037 | 39° | 11km/h | 18054m | -6.5m/s | -54°C | 0.4% | 79.6hPa | 2.4V | 08:09:56 | 02:18:07 | 00:00:00 | |
| DL1NUX | 2026-08-31 00:49:59 | 49.19259 | 10.17028 | 16° | 44km/h | 18087m | -6.8m/s | -54°C | 4.2% | 79.2hPa | 2.4V | 08:08:45 | 02:18:02 | 00:00:00 | |
| BIOWL1-15 | 2026-08-31 00:49:59 | 49.19224 | 10.16999 | 40° | 60km/h | 18107m | -6.3m/s | -54.1°C | 0.5% | 79hPa | 2.4V | 08:10:47 | 02:17:59 | 00:00:00 | |
| DL6DJ-15 | 2026-08-31 00:49:58 | 49.19277 | 10.17033 | 5° | 29km/h | 18074m | -6.9m/s | -54.0°C | 1.1% | 79.4hPa | 2.4V | 00:00:00 | 00:00:00 | 00:00:00 | |
| DM0DOS-11 | 2026-08-31 00:49:57 | 49.19224 | 10.16999 | 39° | 60km/h | 18107m | -6.3m/s | -54.1°C | 4.3% | 79hPa | 2.4V | 08:08:48 | 02:17:59 | 00:00:00 | |
| DK7TD | 2026-08-31 00:49:56 | 49.19269 | 10.17032 | 10° | 37km/h | 18081m | -6.9m/s | -54°C | 0.5% | 79.3hPa | 2.6V | 08:09:05 | 02:18:03 | 00:00:00 | |
| DJ8HS-15 | 2026-08-31 00:49:55 | 49.19259 | 10.17028 | 17° | 42km/h | 18088m | -6.7m/s | -54.0°C | 4.2% | 79.2hPa | 2.6V | 00:00:00 | 02:18:02 | 00:00:00 | |
| DL1NUX | 2026-08-31 00:49:49 | 49.19182 | 10.16856 | 92° | 51km/h | 18154m | -7m/s | -54.3°C | 4.3% | 78.4hPa | 2.6V | 08:08:55 | 02:17:52 | 00:00:00 | |
| HSKMA3-T | 2026-08-31 00:49:49 | 49.19195 | 10.16943 | 63° | 64km/h | 18126m | -6.8m/s | -54.2°C | 0.5% | 78.7hPa | 2.4V | 08:09:56 | 02:17:56 | 00:00:00 | |
| OE5DXL-15 | 2026-08-31 00:49:49 | 49.19195 | 10.16943 | 64° | 44km/h | 18126m | -6.8m/s | -54.2°C | 4.2% | 78.7hPa | 2.4V | 00:00:00 | 00:00:00 | 00:00:00 | |
| DM0DOS-11 | 2026-08-31 00:49:47 | 49.19188 | 10.16811 | 111° | 27km/h | 18174m | -6.5m/s | -54.3°C | 4.3% | 78.2hPa | 2.4V | 08:08:58 | 02:17:49 | 00:00:00 | |
| DK7TD | 2026-08-31 00:49:46 | 49.19182 | 10.16876 | 86° | 55km/h | 18147m | -7m/s | -54.3°C | 0.4% | 78.5hPa | 2.4V | 08:09:05 | 02:17:53 | 00:00:00 | |
| DF8AY | 2026-08-31 00:49:44 | 49.19183 | 10.16838 | 100° | 44km/h | 18161m | -7m/s | -54.3°C | 0.5% | 78.3hPa | 2.6V | 08:09:56 | 02:17:51 | 00:00:00 | |
| BIOWL1-15 | 2026-08-31 00:49:44 | 49.19188 | 10.16811 | 111° | 27km/h | 18174m | -6.5m/s | -54.3°C | 0.6% | 78.2hPa | 2.4V | 08:10:47 | 02:17:49 | 00:00:00 | |
| DF9NV-10 | 2026-08-31 00:49:42 | 49.19186 | 10.16823 | 107° | 37km/h | 18168m | -6.7m/s | -54.3°C | 1.1% | 78.2hPa | 2.6V | 08:09:00 | 00:00:00 | 00:00:00 | |
| DO9HM | 2026-08-31 00:49:41 | 49.19190 | 10.16803 | 114° | 18km/h | 18181m | -6.6m/s | -54.3°C | 1.2% | 78.1hPa | 2.6V | 08:09:00 | 00:00:00 | 00:00:00 | |
| DB0NH | 2026-08-31 00:49:40 | 49.19191 | 10.16798 | 101° | 37km/h | 18187m | -6.4m/s | -54.3°C | 4.3% | 78.0hPa | 2.6V | 00:00:00 | 02:17:47 | 00:00:00 | |
| DL1ZP-14 | 2026-08-31 00:49:38 | 49.19189 | 10.16794 | 4° | 13km/h | 18200m | -6.4m/s | -54.4°C | 1.1% | 77.8hPa | 2.6V | 00:00:00 | 00:00:00 | 00:00:00 | |
| SO1NDE-10 | 2026-08-31 00:49:37 | 49.19184 | 10.16794 | 2° | 40km/h | 18207m | -6.7m/s | -54.3°C | 4.3% | 77.7hPa | 2.4V | 08:09:00 | 02:17:44 | 00:00:00 | |
| DM0DOS-11 | 2026-08-31 00:49:35 | 49.19137 | 10.16773 | 30° | 55km/h | 18241m | -6.9m/s | -54.6°C | 4.3% | 77.3hPa | 2.6V | 08:09:08 | 02:17:39 | 00:00:00 | |
| DK7TD | 2026-08-31 00:49:35 | 49.19170 | 10.16792 | 10° | 37km/h | 18221m | -6.9m/s | -54.4°C | 0.5% | 77.6hPa | 2.4V | 08:09:05 | 02:17:42 | 00:00:00 | |
| DO3MHA-11 | 2026-08-31 00:49:35 | 49.19170 | 10.16792 | 11° | 55km/h | 18221m | -6.8m/s | -54.4°C | 4.3% | 77.5hPa | 2.4V | 00:00:00 | 02:17:42 | 00:00:00 | |
| DB0UT-7 | 2026-08-31 00:49:34 | 49.19160 | 10.16788 | 17° | 42km/h | 18228m | -6.9m/s | -54.4°C | 4.3% | 77.5hPa | 2.4V | 00:00:00 | 02:17:41 | 00:00:00 | |
| OE5DRO-10 | 2026-08-31 00:49:31 | 49.19125 | 10.16760 | 39° | 38km/h | 18248m | -6.8m/s | -54.6°C | 4.3% | 77.2hPa | 2.4V | 00:00:00 | 00:00:00 | 00:00:00 | |
| DL1NUX | 2026-08-31 00:49:30 | 49.19083 | 10.16639 | 86° | 57km/h | 18288m | -6.5m/s | -54.9°C | 4.4% | 76.8hPa | 2.4V | 08:09:15 | 02:17:32 | 00:00:00 | |
| DK7TD | 2026-08-31 00:49:24 | 49.19083 | 10.16618 | 93° | 51km/h | 18295m | -6.8m/s | -54.9°C | 0.6% | 76.7hPa | 2.4V | 08:09:56 | 02:17:31 | 00:00:00 | |
| DM0DOS-11 | 2026-08-31 00:49:24 | 49.19087 | 10.16582 | 107° | 42km/h | 18308m | -6.8m/s | -55°C | 4.4% | 76.5hPa | 2.4V | 08:09:18 | 02:17:29 | 00:00:00 | |
| DF8AY | 2026-08-31 00:49:20 | 49.19095 | 10.16558 | 123° | 29km/h | 18322m | -7.2m/s | -55.1°C | 0.7% | 76.4hPa | 2.6V | 08:09:56 | 02:17:27 | 00:00:00 | |
| BIOWL1-15 | 2026-08-31 00:49:20 | 49.19098 | 10.16550 | 128° | 20km/h | 18329m | -7.1m/s | -55.1°C | 0.6% | 76.3hPa | 2.4V | 08:10:47 | 02:17:26 | 00:00:00 | |
| HSKMA3-T | 2026-08-31 00:49:20 | 49.19101 | 10.16545 | 133° | 13km/h | 18336m | -7.1m/s | -55.2°C | 0.7% | 76.2hPa | 2.4V | 08:09:56 | 02:17:25 | 00:00:00 | |
| OE5DXL-15 | 2026-08-31 00:49:19 | 49.19098 | 10.16550 | 129° | 35km/h | 18330m | -7.1m/s | -55.1°C | 4.5% | 76.2hPa | 2.6V | 00:00:00 | 00:00:00 | 00:00:00 | |
| DB0ND-19 | 2026-08-31 00:49:18 | 49.19101 | 10.16545 | 132° | 11km/h | 18337m | -7.1m/s | -55.2°C | 1.2% | 76.2hPa | 2.6V | 00:00:00 | 00:00:00 | 00:00:00 | |
| DL1NUX | 2026-08-31 00:49:17 | 49.19099 | 10.16542 | 1° | 15km/h | 18357m | -6.6m/s | -55.2°C | 4.6% | 75.9hPa | 2.6V | 08:09:25 | 02:17:22 | 00:00:00 | |
| DM0DOS-11 | 2026-08-31 00:49:15 | 49.19079 | 10.16535 | 21° | 40km/h | 18377m | -6.5m/s | -55.3°C | 4.6% | 75.7hPa | 2.4V | 08:09:28 | 02:17:19 | 00:00:00 | |
| DK7TD | 2026-08-31 00:49:14 | 49.19088 | 10.16539 | 14° | 31km/h | 18371m | -6.4m/s | -55.3°C | 0.6% | 75.8hPa | 2.4V | 08:09:56 | 02:17:20 | 00:00:00 | |
| OE5DRO-10 | 2026-08-31 00:49:12 | 49.19079 | 10.16535 | 22° | 42km/h | 18378m | -6.4m/s | -55.3°C | 4.6% | 75.7hPa | 2.4V | 00:00:00 | 00:00:00 | 00:00:00 | |
| DL1NUX | 2026-08-31 00:49:10 | 49.19022 | 10.16423 | 78° | 60km/h | 18425m | -6.8m/s | -55°C | 4.5% | 75.1hPa | 2.4V | 08:09:35 | 02:17:12 | 00:00:00 | |
| HSKMA3-T | 2026-08-31 00:49:08 | 49.19040 | 10.16486 | 54° | 58km/h | 18405m | -6.9m/s | -55.4°C | 0.7% | 75.4hPa | 2.6V | 08:09:56 | 02:17:15 | 00:00:00 | |
| BIOWL1-15 | 2026-08-31 00:49:08 | 49.19019 | 10.16400 | 86° | 60km/h | 18432m | -6.9m/s | -55°C | 0.6% | 75.1hPa | 2.4V | 08:10:47 | 02:17:11 | 00:00:00 | |
| SO1NDE-10 | 2026-08-31 00:49:07 | 49.19032 | 10.16467 | 63° | 42km/h | 18412m | -6.8m/s | -55.3°C | 4.7% | 75.2hPa | 2.4V | 00:00:00 | 02:17:14 | 00:00:00 | |
| DO3MHA-11 | 2026-08-31 00:49:05 | 49.19021 | 10.16423 | 79° | 42km/h | 18425m | -6.7m/s | -55.0°C | 4.5% | 75.1hPa | 2.4V | 08:09:00 | 02:17:12 | 00:00:00 | |
| DB0UT-7 | 2026-08-31 00:49:04 | 49.19019 | 10.16400 | 86° | 38km/h | 18432m | -6.9m/s | -54.9°C | 4.5% | 75.0hPa | 2.6V | 00:00:00 | 00:00:00 | 00:00:00 | |
| DM0DOS-11 | 2026-08-31 00:49:03 | 49.19021 | 10.16356 | 100° | 53km/h | 18446m | -6.7m/s | -54.8°C | 4.4% | 74.9hPa | 2.6V | 08:09:38 | 02:17:09 | 00:00:00 | |
| DK7TD | 2026-08-31 00:49:03 | 49.19019 | 10.16377 | 93° | 57km/h | 18439m | -6.8m/s | -54.9°C | 0.6% | 75hPa | 2.6V | 08:09:56 | 02:17:10 | 00:00:00 | |
| DF8AY | 2026-08-31 00:49:01 | 49.19024 | 10.16337 | 109° | 49km/h | 18453m | -6.8m/s | -54.7°C | 0.6% | 74.8hPa | 2.4V | 08:09:56 | 02:17:08 | 00:00:00 | |
| DF1GD-15 | 2026-08-31 00:49:00 | 49.19024 | 10.16337 | 110° | 49km/h | 18453m | -6.8m/s | -54.7°C | 1.2% | 74.8hPa | 2.4V | 08:09:00 | 00:00:00 | 00:00:00 | |
| DO9HM | 2026-08-31 00:48:59 | 49.19033 | 10.16308 | 125° | 37km/h | 18467m | -7.0m/s | -54.5°C | 1.2% | 74.7hPa | 2.4V | 08:09:00 | 00:00:00 | 00:00:00 | |
| DL1NUX | 2026-08-31 00:48:58 | 49.19048 | 10.16286 | 143° | 4km/h | 18494m | -6.9m/s | -54.7°C | 4.3% | 74.3hPa | 2.4V | 08:09:45 | 02:17:02 | 00:00:00 | |
| HSKMA3-T | 2026-08-31 00:48:58 | 49.19038 | 10.16298 | 131° | 29km/h | 18473m | -6.8m/s | -54.5°C | 0.5% | 74.6hPa | 2.4V | 08:09:56 | 02:17:05 | 00:00:00 | |
| BIOWL1-15 | 2026-08-31 00:48:54 | 49.19047 | 10.16285 | 352° | 7km/h | 18501m | -7.1m/s | -54.7°C | 0.5% | 74.3hPa | 2.4V | 08:10:47 | 02:17:01 | 00:00:00 | |
| DK7TD | 2026-08-31 00:48:52 | 49.19039 | 10.16286 | 5° | 24km/h | 18515m | -7m/s | -54.8°C | 0.5% | 74.1hPa | 2.4V | 08:09:56 | 02:16:59 | 00:00:00 | |
| DF8AY | 2026-08-31 00:48:51 | 49.19032 | 10.16284 | 12° | 33km/h | 18523m | -7.1m/s | -54.9°C | 0.5% | 74hPa | 2.6V | 08:09:56 | 02:16:58 | 00:00:00 | |
| HSKMA3-T | 2026-08-31 00:48:48 | 49.18994 | 10.16248 | 48° | 55km/h | 18551m | -6.9m/s | -55°C | 0.6% | 73.7hPa | 2.4V | 08:09:56 | 02:16:54 | 00:00:00 | |
| DB0ND-19 | 2026-08-31 00:48:47 | 49.18994 | 10.16248 | 47° | 55km/h | 18551m | -6.9m/s | -55.0°C | 1.1% | 73.7hPa | 2.4V | 00:00:00 | 00:00:00 | 00:00:00 | |
| DM0DOS-11 | 2026-08-31 00:48:45 | 49.18969 | 10.16146 | 91° | 55km/h | 18585m | -6.9m/s | -55°C | 4.4% | 73.3hPa | 2.4V | 08:09:58 | 02:16:49 | 00:00:00 | |
| DC4HF-4 | 2026-08-31 00:48:44 | 49.18973 | 10.16190 | 73° | 58km/h | 18572m | -6.8m/s | -55.0°C | 1.1% | 73.5hPa | 2.4V | 00:00:00 | 00:00:00 | 00:00:00 | |
| BIOWL1-15 | 2026-08-31 00:48:43 | 49.18970 | 10.16167 | 83° | 58km/h | 18578m | -6.5m/s | -55°C | 0.5% | 73.4hPa | 2.4V | 08:10:47 | 02:16:50 | 00:00:00 | |
| DF8AY | 2026-08-31 00:48:41 | 49.18971 | 10.16126 | 101° | 49km/h | 18592m | -6.6m/s | -55.1°C | 0.6% | 73.2hPa | 2.4V | 08:10:47 | 02:16:48 | 00:00:00 | |
| DB0NH | 2026-08-31 00:48:40 | 49.18973 | 10.16108 | 111° | 31km/h | 18599m | -6.6m/s | -55.1°C | 4.5% | 73.1hPa | 2.4V | 00:00:00 | 02:16:47 | 00:00:00 | |
| DF1GD-15 | 2026-08-31 00:48:39 | 49.18973 | 10.16108 | 111° | 44km/h | 18599m | -6.6m/s | -55.1°C | 1.2% | 73.2hPa | 2.4V | 08:10:00 | 00:00:00 | 00:00:00 | |
| DL1NUX | 2026-08-31 00:48:38 | 49.18995 | 10.16070 | 177° | 9km/h | 18632m | -7m/s | -55.3°C | 4.5% | 72.8hPa | 2.4V | 08:10:05 | 02:16:42 | 00:00:00 | |
| HSKMA3-T | 2026-08-31 00:48:36 | 49.18992 | 10.16071 | 154° | 16km/h | 18625m | -6.9m/s | -55.3°C | 0.6% | 72.8hPa | 2.4V | 08:10:47 | 02:16:43 | 00:00:00 | |
| BIOWL1-15 | 2026-08-31 00:48:34 | 49.18973 | 10.16081 | 8° | 38km/h | 18676m | -7.3m/s | -55.6°C | 0.6% | 72.2hPa | 2.4V | 08:10:47 | 02:16:36 | 00:00:00 | |
| DM0DOS-11 | 2026-08-31 00:48:33 | 49.18993 | 10.16076 | 329° | 16km/h | 18654m | -7.3m/s | -55.5°C | 4.5% | 72.5hPa | 2.6V | 08:10:08 | 02:16:39 | 00:00:00 | |
| DK7TD | 2026-08-31 00:48:30 | 49.18982 | 10.16081 | 356° | 31km/h | 18669m | -7.3m/s | -55.6°C | 0.7% | 72.3hPa | 2.4V | 08:11:38 | 02:16:37 | 00:00:00 | |
| DK5PH-5 | 2026-08-31 00:48:29 | 49.18973 | 10.16081 | 8° | 40km/h | 18676m | -7.3m/s | -55.6°C | 4.6% | 72.2hPa | 2.4V | 00:00:00 | 02:16:36 | 00:00:00 | |
| DL1NUX | 2026-08-31 00:48:28 | 49.18933 | 10.16045 | 49° | 55km/h | 18703m | -6.9m/s | -55.7°C | 4.6% | 71.9hPa | 2.4V | 08:10:15 | 02:16:32 | 00:00:00 | |
| HSKMA3-T | 2026-08-31 00:48:26 | 49.18933 | 10.16045 | 50° | 55km/h | 18703m | -6.9m/s | -55.7°C | 0.6% | 71.9hPa | 2.4V | 08:10:47 | 02:16:32 | 00:00:00 | |
| BIOWL1-15 | 2026-08-31 00:48:21 | 49.18913 | 10.15969 | 87° | 47km/h | 18733m | -7.7m/s | -55.8°C | 0.7% | 71.6hPa | 2.6V | 08:10:47 | 02:16:28 | 00:00:00 | |
| DK7TD | 2026-08-31 00:48:20 | 49.18913 | 10.15952 | 97° | 42km/h | 18740m | -7.1m/s | -55.8°C | 0.7% | 71.5hPa | 2.6V | 08:11:38 | 02:16:27 | 00:00:00 | |
| DF8AY | 2026-08-31 00:48:19 | 49.18926 | 10.15919 | 231° | 5km/h | 18773m | -7.1m/s | -55.9°C | 0.8% | 71.2hPa | 2.6V | 08:10:47 | 02:16:22 | 00:00:00 | |
| DF9NV-10 | 2026-08-31 00:48:19 | 49.18913 | 10.15952 | 98° | 42km/h | 18740m | -7.1m/s | -55.8°C | 1.3% | 71.5hPa | 2.6V | 08:10:00 | 00:00:00 | 00:00:00 | |
| DL1NUX | 2026-08-31 00:48:18 | 49.18926 | 10.15919 | 230° | 5km/h | 18773m | -7m/s | -55.9°C | 4.9% | 71.2hPa | 2.6V | 08:10:25 | 02:16:22 | 00:00:00 | |
| HSKMA3-T | 2026-08-31 00:48:15 | 49.18926 | 10.15922 | 294° | 9km/h | 18780m | -7.2m/s | -55.9°C | 0.8% | 71.1hPa | 2.6V | 08:10:47 | 02:16:21 | 00:00:00 | |
| BIOWL1-15 | 2026-08-31 00:48:13 | 49.18913 | 10.15931 | 352° | 29km/h | 18802m | -6.9m/s | -55.6°C | 0.8% | 70.8hPa | 2.4V | 08:10:47 | 02:16:18 | 00:00:00 | |
| SONCRA | 2026-08-31 00:48:12 | 49.18920 | 10.15929 | 338° | 22km/h | 18795m | -7.4m/s | -55.7°C | 1.2% | 70.9hPa | 2.4V | 00:00:00 | 00:00:00 | 00:00:00 | |
| DL1NUX | 2026-08-31 00:48:10 | 49.18857 | 10.15884 | 54° | 55km/h | 18842m | -6.8m/s | -54.9°C | 4.7% | 70.4hPa | 2.4V | 08:10:35 | 02:16:12 | 00:00:00 | |
| DF8AY | 2026-08-31 00:48:08 | 49.18886 | 10.15923 | 26° | 46km/h | 18822m | -6.4m/s | -55.3°C | 0.8% | 70.6hPa | 2.6V | 08:10:47 | 02:16:15 | 00:00:00 | |
| DK7TD | 2026-08-31 00:48:06 | 49.18865 | 10.15900 | 45° | 53km/h | 18835m | -6.5m/s | -55°C | 0.7% | 70.5hPa | 2.4V | 08:11:38 | 02:16:13 | 00:00:00 | |
| DM0DOS-11 | 2026-08-31 00:48:05 | 49.18840 | 10.15825 | 78° | 57km/h | 18863m | -7.4m/s | -54.5°C | 4.5% | 70.2hPa | 2.6V | 08:10:38 | 02:16:09 | 00:00:00 | |
| HSKMA3-T | 2026-08-31 00:48:05 | 49.18849 | 10.15866 | 63° | 57km/h | 18849m | -7.2m/s | -54.8°C | 0.6% | 70.3hPa | 2.4V | 08:10:47 | 02:16:11 | 00:00:00 | |
| BIOWL1-15 | 2026-08-31 00:48:00 | 49.18839 | 10.15782 | 95° | 55km/h | 18878m | -7.3m/s | -54.1°C | 0.5% | 70hPa | 2.4V | 08:10:47 | 02:16:07 | 00:00:00 | |
| DK5PH-5 | 2026-08-31 00:47:59 | 49.18841 | 10.15761 | 103° | 35km/h | 18886m | -7.4m/s | -54.1°C | 4.4% | 69.9hPa | 2.4V | 00:00:00 | 02:16:06 | 00:00:00 | |
| DL1NUX | 2026-08-31 00:47:58 | 49.18859 | 10.15705 | 133° | 29km/h | 18913m | -6.5m/s | -54°C | 4.4% | 69.7hPa | 2.4V | 08:10:45 | 02:16:02 | 00:00:00 | |
| DF8AY | 2026-08-31 00:47:58 | 49.18868 | 10.15694 | 153° | 15km/h | 18926m | -6.8m/s | -54°C | 0.5% | 69.5hPa | 2.4V | 08:10:47 | 02:16:00 | 00:00:00 | |
| DK7TD | 2026-08-31 00:47:56 | 49.18854 | 10.15714 | 126° | 37km/h | 18906m | -6.5m/s | -54.1°C | 0.6% | 69.7hPa | 2.6V | 08:11:38 | 02:16:03 | 00:00:00 | |
| HSKMA3-T | 2026-08-31 00:47:54 | 49.18864 | 10.15698 | 143° | 22km/h | 18919m | -6.5m/s | -54°C | 0.5% | 69.6hPa | 2.4V | 08:10:47 | 02:16:01 | 00:00:00 | |
| DL6DJ-15 | 2026-08-31 00:47:54 | 49.18868 | 10.15694 | 152° | 13km/h | 18926m | -6.8m/s | -54.0°C | 1.1% | 69.5hPa | 2.5V | 00:00:00 | 00:00:00 | 00:00:00 | |
| DM0DOS-11 | 2026-08-31 00:47:53 | 49.18870 | 10.15693 | 164° | 7km/h | 18933m | -7m/s | -54°C | 4.4% | 69.4hPa | 2.5V | 08:10:48 | 02:15:59 | 00:00:00 | |
| BIOWL1-15 | 2026-08-31 00:47:50 | 49.18862 | 10.15695 | 3° | 24km/h | 18963m | -7.7m/s | -53.7°C | 0.5% | 69.1hPa | 2.4V | 08:12:29 | 02:15:55 | 00:00:00 | |
| NBG1-10 | 2026-08-31 00:47:50 | 49.18870 | 10.15694 | 341° | 38km/h | 18948m | -7.4m/s | -53.9°C | 4.3% | 69.2hPa | 2.6V | 08:10:00 | 02:15:57 | 00:00:00 | |
| OE5DXL-15 | 2026-08-31 00:47:49 | 49.18867 | 10.15695 | 355° | 38km/h | 18956m | -7.6m/s | -53.7°C | 4.3% | 69.1hPa | 2.6V | 00:00:00 | 00:00:00 | 00:00:00 | |
| DL1NUX | 2026-08-31 00:47:48 | 49.18836 | 10.15682 | 29° | 46km/h | 18986m | -7.4m/s | -53.3°C | 4.1% | 68.8hPa | 2.6V | 08:10:55 | 02:15:52 | 00:00:00 | |
| DM0DOS-11 | 2026-08-31 00:47:45 | 49.18808 | 10.15640 | 56° | 58km/h | 19007m | -7.2m/s | -53.2°C | 4% | 68.6hPa | 2.4V | 08:10:58 | 02:15:49 | 00:00:00 | |
| HSKMA3-T | 2026-08-31 00:47:44 | 49.18826 | 10.15672 | 39° | 51km/h | 18993m | -7.2m/s | -53.3°C | 0.4% | 68.8hPa | 2.6V | 08:11:38 | 02:15:51 | 00:00:00 | |
| DK7TD | 2026-08-31 00:47:41 | 49.18801 | 10.15620 | 66° | 60km/h | 19015m | -7.2m/s | -53.2°C | 0.4% | 68.5hPa | 2.4V | 08:11:38 | 02:15:48 | 00:00:00 | |
| DB0NH | 2026-08-31 00:47:40 | 49.18796 | 10.15599 | 76° | 37km/h | 19022m | -7.2m/s | -53.1°C | 4.0% | 68.4hPa | 2.4V | 00:00:00 | 02:15:47 | 00:00:00 | |
| DM7RM-13 | 2026-08-31 00:47:39 | 49.18796 | 10.15599 | 77° | 58km/h | 19022m | -7.3m/s | -53.2°C | 1.0% | 68.5hPa | 2.4V | 08:11:00 | 00:00:00 | 00:00:00 | |
| DL1NUX | 2026-08-31 00:47:38 | 49.18803 | 10.15505 | 123° | 37km/h | 19058m | -6.8m/s | -53.3°C | 4% | 68.1hPa | 2.4V | 08:11:05 | 02:15:42 | 00:00:00 | |
| BIOWL1-15 | 2026-08-31 00:47:38 | 49.18793 | 10.15555 | 94° | 55km/h | 19037m | -7.4m/s | -53.2°C | 0.3% | 68.3hPa | 2.6V | 08:12:29 | 02:15:45 | 00:00:00 | |
| HSKMA3-T | 2026-08-31 00:47:34 | 49.18809 | 10.15495 | 136° | 29km/h | 19065m | -7.1m/s | -53.3°C | 0.3% | 68hPa | 2.5V | 08:11:38 | 02:15:41 | 00:00:00 | |
| DM0DOS-11 | 2026-08-31 00:47:33 | 49.18818 | 10.15487 | 167° | 15km/h | 19080m | -7.2m/s | -53.4°C | 4% | 67.8hPa | 2.6V | 08:11:08 | 02:15:39 | 00:00:00 | |
| BIOWL1-15 | 2026-08-31 00:47:32 | 49.18816 | 10.15496 | 335° | 20km/h | 19110m | -7.5m/s | -53.6°C | 0.4% | 67.5hPa | 2.5V | 08:12:29 | 02:15:35 | 00:00:00 | |
| DF8AY | 2026-08-31 00:47:30 | 49.18821 | 10.15489 | 277° | 7km/h | 19095m | -7.4m/s | -53.5°C | 0.3% | 67.7hPa | 2.4V | 08:11:38 | 02:15:37 | 00:00:00 | |
| HSKMA3-T | 2026-08-31 00:47:24 | 49.18771 | 10.15484 | 33° | 51km/h | 19146m | -7.2m/s | -53.9°C | 0.4% | 67.1hPa | 2.4V | 08:11:38 | 02:15:30 | 00:00:00 | |
| DM0DOS-11 | 2026-08-31 00:47:23 | 49.18761 | 10.15471 | 42° | 55km/h | 19153m | -7.1m/s | -53.9°C | 4.1% | 67.1hPa | 2.4V | 08:11:18 | 02:15:29 | 00:00:00 | |
| DK7TD | 2026-08-31 00:47:20 | 49.18744 | 10.15438 | 62° | 55km/h | 19168m | -7.4m/s | -54°C | 0.4% | 66.9hPa | 2.6V | 08:11:38 | 02:15:27 | 00:00:00 | |
| HSKMA3-T | 2026-08-31 00:47:13 | 49.18750 | 10.15333 | 143° | 26km/h | 19218m | -7.3m/s | -54.2°C | 0.5% | 66.4hPa | 2.4V | 08:11:38 | 02:15:20 | 00:00:00 | |
| DK7TD | 2026-08-31 00:47:09 | 49.18766 | 10.15333 | 247° | 15km/h | 19248m | -7.5m/s | -54.4°C | 0.5% | 66.1hPa | 2.6V | 08:11:38 | 02:15:16 | 00:00:00 | |
| DL1XH-west | 2026-08-31 00:47:07 | 49.18765 | 10.15347 | 296° | 24km/h | 19263m | -7.6m/s | -54.4°C | 0.5% | 65.9hPa | 2.4V | 08:11:38 | 02:15:14 | 00:00:00 | |
| DM0DOS-11 | 2026-08-31 00:47:05 | 49.18726 | 10.15374 | 4° | 46km/h | 19301m | -7.4m/s | -54.4°C | 4.4% | 65.5hPa | 2.6V | 08:11:38 | 02:15:09 | 00:00:00 | |
| HSKMA3-T | 2026-08-31 00:47:02 | 49.18727 | 10.15374 | 4° | 46km/h | 19301m | -7.4m/s | -54.4°C | 0.6% | 65.5hPa | 2.6V | 08:11:38 | 02:15:09 | 00:00:00 | |
| DF8AY | 2026-08-31 00:46:59 | 49.18675 | 10.15310 | 73° | 40km/h | 19346m | -7.6m/s | -54.6°C | 0.6% | 65.1hPa | 2.6V | 08:12:29 | 02:15:03 | 00:00:00 | |
| DK7TD | 2026-08-31 00:46:59 | 49.18694 | 10.15353 | 39° | 49km/h | 19323m | -7.3m/s | -54.5°C | 0.5% | 65.3hPa | 2.5V | 08:12:29 | 02:15:06 | 00:00:00 | |
| DC4HF-4 | 2026-08-31 00:46:56 | 49.18675 | 10.15310 | 73° | 40km/h | 19346m | -7.6m/s | -54.6°C | 1.1% | 65.1hPa | 2.6V | 00:00:00 | 00:00:00 | 00:00:00 | |
| DF3TZ-5 | 2026-08-31 00:46:55 | 49.18673 | 10.15284 | 100° | 27km/h | 19361m | -7.4m/s | -54.6°C | 1.1% | 65.0hPa | 2.6V | 00:00:00 | 00:00:00 | 00:00:00 | |
| DM0DOS-11 | 2026-08-31 00:46:53 | 49.18678 | 10.15269 | 145° | 15km/h | 19375m | -6.9m/s | -54.6°C | 4.4% | 64.8hPa | 2.6V | 08:11:48 | 02:14:59 | 00:00:00 | |
| DL1XH-west | 2026-08-31 00:46:52 | 49.18678 | 10.15269 | 145° | 15km/h | 19376m | -6.9m/s | -54.6°C | 0.6% | 64.8hPa | 2.6V | 08:12:29 | 02:14:59 | 00:00:00 | |
| HSKMA3-T | 2026-08-31 00:46:52 | 49.18681 | 10.15268 | 193° | 11km/h | 19383m | -7.3m/s | -54.6°C | 0.6% | 64.7hPa | 2.6V | 08:12:29 | 02:14:58 | 00:00:00 | |
| DF8AY | 2026-08-31 00:46:49 | 49.18684 | 10.15277 | 274° | 18km/h | 19397m | -7.2m/s | -54.4°C | 0.6% | 64.6hPa | 2.4V | 08:12:29 | 02:14:56 | 00:00:00 | |
| DK7TD | 2026-08-31 00:46:48 | 49.18682 | 10.15285 | 293° | 26km/h | 19404m | -7.3m/s | -54.4°C | 0.6% | 64.5hPa | 2.4V | 08:12:29 | 02:14:55 | 00:00:00 | |
| DL1NUX | 2026-08-31 00:46:48 | 49.18664 | 10.15313 | 329° | 44km/h | 19426m | -7.4m/s | -54.4°C | 4.3% | 64.3hPa | 2.6V | 08:11:55 | 02:14:52 | 00:00:00 | |
| DB0UT-7 | 2026-08-31 00:46:46 | 49.18673 | 10.15304 | 320° | 40km/h | 19419m | -7.2m/s | -54.3°C | 4.3% | 64.3hPa | 2.6V | 08:11:00 | 00:00:00 | 00:00:00 | |
| DO3MHA-11 | 2026-08-31 00:46:45 | 49.18664 | 10.15313 | 330° | 51km/h | 19426m | -7.4m/s | -54.3°C | 4.3% | 64.2hPa | 2.4V | 00:00:00 | 02:14:52 | 00:00:00 | |
| NBG1-10 | 2026-08-31 00:46:44 | 49.18653 | 10.15320 | 340° | 42km/h | 19434m | -7.4m/s | -54.3°C | 4.3% | 64.2hPa | 2.4V | 00:00:00 | 02:14:51 | 00:00:00 | |
| DM0DOS-11 | 2026-08-31 00:46:43 | 49.18628 | 10.15328 | 358° | 55km/h | 19448m | -7.4m/s | -54.4°C | 4.3% | 64hPa | 2.4V | 08:11:58 | 02:14:49 | 00:00:00 | |
| BIOWL1-15 | 2026-08-31 00:46:42 | 49.18587 | 10.15313 | 28° | 55km/h | 19470m | -7.1m/s | -54.5°C | 0.5% | 63.8hPa | 2.6V | 08:12:29 | 02:14:46 | 00:00:00 | |
| DL1XH-west | 2026-08-31 00:46:42 | 49.18614 | 10.15326 | 9° | 57km/h | 19456m | -7.3m/s | -54.4°C | 0.5% | 64hPa | 2.5V | 08:12:29 | 02:14:48 | 00:00:00 | |
| DK7TD | 2026-08-31 00:46:38 | 49.18576 | 10.15301 | 38° | 53km/h | 19477m | -7m/s | -54.6°C | 0.6% | 63.8hPa | 2.4V | 08:12:29 | 02:14:45 | 00:00:00 | |
| DL1XH-west | 2026-08-31 00:46:31 | 49.18553 | 10.15214 | 129° | 16km/h | 19529m | -7.4m/s | -54.8°C | 0.5% | 63.2hPa | 2.4V | 08:12:29 | 02:14:38 | 00:00:00 | |
| HSKMA3-T | 2026-08-31 00:46:30 | 49.18556 | 10.15211 | 169° | 11km/h | 19537m | -7.4m/s | -54.8°C | 0.6% | 63.2hPa | 2.5V | 08:12:29 | 02:14:37 | 00:00:00 | |
| DL1NUX | 2026-08-31 00:46:30 | 49.18551 | 10.15243 | 316° | 37km/h | 19575m | -7.6m/s | -54.9°C | 4.4% | 62.8hPa | 2.4V | 08:12:15 | 02:14:32 | 00:00:00 | |
| BIOWL1-15 | 2026-08-31 00:46:28 | 49.18533 | 10.15260 | 339° | 47km/h | 19589m | -7.5m/s | -54.9°C | 0.6% | 62.7hPa | 2.5V | 08:12:29 | 02:14:30 | 00:00:00 | |
| DK7TD | 2026-08-31 00:46:27 | 49.18559 | 10.15224 | 286° | 22km/h | 19559m | -7.5m/s | -54.8°C | 0.6% | 62.9hPa | 2.6V | 08:12:29 | 02:14:34 | 00:00:00 | |
| DL1XH-west | 2026-08-31 00:46:20 | 49.18493 | 10.15266 | 9° | 57km/h | 19612m | -7.7m/s | -54.9°C | 0.5% | 62.4hPa | 2.5V | 08:12:29 | 02:14:27 | 00:00:00 | |
| HSKMA3-T | 2026-08-31 00:46:19 | 49.18480 | 10.15261 | 19° | 57km/h | 19620m | -7.9m/s | -55°C | 0.5% | 62.3hPa | 2.5V | 08:12:29 | 02:14:26 | 00:00:00 | |
| OE5DXL-15 | 2026-08-31 00:46:19 | 49.18480 | 10.15261 | 19° | 40km/h | 19620m | -7.8m/s | -54.9°C | 4.4% | 62.3hPa | 2.6V | 00:00:00 | 00:00:00 | 00:00:00 | |
| DL1NUX | 2026-08-31 00:46:18 | 49.18438 | 10.15211 | 59° | 46km/h | 19650m | -7.7m/s | -55.2°C | 4.4% | 62hPa | 2.6V | 08:12:25 | 02:14:22 | 00:00:00 | |
| DK7TD | 2026-08-31 00:46:17 | 49.18455 | 10.15240 | 39° | 55km/h | 19635m | -7.8m/s | -55.1°C | 0.6% | 62.2hPa | 2.5V | 08:12:29 | 02:14:24 | 00:00:00 | |
| DF8AY | 2026-08-31 00:46:16 | 49.18445 | 10.15226 | 49° | 51km/h | 19643m | -7.6m/s | -55.2°C | 0.6% | 62.1hPa | 2.6V | 08:12:29 | 02:14:23 | 00:00:00 | |
| BIOWL1-15 | 2026-08-31 00:46:13 | 49.18431 | 10.15183 | 84° | 33km/h | 19665m | -7.4m/s | -55.3°C | 0.6% | 61.9hPa | 2.4V | 08:12:29 | 02:14:20 | 00:00:00 | |
| DL1XH-west | 2026-08-31 00:46:10 | 49.18435 | 10.15157 | 142° | 15km/h | 19688m | -7.5m/s | -55.4°C | 0.6% | 61.7hPa | 2.6V | 08:13:20 | 02:14:17 | 00:00:00 | |
| HSKMA3-T | 2026-08-31 00:46:09 | 49.18440 | 10.15158 | 234° | 13km/h | 19703m | -8m/s | -55.5°C | 0.7% | 61.5hPa | 2.4V | 08:13:20 | 02:14:15 | 00:00:00 | |
| DL1NUX | 2026-08-31 00:46:08 | 49.18438 | 10.15180 | 302° | 31km/h | 19727m | -7.7m/s | -55.7°C | 4.7% | 61.3hPa | 2.4V | 08:12:35 | 02:14:12 | 00:00:00 | |
| DK7TD | 2026-08-31 00:46:06 | 49.18440 | 10.15171 | 287° | 24km/h | 19719m | -8m/s | -55.6°C | 0.7% | 61.4hPa | 2.5V | 08:13:20 | 02:14:13 | 00:00:00 | |
| BIOWL1-15 | 2026-08-31 00:46:02 | 49.18413 | 10.15207 | 340° | 49km/h | 19750m | -7.5m/s | -55.8°C | 0.7% | 61.1hPa | 2.5V | 08:13:20 | 02:14:09 | 00:00:00 | |
| DL1XH-west | 2026-08-31 00:46:00 | 49.18387 | 10.15213 | 2° | 57km/h | 19765m | -7.8m/s | -55.9°C | 0.8% | 61hPa | 2.5V | 08:13:20 | 02:14:07 | 00:00:00 | |
| DL1NUX | 2026-08-31 00:45:58 | 49.18325 | 10.15166 | 52° | 55km/h | 19804m | -8.2m/s | -55.7°C | 4.7% | 60.6hPa | 2.5V | 08:12:45 | 02:14:02 | 00:00:00 | |
| HSKMA3-T | 2026-08-31 00:45:58 | 49.18346 | 10.15194 | 32° | 58km/h | 19788m | -7.8m/s | -55.8°C | 0.8% | 60.7hPa | 2.4V | 08:13:20 | 02:14:04 | 00:00:00 | |
| DK7TD | 2026-08-31 00:45:56 | 49.18334 | 10.15181 | 42° | 57km/h | 19796m | -8.1m/s | -55.8°C | 0.8% | 60.6hPa | 2.4V | 08:13:20 | 02:14:03 | 00:00:00 | |
| DF8AY | 2026-08-31 00:45:55 | 49.18325 | 10.15166 | 52° | 55km/h | 19804m | -8.3m/s | -55.7°C | 0.7% | 60.6hPa | 2.5V | 08:13:20 | 02:14:02 | 00:00:00 | |
| DJ8HS-15 | 2026-08-31 00:45:55 | 49.18325 | 10.15166 | 53° | 40km/h | 19805m | -8.2m/s | -55.7°C | 4.7% | 60.5hPa | 2.6V | 00:00:00 | 02:14:02 | 00:00:00 | |
| DM0DOS-11 | 2026-08-31 00:45:53 | 49.18311 | 10.15115 | 84° | 40km/h | 19828m | -8.1m/s | -55.7°C | 4.8% | 60.4hPa | 2.6V | 08:12:48 | 02:13:59 | 00:00:00 | |
| BIOWL1-15 | 2026-08-31 00:45:52 | 49.18312 | 10.15090 | 111° | 26km/h | 19844m | -8.1m/s | -55.7°C | 0.8% | 60.2hPa | 2.4V | 08:13:20 | 02:13:57 | 00:00:00 | |
| DL1XH-west | 2026-08-31 00:45:49 | 49.18318 | 10.15079 | 155° | 11km/h | 19860m | -7.8m/s | -55.6°C | 0.7% | 60hPa | 2.5V | 08:13:20 | 02:13:55 | 00:00:00 | |
| OE5DXL-15 | 2026-08-31 00:45:49 | 49.18315 | 10.15082 | 128° | 37km/h | 19853m | -7.9m/s | -55.6°C | 4.8% | 60.1hPa | 2.5V | 00:00:00 | 00:00:00 | 00:00:00 | |
| DL1NUX | 2026-08-31 00:45:48 | 49.18318 | 10.15087 | 310° | 20km/h | 19883m | -7.7m/s | -55.4°C | 4.7% | 59.8hPa | 2.4V | 08:12:55 | 02:13:52 | 00:00:00 | |
| DK7TD | 2026-08-31 00:45:46 | 49.18320 | 10.15082 | 285° | 11km/h | 19876m | -7.7m/s | -55.5°C | 0.8% | 59.9hPa | 2.6V | 08:13:20 | 02:13:53 | 00:00:00 | |
| DF8AY | 2026-08-31 00:45:45 | 49.18313 | 10.15092 | 327° | 27km/h | 19891m | -7.8m/s | -55.4°C | 0.8% | 59.8hPa | 2.5V | 08:13:20 | 02:13:51 | 00:00:00 | |
| DC4HF-4 | 2026-08-31 00:45:44 | 49.18313 | 10.15092 | 326° | 26km/h | 19891m | -7.8m/s | -55.4°C | 1.2% | 59.8hPa | 2.5V | 00:00:00 | 00:00:00 | 00:00:00 | |
| DM0DOS-11 | 2026-08-31 00:45:43 | 49.18297 | 10.15101 | 352° | 40km/h | 19906m | -7.6m/s | -55.4°C | 4.8% | 59.6hPa | 2.5V | 08:12:58 | 02:13:49 | 00:00:00 | |
| DL1XH-west | 2026-08-31 00:45:38 | 49.18236 | 10.15069 | 40° | 60km/h | 19943m | -7.8m/s | -55°C | 0.7% | 59.3hPa | 2.5V | 08:13:20 | 02:13:44 | 00:00:00 | |
| DL1NUX | 2026-08-31 00:45:38 | 49.18216 | 10.15034 | 55° | 62km/h | 19959m | -8.2m/s | -54.9°C | 4.6% | 59.1hPa | 2.6V | 08:13:05 | 02:13:42 | 00:00:00 | |
| DK7TD | 2026-08-31 00:45:35 | 49.18215 | 10.15034 | 55° | 62km/h | 19959m | -8.2m/s | -54.9°C | 0.7% | 59.1hPa | 2.6V | 08:13:20 | 02:13:42 | 00:00:00 | |
| DF8AY | 2026-08-31 00:45:33 | 49.18202 | 10.14992 | 72° | 60km/h | 19975m | -7.9m/s | -54.8°C | 0.6% | 59hPa | 2.4V | 08:13:20 | 02:13:40 | 00:00:00 | |
| DM0DOS-11 | 2026-08-31 00:45:33 | 49.18198 | 10.14970 | 80° | 57km/h | 19983m | -7.8m/s | -54.8°C | 4.5% | 58.9hPa | 2.5V | 08:13:08 | 02:13:39 | 00:00:00 | |
| DF1GD-15 | 2026-08-31 00:45:32 | 49.18202 | 10.14992 | 73° | 60km/h | 19975m | -7.9m/s | -54.8°C | 1.1% | 59.0hPa | 2.6V | 08:13:00 | 00:00:00 | 00:00:00 | |
| DF7PN | 2026-08-31 00:45:31 | 49.18197 | 10.14949 | 89° | 53km/h | 19991m | -7.6m/s | -54.7°C | 1.1% | 58.8hPa | 2.6V | 00:00:00 | 00:00:00 | 00:00:00 | |
| DL1ZP-14 | 2026-08-31 00:45:30 | 49.18201 | 10.14911 | 108° | 46km/h | 20006m | -7.8m/s | -54.6°C | 1.1% | 58.7hPa | 2.6V | 00:00:00 | 00:00:00 | 00:00:00 | |
| DL1NUX | 2026-08-31 00:45:28 | 49.18224 | 10.14864 | 149° | 27km/h | 20039m | -8.6m/s | -54.5°C | 4.5% | 58.4hPa | 2.5V | 08:13:15 | 02:13:32 | 00:00:00 | |
| DL1XH-west | 2026-08-31 00:45:28 | 49.18205 | 10.14895 | 118° | 44km/h | 20014m | -8.1m/s | -54.5°C | 0.6% | 58.6hPa | 2.6V | 08:13:20 | 02:13:35 | 00:00:00 | |
| DK7TD | 2026-08-31 00:45:25 | 49.18224 | 10.14864 | 149° | 27km/h | 20039m | -8.6m/s | -54.5°C | 0.7% | 58.4hPa | 2.5V | 08:13:20 | 02:13:32 | 00:00:00 | |
| HSKMA3-T | 2026-08-31 00:45:24 | 49.18229 | 10.14860 | 163° | 22km/h | 20047m | -8.4m/s | -54.5°C | 0.7% | 58.3hPa | 2.6V | 08:13:20 | 02:13:31 | 00:00:00 | |
| DF8AY | 2026-08-31 00:45:23 | 49.18234 | 10.14859 | 183° | 15km/h | 20056m | -8.1m/s | -54.5°C | 0.7% | 58.2hPa | 2.6V | 08:13:20 | 02:13:30 | 00:00:00 | |
| DL1XH1-15 | 2026-08-31 00:45:23 | 49.18237 | 10.14860 | 220° | 9km/h | 20063m | -7.8m/s | -54.5°C | 4.6% | 58.1hPa | 2.4V | 08:13:18 | 02:13:29 | 00:00:00 | |
| BIOWL1-15 | 2026-08-31 00:45:19 | 49.18165 | 10.14794 | 70° | 55km/h | 20152m | -8.3m/s | -54.1°C | 0.6% | 57.4hPa | 2.6V | 08:15:02 | 02:13:18 | 00:00:00 | |
| OE5DXL-15 | 2026-08-31 00:45:19 | 49.18231 | 10.14868 | 347° | 38km/h | 20087m | -7.7m/s | -54.3°C | 4.5% | 57.9hPa | 2.4V | 00:00:00 | 00:00:00 | 00:00:00 | |
| DL1NUX | 2026-08-31 00:45:18 | 49.18197 | 10.14856 | 31° | 47km/h | 20118m | -8.4m/s | -54.2°C | 4.5% | 57.7hPa | 2.4V | 08:13:25 | 02:13:22 | 00:00:00 | |
| DL1XH-west | 2026-08-31 00:45:18 | 49.18225 | 10.14869 | 1° | 29km/h | 20094m | -7.9m/s | -54.3°C | 0.6% | 57.9hPa | 2.6V | 08:14:11 | 02:13:25 | 00:00:00 | |
| DK7TD | 2026-08-31 00:45:16 | 49.18197 | 10.14856 | 32° | 47km/h | 20118m | -8.4m/s | -54.2°C | 0.7% | 57.7hPa | 2.4V | 08:14:11 | 02:13:22 | 00:00:00 | |
| HSKMA3-T | 2026-08-31 00:45:13 | 49.18178 | 10.14830 | 50° | 53km/h | 20135m | -8.6m/s | -54.1°C | 0.6% | 57.5hPa | 2.5V | 08:14:11 | 02:13:20 | 00:00:00 | |
| DF8AY | 2026-08-31 00:45:12 | 49.18171 | 10.14813 | 60° | 55km/h | 20144m | -8.3m/s | -54.1°C | 0.6% | 57.4hPa | 2.6V | 08:14:11 | 02:13:19 | 00:00:00 | |
| DL1XH-west | 2026-08-31 00:45:07 | 49.18166 | 10.14717 | 115° | 46km/h | 20183m | -7.5m/s | -53.8°C | 0.6% | 57.1hPa | 2.5V | 08:14:11 | 02:13:14 | 00:00:00 | |
| DF8AY | 2026-08-31 00:45:06 | 49.18207 | 10.14682 | 205° | 26km/h | 20232m | -8.5m/s | -53.2°C | 0.5% | 56.6hPa | 2.5V | 08:14:11 | 02:13:08 | 00:00:00 | |
| DK7TD | 2026-08-31 00:45:05 | 49.18186 | 10.14684 | 153° | 35km/h | 20207m | -8.3m/s | -53.3°C | 0.5% | 56.9hPa | 2.5V | 08:14:11 | 02:13:11 | 00:00:00 | |
| HSKMA3-T | 2026-08-31 00:45:03 | 49.18193 | 10.14680 | 168° | 31km/h | 20215m | -8.4m/s | -53.2°C | 0.4% | 56.8hPa | 2.5V | 08:14:11 | 02:13:10 | 00:00:00 | |
| BIOWL1-15 | 2026-08-31 00:45:00 | 49.18212 | 10.14687 | 226° | 24km/h | 20241m | -8.4m/s | -53.2°C | 0.5% | 56.5hPa | 2.6V | 08:15:02 | 02:13:07 | 00:00:00 | |
| DF7PN | 2026-08-31 00:45:00 | 49.18212 | 10.14687 | 226° | 24km/h | 20241m | -8.4m/s | -53.2°C | 1.0% | 56.5hPa | 2.5V | 00:00:00 | 00:00:00 | 00:00:00 | |
| DL1ZP-14 | 2026-08-31 00:44:59 | 49.18216 | 10.14704 | 272° | 24km/h | 20258m | -8.4m/s | -53.2°C | 1.0% | 56.4hPa | 2.5V | 00:00:00 | 00:00:00 | 00:00:00 | |
| DL1NUX | 2026-08-31 00:44:58 | 49.18204 | 10.14730 | 331° | 33km/h | 20282m | -7.7m/s | -53.2°C | 4.2% | 56.2hPa | 2.6V | 08:13:45 | 02:13:02 | 00:00:00 | |
| DL1XH-west | 2026-08-31 00:44:56 | 49.18211 | 10.14723 | 313° | 29km/h | 20274m | -8m/s | -53.2°C | 0.5% | 56.3hPa | 2.5V | 08:14:11 | 02:13:03 | 00:00:00 | |
| DK7TD | 2026-08-31 00:44:54 | 49.18197 | 10.14734 | 348° | 35km/h | 20289m | -7.5m/s | -53.2°C | 0.5% | 56.1hPa | 2.6V | 08:14:11 | 02:13:01 | 00:00:00 | |
| DM0DOS-11 | 2026-08-31 00:44:54 | 49.18179 | 10.14733 | 16° | 37km/h | 20305m | -7.9m/s | -53.1°C | 4.1% | 56hPa | 2.5V | 08:13:48 | 02:12:59 | 00:00:00 | |
| HSKMA3-T | 2026-08-31 00:44:53 | 49.18179 | 10.14733 | 17° | 37km/h | 20305m | -7.9m/s | -53.1°C | 0.4% | 56hPa | 2.5V | 08:14:11 | 02:12:59 | 00:00:00 | |
| DF8AY | 2026-08-31 00:44:49 | 49.18158 | 10.14708 | 60° | 35km/h | 20329m | -7.9m/s | -53.2°C | 0.4% | 55.8hPa | 2.6V | 08:14:11 | 02:12:56 | 00:00:00 | |
| OE5DXL-15 | 2026-08-31 00:44:49 | 49.18158 | 10.14708 | 61° | 35km/h | 20329m | -7.8m/s | -53.1°C | 4.1% | 55.8hPa | 2.5V | 00:00:00 | 00:00:00 | 00:00:00 | |
| DL1NUX | 2026-08-31 00:44:48 | 49.18161 | 10.14663 | 133° | 31km/h | 20360m | -7.8m/s | -53.3°C | 4.1% | 55.6hPa | 2.5V | 08:13:55 | 02:12:52 | 00:00:00 | |
| DL1XH-west | 2026-08-31 00:44:46 | 49.18156 | 10.14673 | 114° | 31km/h | 20352m | -7.5m/s | -53.3°C | 0.6% | 55.6hPa | 2.5V | 08:14:11 | 02:12:53 | 00:00:00 | |
| BIOWL1-15 | 2026-08-31 00:44:44 | 49.18167 | 10.14656 | 152° | 31km/h | 20368m | -7.9m/s | -53.3°C | 0.5% | 55.5hPa | 2.5V | 08:15:02 | 02:12:51 | 00:00:00 | |
| DM0DOS-11 | 2026-08-31 00:44:43 | 49.18182 | 10.14651 | 186° | 33km/h | 20384m | -8.6m/s | -53.4°C | 4.1% | 55.4hPa | 2.6V | 08:13:58 | 02:12:49 | 00:00:00 | |
| DK7TD | 2026-08-31 00:44:43 | 49.18174 | 10.14652 | 170° | 31km/h | 20376m | -8.3m/s | -53.4°C | 0.5% | 55.4hPa | 2.6V | 08:14:11 | 02:12:50 | 00:00:00 | |
| HSKMA3-T | 2026-08-31 00:44:42 | 49.18182 | 10.14652 | 186° | 33km/h | 20384m | -8.6m/s | -53.4°C | 0.4% | 55.4hPa | 2.6V | 08:14:11 | 02:12:49 | 00:00:00 | |
| DF8AY | 2026-08-31 00:44:38 | 49.18209 | 10.14685 | 251° | 40km/h | 20418m | -8.1m/s | -53.6°C | 0.5% | 55hPa | 2.5V | 08:14:11 | 02:12:45 | 00:00:00 | |
| DL1NUX | 2026-08-31 00:44:38 | 49.18208 | 10.14734 | 292° | 46km/h | 20441m | -8m/s | -53.5°C | 4.2% | 54.8hPa | 2.5V | 08:14:05 | 02:12:42 | 00:00:00 | |
| DL1XH-west | 2026-08-31 00:44:35 | 49.18207 | 10.14734 | 293° | 46km/h | 20441m | -8m/s | -53.5°C | 0.5% | 54.8hPa | 2.5V | 08:14:11 | 02:12:42 | 00:00:00 | |
| DF9NV-10 | 2026-08-31 00:44:34 | 49.18208 | 10.14734 | 294° | 46km/h | 20442m | -8.0m/s | -53.5°C | 1.1% | 54.8hPa | 2.5V | 08:14:00 | 00:00:00 | 00:00:00 | |
| DM0DOS-11 | 2026-08-31 00:44:33 | 49.18185 | 10.14772 | 331° | 44km/h | 20466m | -8.5m/s | -53.4°C | 4.1% | 54.7hPa | 2.5V | 08:14:08 | 02:12:39 | 00:00:00 | |
| DK7TD | 2026-08-31 00:44:33 | 49.18194 | 10.14762 | 318° | 46km/h | 20458m | -8.4m/s | -53.4°C | 0.5% | 54.7hPa | 2.5V | 08:14:11 | 02:12:40 | 00:00:00 | |
| HSKMA3-T | 2026-08-31 00:44:33 | 49.18185 | 10.14772 | 331° | 44km/h | 20466m | -8.5m/s | -53.4°C | 0.5% | 54.7hPa | 2.5V | 08:14:11 | 02:12:39 | 00:00:00 | |
| NBG1-10 | 2026-08-31 00:44:32 | 49.18185 | 10.14772 | 332° | 37km/h | 20466m | -8.5m/s | -53.3°C | 4.1% | 54.6hPa | 2.5V | 00:00:00 | 02:12:39 | 00:00:00 | |
| DO9HM | 2026-08-31 00:44:31 | 49.18185 | 10.14772 | 332° | 44km/h | 20466m | -8.5m/s | -53.4°C | 1.1% | 54.7hPa | 2.6V | 08:14:00 | 00:00:00 | 00:00:00 | |
| DF1GD-15 | 2026-08-31 00:44:30 | 49.18164 | 10.14780 | 360° | 40km/h | 20483m | -8.5m/s | -53.3°C | 1.1% | 54.5hPa | 2.6V | 08:14:00 | 00:00:00 | 00:00:00 | |
| DF7PN | 2026-08-31 00:44:29 | 49.18155 | 10.14779 | 13° | 37km/h | 20491m | -8.0m/s | -53.4°C | 1.0% | 54.4hPa | 2.6V | 00:00:00 | 00:00:00 | 00:00:00 | |
| DL1NUX | 2026-08-31 00:44:28 | 49.18133 | 10.14744 | 82° | 31km/h | 20524m | -8.4m/s | -53.6°C | 4.1% | 54.1hPa | 2.6V | 08:14:15 | 02:12:32 | 00:00:00 | |
| DF8AY | 2026-08-31 00:44:28 | 49.18139 | 10.14766 | 47° | 33km/h | 20508m | -8m/s | -53.5°C | 0.4% | 54.3hPa | 2.5V | 08:15:02 | 02:12:34 | 00:00:00 | |
| DM0DOS-11 | 2026-08-31 00:44:28 | 49.18140 | 10.14714 | 142° | 27km/h | 20550m | -8.8m/s | -53.8°C | 4.2% | 53.9hPa | 2.5V | 08:14:18 | 02:12:29 | 00:00:00 | |
| DL1XH-west | 2026-08-31 00:44:24 | 49.18133 | 10.14732 | 102° | 29km/h | 20533m | -8.7m/s | -53.6°C | 0.5% | 54.1hPa | 2.5V | 08:15:02 | 02:12:31 | 00:00:00 | |
| DK7TD | 2026-08-31 00:44:22 | 49.18140 | 10.14714 | 143° | 27km/h | 20550m | -8.8m/s | -53.8°C | 0.5% | 53.9hPa | 2.5V | 08:15:02 | 02:12:29 | 00:00:00 | |
| HSKMA3-T | 2026-08-31 00:44:22 | 49.18146 | 10.14710 | 166° | 27km/h | 20558m | -8.5m/s | -53.8°C | 0.5% | 53.8hPa | 2.5V | 08:15:02 | 02:12:28 | 00:00:00 | |
| DF8AY | 2026-08-31 00:44:17 | 49.18082 | 10.14800 | 48° | 40km/h | 20690m | -8.4m/s | -54.3°C | 0.7% | 52.7hPa | 2.5V | 08:15:02 | 02:12:12 | 00:00:00 | |
| DL1XH-west | 2026-08-31 00:44:14 | 49.18168 | 10.14776 | 292° | 42km/h | 20615m | -8.5m/s | -54.1°C | 0.6% | 53.4hPa | 2.6V | 08:15:02 | 02:12:21 | 00:00:00 | |
| DM0DOS-11 | 2026-08-31 00:44:14 | 49.18145 | 10.14814 | 330° | 47km/h | 20640m | -8.3m/s | -54.2°C | 4.5% | 53.2hPa | 2.5V | 08:14:29 | 02:12:18 | 00:00:00 | |
| BIOWL1-15 | 2026-08-31 00:44:13 | 49.18162 | 10.14790 | 305° | 44km/h | 20624m | -8.5m/s | -54.2°C | 0.7% | 53.3hPa | 2.6V | 08:15:02 | 02:12:20 | 00:00:00 | |
| DF8AY | 2026-08-31 00:44:12 | 49.18073 | 10.14763 | 95° | 31km/h | 20715m | -8.7m/s | -54.4°C | 0.7% | 52.5hPa | 2.6V | 08:15:02 | 02:12:09 | 00:00:00 | |
| DK7TD | 2026-08-31 00:44:11 | 49.18145 | 10.14814 | 331° | 47km/h | 20641m | -8.3m/s | -54.2°C | 0.7% | 53.2hPa | 2.5V | 08:15:02 | 02:12:18 | 00:00:00 | |
| HSKMA3-T | 2026-08-31 00:44:10 | 49.18134 | 10.14821 | 343° | 47km/h | 20649m | -8.1m/s | -54.2°C | 0.6% | 53.1hPa | 2.5V | 08:15:02 | 02:12:17 | 00:00:00 | |
| DB0NH | 2026-08-31 00:44:10 | 49.18134 | 10.14821 | 344° | 38km/h | 20649m | -8.1m/s | -54.2°C | 4.4% | 53.1hPa | 2.5V | 00:00:00 | 02:12:17 | 00:00:00 | |
| DF1GD-15 | 2026-08-31 00:44:09 | 49.18134 | 10.14821 | 344° | 47km/h | 20649m | -8.1m/s | -54.2°C | 1.1% | 53.1hPa | 2.5V | 08:15:00 | 00:00:00 | 00:00:00 | |
| DL1NUX | 2026-08-31 00:44:08 | 49.18082 | 10.14800 | 48° | 40km/h | 20690m | -8.4m/s | -54.3°C | 4.4% | 52.7hPa | 2.5V | 08:14:35 | 02:12:12 | 00:00:00 | |
| DB0ND-19 | 2026-08-31 00:44:08 | 49.18100 | 10.14819 | 21° | 44km/h | 20673m | -8.2m/s | -54.2°C | 1.0% | 52.9hPa | 2.5V | 00:00:00 | 00:00:00 | 00:00:00 | |
| SO1NDE-10 | 2026-08-31 00:44:07 | 49.18100 | 10.14819 | 22° | 37km/h | 20673m | -8.1m/s | -54.2°C | 4.3% | 52.8hPa | 2.5V | 00:00:00 | 02:12:14 | 00:00:00 | |
| DO3MHA-11 | 2026-08-31 00:44:05 | 49.18082 | 10.14800 | 49° | 31km/h | 20690m | -8.4m/s | -54.2°C | 4.4% | 52.7hPa | 2.5V | 00:00:00 | 02:12:12 | 00:00:00 | |
| DM0DOS-11 | 2026-08-31 00:44:04 | 49.18074 | 10.14752 | 113° | 29km/h | 20724m | -8.6m/s | -54.3°C | 4.4% | 52.5hPa | 2.5V | 08:14:39 | 02:12:08 | 00:00:00 | |
| BIOWL1-15 | 2026-08-31 00:44:04 | 49.18108 | 10.14771 | 266° | 37km/h | 20783m | -8.7m/s | -54.2°C | 0.6% | 52hPa | 2.5V | 08:15:02 | 02:12:01 | 00:00:00 | |
| DL1XH-west | 2026-08-31 00:44:03 | 49.18073 | 10.14775 | 77° | 35km/h | 20707m | -8.5m/s | -54.4°C | 0.6% | 52.6hPa | 2.6V | 08:15:02 | 02:12:10 | 00:00:00 | |
| PG1ADW-2 | 2026-08-31 00:44:03 | 49.18073 | 10.14775 | 78° | 37km/h | 20707m | -8.5m/s | -54.3°C | 4.4% | 52.6hPa | 2.6V | 00:00:00 | 00:00:00 | 00:00:00 | |
| DL1XH1-15 | 2026-08-31 00:44:02 | 49.18102 | 10.14747 | 230° | 31km/h | 20766m | -8.7m/s | -54.2°C | 4.4% | 52.1hPa | 2.6V | 08:14:44 | 02:12:03 | 00:00:00 | |
| DK7TD | 2026-08-31 00:44:01 | 49.18075 | 10.14751 | 114° | 29km/h | 20724m | -8.6m/s | -54.3°C | 0.7% | 52.5hPa | 2.5V | 08:15:02 | 02:12:08 | 00:00:00 | |
| HSKMA3-T | 2026-08-31 00:43:59 | 49.18084 | 10.14738 | 161° | 26km/h | 20741m | -8.4m/s | -54.3°C | 0.6% | 52.3hPa | 2.5V | 08:15:02 | 02:12:06 | 00:00:00 | |
| DF7PN | 2026-08-31 00:43:58 | 49.18090 | 10.14737 | 185° | 26km/h | 20749m | -8.3m/s | -54.2°C | 1.1% | 52.3hPa | 2.6V | 00:00:00 | 00:00:00 | 00:00:00 | |
| DL1ZP-14 | 2026-08-31 00:43:57 | 49.18102 | 10.14747 | 230° | 29km/h | 20766m | -8.7m/s | -54.2°C | 1.1% | 52.1hPa | 2.6V | 00:00:00 | 00:00:00 | 00:00:00 | |
| DB0UT-7 | 2026-08-31 00:43:56 | 49.18102 | 10.14747 | 231° | 37km/h | 20766m | -8.6m/s | -54.2°C | 4.4% | 52.1hPa | 2.6V | 00:00:00 | 02:12:03 | 00:00:00 | |
| DJ8HS-15 | 2026-08-31 00:43:55 | 49.18106 | 10.14758 | 250° | 38km/h | 20775m | -8.6m/s | -54.1°C | 4.4% | 52.0hPa | 2.6V | 00:00:00 | 02:12:02 | 00:00:00 | |
| DM0DOS-11 | 2026-08-31 00:43:54 | 49.18098 | 10.14814 | 310° | 46km/h | 20809m | -8.6m/s | -53.9°C | 4.4% | 51.8hPa | 2.6V | 08:14:49 | 02:11:58 | 00:00:00 | |
| DL1XH-west | 2026-08-31 00:43:53 | 49.18108 | 10.14786 | 281° | 40km/h | 20792m | -8.6m/s | -54.1°C | 0.6% | 51.9hPa | 2.5V | 08:15:02 | 02:12:00 | 00:00:00 | |
| DK7TD | 2026-08-31 00:43:50 | 49.18090 | 10.14826 | 324° | 46km/h | 20818m | -8.5m/s | -53.8°C | 0.5% | 51.7hPa | 2.6V | 08:15:02 | 02:11:57 | 00:00:00 | |
| HSKMA3-T | 2026-08-31 00:43:49 | 49.18069 | 10.14839 | 353° | 44km/h | 20835m | -8.4m/s | -53.8°C | 0.6% | 51.6hPa | 2.5V | 08:15:02 | 02:11:55 | 00:00:00 | |
| OE5DXL-15 | 2026-08-31 00:43:49 | 49.18080 | 10.14834 | 339° | 38km/h | 20827m | -8.5m/s | -53.7°C | 4.3% | 51.6hPa | 2.6V | 00:00:00 | 00:00:00 | 00:00:00 | |
| DL1NUX | 2026-08-31 00:43:48 | 49.18040 | 10.14827 | 39° | 37km/h | 20859m | -7.9m/s | -53.9°C | 4.3% | 51.4hPa | 2.6V | 08:14:55 | 02:11:52 | 00:00:00 | |
| BIOWL1-15 | 2026-08-31 00:43:47 | 49.18058 | 10.14839 | 8° | 42km/h | 20843m | -8.3m/s | -53.8°C | 0.6% | 51.5hPa | 2.5V | 08:15:02 | 02:11:54 | 00:00:00 | |
| DO3MHA-11 | 2026-08-31 00:43:45 | 49.18040 | 10.14827 | 40° | 33km/h | 20860m | -7.8m/s | -53.8°C | 4.3% | 51.3hPa | 2.5V | 00:00:00 | 02:11:52 | 00:00:00 | |
| DM0DOS-11 | 2026-08-31 00:43:43 | 49.18032 | 10.14781 | 113° | 31km/h | 20893m | -8.7m/s | -53.9°C | 4.3% | 51.1hPa | 2.5V | 08:14:59 | 02:11:48 | 00:00:00 | |
| DL1XH-west | 2026-08-31 00:43:42 | 49.18030 | 10.14793 | 95° | 31km/h | 20884m | -8.6m/s | -53.8°C | 0.7% | 51.2hPa | 2.5V | 08:15:02 | 02:11:49 | 00:00:00 | |
| DK7TD | 2026-08-31 00:43:39 | 49.18042 | 10.14764 | 152° | 33km/h | 20910m | -8.7m/s | -53.9°C | 0.6% | 51hPa | 2.6V | 08:15:02 | 02:11:46 | 00:00:00 | |
| HSKMA3-T | 2026-08-31 00:43:38 | 49.18050 | 10.14760 | 171° | 33km/h | 20919m | -8.8m/s | -53.9°C | 0.7% | 50.9hPa | 2.5V | 08:15:02 | 02:11:45 | 00:00:00 | |
| BIOWL1-15 | 2026-08-31 00:43:38 | 49.18086 | 10.14798 | 251° | 40km/h | 20961m | -8.8m/s | -53.9°C | 0.6% | 50.6hPa | 2.6V | 08:15:53 | 02:11:40 | 00:00:00 | |
| DL1NUX | 2026-08-31 00:43:38 | 49.18075 | 10.14773 | 221° | 38km/h | 20944m | -8.2m/s | -54°C | 4.3% | 50.7hPa | 2.5V | 08:15:05 | 02:11:42 | 00:00:00 | |
| DB0ND-19 | 2026-08-31 00:43:37 | 49.18067 | 10.14764 | 206° | 37km/h | 20936m | -8.3m/s | -54.0°C | 1.1% | 50.8hPa | 2.5V | 00:00:00 | 00:00:00 | 00:00:00 | |
| DO3MHA-11 | 2026-08-31 00:43:35 | 49.18075 | 10.14773 | 222° | 40km/h | 20945m | -8.1m/s | -53.9°C | 4.3% | 50.6hPa | 2.5V | 00:00:00 | 02:11:42 | 00:00:00 | |
| DL1XH1-15 | 2026-08-31 00:43:33 | 49.18085 | 10.14843 | 295° | 40km/h | 20988m | -8.7m/s | -53.9°C | 4.3% | 50.4hPa | 2.5V | 08:15:10 | 02:11:37 | 00:00:00 | |
| DM0DOS-11 | 2026-08-31 00:43:32 | 49.18088 | 10.14829 | 279° | 40km/h | 20979m | -8.8m/s | -53.9°C | 4.3% | 50.5hPa | 2.5V | 08:15:09 | 02:11:38 | 00:00:00 | |
| DL1XH-west | 2026-08-31 00:43:31 | 49.18088 | 10.14829 | 279° | 40km/h | 20979m | -8.8m/s | -53.9°C | 0.6% | 50.5hPa | 2.5V | 08:15:53 | 02:11:38 | 00:00:00 | |
| DK7TD | 2026-08-31 00:43:28 | 49.18072 | 10.14866 | 328° | 38km/h | 21005m | -8.3m/s | -53.9°C | 0.6% | 50.3hPa | 2.6V | 08:15:53 | 02:11:35 | 00:00:00 | |
| HSKMA3-T | 2026-08-31 00:43:27 | 49.18063 | 10.14872 | 344° | 38km/h | 21013m | -8.1m/s | -53.9°C | 0.6% | 50.1hPa | 2.6V | 08:15:53 | 02:11:34 | 00:00:00 | |
| DK5PH-5 | 2026-08-31 00:43:27 | 49.18063 | 10.14872 | 344° | 40km/h | 21013m | -8.1m/s | -53.9°C | 4.3% | 50.1hPa | 2.5V | 00:00:00 | 02:11:34 | 00:00:00 | |
| NBG1-10 | 2026-08-31 00:43:26 | 49.18053 | 10.14874 | 1° | 40km/h | 21021m | -8.3m/s | -53.9°C | 4.3% | 50.0hPa | 2.5V | 00:00:00 | 02:11:33 | 00:00:00 | |
| DL1XH1-15 | 2026-08-31 00:43:25 | 49.18016 | 10.14816 | 92° | 38km/h | 21074m | -8.7m/s | -54.2°C | 4.4% | 49.7hPa | 2.5V | 08:15:20 | 02:11:27 | 00:00:00 | |
| BIOWL1-15 | 2026-08-31 00:43:24 | 49.18035 | 10.14866 | 30° | 40km/h | 21038m | -9m/s | -54°C | 0.6% | 50hPa | 2.5V | 08:15:53 | 02:11:31 | 00:00:00 | |
| PG1ADW-2 | 2026-08-31 00:43:23 | 49.18027 | 10.14857 | 45° | 37km/h | 21047m | -8.7m/s | -54.0°C | 4.3% | 49.8hPa | 2.6V | 00:00:00 | 00:00:00 | 00:00:00 | |
| DM0DOS-11 | 2026-08-31 00:43:22 | 49.18017 | 10.14830 | 76° | 40km/h | 21065m | -8.9m/s | -54.2°C | 4.4% | 49.7hPa | 2.6V | 08:15:19 | 02:11:28 | 00:00:00 | |
| DL1XH-west | 2026-08-31 00:43:21 | 49.18017 | 10.14830 | 76° | 40km/h | 21065m | -8.9m/s | -54.2°C | 0.6% | 49.8hPa | 2.6V | 08:15:53 | 02:11:28 | 00:00:00 | |
| DK7TD | 2026-08-31 00:43:18 | 49.18022 | 10.14790 | 127° | 35km/h | 21091m | -8.4m/s | -54.2°C | 0.7% | 49.6hPa | 2.5V | 08:15:53 | 02:11:25 | 00:00:00 | |
| HSKMA3-T | 2026-08-31 00:43:17 | 49.18028 | 10.14781 | 145° | 33km/h | 21099m | -8.3m/s | -54.2°C | 0.6% | 49.5hPa | 2.6V | 08:15:53 | 02:11:24 | 00:00:00 | |
| DF3TZ-5 | 2026-08-31 00:43:17 | 49.18035 | 10.14776 | 165° | 29km/h | 21108m | -8.3m/s | -54.2°C | 1.1% | 49.4hPa | 2.6V | 00:00:00 | 00:00:00 | 00:00:00 | |
| DJ8HS-15 | 2026-08-31 00:43:15 | 49.18042 | 10.14775 | 189° | 42km/h | 21116m | -8.4m/s | -54.1°C | 4.4% | 49.3hPa | 2.6V | 00:00:00 | 02:11:22 | 00:00:00 | |
| DL1XH1-15 | 2026-08-31 00:43:14 | 49.18056 | 10.14820 | 292° | 35km/h | 21159m | -8.6m/s | -54°C | 4.3% | 49hPa | 2.6V | 08:15:30 | 02:11:17 | 00:00:00 | |
| BIOWL1-15 | 2026-08-31 00:43:13 | 49.18051 | 10.14832 | 309° | 38km/h | 21168m | -8.9m/s | -54°C | 0.6% | 49hPa | 2.5V | 08:15:53 | 02:11:16 | 00:00:00 | |
| DM0DOS-11 | 2026-08-31 00:43:12 | 49.18058 | 10.14808 | 273° | 33km/h | 21150m | -8.8m/s | -54°C | 4.3% | 49.1hPa | 2.6V | 08:15:29 | 02:11:18 | 00:00:00 | |
| DL1XH-west | 2026-08-31 00:43:11 | 49.18056 | 10.14820 | 292° | 35km/h | 21159m | -8.6m/s | -54°C | 0.5% | 49hPa | 2.6V | 08:15:53 | 02:11:17 | 00:00:00 | |
| DK7TD | 2026-08-31 00:43:08 | 49.18044 | 10.14842 | 324° | 40km/h | 21177m | -8.6m/s | -54°C | 0.6% | 48.9hPa | 2.5V | 08:15:53 | 02:11:15 | 00:00:00 | |
| DF8AY | 2026-08-31 00:43:07 | 49.18034 | 10.14850 | 339° | 44km/h | 21185m | -8.3m/s | -53.9°C | 0.6% | 48.9hPa | 2.5V | 08:15:53 | 02:11:14 | 00:00:00 | |
| HSKMA3-T | 2026-08-31 00:43:06 | 49.18023 | 10.14854 | 353° | 47km/h | 21193m | -8.3m/s | -53.9°C | 0.6% | 48.8hPa | 2.5V | 08:15:53 | 02:11:13 | 00:00:00 | |
| DB0ND-19 | 2026-08-31 00:43:06 | 49.18011 | 10.14854 | 5° | 49km/h | 21202m | -8.5m/s | -53.9°C | 1.1% | 48.7hPa | 2.6V | 00:00:00 | 00:00:00 | 00:00:00 | |
| DO3MHA-11 | 2026-08-31 00:43:05 | 49.18011 | 10.14854 | 6° | 49km/h | 21202m | -8.5m/s | -53.8°C | 4.3% | 48.7hPa | 2.6V | 08:15:00 | 02:11:12 | 00:00:00 | |
| DL1XH1-15 | 2026-08-31 00:43:04 | 49.17960 | 10.14799 | 64° | 51km/h | 21246m | -9.1m/s | -54°C | 4.3% | 48.4hPa | 2.5V | 08:15:40 | 02:11:07 | 00:00:00 | |
| PG1ADW-2 | 2026-08-31 00:43:03 | 49.17987 | 10.14842 | 30° | 37km/h | 21219m | -8.7m/s | -53.8°C | 4.2% | 48.5hPa | 2.5V | 00:00:00 | 00:00:00 | 00:00:00 | |
| DM0DOS-11 | 2026-08-31 00:43:02 | 49.17967 | 10.14816 | 52° | 53km/h | 21237m | -9.3m/s | -53.9°C | 4.2% | 48.4hPa | 2.5V | 08:15:39 | 02:11:08 | 00:00:00 | |
| BIOWL1-15 | 2026-08-31 00:43:02 | 49.17967 | 10.14816 | 53° | 53km/h | 21237m | -9.4m/s | -53.9°C | 0.5% | 48.4hPa | 2.5V | 08:15:53 | 02:11:08 | 00:00:00 | |
| DL1XH-west | 2026-08-31 00:42:59 | 49.17956 | 10.14781 | 77° | 49km/h | 21255m | -9m/s | -54°C | 0.6% | 48.3hPa | 2.6V | 08:15:53 | 02:11:06 | 00:00:00 | |
| DL1NUX | 2026-08-31 00:42:58 | 49.17966 | 10.14720 | 136° | 37km/h | 21289m | -8.4m/s | -54.1°C | 4.3% | 48hPa | 2.5V | 08:15:45 | 02:11:02 | 00:00:00 | |
| DK7TD | 2026-08-31 00:42:57 | 49.17956 | 10.14745 | 105° | 44km/h | 21272m | -8.5m/s | -54.1°C | 0.6% | 48.2hPa | 2.5V | 08:15:53 | 02:11:04 | 00:00:00 | |
| HSKMA3-T | 2026-08-31 00:42:56 | 49.17960 | 10.14731 | 121° | 40km/h | 21281m | -8.5m/s | -54.1°C | 0.6% | 48.1hPa | 2.5V | 08:15:53 | 02:11:03 | 00:00:00 | |
| DF7PN | 2026-08-31 00:42:56 | 49.17960 | 10.14731 | 120° | 38km/h | 21281m | -8.5m/s | -54.1°C | 1.1% | 48.1hPa | 2.5V | 00:00:00 | 00:00:00 | 00:00:00 | |
| DO3MHA-11 | 2026-08-31 00:42:55 | 49.17966 | 10.14719 | 137° | 27km/h | 21290m | -8.4m/s | -54.1°C | 4.3% | 48.0hPa | 2.5V | 00:00:00 | 02:11:02 | 00:00:00 | |
| DL1XH1-15 | 2026-08-31 00:42:54 | 49.17996 | 10.14719 | 245° | 22km/h | 21334m | -9.2m/s | -54.1°C | 4.3% | 47.7hPa | 2.5V | 08:15:50 | 02:10:57 | 00:00:00 | |
| BIOWL1-15 | 2026-08-31 00:42:51 | 49.17997 | 10.14727 | 277° | 22km/h | 21343m | -8.7m/s | -54.2°C | 0.6% | 47.6hPa | 2.5V | 08:15:53 | 02:10:56 | 00:00:00 | |
| DB0UT-7 | 2026-08-31 00:42:49 | 49.17997 | 10.14727 | 278° | 38km/h | 21344m | -8.7m/s | -54.1°C | 4.3% | 47.6hPa | 2.5V | 00:00:00 | 02:10:56 | 00:00:00 | |
| DL1NUX | 2026-08-31 00:42:48 | 49.17973 | 10.14746 | 4° | 40km/h | 21375m | -7.6m/s | -54.3°C | 4.4% | 47.4hPa | 2.5V | 08:15:55 | 02:10:52 | 00:00:00 | |
| DL1XH-west | 2026-08-31 00:42:48 | 49.17995 | 10.14735 | 306° | 24km/h | 21352m | -8.2m/s | -54.2°C | 0.6% | 47.6hPa | 2.6V | 08:15:53 | 02:10:55 | 00:00:00 | |
| DF3TZ-5 | 2026-08-31 00:42:46 | 49.17982 | 10.14745 | 349° | 33km/h | 21368m | -7.7m/s | -54.3°C | 1.1% | 47.5hPa | 2.5V | 00:00:00 | 00:00:00 | 00:00:00 | |
| DK7TD | 2026-08-31 00:42:46 | 49.17982 | 10.14745 | 350° | 35km/h | 21368m | -7.7m/s | -54.3°C | 0.6% | 47.5hPa | 2.5V | 08:16:44 | 02:10:53 | 00:00:00 | |
| DC4HF-4 | 2026-08-31 00:42:44 | 49.17963 | 10.14743 | 17° | 42km/h | 21383m | -8.1m/s | -54.3°C | 1.1% | 47.4hPa | 2.5V | 00:00:00 | 00:00:00 | 00:00:00 | |
| BIOWL1-15 | 2026-08-31 00:42:38 | 49.17919 | 10.14667 | 83° | 42km/h | 21434m | -7.4m/s | -54.4°C | 0.6% | 47hPa | 2.5V | 08:16:44 | 02:10:45 | 00:00:00 | |
| DL1NUX | 2026-08-31 00:42:38 | 49.17925 | 10.14623 | 119° | 38km/h | 21454m | -6.7m/s | -54.4°C | 4.4% | 46.9hPa | 2.5V | 08:16:05 | 02:10:42 | 00:00:00 | |
| DL1XH-west | 2026-08-31 00:42:37 | 49.17919 | 10.14651 | 97° | 40km/h | 21441m | -6.9m/s | -54.5°C | 0.7% | 47hPa | 2.6V | 08:16:44 | 02:10:44 | 00:00:00 | |
| DK7TD | 2026-08-31 00:42:35 | 49.17925 | 10.14623 | 119° | 38km/h | 21454m | -6.7m/s | -54.4°C | 0.6% | 46.9hPa | 2.5V | 08:16:44 | 02:10:42 | 00:00:00 | |
| DJ8HS-15 | 2026-08-31 00:42:35 | 49.17925 | 10.14623 | 120° | 33km/h | 21455m | -6.6m/s | -54.4°C | 4.4% | 46.8hPa | 2.5V | 08:16:00 | 02:10:42 | 00:00:00 | |
| DB0ND-19 | 2026-08-31 00:42:34 | 49.17931 | 10.14611 | 126° | 38km/h | 21461m | -7.2m/s | -54.4°C | 1.1% | 46.8hPa | 2.5V | 00:00:00 | 00:00:00 | 00:00:00 | |
| OE5DRO-10 | 2026-08-31 00:42:33 | 49.17936 | 10.14599 | 130° | 31km/h | 21469m | -7.4m/s | -54.3°C | 4.4% | 46.7hPa | 2.5V | 00:00:00 | 00:00:00 | 00:00:00 | |
| SONCRA | 2026-08-31 00:42:31 | 49.17955 | 10.14562 | 120° | 40km/h | 21491m | -7.7m/s | -54.3°C | 1.1% | 46.6hPa | 2.6V | 00:00:00 | 00:00:00 | 00:00:00 | |
| DL1NUX | 2026-08-31 00:42:28 | 49.17968 | 10.14491 | 89° | 35km/h | 21530m | -7.5m/s | -54.4°C | 4.3% | 46.4hPa | 2.6V | 08:16:15 | 02:10:32 | 00:00:00 | |
| DL1XH-west | 2026-08-31 00:42:27 | 49.17966 | 10.14519 | 102° | 38km/h | 21515m | -7.8m/s | -54.4°C | 0.6% | 46.4hPa | 2.5V | 08:16:44 | 02:10:34 | 00:00:00 | |
| IW2NTF | 2026-08-31 00:42:27 | 49.17966 | 10.14466 | 79° | 31km/h | 21545m | -7.7m/s | -54.4°C | 4.3% | 46.2hPa | 2.5V | 08:16:17 | 02:10:30 | 00:00:00 | |
| HSKMA3-T | 2026-08-31 00:42:25 | 49.17968 | 10.14491 | 90° | 35km/h | 21530m | -7.5m/s | -54.4°C | 0.6% | 46.4hPa | 2.6V | 08:16:44 | 02:10:32 | 00:00:00 | |
| DF8AY | 2026-08-31 00:42:25 | 49.17967 | 10.14478 | 85° | 33km/h | 21537m | -7.7m/s | -54.4°C | 0.6% | 46.2hPa | 2.6V | 08:16:44 | 02:10:31 | 00:00:00 | |
| PG1ADW-2 | 2026-08-31 00:42:23 | 49.17966 | 10.14466 | 80° | 24km/h | 21546m | -7.7m/s | -54.3°C | 4.3% | 46.1hPa | 2.6V | 00:00:00 | 02:10:30 | 00:00:00 | |
| NBG1-10 | 2026-08-31 00:42:20 | 49.17960 | 10.14435 | 65° | 27km/h | 21569m | -7.6m/s | -54.4°C | 4.4% | 46.0hPa | 2.6V | 00:00:00 | 02:10:27 | 00:00:00 | |
| OE5DXL-15 | 2026-08-31 00:42:19 | 49.17957 | 10.14427 | 59° | 27km/h | 21576m | -7.6m/s | -54.4°C | 4.4% | 45.9hPa | 2.6V | 00:00:00 | 00:00:00 | 00:00:00 | |
| IW2NTF | 2026-08-31 00:42:18 | 49.17935 | 10.14403 | 359° | 16km/h | 21622m | -7.8m/s | -54.7°C | 4.5% | 45.6hPa | 2.6V | 08:16:27 | 02:10:20 | 00:00:00 | |
| DL1NUX | 2026-08-31 00:42:18 | 49.17943 | 10.14406 | 26° | 16km/h | 21606m | -7.7m/s | -54.6°C | 4.5% | 45.8hPa | 2.5V | 08:16:25 | 02:10:22 | 00:00:00 | |
| DL1XH-west | 2026-08-31 00:42:16 | 49.17947 | 10.14409 | 37° | 18km/h | 21599m | -7.7m/s | -54.6°C | 0.7% | 45.8hPa | 2.5V | 08:16:44 | 02:10:23 | 00:00:00 | |
| DK7TD | 2026-08-31 00:42:15 | 49.17943 | 10.14406 | 27° | 16km/h | 21607m | -7.7m/s | -54.6°C | 0.7% | 45.8hPa | 2.5V | 08:16:44 | 02:10:22 | 00:00:00 | |
| HSKMA3-T | 2026-08-31 00:42:14 | 49.17939 | 10.14403 | 14° | 16km/h | 21614m | -7.6m/s | -54.7°C | 0.7% | 45.7hPa | 2.6V | 08:16:44 | 02:10:21 | 00:00:00 | |
| DF8AY | 2026-08-31 00:42:14 | 49.17935 | 10.14403 | 359° | 16km/h | 21622m | -7.8m/s | -54.7°C | 0.7% | 45.7hPa | 2.6V | 08:16:44 | 02:10:20 | 00:00:00 | |
| DM7RM-13 | 2026-08-31 00:42:11 | 49.17931 | 10.14403 | 346° | 16km/h | 21630m | -7.8m/s | -54.7°C | 1.1% | 45.6hPa | 2.6V | 08:16:00 | 00:00:00 | 00:00:00 | |
| DB0NH | 2026-08-31 00:42:10 | 49.17923 | 10.14410 | 320° | 29km/h | 21646m | -7.9m/s | -54.7°C | 4.5% | 45.4hPa | 2.6V | 00:00:00 | 02:10:17 | 00:00:00 | |
| IW2NTF | 2026-08-31 00:42:08 | 49.17915 | 10.14479 | 247° | 33km/h | 21702m | -7.8m/s | -55°C | 4.5% | 45.1hPa | 2.6V | 08:16:37 | 02:10:10 | 00:00:00 | |
| DL1NUX | 2026-08-31 00:42:08 | 49.17912 | 10.14456 | 267° | 31km/h | 21687m | -8.2m/s | -54.9°C | 4.5% | 45.1hPa | 2.5V | 08:16:35 | 02:10:12 | 00:00:00 | |
| DL1XH-west | 2026-08-31 00:42:06 | 49.17912 | 10.14444 | 277° | 29km/h | 21678m | -8.2m/s | -54.9°C | 0.7% | 45.2hPa | 2.5V | 08:16:44 | 02:10:13 | 00:00:00 | |
| DK7TD | 2026-08-31 00:42:04 | 49.17912 | 10.14468 | 258° | 31km/h | 21694m | -7.9m/s | -54.9°C | 0.7% | 45.1hPa | 2.5V | 08:16:44 | 02:10:11 | 00:00:00 | |
| DF8AY | 2026-08-31 00:42:02 | 49.17919 | 10.14491 | 239° | 35km/h | 21710m | -7.6m/s | -55°C | 0.7% | 45hPa | 2.6V | 08:16:44 | 02:10:09 | 00:00:00 | |
| DM0DOS-11 | 2026-08-31 00:42:02 | 49.17930 | 10.14512 | 220° | 37km/h | 21726m | -7.9m/s | -55°C | 4.6% | 44.9hPa | 2.5V | 08:16:40 | 02:10:07 | 00:00:00 | |
| BIOWL1-15 | 2026-08-31 00:42:01 | 49.17924 | 10.14502 | 230° | 35km/h | 21718m | -7.8m/s | -55°C | 0.7% | 45hPa | 2.5V | 08:16:44 | 02:10:08 | 00:00:00 | |
| SONCRA | 2026-08-31 00:42:00 | 49.17938 | 10.14520 | 212° | 35km/h | 21734m | -7.9m/s | -55.0°C | 1.2% | 44.9hPa | 2.5V | 00:00:00 | 00:00:00 | 00:00:00 | |
| DL1NUX | 2026-08-31 00:41:58 | 49.17971 | 10.14535 | 178° | 31km/h | 21766m | -8.1m/s | -54.9°C | 4.5% | 44.6hPa | 2.5V | 08:16:45 | 02:10:02 | 00:00:00 | |
| DL1XH-west | 2026-08-31 00:41:55 | 49.17978 | 10.14534 | 169° | 31km/h | 21774m | -8m/s | -54.9°C | 0.7% | 44.6hPa | 2.5V | 08:17:35 | 02:10:01 | 00:00:00 | |
| DK7TD | 2026-08-31 00:41:53 | 49.17986 | 10.14531 | 159° | 29km/h | 21782m | -8m/s | -54.9°C | 0.7% | 44.5hPa | 2.5V | 08:17:35 | 02:10:00 | 00:00:00 | |
| DF8AY | 2026-08-31 00:41:50 | 49.18006 | 10.14495 | 95° | 22km/h | 21823m | -8m/s | -55°C | 0.7% | 44.2hPa | 2.5V | 08:17:35 | 02:09:55 | 00:00:00 | |
| BIOWL1-15 | 2026-08-31 00:41:50 | 49.18004 | 10.14478 | 64° | 22km/h | 21839m | -8.1m/s | -54.9°C | 0.8% | 44.1hPa | 2.6V | 08:17:35 | 02:09:53 | 00:00:00 | |
| OE5DXL-15 | 2026-08-31 00:41:50 | 49.18004 | 10.14503 | 111° | 33km/h | 21815m | -8.1m/s | -54.9°C | 4.6% | 44.2hPa | 2.6V | 00:00:00 | 00:00:00 | 00:00:00 | |
| DL1NUX | 2026-08-31 00:41:48 | 49.18000 | 10.14471 | 50° | 24km/h | 21847m | -8.1m/s | -54.9°C | 4.6% | 44hPa | 2.6V | 08:16:55 | 02:09:52 | 00:00:00 | |
| DL1XH-west | 2026-08-31 00:41:45 | 49.18001 | 10.14471 | 51° | 24km/h | 21847m | -8.1m/s | -54.9°C | 0.8% | 44.1hPa | 2.6V | 08:17:35 | 02:09:52 | 00:00:00 | |
| DK7TD | 2026-08-31 00:41:42 | 49.17985 | 10.14455 | 19° | 26km/h | 21871m | -7.9m/s | -54.9°C | 0.8% | 43.9hPa | 2.5V | 08:17:35 | 02:09:49 | 00:00:00 | |
| DL6DJ-15 | 2026-08-31 00:41:41 | 49.17971 | 10.14451 | 3° | 27km/h | 21886m | -8.0m/s | -54.9°C | 1.1% | 43.8hPa | 2.5V | 00:00:00 | 00:00:00 | 00:00:00 | |
| DB0NH | 2026-08-31 00:41:40 | 49.17971 | 10.14451 | 4° | 31km/h | 21887m | -7.9m/s | -54.8°C | 4.6% | 43.7hPa | 2.5V | 00:00:00 | 02:09:47 | 00:00:00 | |
| DL1NUX | 2026-08-31 00:41:38 | 49.17931 | 10.14466 | 330° | 37km/h | 21927m | -8.3m/s | -54.9°C | 4.5% | 43.5hPa | 2.5V | 08:17:05 | 02:09:42 | 00:00:00 | |
| DF8AY | 2026-08-31 00:41:38 | 49.17956 | 10.14452 | 350° | 33km/h | 21902m | -7.9m/s | -54.9°C | 0.7% | 43.7hPa | 2.5V | 08:17:35 | 02:09:45 | 00:00:00 | |
| BIOWL1-15 | 2026-08-31 00:41:36 | 49.17940 | 10.14460 | 337° | 35km/h | 21919m | -8.3m/s | -54.9°C | 0.7% | 43.6hPa | 2.5V | 08:17:35 | 02:09:43 | 00:00:00 | |
| OE5DRO-10 | 2026-08-31 00:41:36 | 49.17940 | 10.14460 | 337° | 35km/h | 21919m | -8.2m/s | -54.8°C | 4.6% | 43.5hPa | 2.5V | 08:17:00 | 00:00:00 | 00:00:00 | |
| DO3MHA-11 | 2026-08-31 00:41:35 | 49.17932 | 10.14466 | 331° | 40km/h | 21927m | -8.2m/s | -54.8°C | 4.5% | 43.5hPa | 2.5V | 08:17:00 | 02:09:42 | 00:00:00 | |
| DM0DOS-11 | 2026-08-31 00:41:34 | 49.17900 | 10.14523 | 290° | 42km/h | 21969m | -8.3m/s | -54.9°C | 4.5% | 43.2hPa | 2.5V | 08:17:10 | 02:09:37 | 00:00:00 | |
| DL1XH-west | 2026-08-31 00:41:34 | 49.17924 | 10.14474 | 324° | 38km/h | 21935m | -8.3m/s | -54.8°C | 0.7% | 43.5hPa | 2.6V | 08:17:35 | 02:09:41 | 00:00:00 | |
| DK7TD | 2026-08-31 00:41:31 | 49.17904 | 10.14508 | 299° | 42km/h | 21961m | -8.3m/s | -54.9°C | 0.7% | 43.2hPa | 2.5V | 08:17:35 | 02:09:38 | 00:00:00 | |
| DF8AY | 2026-08-31 00:41:27 | 49.17897 | 10.14585 | 257° | 38km/h | 22002m | -8.4m/s | -55°C | 0.8% | 43hPa | 2.5V | 08:17:35 | 02:09:33 | 00:00:00 | |
| BIOWL1-15 | 2026-08-31 00:41:26 | 49.17920 | 10.14636 | 211° | 27km/h | 22043m | -8.3m/s | -55°C | 0.9% | 42.7hPa | 2.5V | 08:17:35 | 02:09:28 | 00:00:00 | |
| DL1XH-west | 2026-08-31 00:41:24 | 49.17904 | 10.14611 | 240° | 35km/h | 22019m | -8.3m/s | -55°C | 0.8% | 42.9hPa | 2.5V | 08:17:35 | 02:09:31 | 00:00:00 | |
| DF7PN | 2026-08-31 00:41:23 | 49.17914 | 10.14630 | 220° | 29km/h | 22036m | -8.3m/s | -55.0°C | 1.2% | 42.8hPa | 2.5V | 00:00:00 | 00:00:00 | 00:00:00 | |
| DM0DOS-11 | 2026-08-31 00:41:22 | 49.17926 | 10.14641 | 199° | 26km/h | 22052m | -8.2m/s | -55°C | 4.8% | 42.7hPa | 2.5V | 08:17:20 | 02:09:27 | 00:00:00 | |
| DK7TD | 2026-08-31 00:41:20 | 49.17926 | 10.14640 | 200° | 26km/h | 22052m | -8.2m/s | -55°C | 0.8% | 42.7hPa | 2.5V | 08:17:35 | 02:09:27 | 00:00:00 | |
| OE5DXL-15 | 2026-08-31 00:41:19 | 49.17931 | 10.14642 | 188° | 29km/h | 22060m | -8.1m/s | -54.9°C | 4.8% | 42.6hPa | 2.5V | 00:00:00 | 00:00:00 | 00:00:00 | |
| DL1NUX | 2026-08-31 00:41:18 | 49.17948 | 10.14631 | 115° | 18km/h | 22093m | -8.2m/s | -54.7°C | 4.7% | 42.4hPa | 2.5V | 08:17:25 | 02:09:22 | 00:00:00 | |
| DF8AY | 2026-08-31 00:41:16 | 49.17945 | 10.14636 | 135° | 18km/h | 22084m | -8.2m/s | -54.8°C | 0.8% | 42.5hPa | 2.5V | 08:17:35 | 02:09:23 | 00:00:00 | |
| BIOWL1-15 | 2026-08-31 00:41:16 | 49.17945 | 10.14596 | 60° | 31km/h | 22126m | -8.5m/s | -54.5°C | 0.7% | 42.2hPa | 2.6V | 08:17:35 | 02:09:18 | 00:00:00 | |
| DJ8HS-15 | 2026-08-31 00:41:15 | 49.17948 | 10.14631 | 116° | 33km/h | 22093m | -8.1m/s | -54.7°C | 4.7% | 42.3hPa | 2.5V | 00:00:00 | 02:09:22 | 00:00:00 | |
| DM0DOS-11 | 2026-08-31 00:41:14 | 49.17940 | 10.14585 | 50° | 33km/h | 22135m | -8.6m/s | -54.4°C | 4.4% | 42.1hPa | 2.5V | 08:17:30 | 02:09:17 | 00:00:00 | |
| NBG1-10 | 2026-08-31 00:41:14 | 49.17949 | 10.14623 | 98° | 33km/h | 22101m | -8.3m/s | -54.6°C | 4.6% | 42.3hPa | 2.5V | 00:00:00 | 02:09:21 | 00:00:00 | |
| DL1XH1-15 | 2026-08-31 00:41:13 | 49.17934 | 10.14576 | 42° | 37km/h | 22143m | -8.7m/s | -54.4°C | 4.4% | 42hPa | 2.5V | 08:17:31 | 02:09:16 | 00:00:00 | |
| DL1XH-west | 2026-08-31 00:41:13 | 49.17948 | 10.14605 | 71° | 27km/h | 22118m | -8.4m/s | -54.6°C | 0.7% | 42.2hPa | 2.6V | 08:17:35 | 02:09:19 | 00:00:00 | |
| HSKMA3-T | 2026-08-31 00:41:09 | 49.17934 | 10.14576 | 42° | 37km/h | 22143m | -8.7m/s | -54.4°C | 0.6% | 42hPa | 2.5V | 08:17:35 | 02:09:16 | 00:00:00 | |
| DL1NUX | 2026-08-31 00:41:08 | 49.17897 | 10.14551 | 5° | 42km/h | 22178m | -8.7m/s | -54.2°C | 4.4% | 41.8hPa | 2.6V | 08:17:35 | 02:09:12 | 00:00:00 | |
| DF8AY | 2026-08-31 00:41:03 | 49.17876 | 10.14553 | 345° | 40km/h | 22196m | -8.7m/s | -54.2°C | 0.7% | 41.7hPa | 2.5V | 08:18:26 | 02:09:10 | 00:00:00 | |
| DL1XH1-15 | 2026-08-31 00:41:03 | 49.17848 | 10.14585 | 297° | 29km/h | 22230m | -8.4m/s | -54.2°C | 4.5% | 41.5hPa | 2.5V | 08:17:41 | 02:09:06 | 00:00:00 | |
| DM0DOS-11 | 2026-08-31 00:41:03 | 49.17852 | 10.14575 | 310° | 33km/h | 22221m | -8.4m/s | -54.2°C | 4.5% | 41.5hPa | 2.6V | 08:17:40 | 02:09:07 | 00:00:00 | |
| DL1XH-west | 2026-08-31 00:41:02 | 49.17859 | 10.14566 | 322° | 37km/h | 22213m | -8.5m/s | -54.2°C | 0.7% | 41.6hPa | 2.6V | 08:18:26 | 02:09:08 | 00:00:00 | |
| HSKMA3-T | 2026-08-31 00:40:58 | 49.17846 | 10.14595 | 283° | 27km/h | 22238m | -8.5m/s | -54.2°C | 0.7% | 41.5hPa | 2.5V | 08:19:17 | 02:09:05 | 00:00:00 | |
| BIOWL1-15 | 2026-08-31 00:40:57 | 49.17868 | 10.14633 | 164° | 24km/h | 22298m | -8.3m/s | -54.2°C | 0.7% | 41hPa | 2.5V | 08:22:41 | 02:08:58 | 00:00:00 | |
| DC4HF-4 | 2026-08-31 00:40:56 | 49.17846 | 10.14615 | 253° | 24km/h | 22255m | -8.8m/s | -54.2°C | 1.1% | 41.3hPa | 2.6V | 00:00:00 | 00:00:00 | 00:00:00 | |
| DM0DOS-11 | 2026-08-31 00:40:55 | 49.17873 | 10.14629 | 148° | 27km/h | 22306m | -8.3m/s | -54.1°C | 4.5% | 41hPa | 2.6V | 08:17:50 | 02:08:57 | 00:00:00 | |
| DO3MHA-11 | 2026-08-31 00:40:55 | 49.17848 | 10.14623 | 237° | 27km/h | 22264m | -8.7m/s | -54.1°C | 4.5% | 41.2hPa | 2.6V | 00:00:00 | 02:09:02 | 00:00:00 | |
| DL1XH1-15 | 2026-08-31 00:40:53 | 49.17879 | 10.14622 | 136° | 29km/h | 22315m | -8.5m/s | -54.1°C | 4.5% | 40.9hPa | 2.6V | 08:17:51 | 02:08:56 | 00:00:00 | |
| DL1XH-west | 2026-08-31 00:40:50 | 49.17873 | 10.14629 | 149° | 27km/h | 22306m | -8.3m/s | -54.2°C | 0.7% | 41hPa | 2.6V | 08:18:26 | 02:08:57 | 00:00:00 | |
| DL1ZP-14 | 2026-08-31 00:40:50 | 49.17873 | 10.14629 | 148° | 26km/h | 22307m | -8.3m/s | -54.2°C | 1.1% | 41.0hPa | 2.6V | 00:00:00 | 00:00:00 | 00:00:00 | |
| OE5DXL-15 | 2026-08-31 00:40:49 | 49.17879 | 10.14623 | 137° | 37km/h | 22315m | -8.4m/s | -54.0°C | 4.5% | 40.9hPa | 2.5V | 00:00:00 | 00:00:00 | 00:00:00 | |
| DL1NUX | 2026-08-31 00:40:48 | 49.17894 | 10.14574 | 93° | 40km/h | 22350m | -9.3m/s | -54°C | 4.5% | 40.7hPa | 2.5V | 08:17:55 | 02:08:52 | 00:00:00 | |
| DK7TD | 2026-08-31 00:40:48 | 49.17884 | 10.14613 | 126° | 33km/h | 22324m | -8.8m/s | -54°C | 0.7% | 40.9hPa | 2.5V | 08:18:26 | 02:08:55 | 00:00:00 | |
| HSKMA3-T | 2026-08-31 00:40:47 | 49.17889 | 10.14602 | 116° | 37km/h | 22332m | -8.8m/s | -54°C | 0.7% | 40.8hPa | 2.5V | 08:19:17 | 02:08:54 | 00:00:00 | |
| BIOWL1-15 | 2026-08-31 00:40:45 | 49.17894 | 10.14574 | 94° | 40km/h | 22350m | -9.3m/s | -54°C | 0.7% | 40.7hPa | 2.5V | 08:22:41 | 02:08:52 | 00:00:00 | |
| DO3MHA-11 | 2026-08-31 00:40:45 | 49.17894 | 10.14574 | 94° | 40km/h | 22351m | -9.2m/s | -54.0°C | 4.5% | 40.6hPa | 2.5V | 00:00:00 | 02:08:52 | 00:00:00 | |
| DM0DOS-11 | 2026-08-31 00:40:44 | 49.17873 | 10.14503 | 37° | 40km/h | 22395m | -8.8m/s | -53.9°C | 4.5% | 40.4hPa | 2.5V | 08:18:00 | 02:08:47 | 00:00:00 | |
| DL1XH1-15 | 2026-08-31 00:40:43 | 49.17865 | 10.14495 | 25° | 40km/h | 22404m | -8.7m/s | -53.9°C | 4.5% | 40.4hPa | 2.5V | 08:18:01 | 02:08:46 | 00:00:00 | |
| DL1XH-west | 2026-08-31 00:40:39 | 49.17865 | 10.14495 | 26° | 40km/h | 22404m | -8.7m/s | -53.9°C | 0.7% | 40.4hPa | 2.5V | 08:18:26 | 02:08:46 | 00:00:00 | |
| DL6DJ-15 | 2026-08-31 00:40:39 | 49.17855 | 10.14490 | 13° | 38km/h | 22413m | -8.5m/s | -53.8°C | 1.1% | 40.3hPa | 2.5V | 00:00:00 | 00:00:00 | 00:00:00 | |
| DL1NUX | 2026-08-31 00:40:38 | 49.17829 | 10.14494 | 334° | 35km/h | 22439m | -8.9m/s | -53.6°C | 4.5% | 40.2hPa | 2.5V | 08:18:05 | 02:08:42 | 00:00:00 | |
| DK7TD | 2026-08-31 00:40:37 | 49.17846 | 10.14488 | 0° | 37km/h | 22422m | -8.8m/s | -53.8°C | 0.7% | 40.3hPa | 2.6V | 08:18:26 | 02:08:44 | 00:00:00 | |
| HSKMA3-T | 2026-08-31 00:40:36 | 49.17837 | 10.14490 | 348° | 35km/h | 22431m | -8.8m/s | -53.7°C | 0.7% | 40.2hPa | 2.5V | 08:19:17 | 02:08:43 | 00:00:00 | |
| BIOWL1-15 | 2026-08-31 00:40:35 | 49.17829 | 10.14494 | 334° | 35km/h | 22439m | -9m/s | -53.6°C | 0.8% | 40.2hPa | 2.5V | 08:22:41 | 02:08:42 | 00:00:00 | |
| DJ8HS-15 | 2026-08-31 00:40:35 | 49.17829 | 10.14494 | 335° | 35km/h | 22439m | -8.9m/s | -53.6°C | 4.5% | 40.1hPa | 2.5V | 00:00:00 | 02:08:42 | 00:00:00 | |
| DL1XH1-15 | 2026-08-31 00:40:33 | 49.17812 | 10.14559 | 249° | 35km/h | 22494m | -9m/s | -53.2°C | 4.1% | 39.8hPa | 2.5V | 08:18:11 | 02:08:36 | 00:00:00 | |
| DM0DOS-11 | 2026-08-31 00:40:32 | 49.17810 | 10.14546 | 263° | 35km/h | 22485m | -9.2m/s | -53.2°C | 4.1% | 39.9hPa | 2.5V | 08:18:10 | 02:08:37 | 00:00:00 | |
| DF8AY | 2026-08-31 00:40:30 | 49.17822 | 10.14582 | 222° | 37km/h | 22512m | -8.8m/s | -53.1°C | 0.5% | 39.7hPa | 2.6V | 08:18:26 | 02:08:34 | 00:00:00 | |
| DM7RM-13 | 2026-08-31 00:40:29 | 49.17810 | 10.14546 | 265° | 35km/h | 22485m | -9.2m/s | -53.2°C | 1.0% | 39.9hPa | 2.5V | 08:18:00 | 00:00:00 | 00:00:00 | |
| DL1NUX | 2026-08-31 00:40:28 | 49.17838 | 10.14596 | 198° | 38km/h | 22529m | -8.9m/s | -53°C | 4.1% | 39.6hPa | 2.5V | 08:18:15 | 02:08:32 | 00:00:00 | |
| DL1XH-west | 2026-08-31 00:40:28 | 49.17816 | 10.14571 | 236° | 37km/h | 22503m | -8.9m/s | -53.1°C | 0.5% | 39.7hPa | 2.5V | 08:18:26 | 02:08:35 | 00:00:00 | |
| HSKMA3-T | 2026-08-31 00:40:26 | 49.17830 | 10.14590 | 210° | 38km/h | 22520m | -8.7m/s | -53°C | 0.5% | 39.6hPa | 2.6V | 08:19:17 | 02:08:33 | 00:00:00 | |
| DO3MHA-11 | 2026-08-31 00:40:25 | 49.17838 | 10.14596 | 199° | 35km/h | 22530m | -8.9m/s | -53.0°C | 4.1% | 39.5hPa | 2.5V | 00:00:00 | 02:08:32 | 00:00:00 | |
| DF1GD-15 | 2026-08-31 00:40:24 | 49.17838 | 10.14596 | 199° | 38km/h | 22530m | -9.0m/s | -53.0°C | 1.0% | 39.6hPa | 2.5V | 08:18:00 | 00:00:00 | 00:00:00 | |
| DL1XH1-15 | 2026-08-31 00:40:23 | 49.17889 | 10.14577 | 129° | 31km/h | 22584m | -9m/s | -53.1°C | 4.2% | 39.2hPa | 2.5V | 08:18:21 | 02:08:26 | 00:00:00 | |
| PG1ADW-2 | 2026-08-31 00:40:23 | 49.17858 | 10.14600 | 177° | 35km/h | 22548m | -9.0m/s | -53.0°C | 4.1% | 39.4hPa | 2.6V | 00:00:00 | 00:00:00 | 00:00:00 | |
| DF7PN | 2026-08-31 00:40:21 | 49.17884 | 10.14586 | 142° | 33km/h | 22575m | -9.1m/s | -53.1°C | 1.0% | 39.3hPa | 2.6V | 00:00:00 | 00:00:00 | 00:00:00 | |
| DC4HF-4 | 2026-08-31 00:40:20 | 49.17889 | 10.14577 | 129° | 29km/h | 22584m | -9.0m/s | -53.1°C | 1.0% | 39.3hPa | 2.6V | 00:00:00 | 00:00:00 | 00:00:00 | |
| OE5DXL-15 | 2026-08-31 00:40:19 | 49.17889 | 10.14577 | 130° | 35km/h | 22584m | -8.9m/s | -53.1°C | 4.2% | 39.2hPa | 2.6V | 00:00:00 | 00:00:00 | 00:00:00 | |
| DL1NUX | 2026-08-31 00:40:18 | 49.17893 | 10.14538 | 63° | 27km/h | 22619m | -8.8m/s | -53.3°C | 4.2% | 39hPa | 2.6V | 08:18:25 | 02:08:22 | 00:00:00 | |
| DL1XH-west | 2026-08-31 00:40:17 | 49.17895 | 10.14558 | 98° | 27km/h | 22601m | -8.8m/s | -53.2°C | 0.6% | 39.1hPa | 2.5V | 08:18:26 | 02:08:24 | 00:00:00 | |
| DK7TD | 2026-08-31 00:40:16 | 49.17895 | 10.14547 | 80° | 26km/h | 22610m | -8.7m/s | -53.3°C | 0.6% | 39.1hPa | 2.6V | 08:18:26 | 02:08:23 | 00:00:00 | |
| HSKMA3-T | 2026-08-31 00:40:15 | 49.17893 | 10.14538 | 64° | 27km/h | 22619m | -8.8m/s | -53.3°C | 0.6% | 39hPa | 2.6V | 08:19:17 | 02:08:22 | 00:00:00 | |
| DF8AY | 2026-08-31 00:40:13 | 49.17842 | 10.14524 | 329° | 38km/h | 22683m | -9.4m/s | -53.6°C | 0.6% | 38.7hPa | 2.5V | 08:19:17 | 02:08:15 | 00:00:00 | |
| BIOWL1-15 | 2026-08-31 00:40:13 | 49.17869 | 10.14515 | 6° | 35km/h | 22655m | -9.3m/s | -53.6°C | 0.6% | 38.8hPa | 2.6V | 08:22:41 | 02:08:18 | 00:00:00 | |
| DM0DOS-11 | 2026-08-31 00:40:12 | 49.17860 | 10.14515 | 353° | 37km/h | 22664m | -9.5m/s | -53.6°C | 4.2% | 38.8hPa | 2.6V | 08:18:30 | 02:08:17 | 00:00:00 | |
| DF3TZ-5 | 2026-08-31 00:40:11 | 49.17860 | 10.14515 | 353° | 35km/h | 22665m | -9.5m/s | -53.6°C | 1.0% | 38.8hPa | 2.6V | 00:00:00 | 00:00:00 | 00:00:00 | |
| DB0NH | 2026-08-31 00:40:10 | 49.17860 | 10.14515 | 354° | 38km/h | 22665m | -9.4m/s | -53.5°C | 4.2% | 38.7hPa | 2.6V | 00:00:00 | 02:08:17 | 00:00:00 | |
| DL1NUX | 2026-08-31 00:40:08 | 49.17823 | 10.14559 | 291° | 42km/h | 22710m | -8.7m/s | -53.6°C | 4.3% | 38.5hPa | 2.6V | 08:18:35 | 02:08:12 | 00:00:00 | |
| DL1XH-west | 2026-08-31 00:40:07 | 49.17834 | 10.14533 | 316° | 40km/h | 22693m | -9.1m/s | -53.6°C | 0.6% | 38.6hPa | 2.5V | 08:19:17 | 02:08:14 | 00:00:00 | |
| DK7TD | 2026-08-31 00:40:06 | 49.17828 | 10.14545 | 303° | 40km/h | 22702m | -8.9m/s | -53.6°C | 0.6% | 38.5hPa | 2.5V | 08:19:17 | 02:08:13 | 00:00:00 | |
| HSKMA3-T | 2026-08-31 00:40:04 | 49.17820 | 10.14575 | 280° | 44km/h | 22719m | -8.9m/s | -53.6°C | 0.7% | 38.4hPa | 2.6V | 08:19:17 | 02:08:11 | 00:00:00 | |
| PG1ADW-2 | 2026-08-31 00:40:03 | 49.17819 | 10.14592 | 270° | 37km/h | 22728m | -9.0m/s | 0°C | 0% | 0hPa | 2.6V | 00:00:00 | 00:00:00 | 00:00:00 | |
| DM0DOS-11 | 2026-08-31 00:40:02 | 49.17829 | 10.14642 | 238° | 44km/h | 22756m | -9.3m/s | -53.5°C | 4.2% | 38.2hPa | 2.6V | 08:18:40 | 02:08:07 | 00:00:00 | |
| BIOWL1-15 | 2026-08-31 00:40:01 | 49.17829 | 10.14642 | 239° | 44km/h | 22756m | -9.3m/s | -53.5°C | 0.6% | 38.2hPa | 2.6V | 08:22:41 | 02:08:07 | 00:00:00 | |
| OE9MKV-15 | 2026-08-31 00:39:59 | 49.17836 | 10.14656 | 228° | 33km/h | 22766m | -9.3m/s | -53.4°C | 4.2% | 38.1hPa | 2.6V | 00:00:00 | 02:08:06 | 08:30:00 | |
| DL1NUX | 2026-08-31 00:39:58 | 49.17870 | 10.14683 | 183° | 35km/h | 22801m | -8.9m/s | -53.5°C | 4.3% | 38hPa | 2.5V | 08:18:45 | 02:08:02 | 00:00:00 | |
| DF8AY | 2026-08-31 00:39:58 | 49.17843 | 10.14667 | 217° | 42km/h | 22775m | -9.2m/s | -53.5°C | 0.6% | 38.1hPa | 2.5V | 08:19:17 | 02:08:05 | 00:00:00 | |
| DL1XH-west | 2026-08-31 00:39:57 | 49.17852 | 10.14675 | 207° | 40km/h | 22784m | -9.1m/s | -53.5°C | 0.6% | 38.1hPa | 2.5V | 08:19:17 | 02:08:04 | 00:00:00 | |
| DL1XH1-15 | 2026-08-31 00:39:57 | 49.17892 | 10.14673 | 139° | 27km/h | 22829m | -9.1m/s | -53.5°C | 4.3% | 37.8hPa | 2.5V | 08:18:48 | 02:07:59 | 00:00:00 | |
| DK7TD | 2026-08-31 00:39:55 | 49.17870 | 10.14683 | 184° | 35km/h | 22802m | -8.9m/s | -53.5°C | 0.6% | 38hPa | 2.5V | 08:19:17 | 02:08:02 | 00:00:00 | |
| HSKMA3-T | 2026-08-31 00:39:53 | 49.17886 | 10.14679 | 156° | 29km/h | 22820m | -9m/s | -53.5°C | 0.6% | 37.8hPa | 2.6V | 08:19:17 | 02:08:00 | 00:00:00 | |
| BIOWL1-15 | 2026-08-31 00:39:51 | 49.17899 | 10.14657 | 103° | 26km/h | 22847m | -9.3m/s | -53.5°C | 0.6% | 37.7hPa | 2.5V | 08:22:41 | 02:07:57 | 00:00:00 | |
| DF7PN | 2026-08-31 00:39:50 | 49.17899 | 10.14646 | 82° | 26km/h | 22856m | -9.6m/s | -53.5°C | 1.0% | 37.6hPa | 2.5V | 00:00:00 | 00:00:00 | 00:00:00 | |
| DL1NUX | 2026-08-31 00:39:49 | 49.17877 | 10.14611 | 18° | 42km/h | 22895m | -9.6m/s | -53.8°C | 4.3% | 37.4hPa | 2.5V | 08:18:55 | 02:07:52 | 00:00:00 | |
| DF8AY | 2026-08-31 00:39:47 | 49.17893 | 10.14626 | 49° | 33km/h | 22876m | -9.5m/s | -53.7°C | 0.6% | 37.5hPa | 2.5V | 08:19:17 | 02:07:54 | 00:00:00 | |
| DL1XH-west | 2026-08-31 00:39:47 | 49.17886 | 10.14618 | 33° | 37km/h | 22885m | -9.7m/s | -53.7°C | 0.6% | 37.5hPa | 2.5V | 08:19:17 | 02:07:53 | 00:00:00 | |
| DK7TD | 2026-08-31 00:39:45 | 49.17877 | 10.14611 | 18° | 42km/h | 22895m | -9.6m/s | -53.8°C | 0.6% | 37.4hPa | 2.5V | 08:19:17 | 02:07:52 | 00:00:00 | |
| HSKMA3-T | 2026-08-31 00:39:42 | 49.17842 | 10.14613 | 341° | 51km/h | 22924m | -9.9m/s | -53.9°C | 0.6% | 37.2hPa | 2.6V | 08:19:17 | 02:07:49 | 00:00:00 | |
| OE5DRO-10 | 2026-08-31 00:39:42 | 49.17842 | 10.14612 | 342° | 44km/h | 22925m | -9.9m/s | -53.8°C | 4.3% | 37.2hPa | 2.6V | 00:00:00 | 00:00:00 | 00:00:00 | |
| DM0DOS-11 | 2026-08-31 00:39:41 | 49.17820 | 10.14633 | 317° | 53km/h | 22944m | -9.7m/s | -53.9°C | 4.4% | 37.1hPa | 2.5V | 08:19:00 | 02:07:47 | 00:00:00 | |
| DB0NH | 2026-08-31 00:39:40 | 49.17819 | 10.14633 | 318° | 47km/h | 22944m | -9.6m/s | -53.9°C | 4.4% | 37.0hPa | 2.5V | 00:00:00 | 02:07:47 | 00:00:00 | |
| DL1NUX | 2026-08-31 00:39:38 | 49.17803 | 10.14726 | 251° | 49km/h | 22993m | -10m/s | -53.8°C | 4.3% | 36.8hPa | 2.5V | 08:19:05 | 02:07:42 | 00:00:00 | |
| DF8AY | 2026-08-31 00:39:37 | 49.17801 | 10.14687 | 279° | 53km/h | 22973m | -9.5m/s | -53.8°C | 0.6% | 36.9hPa | 2.6V | 08:19:17 | 02:07:44 | 00:00:00 | |
| DL1XH1-15 | 2026-08-31 00:39:37 | 49.17824 | 10.14763 | 204° | 38km/h | 23023m | -10.2m/s | -54°C | 4.4% | 36.6hPa | 2.6V | 08:19:08 | 02:07:39 | 00:00:00 | |
| DL1XH-west | 2026-08-31 00:39:35 | 49.17803 | 10.14726 | 251° | 49km/h | 22993m | -10m/s | -53.9°C | 0.6% | 36.8hPa | 2.5V | 08:19:17 | 02:07:42 | 00:00:00 | |
| DK7TD | 2026-08-31 00:39:34 | 49.17809 | 10.14742 | 236° | 46km/h | 23003m | -10.4m/s | -53.9°C | 0.7% | 36.8hPa | 2.5V | 08:19:17 | 02:07:41 | 00:00:00 | |
| HSKMA3-T | 2026-08-31 00:39:32 | 49.17824 | 10.14763 | 204° | 38km/h | 23023m | -10.3m/s | -54°C | 0.7% | 36.6hPa | 2.6V | 08:19:17 | 02:07:39 | 00:00:00 | |
| DF8AY | 2026-08-31 00:39:26 | 49.17850 | 10.14728 | 62° | 37km/h | 23083m | -10m/s | -54°C | 0.7% | 36.3hPa | 2.6V | 08:19:17 | 02:07:33 | 00:00:00 | |
| DL1NUX | 2026-08-31 00:39:26 | 49.17844 | 10.14717 | 43° | 42km/h | 23093m | -10m/s | -54.1°C | 4.5% | 36.3hPa | 2.5V | 08:19:15 | 02:07:32 | 00:00:00 | |
| DL1XH-west | 2026-08-31 00:39:25 | 49.17844 | 10.14717 | 43° | 42km/h | 23093m | -10m/s | -54.1°C | 0.7% | 36.3hPa | 2.5V | 08:19:17 | 02:07:32 | 00:00:00 | |
| DK7TD | 2026-08-31 00:39:23 | 49.17823 | 10.14701 | 12° | 51km/h | 23113m | -10.1m/s | -54.1°C | 0.7% | 36.1hPa | 2.5V | 08:19:17 | 02:07:30 | 00:00:00 | |
| DL1XH1-15 | 2026-08-31 00:39:23 | 49.17810 | 10.14699 | 359° | 57km/h | 23123m | -10m/s | -54.1°C | 4.5% | 36.1hPa | 2.5V | 08:19:18 | 02:07:29 | 00:00:00 | |
| HSKMA3-T | 2026-08-31 00:39:23 | 49.17810 | 10.14699 | 359° | 57km/h | 23123m | -10m/s | -54.1°C | 0.7% | 36.1hPa | 2.5V | 08:20:08 | 02:07:29 | 00:00:00 | |
| DM0DOS-11 | 2026-08-31 00:39:21 | 49.17781 | 10.14710 | 333° | 60km/h | 23143m | -10.3m/s | -54°C | 4.5% | 36hPa | 2.6V | 08:19:20 | 02:07:27 | 00:00:00 | |
| OE5DXL-15 | 2026-08-31 00:39:19 | 49.17769 | 10.14722 | 321° | 49km/h | 23154m | -9.9m/s | -53.9°C | 4.4% | 35.9hPa | 2.6V | 00:00:00 | 00:00:00 | 00:00:00 | |
| DL1NUX | 2026-08-31 00:39:18 | 49.17745 | 10.14799 | 267° | 53km/h | 23194m | -10.1m/s | -53.7°C | 4.4% | 35.7hPa | 2.6V | 08:19:25 | 02:07:22 | 00:00:00 | |
| DL1ZP-14 | 2026-08-31 00:39:18 | 49.17751 | 10.14758 | 294° | 57km/h | 23174m | -10.2m/s | -53.8°C | 1.1% | 35.8hPa | 2.5V | 00:00:00 | 00:00:00 | 00:00:00 | |
| DL1XH1-15 | 2026-08-31 00:39:17 | 49.17760 | 10.14846 | 216° | 40km/h | 23224m | -10.2m/s | -53.6°C | 4.3% | 35.5hPa | 2.5V | 08:19:28 | 02:07:19 | 00:00:00 | |
| DL1XH-west | 2026-08-31 00:39:15 | 49.17745 | 10.14799 | 267° | 53km/h | 23194m | -10.1m/s | -53.7°C | 0.7% | 35.7hPa | 2.6V | 08:20:08 | 02:07:22 | 00:00:00 | |
| BIOWL1-15 | 2026-08-31 00:39:14 | 49.17747 | 10.14818 | 252° | 49km/h | 23204m | -10m/s | -53.6°C | 0.6% | 35.6hPa | 2.5V | 08:22:41 | 02:07:21 | 00:00:00 | |
| DK7TD | 2026-08-31 00:39:12 | 49.17760 | 10.14846 | 217° | 40km/h | 23224m | -10.2m/s | -53.6°C | 0.6% | 35.5hPa | 2.5V | 08:20:08 | 02:07:19 | 00:00:00 | |
| HSKMA3-T | 2026-08-31 00:39:11 | 49.17768 | 10.14853 | 197° | 37km/h | 23235m | -10.8m/s | -53.5°C | 0.6% | 35.5hPa | 2.5V | 08:20:08 | 02:07:18 | 00:00:00 | |
| DB0NH | 2026-08-31 00:39:10 | 49.17777 | 10.14854 | 175° | 47km/h | 23245m | -10.4m/s | -53.4°C | 4.3% | 35.4hPa | 2.5V | 00:00:00 | 02:07:17 | 00:00:00 | |
| DF3TZ-5 | 2026-08-31 00:39:09 | 49.17785 | 10.14850 | 148° | 31km/h | 23256m | -10.5m/s | -53.5°C | 1.0% | 35.4hPa | 2.5V | 00:00:00 | 00:00:00 | 00:00:00 | |
| SO1NDE-10 | 2026-08-31 00:39:07 | 49.17794 | 10.14830 | 100° | 49km/h | 23277m | -10.3m/s | -53.5°C | 4.3% | 35.1hPa | 2.5V | 00:00:00 | 02:07:14 | 00:00:00 | |
| DM0DOS-11 | 2026-08-31 00:39:06 | 49.17771 | 10.14777 | 22° | 53km/h | 23318m | -10.1m/s | -53.6°C | 4.3% | 35hPa | 2.5V | 08:19:37 | 02:07:10 | 00:00:00 | |
| DL1XH-west | 2026-08-31 00:39:05 | 49.17790 | 10.14800 | 59° | 44km/h | 23297m | -10.5m/s | -53.5°C | 0.7% | 35.1hPa | 2.6V | 08:20:08 | 02:07:12 | 00:00:00 | |
| DO3MHA-11 | 2026-08-31 00:39:05 | 49.17790 | 10.14800 | 59° | 57km/h | 23298m | -10.4m/s | -53.5°C | 4.3% | 35.1hPa | 2.6V | 00:00:00 | 02:07:12 | 00:00:00 | |
| OE5DRO-10 | 2026-08-31 00:39:04 | 49.17782 | 10.14787 | 40° | 49km/h | 23308m | -10.3m/s | -53.5°C | 4.3% | 35.0hPa | 2.5V | 00:00:00 | 00:00:00 | 00:00:00 | |
| DL1XH1-15 | 2026-08-31 00:39:03 | 49.17758 | 10.14772 | 7° | 57km/h | 23328m | -10.6m/s | -53.5°C | 4.3% | 34.9hPa | 2.5V | 08:19:38 | 02:07:09 | 00:00:00 | |
| DK7TD | 2026-08-31 00:39:02 | 49.17758 | 10.14772 | 8° | 57km/h | 23329m | -10.6m/s | -53.5°C | 0.6% | 34.9hPa | 2.5V | 08:20:08 | 02:07:09 | 00:00:00 | |
| BIOWL1-15 | 2026-08-31 00:39:00 | 49.17729 | 10.14778 | 338° | 62km/h | 23350m | -10.4m/s | -53.5°C | 0.6% | 34.8hPa | 2.5V | 08:22:41 | 02:07:07 | 00:00:00 | |
| OE5WHR-10 | 2026-08-31 00:39:00 | 49.17729 | 10.14778 | 339° | 60km/h | 23350m | -10.3m/s | -53.5°C | 4.3% | 34.8hPa | 2.5V | 00:00:00 | 02:07:07 | 00:00:00 | |
| DL1NUX | 2026-08-31 00:38:58 | 49.17689 | 10.14868 | 266° | 55km/h | 23402m | -10.4m/s | -53.8°C | 4.3% | 34.5hPa | 2.5V | 08:19:45 | 02:07:02 | 00:00:00 | |
| DL1XH1-15 | 2026-08-31 00:38:57 | 49.17705 | 10.14915 | 211° | 42km/h | 23434m | -10.5m/s | -53.8°C | 4.4% | 34.4hPa | 2.5V | 08:19:48 | 02:06:59 | 00:00:00 | |
| DF8AY | 2026-08-31 00:38:54 | 49.17691 | 10.14887 | 250° | 51km/h | 23413m | -10.8m/s | -53.8°C | 0.7% | 0hPa | 2.6V | 08:20:59 | 02:07:01 | 00:00:00 | |
| DM0DOS-11 | 2026-08-31 00:38:54 | 49.17697 | 10.14903 | 232° | 46km/h | 23423m | -10.8m/s | -53.8°C | 4.4% | 34.4hPa | 2.6V | 08:19:47 | 02:07:00 | 00:00:00 | |
| IW2NTF | 2026-08-31 00:38:53 | 49.17736 | 10.14903 | 114° | 35km/h | 23476m | -10.4m/s | -53.8°C | 4.4% | 34.1hPa | 2.6V | 08:19:52 | 02:06:55 | 00:00:00 | |
| DK7TD | 2026-08-31 00:38:51 | 49.17714 | 10.14920 | 189° | 38km/h | 23444m | -10.3m/s | -53.8°C | 0.7% | 34.3hPa | 2.5V | 08:20:08 | 02:06:58 | 00:00:00 | |
| BIOWL1-15 | 2026-08-31 00:38:49 | 49.17736 | 10.14903 | 114° | 35km/h | 23476m | -10.4m/s | -53.8°C | 0.7% | 34.1hPa | 2.6V | 08:22:41 | 02:06:55 | 00:00:00 | |
| HSKMA3-T | 2026-08-31 00:38:49 | 49.17731 | 10.14914 | 140° | 33km/h | 23466m | -10.6m/s | -53.8°C | 0.7% | 34.2hPa | 2.5V | 08:20:08 | 02:06:56 | 00:00:00 | |
| DF7PN | 2026-08-31 00:38:48 | 49.17737 | 10.14890 | 89° | 37km/h | 23487m | -10.6m/s | -53.8°C | 1.1% | 34.1hPa | 2.6V | 00:00:00 | 00:00:00 | 00:00:00 | |
| DM0DOS-11 | 2026-08-31 00:38:47 | 49.17709 | 10.14844 | 13° | 53km/h | 23529m | -10.3m/s | -53.8°C | 4.4% | 33.9hPa | 2.6V | 08:19:57 | 02:06:50 | 00:00:00 | |
| DL1NUX | 2026-08-31 00:38:47 | 49.17730 | 10.14862 | 48° | 44km/h | 23508m | -10.6m/s | -53.8°C | 4.4% | 34hPa | 2.5V | 08:19:55 | 02:06:52 | 00:00:00 | |
| DL1XH-west | 2026-08-31 00:38:44 | 49.17721 | 10.14851 | 30° | 47km/h | 23519m | -10.3m/s | -53.8°C | 0.7% | 34hPa | 2.5V | 08:20:08 | 02:06:51 | 00:00:00 | |
| AZAK | 2026-08-31 00:38:44 | 49.17721 | 10.14851 | 31° | 47km/h | 23519m | -10.3m/s | -53.8°C | 1.1% | 33.9hPa | 2.6V | 00:00:00 | 00:00:00 | 00:00:00 | |
| DL1XH1-15 | 2026-08-31 00:38:43 | 49.17696 | 10.14842 | 358° | 57km/h | 23539m | -10.4m/s | -53.8°C | 4.4% | 33.8hPa | 2.6V | 08:19:58 | 02:06:49 | 00:00:00 | |
| IW2NTF | 2026-08-31 00:38:43 | 49.17638 | 10.14928 | 272° | 53km/h | 23604m | -10.6m/s | -53.5°C | 4.4% | 33.5hPa | 2.6V | 08:20:04 | 02:06:43 | 00:00:00 | |
| DK7TD | 2026-08-31 00:38:41 | 49.17682 | 10.14846 | 344° | 58km/h | 23550m | -10.4m/s | -53.7°C | 0.7% | 33.8hPa | 2.5V | 08:20:08 | 02:06:48 | 00:00:00 | |
| HSKMA3-T | 2026-08-31 00:38:38 | 49.17647 | 10.14887 | 302° | 60km/h | 23582m | -11.1m/s | -53.6°C | 0.7% | 33.6hPa | 2.5V | 08:20:08 | 02:06:45 | 00:00:00 | |
| DL1NUX | 2026-08-31 00:38:38 | 49.17640 | 10.14948 | 255° | 49km/h | 23615m | -10.6m/s | -53.5°C | 4.3% | 33.4hPa | 2.5V | 08:20:05 | 02:06:42 | 00:00:00 | |
| DL1XH-west | 2026-08-31 00:38:34 | 49.17644 | 10.14964 | 238° | 46km/h | 23626m | -11m/s | -53.5°C | 0.7% | 33.4hPa | 2.5V | 08:20:08 | 02:06:41 | 00:00:00 | |
| DF8AY | 2026-08-31 00:38:33 | 49.17651 | 10.14977 | 219° | 40km/h | 23637m | -10.9m/s | 0°C | 0% | 0hPa | 2.5V | 08:20:59 | 02:06:40 | 00:00:00 | |
| DK7TD | 2026-08-31 00:38:31 | 49.17668 | 10.14984 | 169° | 35km/h | 23658m | -10.6m/s | -53.5°C | 0.7% | 33.2hPa | 2.6V | 08:20:59 | 02:06:38 | 00:00:00 | |
| HSKMA3-T | 2026-08-31 00:38:28 | 49.17685 | 10.14954 | 97° | 42km/h | 23690m | -10.3m/s | -53.5°C | 0.6% | 33hPa | 2.5V | 08:20:59 | 02:06:35 | 00:00:00 | |
| DK5PH-5 | 2026-08-31 00:38:27 | 49.17684 | 10.14938 | 78° | 51km/h | 23701m | -10.3m/s | -53.4°C | 4.4% | 32.9hPa | 2.5V | 00:00:00 | 02:06:34 | 00:00:00 | |
| DL1NUX | 2026-08-31 00:38:26 | 49.17672 | 10.14905 | 43° | 55km/h | 23722m | -11m/s | -53.1°C | 4.3% | 32.9hPa | 2.5V | 08:20:15 | 02:06:32 | 00:00:00 | |
| OE5DRO-10 | 2026-08-31 00:38:26 | 49.17680 | 10.14921 | 61° | 53km/h | 23712m | -10.6m/s | -53.3°C | 4.3% | 32.9hPa | 2.5V | 00:00:00 | 00:00:00 | 00:00:00 | |
| DL1XH1-15 | 2026-08-31 00:38:23 | 49.17631 | 10.14880 | 0° | 62km/h | 23756m | -11.2m/s | -52.9°C | 4.2% | 32.7hPa | 2.5V | 08:20:18 | 02:06:29 | 00:00:00 | |
| DL1XH-west | 2026-08-31 00:38:23 | 49.17647 | 10.14884 | 15° | 60km/h | 23745m | -10.9m/s | -53°C | 0.6% | 32.7hPa | 2.5V | 08:20:59 | 02:06:30 | 00:00:00 | |
| DF8AY | 2026-08-31 00:38:22 | 49.17574 | 10.14958 | 265° | 46km/h | 23821m | -11m/s | 0°C | 0% | 0hPa | 2.6V | 08:20:59 | 02:06:23 | 00:00:00 | |
| DK7TD | 2026-08-31 00:38:21 | 49.17601 | 10.14891 | 333° | 60km/h | 23778m | -10.7m/s | -52.9°C | 0.6% | 32.6hPa | 2.6V | 08:20:59 | 02:06:27 | 00:00:00 | |
| DF9NV-10 | 2026-08-31 00:38:20 | 49.17601 | 10.14891 | 334° | 60km/h | 23778m | -10.7m/s | -52.9°C | 1.1% | 32.6hPa | 2.5V | 08:20:00 | 00:00:00 | 00:00:00 | |
| OE5DXL-15 | 2026-08-31 00:38:19 | 49.17589 | 10.14904 | 318° | 51km/h | 23789m | -10.6m/s | -52.9°C | 4.2% | 32.5hPa | 2.5V | 08:20:00 | 00:00:00 | 00:00:00 | |
| DL1NUX | 2026-08-31 00:38:18 | 49.17576 | 10.14974 | 244° | 42km/h | 23833m | -11.2m/s | -52.9°C | 4.2% | 32.3hPa | 2.6V | 08:20:25 | 02:06:22 | 00:00:00 | |
| HSKMA3-T | 2026-08-31 00:38:17 | 49.17575 | 10.14939 | 284° | 51km/h | 23810m | -10.8m/s | -52.9°C | 0.6% | 32.4hPa | 2.5V | 08:20:59 | 02:06:24 | 00:00:00 | |
| BIOWL1-15 | 2026-08-31 00:38:16 | 49.17601 | 10.14996 | 176° | 40km/h | 23867m | -10.8m/s | -52.9°C | 0.6% | 32.1hPa | 2.5V | 08:22:41 | 02:06:19 | 00:00:00 | |
| DL1XH-west | 2026-08-31 00:38:13 | 49.17591 | 10.14994 | 198° | 38km/h | 23856m | -11.3m/s | -52.9°C | 0.6% | 32.2hPa | 2.5V | 08:20:59 | 02:06:20 | 00:00:00 | |
| DF8AY | 2026-08-31 00:38:11 | 49.17611 | 10.14992 | 153° | 42km/h | 23878m | -10.7m/s | 0°C | 0% | 0hPa | 2.5V | 08:20:59 | 02:06:18 | 00:00:00 | |
| DK7TD | 2026-08-31 00:38:10 | 49.17619 | 10.14981 | 131° | 46km/h | 23889m | -11.2m/s | -52.8°C | 0.6% | 32.1hPa | 2.6V | 08:20:59 | 02:06:17 | 00:00:00 | |
| HSKMA3-T | 2026-08-31 00:38:07 | 49.17627 | 10.14926 | 77° | 55km/h | 23923m | -11.2m/s | -52.7°C | 0.6% | 31.9hPa | 2.5V | 08:20:59 | 02:06:14 | 00:00:00 | |
| BIOWL1-15 | 2026-08-31 00:38:06 | 49.17577 | 10.14871 | 351° | 53km/h | 23980m | -10.8m/s | -52.8°C | 0.5% | 31.6hPa | 2.5V | 08:22:41 | 02:06:09 | 00:00:00 | |
| DO3MHA-11 | 2026-08-31 00:38:05 | 49.17614 | 10.14890 | 45° | 53km/h | 23946m | -11.4m/s | -52.7°C | 4.1% | 31.7hPa | 2.6V | 00:00:00 | 02:06:12 | 00:00:00 | |
| DJTTGO | 2026-08-31 00:38:04 | 49.17603 | 10.14877 | 28° | 55km/h | 23958m | -11.1m/s | -52.7°C | 1.0% | 31.7hPa | 2.5V | 08:20:00 | 00:00:00 | 00:00:00 | |
| DL1XH1-15 | 2026-08-31 00:38:03 | 49.17577 | 10.14871 | 351° | 53km/h | 23980m | -10.8m/s | -52.8°C | 4.1% | 31.6hPa | 2.5V | 08:20:38 | 02:06:09 | 00:00:00 | |
| DL1XH-west | 2026-08-31 00:38:03 | 49.17590 | 10.14871 | 9° | 53km/h | 23969m | -10.9m/s | -52.8°C | 0.6% | 31.6hPa | 2.5V | 08:20:59 | 02:06:10 | 00:00:00 | |
| DF8AY | 2026-08-31 00:38:01 | 49.17564 | 10.14877 | 332° | 51km/h | 23991m | -10.9m/s | 0°C | 0% | 0hPa | 2.5V | 08:20:59 | 02:06:08 | 00:00:00 | |
| DK7TD | 2026-08-31 00:38:00 | 49.17554 | 10.14889 | 313° | 51km/h | 24002m | -10.7m/s | -52.8°C | 0.5% | 31.5hPa | 2.5V | 08:20:59 | 02:06:07 | 00:00:00 | |
| DL1NUX | 2026-08-31 00:37:58 | 49.17559 | 10.14981 | 223° | 55km/h | 24058m | -11.5m/s | -52.9°C | 4.2% | 31.2hPa | 2.5V | 08:20:45 | 02:06:02 | 00:00:00 | |
| DF9NV-10 | 2026-08-31 00:37:58 | 49.17547 | 10.14905 | 295° | 51km/h | 24013m | -10.8m/s | -52.8°C | 1.0% | 31.5hPa | 2.5V | 08:20:00 | 00:00:00 | 00:00:00 | |
| DL1XH1-15 | 2026-08-31 00:37:57 | 49.17597 | 10.15001 | 174° | 53km/h | 24092m | -10.8m/s | -52.8°C | 4.2% | 31.1hPa | 2.5V | 08:20:48 | 02:05:59 | 00:00:00 | |
| BIOWL1-15 | 2026-08-31 00:37:56 | 49.17550 | 10.14965 | 241° | 55km/h | 24047m | -11.4m/s | -52.9°C | 0.6% | 31.3hPa | 2.5V | 08:22:41 | 02:06:03 | 00:00:00 | |
| HSKMA3-T | 2026-08-31 00:37:55 | 49.17559 | 10.14981 | 224° | 57km/h | 24058m | -11.5m/s | -52.9°C | 0.6% | 31.2hPa | 2.5V | 08:20:59 | 02:06:02 | 00:00:00 | |
| DL1XH-west | 2026-08-31 00:37:52 | 49.17597 | 10.15001 | 174° | 53km/h | 24092m | -10.8m/s | -52.8°C | 0.5% | 31.1hPa | 2.5V | 08:20:59 | 02:05:59 | 00:00:00 | |
| DF8AY | 2026-08-31 00:37:51 | 49.17609 | 10.14996 | 156° | 49km/h | 24103m | -11.4m/s | 0°C | 0% | 0hPa | 2.5V | 08:20:59 | 02:05:58 | 00:00:00 | |
| DK7TD | 2026-08-31 00:37:49 | 49.17626 | 10.14971 | 114° | 46km/h | 24127m | -11.6m/s | -52.7°C | 0.6% | 30.9hPa | 2.6V | 08:20:59 | 02:05:56 | 00:00:00 | |
| OE5DXL-15 | 2026-08-31 00:37:49 | 49.17625 | 10.14971 | 115° | 55km/h | 24127m | -11.6m/s | -52.7°C | 4.2% | 30.8hPa | 2.6V | 00:00:00 | 00:00:00 | 00:00:00 | |
| OE5DRO-10 | 2026-08-31 00:37:48 | 49.17628 | 10.14954 | 91° | 53km/h | 24139m | -11.4m/s | -52.6°C | 4.1% | 30.8hPa | 2.6V | 00:00:00 | 00:00:00 | 00:00:00 | |
| DL1NUX | 2026-08-31 00:37:46 | 49.17609 | 10.14910 | 28° | 53km/h | 24173m | -11.4m/s | -52.6°C | 4.1% | 30.7hPa | 2.5V | 08:20:55 | 02:05:52 | 00:00:00 | |
| HSKMA3-T | 2026-08-31 00:37:44 | 49.17596 | 10.14903 | 12° | 57km/h | 24185m | -11.3m/s | -52.6°C | 0.4% | 30.6hPa | 2.5V | 08:20:59 | 02:05:51 | 00:00:00 | |
| DL1XH1-15 | 2026-08-31 00:37:43 | 49.17567 | 10.14907 | 337° | 60km/h | 24208m | -11m/s | -52.7°C | 4.1% | 30.5hPa | 2.6V | 08:20:58 | 02:05:49 | 00:00:00 | |
| DL1XH-west | 2026-08-31 00:37:42 | 49.17567 | 10.14907 | 338° | 60km/h | 24208m | -11m/s | -52.7°C | 0.5% | 30.5hPa | 2.6V | 08:20:59 | 02:05:49 | 00:00:00 | |
| DB0NH | 2026-08-31 00:37:40 | 49.17543 | 10.14934 | 308° | 55km/h | 24231m | -11.0m/s | -52.6°C | 4.1% | 30.3hPa | 2.5V | 00:00:00 | 02:05:47 | 00:00:00 | |
| DL1NUX | 2026-08-31 00:37:38 | 49.17549 | 10.15019 | 208° | 42km/h | 24288m | -11.9m/s | -53°C | 4.2% | 30.1hPa | 2.5V | 08:21:05 | 02:05:42 | 00:00:00 | |
| DK7TD | 2026-08-31 00:37:38 | 49.17533 | 10.14974 | 271° | 51km/h | 24253m | -11.2m/s | -52.8°C | 0.6% | 30.3hPa | 2.6V | 08:21:50 | 02:05:45 | 00:00:00 | |
| DF8AY | 2026-08-31 00:37:35 | 49.17549 | 10.15019 | 209° | 42km/h | 24288m | -11.9m/s | 0°C | 0% | 0hPa | 2.5V | 18:12:15 | 02:05:42 | 00:00:00 | |
| DO3MHA-11 | 2026-08-31 00:37:35 | 49.17549 | 10.15019 | 209° | 53km/h | 24288m | -11.9m/s | -52.9°C | 4.2% | 30.0hPa | 2.5V | 00:00:00 | 02:05:42 | 00:00:00 | |
| DM0DOS-11 | 2026-08-31 00:37:34 | 49.17570 | 10.15021 | 158° | 44km/h | 24311m | -11.1m/s | -53°C | 4.2% | 30hPa | 2.5V | 08:21:07 | 02:05:40 | 00:00:00 | |
| HSKMA3-T | 2026-08-31 00:37:34 | 49.17559 | 10.15023 | 184° | 40km/h | 24300m | -11.4m/s | -53°C | 0.6% | 30.1hPa | 2.5V | 08:22:41 | 02:05:41 | 00:00:00 | |
| DL1XH-west | 2026-08-31 00:37:31 | 49.17587 | 10.14996 | 118° | 51km/h | 24334m | -11.5m/s | -53.1°C | 0.6% | 29.9hPa | 2.6V | 08:21:50 | 02:05:38 | 00:00:00 | |
| DK7TD | 2026-08-31 00:37:27 | 49.17578 | 10.14911 | 51° | 66km/h | 24382m | -11.7m/s | -53.2°C | 0.6% | 29.7hPa | 2.6V | 08:21:50 | 02:05:34 | 00:00:00 | |
| DL1NUX | 2026-08-31 00:37:26 | 49.17551 | 10.14883 | 20° | 66km/h | 24406m | -11.9m/s | -53.1°C | 4.3% | 29.6hPa | 2.5V | 08:21:15 | 02:05:32 | 00:00:00 | |
| DF8AY | 2026-08-31 00:37:24 | 49.17535 | 10.14877 | 4° | 64km/h | 24417m | -10.8m/s | 0°C | 0% | 0hPa | 2.5V | 18:12:15 | 02:05:31 | 00:00:00 | |
| DL1XH1-15 | 2026-08-31 00:37:23 | 49.17505 | 10.14887 | 330° | 60km/h | 24441m | -11.1m/s | -53°C | 4.3% | 29.4hPa | 2.6V | 08:21:18 | 02:05:29 | 00:00:00 | |
| HSKMA3-T | 2026-08-31 00:37:22 | 49.17505 | 10.14887 | 330° | 60km/h | 24441m | -11.1m/s | -53°C | 0.6% | 29.4hPa | 2.6V | 08:22:41 | 02:05:29 | 00:00:00 | |
| DL1XH-west | 2026-08-31 00:37:21 | 49.17494 | 10.14901 | 311° | 53km/h | 24453m | -11.8m/s | -53°C | 0.6% | 29.4hPa | 2.6V | 08:21:50 | 02:05:28 | 00:00:00 | |
| OE5WHR-10 | 2026-08-31 00:37:21 | 49.17494 | 10.14901 | 311° | 62km/h | 24453m | -11.8m/s | -53.0°C | 4.2% | 29.3hPa | 2.6V | 00:00:00 | 00:00:00 | 00:00:00 | |
| DB0UT-7 | 2026-08-31 00:37:20 | 49.17487 | 10.14917 | 293° | 53km/h | 24465m | -12.2m/s | -53.0°C | 4.2% | 29.2hPa | 2.6V | 00:00:00 | 02:05:27 | 00:00:00 | |
| OE5DXL-15 | 2026-08-31 00:37:19 | 49.17484 | 10.14936 | 274° | 53km/h | 24478m | -11.5m/s | -53.0°C | 4.3% | 29.2hPa | 2.6V | 00:00:00 | 00:00:00 | 00:00:00 | |
| DL1NUX | 2026-08-31 00:37:18 | 49.17514 | 10.14988 | 188° | 51km/h | 24523m | -12.2m/s | -53°C | 4.3% | 29hPa | 2.6V | 08:21:25 | 02:05:22 | 00:00:00 | |
| DL1XH1-15 | 2026-08-31 00:37:17 | 49.17552 | 10.14966 | 133° | 57km/h | 24559m | -12.7m/s | -52.9°C | 4.2% | 28.9hPa | 2.5V | 08:21:28 | 02:05:19 | 00:00:00 | |
| DK7TD | 2026-08-31 00:37:16 | 49.17502 | 10.14982 | 208° | 49km/h | 24511m | -11.7m/s | -53.1°C | 0.6% | 29.1hPa | 2.6V | 08:21:50 | 02:05:23 | 00:00:00 | |
| BIOWL1-15 | 2026-08-31 00:37:15 | 49.17514 | 10.14988 | 189° | 51km/h | 24523m | -12.2m/s | -53.1°C | 0.6% | 29hPa | 2.6V | 08:22:41 | 02:05:22 | 00:00:00 | |
| DF8AY | 2026-08-31 00:37:14 | 49.17541 | 10.14980 | 152° | 57km/h | 24547m | -12.1m/s | 0°C | 0% | 0hPa | 2.5V | 18:12:15 | 02:05:20 | 00:00:00 | |
| HSKMA3-T | 2026-08-31 00:37:11 | 49.17560 | 10.14948 | 116° | 57km/h | 24571m | -12.8m/s | -52.9°C | 0.6% | 28.8hPa | 2.6V | 08:22:41 | 02:05:18 | 00:00:00 | |
| DB0NH | 2026-08-31 00:37:10 | 49.17564 | 10.14927 | 99° | 55km/h | 24584m | -12.3m/s | -52.8°C | 4.2% | 28.7hPa | 2.6V | 00:00:00 | 02:05:17 | 00:00:00 | |
| DL1XH-west | 2026-08-31 00:37:10 | 49.17565 | 10.14927 | 99° | 55km/h | 24584m | -12.3m/s | -52.9°C | 0.6% | 28.8hPa | 2.6V | 08:21:50 | 02:05:17 | 00:00:00 | |
| AZAK | 2026-08-31 00:37:09 | 49.17565 | 10.14927 | 100° | 55km/h | 24584m | -12.3m/s | -52.9°C | 1.0% | 28.8hPa | 2.6V | 08:21:00 | 00:00:00 | 00:00:00 | |
| SO1NDE-10 | 2026-08-31 00:37:07 | 49.17552 | 10.14873 | 39° | 55km/h | 24621m | -11.2m/s | -52.7°C | 4.1% | 28.6hPa | 2.6V | 00:00:00 | 02:05:14 | 00:00:00 | |
| DL1NUX | 2026-08-31 00:37:06 | 49.17530 | 10.14862 | 356° | 47km/h | 24644m | -11.6m/s | -52.8°C | 4.2% | 28.5hPa | 2.6V | 08:21:35 | 02:05:12 | 00:00:00 | |
| DK7TD | 2026-08-31 00:37:05 | 49.17530 | 10.14862 | 357° | 47km/h | 24644m | -11.6m/s | -52.8°C | 0.6% | 28.5hPa | 2.6V | 08:21:50 | 02:05:12 | 00:00:00 | |
| DL1XH-west | 2026-08-31 00:37:00 | 49.17498 | 10.14936 | 260° | 60km/h | 24705m | -12.1m/s | -52.8°C | 0.6% | 28.2hPa | 2.6V | 08:21:50 | 02:05:07 | 00:00:00 | |
| DF8AY | 2026-08-31 00:36:58 | 49.17512 | 10.14976 | 222° | 62km/h | 24730m | -11.3m/s | 0°C | 0% | 0hPa | 2.5V | 18:12:15 | 02:05:05 | 00:00:00 | |
| HSKMA3-T | 2026-08-31 00:36:57 | 49.17524 | 10.14989 | 206° | 60km/h | 24742m | -11.3m/s | -52.9°C | 0.6% | 28.1hPa | 2.5V | 08:22:41 | 02:05:04 | 00:00:00 | |
| DK7TD | 2026-08-31 00:36:55 | 49.17552 | 10.14995 | 168° | 51km/h | 24767m | -12.5m/s | -52.9°C | 0.6% | 27.9hPa | 2.6V | 08:21:50 | 02:05:02 | 00:00:00 | |
| DL1XH-west | 2026-08-31 00:36:50 | 49.17577 | 10.14921 | 60° | 49km/h | 24827m | -13.5m/s | -52.9°C | 0.6% | 27.7hPa | 2.6V | 08:21:50 | 02:04:57 | 00:00:00 | |
| HSKMA3-T | 2026-08-31 00:36:46 | 49.17529 | 10.14897 | 341° | 58km/h | 24880m | -11.1m/s | -52.9°C | 0.7% | 27.5hPa | 2.5V | 08:22:41 | 02:04:53 | 00:00:00 | |
| DK7TD | 2026-08-31 00:36:45 | 49.17516 | 10.14907 | 325° | 62km/h | 24891m | -12.1m/s | -52.9°C | 0.6% | 27.4hPa | 2.5V | 08:22:41 | 02:04:52 | 00:00:00 | |
| DO3MHA-11 | 2026-08-31 00:36:45 | 49.17516 | 10.14907 | 325° | 58km/h | 24892m | -12.1m/s | -52.9°C | 4.2% | 27.4hPa | 2.6V | 00:00:00 | 02:04:52 | 00:00:00 | |
| DM7RM-13 | 2026-08-31 00:36:44 | 49.17516 | 10.14907 | 326° | 62km/h | 24892m | -12.1m/s | -52.9°C | 1.0% | 27.4hPa | 2.6V | 08:22:00 | 00:00:00 | 00:00:00 | |
| PG1ADW-2 | 2026-08-31 00:36:43 | 49.17497 | 10.14945 | 289° | 58km/h | 24916m | -10.9m/s | -52.8°C | 4.2% | 27.3hPa | 2.6V | 00:00:00 | 00:00:00 | 00:00:00 | |
| DL1ZP-14 | 2026-08-31 00:36:42 | 49.17497 | 10.14993 | 252° | 62km/h | 24940m | -11.9m/s | -52.8°C | 1.0% | 27.3hPa | 2.5V | 00:00:00 | 00:00:00 | 00:00:00 | |
| DB0NH | 2026-08-31 00:36:40 | 49.17504 | 10.15014 | 237° | 57km/h | 24952m | -13.3m/s | -52.7°C | 4.2% | 27.1hPa | 2.5V | 08:22:00 | 02:04:47 | 00:00:00 | |
| DL1XH1-15 | 2026-08-31 00:36:39 | 49.17570 | 10.15018 | 109° | 44km/h | 25027m | -12.9m/s | -52.8°C | 4.3% | 26.9hPa | 2.6V | 08:22:06 | 02:04:41 | 00:00:00 | |
| DL1XH-west | 2026-08-31 00:36:39 | 49.17515 | 10.15031 | 217° | 60km/h | 24965m | -11.8m/s | -52.8°C | 0.6% | 27.1hPa | 2.6V | 08:22:41 | 02:04:46 | 00:00:00 | |
| BIOWL1-15 | 2026-08-31 00:36:36 | 49.17554 | 10.15042 | 160° | 49km/h | 25002m | -12.4m/s | -52.9°C | 0.7% | 27hPa | 2.5V | 08:22:41 | 02:04:43 | 00:00:00 | |
| DJ8HS-15 | 2026-08-31 00:36:35 | 49.17564 | 10.15032 | 135° | 57km/h | 25015m | -12.1m/s | -52.8°C | 4.3% | 26.9hPa | 2.5V | 08:22:00 | 02:04:42 | 00:00:00 | |
| OE5DRO-10 | 2026-08-31 00:36:32 | 49.17566 | 10.14984 | 59° | 57km/h | 25053m | -13.3m/s | -52.6°C | 4.2% | 26.7hPa | 2.5V | 00:00:00 | 00:00:00 | 00:00:00 | |
| AZAK | 2026-08-31 00:36:30 | 49.17529 | 10.14954 | 4° | 66km/h | 25093m | -12.0m/s | -52.6°C | 1.0% | 26.6hPa | 2.5V | 08:22:00 | 00:00:00 | 00:00:00 | |
| DL1XH1-15 | 2026-08-31 00:36:29 | 49.17464 | 10.15026 | 281° | 62km/h | 25157m | -13m/s | -52.4°C | 4.2% | 26.3hPa | 2.5V | 08:22:16 | 02:04:31 | 00:00:00 | |
| DL1XH-west | 2026-08-31 00:36:29 | 49.17529 | 10.14954 | 3° | 66km/h | 25093m | -12m/s | -52.6°C | 0.7% | 26.6hPa | 2.5V | 08:22:41 | 02:04:36 | 00:00:00 | |
| DK7TD | 2026-08-31 00:36:28 | 49.17512 | 10.14956 | 348° | 69km/h | 25106m | -13.6m/s | -52.6°C | 0.7% | 26.6hPa | 2.6V | 08:22:41 | 02:04:35 | 00:00:00 | |
| HSKMA3-T | 2026-08-31 00:36:26 | 49.17481 | 10.14982 | 316° | 69km/h | 25132m | -13.4m/s | -52.5°C | 0.6% | 26.4hPa | 2.5V | 08:22:41 | 02:04:33 | 00:00:00 | |
| BIOWL1-15 | 2026-08-31 00:36:23 | 49.17477 | 10.15089 | 222° | 58km/h | 25195m | -12.3m/s | -52.2°C | 0.6% | 26.1hPa | 2.6V | 08:22:41 | 02:04:28 | 00:00:00 | |
| DL1XH-west | 2026-08-31 00:36:19 | 49.17503 | 10.15104 | 180° | 55km/h | 25219m | -12.2m/s | -52.2°C | 0.6% | 26.1hPa | 2.5V | 08:22:41 | 02:04:26 | 00:00:00 | |
| DK7TD | 2026-08-31 00:36:17 | 49.17527 | 10.15088 | 137° | 53km/h | 25245m | -13.3m/s | -52.1°C | 0.6% | 26hPa | 2.5V | 08:22:41 | 02:04:24 | 00:00:00 | |
| HSKMA3-T | 2026-08-31 00:36:16 | 49.17534 | 10.15071 | 111° | 53km/h | 25258m | -12.5m/s | -52.1°C | 0.6% | 25.9hPa | 2.5V | 08:22:41 | 02:04:23 | 00:00:00 | |
| DL1XH-west | 2026-08-31 00:36:09 | 49.17475 | 10.14995 | 334° | 60km/h | 25348m | -13.4m/s | -51.6°C | 0.5% | 25.6hPa | 2.6V | 08:22:41 | 02:04:16 | 00:00:00 | |
| BIOWL1-15 | 2026-08-31 00:36:09 | 49.17467 | 10.15121 | 223° | 68km/h | 25425m | -13.1m/s | -51.5°C | 0.5% | 25.2hPa | 2.5V | 08:22:41 | 02:04:10 | 00:00:00 | |
| DL1NUX | 2026-08-31 00:36:08 | 49.17450 | 10.15078 | 258° | 66km/h | 25399m | -13.1m/s | -51.5°C | 4% | 25.4hPa | 2.5V | 08:22:35 | 02:04:12 | 00:00:00 | |
| DK7TD | 2026-08-31 00:36:07 | 49.17454 | 10.15029 | 295° | 66km/h | 25374m | -12.1m/s | -51.6°C | 0.5% | 25.4hPa | 2.6V | 08:22:41 | 02:04:14 | 00:00:00 | |
| HSKMA3-T | 2026-08-31 00:36:06 | 49.17449 | 10.15053 | 277° | 66km/h | 25386m | -13.7m/s | -51.5°C | 0.5% | 25.4hPa | 2.5V | 08:22:41 | 02:04:13 | 00:00:00 | |
| BIOWL1-15 | 2026-08-31 00:35:59 | 49.17523 | 10.15132 | 145° | 51km/h | 25477m | -13.9m/s | -51.4°C | 0.5% | 25hPa | 2.6V | 08:22:41 | 02:04:06 | 00:00:00 | |
| DL1XH-west | 2026-08-31 00:35:58 | 49.17531 | 10.15118 | 121° | 47km/h | 25490m | -14.1m/s | -51.4°C | 0.5% | 24.9hPa | 2.5V | 08:23:32 | 02:04:05 | 00:00:00 | |
| HSKMA3-T | 2026-08-31 00:35:55 | 49.17528 | 10.15069 | 47° | 47km/h | 25532m | -13.7m/s | -51.3°C | 0.5% | 24.8hPa | 2.5V | 08:23:32 | 02:04:02 | 00:00:00 | |
| DK7TD | 2026-08-31 00:35:53 | 49.17506 | 10.15055 | 359° | 53km/h | 25557m | -13.2m/s | -51.3°C | 0.5% | 24.7hPa | 2.6V | 08:23:32 | 02:04:00 | 00:00:00 | |
| DL1XH1-15 | 2026-08-31 00:35:51 | 49.17475 | 10.15193 | 233° | 71km/h | 25650m | -14.1m/s | -51.4°C | 4% | 24.3hPa | 2.6V | 08:22:54 | 02:03:53 | 00:00:00 | |
| DL1XH-west | 2026-08-31 00:35:47 | 49.17466 | 10.15169 | 251° | 73km/h | 25636m | -14.3m/s | -51.4°C | 0.5% | 24.4hPa | 2.6V | 08:23:32 | 02:03:54 | 00:00:00 | |
| SONCRA | 2026-08-31 00:35:47 | 49.17475 | 10.15193 | 233° | 71km/h | 25650m | -14.1m/s | -51.4°C | 0.9% | 24.3hPa | 2.5V | 00:00:00 | 00:00:00 | 00:00:00 | |
| HSKMA3-T | 2026-08-31 00:35:42 | 49.17532 | 10.15224 | 159° | 57km/h | 25705m | -14m/s | -51.3°C | 0.5% | 24.1hPa | 2.5V | 08:23:32 | 02:03:49 | 00:00:00 | |
| DL1XH-west | 2026-08-31 00:35:37 | 49.17539 | 10.15146 | 37° | 55km/h | 25773m | -14.3m/s | -51.3°C | 0.5% | 23.9hPa | 2.5V | 08:23:32 | 02:03:44 | 00:00:00 | |
| DK7TD | 2026-08-31 00:35:31 | 49.17459 | 10.15203 | 287° | 77km/h | 25855m | -13.6m/s | -51°C | 0.4% | 23.6hPa | 2.6V | 08:23:32 | 02:03:38 | 00:00:00 | |
| HSKMA3-T | 2026-08-31 00:35:28 | 49.17466 | 10.15286 | 237° | 71km/h | 25896m | -14m/s | -51.1°C | 0.5% | 23.4hPa | 2.5V | 08:23:32 | 02:03:35 | 00:00:00 | |
| BIOWL1-15 | 2026-08-31 00:35:28 | 49.17477 | 10.15305 | 219° | 68km/h | 25910m | -14.1m/s | -51.2°C | 0.4% | 23.4hPa | 2.5V | 08:26:05 | 02:03:34 | 00:00:00 | |
| DL1XH-west | 2026-08-31 00:35:26 | 49.17491 | 10.15317 | 200° | 60km/h | 25924m | -14.4m/s | -51.2°C | 0.5% | 23.3hPa | 2.5V | 08:23:32 | 02:03:33 | 00:00:00 | |
| DK7TD | 2026-08-31 00:35:21 | 49.17530 | 10.15275 | 73° | 47km/h | 25993m | -13.8m/s | -50.9°C | 0.4% | 23.1hPa | 2.5V | 08:23:32 | 02:03:28 | 00:00:00 | |
| DK5PH-5 | 2026-08-31 00:35:21 | 49.17530 | 10.15275 | 74° | 60km/h | 25993m | -13.8m/s | -50.9°C | 3.9% | 23.0hPa | 2.6V | 00:00:00 | 02:03:28 | 00:00:00 | |
| DB0ND-19 | 2026-08-31 00:35:20 | 49.17524 | 10.15259 | 47° | 49km/h | 26006m | -14.3m/s | -50.9°C | 0.9% | 23.0hPa | 2.6V | 00:00:00 | 00:00:00 | 00:00:00 | |
| DB0UT-7 | 2026-08-31 00:35:19 | 49.17513 | 10.15247 | 25° | 62km/h | 26020m | -14.2m/s | -50.8°C | 3.8% | 22.9hPa | 2.6V | 00:00:00 | 02:03:26 | 00:00:00 | |
| DL1NUX | 2026-08-31 00:35:18 | 49.17438 | 10.15292 | 300° | 77km/h | 26089m | -14.7m/s | -50.7°C | 3.9% | 22.7hPa | 2.6V | 08:23:26 | 02:03:21 | 00:00:00 | |
| HSKMA3-T | 2026-08-31 00:35:17 | 49.17482 | 10.15243 | 348° | 69km/h | 26048m | -13.8m/s | -50.7°C | 0.4% | 22.9hPa | 2.5V | 08:23:32 | 02:03:24 | 00:00:00 | |
| DL1XH-west | 2026-08-31 00:35:15 | 49.17450 | 10.15269 | 316° | 75km/h | 26075m | -13.9m/s | -50.7°C | 0.4% | 22.8hPa | 2.5V | 08:23:32 | 02:03:22 | 00:00:00 | |
| DK7TD | 2026-08-31 00:35:11 | 49.17431 | 10.15373 | 252° | 68km/h | 26132m | -14.2m/s | -50.6°C | 0.4% | 22.6hPa | 2.5V | 08:23:32 | 02:03:18 | 00:00:00 | |
| HSKMA3-T | 2026-08-31 00:35:07 | 49.17471 | 10.15419 | 166° | 46km/h | 26188m | -14.1m/s | -50.5°C | 0.4% | 22.4hPa | 2.6V | 08:24:23 | 02:03:14 | 00:00:00 | |
| DL1NUX | 2026-08-31 00:35:05 | 49.17487 | 10.15380 | 83° | 51km/h | 26231m | -14.6m/s | -50.5°C | 3.7% | 22.2hPa | 2.5V | 08:23:36 | 02:03:11 | 00:00:00 | |
| DL1XH-west | 2026-08-31 00:35:04 | 49.17487 | 10.15380 | 84° | 51km/h | 26231m | -14.6m/s | -50.6°C | 0.4% | 22.2hPa | 2.5V | 08:24:23 | 02:03:11 | 00:00:00 | |
| DK7TD | 2026-08-31 00:35:00 | 49.17442 | 10.15324 | 5° | 73km/h | 26288m | -14.5m/s | -50.7°C | 0.3% | 22hPa | 2.6V | 08:24:23 | 02:03:07 | 00:00:00 | |
| BIOWL1-15 | 2026-08-31 00:34:54 | 49.17373 | 10.15430 | 262° | 66km/h | 26377m | -15.1m/s | -50.9°C | 0.4% | 21.7hPa | 2.6V | 08:26:05 | 02:03:01 | 00:00:00 | |
| DL1XH-west | 2026-08-31 00:34:53 | 49.17386 | 10.15471 | 219° | 58km/h | 26407m | -14.2m/s | -50.9°C | 0.4% | 21.6hPa | 2.5V | 08:24:23 | 02:02:59 | 00:00:00 | |
| DK7TD | 2026-08-31 00:34:50 | 49.17411 | 10.15483 | 172° | 53km/h | 26436m | -15.1m/s | -50.9°C | 0.5% | 21.6hPa | 2.5V | 08:24:23 | 02:02:57 | 00:00:00 | |
| DK5PH-5 | 2026-08-31 00:34:50 | 49.17411 | 10.15483 | 172° | 60km/h | 26436m | -15.1m/s | -50.9°C | 3.9% | 21.5hPa | 2.5V | 00:00:00 | 02:02:57 | 00:00:00 | |
| OE5DXL-15 | 2026-08-31 00:34:49 | 49.17423 | 10.15476 | 149° | 62km/h | 26451m | -14.1m/s | -50.9°C | 3.8% | 21.4hPa | 2.5V | 00:00:00 | 00:00:00 | 00:00:00 | |
| DB0UT-7 | 2026-08-31 00:34:48 | 49.17433 | 10.15461 | 124° | 62km/h | 26465m | -14.4m/s | -50.9°C | 3.8% | 21.4hPa | 2.5V | 00:00:00 | 00:00:00 | 00:00:00 | |
| DL1NUX | 2026-08-31 00:34:45 | 49.17426 | 10.15376 | 45° | 66km/h | 26522m | -14.9m/s | -51°C | 3.9% | 21.2hPa | 2.5V | 08:23:56 | 02:02:51 | 00:00:00 | |
| SONCRA | 2026-08-31 00:34:44 | 49.17426 | 10.15376 | 45° | 66km/h | 26522m | -14.9m/s | -51.0°C | 0.9% | 21.2hPa | 2.5V | 00:00:00 | 00:00:00 | 00:00:00 | |
| DL1XH-west | 2026-08-31 00:34:43 | 49.17413 | 10.15362 | 25° | 64km/h | 26537m | -15.7m/s | -51°C | 0.4% | 21.2hPa | 2.5V | 08:24:23 | 02:02:50 | 00:00:00 | |
| DK7TD | 2026-08-31 00:34:40 | 49.17368 | 10.15367 | 324° | 62km/h | 26583m | -15.5m/s | -51°C | 0.4% | 21.1hPa | 2.6V | 08:24:23 | 02:02:47 | 00:00:00 | |
| BIOWL1-15 | 2026-08-31 00:34:38 | 49.17352 | 10.15406 | 279° | 62km/h | 26613m | -14.3m/s | -51°C | 0.5% | 21hPa | 2.5V | 08:26:05 | 02:02:45 | 00:00:00 | |
| HSKMA3-T | 2026-08-31 00:34:34 | 49.17385 | 10.15487 | 204° | 73km/h | 26671m | -14.8m/s | -51.1°C | 0.5% | 20.8hPa | 2.5V | 08:24:23 | 02:02:41 | 00:00:00 | |
| DL1XH-west | 2026-08-31 00:34:32 | 49.17420 | 10.15493 | 168° | 69km/h | 26701m | -15.1m/s | -51.2°C | 0.5% | 20.6hPa | 2.5V | 08:24:23 | 02:02:39 | 00:00:00 | |
| DK7TD | 2026-08-31 00:34:30 | 49.17450 | 10.15470 | 136° | 62km/h | 26731m | -15.8m/s | -51.3°C | 0.5% | 20.6hPa | 2.6V | 08:24:23 | 02:02:37 | 00:00:00 | |
| HSKMA3-T | 2026-08-31 00:34:23 | 49.17422 | 10.15417 | 313° | 60km/h | 26834m | -14.3m/s | -51.3°C | 0.5% | 20.3hPa | 2.6V | 08:24:23 | 02:02:30 | 00:00:00 | |
| DK7TD | 2026-08-31 00:34:19 | 49.17411 | 10.15528 | 253° | 88km/h | 26891m | -16.1m/s | -51.1°C | 0.5% | 20.1hPa | 2.5V | 08:24:23 | 02:02:26 | 00:00:00 | |
| DL1XH-west | 2026-08-31 00:34:19 | 49.17420 | 10.15558 | 241° | 86km/h | 26907m | -16.6m/s | -51°C | 0.5% | 20hPa | 2.6V | 08:24:23 | 02:02:25 | 00:00:00 | |
| BIOWL1-15 | 2026-08-31 00:34:14 | 49.17478 | 10.15613 | 173° | 55km/h | 26972m | -16.1m/s | -51°C | 0.5% | 19.8hPa | 2.5V | 08:26:05 | 02:02:21 | 00:00:00 | |
| HSKMA3-T | 2026-08-31 00:34:13 | 49.17489 | 10.15607 | 147° | 46km/h | 26988m | -15.8m/s | -51°C | 0.5% | 19.8hPa | 2.5V | 08:25:14 | 02:02:20 | 00:00:00 | |
| DK7TD | 2026-08-31 00:34:08 | 49.17472 | 10.15547 | 9° | 62km/h | 27065m | -16.3m/s | -50.9°C | 0.5% | 19.5hPa | 2.5V | 08:25:14 | 02:02:15 | 00:00:00 | |
| DL1XH-west | 2026-08-31 00:34:07 | 49.17455 | 10.15547 | 351° | 69km/h | 27081m | -16.1m/s | -51°C | 0.6% | 19.5hPa | 2.5V | 08:25:14 | 02:02:14 | 00:00:00 | |
| DK7TD | 2026-08-31 00:33:58 | 49.17429 | 10.15754 | 203° | 64km/h | 27220m | -16.4m/s | -50.6°C | 0.5% | 19.1hPa | 2.5V | 08:25:14 | 02:02:05 | 00:00:00 | |
| DL1XH-west | 2026-08-31 00:33:57 | 49.17444 | 10.15758 | 179° | 55km/h | 27236m | -17m/s | -50.5°C | 0.5% | 19hPa | 2.5V | 08:25:14 | 02:02:04 | 00:00:00 | |
| HSKMA3-T | 2026-08-31 00:33:56 | 49.17456 | 10.15754 | 152° | 47km/h | 27252m | -17.2m/s | -50.4°C | 0.4% | 19hPa | 2.5V | 08:25:14 | 02:02:03 | 00:00:00 | |
| DO3MHA-11 | 2026-08-31 00:33:55 | 49.17464 | 10.15742 | 120° | 71km/h | 27270m | -16.7m/s | -50.3°C | 3.8% | 18.9hPa | 2.5V | 00:00:00 | 02:02:02 | 00:00:00 | |
| DL1NUX | 2026-08-31 00:33:54 | 49.17399 | 10.15654 | 354° | 88km/h | 27361m | -16.2m/s | -50.4°C | 3.8% | 18.7hPa | 2.5V | 08:24:51 | 02:01:56 | 00:00:00 | |
| DK7TD | 2026-08-31 00:33:47 | 49.17359 | 10.15675 | 325° | 80km/h | 27395m | -16.8m/s | -50.4°C | 0.5% | 18.6hPa | 2.6V | 08:25:14 | 02:01:54 | 00:00:00 | |
| DL1XH-west | 2026-08-31 00:33:46 | 49.17333 | 10.15744 | 270° | 62km/h | 27445m | -16.6m/s | -50.3°C | 0.5% | 18.4hPa | 2.5V | 08:25:14 | 02:01:51 | 00:00:00 | |
| BIOWL1-15 | 2026-08-31 00:33:43 | 49.17336 | 10.15765 | 243° | 53km/h | 27461m | -16.3m/s | -50.2°C | 0.4% | 18.4hPa | 2.5V | 08:26:05 | 02:01:50 | 00:00:00 | |
| HSKMA3-T | 2026-08-31 00:33:41 | 49.17355 | 10.15786 | 185° | 49km/h | 27493m | -15.6m/s | -50°C | 0.4% | 18.3hPa | 2.6V | 08:25:14 | 02:01:48 | 00:00:00 | |
| DK7TD | 2026-08-31 00:33:36 | 49.17391 | 10.15697 | 78° | 77km/h | 27573m | -16.7m/s | -50.2°C | 0.4% | 18.1hPa | 2.6V | 08:25:14 | 02:01:43 | 00:00:00 | |
| DL1XH-west | 2026-08-31 00:33:34 | 49.17371 | 10.15646 | 41° | 80km/h | 27607m | -17.4m/s | -50.1°C | 0.5% | 18hPa | 2.6V | 08:25:14 | 02:01:41 | 00:00:00 | |
| DL1NUX | 2026-08-31 00:33:32 | 49.17289 | 10.15706 | 253° | 66km/h | 27724m | -16.7m/s | -50°C | 3.8% | 17.7hPa | 2.5V | 08:25:13 | 02:01:34 | 00:00:00 | |
| DK7TD | 2026-08-31 00:33:25 | 49.17310 | 10.15745 | 210° | 71km/h | 27758m | -17.2m/s | -49.9°C | 0.4% | 17.6hPa | 2.5V | 08:26:05 | 02:01:32 | 00:00:00 | |
| HSKMA3-T | 2026-08-31 00:33:23 | 49.17344 | 10.15755 | 171° | 71km/h | 27793m | -18m/s | -49.8°C | 0.4% | 17.5hPa | 2.6V | 08:26:05 | 02:01:30 | 00:00:00 | |
| BIOWL1-15 | 2026-08-31 00:33:23 | 49.17361 | 10.15746 | 151° | 69km/h | 27811m | -17.7m/s | -49.7°C | 0.4% | 17.4hPa | 2.5V | 08:26:05 | 02:01:29 | 00:00:00 | |
| DK7TD | 2026-08-31 00:33:14 | 49.17319 | 10.15649 | 329° | 75km/h | 27946m | -17.7m/s | -49.4°C | 0.4% | 17.1hPa | 2.5V | 08:26:05 | 02:01:21 | 00:00:00 | |
| DO9HM | 2026-08-31 00:33:14 | 49.17305 | 10.15668 | 310° | 75km/h | 27964m | -17.6m/s | -49.4°C | 0.9% | 17.0hPa | 2.6V | 08:26:00 | 00:00:00 | 00:00:00 | |
| DF1GD-15 | 2026-08-31 00:33:12 | 49.17305 | 10.15668 | 310° | 75km/h | 27964m | -17.6m/s | -49.4°C | 0.9% | 17.0hPa | 2.6V | 08:26:00 | 00:00:00 | 00:00:00 | |
| DL1NUX | 2026-08-31 00:33:11 | 49.17348 | 10.15793 | 161° | 62km/h | 28086m | -18m/s | -49.4°C | 3.7% | 16.7hPa | 2.6V | 08:25:34 | 02:01:13 | 00:00:00 | |
| BIOWL1-15 | 2026-08-31 00:33:10 | 49.17295 | 10.15749 | 251° | 73km/h | 28016m | -16.9m/s | -49.3°C | 0.4% | 16.9hPa | 2.5V | 08:26:05 | 02:01:17 | 00:00:00 | |
| DL1XH-west | 2026-08-31 00:33:07 | 49.17332 | 10.15795 | 185° | 64km/h | 28068m | -18m/s | -49.4°C | 0.3% | 16.8hPa | 2.5V | 08:26:05 | 02:01:14 | 00:00:00 | |
| HSKMA3-T | 2026-08-31 00:33:06 | 49.17348 | 10.15793 | 162° | 62km/h | 28086m | -18m/s | -49.4°C | 0.3% | 16.7hPa | 2.6V | 08:26:05 | 02:01:13 | 00:00:00 | |
| DK7TD | 2026-08-31 00:33:04 | 49.17370 | 10.15761 | 114° | 64km/h | 28122m | -17.5m/s | -49.5°C | 0.4% | 16.7hPa | 2.5V | 08:26:05 | 02:01:11 | 00:00:00 | |
| DB0UT-7 | 2026-08-31 00:33:02 | 49.17369 | 10.15713 | 67° | 71km/h | 28157m | -17.0m/s | -49.3°C | 3.7% | 16.5hPa | 2.5V | 00:00:00 | 02:01:09 | 00:00:00 | |
| NBG1-10 | 2026-08-31 00:32:59 | 49.17326 | 10.15671 | 1° | 69km/h | 28209m | -17.1m/s | -49.2°C | 3.7% | 16.3hPa | 2.5V | 08:25:00 | 02:01:06 | 00:00:00 | |
| DL1NUX | 2026-08-31 00:32:58 | 49.17268 | 10.15741 | 283° | 78km/h | 28281m | -18.4m/s | -49.4°C | 3.8% | 16.2hPa | 2.6V | 08:25:45 | 02:01:02 | 00:00:00 | |
| BIOWL1-15 | 2026-08-31 00:32:58 | 49.17307 | 10.15676 | 341° | 80km/h | 28226m | -17.6m/s | -49.3°C | 0.4% | 16.4hPa | 2.5V | 08:26:05 | 02:01:05 | 00:00:00 | |
| HSKMA3-T | 2026-08-31 00:32:55 | 49.17268 | 10.15741 | 284° | 78km/h | 28281m | -18.4m/s | -49.4°C | 0.5% | 16.2hPa | 2.6V | 08:26:05 | 02:01:02 | 00:00:00 | |
| DK7TD | 2026-08-31 00:32:54 | 49.17266 | 10.15770 | 264° | 75km/h | 28299m | -18.3m/s | -49.3°C | 0.4% | 16.2hPa | 2.5V | 08:26:05 | 02:01:01 | 00:00:00 | |
| DL1XH-west | 2026-08-31 00:32:53 | 49.17271 | 10.15796 | 243° | 69km/h | 28317m | -17.8m/s | -49.1°C | 0.4% | 16.1hPa | 2.5V | 08:26:05 | 02:01:00 | 00:00:00 | |
| DL6DJ-15 | 2026-08-31 00:32:53 | 49.17282 | 10.15817 | 220° | 66km/h | 28335m | -16.8m/s | -49.0°C | 0.8% | 16.1hPa | 2.5V | 00:00:00 | 00:00:00 | 00:00:00 | |
| DF1GD-15 | 2026-08-31 00:32:51 | 49.17282 | 10.15817 | 222° | 66km/h | 28335m | -16.8m/s | -49.0°C | 0.9% | 16.1hPa | 2.5V | 08:26:00 | 00:00:00 | 00:00:00 | |
| DL1NUX | 2026-08-31 00:32:50 | 49.17340 | 10.15729 | 61° | 69km/h | 28456m | -18.8m/s | -48.8°C | 3.7% | 15.8hPa | 2.5V | 08:25:55 | 02:00:52 | 00:00:00 | |
| BIOWL1-15 | 2026-08-31 00:32:46 | 49.17269 | 10.15714 | 310° | 69km/h | 28544m | -16.5m/s | -48.4°C | 0.3% | 15.6hPa | 2.5V | 08:26:05 | 02:00:47 | 00:00:00 | |
| DB0ND-19 | 2026-08-31 00:32:45 | 49.17340 | 10.15729 | 61° | 69km/h | 28457m | -18.8m/s | -48.8°C | 0.9% | 15.8hPa | 2.6V | 00:00:00 | 00:00:00 | 00:00:00 | |
| HSKMA3-T | 2026-08-31 00:32:45 | 49.17340 | 10.15729 | 61° | 69km/h | 28456m | -18.8m/s | -48.8°C | 0.4% | 15.8hPa | 2.5V | 08:26:05 | 02:00:52 | 00:00:00 | |
| DK7TD | 2026-08-31 00:32:43 | 49.17315 | 10.15695 | 20° | 68km/h | 28494m | -17.7m/s | -48.7°C | 0.4% | 15.7hPa | 2.6V | 08:26:05 | 02:00:50 | 00:00:00 | |
| PG1ADW-2 | 2026-08-31 00:32:42 | 49.17298 | 10.15692 | 357° | 62km/h | 28511m | -16.6m/s | -48.6°C | 3.6% | 15.6hPa | 2.6V | 00:00:00 | 00:00:00 | 08:30:00 | |
| SONCRA | 2026-08-31 00:32:41 | 49.17269 | 10.15714 | 310° | 69km/h | 28544m | -16.5m/s | -48.4°C | 0.8% | 15.6hPa | 2.5V | 00:00:00 | 00:00:00 | 00:00:00 | |
| DB0NH | 2026-08-31 00:32:40 | 49.17269 | 10.15714 | 311° | 68km/h | 28544m | -16.4m/s | -48.4°C | 3.6% | 15.5hPa | 2.5V | 00:00:00 | 02:00:47 | 00:00:00 | |
| DL1NUX | 2026-08-31 00:32:38 | 49.17285 | 10.15843 | 216° | 77km/h | 28633m | -18.6m/s | -48.2°C | 3.5% | 15.4hPa | 2.5V | 08:26:05 | 02:00:42 | 00:00:00 | |
| BIOWL1-15 | 2026-08-31 00:32:35 | 49.17301 | 10.15856 | 197° | 71km/h | 28652m | -18.6m/s | -48.1°C | 0.2% | 15.3hPa | 2.5V | 08:27:47 | 02:00:41 | 00:00:00 | |
| DL1XH-west | 2026-08-31 00:32:35 | 49.17285 | 10.15843 | 216° | 77km/h | 28633m | -18.6m/s | -48.2°C | 0.3% | 15.4hPa | 2.5V | 08:26:05 | 02:00:42 | 00:00:00 | |
| DK7TD | 2026-08-31 00:32:32 | 49.17333 | 10.15853 | 153° | 58km/h | 28688m | -17.8m/s | -48°C | 0.3% | 15.2hPa | 2.6V | 08:26:56 | 02:00:39 | 00:00:00 | |
| DB0UT-7 | 2026-08-31 00:32:32 | 49.17333 | 10.15853 | 153° | 62km/h | 28688m | -17.7m/s | -47.9°C | 3.5% | 15.2hPa | 2.5V | 00:00:00 | 00:00:00 | 00:00:00 | |
| DF1GD-15 | 2026-08-31 00:32:30 | 49.17343 | 10.15839 | 127° | 55km/h | 28706m | -17.2m/s | -48.0°C | 0.9% | 15.2hPa | 2.5V | 08:26:00 | 00:00:00 | 00:00:00 | |
| DF9NV-10 | 2026-08-31 00:32:29 | 49.17348 | 10.15799 | 73° | 58km/h | 28739m | -16.6m/s | -48.0°C | 0.8% | 15.1hPa | 2.5V | 08:26:00 | 00:00:00 | 00:00:00 | |
| DL1NUX | 2026-08-31 00:32:25 | 49.17290 | 10.15752 | 355° | 80km/h | 28808m | -17.2m/s | -48.1°C | 3.6% | 14.9hPa | 2.5V | 08:26:15 | 02:00:32 | 00:00:00 | |
| DK7TD | 2026-08-31 00:32:22 | 49.17238 | 10.15793 | 309° | 77km/h | 28860m | -17m/s | -48°C | 0.3% | 14.8hPa | 2.6V | 08:26:56 | 02:00:29 | 00:00:00 | |
| OE5WHR-10 | 2026-08-31 00:32:22 | 49.17238 | 10.15793 | 310° | 62km/h | 28860m | -16.9m/s | -48.0°C | 3.6% | 14.8hPa | 2.6V | 00:00:00 | 00:00:00 | 00:00:00 | |
| DL6DJ-15 | 2026-08-31 00:32:21 | 49.17229 | 10.15817 | 291° | 69km/h | 28876m | -16.6m/s | -48.0°C | 0.8% | 14.8hPa | 2.6V | 00:00:00 | 00:00:00 | 00:00:00 | |
| DL1NUX | 2026-08-31 00:32:20 | 49.17267 | 10.15909 | 172° | 51km/h | 28973m | -16.2m/s | -47.9°C | 3.6% | 14.6hPa | 2.6V | 08:26:25 | 02:00:22 | 00:00:00 | |
| DL1XH-west | 2026-08-31 00:32:17 | 49.17243 | 10.15901 | 213° | 51km/h | 28941m | -16.6m/s | -48°C | 0.3% | 14.7hPa | 2.5V | 08:26:56 | 02:00:24 | 00:00:00 | |
| HSKMA3-T | 2026-08-31 00:32:15 | 49.17267 | 10.15909 | 173° | 51km/h | 28974m | -16.2m/s | -47.9°C | 0.3% | 14.6hPa | 2.6V | 08:26:56 | 02:00:22 | 00:00:00 | |
| BIOWL1-15 | 2026-08-31 00:32:12 | 49.17298 | 10.15875 | 117° | 55km/h | 29021m | -15.6m/s | -47.5°C | 0.3% | 14.5hPa | 2.5V | 08:27:47 | 02:00:19 | 00:00:00 | |
| DK7TD | 2026-08-31 00:32:11 | 49.17303 | 10.15854 | 103° | 58km/h | 29036m | -15.3m/s | -47.4°C | 0.2% | 14.4hPa | 2.5V | 08:26:56 | 02:00:18 | 00:00:00 | |
| DB0NH | 2026-08-31 00:32:10 | 49.17305 | 10.15832 | 88° | 49km/h | 29051m | -15.3m/s | -47.2°C | 3.4% | 14.4hPa | 2.6V | 08:26:00 | 02:00:17 | 00:00:00 | |
| SONCRA | 2026-08-31 00:32:09 | 49.17302 | 10.15809 | 74° | 60km/h | 29067m | -15.5m/s | -47.2°C | 0.8% | 14.4hPa | 2.5V | 00:00:00 | 00:00:00 | 00:00:00 | |
| DF9NV-10 | 2026-08-31 00:32:08 | 49.17302 | 10.15809 | 76° | 60km/h | 29067m | -15.5m/s | -47.2°C | 0.8% | 14.4hPa | 2.5V | 08:26:00 | 00:00:00 | 00:00:00 | |
| DL1NUX | 2026-08-31 00:32:05 | 49.17220 | 10.15714 | 3° | 60km/h | 29171m | -14.6m/s | -46.9°C | 3.4% | 14.1hPa | 2.5V | 08:26:38 | 02:00:09 | 00:00:00 | |
| HSKMA3-T | 2026-08-31 00:32:05 | 49.17250 | 10.15724 | 21° | 62km/h | 29142m | -14.7m/s | -47°C | 0.2% | 14.2hPa | 2.6V | 08:26:56 | 02:00:11 | 00:00:00 | |
| BIOWL1-15 | 2026-08-31 00:32:03 | 49.17165 | 10.15732 | 332° | 53km/h | 29229m | -14.9m/s | -46.7°C | 0.2% | 14hPa | 2.5V | 08:27:47 | 02:00:05 | 00:00:00 | |
| DK7TD | 2026-08-31 00:32:01 | 49.17205 | 10.15714 | 355° | 58km/h | 29186m | -14.5m/s | -46.9°C | 0.2% | 14.1hPa | 2.5V | 08:26:56 | 02:00:08 | 00:00:00 | |
| DL1XH-west | 2026-08-31 00:32:00 | 49.17191 | 10.15717 | 347° | 57km/h | 29200m | -14.4m/s | -46.9°C | 0.1% | 14.1hPa | 2.6V | 08:26:56 | 02:00:07 | 00:00:00 | |
| HEMX73-11 | 2026-08-31 00:31:59 | 49.17177 | 10.15723 | 340° | 55km/h | 29215m | -14.1m/s | -46.8°C | 0.8% | 14.1hPa | 2.6V | 08:26:00 | 00:00:00 | 00:00:00 | |
| PG1ADW-2 | 2026-08-31 00:31:56 | 49.17144 | 10.15756 | 316° | 42km/h | 29259m | -14.6m/s | -46.5°C | 3.3% | 13.9hPa | 2.6V | 00:00:00 | 00:00:00 | 00:00:00 | |
| DL1NUX | 2026-08-31 00:31:55 | 49.17119 | 10.15815 | 287° | 42km/h | 29317m | -14.9m/s | -46.3°C | 3.2% | 13.8hPa | 2.6V | 08:26:48 | 01:59:59 | 00:00:00 | |
| HSKMA3-T | 2026-08-31 00:31:54 | 49.17129 | 10.15784 | 302° | 47km/h | 29288m | -14.8m/s | -46.5°C | 0.2% | 13.9hPa | 2.6V | 08:26:56 | 02:00:01 | 00:00:00 | |
| DK7TD | 2026-08-31 00:31:50 | 49.17116 | 10.15846 | 271° | 38km/h | 29347m | -14.5m/s | -46.1°C | 0.1% | 13.8hPa | 2.5V | 08:26:56 | 01:59:57 | 00:00:00 | |
| DL1XH-west | 2026-08-31 00:31:49 | 49.17116 | 10.15861 | 263° | 38km/h | 29361m | -14.5m/s | -46.1°C | 0% | 13.8hPa | 2.5V | 08:26:56 | 01:59:56 | 00:00:00 | |
| HSKMA3-T | 2026-08-31 00:31:43 | 49.17147 | 10.15933 | 216° | 40km/h | 29449m | -14.8m/s | -45.9°C | 0.1% | 13.6hPa | 2.5V | 08:27:47 | 01:59:50 | 00:00:00 | |
| DL1NUX | 2026-08-31 00:31:41 | 49.17200 | 10.15970 | 194° | 37km/h | 29539m | -14.9m/s | -46°C | 3.2% | 13.4hPa | 2.6V | 08:27:03 | 01:59:44 | 00:00:00 | |
| DK7TD | 2026-08-31 00:31:40 | 49.17173 | 10.15956 | 204° | 40km/h | 29494m | -14.9m/s | -46°C | 0.1% | 13.5hPa | 2.5V | 08:27:47 | 01:59:47 | 00:00:00 | |
| BIOWL1-15 | 2026-08-31 00:31:39 | 49.17200 | 10.15970 | 195° | 37km/h | 29539m | -14.9m/s | -46°C | 0.1% | 13.4hPa | 2.6V | 08:27:47 | 01:59:44 | 00:00:00 | |
| DL1XH-west | 2026-08-31 00:31:39 | 49.17191 | 10.15966 | 198° | 37km/h | 29524m | -15.1m/s | -46°C | 0.1% | 13.4hPa | 2.5V | 08:27:47 | 01:59:45 | 00:00:00 | |
| SONCRA | 2026-08-31 00:31:38 | 49.17191 | 10.15966 | 197° | 35km/h | 29524m | -15.1m/s | -46.0°C | 0.7% | 13.4hPa | 2.5V | 00:00:00 | 00:00:00 | 00:00:00 | |
| HEMX73-11 | 2026-08-31 00:31:37 | 49.17190 | 10.15966 | 199° | 37km/h | 29524m | -15.1m/s | -46.0°C | 0.7% | 13.4hPa | 2.5V | 00:00:00 | 00:00:00 | 00:00:00 | |
| OE5DRO-10 | 2026-08-31 00:31:36 | 49.17208 | 10.15973 | 192° | 35km/h | 29554m | -14.9m/s | -46.0°C | 3.2% | 13.3hPa | 2.5V | 00:00:00 | 00:00:00 | 00:00:00 | |
| DO3MHA-11 | 2026-08-31 00:31:35 | 49.17217 | 10.15976 | 192° | 33km/h | 29569m | -14.6m/s | -46.0°C | 3.3% | 13.3hPa | 2.5V | 00:00:00 | 01:59:42 | 00:00:00 | |
| DO9LL-15 | 2026-08-31 00:31:34 | 49.17225 | 10.15978 | 191° | 33km/h | 29584m | -14.6m/s | -46.1°C | 3.3% | 13.3hPa | 2.5V | 00:00:00 | 01:59:41 | 00:00:00 | |
| DL1XH1-15 | 2026-08-31 00:31:33 | 49.17273 | 10.15989 | 187° | 31km/h | 29671m | -14.6m/s | -46.1°C | 3.3% | 13.2hPa | 2.5V | 08:30:00 | 01:59:35 | 00:00:00 | |
| HSKMA3-T | 2026-08-31 00:31:32 | 49.17241 | 10.15982 | 189° | 31km/h | 29613m | -14.7m/s | -46.2°C | 0.1% | 13.2hPa | 2.6V | 08:27:47 | 01:59:39 | 00:00:00 | |
| DK7TD | 2026-08-31 00:31:30 | 49.17257 | 10.15986 | 188° | 31km/h | 29642m | -14.7m/s | -46.1°C | 0.2% | 13.2hPa | 2.5V | 08:27:47 | 01:59:37 | 00:00:00 | |
| BIOWL1-15 | 2026-08-31 00:31:27 | 49.17289 | 10.15993 | 189° | 35km/h | 29701m | -14.8m/s | -45.9°C | 0.1% | 13.1hPa | 2.6V | 08:27:47 | 01:59:33 | 00:00:00 | |
| HSKMA3-T | 2026-08-31 00:31:22 | 49.17325 | 10.16005 | 196° | 38km/h | 29759m | -14.9m/s | -45.5°C | 0.1% | 12.9hPa | 2.5V | 08:27:47 | 01:59:29 | 00:00:00 | |
| SO1NDE-10 | 2026-08-31 00:31:22 | 49.17325 | 10.16005 | 196° | 46km/h | 29760m | -14.9m/s | -45.4°C | 3.2% | 12.9hPa | 2.5V | 08:27:00 | 01:59:29 | 00:00:00 | |
| DL1NUX | 2026-08-31 00:31:21 | 49.17373 | 10.16039 | 213° | 46km/h | 29833m | -14.9m/s | -45.5°C | 3.3% | 12.8hPa | 2.5V | 08:27:23 | 01:59:24 | 00:00:00 | |
| DK7TD | 2026-08-31 00:31:19 | 49.17354 | 10.16022 | 206° | 42km/h | 29804m | -14.7m/s | -45.5°C | 0.1% | 12.9hPa | 2.6V | 08:27:47 | 01:59:26 | 00:00:00 | |
| DL1XH-west | 2026-08-31 00:31:16 | 49.17383 | 10.16049 | 216° | 47km/h | 29848m | -15.2m/s | -45.5°C | 0.1% | 12.8hPa | 2.5V | 08:27:47 | 01:59:23 | 00:00:00 | |
| HSKMA3-T | 2026-08-31 00:31:11 | 49.17427 | 10.16116 | 233° | 49km/h | 29926m | -16.1m/s | -45.2°C | 0.1% | 12.6hPa | 2.5V | 08:27:47 | 01:59:18 | 00:00:00 | |
| DF1GD-15 | 2026-08-31 00:31:10 | 49.17434 | 10.16131 | 238° | 47km/h | 29943m | -16.1m/s | -45.1°C | 0.8% | 12.6hPa | 2.5V | 08:27:00 | 00:00:00 | 00:00:00 | |
| DK7TD | 2026-08-31 00:31:10 | 49.17440 | 10.16146 | 244° | 44km/h | 29958m | -16m/s | -45°C | 0.1% | 12.6hPa | 2.6V | 08:27:47 | 01:59:16 | 00:00:00 | |
| DL1NUX | 2026-08-31 00:31:08 | 49.17447 | 10.16176 | 257° | 38km/h | 29990m | -15.4m/s | -44.8°C | 3.1% | 12.5hPa | 2.5V | 08:27:33 | 01:59:14 | 00:00:00 | |
| DL1XH-west | 2026-08-31 00:31:06 | 49.17448 | 10.16191 | 267° | 38km/h | 30005m | -15.4m/s | -44.6°C | 0% | 12.4hPa | 2.5V | 08:27:47 | 01:59:13 | 00:00:00 | |
| DO3MHA-11 | 2026-08-31 00:31:05 | 49.17448 | 10.16205 | 277° | 46km/h | 30021m | -15.5m/s | -44.5°C | 3.1% | 12.4hPa | 2.5V | 08:27:00 | 01:59:12 | 00:00:00 | |
| DL1NUX | 2026-08-31 00:31:02 | 49.17388 | 10.16303 | 342° | 53km/h | 30147m | -16.6m/s | -44°C | 3% | 12.2hPa | 2.6V | 08:27:43 | 01:59:04 | 00:00:00 | |
| HSKMA3-T | 2026-08-31 00:31:00 | 49.17422 | 10.16275 | 320° | 49km/h | 30098m | -15.9m/s | -44.2°C | 0% | 12.3hPa | 2.5V | 08:27:47 | 01:59:07 | 00:00:00 | |
| DK7TD | 2026-08-31 00:30:59 | 49.17412 | 10.16286 | 327° | 51km/h | 30114m | -16.2m/s | -44.1°C | 0% | 12.2hPa | 2.5V | 08:27:47 | 01:59:06 | 00:00:00 | |
| BIOWL1-15 | 2026-08-31 00:30:56 | 49.17325 | 10.16296 | 27° | 49km/h | 30230m | -17m/s | -43.8°C | 0% | 12.1hPa | 2.5V | 18:12:15 | 01:58:59 | 00:00:00 | |
| DL1XH-west | 2026-08-31 00:30:56 | 49.17362 | 10.16309 | 360° | 53km/h | 30179m | -16.7m/s | -43.9°C | 0% | 12.1hPa | 2.5V | 08:27:47 | 01:59:02 | 00:00:00 | |
| HEMX73-11 | 2026-08-31 00:30:55 | 49.17349 | 10.16307 | 10° | 51km/h | 30197m | -16.9m/s | -43.9°C | 0.7% | 12.1hPa | 2.5V | 00:00:00 | 00:00:00 | 00:00:00 | |
| DM0DOS-11 | 2026-08-31 00:30:53 | 49.17298 | 10.16258 | 59° | 47km/h | 30281m | -17.2m/s | -43.7°C | 3% | 11.9hPa | 2.5V | 08:30:00 | 01:58:56 | 00:00:00 | |
| HSKMA3-T | 2026-08-31 00:30:49 | 49.17298 | 10.16258 | 59° | 47km/h | 30281m | -17.2m/s | -43.7°C | 0% | 11.9hPa | 2.5V | 08:28:38 | 01:58:56 | 00:00:00 | |
| DL6DJ-15 | 2026-08-31 00:30:49 | 49.17293 | 10.16242 | 70° | 46km/h | 30298m | -17.1m/s | -43.7°C | 0.7% | 11.9hPa | 2.5V | 00:00:00 | 00:00:00 | 00:00:00 | |
| DL1NUX | 2026-08-31 00:30:48 | 49.17290 | 10.16225 | 83° | 46km/h | 30315m | -17.1m/s | -43.5°C | 2.9% | 11.9hPa | 2.5V | 08:27:53 | 01:58:54 | 00:00:00 | |
| DK7TD | 2026-08-31 00:30:48 | 49.17293 | 10.16242 | 71° | 47km/h | 30298m | -17.1m/s | -43.7°C | 0% | 11.9hPa | 2.5V | 08:28:38 | 01:58:55 | 00:00:00 | |
| DL1XH-west | 2026-08-31 00:30:45 | 49.17293 | 10.16190 | 108° | 46km/h | 30349m | -17m/s | -43.4°C | 0% | 11.8hPa | 2.6V | 08:28:38 | 01:58:52 | 00:00:00 | |
| DO3MHA-11 | 2026-08-31 00:30:45 | 49.17293 | 10.16190 | 109° | 57km/h | 30349m | -16.9m/s | -43.3°C | 2.9% | 11.8hPa | 2.5V | 00:00:00 | 01:58:52 | 00:00:00 | |
| DL1NUX | 2026-08-31 00:30:42 | 49.17387 | 10.16136 | 198° | 64km/h | 30489m | -18m/s | -42.7°C | 2.8% | 11.6hPa | 2.5V | 08:28:03 | 01:58:44 | 00:00:00 | |
| HSKMA3-T | 2026-08-31 00:30:39 | 49.17356 | 10.16128 | 179° | 60km/h | 30453m | -17.9m/s | -42.9°C | 0% | 11.7hPa | 2.5V | 08:28:38 | 01:58:46 | 00:00:00 | |
| DK7TD | 2026-08-31 00:30:37 | 49.17387 | 10.16136 | 199° | 64km/h | 30489m | -18m/s | -42.7°C | 0% | 11.6hPa | 2.5V | 08:28:38 | 01:58:44 | 00:00:00 | |
| DL1XH-west | 2026-08-31 00:30:35 | 49.17428 | 10.16178 | 230° | 66km/h | 30543m | -18.1m/s | -42.5°C | 0% | 11.5hPa | 2.6V | 08:28:38 | 01:58:41 | 00:00:00 | |
| HSKMA3-T | 2026-08-31 00:30:29 | 49.17447 | 10.16303 | 283° | 73km/h | 30631m | -17.6m/s | -42.6°C | 0% | 11.3hPa | 2.5V | 08:28:38 | 01:58:36 | 00:00:00 | |
| DL1NUX | 2026-08-31 00:30:28 | 49.17432 | 10.16356 | 302° | 77km/h | 30666m | -17.9m/s | -42.7°C | 2.8% | 11.3hPa | 2.6V | 08:28:13 | 01:58:34 | 00:00:00 | |
| DK7TD | 2026-08-31 00:30:27 | 49.17432 | 10.16356 | 302° | 77km/h | 30666m | -17.9m/s | -42.7°C | 0% | 11.3hPa | 2.6V | 08:28:38 | 01:58:34 | 00:00:00 | |
| BIOWL1-15 | 2026-08-31 00:30:27 | 49.17230 | 10.16297 | 90° | 60km/h | 30917m | -18.3m/s | -42.5°C | 0% | 10.9hPa | 2.5V | 18:12:15 | 01:58:20 | 00:00:00 | |
| DL1XH-west | 2026-08-31 00:30:24 | 49.17370 | 10.16428 | 342° | 82km/h | 30738m | -18.1m/s | -42.7°C | 0% | 11.1hPa | 2.6V | 08:28:38 | 01:58:30 | 00:00:00 | |
| Es werden nur die letzten 3500 von 5932 Frames angezeigt. GPX/KML und Diagramme bleiben verfügbar. | |||||||||||||||